<?xml version="1.0" encoding="UTF-8" standalone="no" ?>
<gpx xmlns="http://www.topografix.com/GPX/1/1" xmlns:xsi="http://www.w3.org/2001/XMLSchema-instance" xsi:schemaLocation="http://www.topografix.com/GPX/1/1 http://www.topografix.com/GPX/1/1/gpx.xsd" version="1.1" creator="VisuGPX - https://www.visugpx.com">
  <metadata>
    <name>Dourdan </name>
  </metadata>
  <trk>
    <name><![CDATA[Dourdan _1]]></name>
    <extensions>
      <line xmlns="http://www.topografix.com/GPX/gpx_style/0/2">
        <color>0000FF</color>
        <width>4</width>
      </line>
    </extensions>
    <trkseg>
      <trkpt lat="48.62256" lon="2.01832">
        <ele>120</ele>
        <time>2023-12-10T08:59:21Z</time>
      </trkpt>
      <trkpt lat="48.62256" lon="2.01832">
        <ele>121.6</ele>
        <time>2023-12-10T08:59:22Z</time>
      </trkpt>
      <trkpt lat="48.62254" lon="2.01834">
        <ele>121.6</ele>
        <time>2023-12-10T08:59:23Z</time>
      </trkpt>
      <trkpt lat="48.62251" lon="2.01836">
        <ele>121.6</ele>
        <time>2023-12-10T08:59:24Z</time>
      </trkpt>
      <trkpt lat="48.6225" lon="2.01839">
        <ele>121.6</ele>
        <time>2023-12-10T08:59:25Z</time>
      </trkpt>
      <trkpt lat="48.62248" lon="2.01843">
        <ele>121</ele>
        <time>2023-12-10T08:59:26Z</time>
      </trkpt>
      <trkpt lat="48.62248" lon="2.01846">
        <ele>121</ele>
        <time>2023-12-10T08:59:27Z</time>
      </trkpt>
      <trkpt lat="48.62247" lon="2.0185">
        <ele>121</ele>
        <time>2023-12-10T08:59:28Z</time>
      </trkpt>
      <trkpt lat="48.62248" lon="2.01854">
        <ele>121</ele>
        <time>2023-12-10T08:59:29Z</time>
      </trkpt>
      <trkpt lat="48.62249" lon="2.01859">
        <ele>121.8</ele>
        <time>2023-12-10T08:59:30Z</time>
      </trkpt>
      <trkpt lat="48.6225" lon="2.01863">
        <ele>121.8</ele>
        <time>2023-12-10T08:59:31Z</time>
      </trkpt>
      <trkpt lat="48.62251" lon="2.01868">
        <ele>121.8</ele>
        <time>2023-12-10T08:59:32Z</time>
      </trkpt>
      <trkpt lat="48.6225" lon="2.01873">
        <ele>121.6</ele>
        <time>2023-12-10T08:59:33Z</time>
      </trkpt>
      <trkpt lat="48.62248" lon="2.01876">
        <ele>121.4</ele>
        <time>2023-12-10T08:59:34Z</time>
      </trkpt>
      <trkpt lat="48.62245" lon="2.01877">
        <ele>121.4</ele>
        <time>2023-12-10T08:59:35Z</time>
      </trkpt>
      <trkpt lat="48.62241" lon="2.01876">
        <ele>121.4</ele>
        <time>2023-12-10T08:59:36Z</time>
      </trkpt>
      <trkpt lat="48.62238" lon="2.01873">
        <ele>121</ele>
        <time>2023-12-10T08:59:37Z</time>
      </trkpt>
      <trkpt lat="48.62236" lon="2.01869">
        <ele>121</ele>
        <time>2023-12-10T08:59:38Z</time>
      </trkpt>
      <trkpt lat="48.62235" lon="2.01863">
        <ele>121</ele>
        <time>2023-12-10T08:59:39Z</time>
      </trkpt>
      <trkpt lat="48.62235" lon="2.01857">
        <ele>121</ele>
        <time>2023-12-10T08:59:40Z</time>
      </trkpt>
      <trkpt lat="48.62236" lon="2.01852">
        <ele>120</ele>
        <time>2023-12-10T08:59:41Z</time>
      </trkpt>
      <trkpt lat="48.62236" lon="2.01846">
        <ele>120.8</ele>
        <time>2023-12-10T08:59:42Z</time>
      </trkpt>
      <trkpt lat="48.62237" lon="2.0184">
        <ele>120.8</ele>
        <time>2023-12-10T08:59:43Z</time>
      </trkpt>
      <trkpt lat="48.62237" lon="2.01834">
        <ele>120.8</ele>
        <time>2023-12-10T08:59:44Z</time>
      </trkpt>
      <trkpt lat="48.62237" lon="2.01828">
        <ele>120.8</ele>
        <time>2023-12-10T08:59:45Z</time>
      </trkpt>
      <trkpt lat="48.62237" lon="2.01821">
        <ele>121.2</ele>
        <time>2023-12-10T08:59:46Z</time>
      </trkpt>
      <trkpt lat="48.62237" lon="2.01814">
        <ele>121.2</ele>
        <time>2023-12-10T08:59:47Z</time>
      </trkpt>
      <trkpt lat="48.62236" lon="2.01807">
        <ele>121.2</ele>
        <time>2023-12-10T08:59:48Z</time>
      </trkpt>
      <trkpt lat="48.62236" lon="2.018">
        <ele>121.2</ele>
        <time>2023-12-10T08:59:49Z</time>
      </trkpt>
      <trkpt lat="48.62237" lon="2.01793">
        <ele>120.4</ele>
        <time>2023-12-10T08:59:50Z</time>
      </trkpt>
      <trkpt lat="48.62238" lon="2.01787">
        <ele>120.4</ele>
        <time>2023-12-10T08:59:51Z</time>
      </trkpt>
      <trkpt lat="48.62239" lon="2.0178">
        <ele>120.4</ele>
        <time>2023-12-10T08:59:52Z</time>
      </trkpt>
      <trkpt lat="48.62239" lon="2.01773">
        <ele>120.4</ele>
        <time>2023-12-10T08:59:53Z</time>
      </trkpt>
      <trkpt lat="48.6224" lon="2.01767">
        <ele>120.2</ele>
        <time>2023-12-10T08:59:54Z</time>
      </trkpt>
      <trkpt lat="48.62241" lon="2.0176">
        <ele>120.2</ele>
        <time>2023-12-10T08:59:55Z</time>
      </trkpt>
      <trkpt lat="48.62242" lon="2.01753">
        <ele>120.2</ele>
        <time>2023-12-10T08:59:56Z</time>
      </trkpt>
      <trkpt lat="48.62242" lon="2.01747">
        <ele>120.2</ele>
        <time>2023-12-10T08:59:57Z</time>
      </trkpt>
      <trkpt lat="48.62243" lon="2.01741">
        <ele>120.6</ele>
        <time>2023-12-10T08:59:58Z</time>
      </trkpt>
      <trkpt lat="48.62244" lon="2.01734">
        <ele>120.6</ele>
        <time>2023-12-10T08:59:59Z</time>
      </trkpt>
      <trkpt lat="48.62245" lon="2.01726">
        <ele>120.6</ele>
        <time>2023-12-10T09:00:00Z</time>
      </trkpt>
      <trkpt lat="48.62245" lon="2.0172">
        <ele>120.8</ele>
        <time>2023-12-10T09:00:01Z</time>
      </trkpt>
      <trkpt lat="48.62249" lon="2.01714">
        <ele>120.8</ele>
        <time>2023-12-10T09:00:02Z</time>
      </trkpt>
      <trkpt lat="48.6225" lon="2.01708">
        <ele>120.8</ele>
        <time>2023-12-10T09:00:03Z</time>
      </trkpt>
      <trkpt lat="48.6225" lon="2.01704">
        <ele>120.8</ele>
        <time>2023-12-10T09:00:04Z</time>
      </trkpt>
      <trkpt lat="48.62251" lon="2.01698">
        <ele>121.2</ele>
        <time>2023-12-10T09:00:05Z</time>
      </trkpt>
      <trkpt lat="48.62251" lon="2.0169">
        <ele>121.4</ele>
        <time>2023-12-10T09:00:06Z</time>
      </trkpt>
      <trkpt lat="48.62251" lon="2.01682">
        <ele>121.4</ele>
        <time>2023-12-10T09:00:07Z</time>
      </trkpt>
      <trkpt lat="48.62251" lon="2.01674">
        <ele>121.4</ele>
        <time>2023-12-10T09:00:08Z</time>
      </trkpt>
      <trkpt lat="48.62251" lon="2.01666">
        <ele>121.8</ele>
        <time>2023-12-10T09:00:09Z</time>
      </trkpt>
      <trkpt lat="48.62251" lon="2.01659">
        <ele>121.8</ele>
        <time>2023-12-10T09:00:10Z</time>
      </trkpt>
      <trkpt lat="48.62251" lon="2.01651">
        <ele>121.8</ele>
        <time>2023-12-10T09:00:11Z</time>
      </trkpt>
      <trkpt lat="48.62251" lon="2.01643">
        <ele>121.8</ele>
        <time>2023-12-10T09:00:12Z</time>
      </trkpt>
      <trkpt lat="48.62251" lon="2.01634">
        <ele>121.8</ele>
        <time>2023-12-10T09:00:13Z</time>
      </trkpt>
      <trkpt lat="48.62252" lon="2.01626">
        <ele>120.8</ele>
        <time>2023-12-10T09:00:14Z</time>
      </trkpt>
      <trkpt lat="48.62252" lon="2.01616">
        <ele>120.8</ele>
        <time>2023-12-10T09:00:15Z</time>
      </trkpt>
      <trkpt lat="48.62252" lon="2.01607">
        <ele>120.8</ele>
        <time>2023-12-10T09:00:16Z</time>
      </trkpt>
      <trkpt lat="48.62252" lon="2.01598">
        <ele>120.8</ele>
        <time>2023-12-10T09:00:17Z</time>
      </trkpt>
      <trkpt lat="48.62252" lon="2.0159">
        <ele>119.8</ele>
        <time>2023-12-10T09:00:18Z</time>
      </trkpt>
      <trkpt lat="48.62252" lon="2.01581">
        <ele>119.8</ele>
        <time>2023-12-10T09:00:19Z</time>
      </trkpt>
      <trkpt lat="48.62252" lon="2.01572">
        <ele>119.8</ele>
        <time>2023-12-10T09:00:20Z</time>
      </trkpt>
      <trkpt lat="48.62252" lon="2.01563">
        <ele>120.8</ele>
        <time>2023-12-10T09:00:21Z</time>
      </trkpt>
      <trkpt lat="48.62252" lon="2.01555">
        <ele>122</ele>
        <time>2023-12-10T09:00:22Z</time>
      </trkpt>
      <trkpt lat="48.62252" lon="2.01547">
        <ele>122</ele>
        <time>2023-12-10T09:00:23Z</time>
      </trkpt>
      <trkpt lat="48.62252" lon="2.01539">
        <ele>122</ele>
        <time>2023-12-10T09:00:24Z</time>
      </trkpt>
      <trkpt lat="48.62252" lon="2.0153">
        <ele>122</ele>
        <time>2023-12-10T09:00:25Z</time>
      </trkpt>
      <trkpt lat="48.62252" lon="2.01521">
        <ele>121.8</ele>
        <time>2023-12-10T09:00:26Z</time>
      </trkpt>
      <trkpt lat="48.62252" lon="2.01513">
        <ele>121.8</ele>
        <time>2023-12-10T09:00:27Z</time>
      </trkpt>
      <trkpt lat="48.62252" lon="2.01504">
        <ele>121.8</ele>
        <time>2023-12-10T09:00:28Z</time>
      </trkpt>
      <trkpt lat="48.62252" lon="2.01495">
        <ele>121.8</ele>
        <time>2023-12-10T09:00:29Z</time>
      </trkpt>
      <trkpt lat="48.62253" lon="2.01487">
        <ele>122.2</ele>
        <time>2023-12-10T09:00:30Z</time>
      </trkpt>
      <trkpt lat="48.62253" lon="2.01479">
        <ele>122.2</ele>
        <time>2023-12-10T09:00:31Z</time>
      </trkpt>
      <trkpt lat="48.62253" lon="2.0147">
        <ele>122.2</ele>
        <time>2023-12-10T09:00:32Z</time>
      </trkpt>
      <trkpt lat="48.62253" lon="2.01462">
        <ele>121.8</ele>
        <time>2023-12-10T09:00:33Z</time>
      </trkpt>
      <trkpt lat="48.62254" lon="2.01454">
        <ele>121.8</ele>
        <time>2023-12-10T09:00:34Z</time>
      </trkpt>
      <trkpt lat="48.62254" lon="2.01445">
        <ele>121.8</ele>
        <time>2023-12-10T09:00:35Z</time>
      </trkpt>
      <trkpt lat="48.62254" lon="2.01437">
        <ele>121.8</ele>
        <time>2023-12-10T09:00:36Z</time>
      </trkpt>
      <trkpt lat="48.62255" lon="2.01429">
        <ele>121.8</ele>
        <time>2023-12-10T09:00:37Z</time>
      </trkpt>
      <trkpt lat="48.62255" lon="2.01421">
        <ele>122</ele>
        <time>2023-12-10T09:00:38Z</time>
      </trkpt>
      <trkpt lat="48.62256" lon="2.01412">
        <ele>122</ele>
        <time>2023-12-10T09:00:39Z</time>
      </trkpt>
      <trkpt lat="48.62256" lon="2.01404">
        <ele>122</ele>
        <time>2023-12-10T09:00:40Z</time>
      </trkpt>
      <trkpt lat="48.62256" lon="2.01397">
        <ele>122.8</ele>
        <time>2023-12-10T09:00:41Z</time>
      </trkpt>
      <trkpt lat="48.62256" lon="2.01389">
        <ele>122.6</ele>
        <time>2023-12-10T09:00:42Z</time>
      </trkpt>
      <trkpt lat="48.62256" lon="2.01381">
        <ele>122.6</ele>
        <time>2023-12-10T09:00:43Z</time>
      </trkpt>
      <trkpt lat="48.62257" lon="2.01373">
        <ele>122.6</ele>
        <time>2023-12-10T09:00:44Z</time>
      </trkpt>
      <trkpt lat="48.62257" lon="2.01365">
        <ele>123.2</ele>
        <time>2023-12-10T09:00:45Z</time>
      </trkpt>
      <trkpt lat="48.62257" lon="2.01357">
        <ele>123.4</ele>
        <time>2023-12-10T09:00:46Z</time>
      </trkpt>
      <trkpt lat="48.62257" lon="2.0135">
        <ele>123.4</ele>
        <time>2023-12-10T09:00:47Z</time>
      </trkpt>
      <trkpt lat="48.62257" lon="2.01342">
        <ele>123.4</ele>
        <time>2023-12-10T09:00:48Z</time>
      </trkpt>
      <trkpt lat="48.62257" lon="2.01335">
        <ele>124.4</ele>
        <time>2023-12-10T09:00:49Z</time>
      </trkpt>
      <trkpt lat="48.62257" lon="2.01328">
        <ele>125.2</ele>
        <time>2023-12-10T09:00:50Z</time>
      </trkpt>
      <trkpt lat="48.62257" lon="2.01321">
        <ele>125.2</ele>
        <time>2023-12-10T09:00:51Z</time>
      </trkpt>
      <trkpt lat="48.62257" lon="2.01314">
        <ele>125.2</ele>
        <time>2023-12-10T09:00:52Z</time>
      </trkpt>
      <trkpt lat="48.62257" lon="2.01307">
        <ele>125.2</ele>
        <time>2023-12-10T09:00:53Z</time>
      </trkpt>
      <trkpt lat="48.62257" lon="2.013">
        <ele>125.6</ele>
        <time>2023-12-10T09:00:54Z</time>
      </trkpt>
      <trkpt lat="48.62257" lon="2.01293">
        <ele>125.6</ele>
        <time>2023-12-10T09:00:55Z</time>
      </trkpt>
      <trkpt lat="48.62257" lon="2.01286">
        <ele>125.6</ele>
        <time>2023-12-10T09:00:56Z</time>
      </trkpt>
      <trkpt lat="48.62257" lon="2.01279">
        <ele>125.6</ele>
        <time>2023-12-10T09:00:57Z</time>
      </trkpt>
      <trkpt lat="48.62257" lon="2.01273">
        <ele>126</ele>
        <time>2023-12-10T09:00:58Z</time>
      </trkpt>
      <trkpt lat="48.62258" lon="2.01266">
        <ele>126</ele>
        <time>2023-12-10T09:00:59Z</time>
      </trkpt>
      <trkpt lat="48.62258" lon="2.01259">
        <ele>126</ele>
        <time>2023-12-10T09:01:00Z</time>
      </trkpt>
      <trkpt lat="48.62258" lon="2.01252">
        <ele>126</ele>
        <time>2023-12-10T09:01:01Z</time>
      </trkpt>
      <trkpt lat="48.62258" lon="2.01245">
        <ele>126.4</ele>
        <time>2023-12-10T09:01:02Z</time>
      </trkpt>
      <trkpt lat="48.62259" lon="2.01238">
        <ele>126.4</ele>
        <time>2023-12-10T09:01:03Z</time>
      </trkpt>
      <trkpt lat="48.62259" lon="2.0123">
        <ele>126.4</ele>
        <time>2023-12-10T09:01:04Z</time>
      </trkpt>
      <trkpt lat="48.6226" lon="2.01223">
        <ele>126.6</ele>
        <time>2023-12-10T09:01:05Z</time>
      </trkpt>
      <trkpt lat="48.6226" lon="2.01217">
        <ele>127</ele>
        <time>2023-12-10T09:01:06Z</time>
      </trkpt>
      <trkpt lat="48.6226" lon="2.0121">
        <ele>127</ele>
        <time>2023-12-10T09:01:07Z</time>
      </trkpt>
      <trkpt lat="48.62261" lon="2.01203">
        <ele>127</ele>
        <time>2023-12-10T09:01:08Z</time>
      </trkpt>
      <trkpt lat="48.62261" lon="2.01197">
        <ele>128</ele>
        <time>2023-12-10T09:01:09Z</time>
      </trkpt>
      <trkpt lat="48.62262" lon="2.01191">
        <ele>128</ele>
        <time>2023-12-10T09:01:10Z</time>
      </trkpt>
      <trkpt lat="48.62262" lon="2.01185">
        <ele>128</ele>
        <time>2023-12-10T09:01:11Z</time>
      </trkpt>
      <trkpt lat="48.62262" lon="2.01178">
        <ele>128</ele>
        <time>2023-12-10T09:01:12Z</time>
      </trkpt>
      <trkpt lat="48.62262" lon="2.01171">
        <ele>128.6</ele>
        <time>2023-12-10T09:01:13Z</time>
      </trkpt>
      <trkpt lat="48.62263" lon="2.01165">
        <ele>128.2</ele>
        <time>2023-12-10T09:01:14Z</time>
      </trkpt>
      <trkpt lat="48.62263" lon="2.01158">
        <ele>128.2</ele>
        <time>2023-12-10T09:01:15Z</time>
      </trkpt>
      <trkpt lat="48.62263" lon="2.01151">
        <ele>128.2</ele>
        <time>2023-12-10T09:01:16Z</time>
      </trkpt>
      <trkpt lat="48.62263" lon="2.01143">
        <ele>127.2</ele>
        <time>2023-12-10T09:01:17Z</time>
      </trkpt>
      <trkpt lat="48.62263" lon="2.01135">
        <ele>126.2</ele>
        <time>2023-12-10T09:01:18Z</time>
      </trkpt>
      <trkpt lat="48.62263" lon="2.01127">
        <ele>126.2</ele>
        <time>2023-12-10T09:01:19Z</time>
      </trkpt>
      <trkpt lat="48.62263" lon="2.01119">
        <ele>126.2</ele>
        <time>2023-12-10T09:01:20Z</time>
      </trkpt>
      <trkpt lat="48.62263" lon="2.01111">
        <ele>125.6</ele>
        <time>2023-12-10T09:01:21Z</time>
      </trkpt>
      <trkpt lat="48.62263" lon="2.01102">
        <ele>124.6</ele>
        <time>2023-12-10T09:01:22Z</time>
      </trkpt>
      <trkpt lat="48.62263" lon="2.01094">
        <ele>124.6</ele>
        <time>2023-12-10T09:01:23Z</time>
      </trkpt>
      <trkpt lat="48.62263" lon="2.01086">
        <ele>124.6</ele>
        <time>2023-12-10T09:01:24Z</time>
      </trkpt>
      <trkpt lat="48.62264" lon="2.01078">
        <ele>123.6</ele>
        <time>2023-12-10T09:01:25Z</time>
      </trkpt>
      <trkpt lat="48.62264" lon="2.01068">
        <ele>122.2</ele>
        <time>2023-12-10T09:01:26Z</time>
      </trkpt>
      <trkpt lat="48.62262" lon="2.01057">
        <ele>122.2</ele>
        <time>2023-12-10T09:01:27Z</time>
      </trkpt>
      <trkpt lat="48.62262" lon="2.01047">
        <ele>122.2</ele>
        <time>2023-12-10T09:01:28Z</time>
      </trkpt>
      <trkpt lat="48.62262" lon="2.01037">
        <ele>122.2</ele>
        <time>2023-12-10T09:01:29Z</time>
      </trkpt>
      <trkpt lat="48.62261" lon="2.01025">
        <ele>119.8</ele>
        <time>2023-12-10T09:01:30Z</time>
      </trkpt>
      <trkpt lat="48.62259" lon="2.01013">
        <ele>119.8</ele>
        <time>2023-12-10T09:01:31Z</time>
      </trkpt>
      <trkpt lat="48.62257" lon="2.01">
        <ele>119.8</ele>
        <time>2023-12-10T09:01:32Z</time>
      </trkpt>
      <trkpt lat="48.62256" lon="2.00987">
        <ele>118.8</ele>
        <time>2023-12-10T09:01:33Z</time>
      </trkpt>
      <trkpt lat="48.62254" lon="2.00975">
        <ele>116.4</ele>
        <time>2023-12-10T09:01:34Z</time>
      </trkpt>
      <trkpt lat="48.62252" lon="2.00961">
        <ele>116.4</ele>
        <time>2023-12-10T09:01:35Z</time>
      </trkpt>
      <trkpt lat="48.6225" lon="2.00948">
        <ele>116.4</ele>
        <time>2023-12-10T09:01:36Z</time>
      </trkpt>
      <trkpt lat="48.62249" lon="2.00935">
        <ele>116.4</ele>
        <time>2023-12-10T09:01:37Z</time>
      </trkpt>
      <trkpt lat="48.62247" lon="2.00922">
        <ele>115.4</ele>
        <time>2023-12-10T09:01:38Z</time>
      </trkpt>
      <trkpt lat="48.62245" lon="2.00908">
        <ele>115.4</ele>
        <time>2023-12-10T09:01:39Z</time>
      </trkpt>
      <trkpt lat="48.62243" lon="2.00893">
        <ele>115.4</ele>
        <time>2023-12-10T09:01:40Z</time>
      </trkpt>
      <trkpt lat="48.62241" lon="2.00879">
        <ele>114.4</ele>
        <time>2023-12-10T09:01:41Z</time>
      </trkpt>
      <trkpt lat="48.62239" lon="2.00864">
        <ele>112.6</ele>
        <time>2023-12-10T09:01:42Z</time>
      </trkpt>
      <trkpt lat="48.62237" lon="2.00849">
        <ele>112.6</ele>
        <time>2023-12-10T09:01:43Z</time>
      </trkpt>
      <trkpt lat="48.62234" lon="2.00833">
        <ele>112.6</ele>
        <time>2023-12-10T09:01:44Z</time>
      </trkpt>
      <trkpt lat="48.62232" lon="2.00817">
        <ele>111.6</ele>
        <time>2023-12-10T09:01:45Z</time>
      </trkpt>
      <trkpt lat="48.6223" lon="2.00802">
        <ele>110.2</ele>
        <time>2023-12-10T09:01:46Z</time>
      </trkpt>
      <trkpt lat="48.62228" lon="2.00787">
        <ele>110.2</ele>
        <time>2023-12-10T09:01:47Z</time>
      </trkpt>
      <trkpt lat="48.62226" lon="2.00772">
        <ele>110.2</ele>
        <time>2023-12-10T09:01:48Z</time>
      </trkpt>
      <trkpt lat="48.62224" lon="2.00758">
        <ele>109.4</ele>
        <time>2023-12-10T09:01:49Z</time>
      </trkpt>
      <trkpt lat="48.62222" lon="2.00744">
        <ele>110.2</ele>
        <time>2023-12-10T09:01:50Z</time>
      </trkpt>
      <trkpt lat="48.62221" lon="2.0073">
        <ele>110.2</ele>
        <time>2023-12-10T09:01:51Z</time>
      </trkpt>
      <trkpt lat="48.62219" lon="2.00717">
        <ele>110.2</ele>
        <time>2023-12-10T09:01:52Z</time>
      </trkpt>
      <trkpt lat="48.62218" lon="2.00704">
        <ele>110.2</ele>
        <time>2023-12-10T09:01:53Z</time>
      </trkpt>
      <trkpt lat="48.62217" lon="2.00691">
        <ele>109.6</ele>
        <time>2023-12-10T09:01:54Z</time>
      </trkpt>
      <trkpt lat="48.62215" lon="2.00678">
        <ele>109.6</ele>
        <time>2023-12-10T09:01:55Z</time>
      </trkpt>
      <trkpt lat="48.62215" lon="2.00665">
        <ele>109.6</ele>
        <time>2023-12-10T09:01:56Z</time>
      </trkpt>
      <trkpt lat="48.62214" lon="2.00652">
        <ele>109.6</ele>
        <time>2023-12-10T09:01:57Z</time>
      </trkpt>
      <trkpt lat="48.62212" lon="2.0064">
        <ele>109.6</ele>
        <time>2023-12-10T09:01:58Z</time>
      </trkpt>
      <trkpt lat="48.62211" lon="2.00628">
        <ele>109.6</ele>
        <time>2023-12-10T09:01:59Z</time>
      </trkpt>
      <trkpt lat="48.62209" lon="2.00616">
        <ele>109.6</ele>
        <time>2023-12-10T09:02:00Z</time>
      </trkpt>
      <trkpt lat="48.62208" lon="2.00604">
        <ele>109.6</ele>
        <time>2023-12-10T09:02:01Z</time>
      </trkpt>
      <trkpt lat="48.62207" lon="2.00592">
        <ele>109.8</ele>
        <time>2023-12-10T09:02:02Z</time>
      </trkpt>
      <trkpt lat="48.62206" lon="2.00581">
        <ele>109.8</ele>
        <time>2023-12-10T09:02:03Z</time>
      </trkpt>
      <trkpt lat="48.62204" lon="2.00569">
        <ele>109.8</ele>
        <time>2023-12-10T09:02:04Z</time>
      </trkpt>
      <trkpt lat="48.62203" lon="2.00558">
        <ele>109.8</ele>
        <time>2023-12-10T09:02:05Z</time>
      </trkpt>
      <trkpt lat="48.62201" lon="2.00547">
        <ele>110.2</ele>
        <time>2023-12-10T09:02:06Z</time>
      </trkpt>
      <trkpt lat="48.622" lon="2.00536">
        <ele>110.2</ele>
        <time>2023-12-10T09:02:07Z</time>
      </trkpt>
      <trkpt lat="48.62199" lon="2.00525">
        <ele>110.2</ele>
        <time>2023-12-10T09:02:08Z</time>
      </trkpt>
      <trkpt lat="48.62198" lon="2.00514">
        <ele>110.4</ele>
        <time>2023-12-10T09:02:09Z</time>
      </trkpt>
      <trkpt lat="48.62197" lon="2.00502">
        <ele>110.6</ele>
        <time>2023-12-10T09:02:10Z</time>
      </trkpt>
      <trkpt lat="48.62196" lon="2.00491">
        <ele>110.6</ele>
        <time>2023-12-10T09:02:11Z</time>
      </trkpt>
      <trkpt lat="48.62194" lon="2.0048">
        <ele>110.6</ele>
        <time>2023-12-10T09:02:12Z</time>
      </trkpt>
      <trkpt lat="48.62193" lon="2.00469">
        <ele>109.8</ele>
        <time>2023-12-10T09:02:13Z</time>
      </trkpt>
      <trkpt lat="48.62192" lon="2.00459">
        <ele>111.4</ele>
        <time>2023-12-10T09:02:14Z</time>
      </trkpt>
      <trkpt lat="48.62191" lon="2.00449">
        <ele>111.4</ele>
        <time>2023-12-10T09:02:15Z</time>
      </trkpt>
      <trkpt lat="48.62188" lon="2.00438">
        <ele>111.4</ele>
        <time>2023-12-10T09:02:16Z</time>
      </trkpt>
      <trkpt lat="48.62186" lon="2.00427">
        <ele>110.4</ele>
        <time>2023-12-10T09:02:17Z</time>
      </trkpt>
      <trkpt lat="48.62184" lon="2.00416">
        <ele>110.4</ele>
        <time>2023-12-10T09:02:18Z</time>
      </trkpt>
      <trkpt lat="48.62183" lon="2.00405">
        <ele>110.4</ele>
        <time>2023-12-10T09:02:19Z</time>
      </trkpt>
      <trkpt lat="48.62181" lon="2.00393">
        <ele>110.4</ele>
        <time>2023-12-10T09:02:20Z</time>
      </trkpt>
      <trkpt lat="48.6218" lon="2.00382">
        <ele>110.4</ele>
        <time>2023-12-10T09:02:21Z</time>
      </trkpt>
      <trkpt lat="48.62178" lon="2.00371">
        <ele>109.8</ele>
        <time>2023-12-10T09:02:22Z</time>
      </trkpt>
      <trkpt lat="48.62176" lon="2.0036">
        <ele>109.8</ele>
        <time>2023-12-10T09:02:23Z</time>
      </trkpt>
      <trkpt lat="48.62175" lon="2.00349">
        <ele>109.8</ele>
        <time>2023-12-10T09:02:24Z</time>
      </trkpt>
      <trkpt lat="48.62172" lon="2.00339">
        <ele>110.8</ele>
        <time>2023-12-10T09:02:25Z</time>
      </trkpt>
      <trkpt lat="48.62171" lon="2.00328">
        <ele>110.8</ele>
        <time>2023-12-10T09:02:26Z</time>
      </trkpt>
      <trkpt lat="48.62169" lon="2.00318">
        <ele>110.8</ele>
        <time>2023-12-10T09:02:27Z</time>
      </trkpt>
      <trkpt lat="48.62168" lon="2.00308">
        <ele>110.8</ele>
        <time>2023-12-10T09:02:28Z</time>
      </trkpt>
      <trkpt lat="48.62167" lon="2.00298">
        <ele>110.8</ele>
        <time>2023-12-10T09:02:29Z</time>
      </trkpt>
      <trkpt lat="48.62165" lon="2.00288">
        <ele>109.8</ele>
        <time>2023-12-10T09:02:30Z</time>
      </trkpt>
      <trkpt lat="48.62163" lon="2.0028">
        <ele>109.8</ele>
        <time>2023-12-10T09:02:31Z</time>
      </trkpt>
      <trkpt lat="48.6216" lon="2.00271">
        <ele>109.8</ele>
        <time>2023-12-10T09:02:32Z</time>
      </trkpt>
      <trkpt lat="48.62157" lon="2.00262">
        <ele>109.8</ele>
        <time>2023-12-10T09:02:33Z</time>
      </trkpt>
      <trkpt lat="48.62153" lon="2.00252">
        <ele>109.8</ele>
        <time>2023-12-10T09:02:34Z</time>
      </trkpt>
      <trkpt lat="48.62149" lon="2.00243">
        <ele>109.8</ele>
        <time>2023-12-10T09:02:35Z</time>
      </trkpt>
      <trkpt lat="48.62146" lon="2.00233">
        <ele>109.8</ele>
        <time>2023-12-10T09:02:36Z</time>
      </trkpt>
      <trkpt lat="48.62143" lon="2.00223">
        <ele>108.8</ele>
        <time>2023-12-10T09:02:37Z</time>
      </trkpt>
      <trkpt lat="48.62139" lon="2.00213">
        <ele>107.2</ele>
        <time>2023-12-10T09:02:38Z</time>
      </trkpt>
      <trkpt lat="48.62135" lon="2.00203">
        <ele>107.2</ele>
        <time>2023-12-10T09:02:39Z</time>
      </trkpt>
      <trkpt lat="48.62131" lon="2.00192">
        <ele>107.2</ele>
        <time>2023-12-10T09:02:40Z</time>
      </trkpt>
      <trkpt lat="48.62127" lon="2.00182">
        <ele>107.2</ele>
        <time>2023-12-10T09:02:41Z</time>
      </trkpt>
      <trkpt lat="48.62123" lon="2.00172">
        <ele>106.4</ele>
        <time>2023-12-10T09:02:42Z</time>
      </trkpt>
      <trkpt lat="48.6212" lon="2.00161">
        <ele>106.4</ele>
        <time>2023-12-10T09:02:43Z</time>
      </trkpt>
      <trkpt lat="48.62116" lon="2.00151">
        <ele>106.4</ele>
        <time>2023-12-10T09:02:44Z</time>
      </trkpt>
      <trkpt lat="48.62112" lon="2.0014">
        <ele>105.6</ele>
        <time>2023-12-10T09:02:45Z</time>
      </trkpt>
      <trkpt lat="48.62108" lon="2.0013">
        <ele>105</ele>
        <time>2023-12-10T09:02:46Z</time>
      </trkpt>
      <trkpt lat="48.62105" lon="2.0012">
        <ele>105</ele>
        <time>2023-12-10T09:02:47Z</time>
      </trkpt>
      <trkpt lat="48.62101" lon="2.00109">
        <ele>105</ele>
        <time>2023-12-10T09:02:48Z</time>
      </trkpt>
      <trkpt lat="48.62097" lon="2.00099">
        <ele>104.8</ele>
        <time>2023-12-10T09:02:49Z</time>
      </trkpt>
      <trkpt lat="48.62093" lon="2.00088">
        <ele>104.8</ele>
        <time>2023-12-10T09:02:50Z</time>
      </trkpt>
      <trkpt lat="48.6209" lon="2.00078">
        <ele>104.8</ele>
        <time>2023-12-10T09:02:51Z</time>
      </trkpt>
      <trkpt lat="48.62086" lon="2.00067">
        <ele>104.8</ele>
        <time>2023-12-10T09:02:52Z</time>
      </trkpt>
      <trkpt lat="48.62083" lon="2.00056">
        <ele>104.8</ele>
        <time>2023-12-10T09:02:53Z</time>
      </trkpt>
      <trkpt lat="48.62081" lon="2.00046">
        <ele>104.2</ele>
        <time>2023-12-10T09:02:54Z</time>
      </trkpt>
      <trkpt lat="48.62079" lon="2.00034">
        <ele>104.2</ele>
        <time>2023-12-10T09:02:55Z</time>
      </trkpt>
      <trkpt lat="48.62077" lon="2.00023">
        <ele>104.2</ele>
        <time>2023-12-10T09:02:56Z</time>
      </trkpt>
      <trkpt lat="48.62074" lon="2.00013">
        <ele>104.2</ele>
        <time>2023-12-10T09:02:57Z</time>
      </trkpt>
      <trkpt lat="48.62072" lon="2.00001">
        <ele>104.4</ele>
        <time>2023-12-10T09:02:58Z</time>
      </trkpt>
      <trkpt lat="48.6207" lon="1.99989">
        <ele>104.4</ele>
        <time>2023-12-10T09:02:59Z</time>
      </trkpt>
      <trkpt lat="48.62069" lon="1.99978">
        <ele>104.4</ele>
        <time>2023-12-10T09:03:00Z</time>
      </trkpt>
      <trkpt lat="48.62067" lon="1.99967">
        <ele>104.4</ele>
        <time>2023-12-10T09:03:01Z</time>
      </trkpt>
      <trkpt lat="48.62066" lon="1.99956">
        <ele>104.4</ele>
        <time>2023-12-10T09:03:02Z</time>
      </trkpt>
      <trkpt lat="48.62065" lon="1.99946">
        <ele>104.4</ele>
        <time>2023-12-10T09:03:03Z</time>
      </trkpt>
      <trkpt lat="48.62064" lon="1.99936">
        <ele>104.4</ele>
        <time>2023-12-10T09:03:04Z</time>
      </trkpt>
      <trkpt lat="48.62064" lon="1.99926">
        <ele>105.4</ele>
        <time>2023-12-10T09:03:05Z</time>
      </trkpt>
      <trkpt lat="48.62066" lon="1.99917">
        <ele>106.8</ele>
        <time>2023-12-10T09:03:06Z</time>
      </trkpt>
      <trkpt lat="48.62069" lon="1.99909">
        <ele>106.8</ele>
        <time>2023-12-10T09:03:07Z</time>
      </trkpt>
      <trkpt lat="48.62073" lon="1.99902">
        <ele>106.8</ele>
        <time>2023-12-10T09:03:08Z</time>
      </trkpt>
      <trkpt lat="48.62078" lon="1.99897">
        <ele>106.8</ele>
        <time>2023-12-10T09:03:09Z</time>
      </trkpt>
      <trkpt lat="48.62083" lon="1.99892">
        <ele>106.6</ele>
        <time>2023-12-10T09:03:10Z</time>
      </trkpt>
      <trkpt lat="48.62088" lon="1.99887">
        <ele>106.6</ele>
        <time>2023-12-10T09:03:11Z</time>
      </trkpt>
      <trkpt lat="48.62094" lon="1.99883">
        <ele>106.6</ele>
        <time>2023-12-10T09:03:12Z</time>
      </trkpt>
      <trkpt lat="48.621" lon="1.99879">
        <ele>106.6</ele>
        <time>2023-12-10T09:03:13Z</time>
      </trkpt>
      <trkpt lat="48.62106" lon="1.99875">
        <ele>106.6</ele>
        <time>2023-12-10T09:03:14Z</time>
      </trkpt>
      <trkpt lat="48.62111" lon="1.99871">
        <ele>106.6</ele>
        <time>2023-12-10T09:03:15Z</time>
      </trkpt>
      <trkpt lat="48.62117" lon="1.99866">
        <ele>106.6</ele>
        <time>2023-12-10T09:03:16Z</time>
      </trkpt>
      <trkpt lat="48.62123" lon="1.99861">
        <ele>107.6</ele>
        <time>2023-12-10T09:03:17Z</time>
      </trkpt>
      <trkpt lat="48.62128" lon="1.99856">
        <ele>108</ele>
        <time>2023-12-10T09:03:18Z</time>
      </trkpt>
      <trkpt lat="48.62134" lon="1.99851">
        <ele>108</ele>
        <time>2023-12-10T09:03:19Z</time>
      </trkpt>
      <trkpt lat="48.62139" lon="1.99846">
        <ele>108</ele>
        <time>2023-12-10T09:03:20Z</time>
      </trkpt>
      <trkpt lat="48.62144" lon="1.99841">
        <ele>108.4</ele>
        <time>2023-12-10T09:03:21Z</time>
      </trkpt>
      <trkpt lat="48.6215" lon="1.99837">
        <ele>108.8</ele>
        <time>2023-12-10T09:03:22Z</time>
      </trkpt>
      <trkpt lat="48.62155" lon="1.99832">
        <ele>108.8</ele>
        <time>2023-12-10T09:03:23Z</time>
      </trkpt>
      <trkpt lat="48.6216" lon="1.99827">
        <ele>108.8</ele>
        <time>2023-12-10T09:03:24Z</time>
      </trkpt>
      <trkpt lat="48.62165" lon="1.99822">
        <ele>109.2</ele>
        <time>2023-12-10T09:03:25Z</time>
      </trkpt>
      <trkpt lat="48.6217" lon="1.99816">
        <ele>109.2</ele>
        <time>2023-12-10T09:03:26Z</time>
      </trkpt>
      <trkpt lat="48.62175" lon="1.9981">
        <ele>109.2</ele>
        <time>2023-12-10T09:03:27Z</time>
      </trkpt>
      <trkpt lat="48.62179" lon="1.99803">
        <ele>109.2</ele>
        <time>2023-12-10T09:03:28Z</time>
      </trkpt>
      <trkpt lat="48.62184" lon="1.99797">
        <ele>109.8</ele>
        <time>2023-12-10T09:03:29Z</time>
      </trkpt>
      <trkpt lat="48.62188" lon="1.9979">
        <ele>108.6</ele>
        <time>2023-12-10T09:03:30Z</time>
      </trkpt>
      <trkpt lat="48.62192" lon="1.99784">
        <ele>108.6</ele>
        <time>2023-12-10T09:03:31Z</time>
      </trkpt>
      <trkpt lat="48.62196" lon="1.99778">
        <ele>108.6</ele>
        <time>2023-12-10T09:03:32Z</time>
      </trkpt>
      <trkpt lat="48.62199" lon="1.9977">
        <ele>109.6</ele>
        <time>2023-12-10T09:03:33Z</time>
      </trkpt>
      <trkpt lat="48.62202" lon="1.99762">
        <ele>110.4</ele>
        <time>2023-12-10T09:03:34Z</time>
      </trkpt>
      <trkpt lat="48.62204" lon="1.99754">
        <ele>110.4</ele>
        <time>2023-12-10T09:03:35Z</time>
      </trkpt>
      <trkpt lat="48.62205" lon="1.99745">
        <ele>110.4</ele>
        <time>2023-12-10T09:03:36Z</time>
      </trkpt>
      <trkpt lat="48.62205" lon="1.99735">
        <ele>109.4</ele>
        <time>2023-12-10T09:03:37Z</time>
      </trkpt>
      <trkpt lat="48.62206" lon="1.99726">
        <ele>108.8</ele>
        <time>2023-12-10T09:03:38Z</time>
      </trkpt>
      <trkpt lat="48.62207" lon="1.99716">
        <ele>108.8</ele>
        <time>2023-12-10T09:03:39Z</time>
      </trkpt>
      <trkpt lat="48.62207" lon="1.99707">
        <ele>108.8</ele>
        <time>2023-12-10T09:03:40Z</time>
      </trkpt>
      <trkpt lat="48.62207" lon="1.99696">
        <ele>107.8</ele>
        <time>2023-12-10T09:03:41Z</time>
      </trkpt>
      <trkpt lat="48.62207" lon="1.99686">
        <ele>107</ele>
        <time>2023-12-10T09:03:42Z</time>
      </trkpt>
      <trkpt lat="48.62208" lon="1.99675">
        <ele>107</ele>
        <time>2023-12-10T09:03:43Z</time>
      </trkpt>
      <trkpt lat="48.62209" lon="1.99664">
        <ele>107</ele>
        <time>2023-12-10T09:03:44Z</time>
      </trkpt>
      <trkpt lat="48.62211" lon="1.99653">
        <ele>106.2</ele>
        <time>2023-12-10T09:03:45Z</time>
      </trkpt>
      <trkpt lat="48.62212" lon="1.99642">
        <ele>105.8</ele>
        <time>2023-12-10T09:03:46Z</time>
      </trkpt>
      <trkpt lat="48.62214" lon="1.99631">
        <ele>105.8</ele>
        <time>2023-12-10T09:03:47Z</time>
      </trkpt>
      <trkpt lat="48.62215" lon="1.99619">
        <ele>105.8</ele>
        <time>2023-12-10T09:03:48Z</time>
      </trkpt>
      <trkpt lat="48.62217" lon="1.99606">
        <ele>105.8</ele>
        <time>2023-12-10T09:03:49Z</time>
      </trkpt>
      <trkpt lat="48.62218" lon="1.99594">
        <ele>103.4</ele>
        <time>2023-12-10T09:03:50Z</time>
      </trkpt>
      <trkpt lat="48.62219" lon="1.99581">
        <ele>103.4</ele>
        <time>2023-12-10T09:03:51Z</time>
      </trkpt>
      <trkpt lat="48.6222" lon="1.99568">
        <ele>103.4</ele>
        <time>2023-12-10T09:03:52Z</time>
      </trkpt>
      <trkpt lat="48.6222" lon="1.99555">
        <ele>102.4</ele>
        <time>2023-12-10T09:03:53Z</time>
      </trkpt>
      <trkpt lat="48.62219" lon="1.99542">
        <ele>100.8</ele>
        <time>2023-12-10T09:03:54Z</time>
      </trkpt>
      <trkpt lat="48.62218" lon="1.99529">
        <ele>100.8</ele>
        <time>2023-12-10T09:03:55Z</time>
      </trkpt>
      <trkpt lat="48.62219" lon="1.99516">
        <ele>100.8</ele>
        <time>2023-12-10T09:03:56Z</time>
      </trkpt>
      <trkpt lat="48.62219" lon="1.99502">
        <ele>99.8</ele>
        <time>2023-12-10T09:03:57Z</time>
      </trkpt>
      <trkpt lat="48.62218" lon="1.99489">
        <ele>100.2</ele>
        <time>2023-12-10T09:03:58Z</time>
      </trkpt>
      <trkpt lat="48.62218" lon="1.99475">
        <ele>100.2</ele>
        <time>2023-12-10T09:03:59Z</time>
      </trkpt>
      <trkpt lat="48.62218" lon="1.99462">
        <ele>100.2</ele>
        <time>2023-12-10T09:04:00Z</time>
      </trkpt>
      <trkpt lat="48.62217" lon="1.99448">
        <ele>99.4</ele>
        <time>2023-12-10T09:04:01Z</time>
      </trkpt>
      <trkpt lat="48.62217" lon="1.99435">
        <ele>98.2</ele>
        <time>2023-12-10T09:04:02Z</time>
      </trkpt>
      <trkpt lat="48.62216" lon="1.99422">
        <ele>98.2</ele>
        <time>2023-12-10T09:04:03Z</time>
      </trkpt>
      <trkpt lat="48.62213" lon="1.99409">
        <ele>98.2</ele>
        <time>2023-12-10T09:04:04Z</time>
      </trkpt>
      <trkpt lat="48.62213" lon="1.99397">
        <ele>99.2</ele>
        <time>2023-12-10T09:04:05Z</time>
      </trkpt>
      <trkpt lat="48.62212" lon="1.99385">
        <ele>99.2</ele>
        <time>2023-12-10T09:04:06Z</time>
      </trkpt>
      <trkpt lat="48.62211" lon="1.99372">
        <ele>99.2</ele>
        <time>2023-12-10T09:04:07Z</time>
      </trkpt>
      <trkpt lat="48.62211" lon="1.9936">
        <ele>99.2</ele>
        <time>2023-12-10T09:04:08Z</time>
      </trkpt>
      <trkpt lat="48.6221" lon="1.99349">
        <ele>99.2</ele>
        <time>2023-12-10T09:04:09Z</time>
      </trkpt>
      <trkpt lat="48.62208" lon="1.99337">
        <ele>99</ele>
        <time>2023-12-10T09:04:10Z</time>
      </trkpt>
      <trkpt lat="48.62206" lon="1.99325">
        <ele>99</ele>
        <time>2023-12-10T09:04:11Z</time>
      </trkpt>
      <trkpt lat="48.62204" lon="1.99314">
        <ele>99</ele>
        <time>2023-12-10T09:04:12Z</time>
      </trkpt>
      <trkpt lat="48.62202" lon="1.99302">
        <ele>99</ele>
        <time>2023-12-10T09:04:13Z</time>
      </trkpt>
      <trkpt lat="48.62199" lon="1.99291">
        <ele>98.4</ele>
        <time>2023-12-10T09:04:14Z</time>
      </trkpt>
      <trkpt lat="48.62197" lon="1.9928">
        <ele>98.4</ele>
        <time>2023-12-10T09:04:15Z</time>
      </trkpt>
      <trkpt lat="48.62194" lon="1.9927">
        <ele>98.4</ele>
        <time>2023-12-10T09:04:16Z</time>
      </trkpt>
      <trkpt lat="48.62191" lon="1.9926">
        <ele>98</ele>
        <time>2023-12-10T09:04:17Z</time>
      </trkpt>
      <trkpt lat="48.62188" lon="1.9925">
        <ele>98.2</ele>
        <time>2023-12-10T09:04:18Z</time>
      </trkpt>
      <trkpt lat="48.62184" lon="1.99241">
        <ele>98.2</ele>
        <time>2023-12-10T09:04:19Z</time>
      </trkpt>
      <trkpt lat="48.62181" lon="1.99232">
        <ele>98.2</ele>
        <time>2023-12-10T09:04:20Z</time>
      </trkpt>
      <trkpt lat="48.62177" lon="1.99224">
        <ele>98.2</ele>
        <time>2023-12-10T09:04:21Z</time>
      </trkpt>
      <trkpt lat="48.62173" lon="1.99216">
        <ele>98.2</ele>
        <time>2023-12-10T09:04:22Z</time>
      </trkpt>
      <trkpt lat="48.62168" lon="1.99209">
        <ele>98.2</ele>
        <time>2023-12-10T09:04:23Z</time>
      </trkpt>
      <trkpt lat="48.62164" lon="1.99202">
        <ele>98.2</ele>
        <time>2023-12-10T09:04:24Z</time>
      </trkpt>
      <trkpt lat="48.6216" lon="1.99195">
        <ele>98.2</ele>
        <time>2023-12-10T09:04:25Z</time>
      </trkpt>
      <trkpt lat="48.62156" lon="1.99189">
        <ele>98.4</ele>
        <time>2023-12-10T09:04:26Z</time>
      </trkpt>
      <trkpt lat="48.62152" lon="1.99182">
        <ele>98.4</ele>
        <time>2023-12-10T09:04:27Z</time>
      </trkpt>
      <trkpt lat="48.62148" lon="1.99175">
        <ele>98.4</ele>
        <time>2023-12-10T09:04:28Z</time>
      </trkpt>
      <trkpt lat="48.62144" lon="1.99168">
        <ele>98.4</ele>
        <time>2023-12-10T09:04:29Z</time>
      </trkpt>
      <trkpt lat="48.62141" lon="1.9916">
        <ele>98.6</ele>
        <time>2023-12-10T09:04:30Z</time>
      </trkpt>
      <trkpt lat="48.62137" lon="1.99153">
        <ele>98.6</ele>
        <time>2023-12-10T09:04:31Z</time>
      </trkpt>
      <trkpt lat="48.62133" lon="1.99145">
        <ele>98.6</ele>
        <time>2023-12-10T09:04:32Z</time>
      </trkpt>
      <trkpt lat="48.62128" lon="1.99137">
        <ele>98</ele>
        <time>2023-12-10T09:04:33Z</time>
      </trkpt>
      <trkpt lat="48.62124" lon="1.99129">
        <ele>97.8</ele>
        <time>2023-12-10T09:04:34Z</time>
      </trkpt>
      <trkpt lat="48.6212" lon="1.9912">
        <ele>97.8</ele>
        <time>2023-12-10T09:04:35Z</time>
      </trkpt>
      <trkpt lat="48.62115" lon="1.99112">
        <ele>97.8</ele>
        <time>2023-12-10T09:04:36Z</time>
      </trkpt>
      <trkpt lat="48.62111" lon="1.99104">
        <ele>97.8</ele>
        <time>2023-12-10T09:04:37Z</time>
      </trkpt>
      <trkpt lat="48.62107" lon="1.99095">
        <ele>98.4</ele>
        <time>2023-12-10T09:04:38Z</time>
      </trkpt>
      <trkpt lat="48.62103" lon="1.99087">
        <ele>98.4</ele>
        <time>2023-12-10T09:04:39Z</time>
      </trkpt>
      <trkpt lat="48.62099" lon="1.99079">
        <ele>98.4</ele>
        <time>2023-12-10T09:04:40Z</time>
      </trkpt>
      <trkpt lat="48.62095" lon="1.99071">
        <ele>98.2</ele>
        <time>2023-12-10T09:04:41Z</time>
      </trkpt>
      <trkpt lat="48.62091" lon="1.99063">
        <ele>98.2</ele>
        <time>2023-12-10T09:04:42Z</time>
      </trkpt>
      <trkpt lat="48.62087" lon="1.99054">
        <ele>98.2</ele>
        <time>2023-12-10T09:04:43Z</time>
      </trkpt>
      <trkpt lat="48.62083" lon="1.99046">
        <ele>98.2</ele>
        <time>2023-12-10T09:04:44Z</time>
      </trkpt>
      <trkpt lat="48.6208" lon="1.99037">
        <ele>99</ele>
        <time>2023-12-10T09:04:45Z</time>
      </trkpt>
      <trkpt lat="48.62076" lon="1.99028">
        <ele>99.4</ele>
        <time>2023-12-10T09:04:46Z</time>
      </trkpt>
      <trkpt lat="48.62073" lon="1.99019">
        <ele>99.4</ele>
        <time>2023-12-10T09:04:47Z</time>
      </trkpt>
      <trkpt lat="48.6207" lon="1.99011">
        <ele>99.4</ele>
        <time>2023-12-10T09:04:48Z</time>
      </trkpt>
      <trkpt lat="48.62066" lon="1.99002">
        <ele>99</ele>
        <time>2023-12-10T09:04:49Z</time>
      </trkpt>
      <trkpt lat="48.62063" lon="1.98993">
        <ele>99.2</ele>
        <time>2023-12-10T09:04:50Z</time>
      </trkpt>
      <trkpt lat="48.6206" lon="1.98984">
        <ele>99.2</ele>
        <time>2023-12-10T09:04:51Z</time>
      </trkpt>
      <trkpt lat="48.62057" lon="1.98976">
        <ele>99.2</ele>
        <time>2023-12-10T09:04:52Z</time>
      </trkpt>
      <trkpt lat="48.62054" lon="1.98967">
        <ele>99.2</ele>
        <time>2023-12-10T09:04:53Z</time>
      </trkpt>
      <trkpt lat="48.6205" lon="1.98958">
        <ele>99.4</ele>
        <time>2023-12-10T09:04:54Z</time>
      </trkpt>
      <trkpt lat="48.62047" lon="1.98949">
        <ele>99.4</ele>
        <time>2023-12-10T09:04:55Z</time>
      </trkpt>
      <trkpt lat="48.62044" lon="1.98941">
        <ele>99.4</ele>
        <time>2023-12-10T09:04:56Z</time>
      </trkpt>
      <trkpt lat="48.62041" lon="1.98932">
        <ele>99.4</ele>
        <time>2023-12-10T09:04:57Z</time>
      </trkpt>
      <trkpt lat="48.62038" lon="1.98924">
        <ele>99.4</ele>
        <time>2023-12-10T09:04:58Z</time>
      </trkpt>
      <trkpt lat="48.62035" lon="1.98916">
        <ele>99.4</ele>
        <time>2023-12-10T09:04:59Z</time>
      </trkpt>
      <trkpt lat="48.62031" lon="1.98907">
        <ele>99.4</ele>
        <time>2023-12-10T09:05:00Z</time>
      </trkpt>
      <trkpt lat="48.62027" lon="1.98899">
        <ele>99.4</ele>
        <time>2023-12-10T09:05:01Z</time>
      </trkpt>
      <trkpt lat="48.62023" lon="1.98892">
        <ele>99.4</ele>
        <time>2023-12-10T09:05:02Z</time>
      </trkpt>
      <trkpt lat="48.62019" lon="1.98885">
        <ele>99.4</ele>
        <time>2023-12-10T09:05:03Z</time>
      </trkpt>
      <trkpt lat="48.62014" lon="1.98878">
        <ele>99.4</ele>
        <time>2023-12-10T09:05:04Z</time>
      </trkpt>
      <trkpt lat="48.62009" lon="1.98872">
        <ele>99.4</ele>
        <time>2023-12-10T09:05:05Z</time>
      </trkpt>
      <trkpt lat="48.62004" lon="1.98865">
        <ele>99.8</ele>
        <time>2023-12-10T09:05:06Z</time>
      </trkpt>
      <trkpt lat="48.61999" lon="1.9886">
        <ele>99.8</ele>
        <time>2023-12-10T09:05:07Z</time>
      </trkpt>
      <trkpt lat="48.61994" lon="1.98854">
        <ele>99.8</ele>
        <time>2023-12-10T09:05:08Z</time>
      </trkpt>
      <trkpt lat="48.61989" lon="1.98848">
        <ele>99.8</ele>
        <time>2023-12-10T09:05:09Z</time>
      </trkpt>
      <trkpt lat="48.61983" lon="1.98843">
        <ele>99.8</ele>
        <time>2023-12-10T09:05:10Z</time>
      </trkpt>
      <trkpt lat="48.61978" lon="1.98838">
        <ele>99.8</ele>
        <time>2023-12-10T09:05:11Z</time>
      </trkpt>
      <trkpt lat="48.61972" lon="1.98833">
        <ele>99.8</ele>
        <time>2023-12-10T09:05:12Z</time>
      </trkpt>
      <trkpt lat="48.61966" lon="1.98829">
        <ele>99.8</ele>
        <time>2023-12-10T09:05:13Z</time>
      </trkpt>
      <trkpt lat="48.6196" lon="1.98824">
        <ele>99.8</ele>
        <time>2023-12-10T09:05:14Z</time>
      </trkpt>
      <trkpt lat="48.61954" lon="1.98819">
        <ele>99.8</ele>
        <time>2023-12-10T09:05:15Z</time>
      </trkpt>
      <trkpt lat="48.61949" lon="1.98814">
        <ele>99.8</ele>
        <time>2023-12-10T09:05:16Z</time>
      </trkpt>
      <trkpt lat="48.61943" lon="1.98809">
        <ele>99.8</ele>
        <time>2023-12-10T09:05:17Z</time>
      </trkpt>
      <trkpt lat="48.61937" lon="1.98804">
        <ele>99.8</ele>
        <time>2023-12-10T09:05:18Z</time>
      </trkpt>
      <trkpt lat="48.61931" lon="1.98799">
        <ele>99.8</ele>
        <time>2023-12-10T09:05:19Z</time>
      </trkpt>
      <trkpt lat="48.61925" lon="1.98794">
        <ele>99.8</ele>
        <time>2023-12-10T09:05:20Z</time>
      </trkpt>
      <trkpt lat="48.61919" lon="1.9879">
        <ele>99.8</ele>
        <time>2023-12-10T09:05:21Z</time>
      </trkpt>
      <trkpt lat="48.61913" lon="1.98785">
        <ele>100.2</ele>
        <time>2023-12-10T09:05:22Z</time>
      </trkpt>
      <trkpt lat="48.61907" lon="1.98781">
        <ele>100.2</ele>
        <time>2023-12-10T09:05:23Z</time>
      </trkpt>
      <trkpt lat="48.61902" lon="1.98776">
        <ele>100.2</ele>
        <time>2023-12-10T09:05:24Z</time>
      </trkpt>
      <trkpt lat="48.61896" lon="1.98771">
        <ele>100.2</ele>
        <time>2023-12-10T09:05:25Z</time>
      </trkpt>
      <trkpt lat="48.6189" lon="1.98766">
        <ele>100</ele>
        <time>2023-12-10T09:05:26Z</time>
      </trkpt>
      <trkpt lat="48.61884" lon="1.98761">
        <ele>100</ele>
        <time>2023-12-10T09:05:27Z</time>
      </trkpt>
      <trkpt lat="48.61879" lon="1.98756">
        <ele>100</ele>
        <time>2023-12-10T09:05:28Z</time>
      </trkpt>
      <trkpt lat="48.61873" lon="1.98751">
        <ele>99.4</ele>
        <time>2023-12-10T09:05:29Z</time>
      </trkpt>
      <trkpt lat="48.61867" lon="1.98746">
        <ele>98.6</ele>
        <time>2023-12-10T09:05:30Z</time>
      </trkpt>
      <trkpt lat="48.61862" lon="1.98741">
        <ele>98.6</ele>
        <time>2023-12-10T09:05:31Z</time>
      </trkpt>
      <trkpt lat="48.61856" lon="1.98735">
        <ele>98.6</ele>
        <time>2023-12-10T09:05:32Z</time>
      </trkpt>
      <trkpt lat="48.61851" lon="1.9873">
        <ele>99.6</ele>
        <time>2023-12-10T09:05:33Z</time>
      </trkpt>
      <trkpt lat="48.61845" lon="1.98724">
        <ele>100.4</ele>
        <time>2023-12-10T09:05:34Z</time>
      </trkpt>
      <trkpt lat="48.6184" lon="1.98718">
        <ele>100.4</ele>
        <time>2023-12-10T09:05:35Z</time>
      </trkpt>
      <trkpt lat="48.61835" lon="1.98712">
        <ele>100.4</ele>
        <time>2023-12-10T09:05:36Z</time>
      </trkpt>
      <trkpt lat="48.6183" lon="1.98706">
        <ele>99.4</ele>
        <time>2023-12-10T09:05:37Z</time>
      </trkpt>
      <trkpt lat="48.61825" lon="1.987">
        <ele>99.4</ele>
        <time>2023-12-10T09:05:38Z</time>
      </trkpt>
      <trkpt lat="48.6182" lon="1.98693">
        <ele>99.4</ele>
        <time>2023-12-10T09:05:39Z</time>
      </trkpt>
      <trkpt lat="48.61815" lon="1.98686">
        <ele>99.4</ele>
        <time>2023-12-10T09:05:40Z</time>
      </trkpt>
      <trkpt lat="48.61811" lon="1.98678">
        <ele>99.4</ele>
        <time>2023-12-10T09:05:41Z</time>
      </trkpt>
      <trkpt lat="48.61806" lon="1.98671">
        <ele>99.8</ele>
        <time>2023-12-10T09:05:42Z</time>
      </trkpt>
      <trkpt lat="48.61802" lon="1.98663">
        <ele>99.8</ele>
        <time>2023-12-10T09:05:43Z</time>
      </trkpt>
      <trkpt lat="48.61799" lon="1.98656">
        <ele>99.8</ele>
        <time>2023-12-10T09:05:44Z</time>
      </trkpt>
      <trkpt lat="48.61796" lon="1.98648">
        <ele>99.8</ele>
        <time>2023-12-10T09:05:45Z</time>
      </trkpt>
      <trkpt lat="48.61792" lon="1.9864">
        <ele>99.8</ele>
        <time>2023-12-10T09:05:46Z</time>
      </trkpt>
      <trkpt lat="48.61789" lon="1.98632">
        <ele>99.8</ele>
        <time>2023-12-10T09:05:47Z</time>
      </trkpt>
      <trkpt lat="48.61787" lon="1.98624">
        <ele>99.8</ele>
        <time>2023-12-10T09:05:48Z</time>
      </trkpt>
      <trkpt lat="48.61784" lon="1.98616">
        <ele>99.4</ele>
        <time>2023-12-10T09:05:49Z</time>
      </trkpt>
      <trkpt lat="48.61781" lon="1.98608">
        <ele>99.6</ele>
        <time>2023-12-10T09:05:50Z</time>
      </trkpt>
      <trkpt lat="48.61778" lon="1.986">
        <ele>99.6</ele>
        <time>2023-12-10T09:05:51Z</time>
      </trkpt>
      <trkpt lat="48.61775" lon="1.98592">
        <ele>99.6</ele>
        <time>2023-12-10T09:05:52Z</time>
      </trkpt>
      <trkpt lat="48.61772" lon="1.98584">
        <ele>99</ele>
        <time>2023-12-10T09:05:53Z</time>
      </trkpt>
      <trkpt lat="48.61768" lon="1.98576">
        <ele>99.2</ele>
        <time>2023-12-10T09:05:54Z</time>
      </trkpt>
      <trkpt lat="48.61765" lon="1.98569">
        <ele>99.2</ele>
        <time>2023-12-10T09:05:55Z</time>
      </trkpt>
      <trkpt lat="48.61761" lon="1.98561">
        <ele>99.2</ele>
        <time>2023-12-10T09:05:56Z</time>
      </trkpt>
      <trkpt lat="48.61757" lon="1.98554">
        <ele>99.2</ele>
        <time>2023-12-10T09:05:57Z</time>
      </trkpt>
      <trkpt lat="48.61754" lon="1.98547">
        <ele>98.6</ele>
        <time>2023-12-10T09:05:58Z</time>
      </trkpt>
      <trkpt lat="48.61749" lon="1.98541">
        <ele>98.6</ele>
        <time>2023-12-10T09:05:59Z</time>
      </trkpt>
      <trkpt lat="48.61745" lon="1.98535">
        <ele>98.6</ele>
        <time>2023-12-10T09:06:00Z</time>
      </trkpt>
      <trkpt lat="48.61741" lon="1.98529">
        <ele>98.6</ele>
        <time>2023-12-10T09:06:01Z</time>
      </trkpt>
      <trkpt lat="48.61736" lon="1.98523">
        <ele>99.2</ele>
        <time>2023-12-10T09:06:02Z</time>
      </trkpt>
      <trkpt lat="48.61732" lon="1.98517">
        <ele>99.2</ele>
        <time>2023-12-10T09:06:03Z</time>
      </trkpt>
      <trkpt lat="48.61728" lon="1.98512">
        <ele>99.2</ele>
        <time>2023-12-10T09:06:04Z</time>
      </trkpt>
      <trkpt lat="48.61723" lon="1.98506">
        <ele>99.2</ele>
        <time>2023-12-10T09:06:05Z</time>
      </trkpt>
      <trkpt lat="48.61719" lon="1.98501">
        <ele>99.4</ele>
        <time>2023-12-10T09:06:06Z</time>
      </trkpt>
      <trkpt lat="48.61714" lon="1.98496">
        <ele>99.4</ele>
        <time>2023-12-10T09:06:07Z</time>
      </trkpt>
      <trkpt lat="48.6171" lon="1.98491">
        <ele>99.4</ele>
        <time>2023-12-10T09:06:08Z</time>
      </trkpt>
      <trkpt lat="48.61705" lon="1.98486">
        <ele>99.8</ele>
        <time>2023-12-10T09:06:09Z</time>
      </trkpt>
      <trkpt lat="48.61701" lon="1.98481">
        <ele>99.6</ele>
        <time>2023-12-10T09:06:10Z</time>
      </trkpt>
      <trkpt lat="48.61696" lon="1.98476">
        <ele>99.6</ele>
        <time>2023-12-10T09:06:11Z</time>
      </trkpt>
      <trkpt lat="48.61692" lon="1.98471">
        <ele>99.6</ele>
        <time>2023-12-10T09:06:12Z</time>
      </trkpt>
      <trkpt lat="48.61687" lon="1.98467">
        <ele>99.6</ele>
        <time>2023-12-10T09:06:13Z</time>
      </trkpt>
      <trkpt lat="48.61683" lon="1.98462">
        <ele>100.2</ele>
        <time>2023-12-10T09:06:14Z</time>
      </trkpt>
      <trkpt lat="48.61678" lon="1.98457">
        <ele>100.2</ele>
        <time>2023-12-10T09:06:15Z</time>
      </trkpt>
      <trkpt lat="48.61674" lon="1.98452">
        <ele>100.2</ele>
        <time>2023-12-10T09:06:16Z</time>
      </trkpt>
      <trkpt lat="48.61669" lon="1.98447">
        <ele>99.8</ele>
        <time>2023-12-10T09:06:17Z</time>
      </trkpt>
      <trkpt lat="48.61665" lon="1.98442">
        <ele>99.6</ele>
        <time>2023-12-10T09:06:18Z</time>
      </trkpt>
      <trkpt lat="48.6166" lon="1.98437">
        <ele>99.6</ele>
        <time>2023-12-10T09:06:19Z</time>
      </trkpt>
      <trkpt lat="48.61656" lon="1.98432">
        <ele>99.6</ele>
        <time>2023-12-10T09:06:20Z</time>
      </trkpt>
      <trkpt lat="48.61652" lon="1.98427">
        <ele>99.6</ele>
        <time>2023-12-10T09:06:21Z</time>
      </trkpt>
      <trkpt lat="48.61647" lon="1.98422">
        <ele>99.4</ele>
        <time>2023-12-10T09:06:22Z</time>
      </trkpt>
      <trkpt lat="48.61642" lon="1.98417">
        <ele>99.4</ele>
        <time>2023-12-10T09:06:23Z</time>
      </trkpt>
      <trkpt lat="48.61638" lon="1.98412">
        <ele>99.4</ele>
        <time>2023-12-10T09:06:24Z</time>
      </trkpt>
      <trkpt lat="48.61633" lon="1.98408">
        <ele>99.4</ele>
        <time>2023-12-10T09:06:25Z</time>
      </trkpt>
      <trkpt lat="48.61629" lon="1.98402">
        <ele>99.4</ele>
        <time>2023-12-10T09:06:26Z</time>
      </trkpt>
      <trkpt lat="48.61625" lon="1.98397">
        <ele>99.4</ele>
        <time>2023-12-10T09:06:27Z</time>
      </trkpt>
      <trkpt lat="48.6162" lon="1.98391">
        <ele>99.4</ele>
        <time>2023-12-10T09:06:28Z</time>
      </trkpt>
      <trkpt lat="48.61616" lon="1.98386">
        <ele>99</ele>
        <time>2023-12-10T09:06:29Z</time>
      </trkpt>
      <trkpt lat="48.61611" lon="1.9838">
        <ele>100</ele>
        <time>2023-12-10T09:06:30Z</time>
      </trkpt>
      <trkpt lat="48.61607" lon="1.98375">
        <ele>100</ele>
        <time>2023-12-10T09:06:31Z</time>
      </trkpt>
      <trkpt lat="48.61603" lon="1.98369">
        <ele>100</ele>
        <time>2023-12-10T09:06:32Z</time>
      </trkpt>
      <trkpt lat="48.61599" lon="1.98363">
        <ele>99.6</ele>
        <time>2023-12-10T09:06:33Z</time>
      </trkpt>
      <trkpt lat="48.61595" lon="1.98357">
        <ele>99.2</ele>
        <time>2023-12-10T09:06:34Z</time>
      </trkpt>
      <trkpt lat="48.61591" lon="1.98351">
        <ele>99.2</ele>
        <time>2023-12-10T09:06:35Z</time>
      </trkpt>
      <trkpt lat="48.61587" lon="1.98345">
        <ele>99.2</ele>
        <time>2023-12-10T09:06:36Z</time>
      </trkpt>
      <trkpt lat="48.61583" lon="1.98339">
        <ele>98.8</ele>
        <time>2023-12-10T09:06:37Z</time>
      </trkpt>
      <trkpt lat="48.61578" lon="1.98333">
        <ele>99</ele>
        <time>2023-12-10T09:06:38Z</time>
      </trkpt>
      <trkpt lat="48.61574" lon="1.98327">
        <ele>99</ele>
        <time>2023-12-10T09:06:39Z</time>
      </trkpt>
      <trkpt lat="48.6157" lon="1.98321">
        <ele>99</ele>
        <time>2023-12-10T09:06:40Z</time>
      </trkpt>
      <trkpt lat="48.61567" lon="1.98315">
        <ele>99.2</ele>
        <time>2023-12-10T09:06:41Z</time>
      </trkpt>
      <trkpt lat="48.61563" lon="1.98309">
        <ele>99.4</ele>
        <time>2023-12-10T09:06:42Z</time>
      </trkpt>
      <trkpt lat="48.61559" lon="1.98303">
        <ele>99.4</ele>
        <time>2023-12-10T09:06:43Z</time>
      </trkpt>
      <trkpt lat="48.61555" lon="1.98297">
        <ele>99.4</ele>
        <time>2023-12-10T09:06:44Z</time>
      </trkpt>
      <trkpt lat="48.61551" lon="1.98291">
        <ele>99.4</ele>
        <time>2023-12-10T09:06:45Z</time>
      </trkpt>
      <trkpt lat="48.61548" lon="1.98285">
        <ele>100.2</ele>
        <time>2023-12-10T09:06:46Z</time>
      </trkpt>
      <trkpt lat="48.61543" lon="1.98279">
        <ele>100.2</ele>
        <time>2023-12-10T09:06:47Z</time>
      </trkpt>
      <trkpt lat="48.61539" lon="1.98273">
        <ele>100.2</ele>
        <time>2023-12-10T09:06:48Z</time>
      </trkpt>
      <trkpt lat="48.61535" lon="1.98267">
        <ele>100.2</ele>
        <time>2023-12-10T09:06:49Z</time>
      </trkpt>
      <trkpt lat="48.61531" lon="1.98262">
        <ele>99.8</ele>
        <time>2023-12-10T09:06:50Z</time>
      </trkpt>
      <trkpt lat="48.61527" lon="1.98256">
        <ele>99.8</ele>
        <time>2023-12-10T09:06:51Z</time>
      </trkpt>
      <trkpt lat="48.61522" lon="1.9825">
        <ele>99.8</ele>
        <time>2023-12-10T09:06:52Z</time>
      </trkpt>
      <trkpt lat="48.61519" lon="1.98243">
        <ele>99.8</ele>
        <time>2023-12-10T09:06:53Z</time>
      </trkpt>
      <trkpt lat="48.61515" lon="1.98237">
        <ele>100</ele>
        <time>2023-12-10T09:06:54Z</time>
      </trkpt>
      <trkpt lat="48.6151" lon="1.98232">
        <ele>100</ele>
        <time>2023-12-10T09:06:55Z</time>
      </trkpt>
      <trkpt lat="48.61507" lon="1.98226">
        <ele>100</ele>
        <time>2023-12-10T09:06:56Z</time>
      </trkpt>
      <trkpt lat="48.61503" lon="1.98219">
        <ele>100</ele>
        <time>2023-12-10T09:06:57Z</time>
      </trkpt>
      <trkpt lat="48.61499" lon="1.98213">
        <ele>100.2</ele>
        <time>2023-12-10T09:06:58Z</time>
      </trkpt>
      <trkpt lat="48.61496" lon="1.98207">
        <ele>100.2</ele>
        <time>2023-12-10T09:06:59Z</time>
      </trkpt>
      <trkpt lat="48.61492" lon="1.982">
        <ele>100.2</ele>
        <time>2023-12-10T09:07:00Z</time>
      </trkpt>
      <trkpt lat="48.61489" lon="1.98194">
        <ele>100.8</ele>
        <time>2023-12-10T09:07:01Z</time>
      </trkpt>
      <trkpt lat="48.61485" lon="1.98188">
        <ele>100.6</ele>
        <time>2023-12-10T09:07:02Z</time>
      </trkpt>
      <trkpt lat="48.61482" lon="1.98181">
        <ele>100.6</ele>
        <time>2023-12-10T09:07:03Z</time>
      </trkpt>
      <trkpt lat="48.61478" lon="1.98174">
        <ele>100.6</ele>
        <time>2023-12-10T09:07:04Z</time>
      </trkpt>
      <trkpt lat="48.61474" lon="1.98168">
        <ele>100.6</ele>
        <time>2023-12-10T09:07:05Z</time>
      </trkpt>
      <trkpt lat="48.61471" lon="1.98162">
        <ele>101.2</ele>
        <time>2023-12-10T09:07:06Z</time>
      </trkpt>
      <trkpt lat="48.61467" lon="1.98155">
        <ele>101.2</ele>
        <time>2023-12-10T09:07:07Z</time>
      </trkpt>
      <trkpt lat="48.61464" lon="1.98149">
        <ele>101.2</ele>
        <time>2023-12-10T09:07:08Z</time>
      </trkpt>
      <trkpt lat="48.6146" lon="1.98143">
        <ele>100.2</ele>
        <time>2023-12-10T09:07:09Z</time>
      </trkpt>
      <trkpt lat="48.61455" lon="1.98136">
        <ele>99.2</ele>
        <time>2023-12-10T09:07:10Z</time>
      </trkpt>
      <trkpt lat="48.61451" lon="1.9813">
        <ele>99.2</ele>
        <time>2023-12-10T09:07:11Z</time>
      </trkpt>
      <trkpt lat="48.61447" lon="1.98123">
        <ele>99.2</ele>
        <time>2023-12-10T09:07:12Z</time>
      </trkpt>
      <trkpt lat="48.61443" lon="1.98116">
        <ele>99.2</ele>
        <time>2023-12-10T09:07:13Z</time>
      </trkpt>
      <trkpt lat="48.61438" lon="1.98109">
        <ele>97.4</ele>
        <time>2023-12-10T09:07:14Z</time>
      </trkpt>
      <trkpt lat="48.61432" lon="1.98101">
        <ele>97.4</ele>
        <time>2023-12-10T09:07:15Z</time>
      </trkpt>
      <trkpt lat="48.61427" lon="1.98094">
        <ele>97.4</ele>
        <time>2023-12-10T09:07:16Z</time>
      </trkpt>
      <trkpt lat="48.61421" lon="1.98087">
        <ele>97</ele>
        <time>2023-12-10T09:07:17Z</time>
      </trkpt>
      <trkpt lat="48.61415" lon="1.98081">
        <ele>96.2</ele>
        <time>2023-12-10T09:07:18Z</time>
      </trkpt>
      <trkpt lat="48.61409" lon="1.98074">
        <ele>96.2</ele>
        <time>2023-12-10T09:07:19Z</time>
      </trkpt>
      <trkpt lat="48.61403" lon="1.98067">
        <ele>96.2</ele>
        <time>2023-12-10T09:07:20Z</time>
      </trkpt>
      <trkpt lat="48.61397" lon="1.98061">
        <ele>95.4</ele>
        <time>2023-12-10T09:07:21Z</time>
      </trkpt>
      <trkpt lat="48.61391" lon="1.98054">
        <ele>95.4</ele>
        <time>2023-12-10T09:07:22Z</time>
      </trkpt>
      <trkpt lat="48.61385" lon="1.98047">
        <ele>95.4</ele>
        <time>2023-12-10T09:07:23Z</time>
      </trkpt>
      <trkpt lat="48.61378" lon="1.98041">
        <ele>95.4</ele>
        <time>2023-12-10T09:07:24Z</time>
      </trkpt>
      <trkpt lat="48.61372" lon="1.98036">
        <ele>94.6</ele>
        <time>2023-12-10T09:07:25Z</time>
      </trkpt>
      <trkpt lat="48.61365" lon="1.98031">
        <ele>94.8</ele>
        <time>2023-12-10T09:07:26Z</time>
      </trkpt>
      <trkpt lat="48.61358" lon="1.98026">
        <ele>94.8</ele>
        <time>2023-12-10T09:07:27Z</time>
      </trkpt>
      <trkpt lat="48.61351" lon="1.98022">
        <ele>94.8</ele>
        <time>2023-12-10T09:07:28Z</time>
      </trkpt>
      <trkpt lat="48.61344" lon="1.98018">
        <ele>94.6</ele>
        <time>2023-12-10T09:07:29Z</time>
      </trkpt>
      <trkpt lat="48.61337" lon="1.98015">
        <ele>95</ele>
        <time>2023-12-10T09:07:30Z</time>
      </trkpt>
      <trkpt lat="48.6133" lon="1.98013">
        <ele>95</ele>
        <time>2023-12-10T09:07:31Z</time>
      </trkpt>
      <trkpt lat="48.61324" lon="1.98009">
        <ele>95</ele>
        <time>2023-12-10T09:07:32Z</time>
      </trkpt>
      <trkpt lat="48.61317" lon="1.98007">
        <ele>95</ele>
        <time>2023-12-10T09:07:33Z</time>
      </trkpt>
      <trkpt lat="48.6131" lon="1.98004">
        <ele>95</ele>
        <time>2023-12-10T09:07:34Z</time>
      </trkpt>
      <trkpt lat="48.61304" lon="1.98001">
        <ele>95</ele>
        <time>2023-12-10T09:07:35Z</time>
      </trkpt>
      <trkpt lat="48.61297" lon="1.97997">
        <ele>95</ele>
        <time>2023-12-10T09:07:36Z</time>
      </trkpt>
      <trkpt lat="48.61291" lon="1.97993">
        <ele>94.4</ele>
        <time>2023-12-10T09:07:37Z</time>
      </trkpt>
      <trkpt lat="48.61285" lon="1.97987">
        <ele>93.6</ele>
        <time>2023-12-10T09:07:38Z</time>
      </trkpt>
      <trkpt lat="48.61279" lon="1.97981">
        <ele>93.6</ele>
        <time>2023-12-10T09:07:39Z</time>
      </trkpt>
      <trkpt lat="48.61274" lon="1.97975">
        <ele>93.6</ele>
        <time>2023-12-10T09:07:40Z</time>
      </trkpt>
      <trkpt lat="48.61269" lon="1.97968">
        <ele>94.6</ele>
        <time>2023-12-10T09:07:41Z</time>
      </trkpt>
      <trkpt lat="48.61265" lon="1.9796">
        <ele>94.6</ele>
        <time>2023-12-10T09:07:42Z</time>
      </trkpt>
      <trkpt lat="48.61261" lon="1.97952">
        <ele>94.6</ele>
        <time>2023-12-10T09:07:43Z</time>
      </trkpt>
      <trkpt lat="48.61257" lon="1.97943">
        <ele>94.6</ele>
        <time>2023-12-10T09:07:44Z</time>
      </trkpt>
      <trkpt lat="48.61254" lon="1.97934">
        <ele>94</ele>
        <time>2023-12-10T09:07:45Z</time>
      </trkpt>
      <trkpt lat="48.61251" lon="1.97925">
        <ele>94</ele>
        <time>2023-12-10T09:07:46Z</time>
      </trkpt>
      <trkpt lat="48.61248" lon="1.97916">
        <ele>94</ele>
        <time>2023-12-10T09:07:47Z</time>
      </trkpt>
      <trkpt lat="48.61245" lon="1.97907">
        <ele>94</ele>
        <time>2023-12-10T09:07:48Z</time>
      </trkpt>
      <trkpt lat="48.61242" lon="1.97899">
        <ele>94</ele>
        <time>2023-12-10T09:07:49Z</time>
      </trkpt>
      <trkpt lat="48.61239" lon="1.9789">
        <ele>95.2</ele>
        <time>2023-12-10T09:07:50Z</time>
      </trkpt>
      <trkpt lat="48.61235" lon="1.97882">
        <ele>95.2</ele>
        <time>2023-12-10T09:07:51Z</time>
      </trkpt>
      <trkpt lat="48.61232" lon="1.97873">
        <ele>95.2</ele>
        <time>2023-12-10T09:07:52Z</time>
      </trkpt>
      <trkpt lat="48.61228" lon="1.97865">
        <ele>95.2</ele>
        <time>2023-12-10T09:07:53Z</time>
      </trkpt>
      <trkpt lat="48.61225" lon="1.97856">
        <ele>94.6</ele>
        <time>2023-12-10T09:07:54Z</time>
      </trkpt>
      <trkpt lat="48.61222" lon="1.97848">
        <ele>94.6</ele>
        <time>2023-12-10T09:07:55Z</time>
      </trkpt>
      <trkpt lat="48.61219" lon="1.9784">
        <ele>94.6</ele>
        <time>2023-12-10T09:07:56Z</time>
      </trkpt>
      <trkpt lat="48.61216" lon="1.97832">
        <ele>95.4</ele>
        <time>2023-12-10T09:07:57Z</time>
      </trkpt>
      <trkpt lat="48.61212" lon="1.97824">
        <ele>95.6</ele>
        <time>2023-12-10T09:07:58Z</time>
      </trkpt>
      <trkpt lat="48.61209" lon="1.97816">
        <ele>95.6</ele>
        <time>2023-12-10T09:07:59Z</time>
      </trkpt>
      <trkpt lat="48.61206" lon="1.97809">
        <ele>95.6</ele>
        <time>2023-12-10T09:08:00Z</time>
      </trkpt>
      <trkpt lat="48.61204" lon="1.97801">
        <ele>94.6</ele>
        <time>2023-12-10T09:08:01Z</time>
      </trkpt>
      <trkpt lat="48.61201" lon="1.97793">
        <ele>94.6</ele>
        <time>2023-12-10T09:08:02Z</time>
      </trkpt>
      <trkpt lat="48.61198" lon="1.97786">
        <ele>94.6</ele>
        <time>2023-12-10T09:08:03Z</time>
      </trkpt>
      <trkpt lat="48.61196" lon="1.97779">
        <ele>94.6</ele>
        <time>2023-12-10T09:08:04Z</time>
      </trkpt>
      <trkpt lat="48.61193" lon="1.97771">
        <ele>95.6</ele>
        <time>2023-12-10T09:08:05Z</time>
      </trkpt>
      <trkpt lat="48.6119" lon="1.97764">
        <ele>95.8</ele>
        <time>2023-12-10T09:08:06Z</time>
      </trkpt>
      <trkpt lat="48.61188" lon="1.97757">
        <ele>95.8</ele>
        <time>2023-12-10T09:08:07Z</time>
      </trkpt>
      <trkpt lat="48.61185" lon="1.9775">
        <ele>95.8</ele>
        <time>2023-12-10T09:08:08Z</time>
      </trkpt>
      <trkpt lat="48.61183" lon="1.97743">
        <ele>95.8</ele>
        <time>2023-12-10T09:08:09Z</time>
      </trkpt>
      <trkpt lat="48.6118" lon="1.97736">
        <ele>95.4</ele>
        <time>2023-12-10T09:08:10Z</time>
      </trkpt>
      <trkpt lat="48.61177" lon="1.97729">
        <ele>95.4</ele>
        <time>2023-12-10T09:08:11Z</time>
      </trkpt>
      <trkpt lat="48.61175" lon="1.97722">
        <ele>95.4</ele>
        <time>2023-12-10T09:08:12Z</time>
      </trkpt>
      <trkpt lat="48.61172" lon="1.97715">
        <ele>95.6</ele>
        <time>2023-12-10T09:08:13Z</time>
      </trkpt>
      <trkpt lat="48.6117" lon="1.97708">
        <ele>95.8</ele>
        <time>2023-12-10T09:08:14Z</time>
      </trkpt>
      <trkpt lat="48.61167" lon="1.97701">
        <ele>95.8</ele>
        <time>2023-12-10T09:08:15Z</time>
      </trkpt>
      <trkpt lat="48.61165" lon="1.97694">
        <ele>95.8</ele>
        <time>2023-12-10T09:08:16Z</time>
      </trkpt>
      <trkpt lat="48.61162" lon="1.97686">
        <ele>95.6</ele>
        <time>2023-12-10T09:08:17Z</time>
      </trkpt>
      <trkpt lat="48.6116" lon="1.97679">
        <ele>95.8</ele>
        <time>2023-12-10T09:08:18Z</time>
      </trkpt>
      <trkpt lat="48.61157" lon="1.97672">
        <ele>95.8</ele>
        <time>2023-12-10T09:08:19Z</time>
      </trkpt>
      <trkpt lat="48.61154" lon="1.97665">
        <ele>95.8</ele>
        <time>2023-12-10T09:08:20Z</time>
      </trkpt>
      <trkpt lat="48.61152" lon="1.97657">
        <ele>95.8</ele>
        <time>2023-12-10T09:08:21Z</time>
      </trkpt>
      <trkpt lat="48.61149" lon="1.9765">
        <ele>95.6</ele>
        <time>2023-12-10T09:08:22Z</time>
      </trkpt>
      <trkpt lat="48.61146" lon="1.97642">
        <ele>95.6</ele>
        <time>2023-12-10T09:08:23Z</time>
      </trkpt>
      <trkpt lat="48.61143" lon="1.97635">
        <ele>95.6</ele>
        <time>2023-12-10T09:08:24Z</time>
      </trkpt>
      <trkpt lat="48.61141" lon="1.97628">
        <ele>96.6</ele>
        <time>2023-12-10T09:08:25Z</time>
      </trkpt>
      <trkpt lat="48.61138" lon="1.97621">
        <ele>96.8</ele>
        <time>2023-12-10T09:08:26Z</time>
      </trkpt>
      <trkpt lat="48.61135" lon="1.97615">
        <ele>96.8</ele>
        <time>2023-12-10T09:08:27Z</time>
      </trkpt>
      <trkpt lat="48.61131" lon="1.97608">
        <ele>96.8</ele>
        <time>2023-12-10T09:08:28Z</time>
      </trkpt>
      <trkpt lat="48.61128" lon="1.97601">
        <ele>96.8</ele>
        <time>2023-12-10T09:08:29Z</time>
      </trkpt>
      <trkpt lat="48.61125" lon="1.97595">
        <ele>96.6</ele>
        <time>2023-12-10T09:08:30Z</time>
      </trkpt>
      <trkpt lat="48.61122" lon="1.97588">
        <ele>96.6</ele>
        <time>2023-12-10T09:08:31Z</time>
      </trkpt>
      <trkpt lat="48.61119" lon="1.97581">
        <ele>96.6</ele>
        <time>2023-12-10T09:08:32Z</time>
      </trkpt>
      <trkpt lat="48.61116" lon="1.97574">
        <ele>96.6</ele>
        <time>2023-12-10T09:08:33Z</time>
      </trkpt>
      <trkpt lat="48.61114" lon="1.97566">
        <ele>96.6</ele>
        <time>2023-12-10T09:08:34Z</time>
      </trkpt>
      <trkpt lat="48.61112" lon="1.97559">
        <ele>96.6</ele>
        <time>2023-12-10T09:08:35Z</time>
      </trkpt>
      <trkpt lat="48.6111" lon="1.97552">
        <ele>96.6</ele>
        <time>2023-12-10T09:08:36Z</time>
      </trkpt>
      <trkpt lat="48.61109" lon="1.97545">
        <ele>96.6</ele>
        <time>2023-12-10T09:08:37Z</time>
      </trkpt>
      <trkpt lat="48.61107" lon="1.97538">
        <ele>97.2</ele>
        <time>2023-12-10T09:08:38Z</time>
      </trkpt>
      <trkpt lat="48.61105" lon="1.97531">
        <ele>97.2</ele>
        <time>2023-12-10T09:08:39Z</time>
      </trkpt>
      <trkpt lat="48.61103" lon="1.97524">
        <ele>97.2</ele>
        <time>2023-12-10T09:08:40Z</time>
      </trkpt>
      <trkpt lat="48.61101" lon="1.97517">
        <ele>97.6</ele>
        <time>2023-12-10T09:08:41Z</time>
      </trkpt>
      <trkpt lat="48.61099" lon="1.9751">
        <ele>97.6</ele>
        <time>2023-12-10T09:08:42Z</time>
      </trkpt>
      <trkpt lat="48.61097" lon="1.97502">
        <ele>97.6</ele>
        <time>2023-12-10T09:08:43Z</time>
      </trkpt>
      <trkpt lat="48.61096" lon="1.97495">
        <ele>97.6</ele>
        <time>2023-12-10T09:08:44Z</time>
      </trkpt>
      <trkpt lat="48.61095" lon="1.97488">
        <ele>97.6</ele>
        <time>2023-12-10T09:08:45Z</time>
      </trkpt>
      <trkpt lat="48.61093" lon="1.9748">
        <ele>98</ele>
        <time>2023-12-10T09:08:46Z</time>
      </trkpt>
      <trkpt lat="48.61091" lon="1.97472">
        <ele>98</ele>
        <time>2023-12-10T09:08:47Z</time>
      </trkpt>
      <trkpt lat="48.61089" lon="1.97465">
        <ele>98</ele>
        <time>2023-12-10T09:08:48Z</time>
      </trkpt>
      <trkpt lat="48.61087" lon="1.97457">
        <ele>97</ele>
        <time>2023-12-10T09:08:49Z</time>
      </trkpt>
      <trkpt lat="48.61085" lon="1.97449">
        <ele>97.8</ele>
        <time>2023-12-10T09:08:50Z</time>
      </trkpt>
      <trkpt lat="48.61083" lon="1.97441">
        <ele>97.8</ele>
        <time>2023-12-10T09:08:51Z</time>
      </trkpt>
      <trkpt lat="48.61081" lon="1.97433">
        <ele>97.8</ele>
        <time>2023-12-10T09:08:52Z</time>
      </trkpt>
      <trkpt lat="48.61079" lon="1.97425">
        <ele>98.2</ele>
        <time>2023-12-10T09:08:53Z</time>
      </trkpt>
      <trkpt lat="48.61077" lon="1.97417">
        <ele>98.4</ele>
        <time>2023-12-10T09:08:54Z</time>
      </trkpt>
      <trkpt lat="48.61074" lon="1.97409">
        <ele>98.4</ele>
        <time>2023-12-10T09:08:55Z</time>
      </trkpt>
      <trkpt lat="48.61072" lon="1.97401">
        <ele>98.4</ele>
        <time>2023-12-10T09:08:56Z</time>
      </trkpt>
      <trkpt lat="48.6107" lon="1.97392">
        <ele>97.4</ele>
        <time>2023-12-10T09:08:57Z</time>
      </trkpt>
      <trkpt lat="48.61068" lon="1.97384">
        <ele>97.6</ele>
        <time>2023-12-10T09:08:58Z</time>
      </trkpt>
      <trkpt lat="48.61066" lon="1.97375">
        <ele>97.6</ele>
        <time>2023-12-10T09:08:59Z</time>
      </trkpt>
      <trkpt lat="48.61064" lon="1.97367">
        <ele>97.6</ele>
        <time>2023-12-10T09:09:00Z</time>
      </trkpt>
      <trkpt lat="48.61062" lon="1.97359">
        <ele>97.4</ele>
        <time>2023-12-10T09:09:01Z</time>
      </trkpt>
      <trkpt lat="48.61059" lon="1.9735">
        <ele>97.8</ele>
        <time>2023-12-10T09:09:02Z</time>
      </trkpt>
      <trkpt lat="48.61057" lon="1.97342">
        <ele>97.8</ele>
        <time>2023-12-10T09:09:03Z</time>
      </trkpt>
      <trkpt lat="48.61055" lon="1.97334">
        <ele>97.8</ele>
        <time>2023-12-10T09:09:04Z</time>
      </trkpt>
      <trkpt lat="48.61053" lon="1.97326">
        <ele>97.8</ele>
        <time>2023-12-10T09:09:05Z</time>
      </trkpt>
      <trkpt lat="48.61051" lon="1.97318">
        <ele>98</ele>
        <time>2023-12-10T09:09:06Z</time>
      </trkpt>
      <trkpt lat="48.61049" lon="1.9731">
        <ele>98</ele>
        <time>2023-12-10T09:09:07Z</time>
      </trkpt>
      <trkpt lat="48.61047" lon="1.97302">
        <ele>98</ele>
        <time>2023-12-10T09:09:08Z</time>
      </trkpt>
      <trkpt lat="48.61045" lon="1.97294">
        <ele>98</ele>
        <time>2023-12-10T09:09:09Z</time>
      </trkpt>
      <trkpt lat="48.61043" lon="1.97287">
        <ele>98</ele>
        <time>2023-12-10T09:09:10Z</time>
      </trkpt>
      <trkpt lat="48.61041" lon="1.97279">
        <ele>98</ele>
        <time>2023-12-10T09:09:11Z</time>
      </trkpt>
      <trkpt lat="48.61039" lon="1.97271">
        <ele>98</ele>
        <time>2023-12-10T09:09:12Z</time>
      </trkpt>
      <trkpt lat="48.61037" lon="1.97263">
        <ele>98</ele>
        <time>2023-12-10T09:09:13Z</time>
      </trkpt>
      <trkpt lat="48.61035" lon="1.97256">
        <ele>97.6</ele>
        <time>2023-12-10T09:09:14Z</time>
      </trkpt>
      <trkpt lat="48.61033" lon="1.97247">
        <ele>97.6</ele>
        <time>2023-12-10T09:09:15Z</time>
      </trkpt>
      <trkpt lat="48.61031" lon="1.97239">
        <ele>97.6</ele>
        <time>2023-12-10T09:09:16Z</time>
      </trkpt>
      <trkpt lat="48.61029" lon="1.97231">
        <ele>98</ele>
        <time>2023-12-10T09:09:17Z</time>
      </trkpt>
      <trkpt lat="48.61026" lon="1.97224">
        <ele>98.2</ele>
        <time>2023-12-10T09:09:18Z</time>
      </trkpt>
      <trkpt lat="48.61024" lon="1.97216">
        <ele>98.2</ele>
        <time>2023-12-10T09:09:19Z</time>
      </trkpt>
      <trkpt lat="48.61022" lon="1.9721">
        <ele>98.2</ele>
        <time>2023-12-10T09:09:20Z</time>
      </trkpt>
      <trkpt lat="48.6102" lon="1.97203">
        <ele>99</ele>
        <time>2023-12-10T09:09:21Z</time>
      </trkpt>
      <trkpt lat="48.61018" lon="1.97197">
        <ele>99.4</ele>
        <time>2023-12-10T09:09:22Z</time>
      </trkpt>
      <trkpt lat="48.61019" lon="1.9719">
        <ele>99.4</ele>
        <time>2023-12-10T09:09:23Z</time>
      </trkpt>
      <trkpt lat="48.61022" lon="1.97186">
        <ele>99.4</ele>
        <time>2023-12-10T09:09:24Z</time>
      </trkpt>
      <trkpt lat="48.61027" lon="1.97185">
        <ele>99.4</ele>
        <time>2023-12-10T09:09:25Z</time>
      </trkpt>
      <trkpt lat="48.61031" lon="1.97184">
        <ele>99.6</ele>
        <time>2023-12-10T09:09:26Z</time>
      </trkpt>
      <trkpt lat="48.61036" lon="1.97182">
        <ele>99.6</ele>
        <time>2023-12-10T09:09:27Z</time>
      </trkpt>
      <trkpt lat="48.6104" lon="1.97179">
        <ele>99.6</ele>
        <time>2023-12-10T09:09:28Z</time>
      </trkpt>
      <trkpt lat="48.61045" lon="1.97177">
        <ele>99.2</ele>
        <time>2023-12-10T09:09:29Z</time>
      </trkpt>
      <trkpt lat="48.6105" lon="1.97174">
        <ele>99</ele>
        <time>2023-12-10T09:09:30Z</time>
      </trkpt>
      <trkpt lat="48.61056" lon="1.97172">
        <ele>99</ele>
        <time>2023-12-10T09:09:31Z</time>
      </trkpt>
      <trkpt lat="48.6106" lon="1.97169">
        <ele>99</ele>
        <time>2023-12-10T09:09:32Z</time>
      </trkpt>
      <trkpt lat="48.61065" lon="1.97166">
        <ele>99</ele>
        <time>2023-12-10T09:09:33Z</time>
      </trkpt>
      <trkpt lat="48.61069" lon="1.97163">
        <ele>98.8</ele>
        <time>2023-12-10T09:09:34Z</time>
      </trkpt>
      <trkpt lat="48.61074" lon="1.9716">
        <ele>98.8</ele>
        <time>2023-12-10T09:09:35Z</time>
      </trkpt>
      <trkpt lat="48.61079" lon="1.97158">
        <ele>98.8</ele>
        <time>2023-12-10T09:09:36Z</time>
      </trkpt>
      <trkpt lat="48.61084" lon="1.97155">
        <ele>98.8</ele>
        <time>2023-12-10T09:09:37Z</time>
      </trkpt>
      <trkpt lat="48.61088" lon="1.97153">
        <ele>99.6</ele>
        <time>2023-12-10T09:09:38Z</time>
      </trkpt>
      <trkpt lat="48.61092" lon="1.97151">
        <ele>99.6</ele>
        <time>2023-12-10T09:09:39Z</time>
      </trkpt>
      <trkpt lat="48.61096" lon="1.97151">
        <ele>99.6</ele>
        <time>2023-12-10T09:09:40Z</time>
      </trkpt>
      <trkpt lat="48.61099" lon="1.97153">
        <ele>99.2</ele>
        <time>2023-12-10T09:09:41Z</time>
      </trkpt>
      <trkpt lat="48.61101" lon="1.97152">
        <ele>99.6</ele>
        <time>2023-12-10T09:09:42Z</time>
      </trkpt>
      <trkpt lat="48.61102" lon="1.97148">
        <ele>99.6</ele>
        <time>2023-12-10T09:09:43Z</time>
      </trkpt>
      <trkpt lat="48.61101" lon="1.97145">
        <ele>99.6</ele>
        <time>2023-12-10T09:09:44Z</time>
      </trkpt>
      <trkpt lat="48.61099" lon="1.97144">
        <ele>99.6</ele>
        <time>2023-12-10T09:09:45Z</time>
      </trkpt>
      <trkpt lat="48.61096" lon="1.97144">
        <ele>99.4</ele>
        <time>2023-12-10T09:09:46Z</time>
      </trkpt>
      <trkpt lat="48.61093" lon="1.97147">
        <ele>99.4</ele>
        <time>2023-12-10T09:09:47Z</time>
      </trkpt>
      <trkpt lat="48.61089" lon="1.97149">
        <ele>99.4</ele>
        <time>2023-12-10T09:09:48Z</time>
      </trkpt>
      <trkpt lat="48.61084" lon="1.97151">
        <ele>99</ele>
        <time>2023-12-10T09:09:49Z</time>
      </trkpt>
      <trkpt lat="48.6108" lon="1.97153">
        <ele>98.6</ele>
        <time>2023-12-10T09:09:50Z</time>
      </trkpt>
      <trkpt lat="48.61075" lon="1.97155">
        <ele>98.6</ele>
        <time>2023-12-10T09:09:51Z</time>
      </trkpt>
      <trkpt lat="48.61071" lon="1.97157">
        <ele>98.6</ele>
        <time>2023-12-10T09:09:52Z</time>
      </trkpt>
      <trkpt lat="48.61066" lon="1.97159">
        <ele>98.2</ele>
        <time>2023-12-10T09:09:53Z</time>
      </trkpt>
      <trkpt lat="48.61061" lon="1.97161">
        <ele>98.6</ele>
        <time>2023-12-10T09:09:54Z</time>
      </trkpt>
      <trkpt lat="48.61056" lon="1.97163">
        <ele>98.6</ele>
        <time>2023-12-10T09:09:55Z</time>
      </trkpt>
      <trkpt lat="48.61051" lon="1.97165">
        <ele>98.6</ele>
        <time>2023-12-10T09:09:56Z</time>
      </trkpt>
      <trkpt lat="48.61046" lon="1.97167">
        <ele>98.6</ele>
        <time>2023-12-10T09:09:57Z</time>
      </trkpt>
      <trkpt lat="48.61042" lon="1.97169">
        <ele>99</ele>
        <time>2023-12-10T09:09:58Z</time>
      </trkpt>
      <trkpt lat="48.61037" lon="1.97171">
        <ele>99</ele>
        <time>2023-12-10T09:09:59Z</time>
      </trkpt>
      <trkpt lat="48.61033" lon="1.97173">
        <ele>99</ele>
        <time>2023-12-10T09:10:00Z</time>
      </trkpt>
      <trkpt lat="48.61028" lon="1.97173">
        <ele>99</ele>
        <time>2023-12-10T09:10:01Z</time>
      </trkpt>
      <trkpt lat="48.61024" lon="1.97174">
        <ele>99.8</ele>
        <time>2023-12-10T09:10:02Z</time>
      </trkpt>
      <trkpt lat="48.6102" lon="1.97174">
        <ele>99.8</ele>
        <time>2023-12-10T09:10:03Z</time>
      </trkpt>
      <trkpt lat="48.61016" lon="1.97173">
        <ele>99.8</ele>
        <time>2023-12-10T09:10:04Z</time>
      </trkpt>
      <trkpt lat="48.61013" lon="1.9717">
        <ele>99.8</ele>
        <time>2023-12-10T09:10:05Z</time>
      </trkpt>
      <trkpt lat="48.6101" lon="1.97166">
        <ele>99.4</ele>
        <time>2023-12-10T09:10:06Z</time>
      </trkpt>
      <trkpt lat="48.61007" lon="1.97161">
        <ele>99.4</ele>
        <time>2023-12-10T09:10:07Z</time>
      </trkpt>
      <trkpt lat="48.61005" lon="1.97156">
        <ele>99.4</ele>
        <time>2023-12-10T09:10:08Z</time>
      </trkpt>
      <trkpt lat="48.61003" lon="1.97151">
        <ele>99.4</ele>
        <time>2023-12-10T09:10:09Z</time>
      </trkpt>
      <trkpt lat="48.61001" lon="1.97145">
        <ele>100.2</ele>
        <time>2023-12-10T09:10:10Z</time>
      </trkpt>
      <trkpt lat="48.60999" lon="1.97139">
        <ele>100.2</ele>
        <time>2023-12-10T09:10:11Z</time>
      </trkpt>
      <trkpt lat="48.60998" lon="1.97132">
        <ele>100.2</ele>
        <time>2023-12-10T09:10:12Z</time>
      </trkpt>
      <trkpt lat="48.60996" lon="1.97126">
        <ele>99.6</ele>
        <time>2023-12-10T09:10:13Z</time>
      </trkpt>
      <trkpt lat="48.60994" lon="1.97119">
        <ele>99.6</ele>
        <time>2023-12-10T09:10:14Z</time>
      </trkpt>
      <trkpt lat="48.60993" lon="1.97112">
        <ele>99.6</ele>
        <time>2023-12-10T09:10:15Z</time>
      </trkpt>
      <trkpt lat="48.60991" lon="1.97104">
        <ele>99.6</ele>
        <time>2023-12-10T09:10:16Z</time>
      </trkpt>
      <trkpt lat="48.6099" lon="1.97097">
        <ele>99.6</ele>
        <time>2023-12-10T09:10:17Z</time>
      </trkpt>
      <trkpt lat="48.60989" lon="1.97089">
        <ele>99.4</ele>
        <time>2023-12-10T09:10:18Z</time>
      </trkpt>
      <trkpt lat="48.60988" lon="1.97081">
        <ele>99.4</ele>
        <time>2023-12-10T09:10:19Z</time>
      </trkpt>
      <trkpt lat="48.60987" lon="1.97074">
        <ele>99.4</ele>
        <time>2023-12-10T09:10:20Z</time>
      </trkpt>
      <trkpt lat="48.60987" lon="1.97066">
        <ele>99.6</ele>
        <time>2023-12-10T09:10:21Z</time>
      </trkpt>
      <trkpt lat="48.60987" lon="1.97058">
        <ele>100.6</ele>
        <time>2023-12-10T09:10:22Z</time>
      </trkpt>
      <trkpt lat="48.60987" lon="1.97051">
        <ele>100.6</ele>
        <time>2023-12-10T09:10:23Z</time>
      </trkpt>
      <trkpt lat="48.60987" lon="1.97043">
        <ele>100.6</ele>
        <time>2023-12-10T09:10:24Z</time>
      </trkpt>
      <trkpt lat="48.60988" lon="1.97036">
        <ele>100</ele>
        <time>2023-12-10T09:10:25Z</time>
      </trkpt>
      <trkpt lat="48.60989" lon="1.97029">
        <ele>99.8</ele>
        <time>2023-12-10T09:10:26Z</time>
      </trkpt>
      <trkpt lat="48.6099" lon="1.97022">
        <ele>99.8</ele>
        <time>2023-12-10T09:10:27Z</time>
      </trkpt>
      <trkpt lat="48.60992" lon="1.97015">
        <ele>99.8</ele>
        <time>2023-12-10T09:10:28Z</time>
      </trkpt>
      <trkpt lat="48.60993" lon="1.97008">
        <ele>99.8</ele>
        <time>2023-12-10T09:10:29Z</time>
      </trkpt>
      <trkpt lat="48.60996" lon="1.97001">
        <ele>99.8</ele>
        <time>2023-12-10T09:10:30Z</time>
      </trkpt>
      <trkpt lat="48.60997" lon="1.96993">
        <ele>99.8</ele>
        <time>2023-12-10T09:10:31Z</time>
      </trkpt>
      <trkpt lat="48.60999" lon="1.96985">
        <ele>99.8</ele>
        <time>2023-12-10T09:10:32Z</time>
      </trkpt>
      <trkpt lat="48.61001" lon="1.96978">
        <ele>99.8</ele>
        <time>2023-12-10T09:10:33Z</time>
      </trkpt>
      <trkpt lat="48.61003" lon="1.9697">
        <ele>100.2</ele>
        <time>2023-12-10T09:10:34Z</time>
      </trkpt>
      <trkpt lat="48.61006" lon="1.96962">
        <ele>100.2</ele>
        <time>2023-12-10T09:10:35Z</time>
      </trkpt>
      <trkpt lat="48.61008" lon="1.96954">
        <ele>100.2</ele>
        <time>2023-12-10T09:10:36Z</time>
      </trkpt>
      <trkpt lat="48.61011" lon="1.96946">
        <ele>100.6</ele>
        <time>2023-12-10T09:10:37Z</time>
      </trkpt>
      <trkpt lat="48.61013" lon="1.96938">
        <ele>101.2</ele>
        <time>2023-12-10T09:10:38Z</time>
      </trkpt>
      <trkpt lat="48.61016" lon="1.96931">
        <ele>101.2</ele>
        <time>2023-12-10T09:10:39Z</time>
      </trkpt>
      <trkpt lat="48.61019" lon="1.96924">
        <ele>101.2</ele>
        <time>2023-12-10T09:10:40Z</time>
      </trkpt>
      <trkpt lat="48.61022" lon="1.96917">
        <ele>100.4</ele>
        <time>2023-12-10T09:10:41Z</time>
      </trkpt>
      <trkpt lat="48.61025" lon="1.96909">
        <ele>100.8</ele>
        <time>2023-12-10T09:10:42Z</time>
      </trkpt>
      <trkpt lat="48.61028" lon="1.96902">
        <ele>100.8</ele>
        <time>2023-12-10T09:10:43Z</time>
      </trkpt>
      <trkpt lat="48.6103" lon="1.96894">
        <ele>100.8</ele>
        <time>2023-12-10T09:10:44Z</time>
      </trkpt>
      <trkpt lat="48.61033" lon="1.96886">
        <ele>100.8</ele>
        <time>2023-12-10T09:10:45Z</time>
      </trkpt>
      <trkpt lat="48.61035" lon="1.96878">
        <ele>100.6</ele>
        <time>2023-12-10T09:10:46Z</time>
      </trkpt>
      <trkpt lat="48.61038" lon="1.96869">
        <ele>100.6</ele>
        <time>2023-12-10T09:10:47Z</time>
      </trkpt>
      <trkpt lat="48.6104" lon="1.96861">
        <ele>100.6</ele>
        <time>2023-12-10T09:10:48Z</time>
      </trkpt>
      <trkpt lat="48.61042" lon="1.96852">
        <ele>100.6</ele>
        <time>2023-12-10T09:10:49Z</time>
      </trkpt>
      <trkpt lat="48.61044" lon="1.96844">
        <ele>100.6</ele>
        <time>2023-12-10T09:10:50Z</time>
      </trkpt>
      <trkpt lat="48.61046" lon="1.96835">
        <ele>100.6</ele>
        <time>2023-12-10T09:10:51Z</time>
      </trkpt>
      <trkpt lat="48.61049" lon="1.96827">
        <ele>100.6</ele>
        <time>2023-12-10T09:10:52Z</time>
      </trkpt>
      <trkpt lat="48.61051" lon="1.96819">
        <ele>100.6</ele>
        <time>2023-12-10T09:10:53Z</time>
      </trkpt>
      <trkpt lat="48.61053" lon="1.9681">
        <ele>100.4</ele>
        <time>2023-12-10T09:10:54Z</time>
      </trkpt>
      <trkpt lat="48.61055" lon="1.96802">
        <ele>100.4</ele>
        <time>2023-12-10T09:10:55Z</time>
      </trkpt>
      <trkpt lat="48.61057" lon="1.96793">
        <ele>100.4</ele>
        <time>2023-12-10T09:10:56Z</time>
      </trkpt>
      <trkpt lat="48.61059" lon="1.96784">
        <ele>100.4</ele>
        <time>2023-12-10T09:10:57Z</time>
      </trkpt>
      <trkpt lat="48.61061" lon="1.96776">
        <ele>100.8</ele>
        <time>2023-12-10T09:10:58Z</time>
      </trkpt>
      <trkpt lat="48.61064" lon="1.96768">
        <ele>100.8</ele>
        <time>2023-12-10T09:10:59Z</time>
      </trkpt>
      <trkpt lat="48.61067" lon="1.96761">
        <ele>100.8</ele>
        <time>2023-12-10T09:11:00Z</time>
      </trkpt>
      <trkpt lat="48.61069" lon="1.96753">
        <ele>101.2</ele>
        <time>2023-12-10T09:11:01Z</time>
      </trkpt>
      <trkpt lat="48.61072" lon="1.96745">
        <ele>101.4</ele>
        <time>2023-12-10T09:11:02Z</time>
      </trkpt>
      <trkpt lat="48.61074" lon="1.96736">
        <ele>101.4</ele>
        <time>2023-12-10T09:11:03Z</time>
      </trkpt>
      <trkpt lat="48.61077" lon="1.96728">
        <ele>101.4</ele>
        <time>2023-12-10T09:11:04Z</time>
      </trkpt>
      <trkpt lat="48.61079" lon="1.96721">
        <ele>101.4</ele>
        <time>2023-12-10T09:11:05Z</time>
      </trkpt>
      <trkpt lat="48.61081" lon="1.96712">
        <ele>101</ele>
        <time>2023-12-10T09:11:06Z</time>
      </trkpt>
      <trkpt lat="48.61084" lon="1.96704">
        <ele>101</ele>
        <time>2023-12-10T09:11:07Z</time>
      </trkpt>
      <trkpt lat="48.61086" lon="1.96696">
        <ele>101</ele>
        <time>2023-12-10T09:11:08Z</time>
      </trkpt>
      <trkpt lat="48.61088" lon="1.96687">
        <ele>101.2</ele>
        <time>2023-12-10T09:11:09Z</time>
      </trkpt>
      <trkpt lat="48.61091" lon="1.96679">
        <ele>101.2</ele>
        <time>2023-12-10T09:11:10Z</time>
      </trkpt>
      <trkpt lat="48.61092" lon="1.96671">
        <ele>101.2</ele>
        <time>2023-12-10T09:11:11Z</time>
      </trkpt>
      <trkpt lat="48.61094" lon="1.96661">
        <ele>101.2</ele>
        <time>2023-12-10T09:11:12Z</time>
      </trkpt>
      <trkpt lat="48.61096" lon="1.96653">
        <ele>101.2</ele>
        <time>2023-12-10T09:11:13Z</time>
      </trkpt>
      <trkpt lat="48.61099" lon="1.96644">
        <ele>101.2</ele>
        <time>2023-12-10T09:11:14Z</time>
      </trkpt>
      <trkpt lat="48.61102" lon="1.96636">
        <ele>101.2</ele>
        <time>2023-12-10T09:11:15Z</time>
      </trkpt>
      <trkpt lat="48.61104" lon="1.96627">
        <ele>101.2</ele>
        <time>2023-12-10T09:11:16Z</time>
      </trkpt>
      <trkpt lat="48.61107" lon="1.96619">
        <ele>101</ele>
        <time>2023-12-10T09:11:17Z</time>
      </trkpt>
      <trkpt lat="48.61109" lon="1.9661">
        <ele>100.8</ele>
        <time>2023-12-10T09:11:18Z</time>
      </trkpt>
      <trkpt lat="48.61112" lon="1.96602">
        <ele>100.8</ele>
        <time>2023-12-10T09:11:19Z</time>
      </trkpt>
      <trkpt lat="48.61116" lon="1.96596">
        <ele>100.8</ele>
        <time>2023-12-10T09:11:20Z</time>
      </trkpt>
      <trkpt lat="48.61119" lon="1.96589">
        <ele>101</ele>
        <time>2023-12-10T09:11:21Z</time>
      </trkpt>
      <trkpt lat="48.61123" lon="1.96581">
        <ele>101</ele>
        <time>2023-12-10T09:11:22Z</time>
      </trkpt>
      <trkpt lat="48.61126" lon="1.96573">
        <ele>101</ele>
        <time>2023-12-10T09:11:23Z</time>
      </trkpt>
      <trkpt lat="48.61128" lon="1.96563">
        <ele>101</ele>
        <time>2023-12-10T09:11:24Z</time>
      </trkpt>
      <trkpt lat="48.61131" lon="1.96555">
        <ele>100.2</ele>
        <time>2023-12-10T09:11:25Z</time>
      </trkpt>
      <trkpt lat="48.61132" lon="1.96545">
        <ele>100.2</ele>
        <time>2023-12-10T09:11:26Z</time>
      </trkpt>
      <trkpt lat="48.61134" lon="1.96535">
        <ele>100.2</ele>
        <time>2023-12-10T09:11:27Z</time>
      </trkpt>
      <trkpt lat="48.61137" lon="1.96526">
        <ele>100.2</ele>
        <time>2023-12-10T09:11:28Z</time>
      </trkpt>
      <trkpt lat="48.6114" lon="1.96517">
        <ele>100.6</ele>
        <time>2023-12-10T09:11:29Z</time>
      </trkpt>
      <trkpt lat="48.61142" lon="1.96508">
        <ele>100.2</ele>
        <time>2023-12-10T09:11:30Z</time>
      </trkpt>
      <trkpt lat="48.61145" lon="1.96499">
        <ele>100.2</ele>
        <time>2023-12-10T09:11:31Z</time>
      </trkpt>
      <trkpt lat="48.61147" lon="1.96489">
        <ele>100.2</ele>
        <time>2023-12-10T09:11:32Z</time>
      </trkpt>
      <trkpt lat="48.61148" lon="1.96479">
        <ele>100.2</ele>
        <time>2023-12-10T09:11:33Z</time>
      </trkpt>
      <trkpt lat="48.6115" lon="1.9647">
        <ele>100.2</ele>
        <time>2023-12-10T09:11:34Z</time>
      </trkpt>
      <trkpt lat="48.61152" lon="1.9646">
        <ele>100.2</ele>
        <time>2023-12-10T09:11:35Z</time>
      </trkpt>
      <trkpt lat="48.61153" lon="1.9645">
        <ele>100.2</ele>
        <time>2023-12-10T09:11:36Z</time>
      </trkpt>
      <trkpt lat="48.61154" lon="1.9644">
        <ele>100.2</ele>
        <time>2023-12-10T09:11:37Z</time>
      </trkpt>
      <trkpt lat="48.61156" lon="1.9643">
        <ele>100</ele>
        <time>2023-12-10T09:11:38Z</time>
      </trkpt>
      <trkpt lat="48.61156" lon="1.96422">
        <ele>100</ele>
        <time>2023-12-10T09:11:39Z</time>
      </trkpt>
      <trkpt lat="48.61158" lon="1.96411">
        <ele>100</ele>
        <time>2023-12-10T09:11:40Z</time>
      </trkpt>
      <trkpt lat="48.61159" lon="1.964">
        <ele>100</ele>
        <time>2023-12-10T09:11:41Z</time>
      </trkpt>
      <trkpt lat="48.61159" lon="1.96389">
        <ele>99.2</ele>
        <time>2023-12-10T09:11:42Z</time>
      </trkpt>
      <trkpt lat="48.6116" lon="1.96377">
        <ele>99.2</ele>
        <time>2023-12-10T09:11:43Z</time>
      </trkpt>
      <trkpt lat="48.61161" lon="1.96367">
        <ele>99.2</ele>
        <time>2023-12-10T09:11:44Z</time>
      </trkpt>
      <trkpt lat="48.61162" lon="1.96356">
        <ele>100.2</ele>
        <time>2023-12-10T09:11:45Z</time>
      </trkpt>
      <trkpt lat="48.61162" lon="1.96346">
        <ele>100</ele>
        <time>2023-12-10T09:11:46Z</time>
      </trkpt>
      <trkpt lat="48.61163" lon="1.96337">
        <ele>100</ele>
        <time>2023-12-10T09:11:47Z</time>
      </trkpt>
      <trkpt lat="48.61165" lon="1.96328">
        <ele>100</ele>
        <time>2023-12-10T09:11:48Z</time>
      </trkpt>
      <trkpt lat="48.61166" lon="1.96318">
        <ele>100.8</ele>
        <time>2023-12-10T09:11:49Z</time>
      </trkpt>
      <trkpt lat="48.61168" lon="1.96309">
        <ele>101</ele>
        <time>2023-12-10T09:11:50Z</time>
      </trkpt>
      <trkpt lat="48.6117" lon="1.963">
        <ele>101</ele>
        <time>2023-12-10T09:11:51Z</time>
      </trkpt>
      <trkpt lat="48.61171" lon="1.96291">
        <ele>101</ele>
        <time>2023-12-10T09:11:52Z</time>
      </trkpt>
      <trkpt lat="48.61172" lon="1.96282">
        <ele>100.8</ele>
        <time>2023-12-10T09:11:53Z</time>
      </trkpt>
      <trkpt lat="48.61174" lon="1.96273">
        <ele>100.4</ele>
        <time>2023-12-10T09:11:54Z</time>
      </trkpt>
      <trkpt lat="48.61176" lon="1.96263">
        <ele>100.4</ele>
        <time>2023-12-10T09:11:55Z</time>
      </trkpt>
      <trkpt lat="48.61178" lon="1.96254">
        <ele>100.4</ele>
        <time>2023-12-10T09:11:56Z</time>
      </trkpt>
      <trkpt lat="48.61178" lon="1.96244">
        <ele>100.2</ele>
        <time>2023-12-10T09:11:57Z</time>
      </trkpt>
      <trkpt lat="48.61179" lon="1.96234">
        <ele>100.4</ele>
        <time>2023-12-10T09:11:58Z</time>
      </trkpt>
      <trkpt lat="48.61179" lon="1.96223">
        <ele>100.4</ele>
        <time>2023-12-10T09:11:59Z</time>
      </trkpt>
      <trkpt lat="48.61179" lon="1.96214">
        <ele>100.4</ele>
        <time>2023-12-10T09:12:00Z</time>
      </trkpt>
      <trkpt lat="48.6118" lon="1.96204">
        <ele>101</ele>
        <time>2023-12-10T09:12:01Z</time>
      </trkpt>
      <trkpt lat="48.6118" lon="1.96195">
        <ele>101.2</ele>
        <time>2023-12-10T09:12:02Z</time>
      </trkpt>
      <trkpt lat="48.6118" lon="1.96186">
        <ele>101.2</ele>
        <time>2023-12-10T09:12:03Z</time>
      </trkpt>
      <trkpt lat="48.61179" lon="1.96177">
        <ele>101.2</ele>
        <time>2023-12-10T09:12:04Z</time>
      </trkpt>
      <trkpt lat="48.61178" lon="1.96168">
        <ele>100.2</ele>
        <time>2023-12-10T09:12:05Z</time>
      </trkpt>
      <trkpt lat="48.61177" lon="1.96158">
        <ele>100.4</ele>
        <time>2023-12-10T09:12:06Z</time>
      </trkpt>
      <trkpt lat="48.61175" lon="1.9615">
        <ele>100.4</ele>
        <time>2023-12-10T09:12:07Z</time>
      </trkpt>
      <trkpt lat="48.61173" lon="1.9614">
        <ele>100.4</ele>
        <time>2023-12-10T09:12:08Z</time>
      </trkpt>
      <trkpt lat="48.61171" lon="1.96131">
        <ele>100.4</ele>
        <time>2023-12-10T09:12:09Z</time>
      </trkpt>
      <trkpt lat="48.61168" lon="1.96121">
        <ele>100.4</ele>
        <time>2023-12-10T09:12:10Z</time>
      </trkpt>
      <trkpt lat="48.61166" lon="1.96113">
        <ele>100.4</ele>
        <time>2023-12-10T09:12:11Z</time>
      </trkpt>
      <trkpt lat="48.61163" lon="1.96104">
        <ele>100.4</ele>
        <time>2023-12-10T09:12:12Z</time>
      </trkpt>
      <trkpt lat="48.61161" lon="1.96095">
        <ele>101.4</ele>
        <time>2023-12-10T09:12:13Z</time>
      </trkpt>
      <trkpt lat="48.61158" lon="1.96086">
        <ele>102</ele>
        <time>2023-12-10T09:12:14Z</time>
      </trkpt>
      <trkpt lat="48.61155" lon="1.96078">
        <ele>102</ele>
        <time>2023-12-10T09:12:15Z</time>
      </trkpt>
      <trkpt lat="48.61153" lon="1.96069">
        <ele>102</ele>
        <time>2023-12-10T09:12:16Z</time>
      </trkpt>
      <trkpt lat="48.61149" lon="1.9606">
        <ele>102</ele>
        <time>2023-12-10T09:12:17Z</time>
      </trkpt>
      <trkpt lat="48.61146" lon="1.96051">
        <ele>102</ele>
        <time>2023-12-10T09:12:18Z</time>
      </trkpt>
      <trkpt lat="48.61145" lon="1.96043">
        <ele>102</ele>
        <time>2023-12-10T09:12:19Z</time>
      </trkpt>
      <trkpt lat="48.61142" lon="1.96035">
        <ele>102</ele>
        <time>2023-12-10T09:12:20Z</time>
      </trkpt>
      <trkpt lat="48.61138" lon="1.96024">
        <ele>101.6</ele>
        <time>2023-12-10T09:12:21Z</time>
      </trkpt>
      <trkpt lat="48.61136" lon="1.96016">
        <ele>101.2</ele>
        <time>2023-12-10T09:12:22Z</time>
      </trkpt>
      <trkpt lat="48.61132" lon="1.96007">
        <ele>101.2</ele>
        <time>2023-12-10T09:12:23Z</time>
      </trkpt>
      <trkpt lat="48.61129" lon="1.95998">
        <ele>101.2</ele>
        <time>2023-12-10T09:12:24Z</time>
      </trkpt>
      <trkpt lat="48.61127" lon="1.9599">
        <ele>101.2</ele>
        <time>2023-12-10T09:12:25Z</time>
      </trkpt>
      <trkpt lat="48.61125" lon="1.95981">
        <ele>101.6</ele>
        <time>2023-12-10T09:12:26Z</time>
      </trkpt>
      <trkpt lat="48.61122" lon="1.95973">
        <ele>101.6</ele>
        <time>2023-12-10T09:12:27Z</time>
      </trkpt>
      <trkpt lat="48.61119" lon="1.95964">
        <ele>101.6</ele>
        <time>2023-12-10T09:12:28Z</time>
      </trkpt>
      <trkpt lat="48.61117" lon="1.95955">
        <ele>102.2</ele>
        <time>2023-12-10T09:12:29Z</time>
      </trkpt>
      <trkpt lat="48.61114" lon="1.95947">
        <ele>102.2</ele>
        <time>2023-12-10T09:12:30Z</time>
      </trkpt>
      <trkpt lat="48.61111" lon="1.95938">
        <ele>102.2</ele>
        <time>2023-12-10T09:12:31Z</time>
      </trkpt>
      <trkpt lat="48.61108" lon="1.95929">
        <ele>102.2</ele>
        <time>2023-12-10T09:12:32Z</time>
      </trkpt>
      <trkpt lat="48.61106" lon="1.95921">
        <ele>102.2</ele>
        <time>2023-12-10T09:12:33Z</time>
      </trkpt>
      <trkpt lat="48.61104" lon="1.95913">
        <ele>102.2</ele>
        <time>2023-12-10T09:12:34Z</time>
      </trkpt>
      <trkpt lat="48.61102" lon="1.95905">
        <ele>102.2</ele>
        <time>2023-12-10T09:12:35Z</time>
      </trkpt>
      <trkpt lat="48.611" lon="1.95896">
        <ele>102.2</ele>
        <time>2023-12-10T09:12:36Z</time>
      </trkpt>
      <trkpt lat="48.61097" lon="1.95888">
        <ele>102.2</ele>
        <time>2023-12-10T09:12:37Z</time>
      </trkpt>
      <trkpt lat="48.61095" lon="1.9588">
        <ele>102.2</ele>
        <time>2023-12-10T09:12:38Z</time>
      </trkpt>
      <trkpt lat="48.61092" lon="1.95871">
        <ele>102.2</ele>
        <time>2023-12-10T09:12:39Z</time>
      </trkpt>
      <trkpt lat="48.6109" lon="1.95863">
        <ele>102.2</ele>
        <time>2023-12-10T09:12:40Z</time>
      </trkpt>
      <trkpt lat="48.61087" lon="1.95855">
        <ele>102.2</ele>
        <time>2023-12-10T09:12:41Z</time>
      </trkpt>
      <trkpt lat="48.61084" lon="1.95847">
        <ele>102.4</ele>
        <time>2023-12-10T09:12:42Z</time>
      </trkpt>
      <trkpt lat="48.61083" lon="1.9584">
        <ele>102.4</ele>
        <time>2023-12-10T09:12:43Z</time>
      </trkpt>
      <trkpt lat="48.6108" lon="1.95831">
        <ele>102.4</ele>
        <time>2023-12-10T09:12:44Z</time>
      </trkpt>
      <trkpt lat="48.61076" lon="1.95823">
        <ele>102.4</ele>
        <time>2023-12-10T09:12:45Z</time>
      </trkpt>
      <trkpt lat="48.61073" lon="1.95814">
        <ele>102.2</ele>
        <time>2023-12-10T09:12:46Z</time>
      </trkpt>
      <trkpt lat="48.6107" lon="1.95806">
        <ele>102.2</ele>
        <time>2023-12-10T09:12:47Z</time>
      </trkpt>
      <trkpt lat="48.61066" lon="1.95798">
        <ele>102.2</ele>
        <time>2023-12-10T09:12:48Z</time>
      </trkpt>
      <trkpt lat="48.61063" lon="1.9579">
        <ele>102.8</ele>
        <time>2023-12-10T09:12:49Z</time>
      </trkpt>
      <trkpt lat="48.6106" lon="1.95782">
        <ele>103</ele>
        <time>2023-12-10T09:12:50Z</time>
      </trkpt>
      <trkpt lat="48.61057" lon="1.95774">
        <ele>103</ele>
        <time>2023-12-10T09:12:51Z</time>
      </trkpt>
      <trkpt lat="48.61054" lon="1.95766">
        <ele>103</ele>
        <time>2023-12-10T09:12:52Z</time>
      </trkpt>
      <trkpt lat="48.61051" lon="1.95758">
        <ele>102.8</ele>
        <time>2023-12-10T09:12:53Z</time>
      </trkpt>
      <trkpt lat="48.61048" lon="1.95751">
        <ele>102.6</ele>
        <time>2023-12-10T09:12:54Z</time>
      </trkpt>
      <trkpt lat="48.61045" lon="1.95743">
        <ele>102.6</ele>
        <time>2023-12-10T09:12:55Z</time>
      </trkpt>
      <trkpt lat="48.61043" lon="1.95736">
        <ele>102.6</ele>
        <time>2023-12-10T09:12:56Z</time>
      </trkpt>
      <trkpt lat="48.6104" lon="1.95728">
        <ele>102.6</ele>
        <time>2023-12-10T09:12:57Z</time>
      </trkpt>
      <trkpt lat="48.61037" lon="1.95719">
        <ele>102.2</ele>
        <time>2023-12-10T09:12:58Z</time>
      </trkpt>
      <trkpt lat="48.61034" lon="1.95711">
        <ele>102.2</ele>
        <time>2023-12-10T09:12:59Z</time>
      </trkpt>
      <trkpt lat="48.61031" lon="1.95702">
        <ele>102.2</ele>
        <time>2023-12-10T09:13:00Z</time>
      </trkpt>
      <trkpt lat="48.61029" lon="1.95693">
        <ele>102.2</ele>
        <time>2023-12-10T09:13:01Z</time>
      </trkpt>
      <trkpt lat="48.61026" lon="1.95684">
        <ele>101.6</ele>
        <time>2023-12-10T09:13:02Z</time>
      </trkpt>
      <trkpt lat="48.61024" lon="1.95675">
        <ele>101.6</ele>
        <time>2023-12-10T09:13:03Z</time>
      </trkpt>
      <trkpt lat="48.61021" lon="1.95666">
        <ele>101.6</ele>
        <time>2023-12-10T09:13:04Z</time>
      </trkpt>
      <trkpt lat="48.61019" lon="1.95657">
        <ele>101.8</ele>
        <time>2023-12-10T09:13:05Z</time>
      </trkpt>
      <trkpt lat="48.61017" lon="1.9565">
        <ele>102.2</ele>
        <time>2023-12-10T09:13:06Z</time>
      </trkpt>
      <trkpt lat="48.61015" lon="1.95642">
        <ele>102.2</ele>
        <time>2023-12-10T09:13:07Z</time>
      </trkpt>
      <trkpt lat="48.61013" lon="1.95633">
        <ele>102.2</ele>
        <time>2023-12-10T09:13:08Z</time>
      </trkpt>
      <trkpt lat="48.61011" lon="1.95625">
        <ele>102.2</ele>
        <time>2023-12-10T09:13:09Z</time>
      </trkpt>
      <trkpt lat="48.61009" lon="1.95616">
        <ele>102.4</ele>
        <time>2023-12-10T09:13:10Z</time>
      </trkpt>
      <trkpt lat="48.61008" lon="1.95608">
        <ele>102.4</ele>
        <time>2023-12-10T09:13:11Z</time>
      </trkpt>
      <trkpt lat="48.61006" lon="1.95599">
        <ele>102.4</ele>
        <time>2023-12-10T09:13:12Z</time>
      </trkpt>
      <trkpt lat="48.61005" lon="1.9559">
        <ele>101.6</ele>
        <time>2023-12-10T09:13:13Z</time>
      </trkpt>
      <trkpt lat="48.61003" lon="1.9558">
        <ele>101.2</ele>
        <time>2023-12-10T09:13:14Z</time>
      </trkpt>
      <trkpt lat="48.61001" lon="1.9557">
        <ele>101.2</ele>
        <time>2023-12-10T09:13:15Z</time>
      </trkpt>
      <trkpt lat="48.61" lon="1.9556">
        <ele>101.2</ele>
        <time>2023-12-10T09:13:16Z</time>
      </trkpt>
      <trkpt lat="48.60998" lon="1.9555">
        <ele>101.2</ele>
        <time>2023-12-10T09:13:17Z</time>
      </trkpt>
      <trkpt lat="48.60996" lon="1.95541">
        <ele>101.8</ele>
        <time>2023-12-10T09:13:18Z</time>
      </trkpt>
      <trkpt lat="48.60994" lon="1.95532">
        <ele>101.8</ele>
        <time>2023-12-10T09:13:19Z</time>
      </trkpt>
      <trkpt lat="48.60993" lon="1.95524">
        <ele>101.8</ele>
        <time>2023-12-10T09:13:20Z</time>
      </trkpt>
      <trkpt lat="48.6099" lon="1.95515">
        <ele>102.2</ele>
        <time>2023-12-10T09:13:21Z</time>
      </trkpt>
      <trkpt lat="48.60988" lon="1.95506">
        <ele>102.2</ele>
        <time>2023-12-10T09:13:22Z</time>
      </trkpt>
      <trkpt lat="48.60985" lon="1.95497">
        <ele>102.2</ele>
        <time>2023-12-10T09:13:23Z</time>
      </trkpt>
      <trkpt lat="48.60982" lon="1.95488">
        <ele>102.2</ele>
        <time>2023-12-10T09:13:24Z</time>
      </trkpt>
      <trkpt lat="48.6098" lon="1.95481">
        <ele>102.2</ele>
        <time>2023-12-10T09:13:25Z</time>
      </trkpt>
      <trkpt lat="48.60977" lon="1.95474">
        <ele>102.2</ele>
        <time>2023-12-10T09:13:26Z</time>
      </trkpt>
      <trkpt lat="48.60974" lon="1.95465">
        <ele>102.2</ele>
        <time>2023-12-10T09:13:27Z</time>
      </trkpt>
      <trkpt lat="48.6097" lon="1.95457">
        <ele>102.2</ele>
        <time>2023-12-10T09:13:28Z</time>
      </trkpt>
      <trkpt lat="48.60967" lon="1.9545">
        <ele>102.2</ele>
        <time>2023-12-10T09:13:29Z</time>
      </trkpt>
      <trkpt lat="48.60963" lon="1.95442">
        <ele>102.4</ele>
        <time>2023-12-10T09:13:30Z</time>
      </trkpt>
      <trkpt lat="48.60959" lon="1.95434">
        <ele>102.4</ele>
        <time>2023-12-10T09:13:31Z</time>
      </trkpt>
      <trkpt lat="48.60955" lon="1.95426">
        <ele>102.4</ele>
        <time>2023-12-10T09:13:32Z</time>
      </trkpt>
      <trkpt lat="48.60951" lon="1.95418">
        <ele>103.4</ele>
        <time>2023-12-10T09:13:33Z</time>
      </trkpt>
      <trkpt lat="48.60947" lon="1.95412">
        <ele>103.2</ele>
        <time>2023-12-10T09:13:34Z</time>
      </trkpt>
      <trkpt lat="48.60943" lon="1.95405">
        <ele>103.2</ele>
        <time>2023-12-10T09:13:35Z</time>
      </trkpt>
      <trkpt lat="48.60939" lon="1.95399">
        <ele>103.2</ele>
        <time>2023-12-10T09:13:36Z</time>
      </trkpt>
      <trkpt lat="48.60934" lon="1.95392">
        <ele>103.2</ele>
        <time>2023-12-10T09:13:37Z</time>
      </trkpt>
      <trkpt lat="48.6093" lon="1.95385">
        <ele>103</ele>
        <time>2023-12-10T09:13:38Z</time>
      </trkpt>
      <trkpt lat="48.60926" lon="1.95378">
        <ele>103</ele>
        <time>2023-12-10T09:13:39Z</time>
      </trkpt>
      <trkpt lat="48.60921" lon="1.9537">
        <ele>103</ele>
        <time>2023-12-10T09:13:40Z</time>
      </trkpt>
      <trkpt lat="48.60917" lon="1.95364">
        <ele>103.8</ele>
        <time>2023-12-10T09:13:41Z</time>
      </trkpt>
      <trkpt lat="48.60912" lon="1.95356">
        <ele>103.2</ele>
        <time>2023-12-10T09:13:42Z</time>
      </trkpt>
      <trkpt lat="48.60908" lon="1.95349">
        <ele>103.2</ele>
        <time>2023-12-10T09:13:43Z</time>
      </trkpt>
      <trkpt lat="48.60905" lon="1.95342">
        <ele>103.2</ele>
        <time>2023-12-10T09:13:44Z</time>
      </trkpt>
      <trkpt lat="48.60901" lon="1.95335">
        <ele>104.2</ele>
        <time>2023-12-10T09:13:45Z</time>
      </trkpt>
      <trkpt lat="48.60897" lon="1.95329">
        <ele>104.8</ele>
        <time>2023-12-10T09:13:46Z</time>
      </trkpt>
      <trkpt lat="48.60893" lon="1.95323">
        <ele>104.8</ele>
        <time>2023-12-10T09:13:47Z</time>
      </trkpt>
      <trkpt lat="48.60889" lon="1.95316">
        <ele>104.8</ele>
        <time>2023-12-10T09:13:48Z</time>
      </trkpt>
      <trkpt lat="48.60886" lon="1.9531">
        <ele>104.8</ele>
        <time>2023-12-10T09:13:49Z</time>
      </trkpt>
      <trkpt lat="48.60882" lon="1.95304">
        <ele>105</ele>
        <time>2023-12-10T09:13:50Z</time>
      </trkpt>
      <trkpt lat="48.60878" lon="1.95297">
        <ele>105</ele>
        <time>2023-12-10T09:13:51Z</time>
      </trkpt>
      <trkpt lat="48.60875" lon="1.95291">
        <ele>105</ele>
        <time>2023-12-10T09:13:52Z</time>
      </trkpt>
      <trkpt lat="48.60871" lon="1.95284">
        <ele>105.4</ele>
        <time>2023-12-10T09:13:53Z</time>
      </trkpt>
      <trkpt lat="48.60867" lon="1.95278">
        <ele>105.6</ele>
        <time>2023-12-10T09:13:54Z</time>
      </trkpt>
      <trkpt lat="48.60863" lon="1.95272">
        <ele>105.6</ele>
        <time>2023-12-10T09:13:55Z</time>
      </trkpt>
      <trkpt lat="48.60859" lon="1.95265">
        <ele>105.6</ele>
        <time>2023-12-10T09:13:56Z</time>
      </trkpt>
      <trkpt lat="48.60855" lon="1.95259">
        <ele>105.6</ele>
        <time>2023-12-10T09:13:57Z</time>
      </trkpt>
      <trkpt lat="48.60851" lon="1.95252">
        <ele>105.6</ele>
        <time>2023-12-10T09:13:58Z</time>
      </trkpt>
      <trkpt lat="48.60848" lon="1.95246">
        <ele>105.6</ele>
        <time>2023-12-10T09:13:59Z</time>
      </trkpt>
      <trkpt lat="48.60844" lon="1.9524">
        <ele>105.6</ele>
        <time>2023-12-10T09:14:00Z</time>
      </trkpt>
      <trkpt lat="48.60841" lon="1.95233">
        <ele>105.6</ele>
        <time>2023-12-10T09:14:01Z</time>
      </trkpt>
      <trkpt lat="48.60838" lon="1.95227">
        <ele>105.8</ele>
        <time>2023-12-10T09:14:02Z</time>
      </trkpt>
      <trkpt lat="48.60835" lon="1.9522">
        <ele>105.8</ele>
        <time>2023-12-10T09:14:03Z</time>
      </trkpt>
      <trkpt lat="48.60831" lon="1.95213">
        <ele>105.8</ele>
        <time>2023-12-10T09:14:04Z</time>
      </trkpt>
      <trkpt lat="48.60828" lon="1.95207">
        <ele>106.4</ele>
        <time>2023-12-10T09:14:05Z</time>
      </trkpt>
      <trkpt lat="48.60825" lon="1.952">
        <ele>106.6</ele>
        <time>2023-12-10T09:14:06Z</time>
      </trkpt>
      <trkpt lat="48.60821" lon="1.95194">
        <ele>106.6</ele>
        <time>2023-12-10T09:14:07Z</time>
      </trkpt>
      <trkpt lat="48.60818" lon="1.95187">
        <ele>106.6</ele>
        <time>2023-12-10T09:14:08Z</time>
      </trkpt>
      <trkpt lat="48.60815" lon="1.95181">
        <ele>106.6</ele>
        <time>2023-12-10T09:14:09Z</time>
      </trkpt>
      <trkpt lat="48.60811" lon="1.95175">
        <ele>107</ele>
        <time>2023-12-10T09:14:10Z</time>
      </trkpt>
      <trkpt lat="48.60808" lon="1.95168">
        <ele>107</ele>
        <time>2023-12-10T09:14:11Z</time>
      </trkpt>
      <trkpt lat="48.60804" lon="1.95161">
        <ele>107</ele>
        <time>2023-12-10T09:14:12Z</time>
      </trkpt>
      <trkpt lat="48.60801" lon="1.95155">
        <ele>107</ele>
        <time>2023-12-10T09:14:13Z</time>
      </trkpt>
      <trkpt lat="48.60798" lon="1.95148">
        <ele>107</ele>
        <time>2023-12-10T09:14:14Z</time>
      </trkpt>
      <trkpt lat="48.60795" lon="1.95141">
        <ele>107</ele>
        <time>2023-12-10T09:14:15Z</time>
      </trkpt>
      <trkpt lat="48.60792" lon="1.95134">
        <ele>107</ele>
        <time>2023-12-10T09:14:16Z</time>
      </trkpt>
      <trkpt lat="48.60789" lon="1.95128">
        <ele>107.4</ele>
        <time>2023-12-10T09:14:17Z</time>
      </trkpt>
      <trkpt lat="48.60785" lon="1.95121">
        <ele>107.4</ele>
        <time>2023-12-10T09:14:18Z</time>
      </trkpt>
      <trkpt lat="48.60782" lon="1.95114">
        <ele>107.4</ele>
        <time>2023-12-10T09:14:19Z</time>
      </trkpt>
      <trkpt lat="48.60779" lon="1.95107">
        <ele>107.4</ele>
        <time>2023-12-10T09:14:20Z</time>
      </trkpt>
      <trkpt lat="48.60776" lon="1.95101">
        <ele>107.4</ele>
        <time>2023-12-10T09:14:21Z</time>
      </trkpt>
      <trkpt lat="48.60773" lon="1.95095">
        <ele>108.2</ele>
        <time>2023-12-10T09:14:22Z</time>
      </trkpt>
      <trkpt lat="48.6077" lon="1.95089">
        <ele>108.2</ele>
        <time>2023-12-10T09:14:23Z</time>
      </trkpt>
      <trkpt lat="48.60766" lon="1.95082">
        <ele>108.2</ele>
        <time>2023-12-10T09:14:24Z</time>
      </trkpt>
      <trkpt lat="48.60763" lon="1.95076">
        <ele>108.2</ele>
        <time>2023-12-10T09:14:25Z</time>
      </trkpt>
      <trkpt lat="48.6076" lon="1.9507">
        <ele>107.6</ele>
        <time>2023-12-10T09:14:26Z</time>
      </trkpt>
      <trkpt lat="48.60757" lon="1.95064">
        <ele>107.6</ele>
        <time>2023-12-10T09:14:27Z</time>
      </trkpt>
      <trkpt lat="48.60753" lon="1.95057">
        <ele>107.6</ele>
        <time>2023-12-10T09:14:28Z</time>
      </trkpt>
      <trkpt lat="48.60751" lon="1.95051">
        <ele>107.6</ele>
        <time>2023-12-10T09:14:29Z</time>
      </trkpt>
      <trkpt lat="48.60747" lon="1.95045">
        <ele>108.2</ele>
        <time>2023-12-10T09:14:30Z</time>
      </trkpt>
      <trkpt lat="48.60744" lon="1.95039">
        <ele>108.2</ele>
        <time>2023-12-10T09:14:31Z</time>
      </trkpt>
      <trkpt lat="48.6074" lon="1.95033">
        <ele>108.2</ele>
        <time>2023-12-10T09:14:32Z</time>
      </trkpt>
      <trkpt lat="48.60737" lon="1.95027">
        <ele>108.2</ele>
        <time>2023-12-10T09:14:33Z</time>
      </trkpt>
      <trkpt lat="48.60733" lon="1.9502">
        <ele>108.2</ele>
        <time>2023-12-10T09:14:34Z</time>
      </trkpt>
      <trkpt lat="48.6073" lon="1.95014">
        <ele>108.2</ele>
        <time>2023-12-10T09:14:35Z</time>
      </trkpt>
      <trkpt lat="48.60726" lon="1.95008">
        <ele>108.2</ele>
        <time>2023-12-10T09:14:36Z</time>
      </trkpt>
      <trkpt lat="48.60722" lon="1.95002">
        <ele>108.4</ele>
        <time>2023-12-10T09:14:37Z</time>
      </trkpt>
      <trkpt lat="48.60718" lon="1.94996">
        <ele>108.4</ele>
        <time>2023-12-10T09:14:38Z</time>
      </trkpt>
      <trkpt lat="48.60715" lon="1.9499">
        <ele>108.4</ele>
        <time>2023-12-10T09:14:39Z</time>
      </trkpt>
      <trkpt lat="48.6071" lon="1.94984">
        <ele>108.4</ele>
        <time>2023-12-10T09:14:40Z</time>
      </trkpt>
      <trkpt lat="48.60707" lon="1.94979">
        <ele>108.4</ele>
        <time>2023-12-10T09:14:41Z</time>
      </trkpt>
      <trkpt lat="48.60702" lon="1.94974">
        <ele>108</ele>
        <time>2023-12-10T09:14:42Z</time>
      </trkpt>
      <trkpt lat="48.60698" lon="1.94969">
        <ele>108</ele>
        <time>2023-12-10T09:14:43Z</time>
      </trkpt>
      <trkpt lat="48.60694" lon="1.94964">
        <ele>108</ele>
        <time>2023-12-10T09:14:44Z</time>
      </trkpt>
      <trkpt lat="48.60689" lon="1.94958">
        <ele>108.2</ele>
        <time>2023-12-10T09:14:45Z</time>
      </trkpt>
      <trkpt lat="48.60685" lon="1.94952">
        <ele>108.6</ele>
        <time>2023-12-10T09:14:46Z</time>
      </trkpt>
      <trkpt lat="48.6068" lon="1.94947">
        <ele>108.6</ele>
        <time>2023-12-10T09:14:47Z</time>
      </trkpt>
      <trkpt lat="48.60677" lon="1.94943">
        <ele>108.6</ele>
        <time>2023-12-10T09:14:48Z</time>
      </trkpt>
      <trkpt lat="48.60672" lon="1.94938">
        <ele>108.6</ele>
        <time>2023-12-10T09:14:49Z</time>
      </trkpt>
      <trkpt lat="48.60668" lon="1.94933">
        <ele>108.8</ele>
        <time>2023-12-10T09:14:50Z</time>
      </trkpt>
      <trkpt lat="48.60663" lon="1.94928">
        <ele>108.8</ele>
        <time>2023-12-10T09:14:51Z</time>
      </trkpt>
      <trkpt lat="48.60659" lon="1.94923">
        <ele>108.8</ele>
        <time>2023-12-10T09:14:52Z</time>
      </trkpt>
      <trkpt lat="48.60654" lon="1.94918">
        <ele>109</ele>
        <time>2023-12-10T09:14:53Z</time>
      </trkpt>
      <trkpt lat="48.60649" lon="1.94913">
        <ele>108.8</ele>
        <time>2023-12-10T09:14:54Z</time>
      </trkpt>
      <trkpt lat="48.60645" lon="1.94908">
        <ele>108.8</ele>
        <time>2023-12-10T09:14:55Z</time>
      </trkpt>
      <trkpt lat="48.60641" lon="1.94905">
        <ele>108.8</ele>
        <time>2023-12-10T09:14:56Z</time>
      </trkpt>
      <trkpt lat="48.60637" lon="1.949">
        <ele>109.2</ele>
        <time>2023-12-10T09:14:57Z</time>
      </trkpt>
      <trkpt lat="48.60632" lon="1.94895">
        <ele>109</ele>
        <time>2023-12-10T09:14:58Z</time>
      </trkpt>
      <trkpt lat="48.60628" lon="1.94891">
        <ele>109</ele>
        <time>2023-12-10T09:14:59Z</time>
      </trkpt>
      <trkpt lat="48.60624" lon="1.94886">
        <ele>109</ele>
        <time>2023-12-10T09:15:00Z</time>
      </trkpt>
      <trkpt lat="48.60619" lon="1.94881">
        <ele>109</ele>
        <time>2023-12-10T09:15:01Z</time>
      </trkpt>
      <trkpt lat="48.60615" lon="1.94876">
        <ele>108.8</ele>
        <time>2023-12-10T09:15:02Z</time>
      </trkpt>
      <trkpt lat="48.6061" lon="1.94871">
        <ele>108.8</ele>
        <time>2023-12-10T09:15:03Z</time>
      </trkpt>
      <trkpt lat="48.60606" lon="1.94865">
        <ele>108.8</ele>
        <time>2023-12-10T09:15:04Z</time>
      </trkpt>
      <trkpt lat="48.60601" lon="1.9486">
        <ele>108.8</ele>
        <time>2023-12-10T09:15:05Z</time>
      </trkpt>
      <trkpt lat="48.60596" lon="1.94854">
        <ele>109</ele>
        <time>2023-12-10T09:15:06Z</time>
      </trkpt>
      <trkpt lat="48.60592" lon="1.94849">
        <ele>109</ele>
        <time>2023-12-10T09:15:07Z</time>
      </trkpt>
      <trkpt lat="48.60587" lon="1.94843">
        <ele>109</ele>
        <time>2023-12-10T09:15:08Z</time>
      </trkpt>
      <trkpt lat="48.60583" lon="1.94839">
        <ele>109</ele>
        <time>2023-12-10T09:15:09Z</time>
      </trkpt>
      <trkpt lat="48.60578" lon="1.94834">
        <ele>109.4</ele>
        <time>2023-12-10T09:15:10Z</time>
      </trkpt>
      <trkpt lat="48.60574" lon="1.94829">
        <ele>109.4</ele>
        <time>2023-12-10T09:15:11Z</time>
      </trkpt>
      <trkpt lat="48.60569" lon="1.94824">
        <ele>109.4</ele>
        <time>2023-12-10T09:15:12Z</time>
      </trkpt>
      <trkpt lat="48.60565" lon="1.94819">
        <ele>109.4</ele>
        <time>2023-12-10T09:15:13Z</time>
      </trkpt>
      <trkpt lat="48.6056" lon="1.94813">
        <ele>109.2</ele>
        <time>2023-12-10T09:15:14Z</time>
      </trkpt>
      <trkpt lat="48.60555" lon="1.94808">
        <ele>109.2</ele>
        <time>2023-12-10T09:15:15Z</time>
      </trkpt>
      <trkpt lat="48.6055" lon="1.94802">
        <ele>109.2</ele>
        <time>2023-12-10T09:15:16Z</time>
      </trkpt>
      <trkpt lat="48.60545" lon="1.94797">
        <ele>110.2</ele>
        <time>2023-12-10T09:15:17Z</time>
      </trkpt>
      <trkpt lat="48.60541" lon="1.94792">
        <ele>111.4</ele>
        <time>2023-12-10T09:15:18Z</time>
      </trkpt>
      <trkpt lat="48.60536" lon="1.94787">
        <ele>111.4</ele>
        <time>2023-12-10T09:15:19Z</time>
      </trkpt>
      <trkpt lat="48.60532" lon="1.94782">
        <ele>111.4</ele>
        <time>2023-12-10T09:15:20Z</time>
      </trkpt>
      <trkpt lat="48.60527" lon="1.94777">
        <ele>111</ele>
        <time>2023-12-10T09:15:21Z</time>
      </trkpt>
      <trkpt lat="48.60522" lon="1.94772">
        <ele>111</ele>
        <time>2023-12-10T09:15:22Z</time>
      </trkpt>
      <trkpt lat="48.60518" lon="1.94767">
        <ele>111</ele>
        <time>2023-12-10T09:15:23Z</time>
      </trkpt>
      <trkpt lat="48.60513" lon="1.94762">
        <ele>111</ele>
        <time>2023-12-10T09:15:24Z</time>
      </trkpt>
      <trkpt lat="48.60509" lon="1.94758">
        <ele>111</ele>
        <time>2023-12-10T09:15:25Z</time>
      </trkpt>
      <trkpt lat="48.60505" lon="1.94753">
        <ele>111</ele>
        <time>2023-12-10T09:15:26Z</time>
      </trkpt>
      <trkpt lat="48.60501" lon="1.94747">
        <ele>111</ele>
        <time>2023-12-10T09:15:27Z</time>
      </trkpt>
      <trkpt lat="48.60496" lon="1.94742">
        <ele>111</ele>
        <time>2023-12-10T09:15:28Z</time>
      </trkpt>
      <trkpt lat="48.60492" lon="1.94737">
        <ele>111.6</ele>
        <time>2023-12-10T09:15:29Z</time>
      </trkpt>
      <trkpt lat="48.60487" lon="1.94732">
        <ele>111.6</ele>
        <time>2023-12-10T09:15:30Z</time>
      </trkpt>
      <trkpt lat="48.60483" lon="1.94728">
        <ele>111.6</ele>
        <time>2023-12-10T09:15:31Z</time>
      </trkpt>
      <trkpt lat="48.60479" lon="1.94723">
        <ele>111.6</ele>
        <time>2023-12-10T09:15:32Z</time>
      </trkpt>
      <trkpt lat="48.60475" lon="1.94718">
        <ele>112</ele>
        <time>2023-12-10T09:15:33Z</time>
      </trkpt>
      <trkpt lat="48.60472" lon="1.94713">
        <ele>112.2</ele>
        <time>2023-12-10T09:15:34Z</time>
      </trkpt>
      <trkpt lat="48.60468" lon="1.94708">
        <ele>112.2</ele>
        <time>2023-12-10T09:15:35Z</time>
      </trkpt>
      <trkpt lat="48.60464" lon="1.94704">
        <ele>112.2</ele>
        <time>2023-12-10T09:15:36Z</time>
      </trkpt>
      <trkpt lat="48.6046" lon="1.947">
        <ele>112.2</ele>
        <time>2023-12-10T09:15:37Z</time>
      </trkpt>
      <trkpt lat="48.60456" lon="1.94696">
        <ele>112.4</ele>
        <time>2023-12-10T09:15:38Z</time>
      </trkpt>
      <trkpt lat="48.60452" lon="1.94692">
        <ele>112.4</ele>
        <time>2023-12-10T09:15:39Z</time>
      </trkpt>
      <trkpt lat="48.60448" lon="1.94687">
        <ele>112.4</ele>
        <time>2023-12-10T09:15:40Z</time>
      </trkpt>
      <trkpt lat="48.60444" lon="1.94684">
        <ele>113</ele>
        <time>2023-12-10T09:15:41Z</time>
      </trkpt>
      <trkpt lat="48.6044" lon="1.94679">
        <ele>112.6</ele>
        <time>2023-12-10T09:15:42Z</time>
      </trkpt>
      <trkpt lat="48.60436" lon="1.94674">
        <ele>112.6</ele>
        <time>2023-12-10T09:15:43Z</time>
      </trkpt>
      <trkpt lat="48.60432" lon="1.9467">
        <ele>112.6</ele>
        <time>2023-12-10T09:15:44Z</time>
      </trkpt>
      <trkpt lat="48.60428" lon="1.94665">
        <ele>112.6</ele>
        <time>2023-12-10T09:15:45Z</time>
      </trkpt>
      <trkpt lat="48.60424" lon="1.94661">
        <ele>113</ele>
        <time>2023-12-10T09:15:46Z</time>
      </trkpt>
      <trkpt lat="48.6042" lon="1.94656">
        <ele>113</ele>
        <time>2023-12-10T09:15:47Z</time>
      </trkpt>
      <trkpt lat="48.60416" lon="1.94651">
        <ele>113</ele>
        <time>2023-12-10T09:15:48Z</time>
      </trkpt>
      <trkpt lat="48.60413" lon="1.94647">
        <ele>113.4</ele>
        <time>2023-12-10T09:15:49Z</time>
      </trkpt>
      <trkpt lat="48.60409" lon="1.94642">
        <ele>113.6</ele>
        <time>2023-12-10T09:15:50Z</time>
      </trkpt>
      <trkpt lat="48.60406" lon="1.94637">
        <ele>113.6</ele>
        <time>2023-12-10T09:15:51Z</time>
      </trkpt>
      <trkpt lat="48.60402" lon="1.94633">
        <ele>113.6</ele>
        <time>2023-12-10T09:15:52Z</time>
      </trkpt>
      <trkpt lat="48.60398" lon="1.94628">
        <ele>114.6</ele>
        <time>2023-12-10T09:15:53Z</time>
      </trkpt>
      <trkpt lat="48.60395" lon="1.94624">
        <ele>115.4</ele>
        <time>2023-12-10T09:15:54Z</time>
      </trkpt>
      <trkpt lat="48.60392" lon="1.9462">
        <ele>115.4</ele>
        <time>2023-12-10T09:15:55Z</time>
      </trkpt>
      <trkpt lat="48.60389" lon="1.94617">
        <ele>115.4</ele>
        <time>2023-12-10T09:15:56Z</time>
      </trkpt>
      <trkpt lat="48.60386" lon="1.94614">
        <ele>115.6</ele>
        <time>2023-12-10T09:15:57Z</time>
      </trkpt>
      <trkpt lat="48.60383" lon="1.94611">
        <ele>114.6</ele>
        <time>2023-12-10T09:15:58Z</time>
      </trkpt>
      <trkpt lat="48.60379" lon="1.94608">
        <ele>114.6</ele>
        <time>2023-12-10T09:15:59Z</time>
      </trkpt>
      <trkpt lat="48.60374" lon="1.94603">
        <ele>114.6</ele>
        <time>2023-12-10T09:16:00Z</time>
      </trkpt>
      <trkpt lat="48.60369" lon="1.94598">
        <ele>114.4</ele>
        <time>2023-12-10T09:16:01Z</time>
      </trkpt>
      <trkpt lat="48.60365" lon="1.94594">
        <ele>113.2</ele>
        <time>2023-12-10T09:16:02Z</time>
      </trkpt>
      <trkpt lat="48.60361" lon="1.9459">
        <ele>113.2</ele>
        <time>2023-12-10T09:16:03Z</time>
      </trkpt>
      <trkpt lat="48.60357" lon="1.94586">
        <ele>113.2</ele>
        <time>2023-12-10T09:16:04Z</time>
      </trkpt>
      <trkpt lat="48.60353" lon="1.94582">
        <ele>113.2</ele>
        <time>2023-12-10T09:16:05Z</time>
      </trkpt>
      <trkpt lat="48.60349" lon="1.94577">
        <ele>115.4</ele>
        <time>2023-12-10T09:16:06Z</time>
      </trkpt>
      <trkpt lat="48.60344" lon="1.94573">
        <ele>115.4</ele>
        <time>2023-12-10T09:16:07Z</time>
      </trkpt>
      <trkpt lat="48.6034" lon="1.94569">
        <ele>115.4</ele>
        <time>2023-12-10T09:16:08Z</time>
      </trkpt>
      <trkpt lat="48.60336" lon="1.94565">
        <ele>115.4</ele>
        <time>2023-12-10T09:16:09Z</time>
      </trkpt>
      <trkpt lat="48.60332" lon="1.94561">
        <ele>115.6</ele>
        <time>2023-12-10T09:16:10Z</time>
      </trkpt>
      <trkpt lat="48.60328" lon="1.94557">
        <ele>115.6</ele>
        <time>2023-12-10T09:16:11Z</time>
      </trkpt>
      <trkpt lat="48.60323" lon="1.94552">
        <ele>115.6</ele>
        <time>2023-12-10T09:16:12Z</time>
      </trkpt>
      <trkpt lat="48.6032" lon="1.94547">
        <ele>115.6</ele>
        <time>2023-12-10T09:16:13Z</time>
      </trkpt>
      <trkpt lat="48.60316" lon="1.94543">
        <ele>115.2</ele>
        <time>2023-12-10T09:16:14Z</time>
      </trkpt>
      <trkpt lat="48.60312" lon="1.94539">
        <ele>115.2</ele>
        <time>2023-12-10T09:16:15Z</time>
      </trkpt>
      <trkpt lat="48.60308" lon="1.94534">
        <ele>115.2</ele>
        <time>2023-12-10T09:16:16Z</time>
      </trkpt>
      <trkpt lat="48.60304" lon="1.94529">
        <ele>115.6</ele>
        <time>2023-12-10T09:16:17Z</time>
      </trkpt>
      <trkpt lat="48.603" lon="1.94524">
        <ele>116</ele>
        <time>2023-12-10T09:16:18Z</time>
      </trkpt>
      <trkpt lat="48.60296" lon="1.9452">
        <ele>116</ele>
        <time>2023-12-10T09:16:19Z</time>
      </trkpt>
      <trkpt lat="48.60292" lon="1.94516">
        <ele>116</ele>
        <time>2023-12-10T09:16:20Z</time>
      </trkpt>
      <trkpt lat="48.60287" lon="1.94511">
        <ele>116</ele>
        <time>2023-12-10T09:16:21Z</time>
      </trkpt>
      <trkpt lat="48.60283" lon="1.94507">
        <ele>115.6</ele>
        <time>2023-12-10T09:16:22Z</time>
      </trkpt>
      <trkpt lat="48.60279" lon="1.94503">
        <ele>115.6</ele>
        <time>2023-12-10T09:16:23Z</time>
      </trkpt>
      <trkpt lat="48.60274" lon="1.94498">
        <ele>115.6</ele>
        <time>2023-12-10T09:16:24Z</time>
      </trkpt>
      <trkpt lat="48.6027" lon="1.94493">
        <ele>116.6</ele>
        <time>2023-12-10T09:16:25Z</time>
      </trkpt>
      <trkpt lat="48.60266" lon="1.94488">
        <ele>116.8</ele>
        <time>2023-12-10T09:16:26Z</time>
      </trkpt>
      <trkpt lat="48.60262" lon="1.94484">
        <ele>116.8</ele>
        <time>2023-12-10T09:16:27Z</time>
      </trkpt>
      <trkpt lat="48.60259" lon="1.94478">
        <ele>116.8</ele>
        <time>2023-12-10T09:16:28Z</time>
      </trkpt>
      <trkpt lat="48.60254" lon="1.94474">
        <ele>116.8</ele>
        <time>2023-12-10T09:16:29Z</time>
      </trkpt>
      <trkpt lat="48.6025" lon="1.94469">
        <ele>117.2</ele>
        <time>2023-12-10T09:16:30Z</time>
      </trkpt>
      <trkpt lat="48.60246" lon="1.94464">
        <ele>117.2</ele>
        <time>2023-12-10T09:16:31Z</time>
      </trkpt>
      <trkpt lat="48.60242" lon="1.9446">
        <ele>117.2</ele>
        <time>2023-12-10T09:16:32Z</time>
      </trkpt>
      <trkpt lat="48.60238" lon="1.94455">
        <ele>117.2</ele>
        <time>2023-12-10T09:16:33Z</time>
      </trkpt>
      <trkpt lat="48.60234" lon="1.9445">
        <ele>117.6</ele>
        <time>2023-12-10T09:16:34Z</time>
      </trkpt>
      <trkpt lat="48.60229" lon="1.94446">
        <ele>117.6</ele>
        <time>2023-12-10T09:16:35Z</time>
      </trkpt>
      <trkpt lat="48.60225" lon="1.94441">
        <ele>117.6</ele>
        <time>2023-12-10T09:16:36Z</time>
      </trkpt>
      <trkpt lat="48.60221" lon="1.94436">
        <ele>117.6</ele>
        <time>2023-12-10T09:16:37Z</time>
      </trkpt>
      <trkpt lat="48.60217" lon="1.94431">
        <ele>118</ele>
        <time>2023-12-10T09:16:38Z</time>
      </trkpt>
      <trkpt lat="48.60213" lon="1.94427">
        <ele>118</ele>
        <time>2023-12-10T09:16:39Z</time>
      </trkpt>
      <trkpt lat="48.60208" lon="1.94423">
        <ele>118</ele>
        <time>2023-12-10T09:16:40Z</time>
      </trkpt>
      <trkpt lat="48.60204" lon="1.94418">
        <ele>118</ele>
        <time>2023-12-10T09:16:41Z</time>
      </trkpt>
      <trkpt lat="48.602" lon="1.94414">
        <ele>118.2</ele>
        <time>2023-12-10T09:16:42Z</time>
      </trkpt>
      <trkpt lat="48.60195" lon="1.94409">
        <ele>118.2</ele>
        <time>2023-12-10T09:16:43Z</time>
      </trkpt>
      <trkpt lat="48.60192" lon="1.94404">
        <ele>118.2</ele>
        <time>2023-12-10T09:16:44Z</time>
      </trkpt>
      <trkpt lat="48.60188" lon="1.944">
        <ele>118.2</ele>
        <time>2023-12-10T09:16:45Z</time>
      </trkpt>
      <trkpt lat="48.60184" lon="1.94396">
        <ele>118.2</ele>
        <time>2023-12-10T09:16:46Z</time>
      </trkpt>
      <trkpt lat="48.6018" lon="1.94391">
        <ele>118.2</ele>
        <time>2023-12-10T09:16:47Z</time>
      </trkpt>
      <trkpt lat="48.60176" lon="1.94387">
        <ele>118.2</ele>
        <time>2023-12-10T09:16:48Z</time>
      </trkpt>
      <trkpt lat="48.60172" lon="1.94382">
        <ele>118.2</ele>
        <time>2023-12-10T09:16:49Z</time>
      </trkpt>
      <trkpt lat="48.60168" lon="1.94377">
        <ele>118.4</ele>
        <time>2023-12-10T09:16:50Z</time>
      </trkpt>
      <trkpt lat="48.60164" lon="1.94372">
        <ele>118.4</ele>
        <time>2023-12-10T09:16:51Z</time>
      </trkpt>
      <trkpt lat="48.6016" lon="1.94367">
        <ele>118.4</ele>
        <time>2023-12-10T09:16:52Z</time>
      </trkpt>
      <trkpt lat="48.60156" lon="1.94362">
        <ele>118.8</ele>
        <time>2023-12-10T09:16:53Z</time>
      </trkpt>
      <trkpt lat="48.60152" lon="1.94357">
        <ele>118.6</ele>
        <time>2023-12-10T09:16:54Z</time>
      </trkpt>
      <trkpt lat="48.60147" lon="1.94352">
        <ele>118.6</ele>
        <time>2023-12-10T09:16:55Z</time>
      </trkpt>
      <trkpt lat="48.60143" lon="1.94348">
        <ele>118.6</ele>
        <time>2023-12-10T09:16:56Z</time>
      </trkpt>
      <trkpt lat="48.60138" lon="1.94343">
        <ele>119.2</ele>
        <time>2023-12-10T09:16:57Z</time>
      </trkpt>
      <trkpt lat="48.60134" lon="1.94338">
        <ele>118.8</ele>
        <time>2023-12-10T09:16:58Z</time>
      </trkpt>
      <trkpt lat="48.60129" lon="1.94333">
        <ele>118.8</ele>
        <time>2023-12-10T09:16:59Z</time>
      </trkpt>
      <trkpt lat="48.60125" lon="1.94328">
        <ele>118.8</ele>
        <time>2023-12-10T09:17:00Z</time>
      </trkpt>
      <trkpt lat="48.6012" lon="1.94323">
        <ele>118.8</ele>
        <time>2023-12-10T09:17:01Z</time>
      </trkpt>
      <trkpt lat="48.60115" lon="1.94318">
        <ele>118.8</ele>
        <time>2023-12-10T09:17:02Z</time>
      </trkpt>
      <trkpt lat="48.60111" lon="1.94313">
        <ele>118.8</ele>
        <time>2023-12-10T09:17:03Z</time>
      </trkpt>
      <trkpt lat="48.60106" lon="1.94308">
        <ele>118.8</ele>
        <time>2023-12-10T09:17:04Z</time>
      </trkpt>
      <trkpt lat="48.60101" lon="1.94303">
        <ele>118.8</ele>
        <time>2023-12-10T09:17:05Z</time>
      </trkpt>
      <trkpt lat="48.60097" lon="1.94298">
        <ele>118.8</ele>
        <time>2023-12-10T09:17:06Z</time>
      </trkpt>
      <trkpt lat="48.60092" lon="1.94293">
        <ele>118.8</ele>
        <time>2023-12-10T09:17:07Z</time>
      </trkpt>
      <trkpt lat="48.60087" lon="1.94287">
        <ele>118.8</ele>
        <time>2023-12-10T09:17:08Z</time>
      </trkpt>
      <trkpt lat="48.60082" lon="1.94282">
        <ele>117.8</ele>
        <time>2023-12-10T09:17:09Z</time>
      </trkpt>
      <trkpt lat="48.60077" lon="1.94276">
        <ele>117.8</ele>
        <time>2023-12-10T09:17:10Z</time>
      </trkpt>
      <trkpt lat="48.60073" lon="1.9427">
        <ele>117.8</ele>
        <time>2023-12-10T09:17:11Z</time>
      </trkpt>
      <trkpt lat="48.60067" lon="1.94264">
        <ele>117.8</ele>
        <time>2023-12-10T09:17:12Z</time>
      </trkpt>
      <trkpt lat="48.60062" lon="1.94259">
        <ele>117.4</ele>
        <time>2023-12-10T09:17:13Z</time>
      </trkpt>
      <trkpt lat="48.60056" lon="1.94253">
        <ele>117.2</ele>
        <time>2023-12-10T09:17:14Z</time>
      </trkpt>
      <trkpt lat="48.6005" lon="1.94248">
        <ele>117.2</ele>
        <time>2023-12-10T09:17:15Z</time>
      </trkpt>
      <trkpt lat="48.60045" lon="1.94242">
        <ele>117.2</ele>
        <time>2023-12-10T09:17:16Z</time>
      </trkpt>
      <trkpt lat="48.60039" lon="1.94236">
        <ele>116.6</ele>
        <time>2023-12-10T09:17:17Z</time>
      </trkpt>
      <trkpt lat="48.60033" lon="1.9423">
        <ele>116.6</ele>
        <time>2023-12-10T09:17:18Z</time>
      </trkpt>
      <trkpt lat="48.60028" lon="1.94224">
        <ele>116.6</ele>
        <time>2023-12-10T09:17:19Z</time>
      </trkpt>
      <trkpt lat="48.60022" lon="1.94218">
        <ele>116.6</ele>
        <time>2023-12-10T09:17:20Z</time>
      </trkpt>
      <trkpt lat="48.60017" lon="1.94212">
        <ele>116.6</ele>
        <time>2023-12-10T09:17:21Z</time>
      </trkpt>
      <trkpt lat="48.60011" lon="1.94206">
        <ele>116.2</ele>
        <time>2023-12-10T09:17:22Z</time>
      </trkpt>
      <trkpt lat="48.60006" lon="1.942">
        <ele>116.2</ele>
        <time>2023-12-10T09:17:23Z</time>
      </trkpt>
      <trkpt lat="48.6" lon="1.94194">
        <ele>116.2</ele>
        <time>2023-12-10T09:17:24Z</time>
      </trkpt>
      <trkpt lat="48.59994" lon="1.94188">
        <ele>116.2</ele>
        <time>2023-12-10T09:17:25Z</time>
      </trkpt>
      <trkpt lat="48.59989" lon="1.94182">
        <ele>116</ele>
        <time>2023-12-10T09:17:26Z</time>
      </trkpt>
      <trkpt lat="48.59984" lon="1.94176">
        <ele>116</ele>
        <time>2023-12-10T09:17:27Z</time>
      </trkpt>
      <trkpt lat="48.59979" lon="1.94169">
        <ele>116</ele>
        <time>2023-12-10T09:17:28Z</time>
      </trkpt>
      <trkpt lat="48.59974" lon="1.94163">
        <ele>116.6</ele>
        <time>2023-12-10T09:17:29Z</time>
      </trkpt>
      <trkpt lat="48.59969" lon="1.94157">
        <ele>116.6</ele>
        <time>2023-12-10T09:17:30Z</time>
      </trkpt>
      <trkpt lat="48.59964" lon="1.94152">
        <ele>116.6</ele>
        <time>2023-12-10T09:17:31Z</time>
      </trkpt>
      <trkpt lat="48.59959" lon="1.94146">
        <ele>116.6</ele>
        <time>2023-12-10T09:17:32Z</time>
      </trkpt>
      <trkpt lat="48.59954" lon="1.94141">
        <ele>116.6</ele>
        <time>2023-12-10T09:17:33Z</time>
      </trkpt>
      <trkpt lat="48.59949" lon="1.94134">
        <ele>116.6</ele>
        <time>2023-12-10T09:17:34Z</time>
      </trkpt>
      <trkpt lat="48.59944" lon="1.94129">
        <ele>116.6</ele>
        <time>2023-12-10T09:17:35Z</time>
      </trkpt>
      <trkpt lat="48.59939" lon="1.94123">
        <ele>116.6</ele>
        <time>2023-12-10T09:17:36Z</time>
      </trkpt>
      <trkpt lat="48.59933" lon="1.94117">
        <ele>116.6</ele>
        <time>2023-12-10T09:17:37Z</time>
      </trkpt>
      <trkpt lat="48.59928" lon="1.94111">
        <ele>116</ele>
        <time>2023-12-10T09:17:38Z</time>
      </trkpt>
      <trkpt lat="48.59923" lon="1.94105">
        <ele>116</ele>
        <time>2023-12-10T09:17:39Z</time>
      </trkpt>
      <trkpt lat="48.59917" lon="1.94098">
        <ele>116</ele>
        <time>2023-12-10T09:17:40Z</time>
      </trkpt>
      <trkpt lat="48.59912" lon="1.94092">
        <ele>116</ele>
        <time>2023-12-10T09:17:41Z</time>
      </trkpt>
      <trkpt lat="48.59907" lon="1.94086">
        <ele>115.4</ele>
        <time>2023-12-10T09:17:42Z</time>
      </trkpt>
      <trkpt lat="48.59901" lon="1.9408">
        <ele>115.4</ele>
        <time>2023-12-10T09:17:43Z</time>
      </trkpt>
      <trkpt lat="48.59895" lon="1.94075">
        <ele>115.4</ele>
        <time>2023-12-10T09:17:44Z</time>
      </trkpt>
      <trkpt lat="48.5989" lon="1.94069">
        <ele>115.4</ele>
        <time>2023-12-10T09:17:45Z</time>
      </trkpt>
      <trkpt lat="48.59885" lon="1.94063">
        <ele>115.2</ele>
        <time>2023-12-10T09:17:46Z</time>
      </trkpt>
      <trkpt lat="48.59879" lon="1.94057">
        <ele>115.2</ele>
        <time>2023-12-10T09:17:47Z</time>
      </trkpt>
      <trkpt lat="48.59874" lon="1.94051">
        <ele>115.2</ele>
        <time>2023-12-10T09:17:48Z</time>
      </trkpt>
      <trkpt lat="48.59868" lon="1.94046">
        <ele>115.6</ele>
        <time>2023-12-10T09:17:49Z</time>
      </trkpt>
      <trkpt lat="48.59863" lon="1.9404">
        <ele>115.2</ele>
        <time>2023-12-10T09:17:50Z</time>
      </trkpt>
      <trkpt lat="48.59859" lon="1.94034">
        <ele>115.2</ele>
        <time>2023-12-10T09:17:51Z</time>
      </trkpt>
      <trkpt lat="48.59854" lon="1.94028">
        <ele>115.2</ele>
        <time>2023-12-10T09:17:52Z</time>
      </trkpt>
      <trkpt lat="48.59849" lon="1.94023">
        <ele>114.6</ele>
        <time>2023-12-10T09:17:53Z</time>
      </trkpt>
      <trkpt lat="48.59843" lon="1.94017">
        <ele>114.6</ele>
        <time>2023-12-10T09:17:54Z</time>
      </trkpt>
      <trkpt lat="48.59837" lon="1.94012">
        <ele>114.6</ele>
        <time>2023-12-10T09:17:55Z</time>
      </trkpt>
      <trkpt lat="48.59832" lon="1.94006">
        <ele>114.6</ele>
        <time>2023-12-10T09:17:56Z</time>
      </trkpt>
      <trkpt lat="48.59826" lon="1.94">
        <ele>114.6</ele>
        <time>2023-12-10T09:17:57Z</time>
      </trkpt>
      <trkpt lat="48.5982" lon="1.93994">
        <ele>114.6</ele>
        <time>2023-12-10T09:17:58Z</time>
      </trkpt>
      <trkpt lat="48.59815" lon="1.93988">
        <ele>114.6</ele>
        <time>2023-12-10T09:17:59Z</time>
      </trkpt>
      <trkpt lat="48.59809" lon="1.93982">
        <ele>114.6</ele>
        <time>2023-12-10T09:18:00Z</time>
      </trkpt>
      <trkpt lat="48.59804" lon="1.93976">
        <ele>114.6</ele>
        <time>2023-12-10T09:18:01Z</time>
      </trkpt>
      <trkpt lat="48.59799" lon="1.9397">
        <ele>114.6</ele>
        <time>2023-12-10T09:18:02Z</time>
      </trkpt>
      <trkpt lat="48.59793" lon="1.93964">
        <ele>114.6</ele>
        <time>2023-12-10T09:18:03Z</time>
      </trkpt>
      <trkpt lat="48.59788" lon="1.93959">
        <ele>114.6</ele>
        <time>2023-12-10T09:18:04Z</time>
      </trkpt>
      <trkpt lat="48.59783" lon="1.93953">
        <ele>114.6</ele>
        <time>2023-12-10T09:18:05Z</time>
      </trkpt>
      <trkpt lat="48.59778" lon="1.93948">
        <ele>115.2</ele>
        <time>2023-12-10T09:18:06Z</time>
      </trkpt>
      <trkpt lat="48.59773" lon="1.93943">
        <ele>115.2</ele>
        <time>2023-12-10T09:18:07Z</time>
      </trkpt>
      <trkpt lat="48.59768" lon="1.93937">
        <ele>115.2</ele>
        <time>2023-12-10T09:18:08Z</time>
      </trkpt>
      <trkpt lat="48.59762" lon="1.93932">
        <ele>115.8</ele>
        <time>2023-12-10T09:18:09Z</time>
      </trkpt>
      <trkpt lat="48.59758" lon="1.93927">
        <ele>115.8</ele>
        <time>2023-12-10T09:18:10Z</time>
      </trkpt>
      <trkpt lat="48.59753" lon="1.93922">
        <ele>115.8</ele>
        <time>2023-12-10T09:18:11Z</time>
      </trkpt>
      <trkpt lat="48.59748" lon="1.93917">
        <ele>115.8</ele>
        <time>2023-12-10T09:18:12Z</time>
      </trkpt>
      <trkpt lat="48.59744" lon="1.93912">
        <ele>116.4</ele>
        <time>2023-12-10T09:18:13Z</time>
      </trkpt>
      <trkpt lat="48.59739" lon="1.93907">
        <ele>116.2</ele>
        <time>2023-12-10T09:18:14Z</time>
      </trkpt>
      <trkpt lat="48.59735" lon="1.93903">
        <ele>116.2</ele>
        <time>2023-12-10T09:18:15Z</time>
      </trkpt>
      <trkpt lat="48.5973" lon="1.93898">
        <ele>116.2</ele>
        <time>2023-12-10T09:18:16Z</time>
      </trkpt>
      <trkpt lat="48.59726" lon="1.93894">
        <ele>117</ele>
        <time>2023-12-10T09:18:17Z</time>
      </trkpt>
      <trkpt lat="48.59722" lon="1.93889">
        <ele>117</ele>
        <time>2023-12-10T09:18:18Z</time>
      </trkpt>
      <trkpt lat="48.59718" lon="1.93885">
        <ele>117</ele>
        <time>2023-12-10T09:18:19Z</time>
      </trkpt>
      <trkpt lat="48.59714" lon="1.9388">
        <ele>117</ele>
        <time>2023-12-10T09:18:20Z</time>
      </trkpt>
      <trkpt lat="48.5971" lon="1.93875">
        <ele>117</ele>
        <time>2023-12-10T09:18:21Z</time>
      </trkpt>
      <trkpt lat="48.59706" lon="1.9387">
        <ele>117</ele>
        <time>2023-12-10T09:18:22Z</time>
      </trkpt>
      <trkpt lat="48.59702" lon="1.93865">
        <ele>117</ele>
        <time>2023-12-10T09:18:23Z</time>
      </trkpt>
      <trkpt lat="48.59698" lon="1.9386">
        <ele>117</ele>
        <time>2023-12-10T09:18:24Z</time>
      </trkpt>
      <trkpt lat="48.59694" lon="1.93855">
        <ele>117.2</ele>
        <time>2023-12-10T09:18:25Z</time>
      </trkpt>
      <trkpt lat="48.5969" lon="1.93851">
        <ele>117.2</ele>
        <time>2023-12-10T09:18:26Z</time>
      </trkpt>
      <trkpt lat="48.59687" lon="1.93846">
        <ele>117.2</ele>
        <time>2023-12-10T09:18:27Z</time>
      </trkpt>
      <trkpt lat="48.59683" lon="1.93841">
        <ele>117.2</ele>
        <time>2023-12-10T09:18:28Z</time>
      </trkpt>
      <trkpt lat="48.59678" lon="1.93837">
        <ele>117</ele>
        <time>2023-12-10T09:18:29Z</time>
      </trkpt>
      <trkpt lat="48.59674" lon="1.93833">
        <ele>117.6</ele>
        <time>2023-12-10T09:18:30Z</time>
      </trkpt>
      <trkpt lat="48.5967" lon="1.93829">
        <ele>117.6</ele>
        <time>2023-12-10T09:18:31Z</time>
      </trkpt>
      <trkpt lat="48.59666" lon="1.93825">
        <ele>117.6</ele>
        <time>2023-12-10T09:18:32Z</time>
      </trkpt>
      <trkpt lat="48.59662" lon="1.9382">
        <ele>117.6</ele>
        <time>2023-12-10T09:18:33Z</time>
      </trkpt>
      <trkpt lat="48.59658" lon="1.93816">
        <ele>118.4</ele>
        <time>2023-12-10T09:18:34Z</time>
      </trkpt>
      <trkpt lat="48.59654" lon="1.93812">
        <ele>118.4</ele>
        <time>2023-12-10T09:18:35Z</time>
      </trkpt>
      <trkpt lat="48.5965" lon="1.93808">
        <ele>118.4</ele>
        <time>2023-12-10T09:18:36Z</time>
      </trkpt>
      <trkpt lat="48.59645" lon="1.93804">
        <ele>118.4</ele>
        <time>2023-12-10T09:18:37Z</time>
      </trkpt>
      <trkpt lat="48.59642" lon="1.93801">
        <ele>118</ele>
        <time>2023-12-10T09:18:38Z</time>
      </trkpt>
      <trkpt lat="48.59638" lon="1.93797">
        <ele>118</ele>
        <time>2023-12-10T09:18:39Z</time>
      </trkpt>
      <trkpt lat="48.59634" lon="1.93794">
        <ele>118</ele>
        <time>2023-12-10T09:18:40Z</time>
      </trkpt>
      <trkpt lat="48.5963" lon="1.9379">
        <ele>118</ele>
        <time>2023-12-10T09:18:41Z</time>
      </trkpt>
      <trkpt lat="48.59625" lon="1.93786">
        <ele>117.8</ele>
        <time>2023-12-10T09:18:42Z</time>
      </trkpt>
      <trkpt lat="48.59621" lon="1.93782">
        <ele>117.8</ele>
        <time>2023-12-10T09:18:43Z</time>
      </trkpt>
      <trkpt lat="48.59617" lon="1.93778">
        <ele>117.8</ele>
        <time>2023-12-10T09:18:44Z</time>
      </trkpt>
      <trkpt lat="48.59613" lon="1.93775">
        <ele>118.4</ele>
        <time>2023-12-10T09:18:45Z</time>
      </trkpt>
      <trkpt lat="48.59609" lon="1.93771">
        <ele>117.8</ele>
        <time>2023-12-10T09:18:46Z</time>
      </trkpt>
      <trkpt lat="48.59605" lon="1.93767">
        <ele>117.8</ele>
        <time>2023-12-10T09:18:47Z</time>
      </trkpt>
      <trkpt lat="48.59601" lon="1.93764">
        <ele>117.8</ele>
        <time>2023-12-10T09:18:48Z</time>
      </trkpt>
      <trkpt lat="48.59597" lon="1.93761">
        <ele>117.8</ele>
        <time>2023-12-10T09:18:49Z</time>
      </trkpt>
      <trkpt lat="48.59593" lon="1.93757">
        <ele>118.2</ele>
        <time>2023-12-10T09:18:50Z</time>
      </trkpt>
      <trkpt lat="48.59589" lon="1.93754">
        <ele>118.2</ele>
        <time>2023-12-10T09:18:51Z</time>
      </trkpt>
      <trkpt lat="48.59585" lon="1.93751">
        <ele>118.2</ele>
        <time>2023-12-10T09:18:52Z</time>
      </trkpt>
      <trkpt lat="48.59581" lon="1.93748">
        <ele>119.2</ele>
        <time>2023-12-10T09:18:53Z</time>
      </trkpt>
      <trkpt lat="48.59577" lon="1.93745">
        <ele>120</ele>
        <time>2023-12-10T09:18:54Z</time>
      </trkpt>
      <trkpt lat="48.59574" lon="1.93741">
        <ele>120</ele>
        <time>2023-12-10T09:18:55Z</time>
      </trkpt>
      <trkpt lat="48.5957" lon="1.93737">
        <ele>120</ele>
        <time>2023-12-10T09:18:56Z</time>
      </trkpt>
      <trkpt lat="48.59565" lon="1.93734">
        <ele>120</ele>
        <time>2023-12-10T09:18:57Z</time>
      </trkpt>
      <trkpt lat="48.59561" lon="1.93731">
        <ele>120.2</ele>
        <time>2023-12-10T09:18:58Z</time>
      </trkpt>
      <trkpt lat="48.59557" lon="1.93727">
        <ele>120.2</ele>
        <time>2023-12-10T09:18:59Z</time>
      </trkpt>
      <trkpt lat="48.59554" lon="1.93723">
        <ele>120.2</ele>
        <time>2023-12-10T09:19:00Z</time>
      </trkpt>
      <trkpt lat="48.59549" lon="1.9372">
        <ele>120.2</ele>
        <time>2023-12-10T09:19:01Z</time>
      </trkpt>
      <trkpt lat="48.59545" lon="1.93716">
        <ele>120.4</ele>
        <time>2023-12-10T09:19:02Z</time>
      </trkpt>
      <trkpt lat="48.59542" lon="1.93711">
        <ele>120.4</ele>
        <time>2023-12-10T09:19:03Z</time>
      </trkpt>
      <trkpt lat="48.59537" lon="1.93709">
        <ele>120.4</ele>
        <time>2023-12-10T09:19:04Z</time>
      </trkpt>
      <trkpt lat="48.59532" lon="1.93705">
        <ele>120.2</ele>
        <time>2023-12-10T09:19:05Z</time>
      </trkpt>
      <trkpt lat="48.59527" lon="1.93704">
        <ele>120.2</ele>
        <time>2023-12-10T09:19:06Z</time>
      </trkpt>
      <trkpt lat="48.59522" lon="1.93701">
        <ele>120.2</ele>
        <time>2023-12-10T09:19:07Z</time>
      </trkpt>
      <trkpt lat="48.59518" lon="1.93698">
        <ele>120.2</ele>
        <time>2023-12-10T09:19:08Z</time>
      </trkpt>
      <trkpt lat="48.59514" lon="1.93695">
        <ele>121.2</ele>
        <time>2023-12-10T09:19:09Z</time>
      </trkpt>
      <trkpt lat="48.59509" lon="1.93693">
        <ele>121</ele>
        <time>2023-12-10T09:19:10Z</time>
      </trkpt>
      <trkpt lat="48.59505" lon="1.9369">
        <ele>121</ele>
        <time>2023-12-10T09:19:11Z</time>
      </trkpt>
      <trkpt lat="48.595" lon="1.93688">
        <ele>121</ele>
        <time>2023-12-10T09:19:12Z</time>
      </trkpt>
      <trkpt lat="48.59494" lon="1.93685">
        <ele>121.4</ele>
        <time>2023-12-10T09:19:13Z</time>
      </trkpt>
      <trkpt lat="48.5949" lon="1.93683">
        <ele>122</ele>
        <time>2023-12-10T09:19:14Z</time>
      </trkpt>
      <trkpt lat="48.59486" lon="1.93679">
        <ele>122</ele>
        <time>2023-12-10T09:19:15Z</time>
      </trkpt>
      <trkpt lat="48.59483" lon="1.93676">
        <ele>122</ele>
        <time>2023-12-10T09:19:16Z</time>
      </trkpt>
      <trkpt lat="48.59479" lon="1.93673">
        <ele>122</ele>
        <time>2023-12-10T09:19:17Z</time>
      </trkpt>
      <trkpt lat="48.59475" lon="1.9367">
        <ele>122.4</ele>
        <time>2023-12-10T09:19:18Z</time>
      </trkpt>
      <trkpt lat="48.59472" lon="1.93668">
        <ele>122.4</ele>
        <time>2023-12-10T09:19:19Z</time>
      </trkpt>
      <trkpt lat="48.59468" lon="1.93666">
        <ele>122.4</ele>
        <time>2023-12-10T09:19:20Z</time>
      </trkpt>
      <trkpt lat="48.59464" lon="1.93664">
        <ele>122.4</ele>
        <time>2023-12-10T09:19:21Z</time>
      </trkpt>
      <trkpt lat="48.5946" lon="1.93663">
        <ele>122.4</ele>
        <time>2023-12-10T09:19:22Z</time>
      </trkpt>
      <trkpt lat="48.59456" lon="1.93661">
        <ele>122.4</ele>
        <time>2023-12-10T09:19:23Z</time>
      </trkpt>
      <trkpt lat="48.59452" lon="1.93659">
        <ele>122.4</ele>
        <time>2023-12-10T09:19:24Z</time>
      </trkpt>
      <trkpt lat="48.59448" lon="1.93656">
        <ele>123.4</ele>
        <time>2023-12-10T09:19:25Z</time>
      </trkpt>
      <trkpt lat="48.59444" lon="1.93653">
        <ele>123.8</ele>
        <time>2023-12-10T09:19:26Z</time>
      </trkpt>
      <trkpt lat="48.5944" lon="1.93651">
        <ele>123.8</ele>
        <time>2023-12-10T09:19:27Z</time>
      </trkpt>
      <trkpt lat="48.59436" lon="1.93649">
        <ele>123.8</ele>
        <time>2023-12-10T09:19:28Z</time>
      </trkpt>
      <trkpt lat="48.59432" lon="1.93647">
        <ele>123.8</ele>
        <time>2023-12-10T09:19:29Z</time>
      </trkpt>
      <trkpt lat="48.59428" lon="1.93644">
        <ele>124</ele>
        <time>2023-12-10T09:19:30Z</time>
      </trkpt>
      <trkpt lat="48.59424" lon="1.93641">
        <ele>124</ele>
        <time>2023-12-10T09:19:31Z</time>
      </trkpt>
      <trkpt lat="48.59421" lon="1.93637">
        <ele>124</ele>
        <time>2023-12-10T09:19:32Z</time>
      </trkpt>
      <trkpt lat="48.59417" lon="1.93634">
        <ele>124.4</ele>
        <time>2023-12-10T09:19:33Z</time>
      </trkpt>
      <trkpt lat="48.59413" lon="1.93631">
        <ele>125</ele>
        <time>2023-12-10T09:19:34Z</time>
      </trkpt>
      <trkpt lat="48.59407" lon="1.93628">
        <ele>125</ele>
        <time>2023-12-10T09:19:35Z</time>
      </trkpt>
      <trkpt lat="48.59403" lon="1.93625">
        <ele>125</ele>
        <time>2023-12-10T09:19:36Z</time>
      </trkpt>
      <trkpt lat="48.59399" lon="1.93622">
        <ele>125</ele>
        <time>2023-12-10T09:19:37Z</time>
      </trkpt>
      <trkpt lat="48.59395" lon="1.93619">
        <ele>125</ele>
        <time>2023-12-10T09:19:38Z</time>
      </trkpt>
      <trkpt lat="48.5939" lon="1.93616">
        <ele>125</ele>
        <time>2023-12-10T09:19:39Z</time>
      </trkpt>
      <trkpt lat="48.59386" lon="1.93614">
        <ele>125</ele>
        <time>2023-12-10T09:19:40Z</time>
      </trkpt>
      <trkpt lat="48.59381" lon="1.93612">
        <ele>125</ele>
        <time>2023-12-10T09:19:41Z</time>
      </trkpt>
      <trkpt lat="48.59377" lon="1.9361">
        <ele>125.2</ele>
        <time>2023-12-10T09:19:42Z</time>
      </trkpt>
      <trkpt lat="48.59372" lon="1.93608">
        <ele>125.2</ele>
        <time>2023-12-10T09:19:43Z</time>
      </trkpt>
      <trkpt lat="48.59369" lon="1.93605">
        <ele>125.2</ele>
        <time>2023-12-10T09:19:44Z</time>
      </trkpt>
      <trkpt lat="48.59365" lon="1.93603">
        <ele>125.8</ele>
        <time>2023-12-10T09:19:45Z</time>
      </trkpt>
      <trkpt lat="48.59362" lon="1.93601">
        <ele>126.2</ele>
        <time>2023-12-10T09:19:46Z</time>
      </trkpt>
      <trkpt lat="48.59358" lon="1.93599">
        <ele>126.2</ele>
        <time>2023-12-10T09:19:47Z</time>
      </trkpt>
      <trkpt lat="48.59355" lon="1.93597">
        <ele>126.2</ele>
        <time>2023-12-10T09:19:48Z</time>
      </trkpt>
      <trkpt lat="48.59352" lon="1.93595">
        <ele>126.6</ele>
        <time>2023-12-10T09:19:49Z</time>
      </trkpt>
      <trkpt lat="48.59349" lon="1.93593">
        <ele>126.8</ele>
        <time>2023-12-10T09:19:50Z</time>
      </trkpt>
      <trkpt lat="48.59346" lon="1.93591">
        <ele>126.8</ele>
        <time>2023-12-10T09:19:51Z</time>
      </trkpt>
      <trkpt lat="48.59343" lon="1.93589">
        <ele>126.8</ele>
        <time>2023-12-10T09:19:52Z</time>
      </trkpt>
      <trkpt lat="48.5934" lon="1.93586">
        <ele>127.4</ele>
        <time>2023-12-10T09:19:53Z</time>
      </trkpt>
      <trkpt lat="48.59337" lon="1.93583">
        <ele>127.4</ele>
        <time>2023-12-10T09:19:54Z</time>
      </trkpt>
      <trkpt lat="48.59334" lon="1.93581">
        <ele>127.4</ele>
        <time>2023-12-10T09:19:55Z</time>
      </trkpt>
      <trkpt lat="48.59331" lon="1.93579">
        <ele>127.4</ele>
        <time>2023-12-10T09:19:56Z</time>
      </trkpt>
      <trkpt lat="48.59328" lon="1.93576">
        <ele>127.4</ele>
        <time>2023-12-10T09:19:57Z</time>
      </trkpt>
      <trkpt lat="48.59326" lon="1.93574">
        <ele>127.4</ele>
        <time>2023-12-10T09:19:58Z</time>
      </trkpt>
      <trkpt lat="48.59323" lon="1.93572">
        <ele>127.4</ele>
        <time>2023-12-10T09:19:59Z</time>
      </trkpt>
      <trkpt lat="48.5932" lon="1.93569">
        <ele>127.4</ele>
        <time>2023-12-10T09:20:00Z</time>
      </trkpt>
      <trkpt lat="48.59318" lon="1.93566">
        <ele>127.6</ele>
        <time>2023-12-10T09:20:01Z</time>
      </trkpt>
      <trkpt lat="48.59315" lon="1.93563">
        <ele>127.8</ele>
        <time>2023-12-10T09:20:02Z</time>
      </trkpt>
      <trkpt lat="48.59311" lon="1.93561">
        <ele>127.8</ele>
        <time>2023-12-10T09:20:03Z</time>
      </trkpt>
      <trkpt lat="48.59308" lon="1.93559">
        <ele>127.8</ele>
        <time>2023-12-10T09:20:04Z</time>
      </trkpt>
      <trkpt lat="48.59305" lon="1.93557">
        <ele>128.4</ele>
        <time>2023-12-10T09:20:05Z</time>
      </trkpt>
      <trkpt lat="48.59301" lon="1.93555">
        <ele>128.8</ele>
        <time>2023-12-10T09:20:06Z</time>
      </trkpt>
      <trkpt lat="48.59297" lon="1.93554">
        <ele>128.8</ele>
        <time>2023-12-10T09:20:07Z</time>
      </trkpt>
      <trkpt lat="48.59294" lon="1.93553">
        <ele>128.8</ele>
        <time>2023-12-10T09:20:08Z</time>
      </trkpt>
      <trkpt lat="48.5929" lon="1.93552">
        <ele>129.2</ele>
        <time>2023-12-10T09:20:09Z</time>
      </trkpt>
      <trkpt lat="48.59286" lon="1.93549">
        <ele>129.2</ele>
        <time>2023-12-10T09:20:10Z</time>
      </trkpt>
      <trkpt lat="48.59283" lon="1.93547">
        <ele>129.2</ele>
        <time>2023-12-10T09:20:11Z</time>
      </trkpt>
      <trkpt lat="48.5928" lon="1.93544">
        <ele>129.2</ele>
        <time>2023-12-10T09:20:12Z</time>
      </trkpt>
      <trkpt lat="48.59277" lon="1.93542">
        <ele>129.2</ele>
        <time>2023-12-10T09:20:13Z</time>
      </trkpt>
      <trkpt lat="48.59273" lon="1.9354">
        <ele>129.2</ele>
        <time>2023-12-10T09:20:14Z</time>
      </trkpt>
      <trkpt lat="48.5927" lon="1.93537">
        <ele>129.2</ele>
        <time>2023-12-10T09:20:15Z</time>
      </trkpt>
      <trkpt lat="48.59266" lon="1.93535">
        <ele>129.2</ele>
        <time>2023-12-10T09:20:16Z</time>
      </trkpt>
      <trkpt lat="48.59262" lon="1.93533">
        <ele>129.2</ele>
        <time>2023-12-10T09:20:17Z</time>
      </trkpt>
      <trkpt lat="48.59259" lon="1.9353">
        <ele>130.6</ele>
        <time>2023-12-10T09:20:18Z</time>
      </trkpt>
      <trkpt lat="48.59256" lon="1.93527">
        <ele>130.6</ele>
        <time>2023-12-10T09:20:19Z</time>
      </trkpt>
      <trkpt lat="48.59252" lon="1.93525">
        <ele>130.6</ele>
        <time>2023-12-10T09:20:20Z</time>
      </trkpt>
      <trkpt lat="48.59248" lon="1.93522">
        <ele>130.6</ele>
        <time>2023-12-10T09:20:21Z</time>
      </trkpt>
      <trkpt lat="48.59245" lon="1.93519">
        <ele>130.2</ele>
        <time>2023-12-10T09:20:22Z</time>
      </trkpt>
      <trkpt lat="48.59242" lon="1.93517">
        <ele>130.2</ele>
        <time>2023-12-10T09:20:23Z</time>
      </trkpt>
      <trkpt lat="48.59238" lon="1.93514">
        <ele>130.2</ele>
        <time>2023-12-10T09:20:24Z</time>
      </trkpt>
      <trkpt lat="48.59235" lon="1.93512">
        <ele>130.2</ele>
        <time>2023-12-10T09:20:25Z</time>
      </trkpt>
      <trkpt lat="48.59231" lon="1.93509">
        <ele>131.2</ele>
        <time>2023-12-10T09:20:26Z</time>
      </trkpt>
      <trkpt lat="48.59228" lon="1.93507">
        <ele>131.2</ele>
        <time>2023-12-10T09:20:27Z</time>
      </trkpt>
      <trkpt lat="48.59224" lon="1.93504">
        <ele>131.2</ele>
        <time>2023-12-10T09:20:28Z</time>
      </trkpt>
      <trkpt lat="48.5922" lon="1.93503">
        <ele>131.2</ele>
        <time>2023-12-10T09:20:29Z</time>
      </trkpt>
      <trkpt lat="48.59217" lon="1.93501">
        <ele>131.8</ele>
        <time>2023-12-10T09:20:30Z</time>
      </trkpt>
      <trkpt lat="48.59213" lon="1.93499">
        <ele>131.8</ele>
        <time>2023-12-10T09:20:31Z</time>
      </trkpt>
      <trkpt lat="48.5921" lon="1.93497">
        <ele>131.8</ele>
        <time>2023-12-10T09:20:32Z</time>
      </trkpt>
      <trkpt lat="48.59207" lon="1.93496">
        <ele>131.8</ele>
        <time>2023-12-10T09:20:33Z</time>
      </trkpt>
      <trkpt lat="48.59203" lon="1.93494">
        <ele>132.4</ele>
        <time>2023-12-10T09:20:34Z</time>
      </trkpt>
      <trkpt lat="48.592" lon="1.93491">
        <ele>132.4</ele>
        <time>2023-12-10T09:20:35Z</time>
      </trkpt>
      <trkpt lat="48.59196" lon="1.93489">
        <ele>132.4</ele>
        <time>2023-12-10T09:20:36Z</time>
      </trkpt>
      <trkpt lat="48.59192" lon="1.93486">
        <ele>132.6</ele>
        <time>2023-12-10T09:20:37Z</time>
      </trkpt>
      <trkpt lat="48.59189" lon="1.93484">
        <ele>132.6</ele>
        <time>2023-12-10T09:20:38Z</time>
      </trkpt>
      <trkpt lat="48.59185" lon="1.93481">
        <ele>132.6</ele>
        <time>2023-12-10T09:20:39Z</time>
      </trkpt>
      <trkpt lat="48.59182" lon="1.93479">
        <ele>132.6</ele>
        <time>2023-12-10T09:20:40Z</time>
      </trkpt>
      <trkpt lat="48.59178" lon="1.93477">
        <ele>133.2</ele>
        <time>2023-12-10T09:20:41Z</time>
      </trkpt>
      <trkpt lat="48.59174" lon="1.93475">
        <ele>133.6</ele>
        <time>2023-12-10T09:20:42Z</time>
      </trkpt>
      <trkpt lat="48.5917" lon="1.93472">
        <ele>133.6</ele>
        <time>2023-12-10T09:20:43Z</time>
      </trkpt>
      <trkpt lat="48.59167" lon="1.9347">
        <ele>133.6</ele>
        <time>2023-12-10T09:20:44Z</time>
      </trkpt>
      <trkpt lat="48.59163" lon="1.93468">
        <ele>134</ele>
        <time>2023-12-10T09:20:45Z</time>
      </trkpt>
      <trkpt lat="48.5916" lon="1.93466">
        <ele>134</ele>
        <time>2023-12-10T09:20:46Z</time>
      </trkpt>
      <trkpt lat="48.59157" lon="1.93464">
        <ele>134</ele>
        <time>2023-12-10T09:20:47Z</time>
      </trkpt>
      <trkpt lat="48.59153" lon="1.93461">
        <ele>134</ele>
        <time>2023-12-10T09:20:48Z</time>
      </trkpt>
      <trkpt lat="48.5915" lon="1.93459">
        <ele>134.8</ele>
        <time>2023-12-10T09:20:49Z</time>
      </trkpt>
      <trkpt lat="48.59147" lon="1.93456">
        <ele>135</ele>
        <time>2023-12-10T09:20:50Z</time>
      </trkpt>
      <trkpt lat="48.59143" lon="1.93454">
        <ele>135</ele>
        <time>2023-12-10T09:20:51Z</time>
      </trkpt>
      <trkpt lat="48.59141" lon="1.93452">
        <ele>135</ele>
        <time>2023-12-10T09:20:52Z</time>
      </trkpt>
      <trkpt lat="48.59137" lon="1.93449">
        <ele>135</ele>
        <time>2023-12-10T09:20:53Z</time>
      </trkpt>
      <trkpt lat="48.59134" lon="1.93447">
        <ele>135.4</ele>
        <time>2023-12-10T09:20:54Z</time>
      </trkpt>
      <trkpt lat="48.59131" lon="1.93445">
        <ele>135.4</ele>
        <time>2023-12-10T09:20:55Z</time>
      </trkpt>
      <trkpt lat="48.59128" lon="1.93442">
        <ele>135.4</ele>
        <time>2023-12-10T09:20:56Z</time>
      </trkpt>
      <trkpt lat="48.59125" lon="1.9344">
        <ele>136</ele>
        <time>2023-12-10T09:20:57Z</time>
      </trkpt>
      <trkpt lat="48.59122" lon="1.93437">
        <ele>136.2</ele>
        <time>2023-12-10T09:20:58Z</time>
      </trkpt>
      <trkpt lat="48.59119" lon="1.93435">
        <ele>136.2</ele>
        <time>2023-12-10T09:20:59Z</time>
      </trkpt>
      <trkpt lat="48.59116" lon="1.93433">
        <ele>136.2</ele>
        <time>2023-12-10T09:21:00Z</time>
      </trkpt>
      <trkpt lat="48.59113" lon="1.93431">
        <ele>136.2</ele>
        <time>2023-12-10T09:21:01Z</time>
      </trkpt>
      <trkpt lat="48.5911" lon="1.93428">
        <ele>136.4</ele>
        <time>2023-12-10T09:21:02Z</time>
      </trkpt>
      <trkpt lat="48.59107" lon="1.93426">
        <ele>136.4</ele>
        <time>2023-12-10T09:21:03Z</time>
      </trkpt>
      <trkpt lat="48.59103" lon="1.93424">
        <ele>136.4</ele>
        <time>2023-12-10T09:21:04Z</time>
      </trkpt>
      <trkpt lat="48.591" lon="1.93421">
        <ele>137.2</ele>
        <time>2023-12-10T09:21:05Z</time>
      </trkpt>
      <trkpt lat="48.59097" lon="1.93419">
        <ele>137.2</ele>
        <time>2023-12-10T09:21:06Z</time>
      </trkpt>
      <trkpt lat="48.59094" lon="1.93417">
        <ele>137.2</ele>
        <time>2023-12-10T09:21:07Z</time>
      </trkpt>
      <trkpt lat="48.59092" lon="1.93414">
        <ele>137.2</ele>
        <time>2023-12-10T09:21:08Z</time>
      </trkpt>
      <trkpt lat="48.59089" lon="1.93413">
        <ele>138</ele>
        <time>2023-12-10T09:21:09Z</time>
      </trkpt>
      <trkpt lat="48.59086" lon="1.93411">
        <ele>138.6</ele>
        <time>2023-12-10T09:21:10Z</time>
      </trkpt>
      <trkpt lat="48.59084" lon="1.93409">
        <ele>138.6</ele>
        <time>2023-12-10T09:21:11Z</time>
      </trkpt>
      <trkpt lat="48.5908" lon="1.93406">
        <ele>138.6</ele>
        <time>2023-12-10T09:21:12Z</time>
      </trkpt>
      <trkpt lat="48.59077" lon="1.93403">
        <ele>139</ele>
        <time>2023-12-10T09:21:13Z</time>
      </trkpt>
      <trkpt lat="48.59074" lon="1.93401">
        <ele>138.6</ele>
        <time>2023-12-10T09:21:14Z</time>
      </trkpt>
      <trkpt lat="48.59071" lon="1.93398">
        <ele>138.6</ele>
        <time>2023-12-10T09:21:15Z</time>
      </trkpt>
      <trkpt lat="48.59067" lon="1.93396">
        <ele>138.6</ele>
        <time>2023-12-10T09:21:16Z</time>
      </trkpt>
      <trkpt lat="48.59063" lon="1.93393">
        <ele>139.2</ele>
        <time>2023-12-10T09:21:17Z</time>
      </trkpt>
      <trkpt lat="48.59061" lon="1.93391">
        <ele>139.6</ele>
        <time>2023-12-10T09:21:18Z</time>
      </trkpt>
      <trkpt lat="48.59057" lon="1.93389">
        <ele>139.6</ele>
        <time>2023-12-10T09:21:19Z</time>
      </trkpt>
      <trkpt lat="48.59054" lon="1.93387">
        <ele>139.6</ele>
        <time>2023-12-10T09:21:20Z</time>
      </trkpt>
      <trkpt lat="48.5905" lon="1.93385">
        <ele>139.4</ele>
        <time>2023-12-10T09:21:21Z</time>
      </trkpt>
      <trkpt lat="48.59047" lon="1.93382">
        <ele>139.6</ele>
        <time>2023-12-10T09:21:22Z</time>
      </trkpt>
      <trkpt lat="48.59044" lon="1.93379">
        <ele>139.6</ele>
        <time>2023-12-10T09:21:23Z</time>
      </trkpt>
      <trkpt lat="48.59041" lon="1.93377">
        <ele>139.6</ele>
        <time>2023-12-10T09:21:24Z</time>
      </trkpt>
      <trkpt lat="48.59038" lon="1.93376">
        <ele>140.4</ele>
        <time>2023-12-10T09:21:25Z</time>
      </trkpt>
      <trkpt lat="48.59035" lon="1.93374">
        <ele>140.6</ele>
        <time>2023-12-10T09:21:26Z</time>
      </trkpt>
      <trkpt lat="48.59031" lon="1.93372">
        <ele>140.6</ele>
        <time>2023-12-10T09:21:27Z</time>
      </trkpt>
      <trkpt lat="48.59028" lon="1.9337">
        <ele>140.6</ele>
        <time>2023-12-10T09:21:28Z</time>
      </trkpt>
      <trkpt lat="48.59025" lon="1.93368">
        <ele>140.8</ele>
        <time>2023-12-10T09:21:29Z</time>
      </trkpt>
      <trkpt lat="48.59021" lon="1.93366">
        <ele>141.2</ele>
        <time>2023-12-10T09:21:30Z</time>
      </trkpt>
      <trkpt lat="48.59018" lon="1.93363">
        <ele>141.2</ele>
        <time>2023-12-10T09:21:31Z</time>
      </trkpt>
      <trkpt lat="48.59015" lon="1.93361">
        <ele>141.2</ele>
        <time>2023-12-10T09:21:32Z</time>
      </trkpt>
      <trkpt lat="48.59012" lon="1.93359">
        <ele>141.6</ele>
        <time>2023-12-10T09:21:33Z</time>
      </trkpt>
      <trkpt lat="48.59008" lon="1.93357">
        <ele>141.6</ele>
        <time>2023-12-10T09:21:34Z</time>
      </trkpt>
      <trkpt lat="48.59005" lon="1.93355">
        <ele>141.6</ele>
        <time>2023-12-10T09:21:35Z</time>
      </trkpt>
      <trkpt lat="48.59002" lon="1.93353">
        <ele>141.6</ele>
        <time>2023-12-10T09:21:36Z</time>
      </trkpt>
      <trkpt lat="48.58999" lon="1.93351">
        <ele>142</ele>
        <time>2023-12-10T09:21:37Z</time>
      </trkpt>
      <trkpt lat="48.58996" lon="1.93348">
        <ele>142.6</ele>
        <time>2023-12-10T09:21:38Z</time>
      </trkpt>
      <trkpt lat="48.58993" lon="1.93346">
        <ele>142.6</ele>
        <time>2023-12-10T09:21:39Z</time>
      </trkpt>
      <trkpt lat="48.5899" lon="1.93344">
        <ele>142.6</ele>
        <time>2023-12-10T09:21:40Z</time>
      </trkpt>
      <trkpt lat="48.58986" lon="1.93341">
        <ele>142.6</ele>
        <time>2023-12-10T09:21:41Z</time>
      </trkpt>
      <trkpt lat="48.58983" lon="1.93339">
        <ele>142.8</ele>
        <time>2023-12-10T09:21:42Z</time>
      </trkpt>
      <trkpt lat="48.58979" lon="1.93337">
        <ele>142.8</ele>
        <time>2023-12-10T09:21:43Z</time>
      </trkpt>
      <trkpt lat="48.58976" lon="1.93335">
        <ele>142.8</ele>
        <time>2023-12-10T09:21:44Z</time>
      </trkpt>
      <trkpt lat="48.58973" lon="1.93332">
        <ele>143.2</ele>
        <time>2023-12-10T09:21:45Z</time>
      </trkpt>
      <trkpt lat="48.58971" lon="1.93328">
        <ele>143.4</ele>
        <time>2023-12-10T09:21:46Z</time>
      </trkpt>
      <trkpt lat="48.5897" lon="1.93323">
        <ele>143.4</ele>
        <time>2023-12-10T09:21:47Z</time>
      </trkpt>
      <trkpt lat="48.58971" lon="1.93319">
        <ele>143.4</ele>
        <time>2023-12-10T09:21:48Z</time>
      </trkpt>
      <trkpt lat="48.58973" lon="1.93316">
        <ele>144.2</ele>
        <time>2023-12-10T09:21:49Z</time>
      </trkpt>
      <trkpt lat="48.58976" lon="1.93313">
        <ele>144</ele>
        <time>2023-12-10T09:21:50Z</time>
      </trkpt>
      <trkpt lat="48.58979" lon="1.93311">
        <ele>144</ele>
        <time>2023-12-10T09:21:51Z</time>
      </trkpt>
      <trkpt lat="48.58983" lon="1.93308">
        <ele>144</ele>
        <time>2023-12-10T09:21:52Z</time>
      </trkpt>
      <trkpt lat="48.58987" lon="1.93306">
        <ele>143.2</ele>
        <time>2023-12-10T09:21:53Z</time>
      </trkpt>
      <trkpt lat="48.5899" lon="1.93303">
        <ele>142.6</ele>
        <time>2023-12-10T09:21:54Z</time>
      </trkpt>
      <trkpt lat="48.58994" lon="1.93301">
        <ele>142.6</ele>
        <time>2023-12-10T09:21:55Z</time>
      </trkpt>
      <trkpt lat="48.58998" lon="1.93298">
        <ele>142.6</ele>
        <time>2023-12-10T09:21:56Z</time>
      </trkpt>
      <trkpt lat="48.59002" lon="1.93295">
        <ele>142</ele>
        <time>2023-12-10T09:21:57Z</time>
      </trkpt>
      <trkpt lat="48.59006" lon="1.93293">
        <ele>141.6</ele>
        <time>2023-12-10T09:21:58Z</time>
      </trkpt>
      <trkpt lat="48.59011" lon="1.9329">
        <ele>141.6</ele>
        <time>2023-12-10T09:21:59Z</time>
      </trkpt>
      <trkpt lat="48.59015" lon="1.93287">
        <ele>141.6</ele>
        <time>2023-12-10T09:22:00Z</time>
      </trkpt>
      <trkpt lat="48.5902" lon="1.93283">
        <ele>141.6</ele>
        <time>2023-12-10T09:22:01Z</time>
      </trkpt>
      <trkpt lat="48.59024" lon="1.9328">
        <ele>141.2</ele>
        <time>2023-12-10T09:22:02Z</time>
      </trkpt>
      <trkpt lat="48.5903" lon="1.93275">
        <ele>141.2</ele>
        <time>2023-12-10T09:22:03Z</time>
      </trkpt>
      <trkpt lat="48.59036" lon="1.9327">
        <ele>141.2</ele>
        <time>2023-12-10T09:22:04Z</time>
      </trkpt>
      <trkpt lat="48.59041" lon="1.93266">
        <ele>141.2</ele>
        <time>2023-12-10T09:22:05Z</time>
      </trkpt>
      <trkpt lat="48.59047" lon="1.93261">
        <ele>140.6</ele>
        <time>2023-12-10T09:22:06Z</time>
      </trkpt>
      <trkpt lat="48.59053" lon="1.93256">
        <ele>140.6</ele>
        <time>2023-12-10T09:22:07Z</time>
      </trkpt>
      <trkpt lat="48.59059" lon="1.9325">
        <ele>140.6</ele>
        <time>2023-12-10T09:22:08Z</time>
      </trkpt>
      <trkpt lat="48.59065" lon="1.93245">
        <ele>139.6</ele>
        <time>2023-12-10T09:22:09Z</time>
      </trkpt>
      <trkpt lat="48.59071" lon="1.9324">
        <ele>139.4</ele>
        <time>2023-12-10T09:22:10Z</time>
      </trkpt>
      <trkpt lat="48.59078" lon="1.93235">
        <ele>139.4</ele>
        <time>2023-12-10T09:22:11Z</time>
      </trkpt>
      <trkpt lat="48.59084" lon="1.9323">
        <ele>139.4</ele>
        <time>2023-12-10T09:22:12Z</time>
      </trkpt>
      <trkpt lat="48.59091" lon="1.93225">
        <ele>138.4</ele>
        <time>2023-12-10T09:22:13Z</time>
      </trkpt>
      <trkpt lat="48.59098" lon="1.9322">
        <ele>138</ele>
        <time>2023-12-10T09:22:14Z</time>
      </trkpt>
      <trkpt lat="48.59106" lon="1.93214">
        <ele>138</ele>
        <time>2023-12-10T09:22:15Z</time>
      </trkpt>
      <trkpt lat="48.59113" lon="1.93209">
        <ele>138</ele>
        <time>2023-12-10T09:22:16Z</time>
      </trkpt>
      <trkpt lat="48.59121" lon="1.93204">
        <ele>137</ele>
        <time>2023-12-10T09:22:17Z</time>
      </trkpt>
      <trkpt lat="48.59128" lon="1.93199">
        <ele>136.6</ele>
        <time>2023-12-10T09:22:18Z</time>
      </trkpt>
      <trkpt lat="48.59136" lon="1.93194">
        <ele>136.6</ele>
        <time>2023-12-10T09:22:19Z</time>
      </trkpt>
      <trkpt lat="48.59143" lon="1.93188">
        <ele>136.6</ele>
        <time>2023-12-10T09:22:20Z</time>
      </trkpt>
      <trkpt lat="48.59152" lon="1.93183">
        <ele>136.4</ele>
        <time>2023-12-10T09:22:21Z</time>
      </trkpt>
      <trkpt lat="48.5916" lon="1.93179">
        <ele>134.8</ele>
        <time>2023-12-10T09:22:22Z</time>
      </trkpt>
      <trkpt lat="48.59168" lon="1.93173">
        <ele>134.8</ele>
        <time>2023-12-10T09:22:23Z</time>
      </trkpt>
      <trkpt lat="48.59176" lon="1.93168">
        <ele>134.8</ele>
        <time>2023-12-10T09:22:24Z</time>
      </trkpt>
      <trkpt lat="48.59185" lon="1.93162">
        <ele>133.8</ele>
        <time>2023-12-10T09:22:25Z</time>
      </trkpt>
      <trkpt lat="48.59193" lon="1.93157">
        <ele>134</ele>
        <time>2023-12-10T09:22:26Z</time>
      </trkpt>
      <trkpt lat="48.59201" lon="1.93151">
        <ele>134</ele>
        <time>2023-12-10T09:22:27Z</time>
      </trkpt>
      <trkpt lat="48.5921" lon="1.93146">
        <ele>134</ele>
        <time>2023-12-10T09:22:28Z</time>
      </trkpt>
      <trkpt lat="48.59218" lon="1.9314">
        <ele>133.4</ele>
        <time>2023-12-10T09:22:29Z</time>
      </trkpt>
      <trkpt lat="48.59227" lon="1.93134">
        <ele>133.6</ele>
        <time>2023-12-10T09:22:30Z</time>
      </trkpt>
      <trkpt lat="48.59235" lon="1.93128">
        <ele>133.6</ele>
        <time>2023-12-10T09:22:31Z</time>
      </trkpt>
      <trkpt lat="48.59244" lon="1.93122">
        <ele>133.6</ele>
        <time>2023-12-10T09:22:32Z</time>
      </trkpt>
      <trkpt lat="48.59253" lon="1.93116">
        <ele>132.6</ele>
        <time>2023-12-10T09:22:33Z</time>
      </trkpt>
      <trkpt lat="48.59262" lon="1.9311">
        <ele>130.8</ele>
        <time>2023-12-10T09:22:34Z</time>
      </trkpt>
      <trkpt lat="48.59271" lon="1.93104">
        <ele>130.8</ele>
        <time>2023-12-10T09:22:35Z</time>
      </trkpt>
      <trkpt lat="48.59281" lon="1.93098">
        <ele>130.8</ele>
        <time>2023-12-10T09:22:36Z</time>
      </trkpt>
      <trkpt lat="48.5929" lon="1.93093">
        <ele>129.8</ele>
        <time>2023-12-10T09:22:37Z</time>
      </trkpt>
      <trkpt lat="48.59299" lon="1.93087">
        <ele>128.2</ele>
        <time>2023-12-10T09:22:38Z</time>
      </trkpt>
      <trkpt lat="48.59309" lon="1.93081">
        <ele>128.2</ele>
        <time>2023-12-10T09:22:39Z</time>
      </trkpt>
      <trkpt lat="48.59319" lon="1.93075">
        <ele>128.2</ele>
        <time>2023-12-10T09:22:40Z</time>
      </trkpt>
      <trkpt lat="48.59329" lon="1.93069">
        <ele>127.2</ele>
        <time>2023-12-10T09:22:41Z</time>
      </trkpt>
      <trkpt lat="48.59339" lon="1.93063">
        <ele>125.8</ele>
        <time>2023-12-10T09:22:42Z</time>
      </trkpt>
      <trkpt lat="48.59348" lon="1.93057">
        <ele>125.8</ele>
        <time>2023-12-10T09:22:43Z</time>
      </trkpt>
      <trkpt lat="48.59358" lon="1.9305">
        <ele>125.8</ele>
        <time>2023-12-10T09:22:44Z</time>
      </trkpt>
      <trkpt lat="48.59367" lon="1.93046">
        <ele>126.6</ele>
        <time>2023-12-10T09:22:45Z</time>
      </trkpt>
      <trkpt lat="48.59376" lon="1.93041">
        <ele>126.4</ele>
        <time>2023-12-10T09:22:46Z</time>
      </trkpt>
      <trkpt lat="48.59385" lon="1.93036">
        <ele>126.4</ele>
        <time>2023-12-10T09:22:47Z</time>
      </trkpt>
      <trkpt lat="48.59394" lon="1.9303">
        <ele>126.4</ele>
        <time>2023-12-10T09:22:48Z</time>
      </trkpt>
      <trkpt lat="48.59402" lon="1.93025">
        <ele>126.4</ele>
        <time>2023-12-10T09:22:49Z</time>
      </trkpt>
      <trkpt lat="48.5941" lon="1.9302">
        <ele>127</ele>
        <time>2023-12-10T09:22:50Z</time>
      </trkpt>
      <trkpt lat="48.59418" lon="1.93016">
        <ele>127</ele>
        <time>2023-12-10T09:22:51Z</time>
      </trkpt>
      <trkpt lat="48.59427" lon="1.93012">
        <ele>127</ele>
        <time>2023-12-10T09:22:52Z</time>
      </trkpt>
      <trkpt lat="48.59435" lon="1.93008">
        <ele>127</ele>
        <time>2023-12-10T09:22:53Z</time>
      </trkpt>
      <trkpt lat="48.59443" lon="1.93004">
        <ele>126.8</ele>
        <time>2023-12-10T09:22:54Z</time>
      </trkpt>
      <trkpt lat="48.59451" lon="1.92998">
        <ele>126.8</ele>
        <time>2023-12-10T09:22:55Z</time>
      </trkpt>
      <trkpt lat="48.59459" lon="1.92994">
        <ele>126.8</ele>
        <time>2023-12-10T09:22:56Z</time>
      </trkpt>
      <trkpt lat="48.59467" lon="1.9299">
        <ele>125.8</ele>
        <time>2023-12-10T09:22:57Z</time>
      </trkpt>
      <trkpt lat="48.59476" lon="1.92985">
        <ele>125.2</ele>
        <time>2023-12-10T09:22:58Z</time>
      </trkpt>
      <trkpt lat="48.59485" lon="1.9298">
        <ele>125.2</ele>
        <time>2023-12-10T09:22:59Z</time>
      </trkpt>
      <trkpt lat="48.59493" lon="1.92975">
        <ele>125.2</ele>
        <time>2023-12-10T09:23:00Z</time>
      </trkpt>
      <trkpt lat="48.59501" lon="1.92969">
        <ele>124.2</ele>
        <time>2023-12-10T09:23:01Z</time>
      </trkpt>
      <trkpt lat="48.59509" lon="1.92965">
        <ele>123.8</ele>
        <time>2023-12-10T09:23:02Z</time>
      </trkpt>
      <trkpt lat="48.59517" lon="1.92959">
        <ele>123.8</ele>
        <time>2023-12-10T09:23:03Z</time>
      </trkpt>
      <trkpt lat="48.59525" lon="1.92954">
        <ele>123.8</ele>
        <time>2023-12-10T09:23:04Z</time>
      </trkpt>
      <trkpt lat="48.59533" lon="1.92948">
        <ele>124.4</ele>
        <time>2023-12-10T09:23:05Z</time>
      </trkpt>
      <trkpt lat="48.5954" lon="1.92941">
        <ele>124.6</ele>
        <time>2023-12-10T09:23:06Z</time>
      </trkpt>
      <trkpt lat="48.59548" lon="1.92935">
        <ele>124.6</ele>
        <time>2023-12-10T09:23:07Z</time>
      </trkpt>
      <trkpt lat="48.59555" lon="1.92929">
        <ele>124.6</ele>
        <time>2023-12-10T09:23:08Z</time>
      </trkpt>
      <trkpt lat="48.59562" lon="1.92925">
        <ele>125.6</ele>
        <time>2023-12-10T09:23:09Z</time>
      </trkpt>
      <trkpt lat="48.59568" lon="1.9292">
        <ele>126</ele>
        <time>2023-12-10T09:23:10Z</time>
      </trkpt>
      <trkpt lat="48.59574" lon="1.92915">
        <ele>126</ele>
        <time>2023-12-10T09:23:11Z</time>
      </trkpt>
      <trkpt lat="48.59579" lon="1.92909">
        <ele>126</ele>
        <time>2023-12-10T09:23:12Z</time>
      </trkpt>
      <trkpt lat="48.59585" lon="1.92903">
        <ele>127</ele>
        <time>2023-12-10T09:23:13Z</time>
      </trkpt>
      <trkpt lat="48.5959" lon="1.92898">
        <ele>128</ele>
        <time>2023-12-10T09:23:14Z</time>
      </trkpt>
      <trkpt lat="48.59595" lon="1.92894">
        <ele>128</ele>
        <time>2023-12-10T09:23:15Z</time>
      </trkpt>
      <trkpt lat="48.59601" lon="1.92888">
        <ele>128</ele>
        <time>2023-12-10T09:23:16Z</time>
      </trkpt>
      <trkpt lat="48.59607" lon="1.92881">
        <ele>128</ele>
        <time>2023-12-10T09:23:17Z</time>
      </trkpt>
      <trkpt lat="48.59612" lon="1.92876">
        <ele>129.4</ele>
        <time>2023-12-10T09:23:18Z</time>
      </trkpt>
      <trkpt lat="48.59618" lon="1.92871">
        <ele>129.4</ele>
        <time>2023-12-10T09:23:19Z</time>
      </trkpt>
      <trkpt lat="48.59624" lon="1.92866">
        <ele>129.4</ele>
        <time>2023-12-10T09:23:20Z</time>
      </trkpt>
      <trkpt lat="48.5963" lon="1.92861">
        <ele>128.6</ele>
        <time>2023-12-10T09:23:21Z</time>
      </trkpt>
      <trkpt lat="48.59637" lon="1.92857">
        <ele>127.8</ele>
        <time>2023-12-10T09:23:22Z</time>
      </trkpt>
      <trkpt lat="48.59644" lon="1.92852">
        <ele>127.8</ele>
        <time>2023-12-10T09:23:23Z</time>
      </trkpt>
      <trkpt lat="48.59651" lon="1.92847">
        <ele>127.8</ele>
        <time>2023-12-10T09:23:24Z</time>
      </trkpt>
      <trkpt lat="48.59658" lon="1.92844">
        <ele>127.8</ele>
        <time>2023-12-10T09:23:25Z</time>
      </trkpt>
      <trkpt lat="48.59666" lon="1.9284">
        <ele>125.6</ele>
        <time>2023-12-10T09:23:26Z</time>
      </trkpt>
      <trkpt lat="48.59674" lon="1.92836">
        <ele>125.6</ele>
        <time>2023-12-10T09:23:27Z</time>
      </trkpt>
      <trkpt lat="48.59681" lon="1.92832">
        <ele>125.6</ele>
        <time>2023-12-10T09:23:28Z</time>
      </trkpt>
      <trkpt lat="48.59689" lon="1.92828">
        <ele>124.6</ele>
        <time>2023-12-10T09:23:29Z</time>
      </trkpt>
      <trkpt lat="48.59698" lon="1.92825">
        <ele>124</ele>
        <time>2023-12-10T09:23:30Z</time>
      </trkpt>
      <trkpt lat="48.59706" lon="1.92821">
        <ele>124</ele>
        <time>2023-12-10T09:23:31Z</time>
      </trkpt>
      <trkpt lat="48.59714" lon="1.92816">
        <ele>124</ele>
        <time>2023-12-10T09:23:32Z</time>
      </trkpt>
      <trkpt lat="48.59723" lon="1.92813">
        <ele>123</ele>
        <time>2023-12-10T09:23:33Z</time>
      </trkpt>
      <trkpt lat="48.59732" lon="1.92809">
        <ele>122.2</ele>
        <time>2023-12-10T09:23:34Z</time>
      </trkpt>
      <trkpt lat="48.59741" lon="1.92804">
        <ele>122.2</ele>
        <time>2023-12-10T09:23:35Z</time>
      </trkpt>
      <trkpt lat="48.5975" lon="1.928">
        <ele>122.2</ele>
        <time>2023-12-10T09:23:36Z</time>
      </trkpt>
      <trkpt lat="48.59759" lon="1.92796">
        <ele>122.2</ele>
        <time>2023-12-10T09:23:37Z</time>
      </trkpt>
      <trkpt lat="48.59767" lon="1.92791">
        <ele>121.6</ele>
        <time>2023-12-10T09:23:38Z</time>
      </trkpt>
      <trkpt lat="48.59777" lon="1.92787">
        <ele>121.6</ele>
        <time>2023-12-10T09:23:39Z</time>
      </trkpt>
      <trkpt lat="48.59786" lon="1.92783">
        <ele>121.6</ele>
        <time>2023-12-10T09:23:40Z</time>
      </trkpt>
      <trkpt lat="48.59795" lon="1.92778">
        <ele>120.6</ele>
        <time>2023-12-10T09:23:41Z</time>
      </trkpt>
      <trkpt lat="48.59805" lon="1.92774">
        <ele>118.8</ele>
        <time>2023-12-10T09:23:42Z</time>
      </trkpt>
      <trkpt lat="48.59814" lon="1.9277">
        <ele>118.8</ele>
        <time>2023-12-10T09:23:43Z</time>
      </trkpt>
      <trkpt lat="48.59823" lon="1.92765">
        <ele>118.8</ele>
        <time>2023-12-10T09:23:44Z</time>
      </trkpt>
      <trkpt lat="48.59833" lon="1.9276">
        <ele>117.8</ele>
        <time>2023-12-10T09:23:45Z</time>
      </trkpt>
      <trkpt lat="48.59842" lon="1.92756">
        <ele>117.2</ele>
        <time>2023-12-10T09:23:46Z</time>
      </trkpt>
      <trkpt lat="48.59851" lon="1.92752">
        <ele>117.2</ele>
        <time>2023-12-10T09:23:47Z</time>
      </trkpt>
      <trkpt lat="48.59861" lon="1.92748">
        <ele>117.2</ele>
        <time>2023-12-10T09:23:48Z</time>
      </trkpt>
      <trkpt lat="48.59871" lon="1.92743">
        <ele>117.2</ele>
        <time>2023-12-10T09:23:49Z</time>
      </trkpt>
      <trkpt lat="48.5988" lon="1.92739">
        <ele>117.4</ele>
        <time>2023-12-10T09:23:50Z</time>
      </trkpt>
      <trkpt lat="48.59889" lon="1.92735">
        <ele>117.4</ele>
        <time>2023-12-10T09:23:51Z</time>
      </trkpt>
      <trkpt lat="48.59898" lon="1.92731">
        <ele>117.4</ele>
        <time>2023-12-10T09:23:52Z</time>
      </trkpt>
      <trkpt lat="48.59907" lon="1.92727">
        <ele>117.4</ele>
        <time>2023-12-10T09:23:53Z</time>
      </trkpt>
      <trkpt lat="48.59916" lon="1.92723">
        <ele>117.2</ele>
        <time>2023-12-10T09:23:54Z</time>
      </trkpt>
      <trkpt lat="48.59924" lon="1.92721">
        <ele>117.2</ele>
        <time>2023-12-10T09:23:55Z</time>
      </trkpt>
      <trkpt lat="48.59932" lon="1.92718">
        <ele>117.2</ele>
        <time>2023-12-10T09:23:56Z</time>
      </trkpt>
      <trkpt lat="48.59941" lon="1.92715">
        <ele>117</ele>
        <time>2023-12-10T09:23:57Z</time>
      </trkpt>
      <trkpt lat="48.59949" lon="1.92712">
        <ele>117.8</ele>
        <time>2023-12-10T09:23:58Z</time>
      </trkpt>
      <trkpt lat="48.59957" lon="1.9271">
        <ele>117.8</ele>
        <time>2023-12-10T09:23:59Z</time>
      </trkpt>
      <trkpt lat="48.59966" lon="1.92707">
        <ele>117.8</ele>
        <time>2023-12-10T09:24:00Z</time>
      </trkpt>
      <trkpt lat="48.59974" lon="1.92705">
        <ele>116.8</ele>
        <time>2023-12-10T09:24:01Z</time>
      </trkpt>
      <trkpt lat="48.59983" lon="1.92702">
        <ele>116</ele>
        <time>2023-12-10T09:24:02Z</time>
      </trkpt>
      <trkpt lat="48.59991" lon="1.927">
        <ele>116</ele>
        <time>2023-12-10T09:24:03Z</time>
      </trkpt>
      <trkpt lat="48.59999" lon="1.92698">
        <ele>116</ele>
        <time>2023-12-10T09:24:04Z</time>
      </trkpt>
      <trkpt lat="48.60007" lon="1.92695">
        <ele>115.2</ele>
        <time>2023-12-10T09:24:05Z</time>
      </trkpt>
      <trkpt lat="48.60015" lon="1.92693">
        <ele>116.2</ele>
        <time>2023-12-10T09:24:06Z</time>
      </trkpt>
      <trkpt lat="48.60023" lon="1.9269">
        <ele>116.2</ele>
        <time>2023-12-10T09:24:07Z</time>
      </trkpt>
      <trkpt lat="48.60031" lon="1.92688">
        <ele>116.2</ele>
        <time>2023-12-10T09:24:08Z</time>
      </trkpt>
      <trkpt lat="48.60038" lon="1.92686">
        <ele>116.2</ele>
        <time>2023-12-10T09:24:09Z</time>
      </trkpt>
      <trkpt lat="48.60046" lon="1.92684">
        <ele>116.6</ele>
        <time>2023-12-10T09:24:10Z</time>
      </trkpt>
      <trkpt lat="48.60054" lon="1.92682">
        <ele>116.6</ele>
        <time>2023-12-10T09:24:11Z</time>
      </trkpt>
      <trkpt lat="48.60061" lon="1.9268">
        <ele>116.6</ele>
        <time>2023-12-10T09:24:12Z</time>
      </trkpt>
      <trkpt lat="48.60068" lon="1.92677">
        <ele>116.6</ele>
        <time>2023-12-10T09:24:13Z</time>
      </trkpt>
      <trkpt lat="48.60075" lon="1.92675">
        <ele>117</ele>
        <time>2023-12-10T09:24:14Z</time>
      </trkpt>
      <trkpt lat="48.60082" lon="1.92673">
        <ele>117</ele>
        <time>2023-12-10T09:24:15Z</time>
      </trkpt>
      <trkpt lat="48.60088" lon="1.92672">
        <ele>117</ele>
        <time>2023-12-10T09:24:16Z</time>
      </trkpt>
      <trkpt lat="48.60094" lon="1.9267">
        <ele>117.6</ele>
        <time>2023-12-10T09:24:17Z</time>
      </trkpt>
      <trkpt lat="48.601" lon="1.92667">
        <ele>117.6</ele>
        <time>2023-12-10T09:24:18Z</time>
      </trkpt>
      <trkpt lat="48.60106" lon="1.92665">
        <ele>117.6</ele>
        <time>2023-12-10T09:24:19Z</time>
      </trkpt>
      <trkpt lat="48.60112" lon="1.92662">
        <ele>117.6</ele>
        <time>2023-12-10T09:24:20Z</time>
      </trkpt>
      <trkpt lat="48.60119" lon="1.92659">
        <ele>117.8</ele>
        <time>2023-12-10T09:24:21Z</time>
      </trkpt>
      <trkpt lat="48.60126" lon="1.92656">
        <ele>118</ele>
        <time>2023-12-10T09:24:22Z</time>
      </trkpt>
      <trkpt lat="48.60131" lon="1.92653">
        <ele>118</ele>
        <time>2023-12-10T09:24:23Z</time>
      </trkpt>
      <trkpt lat="48.60135" lon="1.92651">
        <ele>118</ele>
        <time>2023-12-10T09:24:24Z</time>
      </trkpt>
      <trkpt lat="48.60141" lon="1.92647">
        <ele>117.8</ele>
        <time>2023-12-10T09:24:25Z</time>
      </trkpt>
      <trkpt lat="48.60146" lon="1.92644">
        <ele>117.8</ele>
        <time>2023-12-10T09:24:26Z</time>
      </trkpt>
      <trkpt lat="48.60152" lon="1.9264">
        <ele>117.8</ele>
        <time>2023-12-10T09:24:27Z</time>
      </trkpt>
      <trkpt lat="48.60158" lon="1.92636">
        <ele>117.8</ele>
        <time>2023-12-10T09:24:28Z</time>
      </trkpt>
      <trkpt lat="48.60164" lon="1.92631">
        <ele>118.6</ele>
        <time>2023-12-10T09:24:29Z</time>
      </trkpt>
      <trkpt lat="48.6017" lon="1.92628">
        <ele>118.8</ele>
        <time>2023-12-10T09:24:30Z</time>
      </trkpt>
      <trkpt lat="48.60176" lon="1.92623">
        <ele>118.8</ele>
        <time>2023-12-10T09:24:31Z</time>
      </trkpt>
      <trkpt lat="48.60183" lon="1.92618">
        <ele>118.8</ele>
        <time>2023-12-10T09:24:32Z</time>
      </trkpt>
      <trkpt lat="48.6019" lon="1.92613">
        <ele>118</ele>
        <time>2023-12-10T09:24:33Z</time>
      </trkpt>
      <trkpt lat="48.60196" lon="1.92608">
        <ele>117.8</ele>
        <time>2023-12-10T09:24:34Z</time>
      </trkpt>
      <trkpt lat="48.60203" lon="1.92603">
        <ele>117.8</ele>
        <time>2023-12-10T09:24:35Z</time>
      </trkpt>
      <trkpt lat="48.6021" lon="1.92598">
        <ele>117.8</ele>
        <time>2023-12-10T09:24:36Z</time>
      </trkpt>
      <trkpt lat="48.60217" lon="1.92592">
        <ele>118</ele>
        <time>2023-12-10T09:24:37Z</time>
      </trkpt>
      <trkpt lat="48.60223" lon="1.92586">
        <ele>117.8</ele>
        <time>2023-12-10T09:24:38Z</time>
      </trkpt>
      <trkpt lat="48.6023" lon="1.9258">
        <ele>117.8</ele>
        <time>2023-12-10T09:24:39Z</time>
      </trkpt>
      <trkpt lat="48.60237" lon="1.92574">
        <ele>117.8</ele>
        <time>2023-12-10T09:24:40Z</time>
      </trkpt>
      <trkpt lat="48.60244" lon="1.92569">
        <ele>117.4</ele>
        <time>2023-12-10T09:24:41Z</time>
      </trkpt>
      <trkpt lat="48.6025" lon="1.92564">
        <ele>117.6</ele>
        <time>2023-12-10T09:24:42Z</time>
      </trkpt>
      <trkpt lat="48.60257" lon="1.92559">
        <ele>117.6</ele>
        <time>2023-12-10T09:24:43Z</time>
      </trkpt>
      <trkpt lat="48.60264" lon="1.92554">
        <ele>117.6</ele>
        <time>2023-12-10T09:24:44Z</time>
      </trkpt>
      <trkpt lat="48.60271" lon="1.9255">
        <ele>117.6</ele>
        <time>2023-12-10T09:24:45Z</time>
      </trkpt>
      <trkpt lat="48.60278" lon="1.92545">
        <ele>117.6</ele>
        <time>2023-12-10T09:24:46Z</time>
      </trkpt>
      <trkpt lat="48.60285" lon="1.92541">
        <ele>117.6</ele>
        <time>2023-12-10T09:24:47Z</time>
      </trkpt>
      <trkpt lat="48.60291" lon="1.92537">
        <ele>117.6</ele>
        <time>2023-12-10T09:24:48Z</time>
      </trkpt>
      <trkpt lat="48.60298" lon="1.92533">
        <ele>117.4</ele>
        <time>2023-12-10T09:24:49Z</time>
      </trkpt>
      <trkpt lat="48.60305" lon="1.92529">
        <ele>117.2</ele>
        <time>2023-12-10T09:24:50Z</time>
      </trkpt>
      <trkpt lat="48.60312" lon="1.92525">
        <ele>117.2</ele>
        <time>2023-12-10T09:24:51Z</time>
      </trkpt>
      <trkpt lat="48.60319" lon="1.92521">
        <ele>117.2</ele>
        <time>2023-12-10T09:24:52Z</time>
      </trkpt>
      <trkpt lat="48.60325" lon="1.92517">
        <ele>117</ele>
        <time>2023-12-10T09:24:53Z</time>
      </trkpt>
      <trkpt lat="48.60331" lon="1.92513">
        <ele>117.2</ele>
        <time>2023-12-10T09:24:54Z</time>
      </trkpt>
      <trkpt lat="48.60337" lon="1.92509">
        <ele>117.2</ele>
        <time>2023-12-10T09:24:55Z</time>
      </trkpt>
      <trkpt lat="48.60344" lon="1.92505">
        <ele>117.2</ele>
        <time>2023-12-10T09:24:56Z</time>
      </trkpt>
      <trkpt lat="48.60351" lon="1.92501">
        <ele>117.2</ele>
        <time>2023-12-10T09:24:57Z</time>
      </trkpt>
      <trkpt lat="48.60358" lon="1.92498">
        <ele>117.4</ele>
        <time>2023-12-10T09:24:58Z</time>
      </trkpt>
      <trkpt lat="48.60365" lon="1.92495">
        <ele>117.4</ele>
        <time>2023-12-10T09:24:59Z</time>
      </trkpt>
      <trkpt lat="48.60371" lon="1.92491">
        <ele>117.4</ele>
        <time>2023-12-10T09:25:00Z</time>
      </trkpt>
      <trkpt lat="48.60378" lon="1.92487">
        <ele>117.2</ele>
        <time>2023-12-10T09:25:01Z</time>
      </trkpt>
      <trkpt lat="48.60385" lon="1.92484">
        <ele>116.8</ele>
        <time>2023-12-10T09:25:02Z</time>
      </trkpt>
      <trkpt lat="48.60392" lon="1.9248">
        <ele>116.8</ele>
        <time>2023-12-10T09:25:03Z</time>
      </trkpt>
      <trkpt lat="48.60398" lon="1.92477">
        <ele>116.8</ele>
        <time>2023-12-10T09:25:04Z</time>
      </trkpt>
      <trkpt lat="48.60405" lon="1.92474">
        <ele>117.4</ele>
        <time>2023-12-10T09:25:05Z</time>
      </trkpt>
      <trkpt lat="48.60412" lon="1.9247">
        <ele>117.6</ele>
        <time>2023-12-10T09:25:06Z</time>
      </trkpt>
      <trkpt lat="48.60418" lon="1.92467">
        <ele>117.6</ele>
        <time>2023-12-10T09:25:07Z</time>
      </trkpt>
      <trkpt lat="48.60424" lon="1.92463">
        <ele>117.6</ele>
        <time>2023-12-10T09:25:08Z</time>
      </trkpt>
      <trkpt lat="48.6043" lon="1.92459">
        <ele>118.6</ele>
        <time>2023-12-10T09:25:09Z</time>
      </trkpt>
      <trkpt lat="48.60436" lon="1.92455">
        <ele>118.6</ele>
        <time>2023-12-10T09:25:10Z</time>
      </trkpt>
      <trkpt lat="48.60442" lon="1.9245">
        <ele>118.6</ele>
        <time>2023-12-10T09:25:11Z</time>
      </trkpt>
      <trkpt lat="48.60447" lon="1.92445">
        <ele>118.6</ele>
        <time>2023-12-10T09:25:12Z</time>
      </trkpt>
      <trkpt lat="48.60453" lon="1.9244">
        <ele>118.8</ele>
        <time>2023-12-10T09:25:13Z</time>
      </trkpt>
      <trkpt lat="48.60458" lon="1.92434">
        <ele>119.4</ele>
        <time>2023-12-10T09:25:14Z</time>
      </trkpt>
      <trkpt lat="48.60463" lon="1.92429">
        <ele>119.4</ele>
        <time>2023-12-10T09:25:15Z</time>
      </trkpt>
      <trkpt lat="48.60468" lon="1.92423">
        <ele>119.4</ele>
        <time>2023-12-10T09:25:16Z</time>
      </trkpt>
      <trkpt lat="48.60474" lon="1.92417">
        <ele>118.8</ele>
        <time>2023-12-10T09:25:17Z</time>
      </trkpt>
      <trkpt lat="48.60479" lon="1.92411">
        <ele>119.2</ele>
        <time>2023-12-10T09:25:18Z</time>
      </trkpt>
      <trkpt lat="48.60484" lon="1.92405">
        <ele>119.2</ele>
        <time>2023-12-10T09:25:19Z</time>
      </trkpt>
      <trkpt lat="48.60489" lon="1.924">
        <ele>119.2</ele>
        <time>2023-12-10T09:25:20Z</time>
      </trkpt>
      <trkpt lat="48.60494" lon="1.92394">
        <ele>119.2</ele>
        <time>2023-12-10T09:25:21Z</time>
      </trkpt>
      <trkpt lat="48.60499" lon="1.92388">
        <ele>119.8</ele>
        <time>2023-12-10T09:25:22Z</time>
      </trkpt>
      <trkpt lat="48.60504" lon="1.92382">
        <ele>119.8</ele>
        <time>2023-12-10T09:25:23Z</time>
      </trkpt>
      <trkpt lat="48.60509" lon="1.92376">
        <ele>119.8</ele>
        <time>2023-12-10T09:25:24Z</time>
      </trkpt>
      <trkpt lat="48.60513" lon="1.9237">
        <ele>119.6</ele>
        <time>2023-12-10T09:25:25Z</time>
      </trkpt>
      <trkpt lat="48.60518" lon="1.92365">
        <ele>119.4</ele>
        <time>2023-12-10T09:25:26Z</time>
      </trkpt>
      <trkpt lat="48.60523" lon="1.92359">
        <ele>119.4</ele>
        <time>2023-12-10T09:25:27Z</time>
      </trkpt>
      <trkpt lat="48.60528" lon="1.92353">
        <ele>119.4</ele>
        <time>2023-12-10T09:25:28Z</time>
      </trkpt>
      <trkpt lat="48.60533" lon="1.92348">
        <ele>119.4</ele>
        <time>2023-12-10T09:25:29Z</time>
      </trkpt>
      <trkpt lat="48.60538" lon="1.92342">
        <ele>119.2</ele>
        <time>2023-12-10T09:25:30Z</time>
      </trkpt>
      <trkpt lat="48.60543" lon="1.92336">
        <ele>119.2</ele>
        <time>2023-12-10T09:25:31Z</time>
      </trkpt>
      <trkpt lat="48.60547" lon="1.9233">
        <ele>119.2</ele>
        <time>2023-12-10T09:25:32Z</time>
      </trkpt>
      <trkpt lat="48.60552" lon="1.92324">
        <ele>119.6</ele>
        <time>2023-12-10T09:25:33Z</time>
      </trkpt>
      <trkpt lat="48.60557" lon="1.92318">
        <ele>120.2</ele>
        <time>2023-12-10T09:25:34Z</time>
      </trkpt>
      <trkpt lat="48.60561" lon="1.92312">
        <ele>120.2</ele>
        <time>2023-12-10T09:25:35Z</time>
      </trkpt>
      <trkpt lat="48.60566" lon="1.92306">
        <ele>120.2</ele>
        <time>2023-12-10T09:25:36Z</time>
      </trkpt>
      <trkpt lat="48.60571" lon="1.923">
        <ele>119.2</ele>
        <time>2023-12-10T09:25:37Z</time>
      </trkpt>
      <trkpt lat="48.60575" lon="1.92294">
        <ele>119.4</ele>
        <time>2023-12-10T09:25:38Z</time>
      </trkpt>
      <trkpt lat="48.6058" lon="1.92288">
        <ele>119.4</ele>
        <time>2023-12-10T09:25:39Z</time>
      </trkpt>
      <trkpt lat="48.60584" lon="1.92282">
        <ele>119.4</ele>
        <time>2023-12-10T09:25:40Z</time>
      </trkpt>
      <trkpt lat="48.60589" lon="1.92276">
        <ele>119.6</ele>
        <time>2023-12-10T09:25:41Z</time>
      </trkpt>
      <trkpt lat="48.60593" lon="1.92271">
        <ele>120</ele>
        <time>2023-12-10T09:25:42Z</time>
      </trkpt>
      <trkpt lat="48.60598" lon="1.92265">
        <ele>120</ele>
        <time>2023-12-10T09:25:43Z</time>
      </trkpt>
      <trkpt lat="48.60602" lon="1.92259">
        <ele>120</ele>
        <time>2023-12-10T09:25:44Z</time>
      </trkpt>
      <trkpt lat="48.60607" lon="1.92253">
        <ele>120</ele>
        <time>2023-12-10T09:25:45Z</time>
      </trkpt>
      <trkpt lat="48.60612" lon="1.92247">
        <ele>120.2</ele>
        <time>2023-12-10T09:25:46Z</time>
      </trkpt>
      <trkpt lat="48.60616" lon="1.92241">
        <ele>120.2</ele>
        <time>2023-12-10T09:25:47Z</time>
      </trkpt>
      <trkpt lat="48.60621" lon="1.92235">
        <ele>120.2</ele>
        <time>2023-12-10T09:25:48Z</time>
      </trkpt>
      <trkpt lat="48.60626" lon="1.92229">
        <ele>120.2</ele>
        <time>2023-12-10T09:25:49Z</time>
      </trkpt>
      <trkpt lat="48.6063" lon="1.92223">
        <ele>120.4</ele>
        <time>2023-12-10T09:25:50Z</time>
      </trkpt>
      <trkpt lat="48.60635" lon="1.92217">
        <ele>120.4</ele>
        <time>2023-12-10T09:25:51Z</time>
      </trkpt>
      <trkpt lat="48.60639" lon="1.9221">
        <ele>120.4</ele>
        <time>2023-12-10T09:25:52Z</time>
      </trkpt>
      <trkpt lat="48.60644" lon="1.92202">
        <ele>119.8</ele>
        <time>2023-12-10T09:25:53Z</time>
      </trkpt>
      <trkpt lat="48.60648" lon="1.92194">
        <ele>119.8</ele>
        <time>2023-12-10T09:25:54Z</time>
      </trkpt>
      <trkpt lat="48.60651" lon="1.92186">
        <ele>119.8</ele>
        <time>2023-12-10T09:25:55Z</time>
      </trkpt>
      <trkpt lat="48.60655" lon="1.92178">
        <ele>119.8</ele>
        <time>2023-12-10T09:25:56Z</time>
      </trkpt>
      <trkpt lat="48.60658" lon="1.9217">
        <ele>119.8</ele>
        <time>2023-12-10T09:25:57Z</time>
      </trkpt>
      <trkpt lat="48.60661" lon="1.92161">
        <ele>119.8</ele>
        <time>2023-12-10T09:25:58Z</time>
      </trkpt>
      <trkpt lat="48.60663" lon="1.92153">
        <ele>119.8</ele>
        <time>2023-12-10T09:25:59Z</time>
      </trkpt>
      <trkpt lat="48.60666" lon="1.92146">
        <ele>119.8</ele>
        <time>2023-12-10T09:26:00Z</time>
      </trkpt>
      <trkpt lat="48.60668" lon="1.92137">
        <ele>119.8</ele>
        <time>2023-12-10T09:26:01Z</time>
      </trkpt>
      <trkpt lat="48.6067" lon="1.9213">
        <ele>119.8</ele>
        <time>2023-12-10T09:26:02Z</time>
      </trkpt>
      <trkpt lat="48.60671" lon="1.92122">
        <ele>119.8</ele>
        <time>2023-12-10T09:26:03Z</time>
      </trkpt>
      <trkpt lat="48.60673" lon="1.92113">
        <ele>119.8</ele>
        <time>2023-12-10T09:26:04Z</time>
      </trkpt>
      <trkpt lat="48.60676" lon="1.92107">
        <ele>119.8</ele>
        <time>2023-12-10T09:26:05Z</time>
      </trkpt>
      <trkpt lat="48.60678" lon="1.92099">
        <ele>119.2</ele>
        <time>2023-12-10T09:26:06Z</time>
      </trkpt>
      <trkpt lat="48.6068" lon="1.92091">
        <ele>119.2</ele>
        <time>2023-12-10T09:26:07Z</time>
      </trkpt>
      <trkpt lat="48.60683" lon="1.92081">
        <ele>119.2</ele>
        <time>2023-12-10T09:26:08Z</time>
      </trkpt>
      <trkpt lat="48.60686" lon="1.92072">
        <ele>119.2</ele>
        <time>2023-12-10T09:26:09Z</time>
      </trkpt>
      <trkpt lat="48.60689" lon="1.92063">
        <ele>119.4</ele>
        <time>2023-12-10T09:26:10Z</time>
      </trkpt>
      <trkpt lat="48.60693" lon="1.92055">
        <ele>119.4</ele>
        <time>2023-12-10T09:26:11Z</time>
      </trkpt>
      <trkpt lat="48.60698" lon="1.92049">
        <ele>119.4</ele>
        <time>2023-12-10T09:26:12Z</time>
      </trkpt>
      <trkpt lat="48.60702" lon="1.92042">
        <ele>120.2</ele>
        <time>2023-12-10T09:26:13Z</time>
      </trkpt>
      <trkpt lat="48.60707" lon="1.92036">
        <ele>120.2</ele>
        <time>2023-12-10T09:26:14Z</time>
      </trkpt>
      <trkpt lat="48.60711" lon="1.92031">
        <ele>120.2</ele>
        <time>2023-12-10T09:26:15Z</time>
      </trkpt>
      <trkpt lat="48.60716" lon="1.92027">
        <ele>120.2</ele>
        <time>2023-12-10T09:26:16Z</time>
      </trkpt>
      <trkpt lat="48.6072" lon="1.92024">
        <ele>120.2</ele>
        <time>2023-12-10T09:26:17Z</time>
      </trkpt>
      <trkpt lat="48.60725" lon="1.92021">
        <ele>120.8</ele>
        <time>2023-12-10T09:26:18Z</time>
      </trkpt>
      <trkpt lat="48.60729" lon="1.92018">
        <ele>120.8</ele>
        <time>2023-12-10T09:26:19Z</time>
      </trkpt>
      <trkpt lat="48.60734" lon="1.92015">
        <ele>120.8</ele>
        <time>2023-12-10T09:26:20Z</time>
      </trkpt>
      <trkpt lat="48.60739" lon="1.92011">
        <ele>121.6</ele>
        <time>2023-12-10T09:26:21Z</time>
      </trkpt>
      <trkpt lat="48.60743" lon="1.92007">
        <ele>121.8</ele>
        <time>2023-12-10T09:26:22Z</time>
      </trkpt>
      <trkpt lat="48.60748" lon="1.92005">
        <ele>121.8</ele>
        <time>2023-12-10T09:26:23Z</time>
      </trkpt>
      <trkpt lat="48.60752" lon="1.92002">
        <ele>121.8</ele>
        <time>2023-12-10T09:26:24Z</time>
      </trkpt>
      <trkpt lat="48.60757" lon="1.91999">
        <ele>122.6</ele>
        <time>2023-12-10T09:26:25Z</time>
      </trkpt>
      <trkpt lat="48.6076" lon="1.91996">
        <ele>121.8</ele>
        <time>2023-12-10T09:26:26Z</time>
      </trkpt>
      <trkpt lat="48.60765" lon="1.91993">
        <ele>121.8</ele>
        <time>2023-12-10T09:26:27Z</time>
      </trkpt>
      <trkpt lat="48.60768" lon="1.91989">
        <ele>121.8</ele>
        <time>2023-12-10T09:26:28Z</time>
      </trkpt>
      <trkpt lat="48.60772" lon="1.91987">
        <ele>122.4</ele>
        <time>2023-12-10T09:26:29Z</time>
      </trkpt>
      <trkpt lat="48.60775" lon="1.91985">
        <ele>122.8</ele>
        <time>2023-12-10T09:26:30Z</time>
      </trkpt>
      <trkpt lat="48.60778" lon="1.91982">
        <ele>122.8</ele>
        <time>2023-12-10T09:26:31Z</time>
      </trkpt>
      <trkpt lat="48.60782" lon="1.9198">
        <ele>122.8</ele>
        <time>2023-12-10T09:26:32Z</time>
      </trkpt>
      <trkpt lat="48.60786" lon="1.91977">
        <ele>123.4</ele>
        <time>2023-12-10T09:26:33Z</time>
      </trkpt>
      <trkpt lat="48.6079" lon="1.91972">
        <ele>123.6</ele>
        <time>2023-12-10T09:26:34Z</time>
      </trkpt>
      <trkpt lat="48.60794" lon="1.91968">
        <ele>123.6</ele>
        <time>2023-12-10T09:26:35Z</time>
      </trkpt>
      <trkpt lat="48.60799" lon="1.91965">
        <ele>123.6</ele>
        <time>2023-12-10T09:26:36Z</time>
      </trkpt>
      <trkpt lat="48.60803" lon="1.91961">
        <ele>123.6</ele>
        <time>2023-12-10T09:26:37Z</time>
      </trkpt>
      <trkpt lat="48.60808" lon="1.91958">
        <ele>123.8</ele>
        <time>2023-12-10T09:26:38Z</time>
      </trkpt>
      <trkpt lat="48.60812" lon="1.91956">
        <ele>123.8</ele>
        <time>2023-12-10T09:26:39Z</time>
      </trkpt>
      <trkpt lat="48.60817" lon="1.91952">
        <ele>123.8</ele>
        <time>2023-12-10T09:26:40Z</time>
      </trkpt>
      <trkpt lat="48.60821" lon="1.91949">
        <ele>123.8</ele>
        <time>2023-12-10T09:26:41Z</time>
      </trkpt>
      <trkpt lat="48.60826" lon="1.91945">
        <ele>124.2</ele>
        <time>2023-12-10T09:26:42Z</time>
      </trkpt>
      <trkpt lat="48.6083" lon="1.91941">
        <ele>124.2</ele>
        <time>2023-12-10T09:26:43Z</time>
      </trkpt>
      <trkpt lat="48.60835" lon="1.91938">
        <ele>124.2</ele>
        <time>2023-12-10T09:26:44Z</time>
      </trkpt>
      <trkpt lat="48.60839" lon="1.91933">
        <ele>124.6</ele>
        <time>2023-12-10T09:26:45Z</time>
      </trkpt>
      <trkpt lat="48.60843" lon="1.9193">
        <ele>124.6</ele>
        <time>2023-12-10T09:26:46Z</time>
      </trkpt>
      <trkpt lat="48.60847" lon="1.91928">
        <ele>124.6</ele>
        <time>2023-12-10T09:26:47Z</time>
      </trkpt>
      <trkpt lat="48.60851" lon="1.91925">
        <ele>124.6</ele>
        <time>2023-12-10T09:26:48Z</time>
      </trkpt>
      <trkpt lat="48.60856" lon="1.91921">
        <ele>124.6</ele>
        <time>2023-12-10T09:26:49Z</time>
      </trkpt>
      <trkpt lat="48.60861" lon="1.91917">
        <ele>125.8</ele>
        <time>2023-12-10T09:26:50Z</time>
      </trkpt>
      <trkpt lat="48.60865" lon="1.91913">
        <ele>125.8</ele>
        <time>2023-12-10T09:26:51Z</time>
      </trkpt>
      <trkpt lat="48.60869" lon="1.91909">
        <ele>125.8</ele>
        <time>2023-12-10T09:26:52Z</time>
      </trkpt>
      <trkpt lat="48.60874" lon="1.91905">
        <ele>125.8</ele>
        <time>2023-12-10T09:26:53Z</time>
      </trkpt>
      <trkpt lat="48.60879" lon="1.91901">
        <ele>126</ele>
        <time>2023-12-10T09:26:54Z</time>
      </trkpt>
      <trkpt lat="48.60883" lon="1.91896">
        <ele>126</ele>
        <time>2023-12-10T09:26:55Z</time>
      </trkpt>
      <trkpt lat="48.60888" lon="1.91892">
        <ele>126</ele>
        <time>2023-12-10T09:26:56Z</time>
      </trkpt>
      <trkpt lat="48.60893" lon="1.91888">
        <ele>126</ele>
        <time>2023-12-10T09:26:57Z</time>
      </trkpt>
      <trkpt lat="48.60898" lon="1.91883">
        <ele>125.6</ele>
        <time>2023-12-10T09:26:58Z</time>
      </trkpt>
      <trkpt lat="48.60903" lon="1.91878">
        <ele>125.6</ele>
        <time>2023-12-10T09:26:59Z</time>
      </trkpt>
      <trkpt lat="48.60908" lon="1.91873">
        <ele>125.6</ele>
        <time>2023-12-10T09:27:00Z</time>
      </trkpt>
      <trkpt lat="48.60913" lon="1.91869">
        <ele>126</ele>
        <time>2023-12-10T09:27:01Z</time>
      </trkpt>
      <trkpt lat="48.60919" lon="1.91864">
        <ele>127</ele>
        <time>2023-12-10T09:27:02Z</time>
      </trkpt>
      <trkpt lat="48.60923" lon="1.9186">
        <ele>127</ele>
        <time>2023-12-10T09:27:03Z</time>
      </trkpt>
      <trkpt lat="48.60928" lon="1.91856">
        <ele>127</ele>
        <time>2023-12-10T09:27:04Z</time>
      </trkpt>
      <trkpt lat="48.60932" lon="1.91851">
        <ele>127</ele>
        <time>2023-12-10T09:27:05Z</time>
      </trkpt>
      <trkpt lat="48.60937" lon="1.91846">
        <ele>127.2</ele>
        <time>2023-12-10T09:27:06Z</time>
      </trkpt>
      <trkpt lat="48.60941" lon="1.91839">
        <ele>127.2</ele>
        <time>2023-12-10T09:27:07Z</time>
      </trkpt>
      <trkpt lat="48.60946" lon="1.91836">
        <ele>127.2</ele>
        <time>2023-12-10T09:27:08Z</time>
      </trkpt>
      <trkpt lat="48.60951" lon="1.91831">
        <ele>127.2</ele>
        <time>2023-12-10T09:27:09Z</time>
      </trkpt>
      <trkpt lat="48.60956" lon="1.91826">
        <ele>127.6</ele>
        <time>2023-12-10T09:27:10Z</time>
      </trkpt>
      <trkpt lat="48.60961" lon="1.91822">
        <ele>127.6</ele>
        <time>2023-12-10T09:27:11Z</time>
      </trkpt>
      <trkpt lat="48.60966" lon="1.91818">
        <ele>127.6</ele>
        <time>2023-12-10T09:27:12Z</time>
      </trkpt>
      <trkpt lat="48.60971" lon="1.91813">
        <ele>127.6</ele>
        <time>2023-12-10T09:27:13Z</time>
      </trkpt>
      <trkpt lat="48.60976" lon="1.91807">
        <ele>126.6</ele>
        <time>2023-12-10T09:27:14Z</time>
      </trkpt>
      <trkpt lat="48.6098" lon="1.918">
        <ele>126.6</ele>
        <time>2023-12-10T09:27:15Z</time>
      </trkpt>
      <trkpt lat="48.60984" lon="1.91791">
        <ele>126.6</ele>
        <time>2023-12-10T09:27:16Z</time>
      </trkpt>
      <trkpt lat="48.60987" lon="1.91782">
        <ele>126.6</ele>
        <time>2023-12-10T09:27:17Z</time>
      </trkpt>
      <trkpt lat="48.60991" lon="1.91773">
        <ele>125.6</ele>
        <time>2023-12-10T09:27:18Z</time>
      </trkpt>
      <trkpt lat="48.60995" lon="1.91765">
        <ele>125.6</ele>
        <time>2023-12-10T09:27:19Z</time>
      </trkpt>
      <trkpt lat="48.60999" lon="1.91756">
        <ele>125.6</ele>
        <time>2023-12-10T09:27:20Z</time>
      </trkpt>
      <trkpt lat="48.61003" lon="1.91748">
        <ele>125.2</ele>
        <time>2023-12-10T09:27:21Z</time>
      </trkpt>
      <trkpt lat="48.61007" lon="1.91739">
        <ele>124.8</ele>
        <time>2023-12-10T09:27:22Z</time>
      </trkpt>
      <trkpt lat="48.61011" lon="1.91731">
        <ele>124.8</ele>
        <time>2023-12-10T09:27:23Z</time>
      </trkpt>
      <trkpt lat="48.61015" lon="1.91723">
        <ele>124.8</ele>
        <time>2023-12-10T09:27:24Z</time>
      </trkpt>
      <trkpt lat="48.61019" lon="1.91714">
        <ele>125.4</ele>
        <time>2023-12-10T09:27:25Z</time>
      </trkpt>
      <trkpt lat="48.61023" lon="1.91705">
        <ele>124.6</ele>
        <time>2023-12-10T09:27:26Z</time>
      </trkpt>
      <trkpt lat="48.61027" lon="1.91696">
        <ele>124.6</ele>
        <time>2023-12-10T09:27:27Z</time>
      </trkpt>
      <trkpt lat="48.61031" lon="1.91688">
        <ele>124.6</ele>
        <time>2023-12-10T09:27:28Z</time>
      </trkpt>
      <trkpt lat="48.61035" lon="1.91679">
        <ele>124.2</ele>
        <time>2023-12-10T09:27:29Z</time>
      </trkpt>
      <trkpt lat="48.6104" lon="1.91671">
        <ele>124</ele>
        <time>2023-12-10T09:27:30Z</time>
      </trkpt>
      <trkpt lat="48.61044" lon="1.91663">
        <ele>124</ele>
        <time>2023-12-10T09:27:31Z</time>
      </trkpt>
      <trkpt lat="48.61049" lon="1.91654">
        <ele>124</ele>
        <time>2023-12-10T09:27:32Z</time>
      </trkpt>
      <trkpt lat="48.61053" lon="1.91646">
        <ele>124.8</ele>
        <time>2023-12-10T09:27:33Z</time>
      </trkpt>
      <trkpt lat="48.61056" lon="1.91637">
        <ele>124.4</ele>
        <time>2023-12-10T09:27:34Z</time>
      </trkpt>
      <trkpt lat="48.6106" lon="1.91628">
        <ele>124.4</ele>
        <time>2023-12-10T09:27:35Z</time>
      </trkpt>
      <trkpt lat="48.61064" lon="1.91619">
        <ele>124.4</ele>
        <time>2023-12-10T09:27:36Z</time>
      </trkpt>
      <trkpt lat="48.61068" lon="1.91611">
        <ele>124</ele>
        <time>2023-12-10T09:27:37Z</time>
      </trkpt>
      <trkpt lat="48.61072" lon="1.91602">
        <ele>123.8</ele>
        <time>2023-12-10T09:27:38Z</time>
      </trkpt>
      <trkpt lat="48.61076" lon="1.91594">
        <ele>123.8</ele>
        <time>2023-12-10T09:27:39Z</time>
      </trkpt>
      <trkpt lat="48.61081" lon="1.91586">
        <ele>123.8</ele>
        <time>2023-12-10T09:27:40Z</time>
      </trkpt>
      <trkpt lat="48.61085" lon="1.91578">
        <ele>123.8</ele>
        <time>2023-12-10T09:27:41Z</time>
      </trkpt>
      <trkpt lat="48.61089" lon="1.9157">
        <ele>123.4</ele>
        <time>2023-12-10T09:27:42Z</time>
      </trkpt>
      <trkpt lat="48.61093" lon="1.91562">
        <ele>123.4</ele>
        <time>2023-12-10T09:27:43Z</time>
      </trkpt>
      <trkpt lat="48.61096" lon="1.91553">
        <ele>123.4</ele>
        <time>2023-12-10T09:27:44Z</time>
      </trkpt>
      <trkpt lat="48.611" lon="1.91545">
        <ele>123.4</ele>
        <time>2023-12-10T09:27:45Z</time>
      </trkpt>
      <trkpt lat="48.61104" lon="1.91537">
        <ele>124.4</ele>
        <time>2023-12-10T09:27:46Z</time>
      </trkpt>
      <trkpt lat="48.61109" lon="1.91529">
        <ele>124.4</ele>
        <time>2023-12-10T09:27:47Z</time>
      </trkpt>
      <trkpt lat="48.61113" lon="1.91521">
        <ele>124.4</ele>
        <time>2023-12-10T09:27:48Z</time>
      </trkpt>
      <trkpt lat="48.61117" lon="1.91513">
        <ele>124.4</ele>
        <time>2023-12-10T09:27:49Z</time>
      </trkpt>
      <trkpt lat="48.61121" lon="1.91504">
        <ele>124.6</ele>
        <time>2023-12-10T09:27:50Z</time>
      </trkpt>
      <trkpt lat="48.61125" lon="1.91496">
        <ele>124.6</ele>
        <time>2023-12-10T09:27:51Z</time>
      </trkpt>
      <trkpt lat="48.6113" lon="1.91489">
        <ele>124.6</ele>
        <time>2023-12-10T09:27:52Z</time>
      </trkpt>
      <trkpt lat="48.61135" lon="1.91481">
        <ele>124</ele>
        <time>2023-12-10T09:27:53Z</time>
      </trkpt>
      <trkpt lat="48.61139" lon="1.91473">
        <ele>123.6</ele>
        <time>2023-12-10T09:27:54Z</time>
      </trkpt>
      <trkpt lat="48.61144" lon="1.91465">
        <ele>123.6</ele>
        <time>2023-12-10T09:27:55Z</time>
      </trkpt>
      <trkpt lat="48.61149" lon="1.91458">
        <ele>123.6</ele>
        <time>2023-12-10T09:27:56Z</time>
      </trkpt>
      <trkpt lat="48.61154" lon="1.9145">
        <ele>123.6</ele>
        <time>2023-12-10T09:27:57Z</time>
      </trkpt>
      <trkpt lat="48.61158" lon="1.91442">
        <ele>123.4</ele>
        <time>2023-12-10T09:27:58Z</time>
      </trkpt>
      <trkpt lat="48.61163" lon="1.91435">
        <ele>123.4</ele>
        <time>2023-12-10T09:27:59Z</time>
      </trkpt>
      <trkpt lat="48.61168" lon="1.91427">
        <ele>123.4</ele>
        <time>2023-12-10T09:28:00Z</time>
      </trkpt>
      <trkpt lat="48.61173" lon="1.91419">
        <ele>122.4</ele>
        <time>2023-12-10T09:28:01Z</time>
      </trkpt>
      <trkpt lat="48.61177" lon="1.91412">
        <ele>122.6</ele>
        <time>2023-12-10T09:28:02Z</time>
      </trkpt>
      <trkpt lat="48.61182" lon="1.91404">
        <ele>122.6</ele>
        <time>2023-12-10T09:28:03Z</time>
      </trkpt>
      <trkpt lat="48.61187" lon="1.91397">
        <ele>122.6</ele>
        <time>2023-12-10T09:28:04Z</time>
      </trkpt>
      <trkpt lat="48.61191" lon="1.91389">
        <ele>123.4</ele>
        <time>2023-12-10T09:28:05Z</time>
      </trkpt>
      <trkpt lat="48.61195" lon="1.91381">
        <ele>122.6</ele>
        <time>2023-12-10T09:28:06Z</time>
      </trkpt>
      <trkpt lat="48.61199" lon="1.91373">
        <ele>122.6</ele>
        <time>2023-12-10T09:28:07Z</time>
      </trkpt>
      <trkpt lat="48.61202" lon="1.91363">
        <ele>122.6</ele>
        <time>2023-12-10T09:28:08Z</time>
      </trkpt>
      <trkpt lat="48.61205" lon="1.91354">
        <ele>122.8</ele>
        <time>2023-12-10T09:28:09Z</time>
      </trkpt>
      <trkpt lat="48.61206" lon="1.91344">
        <ele>123</ele>
        <time>2023-12-10T09:28:10Z</time>
      </trkpt>
      <trkpt lat="48.61207" lon="1.91334">
        <ele>123</ele>
        <time>2023-12-10T09:28:11Z</time>
      </trkpt>
      <trkpt lat="48.61209" lon="1.91325">
        <ele>123</ele>
        <time>2023-12-10T09:28:12Z</time>
      </trkpt>
      <trkpt lat="48.6121" lon="1.91315">
        <ele>124</ele>
        <time>2023-12-10T09:28:13Z</time>
      </trkpt>
      <trkpt lat="48.61211" lon="1.91305">
        <ele>124.2</ele>
        <time>2023-12-10T09:28:14Z</time>
      </trkpt>
      <trkpt lat="48.61212" lon="1.91296">
        <ele>124.2</ele>
        <time>2023-12-10T09:28:15Z</time>
      </trkpt>
      <trkpt lat="48.61212" lon="1.91286">
        <ele>124.2</ele>
        <time>2023-12-10T09:28:16Z</time>
      </trkpt>
      <trkpt lat="48.61213" lon="1.91277">
        <ele>124.2</ele>
        <time>2023-12-10T09:28:17Z</time>
      </trkpt>
      <trkpt lat="48.61214" lon="1.91267">
        <ele>124</ele>
        <time>2023-12-10T09:28:18Z</time>
      </trkpt>
      <trkpt lat="48.61214" lon="1.91257">
        <ele>124</ele>
        <time>2023-12-10T09:28:19Z</time>
      </trkpt>
      <trkpt lat="48.61215" lon="1.91247">
        <ele>124</ele>
        <time>2023-12-10T09:28:20Z</time>
      </trkpt>
      <trkpt lat="48.61216" lon="1.91238">
        <ele>123.6</ele>
        <time>2023-12-10T09:28:21Z</time>
      </trkpt>
      <trkpt lat="48.61217" lon="1.91228">
        <ele>123.6</ele>
        <time>2023-12-10T09:28:22Z</time>
      </trkpt>
      <trkpt lat="48.61218" lon="1.91219">
        <ele>123.6</ele>
        <time>2023-12-10T09:28:23Z</time>
      </trkpt>
      <trkpt lat="48.61218" lon="1.9121">
        <ele>123.6</ele>
        <time>2023-12-10T09:28:24Z</time>
      </trkpt>
      <trkpt lat="48.61219" lon="1.91201">
        <ele>124.4</ele>
        <time>2023-12-10T09:28:25Z</time>
      </trkpt>
      <trkpt lat="48.6122" lon="1.91192">
        <ele>125.2</ele>
        <time>2023-12-10T09:28:26Z</time>
      </trkpt>
      <trkpt lat="48.61221" lon="1.91183">
        <ele>125.2</ele>
        <time>2023-12-10T09:28:27Z</time>
      </trkpt>
      <trkpt lat="48.61222" lon="1.91174">
        <ele>125.2</ele>
        <time>2023-12-10T09:28:28Z</time>
      </trkpt>
      <trkpt lat="48.61223" lon="1.91166">
        <ele>125.2</ele>
        <time>2023-12-10T09:28:29Z</time>
      </trkpt>
      <trkpt lat="48.61224" lon="1.91158">
        <ele>126</ele>
        <time>2023-12-10T09:28:30Z</time>
      </trkpt>
      <trkpt lat="48.61225" lon="1.9115">
        <ele>126</ele>
        <time>2023-12-10T09:28:31Z</time>
      </trkpt>
      <trkpt lat="48.61226" lon="1.91142">
        <ele>126</ele>
        <time>2023-12-10T09:28:32Z</time>
      </trkpt>
      <trkpt lat="48.61226" lon="1.91133">
        <ele>126</ele>
        <time>2023-12-10T09:28:33Z</time>
      </trkpt>
      <trkpt lat="48.61226" lon="1.91124">
        <ele>126.4</ele>
        <time>2023-12-10T09:28:34Z</time>
      </trkpt>
      <trkpt lat="48.61227" lon="1.91116">
        <ele>126.4</ele>
        <time>2023-12-10T09:28:35Z</time>
      </trkpt>
      <trkpt lat="48.61228" lon="1.91107">
        <ele>126.4</ele>
        <time>2023-12-10T09:28:36Z</time>
      </trkpt>
      <trkpt lat="48.61228" lon="1.91098">
        <ele>127.4</ele>
        <time>2023-12-10T09:28:37Z</time>
      </trkpt>
      <trkpt lat="48.61229" lon="1.9109">
        <ele>127.6</ele>
        <time>2023-12-10T09:28:38Z</time>
      </trkpt>
      <trkpt lat="48.6123" lon="1.91082">
        <ele>127.6</ele>
        <time>2023-12-10T09:28:39Z</time>
      </trkpt>
      <trkpt lat="48.6123" lon="1.91074">
        <ele>127.6</ele>
        <time>2023-12-10T09:28:40Z</time>
      </trkpt>
      <trkpt lat="48.61231" lon="1.91065">
        <ele>128.4</ele>
        <time>2023-12-10T09:28:41Z</time>
      </trkpt>
      <trkpt lat="48.61231" lon="1.91057">
        <ele>128.4</ele>
        <time>2023-12-10T09:28:42Z</time>
      </trkpt>
      <trkpt lat="48.61232" lon="1.91049">
        <ele>128.4</ele>
        <time>2023-12-10T09:28:43Z</time>
      </trkpt>
      <trkpt lat="48.61232" lon="1.9104">
        <ele>128.4</ele>
        <time>2023-12-10T09:28:44Z</time>
      </trkpt>
      <trkpt lat="48.61233" lon="1.91032">
        <ele>128.6</ele>
        <time>2023-12-10T09:28:45Z</time>
      </trkpt>
      <trkpt lat="48.61233" lon="1.91024">
        <ele>128.6</ele>
        <time>2023-12-10T09:28:46Z</time>
      </trkpt>
      <trkpt lat="48.61234" lon="1.91016">
        <ele>128.6</ele>
        <time>2023-12-10T09:28:47Z</time>
      </trkpt>
      <trkpt lat="48.61235" lon="1.91007">
        <ele>128.6</ele>
        <time>2023-12-10T09:28:48Z</time>
      </trkpt>
      <trkpt lat="48.61236" lon="1.90999">
        <ele>128.6</ele>
        <time>2023-12-10T09:28:49Z</time>
      </trkpt>
      <trkpt lat="48.61236" lon="1.9099">
        <ele>129.2</ele>
        <time>2023-12-10T09:28:50Z</time>
      </trkpt>
      <trkpt lat="48.61237" lon="1.90982">
        <ele>129.2</ele>
        <time>2023-12-10T09:28:51Z</time>
      </trkpt>
      <trkpt lat="48.61238" lon="1.90973">
        <ele>129.2</ele>
        <time>2023-12-10T09:28:52Z</time>
      </trkpt>
      <trkpt lat="48.61239" lon="1.90965">
        <ele>129.2</ele>
        <time>2023-12-10T09:28:53Z</time>
      </trkpt>
      <trkpt lat="48.61241" lon="1.90957">
        <ele>128.6</ele>
        <time>2023-12-10T09:28:54Z</time>
      </trkpt>
      <trkpt lat="48.61243" lon="1.90948">
        <ele>128.6</ele>
        <time>2023-12-10T09:28:55Z</time>
      </trkpt>
      <trkpt lat="48.61245" lon="1.9094">
        <ele>128.6</ele>
        <time>2023-12-10T09:28:56Z</time>
      </trkpt>
      <trkpt lat="48.61248" lon="1.90933">
        <ele>128.6</ele>
        <time>2023-12-10T09:28:57Z</time>
      </trkpt>
      <trkpt lat="48.6125" lon="1.90925">
        <ele>129.2</ele>
        <time>2023-12-10T09:28:58Z</time>
      </trkpt>
      <trkpt lat="48.61253" lon="1.90918">
        <ele>129.2</ele>
        <time>2023-12-10T09:28:59Z</time>
      </trkpt>
      <trkpt lat="48.61254" lon="1.90912">
        <ele>129.2</ele>
        <time>2023-12-10T09:29:00Z</time>
      </trkpt>
      <trkpt lat="48.61256" lon="1.90907">
        <ele>129.2</ele>
        <time>2023-12-10T09:29:01Z</time>
      </trkpt>
      <trkpt lat="48.61258" lon="1.90901">
        <ele>129</ele>
        <time>2023-12-10T09:29:02Z</time>
      </trkpt>
      <trkpt lat="48.6126" lon="1.90895">
        <ele>129</ele>
        <time>2023-12-10T09:29:03Z</time>
      </trkpt>
      <trkpt lat="48.61262" lon="1.90889">
        <ele>129</ele>
        <time>2023-12-10T09:29:04Z</time>
      </trkpt>
      <trkpt lat="48.61264" lon="1.90882">
        <ele>129</ele>
        <time>2023-12-10T09:29:05Z</time>
      </trkpt>
      <trkpt lat="48.61267" lon="1.90875">
        <ele>128.4</ele>
        <time>2023-12-10T09:29:06Z</time>
      </trkpt>
      <trkpt lat="48.61269" lon="1.90867">
        <ele>128.4</ele>
        <time>2023-12-10T09:29:07Z</time>
      </trkpt>
      <trkpt lat="48.61272" lon="1.9086">
        <ele>128.4</ele>
        <time>2023-12-10T09:29:08Z</time>
      </trkpt>
      <trkpt lat="48.61275" lon="1.90852">
        <ele>128.4</ele>
        <time>2023-12-10T09:29:09Z</time>
      </trkpt>
      <trkpt lat="48.61279" lon="1.90844">
        <ele>126.6</ele>
        <time>2023-12-10T09:29:10Z</time>
      </trkpt>
      <trkpt lat="48.61282" lon="1.90835">
        <ele>126.6</ele>
        <time>2023-12-10T09:29:11Z</time>
      </trkpt>
      <trkpt lat="48.61286" lon="1.90827">
        <ele>126.6</ele>
        <time>2023-12-10T09:29:12Z</time>
      </trkpt>
      <trkpt lat="48.6129" lon="1.90819">
        <ele>126.6</ele>
        <time>2023-12-10T09:29:13Z</time>
      </trkpt>
      <trkpt lat="48.61294" lon="1.90811">
        <ele>126.8</ele>
        <time>2023-12-10T09:29:14Z</time>
      </trkpt>
      <trkpt lat="48.61297" lon="1.90804">
        <ele>126.8</ele>
        <time>2023-12-10T09:29:15Z</time>
      </trkpt>
      <trkpt lat="48.61301" lon="1.90797">
        <ele>126.8</ele>
        <time>2023-12-10T09:29:16Z</time>
      </trkpt>
      <trkpt lat="48.61304" lon="1.9079">
        <ele>126.8</ele>
        <time>2023-12-10T09:29:17Z</time>
      </trkpt>
      <trkpt lat="48.61305" lon="1.90783">
        <ele>126.6</ele>
        <time>2023-12-10T09:29:18Z</time>
      </trkpt>
      <trkpt lat="48.61304" lon="1.90776">
        <ele>126.6</ele>
        <time>2023-12-10T09:29:19Z</time>
      </trkpt>
      <trkpt lat="48.61302" lon="1.90769">
        <ele>126.6</ele>
        <time>2023-12-10T09:29:20Z</time>
      </trkpt>
      <trkpt lat="48.61298" lon="1.90762">
        <ele>126.6</ele>
        <time>2023-12-10T09:29:21Z</time>
      </trkpt>
      <trkpt lat="48.61294" lon="1.90755">
        <ele>126</ele>
        <time>2023-12-10T09:29:22Z</time>
      </trkpt>
      <trkpt lat="48.6129" lon="1.90748">
        <ele>126</ele>
        <time>2023-12-10T09:29:23Z</time>
      </trkpt>
      <trkpt lat="48.61287" lon="1.90741">
        <ele>126</ele>
        <time>2023-12-10T09:29:24Z</time>
      </trkpt>
      <trkpt lat="48.61283" lon="1.90733">
        <ele>126</ele>
        <time>2023-12-10T09:29:25Z</time>
      </trkpt>
      <trkpt lat="48.61279" lon="1.90725">
        <ele>126</ele>
        <time>2023-12-10T09:29:26Z</time>
      </trkpt>
      <trkpt lat="48.61275" lon="1.90718">
        <ele>126</ele>
        <time>2023-12-10T09:29:27Z</time>
      </trkpt>
      <trkpt lat="48.61272" lon="1.9071">
        <ele>126</ele>
        <time>2023-12-10T09:29:28Z</time>
      </trkpt>
      <trkpt lat="48.61268" lon="1.90703">
        <ele>125.4</ele>
        <time>2023-12-10T09:29:29Z</time>
      </trkpt>
      <trkpt lat="48.61264" lon="1.90696">
        <ele>125.4</ele>
        <time>2023-12-10T09:29:30Z</time>
      </trkpt>
      <trkpt lat="48.6126" lon="1.90688">
        <ele>125.4</ele>
        <time>2023-12-10T09:29:31Z</time>
      </trkpt>
      <trkpt lat="48.61256" lon="1.90681">
        <ele>125.4</ele>
        <time>2023-12-10T09:29:32Z</time>
      </trkpt>
      <trkpt lat="48.61252" lon="1.90674">
        <ele>125.6</ele>
        <time>2023-12-10T09:29:33Z</time>
      </trkpt>
      <trkpt lat="48.61248" lon="1.90667">
        <ele>125.2</ele>
        <time>2023-12-10T09:29:34Z</time>
      </trkpt>
      <trkpt lat="48.61244" lon="1.9066">
        <ele>125.2</ele>
        <time>2023-12-10T09:29:35Z</time>
      </trkpt>
      <trkpt lat="48.6124" lon="1.90653">
        <ele>125.2</ele>
        <time>2023-12-10T09:29:36Z</time>
      </trkpt>
      <trkpt lat="48.61235" lon="1.90645">
        <ele>125.2</ele>
        <time>2023-12-10T09:29:37Z</time>
      </trkpt>
      <trkpt lat="48.61231" lon="1.90638">
        <ele>125.4</ele>
        <time>2023-12-10T09:29:38Z</time>
      </trkpt>
      <trkpt lat="48.61227" lon="1.9063">
        <ele>125.4</ele>
        <time>2023-12-10T09:29:39Z</time>
      </trkpt>
      <trkpt lat="48.61223" lon="1.90623">
        <ele>125.4</ele>
        <time>2023-12-10T09:29:40Z</time>
      </trkpt>
      <trkpt lat="48.61219" lon="1.90615">
        <ele>125.4</ele>
        <time>2023-12-10T09:29:41Z</time>
      </trkpt>
      <trkpt lat="48.61215" lon="1.90607">
        <ele>124.8</ele>
        <time>2023-12-10T09:29:42Z</time>
      </trkpt>
      <trkpt lat="48.61211" lon="1.906">
        <ele>124.8</ele>
        <time>2023-12-10T09:29:43Z</time>
      </trkpt>
      <trkpt lat="48.61207" lon="1.90593">
        <ele>124.8</ele>
        <time>2023-12-10T09:29:44Z</time>
      </trkpt>
      <trkpt lat="48.61203" lon="1.90585">
        <ele>124.8</ele>
        <time>2023-12-10T09:29:45Z</time>
      </trkpt>
      <trkpt lat="48.61199" lon="1.90578">
        <ele>124.6</ele>
        <time>2023-12-10T09:29:46Z</time>
      </trkpt>
      <trkpt lat="48.61195" lon="1.90571">
        <ele>124.6</ele>
        <time>2023-12-10T09:29:47Z</time>
      </trkpt>
      <trkpt lat="48.61191" lon="1.90564">
        <ele>124.6</ele>
        <time>2023-12-10T09:29:48Z</time>
      </trkpt>
      <trkpt lat="48.61187" lon="1.90557">
        <ele>125</ele>
        <time>2023-12-10T09:29:49Z</time>
      </trkpt>
      <trkpt lat="48.61183" lon="1.9055">
        <ele>125.4</ele>
        <time>2023-12-10T09:29:50Z</time>
      </trkpt>
      <trkpt lat="48.61179" lon="1.90543">
        <ele>125.4</ele>
        <time>2023-12-10T09:29:51Z</time>
      </trkpt>
      <trkpt lat="48.61175" lon="1.90536">
        <ele>125.4</ele>
        <time>2023-12-10T09:29:52Z</time>
      </trkpt>
      <trkpt lat="48.61171" lon="1.90529">
        <ele>125.4</ele>
        <time>2023-12-10T09:29:53Z</time>
      </trkpt>
      <trkpt lat="48.61168" lon="1.90522">
        <ele>125.6</ele>
        <time>2023-12-10T09:29:54Z</time>
      </trkpt>
      <trkpt lat="48.61164" lon="1.90514">
        <ele>125.6</ele>
        <time>2023-12-10T09:29:55Z</time>
      </trkpt>
      <trkpt lat="48.6116" lon="1.90507">
        <ele>125.6</ele>
        <time>2023-12-10T09:29:56Z</time>
      </trkpt>
      <trkpt lat="48.61156" lon="1.905">
        <ele>125.2</ele>
        <time>2023-12-10T09:29:57Z</time>
      </trkpt>
      <trkpt lat="48.61152" lon="1.90493">
        <ele>125</ele>
        <time>2023-12-10T09:29:58Z</time>
      </trkpt>
      <trkpt lat="48.61148" lon="1.90486">
        <ele>125</ele>
        <time>2023-12-10T09:29:59Z</time>
      </trkpt>
      <trkpt lat="48.61144" lon="1.90479">
        <ele>125</ele>
        <time>2023-12-10T09:30:00Z</time>
      </trkpt>
      <trkpt lat="48.6114" lon="1.90472">
        <ele>125.4</ele>
        <time>2023-12-10T09:30:01Z</time>
      </trkpt>
      <trkpt lat="48.61136" lon="1.90465">
        <ele>125.8</ele>
        <time>2023-12-10T09:30:02Z</time>
      </trkpt>
      <trkpt lat="48.61132" lon="1.90458">
        <ele>125.8</ele>
        <time>2023-12-10T09:30:03Z</time>
      </trkpt>
      <trkpt lat="48.61128" lon="1.90451">
        <ele>125.8</ele>
        <time>2023-12-10T09:30:04Z</time>
      </trkpt>
      <trkpt lat="48.61124" lon="1.90445">
        <ele>125.8</ele>
        <time>2023-12-10T09:30:05Z</time>
      </trkpt>
      <trkpt lat="48.61119" lon="1.9044">
        <ele>125</ele>
        <time>2023-12-10T09:30:06Z</time>
      </trkpt>
      <trkpt lat="48.61114" lon="1.90434">
        <ele>125</ele>
        <time>2023-12-10T09:30:07Z</time>
      </trkpt>
      <trkpt lat="48.61109" lon="1.90429">
        <ele>125</ele>
        <time>2023-12-10T09:30:08Z</time>
      </trkpt>
      <trkpt lat="48.61105" lon="1.90425">
        <ele>125</ele>
        <time>2023-12-10T09:30:09Z</time>
      </trkpt>
      <trkpt lat="48.611" lon="1.9042">
        <ele>126</ele>
        <time>2023-12-10T09:30:10Z</time>
      </trkpt>
      <trkpt lat="48.61095" lon="1.90414">
        <ele>126</ele>
        <time>2023-12-10T09:30:11Z</time>
      </trkpt>
      <trkpt lat="48.6109" lon="1.9041">
        <ele>126</ele>
        <time>2023-12-10T09:30:12Z</time>
      </trkpt>
      <trkpt lat="48.61086" lon="1.90405">
        <ele>126</ele>
        <time>2023-12-10T09:30:13Z</time>
      </trkpt>
      <trkpt lat="48.61081" lon="1.904">
        <ele>126</ele>
        <time>2023-12-10T09:30:14Z</time>
      </trkpt>
      <trkpt lat="48.61076" lon="1.90395">
        <ele>126</ele>
        <time>2023-12-10T09:30:15Z</time>
      </trkpt>
      <trkpt lat="48.61072" lon="1.9039">
        <ele>126</ele>
        <time>2023-12-10T09:30:16Z</time>
      </trkpt>
      <trkpt lat="48.61067" lon="1.90385">
        <ele>126</ele>
        <time>2023-12-10T09:30:17Z</time>
      </trkpt>
      <trkpt lat="48.61063" lon="1.90381">
        <ele>126.2</ele>
        <time>2023-12-10T09:30:18Z</time>
      </trkpt>
      <trkpt lat="48.61058" lon="1.90377">
        <ele>126.2</ele>
        <time>2023-12-10T09:30:19Z</time>
      </trkpt>
      <trkpt lat="48.61054" lon="1.90373">
        <ele>126.2</ele>
        <time>2023-12-10T09:30:20Z</time>
      </trkpt>
      <trkpt lat="48.6105" lon="1.90368">
        <ele>127</ele>
        <time>2023-12-10T09:30:21Z</time>
      </trkpt>
      <trkpt lat="48.61046" lon="1.90364">
        <ele>127.6</ele>
        <time>2023-12-10T09:30:22Z</time>
      </trkpt>
      <trkpt lat="48.61042" lon="1.9036">
        <ele>127.6</ele>
        <time>2023-12-10T09:30:23Z</time>
      </trkpt>
      <trkpt lat="48.61037" lon="1.90355">
        <ele>127.6</ele>
        <time>2023-12-10T09:30:24Z</time>
      </trkpt>
      <trkpt lat="48.61033" lon="1.90351">
        <ele>127.6</ele>
        <time>2023-12-10T09:30:25Z</time>
      </trkpt>
      <trkpt lat="48.61029" lon="1.90347">
        <ele>127.2</ele>
        <time>2023-12-10T09:30:26Z</time>
      </trkpt>
      <trkpt lat="48.61025" lon="1.90343">
        <ele>127.2</ele>
        <time>2023-12-10T09:30:27Z</time>
      </trkpt>
      <trkpt lat="48.6102" lon="1.90339">
        <ele>127.2</ele>
        <time>2023-12-10T09:30:28Z</time>
      </trkpt>
      <trkpt lat="48.61016" lon="1.90335">
        <ele>127.2</ele>
        <time>2023-12-10T09:30:29Z</time>
      </trkpt>
      <trkpt lat="48.61011" lon="1.90331">
        <ele>127.2</ele>
        <time>2023-12-10T09:30:30Z</time>
      </trkpt>
      <trkpt lat="48.61007" lon="1.90326">
        <ele>127.2</ele>
        <time>2023-12-10T09:30:31Z</time>
      </trkpt>
      <trkpt lat="48.61003" lon="1.90322">
        <ele>127.2</ele>
        <time>2023-12-10T09:30:32Z</time>
      </trkpt>
      <trkpt lat="48.60999" lon="1.90318">
        <ele>127.2</ele>
        <time>2023-12-10T09:30:33Z</time>
      </trkpt>
      <trkpt lat="48.60995" lon="1.90314">
        <ele>128.2</ele>
        <time>2023-12-10T09:30:34Z</time>
      </trkpt>
      <trkpt lat="48.60991" lon="1.90309">
        <ele>128.2</ele>
        <time>2023-12-10T09:30:35Z</time>
      </trkpt>
      <trkpt lat="48.60988" lon="1.90305">
        <ele>128.2</ele>
        <time>2023-12-10T09:30:36Z</time>
      </trkpt>
      <trkpt lat="48.60983" lon="1.90301">
        <ele>129</ele>
        <time>2023-12-10T09:30:37Z</time>
      </trkpt>
      <trkpt lat="48.60979" lon="1.90297">
        <ele>129.2</ele>
        <time>2023-12-10T09:30:38Z</time>
      </trkpt>
      <trkpt lat="48.60976" lon="1.90292">
        <ele>129.2</ele>
        <time>2023-12-10T09:30:39Z</time>
      </trkpt>
      <trkpt lat="48.60971" lon="1.90288">
        <ele>129.2</ele>
        <time>2023-12-10T09:30:40Z</time>
      </trkpt>
      <trkpt lat="48.60967" lon="1.90284">
        <ele>129.2</ele>
        <time>2023-12-10T09:30:41Z</time>
      </trkpt>
      <trkpt lat="48.60963" lon="1.9028">
        <ele>129</ele>
        <time>2023-12-10T09:30:42Z</time>
      </trkpt>
      <trkpt lat="48.60958" lon="1.90275">
        <ele>129</ele>
        <time>2023-12-10T09:30:43Z</time>
      </trkpt>
      <trkpt lat="48.60954" lon="1.90271">
        <ele>129</ele>
        <time>2023-12-10T09:30:44Z</time>
      </trkpt>
      <trkpt lat="48.60949" lon="1.90266">
        <ele>128.8</ele>
        <time>2023-12-10T09:30:45Z</time>
      </trkpt>
      <trkpt lat="48.60945" lon="1.90262">
        <ele>128.8</ele>
        <time>2023-12-10T09:30:46Z</time>
      </trkpt>
      <trkpt lat="48.6094" lon="1.90258">
        <ele>128.8</ele>
        <time>2023-12-10T09:30:47Z</time>
      </trkpt>
      <trkpt lat="48.60935" lon="1.90254">
        <ele>128.8</ele>
        <time>2023-12-10T09:30:48Z</time>
      </trkpt>
      <trkpt lat="48.60931" lon="1.9025">
        <ele>128.8</ele>
        <time>2023-12-10T09:30:49Z</time>
      </trkpt>
      <trkpt lat="48.60928" lon="1.90245">
        <ele>128.8</ele>
        <time>2023-12-10T09:30:50Z</time>
      </trkpt>
      <trkpt lat="48.60924" lon="1.90241">
        <ele>128.8</ele>
        <time>2023-12-10T09:30:51Z</time>
      </trkpt>
      <trkpt lat="48.60919" lon="1.90237">
        <ele>128.8</ele>
        <time>2023-12-10T09:30:52Z</time>
      </trkpt>
      <trkpt lat="48.60915" lon="1.90233">
        <ele>128.8</ele>
        <time>2023-12-10T09:30:53Z</time>
      </trkpt>
      <trkpt lat="48.60911" lon="1.9023">
        <ele>128.8</ele>
        <time>2023-12-10T09:30:54Z</time>
      </trkpt>
      <trkpt lat="48.60907" lon="1.90226">
        <ele>128.8</ele>
        <time>2023-12-10T09:30:55Z</time>
      </trkpt>
      <trkpt lat="48.60903" lon="1.90221">
        <ele>128.8</ele>
        <time>2023-12-10T09:30:56Z</time>
      </trkpt>
      <trkpt lat="48.60899" lon="1.90217">
        <ele>128.8</ele>
        <time>2023-12-10T09:30:57Z</time>
      </trkpt>
      <trkpt lat="48.60896" lon="1.90213">
        <ele>129.2</ele>
        <time>2023-12-10T09:30:58Z</time>
      </trkpt>
      <trkpt lat="48.60891" lon="1.90209">
        <ele>129.2</ele>
        <time>2023-12-10T09:30:59Z</time>
      </trkpt>
      <trkpt lat="48.60887" lon="1.90206">
        <ele>129.2</ele>
        <time>2023-12-10T09:31:00Z</time>
      </trkpt>
      <trkpt lat="48.60883" lon="1.90203">
        <ele>129.2</ele>
        <time>2023-12-10T09:31:01Z</time>
      </trkpt>
      <trkpt lat="48.60879" lon="1.90198">
        <ele>129.4</ele>
        <time>2023-12-10T09:31:02Z</time>
      </trkpt>
      <trkpt lat="48.60875" lon="1.90193">
        <ele>129.4</ele>
        <time>2023-12-10T09:31:03Z</time>
      </trkpt>
      <trkpt lat="48.60872" lon="1.90189">
        <ele>129.4</ele>
        <time>2023-12-10T09:31:04Z</time>
      </trkpt>
      <trkpt lat="48.60868" lon="1.90185">
        <ele>130.4</ele>
        <time>2023-12-10T09:31:05Z</time>
      </trkpt>
      <trkpt lat="48.60864" lon="1.90181">
        <ele>130.8</ele>
        <time>2023-12-10T09:31:06Z</time>
      </trkpt>
      <trkpt lat="48.6086" lon="1.90177">
        <ele>130.8</ele>
        <time>2023-12-10T09:31:07Z</time>
      </trkpt>
      <trkpt lat="48.60856" lon="1.90173">
        <ele>130.8</ele>
        <time>2023-12-10T09:31:08Z</time>
      </trkpt>
      <trkpt lat="48.60853" lon="1.9017">
        <ele>131.6</ele>
        <time>2023-12-10T09:31:09Z</time>
      </trkpt>
      <trkpt lat="48.6085" lon="1.90165">
        <ele>132.4</ele>
        <time>2023-12-10T09:31:10Z</time>
      </trkpt>
      <trkpt lat="48.60847" lon="1.90161">
        <ele>132.4</ele>
        <time>2023-12-10T09:31:11Z</time>
      </trkpt>
      <trkpt lat="48.60843" lon="1.90158">
        <ele>132.4</ele>
        <time>2023-12-10T09:31:12Z</time>
      </trkpt>
      <trkpt lat="48.60839" lon="1.90154">
        <ele>132</ele>
        <time>2023-12-10T09:31:13Z</time>
      </trkpt>
      <trkpt lat="48.60836" lon="1.90151">
        <ele>132</ele>
        <time>2023-12-10T09:31:14Z</time>
      </trkpt>
      <trkpt lat="48.60833" lon="1.90147">
        <ele>132</ele>
        <time>2023-12-10T09:31:15Z</time>
      </trkpt>
      <trkpt lat="48.60829" lon="1.90143">
        <ele>132</ele>
        <time>2023-12-10T09:31:16Z</time>
      </trkpt>
      <trkpt lat="48.60826" lon="1.90139">
        <ele>133</ele>
        <time>2023-12-10T09:31:17Z</time>
      </trkpt>
      <trkpt lat="48.60823" lon="1.90136">
        <ele>133.6</ele>
        <time>2023-12-10T09:31:18Z</time>
      </trkpt>
      <trkpt lat="48.6082" lon="1.90132">
        <ele>133.6</ele>
        <time>2023-12-10T09:31:19Z</time>
      </trkpt>
      <trkpt lat="48.60817" lon="1.90129">
        <ele>133.6</ele>
        <time>2023-12-10T09:31:20Z</time>
      </trkpt>
      <trkpt lat="48.60813" lon="1.90126">
        <ele>134.2</ele>
        <time>2023-12-10T09:31:21Z</time>
      </trkpt>
      <trkpt lat="48.6081" lon="1.90122">
        <ele>134.6</ele>
        <time>2023-12-10T09:31:22Z</time>
      </trkpt>
      <trkpt lat="48.60807" lon="1.90119">
        <ele>134.6</ele>
        <time>2023-12-10T09:31:23Z</time>
      </trkpt>
      <trkpt lat="48.60804" lon="1.90116">
        <ele>134.6</ele>
        <time>2023-12-10T09:31:24Z</time>
      </trkpt>
      <trkpt lat="48.60801" lon="1.90113">
        <ele>134.6</ele>
        <time>2023-12-10T09:31:25Z</time>
      </trkpt>
      <trkpt lat="48.60798" lon="1.9011">
        <ele>135</ele>
        <time>2023-12-10T09:31:26Z</time>
      </trkpt>
      <trkpt lat="48.60795" lon="1.90107">
        <ele>135</ele>
        <time>2023-12-10T09:31:27Z</time>
      </trkpt>
      <trkpt lat="48.60792" lon="1.90104">
        <ele>135</ele>
        <time>2023-12-10T09:31:28Z</time>
      </trkpt>
      <trkpt lat="48.60789" lon="1.901">
        <ele>135</ele>
        <time>2023-12-10T09:31:29Z</time>
      </trkpt>
      <trkpt lat="48.60785" lon="1.90098">
        <ele>135.2</ele>
        <time>2023-12-10T09:31:30Z</time>
      </trkpt>
      <trkpt lat="48.60782" lon="1.90095">
        <ele>135.2</ele>
        <time>2023-12-10T09:31:31Z</time>
      </trkpt>
      <trkpt lat="48.60778" lon="1.90092">
        <ele>135.2</ele>
        <time>2023-12-10T09:31:32Z</time>
      </trkpt>
      <trkpt lat="48.60775" lon="1.90089">
        <ele>136.2</ele>
        <time>2023-12-10T09:31:33Z</time>
      </trkpt>
      <trkpt lat="48.60772" lon="1.90087">
        <ele>136</ele>
        <time>2023-12-10T09:31:34Z</time>
      </trkpt>
      <trkpt lat="48.6077" lon="1.90084">
        <ele>136</ele>
        <time>2023-12-10T09:31:35Z</time>
      </trkpt>
      <trkpt lat="48.60767" lon="1.90081">
        <ele>136</ele>
        <time>2023-12-10T09:31:36Z</time>
      </trkpt>
      <trkpt lat="48.60763" lon="1.90079">
        <ele>137</ele>
        <time>2023-12-10T09:31:37Z</time>
      </trkpt>
      <trkpt lat="48.6076" lon="1.90076">
        <ele>138</ele>
        <time>2023-12-10T09:31:38Z</time>
      </trkpt>
      <trkpt lat="48.60757" lon="1.90073">
        <ele>138</ele>
        <time>2023-12-10T09:31:39Z</time>
      </trkpt>
      <trkpt lat="48.60753" lon="1.90071">
        <ele>138</ele>
        <time>2023-12-10T09:31:40Z</time>
      </trkpt>
      <trkpt lat="48.6075" lon="1.90068">
        <ele>138</ele>
        <time>2023-12-10T09:31:41Z</time>
      </trkpt>
      <trkpt lat="48.60746" lon="1.90065">
        <ele>138</ele>
        <time>2023-12-10T09:31:42Z</time>
      </trkpt>
      <trkpt lat="48.60742" lon="1.90062">
        <ele>138</ele>
        <time>2023-12-10T09:31:43Z</time>
      </trkpt>
      <trkpt lat="48.60739" lon="1.90059">
        <ele>138</ele>
        <time>2023-12-10T09:31:44Z</time>
      </trkpt>
      <trkpt lat="48.60735" lon="1.90056">
        <ele>138</ele>
        <time>2023-12-10T09:31:45Z</time>
      </trkpt>
      <trkpt lat="48.60732" lon="1.90053">
        <ele>138.2</ele>
        <time>2023-12-10T09:31:46Z</time>
      </trkpt>
      <trkpt lat="48.60728" lon="1.90051">
        <ele>138.2</ele>
        <time>2023-12-10T09:31:47Z</time>
      </trkpt>
      <trkpt lat="48.60725" lon="1.90048">
        <ele>138.2</ele>
        <time>2023-12-10T09:31:48Z</time>
      </trkpt>
      <trkpt lat="48.60721" lon="1.90045">
        <ele>139</ele>
        <time>2023-12-10T09:31:49Z</time>
      </trkpt>
      <trkpt lat="48.60718" lon="1.90042">
        <ele>139</ele>
        <time>2023-12-10T09:31:50Z</time>
      </trkpt>
      <trkpt lat="48.60715" lon="1.9004">
        <ele>139</ele>
        <time>2023-12-10T09:31:51Z</time>
      </trkpt>
      <trkpt lat="48.60711" lon="1.90037">
        <ele>139</ele>
        <time>2023-12-10T09:31:52Z</time>
      </trkpt>
      <trkpt lat="48.60707" lon="1.90034">
        <ele>139</ele>
        <time>2023-12-10T09:31:53Z</time>
      </trkpt>
      <trkpt lat="48.60704" lon="1.90031">
        <ele>139</ele>
        <time>2023-12-10T09:31:54Z</time>
      </trkpt>
      <trkpt lat="48.607" lon="1.90028">
        <ele>139</ele>
        <time>2023-12-10T09:31:55Z</time>
      </trkpt>
      <trkpt lat="48.60696" lon="1.90025">
        <ele>139</ele>
        <time>2023-12-10T09:31:56Z</time>
      </trkpt>
      <trkpt lat="48.60693" lon="1.90022">
        <ele>139.6</ele>
        <time>2023-12-10T09:31:57Z</time>
      </trkpt>
      <trkpt lat="48.60689" lon="1.90019">
        <ele>139.6</ele>
        <time>2023-12-10T09:31:58Z</time>
      </trkpt>
      <trkpt lat="48.60686" lon="1.90016">
        <ele>139.6</ele>
        <time>2023-12-10T09:31:59Z</time>
      </trkpt>
      <trkpt lat="48.60683" lon="1.90013">
        <ele>139.6</ele>
        <time>2023-12-10T09:32:00Z</time>
      </trkpt>
      <trkpt lat="48.60679" lon="1.90009">
        <ele>139.6</ele>
        <time>2023-12-10T09:32:01Z</time>
      </trkpt>
      <trkpt lat="48.60676" lon="1.90006">
        <ele>139.8</ele>
        <time>2023-12-10T09:32:02Z</time>
      </trkpt>
      <trkpt lat="48.60673" lon="1.90002">
        <ele>139.8</ele>
        <time>2023-12-10T09:32:03Z</time>
      </trkpt>
      <trkpt lat="48.6067" lon="1.9">
        <ele>139.8</ele>
        <time>2023-12-10T09:32:04Z</time>
      </trkpt>
      <trkpt lat="48.60666" lon="1.89997">
        <ele>139.8</ele>
        <time>2023-12-10T09:32:05Z</time>
      </trkpt>
      <trkpt lat="48.60663" lon="1.89994">
        <ele>139.6</ele>
        <time>2023-12-10T09:32:06Z</time>
      </trkpt>
      <trkpt lat="48.60659" lon="1.89991">
        <ele>139.6</ele>
        <time>2023-12-10T09:32:07Z</time>
      </trkpt>
      <trkpt lat="48.60656" lon="1.89988">
        <ele>139.6</ele>
        <time>2023-12-10T09:32:08Z</time>
      </trkpt>
      <trkpt lat="48.60652" lon="1.89985">
        <ele>139.6</ele>
        <time>2023-12-10T09:32:09Z</time>
      </trkpt>
      <trkpt lat="48.60648" lon="1.89981">
        <ele>139.4</ele>
        <time>2023-12-10T09:32:10Z</time>
      </trkpt>
      <trkpt lat="48.60644" lon="1.89978">
        <ele>139.4</ele>
        <time>2023-12-10T09:32:11Z</time>
      </trkpt>
      <trkpt lat="48.6064" lon="1.89977">
        <ele>139.4</ele>
        <time>2023-12-10T09:32:12Z</time>
      </trkpt>
      <trkpt lat="48.60636" lon="1.89974">
        <ele>140.2</ele>
        <time>2023-12-10T09:32:13Z</time>
      </trkpt>
      <trkpt lat="48.60632" lon="1.89971">
        <ele>139.8</ele>
        <time>2023-12-10T09:32:14Z</time>
      </trkpt>
      <trkpt lat="48.60629" lon="1.89968">
        <ele>139.8</ele>
        <time>2023-12-10T09:32:15Z</time>
      </trkpt>
      <trkpt lat="48.60625" lon="1.89965">
        <ele>139.8</ele>
        <time>2023-12-10T09:32:16Z</time>
      </trkpt>
      <trkpt lat="48.60621" lon="1.89962">
        <ele>140.2</ele>
        <time>2023-12-10T09:32:17Z</time>
      </trkpt>
      <trkpt lat="48.60618" lon="1.89959">
        <ele>140.2</ele>
        <time>2023-12-10T09:32:18Z</time>
      </trkpt>
      <trkpt lat="48.60614" lon="1.89956">
        <ele>140.2</ele>
        <time>2023-12-10T09:32:19Z</time>
      </trkpt>
      <trkpt lat="48.6061" lon="1.89952">
        <ele>140.2</ele>
        <time>2023-12-10T09:32:20Z</time>
      </trkpt>
      <trkpt lat="48.60606" lon="1.89948">
        <ele>140.2</ele>
        <time>2023-12-10T09:32:21Z</time>
      </trkpt>
      <trkpt lat="48.60603" lon="1.89944">
        <ele>141.8</ele>
        <time>2023-12-10T09:32:22Z</time>
      </trkpt>
      <trkpt lat="48.60599" lon="1.89941">
        <ele>141.8</ele>
        <time>2023-12-10T09:32:23Z</time>
      </trkpt>
      <trkpt lat="48.60594" lon="1.89938">
        <ele>141.8</ele>
        <time>2023-12-10T09:32:24Z</time>
      </trkpt>
      <trkpt lat="48.60591" lon="1.89935">
        <ele>141.8</ele>
        <time>2023-12-10T09:32:25Z</time>
      </trkpt>
      <trkpt lat="48.60587" lon="1.89931">
        <ele>141.4</ele>
        <time>2023-12-10T09:32:26Z</time>
      </trkpt>
      <trkpt lat="48.60583" lon="1.89927">
        <ele>141.4</ele>
        <time>2023-12-10T09:32:27Z</time>
      </trkpt>
      <trkpt lat="48.60579" lon="1.89924">
        <ele>141.4</ele>
        <time>2023-12-10T09:32:28Z</time>
      </trkpt>
      <trkpt lat="48.60575" lon="1.89921">
        <ele>141.6</ele>
        <time>2023-12-10T09:32:29Z</time>
      </trkpt>
      <trkpt lat="48.60571" lon="1.89917">
        <ele>141.6</ele>
        <time>2023-12-10T09:32:30Z</time>
      </trkpt>
      <trkpt lat="48.60567" lon="1.89913">
        <ele>141.6</ele>
        <time>2023-12-10T09:32:31Z</time>
      </trkpt>
      <trkpt lat="48.60563" lon="1.8991">
        <ele>141.6</ele>
        <time>2023-12-10T09:32:32Z</time>
      </trkpt>
      <trkpt lat="48.60559" lon="1.89907">
        <ele>141.6</ele>
        <time>2023-12-10T09:32:33Z</time>
      </trkpt>
      <trkpt lat="48.60554" lon="1.89904">
        <ele>141.6</ele>
        <time>2023-12-10T09:32:34Z</time>
      </trkpt>
      <trkpt lat="48.6055" lon="1.89901">
        <ele>141.6</ele>
        <time>2023-12-10T09:32:35Z</time>
      </trkpt>
      <trkpt lat="48.60545" lon="1.89898">
        <ele>141.6</ele>
        <time>2023-12-10T09:32:36Z</time>
      </trkpt>
      <trkpt lat="48.60541" lon="1.89894">
        <ele>141.6</ele>
        <time>2023-12-10T09:32:37Z</time>
      </trkpt>
      <trkpt lat="48.60538" lon="1.89891">
        <ele>142</ele>
        <time>2023-12-10T09:32:38Z</time>
      </trkpt>
      <trkpt lat="48.60534" lon="1.89887">
        <ele>142</ele>
        <time>2023-12-10T09:32:39Z</time>
      </trkpt>
      <trkpt lat="48.6053" lon="1.89884">
        <ele>142</ele>
        <time>2023-12-10T09:32:40Z</time>
      </trkpt>
      <trkpt lat="48.60526" lon="1.8988">
        <ele>142.2</ele>
        <time>2023-12-10T09:32:41Z</time>
      </trkpt>
      <trkpt lat="48.60522" lon="1.89877">
        <ele>142.2</ele>
        <time>2023-12-10T09:32:42Z</time>
      </trkpt>
      <trkpt lat="48.60518" lon="1.89873">
        <ele>142.2</ele>
        <time>2023-12-10T09:32:43Z</time>
      </trkpt>
      <trkpt lat="48.60514" lon="1.8987">
        <ele>142.2</ele>
        <time>2023-12-10T09:32:44Z</time>
      </trkpt>
      <trkpt lat="48.6051" lon="1.89866">
        <ele>142.2</ele>
        <time>2023-12-10T09:32:45Z</time>
      </trkpt>
      <trkpt lat="48.60507" lon="1.89863">
        <ele>143</ele>
        <time>2023-12-10T09:32:46Z</time>
      </trkpt>
      <trkpt lat="48.60503" lon="1.89859">
        <ele>143</ele>
        <time>2023-12-10T09:32:47Z</time>
      </trkpt>
      <trkpt lat="48.60499" lon="1.89856">
        <ele>143</ele>
        <time>2023-12-10T09:32:48Z</time>
      </trkpt>
      <trkpt lat="48.60495" lon="1.89852">
        <ele>143</ele>
        <time>2023-12-10T09:32:49Z</time>
      </trkpt>
      <trkpt lat="48.60492" lon="1.89848">
        <ele>143.2</ele>
        <time>2023-12-10T09:32:50Z</time>
      </trkpt>
      <trkpt lat="48.60489" lon="1.89845">
        <ele>143.2</ele>
        <time>2023-12-10T09:32:51Z</time>
      </trkpt>
      <trkpt lat="48.60484" lon="1.89841">
        <ele>143.2</ele>
        <time>2023-12-10T09:32:52Z</time>
      </trkpt>
      <trkpt lat="48.6048" lon="1.89838">
        <ele>143.2</ele>
        <time>2023-12-10T09:32:53Z</time>
      </trkpt>
      <trkpt lat="48.60477" lon="1.89833">
        <ele>143.2</ele>
        <time>2023-12-10T09:32:54Z</time>
      </trkpt>
      <trkpt lat="48.60472" lon="1.8983">
        <ele>143.2</ele>
        <time>2023-12-10T09:32:55Z</time>
      </trkpt>
      <trkpt lat="48.60468" lon="1.89828">
        <ele>143.2</ele>
        <time>2023-12-10T09:32:56Z</time>
      </trkpt>
      <trkpt lat="48.60465" lon="1.89825">
        <ele>144.2</ele>
        <time>2023-12-10T09:32:57Z</time>
      </trkpt>
      <trkpt lat="48.60461" lon="1.8982">
        <ele>144.2</ele>
        <time>2023-12-10T09:32:58Z</time>
      </trkpt>
      <trkpt lat="48.60457" lon="1.89817">
        <ele>144.2</ele>
        <time>2023-12-10T09:32:59Z</time>
      </trkpt>
      <trkpt lat="48.60452" lon="1.89813">
        <ele>144.2</ele>
        <time>2023-12-10T09:33:00Z</time>
      </trkpt>
      <trkpt lat="48.60449" lon="1.89808">
        <ele>143.6</ele>
        <time>2023-12-10T09:33:01Z</time>
      </trkpt>
      <trkpt lat="48.60446" lon="1.89803">
        <ele>143.6</ele>
        <time>2023-12-10T09:33:02Z</time>
      </trkpt>
      <trkpt lat="48.60441" lon="1.898">
        <ele>143.6</ele>
        <time>2023-12-10T09:33:03Z</time>
      </trkpt>
      <trkpt lat="48.60437" lon="1.89796">
        <ele>143.6</ele>
        <time>2023-12-10T09:33:04Z</time>
      </trkpt>
      <trkpt lat="48.60433" lon="1.89793">
        <ele>144.6</ele>
        <time>2023-12-10T09:33:05Z</time>
      </trkpt>
      <trkpt lat="48.60429" lon="1.8979">
        <ele>144.6</ele>
        <time>2023-12-10T09:33:06Z</time>
      </trkpt>
      <trkpt lat="48.60426" lon="1.89787">
        <ele>144.6</ele>
        <time>2023-12-10T09:33:07Z</time>
      </trkpt>
      <trkpt lat="48.60422" lon="1.89783">
        <ele>144.6</ele>
        <time>2023-12-10T09:33:08Z</time>
      </trkpt>
      <trkpt lat="48.60418" lon="1.8978">
        <ele>144.6</ele>
        <time>2023-12-10T09:33:09Z</time>
      </trkpt>
      <trkpt lat="48.60415" lon="1.89777">
        <ele>145</ele>
        <time>2023-12-10T09:33:10Z</time>
      </trkpt>
      <trkpt lat="48.60411" lon="1.89775">
        <ele>145</ele>
        <time>2023-12-10T09:33:11Z</time>
      </trkpt>
      <trkpt lat="48.60407" lon="1.89772">
        <ele>145</ele>
        <time>2023-12-10T09:33:12Z</time>
      </trkpt>
      <trkpt lat="48.60402" lon="1.8977">
        <ele>145.8</ele>
        <time>2023-12-10T09:33:13Z</time>
      </trkpt>
      <trkpt lat="48.60398" lon="1.89767">
        <ele>146.4</ele>
        <time>2023-12-10T09:33:14Z</time>
      </trkpt>
      <trkpt lat="48.60393" lon="1.89764">
        <ele>146.4</ele>
        <time>2023-12-10T09:33:15Z</time>
      </trkpt>
      <trkpt lat="48.60389" lon="1.89762">
        <ele>146.4</ele>
        <time>2023-12-10T09:33:16Z</time>
      </trkpt>
      <trkpt lat="48.60385" lon="1.89759">
        <ele>146.4</ele>
        <time>2023-12-10T09:33:17Z</time>
      </trkpt>
      <trkpt lat="48.60381" lon="1.89757">
        <ele>147.2</ele>
        <time>2023-12-10T09:33:18Z</time>
      </trkpt>
      <trkpt lat="48.60378" lon="1.89753">
        <ele>147.2</ele>
        <time>2023-12-10T09:33:19Z</time>
      </trkpt>
      <trkpt lat="48.60374" lon="1.8975">
        <ele>147.2</ele>
        <time>2023-12-10T09:33:20Z</time>
      </trkpt>
      <trkpt lat="48.6037" lon="1.89748">
        <ele>148</ele>
        <time>2023-12-10T09:33:21Z</time>
      </trkpt>
      <trkpt lat="48.60366" lon="1.89747">
        <ele>148.2</ele>
        <time>2023-12-10T09:33:22Z</time>
      </trkpt>
      <trkpt lat="48.60361" lon="1.89746">
        <ele>148.2</ele>
        <time>2023-12-10T09:33:23Z</time>
      </trkpt>
      <trkpt lat="48.60356" lon="1.89745">
        <ele>148.2</ele>
        <time>2023-12-10T09:33:24Z</time>
      </trkpt>
      <trkpt lat="48.60352" lon="1.89744">
        <ele>148.6</ele>
        <time>2023-12-10T09:33:25Z</time>
      </trkpt>
      <trkpt lat="48.60348" lon="1.89742">
        <ele>149</ele>
        <time>2023-12-10T09:33:26Z</time>
      </trkpt>
      <trkpt lat="48.60343" lon="1.8974">
        <ele>149</ele>
        <time>2023-12-10T09:33:27Z</time>
      </trkpt>
      <trkpt lat="48.6034" lon="1.89738">
        <ele>149</ele>
        <time>2023-12-10T09:33:28Z</time>
      </trkpt>
      <trkpt lat="48.60335" lon="1.89737">
        <ele>149.8</ele>
        <time>2023-12-10T09:33:29Z</time>
      </trkpt>
      <trkpt lat="48.6033" lon="1.89736">
        <ele>150.6</ele>
        <time>2023-12-10T09:33:30Z</time>
      </trkpt>
      <trkpt lat="48.60326" lon="1.89735">
        <ele>150.6</ele>
        <time>2023-12-10T09:33:31Z</time>
      </trkpt>
      <trkpt lat="48.60321" lon="1.89735">
        <ele>150.6</ele>
        <time>2023-12-10T09:33:32Z</time>
      </trkpt>
      <trkpt lat="48.60317" lon="1.89733">
        <ele>151.4</ele>
        <time>2023-12-10T09:33:33Z</time>
      </trkpt>
      <trkpt lat="48.60314" lon="1.89731">
        <ele>151.6</ele>
        <time>2023-12-10T09:33:34Z</time>
      </trkpt>
      <trkpt lat="48.60311" lon="1.89729">
        <ele>151.6</ele>
        <time>2023-12-10T09:33:35Z</time>
      </trkpt>
      <trkpt lat="48.60307" lon="1.89728">
        <ele>151.6</ele>
        <time>2023-12-10T09:33:36Z</time>
      </trkpt>
      <trkpt lat="48.60304" lon="1.89727">
        <ele>152.4</ele>
        <time>2023-12-10T09:33:37Z</time>
      </trkpt>
      <trkpt lat="48.603" lon="1.89727">
        <ele>153</ele>
        <time>2023-12-10T09:33:38Z</time>
      </trkpt>
      <trkpt lat="48.60295" lon="1.89727">
        <ele>153</ele>
        <time>2023-12-10T09:33:39Z</time>
      </trkpt>
      <trkpt lat="48.60292" lon="1.89727">
        <ele>153</ele>
        <time>2023-12-10T09:33:40Z</time>
      </trkpt>
      <trkpt lat="48.60289" lon="1.89726">
        <ele>153</ele>
        <time>2023-12-10T09:33:41Z</time>
      </trkpt>
      <trkpt lat="48.60285" lon="1.89724">
        <ele>153.4</ele>
        <time>2023-12-10T09:33:42Z</time>
      </trkpt>
      <trkpt lat="48.60282" lon="1.89724">
        <ele>153.4</ele>
        <time>2023-12-10T09:33:43Z</time>
      </trkpt>
      <trkpt lat="48.60278" lon="1.89723">
        <ele>153.4</ele>
        <time>2023-12-10T09:33:44Z</time>
      </trkpt>
      <trkpt lat="48.60275" lon="1.89722">
        <ele>154</ele>
        <time>2023-12-10T09:33:45Z</time>
      </trkpt>
      <trkpt lat="48.60271" lon="1.89722">
        <ele>154.4</ele>
        <time>2023-12-10T09:33:46Z</time>
      </trkpt>
      <trkpt lat="48.60268" lon="1.8972">
        <ele>154.4</ele>
        <time>2023-12-10T09:33:47Z</time>
      </trkpt>
      <trkpt lat="48.60265" lon="1.89719">
        <ele>154.4</ele>
        <time>2023-12-10T09:33:48Z</time>
      </trkpt>
      <trkpt lat="48.60262" lon="1.89718">
        <ele>154.8</ele>
        <time>2023-12-10T09:33:49Z</time>
      </trkpt>
      <trkpt lat="48.60259" lon="1.89717">
        <ele>154.8</ele>
        <time>2023-12-10T09:33:50Z</time>
      </trkpt>
      <trkpt lat="48.60256" lon="1.89717">
        <ele>154.8</ele>
        <time>2023-12-10T09:33:51Z</time>
      </trkpt>
      <trkpt lat="48.60252" lon="1.89716">
        <ele>154.8</ele>
        <time>2023-12-10T09:33:52Z</time>
      </trkpt>
      <trkpt lat="48.60249" lon="1.89715">
        <ele>154.8</ele>
        <time>2023-12-10T09:33:53Z</time>
      </trkpt>
      <trkpt lat="48.60246" lon="1.89714">
        <ele>155</ele>
        <time>2023-12-10T09:33:54Z</time>
      </trkpt>
      <trkpt lat="48.60244" lon="1.89713">
        <ele>155</ele>
        <time>2023-12-10T09:33:55Z</time>
      </trkpt>
      <trkpt lat="48.60241" lon="1.89711">
        <ele>155</ele>
        <time>2023-12-10T09:33:56Z</time>
      </trkpt>
      <trkpt lat="48.60238" lon="1.8971">
        <ele>156</ele>
        <time>2023-12-10T09:33:57Z</time>
      </trkpt>
      <trkpt lat="48.60236" lon="1.89708">
        <ele>156.8</ele>
        <time>2023-12-10T09:33:58Z</time>
      </trkpt>
      <trkpt lat="48.60233" lon="1.89707">
        <ele>156.8</ele>
        <time>2023-12-10T09:33:59Z</time>
      </trkpt>
      <trkpt lat="48.6023" lon="1.89706">
        <ele>156.8</ele>
        <time>2023-12-10T09:34:00Z</time>
      </trkpt>
      <trkpt lat="48.60227" lon="1.89705">
        <ele>156.8</ele>
        <time>2023-12-10T09:34:01Z</time>
      </trkpt>
      <trkpt lat="48.60225" lon="1.89704">
        <ele>157.4</ele>
        <time>2023-12-10T09:34:02Z</time>
      </trkpt>
      <trkpt lat="48.60222" lon="1.89703">
        <ele>157.4</ele>
        <time>2023-12-10T09:34:03Z</time>
      </trkpt>
      <trkpt lat="48.60219" lon="1.89701">
        <ele>157.4</ele>
        <time>2023-12-10T09:34:04Z</time>
      </trkpt>
      <trkpt lat="48.60216" lon="1.897">
        <ele>157.4</ele>
        <time>2023-12-10T09:34:05Z</time>
      </trkpt>
      <trkpt lat="48.60213" lon="1.89699">
        <ele>157.6</ele>
        <time>2023-12-10T09:34:06Z</time>
      </trkpt>
      <trkpt lat="48.60209" lon="1.89697">
        <ele>157.6</ele>
        <time>2023-12-10T09:34:07Z</time>
      </trkpt>
      <trkpt lat="48.60206" lon="1.89696">
        <ele>157.6</ele>
        <time>2023-12-10T09:34:08Z</time>
      </trkpt>
      <trkpt lat="48.60204" lon="1.89694">
        <ele>158</ele>
        <time>2023-12-10T09:34:09Z</time>
      </trkpt>
      <trkpt lat="48.602" lon="1.89693">
        <ele>157.8</ele>
        <time>2023-12-10T09:34:10Z</time>
      </trkpt>
      <trkpt lat="48.60197" lon="1.89692">
        <ele>157.8</ele>
        <time>2023-12-10T09:34:11Z</time>
      </trkpt>
      <trkpt lat="48.60194" lon="1.89691">
        <ele>157.8</ele>
        <time>2023-12-10T09:34:12Z</time>
      </trkpt>
      <trkpt lat="48.6019" lon="1.8969">
        <ele>158</ele>
        <time>2023-12-10T09:34:13Z</time>
      </trkpt>
      <trkpt lat="48.60186" lon="1.89689">
        <ele>158.6</ele>
        <time>2023-12-10T09:34:14Z</time>
      </trkpt>
      <trkpt lat="48.60183" lon="1.8969">
        <ele>158.6</ele>
        <time>2023-12-10T09:34:15Z</time>
      </trkpt>
      <trkpt lat="48.60179" lon="1.8969">
        <ele>158.6</ele>
        <time>2023-12-10T09:34:16Z</time>
      </trkpt>
      <trkpt lat="48.60175" lon="1.89692">
        <ele>158.6</ele>
        <time>2023-12-10T09:34:17Z</time>
      </trkpt>
      <trkpt lat="48.60172" lon="1.89694">
        <ele>158.6</ele>
        <time>2023-12-10T09:34:18Z</time>
      </trkpt>
      <trkpt lat="48.60169" lon="1.89697">
        <ele>158.6</ele>
        <time>2023-12-10T09:34:19Z</time>
      </trkpt>
      <trkpt lat="48.60166" lon="1.897">
        <ele>158.6</ele>
        <time>2023-12-10T09:34:20Z</time>
      </trkpt>
      <trkpt lat="48.60162" lon="1.89704">
        <ele>158.2</ele>
        <time>2023-12-10T09:34:21Z</time>
      </trkpt>
      <trkpt lat="48.60159" lon="1.89708">
        <ele>157.4</ele>
        <time>2023-12-10T09:34:22Z</time>
      </trkpt>
      <trkpt lat="48.60156" lon="1.89713">
        <ele>157.4</ele>
        <time>2023-12-10T09:34:23Z</time>
      </trkpt>
      <trkpt lat="48.60153" lon="1.89717">
        <ele>157.4</ele>
        <time>2023-12-10T09:34:24Z</time>
      </trkpt>
      <trkpt lat="48.6015" lon="1.89721">
        <ele>158.4</ele>
        <time>2023-12-10T09:34:25Z</time>
      </trkpt>
      <trkpt lat="48.60148" lon="1.89725">
        <ele>158.6</ele>
        <time>2023-12-10T09:34:26Z</time>
      </trkpt>
      <trkpt lat="48.60145" lon="1.89729">
        <ele>158.6</ele>
        <time>2023-12-10T09:34:27Z</time>
      </trkpt>
      <trkpt lat="48.60142" lon="1.89733">
        <ele>158.6</ele>
        <time>2023-12-10T09:34:28Z</time>
      </trkpt>
      <trkpt lat="48.60139" lon="1.89738">
        <ele>159.2</ele>
        <time>2023-12-10T09:34:29Z</time>
      </trkpt>
      <trkpt lat="48.60136" lon="1.89742">
        <ele>159.4</ele>
        <time>2023-12-10T09:34:30Z</time>
      </trkpt>
      <trkpt lat="48.60134" lon="1.89746">
        <ele>159.4</ele>
        <time>2023-12-10T09:34:31Z</time>
      </trkpt>
      <trkpt lat="48.60131" lon="1.8975">
        <ele>159.4</ele>
        <time>2023-12-10T09:34:32Z</time>
      </trkpt>
      <trkpt lat="48.60128" lon="1.89754">
        <ele>159.4</ele>
        <time>2023-12-10T09:34:33Z</time>
      </trkpt>
      <trkpt lat="48.60124" lon="1.89758">
        <ele>159.6</ele>
        <time>2023-12-10T09:34:34Z</time>
      </trkpt>
      <trkpt lat="48.60121" lon="1.89763">
        <ele>159.6</ele>
        <time>2023-12-10T09:34:35Z</time>
      </trkpt>
      <trkpt lat="48.60118" lon="1.89767">
        <ele>159.6</ele>
        <time>2023-12-10T09:34:36Z</time>
      </trkpt>
      <trkpt lat="48.60114" lon="1.89772">
        <ele>160</ele>
        <time>2023-12-10T09:34:37Z</time>
      </trkpt>
      <trkpt lat="48.60111" lon="1.89776">
        <ele>159.8</ele>
        <time>2023-12-10T09:34:38Z</time>
      </trkpt>
      <trkpt lat="48.60108" lon="1.89781">
        <ele>159.8</ele>
        <time>2023-12-10T09:34:39Z</time>
      </trkpt>
      <trkpt lat="48.60104" lon="1.89785">
        <ele>159.8</ele>
        <time>2023-12-10T09:34:40Z</time>
      </trkpt>
      <trkpt lat="48.60101" lon="1.8979">
        <ele>159.8</ele>
        <time>2023-12-10T09:34:41Z</time>
      </trkpt>
      <trkpt lat="48.60098" lon="1.89794">
        <ele>159.6</ele>
        <time>2023-12-10T09:34:42Z</time>
      </trkpt>
      <trkpt lat="48.60095" lon="1.89798">
        <ele>159.6</ele>
        <time>2023-12-10T09:34:43Z</time>
      </trkpt>
      <trkpt lat="48.60091" lon="1.89803">
        <ele>159.6</ele>
        <time>2023-12-10T09:34:44Z</time>
      </trkpt>
      <trkpt lat="48.60088" lon="1.89808">
        <ele>160.4</ele>
        <time>2023-12-10T09:34:45Z</time>
      </trkpt>
      <trkpt lat="48.60084" lon="1.89813">
        <ele>160.6</ele>
        <time>2023-12-10T09:34:46Z</time>
      </trkpt>
      <trkpt lat="48.60081" lon="1.89818">
        <ele>160.6</ele>
        <time>2023-12-10T09:34:47Z</time>
      </trkpt>
      <trkpt lat="48.60077" lon="1.89822">
        <ele>160.6</ele>
        <time>2023-12-10T09:34:48Z</time>
      </trkpt>
      <trkpt lat="48.60074" lon="1.89827">
        <ele>161.6</ele>
        <time>2023-12-10T09:34:49Z</time>
      </trkpt>
      <trkpt lat="48.60071" lon="1.89831">
        <ele>162</ele>
        <time>2023-12-10T09:34:50Z</time>
      </trkpt>
      <trkpt lat="48.60068" lon="1.89835">
        <ele>162</ele>
        <time>2023-12-10T09:34:51Z</time>
      </trkpt>
      <trkpt lat="48.60064" lon="1.89839">
        <ele>162</ele>
        <time>2023-12-10T09:34:52Z</time>
      </trkpt>
      <trkpt lat="48.60061" lon="1.89844">
        <ele>162</ele>
        <time>2023-12-10T09:34:53Z</time>
      </trkpt>
      <trkpt lat="48.60058" lon="1.89849">
        <ele>162.6</ele>
        <time>2023-12-10T09:34:54Z</time>
      </trkpt>
      <trkpt lat="48.60055" lon="1.89853">
        <ele>162.6</ele>
        <time>2023-12-10T09:34:55Z</time>
      </trkpt>
      <trkpt lat="48.60052" lon="1.89857">
        <ele>162.6</ele>
        <time>2023-12-10T09:34:56Z</time>
      </trkpt>
      <trkpt lat="48.60048" lon="1.89862">
        <ele>162.6</ele>
        <time>2023-12-10T09:34:57Z</time>
      </trkpt>
      <trkpt lat="48.60044" lon="1.89868">
        <ele>162.6</ele>
        <time>2023-12-10T09:34:58Z</time>
      </trkpt>
      <trkpt lat="48.6004" lon="1.89874">
        <ele>162.6</ele>
        <time>2023-12-10T09:34:59Z</time>
      </trkpt>
      <trkpt lat="48.60036" lon="1.89879">
        <ele>162.6</ele>
        <time>2023-12-10T09:35:00Z</time>
      </trkpt>
      <trkpt lat="48.60033" lon="1.89883">
        <ele>162.6</ele>
        <time>2023-12-10T09:35:01Z</time>
      </trkpt>
      <trkpt lat="48.6003" lon="1.89888">
        <ele>161.6</ele>
        <time>2023-12-10T09:35:02Z</time>
      </trkpt>
      <trkpt lat="48.60026" lon="1.89892">
        <ele>161.6</ele>
        <time>2023-12-10T09:35:03Z</time>
      </trkpt>
      <trkpt lat="48.60022" lon="1.89897">
        <ele>161.6</ele>
        <time>2023-12-10T09:35:04Z</time>
      </trkpt>
      <trkpt lat="48.60019" lon="1.89902">
        <ele>162.6</ele>
        <time>2023-12-10T09:35:05Z</time>
      </trkpt>
      <trkpt lat="48.60014" lon="1.89907">
        <ele>162.6</ele>
        <time>2023-12-10T09:35:06Z</time>
      </trkpt>
      <trkpt lat="48.60011" lon="1.89913">
        <ele>162.6</ele>
        <time>2023-12-10T09:35:07Z</time>
      </trkpt>
      <trkpt lat="48.60007" lon="1.89917">
        <ele>162.6</ele>
        <time>2023-12-10T09:35:08Z</time>
      </trkpt>
      <trkpt lat="48.60003" lon="1.89921">
        <ele>163.2</ele>
        <time>2023-12-10T09:35:09Z</time>
      </trkpt>
      <trkpt lat="48.59999" lon="1.89926">
        <ele>163</ele>
        <time>2023-12-10T09:35:10Z</time>
      </trkpt>
      <trkpt lat="48.59996" lon="1.8993">
        <ele>163</ele>
        <time>2023-12-10T09:35:11Z</time>
      </trkpt>
      <trkpt lat="48.59991" lon="1.89935">
        <ele>163</ele>
        <time>2023-12-10T09:35:12Z</time>
      </trkpt>
      <trkpt lat="48.59987" lon="1.8994">
        <ele>163</ele>
        <time>2023-12-10T09:35:13Z</time>
      </trkpt>
      <trkpt lat="48.59983" lon="1.89944">
        <ele>162.8</ele>
        <time>2023-12-10T09:35:14Z</time>
      </trkpt>
      <trkpt lat="48.59979" lon="1.89949">
        <ele>162.8</ele>
        <time>2023-12-10T09:35:15Z</time>
      </trkpt>
      <trkpt lat="48.59976" lon="1.89953">
        <ele>162.8</ele>
        <time>2023-12-10T09:35:16Z</time>
      </trkpt>
      <trkpt lat="48.59972" lon="1.89955">
        <ele>162.8</ele>
        <time>2023-12-10T09:35:17Z</time>
      </trkpt>
      <trkpt lat="48.59968" lon="1.89958">
        <ele>162.6</ele>
        <time>2023-12-10T09:35:18Z</time>
      </trkpt>
      <trkpt lat="48.59964" lon="1.89962">
        <ele>162.6</ele>
        <time>2023-12-10T09:35:19Z</time>
      </trkpt>
      <trkpt lat="48.5996" lon="1.89966">
        <ele>162.6</ele>
        <time>2023-12-10T09:35:20Z</time>
      </trkpt>
      <trkpt lat="48.59956" lon="1.89969">
        <ele>162.6</ele>
        <time>2023-12-10T09:35:21Z</time>
      </trkpt>
      <trkpt lat="48.59952" lon="1.89973">
        <ele>162.4</ele>
        <time>2023-12-10T09:35:22Z</time>
      </trkpt>
      <trkpt lat="48.59948" lon="1.89978">
        <ele>162.4</ele>
        <time>2023-12-10T09:35:23Z</time>
      </trkpt>
      <trkpt lat="48.59944" lon="1.89982">
        <ele>162.4</ele>
        <time>2023-12-10T09:35:24Z</time>
      </trkpt>
      <trkpt lat="48.5994" lon="1.89985">
        <ele>162.4</ele>
        <time>2023-12-10T09:35:25Z</time>
      </trkpt>
      <trkpt lat="48.59936" lon="1.89991">
        <ele>162.8</ele>
        <time>2023-12-10T09:35:26Z</time>
      </trkpt>
      <trkpt lat="48.59931" lon="1.89996">
        <ele>162.8</ele>
        <time>2023-12-10T09:35:27Z</time>
      </trkpt>
      <trkpt lat="48.59927" lon="1.90001">
        <ele>162.8</ele>
        <time>2023-12-10T09:35:28Z</time>
      </trkpt>
      <trkpt lat="48.59923" lon="1.90005">
        <ele>162.8</ele>
        <time>2023-12-10T09:35:29Z</time>
      </trkpt>
      <trkpt lat="48.59919" lon="1.90009">
        <ele>163.2</ele>
        <time>2023-12-10T09:35:30Z</time>
      </trkpt>
      <trkpt lat="48.59915" lon="1.90012">
        <ele>163.2</ele>
        <time>2023-12-10T09:35:31Z</time>
      </trkpt>
      <trkpt lat="48.59912" lon="1.90017">
        <ele>163.2</ele>
        <time>2023-12-10T09:35:32Z</time>
      </trkpt>
      <trkpt lat="48.59907" lon="1.90021">
        <ele>163.2</ele>
        <time>2023-12-10T09:35:33Z</time>
      </trkpt>
      <trkpt lat="48.59903" lon="1.90025">
        <ele>163</ele>
        <time>2023-12-10T09:35:34Z</time>
      </trkpt>
      <trkpt lat="48.599" lon="1.90028">
        <ele>163</ele>
        <time>2023-12-10T09:35:35Z</time>
      </trkpt>
      <trkpt lat="48.59895" lon="1.90033">
        <ele>163</ele>
        <time>2023-12-10T09:35:36Z</time>
      </trkpt>
      <trkpt lat="48.59892" lon="1.90036">
        <ele>163</ele>
        <time>2023-12-10T09:35:37Z</time>
      </trkpt>
      <trkpt lat="48.59888" lon="1.90039">
        <ele>163.2</ele>
        <time>2023-12-10T09:35:38Z</time>
      </trkpt>
      <trkpt lat="48.59882" lon="1.90045">
        <ele>163.2</ele>
        <time>2023-12-10T09:35:39Z</time>
      </trkpt>
      <trkpt lat="48.59878" lon="1.9005">
        <ele>163.2</ele>
        <time>2023-12-10T09:35:40Z</time>
      </trkpt>
      <trkpt lat="48.59874" lon="1.90055">
        <ele>163.2</ele>
        <time>2023-12-10T09:35:41Z</time>
      </trkpt>
      <trkpt lat="48.59869" lon="1.9006">
        <ele>162.6</ele>
        <time>2023-12-10T09:35:42Z</time>
      </trkpt>
      <trkpt lat="48.59865" lon="1.90065">
        <ele>162.6</ele>
        <time>2023-12-10T09:35:43Z</time>
      </trkpt>
      <trkpt lat="48.59861" lon="1.90068">
        <ele>162.6</ele>
        <time>2023-12-10T09:35:44Z</time>
      </trkpt>
      <trkpt lat="48.59856" lon="1.90073">
        <ele>162.8</ele>
        <time>2023-12-10T09:35:45Z</time>
      </trkpt>
      <trkpt lat="48.59851" lon="1.90078">
        <ele>163.4</ele>
        <time>2023-12-10T09:35:46Z</time>
      </trkpt>
      <trkpt lat="48.59847" lon="1.90081">
        <ele>163.4</ele>
        <time>2023-12-10T09:35:47Z</time>
      </trkpt>
      <trkpt lat="48.59843" lon="1.90086">
        <ele>163.4</ele>
        <time>2023-12-10T09:35:48Z</time>
      </trkpt>
      <trkpt lat="48.59838" lon="1.90092">
        <ele>163</ele>
        <time>2023-12-10T09:35:49Z</time>
      </trkpt>
      <trkpt lat="48.59834" lon="1.90096">
        <ele>163</ele>
        <time>2023-12-10T09:35:50Z</time>
      </trkpt>
      <trkpt lat="48.59828" lon="1.90102">
        <ele>163</ele>
        <time>2023-12-10T09:35:51Z</time>
      </trkpt>
      <trkpt lat="48.59824" lon="1.90108">
        <ele>163</ele>
        <time>2023-12-10T09:35:52Z</time>
      </trkpt>
      <trkpt lat="48.59818" lon="1.90115">
        <ele>163</ele>
        <time>2023-12-10T09:35:53Z</time>
      </trkpt>
      <trkpt lat="48.59813" lon="1.9012">
        <ele>163</ele>
        <time>2023-12-10T09:35:54Z</time>
      </trkpt>
      <trkpt lat="48.59809" lon="1.90126">
        <ele>163</ele>
        <time>2023-12-10T09:35:55Z</time>
      </trkpt>
      <trkpt lat="48.59803" lon="1.90132">
        <ele>163</ele>
        <time>2023-12-10T09:35:56Z</time>
      </trkpt>
      <trkpt lat="48.59799" lon="1.90137">
        <ele>163.2</ele>
        <time>2023-12-10T09:35:57Z</time>
      </trkpt>
      <trkpt lat="48.59793" lon="1.90144">
        <ele>163.6</ele>
        <time>2023-12-10T09:35:58Z</time>
      </trkpt>
      <trkpt lat="48.59788" lon="1.9015">
        <ele>163.6</ele>
        <time>2023-12-10T09:35:59Z</time>
      </trkpt>
      <trkpt lat="48.59782" lon="1.90158">
        <ele>163.6</ele>
        <time>2023-12-10T09:36:00Z</time>
      </trkpt>
      <trkpt lat="48.59777" lon="1.90163">
        <ele>163.4</ele>
        <time>2023-12-10T09:36:01Z</time>
      </trkpt>
      <trkpt lat="48.59772" lon="1.90169">
        <ele>163.4</ele>
        <time>2023-12-10T09:36:02Z</time>
      </trkpt>
      <trkpt lat="48.59768" lon="1.90174">
        <ele>163.4</ele>
        <time>2023-12-10T09:36:03Z</time>
      </trkpt>
      <trkpt lat="48.59762" lon="1.9018">
        <ele>163.4</ele>
        <time>2023-12-10T09:36:04Z</time>
      </trkpt>
      <trkpt lat="48.59757" lon="1.90186">
        <ele>163.4</ele>
        <time>2023-12-10T09:36:05Z</time>
      </trkpt>
      <trkpt lat="48.59752" lon="1.90191">
        <ele>163.4</ele>
        <time>2023-12-10T09:36:06Z</time>
      </trkpt>
      <trkpt lat="48.59747" lon="1.90197">
        <ele>163.4</ele>
        <time>2023-12-10T09:36:07Z</time>
      </trkpt>
      <trkpt lat="48.59743" lon="1.90201">
        <ele>163.4</ele>
        <time>2023-12-10T09:36:08Z</time>
      </trkpt>
      <trkpt lat="48.59737" lon="1.90207">
        <ele>164.2</ele>
        <time>2023-12-10T09:36:09Z</time>
      </trkpt>
      <trkpt lat="48.59732" lon="1.90213">
        <ele>164.2</ele>
        <time>2023-12-10T09:36:10Z</time>
      </trkpt>
      <trkpt lat="48.59728" lon="1.90218">
        <ele>164.2</ele>
        <time>2023-12-10T09:36:11Z</time>
      </trkpt>
      <trkpt lat="48.59723" lon="1.90223">
        <ele>164.2</ele>
        <time>2023-12-10T09:36:12Z</time>
      </trkpt>
      <trkpt lat="48.59718" lon="1.90227">
        <ele>164</ele>
        <time>2023-12-10T09:36:13Z</time>
      </trkpt>
      <trkpt lat="48.59714" lon="1.90233">
        <ele>164.4</ele>
        <time>2023-12-10T09:36:14Z</time>
      </trkpt>
      <trkpt lat="48.59709" lon="1.90238">
        <ele>164.4</ele>
        <time>2023-12-10T09:36:15Z</time>
      </trkpt>
      <trkpt lat="48.59704" lon="1.90244">
        <ele>164.4</ele>
        <time>2023-12-10T09:36:16Z</time>
      </trkpt>
      <trkpt lat="48.59699" lon="1.9025">
        <ele>164.4</ele>
        <time>2023-12-10T09:36:17Z</time>
      </trkpt>
      <trkpt lat="48.59694" lon="1.90256">
        <ele>164.2</ele>
        <time>2023-12-10T09:36:18Z</time>
      </trkpt>
      <trkpt lat="48.5969" lon="1.90261">
        <ele>164.2</ele>
        <time>2023-12-10T09:36:19Z</time>
      </trkpt>
      <trkpt lat="48.59686" lon="1.90266">
        <ele>164.2</ele>
        <time>2023-12-10T09:36:20Z</time>
      </trkpt>
      <trkpt lat="48.59681" lon="1.9027">
        <ele>164.2</ele>
        <time>2023-12-10T09:36:21Z</time>
      </trkpt>
      <trkpt lat="48.59677" lon="1.90275">
        <ele>164.4</ele>
        <time>2023-12-10T09:36:22Z</time>
      </trkpt>
      <trkpt lat="48.59673" lon="1.90279">
        <ele>164.4</ele>
        <time>2023-12-10T09:36:23Z</time>
      </trkpt>
      <trkpt lat="48.59668" lon="1.90285">
        <ele>164.4</ele>
        <time>2023-12-10T09:36:24Z</time>
      </trkpt>
      <trkpt lat="48.59664" lon="1.90288">
        <ele>165.4</ele>
        <time>2023-12-10T09:36:25Z</time>
      </trkpt>
      <trkpt lat="48.5966" lon="1.90293">
        <ele>165.8</ele>
        <time>2023-12-10T09:36:26Z</time>
      </trkpt>
      <trkpt lat="48.59657" lon="1.90297">
        <ele>165.8</ele>
        <time>2023-12-10T09:36:27Z</time>
      </trkpt>
      <trkpt lat="48.59653" lon="1.90301">
        <ele>165.8</ele>
        <time>2023-12-10T09:36:28Z</time>
      </trkpt>
      <trkpt lat="48.59649" lon="1.90303">
        <ele>165.8</ele>
        <time>2023-12-10T09:36:29Z</time>
      </trkpt>
      <trkpt lat="48.59644" lon="1.90309">
        <ele>165.8</ele>
        <time>2023-12-10T09:36:30Z</time>
      </trkpt>
      <trkpt lat="48.59639" lon="1.90314">
        <ele>165.8</ele>
        <time>2023-12-10T09:36:31Z</time>
      </trkpt>
      <trkpt lat="48.59635" lon="1.90318">
        <ele>165.8</ele>
        <time>2023-12-10T09:36:32Z</time>
      </trkpt>
      <trkpt lat="48.59631" lon="1.90321">
        <ele>165.8</ele>
        <time>2023-12-10T09:36:33Z</time>
      </trkpt>
      <trkpt lat="48.59627" lon="1.90327">
        <ele>166</ele>
        <time>2023-12-10T09:36:34Z</time>
      </trkpt>
      <trkpt lat="48.59623" lon="1.9033">
        <ele>166</ele>
        <time>2023-12-10T09:36:35Z</time>
      </trkpt>
      <trkpt lat="48.59619" lon="1.90334">
        <ele>166</ele>
        <time>2023-12-10T09:36:36Z</time>
      </trkpt>
      <trkpt lat="48.59615" lon="1.90339">
        <ele>166.2</ele>
        <time>2023-12-10T09:36:37Z</time>
      </trkpt>
      <trkpt lat="48.59609" lon="1.90343">
        <ele>166.6</ele>
        <time>2023-12-10T09:36:38Z</time>
      </trkpt>
      <trkpt lat="48.59605" lon="1.90346">
        <ele>166.6</ele>
        <time>2023-12-10T09:36:39Z</time>
      </trkpt>
      <trkpt lat="48.59601" lon="1.9035">
        <ele>166.6</ele>
        <time>2023-12-10T09:36:40Z</time>
      </trkpt>
      <trkpt lat="48.59596" lon="1.90355">
        <ele>166</ele>
        <time>2023-12-10T09:36:41Z</time>
      </trkpt>
      <trkpt lat="48.59592" lon="1.9036">
        <ele>166</ele>
        <time>2023-12-10T09:36:42Z</time>
      </trkpt>
      <trkpt lat="48.59587" lon="1.90364">
        <ele>166</ele>
        <time>2023-12-10T09:36:43Z</time>
      </trkpt>
      <trkpt lat="48.59582" lon="1.90367">
        <ele>166</ele>
        <time>2023-12-10T09:36:44Z</time>
      </trkpt>
      <trkpt lat="48.59579" lon="1.90371">
        <ele>166</ele>
        <time>2023-12-10T09:36:45Z</time>
      </trkpt>
      <trkpt lat="48.59575" lon="1.90375">
        <ele>166</ele>
        <time>2023-12-10T09:36:46Z</time>
      </trkpt>
      <trkpt lat="48.59571" lon="1.90381">
        <ele>166</ele>
        <time>2023-12-10T09:36:47Z</time>
      </trkpt>
      <trkpt lat="48.59566" lon="1.90387">
        <ele>166</ele>
        <time>2023-12-10T09:36:48Z</time>
      </trkpt>
      <trkpt lat="48.5956" lon="1.90394">
        <ele>166</ele>
        <time>2023-12-10T09:36:49Z</time>
      </trkpt>
      <trkpt lat="48.59556" lon="1.904">
        <ele>165.6</ele>
        <time>2023-12-10T09:36:50Z</time>
      </trkpt>
      <trkpt lat="48.59551" lon="1.90404">
        <ele>165.6</ele>
        <time>2023-12-10T09:36:51Z</time>
      </trkpt>
      <trkpt lat="48.59546" lon="1.90411">
        <ele>165.6</ele>
        <time>2023-12-10T09:36:52Z</time>
      </trkpt>
      <trkpt lat="48.59542" lon="1.90416">
        <ele>165.6</ele>
        <time>2023-12-10T09:36:53Z</time>
      </trkpt>
      <trkpt lat="48.59537" lon="1.9042">
        <ele>165.4</ele>
        <time>2023-12-10T09:36:54Z</time>
      </trkpt>
      <trkpt lat="48.59533" lon="1.90424">
        <ele>165.4</ele>
        <time>2023-12-10T09:36:55Z</time>
      </trkpt>
      <trkpt lat="48.59528" lon="1.9043">
        <ele>165.4</ele>
        <time>2023-12-10T09:36:56Z</time>
      </trkpt>
      <trkpt lat="48.59521" lon="1.90436">
        <ele>165.4</ele>
        <time>2023-12-10T09:36:57Z</time>
      </trkpt>
      <trkpt lat="48.59515" lon="1.90441">
        <ele>164.2</ele>
        <time>2023-12-10T09:36:58Z</time>
      </trkpt>
      <trkpt lat="48.59509" lon="1.90447">
        <ele>164.2</ele>
        <time>2023-12-10T09:36:59Z</time>
      </trkpt>
      <trkpt lat="48.59503" lon="1.90451">
        <ele>164.2</ele>
        <time>2023-12-10T09:37:00Z</time>
      </trkpt>
      <trkpt lat="48.59498" lon="1.90456">
        <ele>163.8</ele>
        <time>2023-12-10T09:37:01Z</time>
      </trkpt>
      <trkpt lat="48.59492" lon="1.90461">
        <ele>164.2</ele>
        <time>2023-12-10T09:37:02Z</time>
      </trkpt>
      <trkpt lat="48.59487" lon="1.90465">
        <ele>164.2</ele>
        <time>2023-12-10T09:37:03Z</time>
      </trkpt>
      <trkpt lat="48.59482" lon="1.9047">
        <ele>164.2</ele>
        <time>2023-12-10T09:37:04Z</time>
      </trkpt>
      <trkpt lat="48.59477" lon="1.90473">
        <ele>164.2</ele>
        <time>2023-12-10T09:37:05Z</time>
      </trkpt>
      <trkpt lat="48.59471" lon="1.90482">
        <ele>165</ele>
        <time>2023-12-10T09:37:06Z</time>
      </trkpt>
      <trkpt lat="48.59467" lon="1.90487">
        <ele>165</ele>
        <time>2023-12-10T09:37:07Z</time>
      </trkpt>
      <trkpt lat="48.59461" lon="1.90492">
        <ele>165</ele>
        <time>2023-12-10T09:37:08Z</time>
      </trkpt>
      <trkpt lat="48.59456" lon="1.90497">
        <ele>165.4</ele>
        <time>2023-12-10T09:37:09Z</time>
      </trkpt>
      <trkpt lat="48.59452" lon="1.90501">
        <ele>165.8</ele>
        <time>2023-12-10T09:37:10Z</time>
      </trkpt>
      <trkpt lat="48.59447" lon="1.90507">
        <ele>165.8</ele>
        <time>2023-12-10T09:37:11Z</time>
      </trkpt>
      <trkpt lat="48.59442" lon="1.90512">
        <ele>165.8</ele>
        <time>2023-12-10T09:37:12Z</time>
      </trkpt>
      <trkpt lat="48.59437" lon="1.90515">
        <ele>165.8</ele>
        <time>2023-12-10T09:37:13Z</time>
      </trkpt>
      <trkpt lat="48.59433" lon="1.9052">
        <ele>165.6</ele>
        <time>2023-12-10T09:37:14Z</time>
      </trkpt>
      <trkpt lat="48.59429" lon="1.90526">
        <ele>165.6</ele>
        <time>2023-12-10T09:37:15Z</time>
      </trkpt>
      <trkpt lat="48.59424" lon="1.90531">
        <ele>165.6</ele>
        <time>2023-12-10T09:37:16Z</time>
      </trkpt>
      <trkpt lat="48.5942" lon="1.90536">
        <ele>166.2</ele>
        <time>2023-12-10T09:37:17Z</time>
      </trkpt>
      <trkpt lat="48.59415" lon="1.90542">
        <ele>165.6</ele>
        <time>2023-12-10T09:37:18Z</time>
      </trkpt>
      <trkpt lat="48.5941" lon="1.90547">
        <ele>165.6</ele>
        <time>2023-12-10T09:37:19Z</time>
      </trkpt>
      <trkpt lat="48.59405" lon="1.90554">
        <ele>165.6</ele>
        <time>2023-12-10T09:37:20Z</time>
      </trkpt>
      <trkpt lat="48.59401" lon="1.90559">
        <ele>165.6</ele>
        <time>2023-12-10T09:37:21Z</time>
      </trkpt>
      <trkpt lat="48.59396" lon="1.90565">
        <ele>165.4</ele>
        <time>2023-12-10T09:37:22Z</time>
      </trkpt>
      <trkpt lat="48.59391" lon="1.9057">
        <ele>165.4</ele>
        <time>2023-12-10T09:37:23Z</time>
      </trkpt>
      <trkpt lat="48.59387" lon="1.90575">
        <ele>165.4</ele>
        <time>2023-12-10T09:37:24Z</time>
      </trkpt>
      <trkpt lat="48.5938" lon="1.9058">
        <ele>165.4</ele>
        <time>2023-12-10T09:37:25Z</time>
      </trkpt>
      <trkpt lat="48.59374" lon="1.90583">
        <ele>164.8</ele>
        <time>2023-12-10T09:37:26Z</time>
      </trkpt>
      <trkpt lat="48.59369" lon="1.90583">
        <ele>164.8</ele>
        <time>2023-12-10T09:37:27Z</time>
      </trkpt>
      <trkpt lat="48.59363" lon="1.90583">
        <ele>164.8</ele>
        <time>2023-12-10T09:37:28Z</time>
      </trkpt>
      <trkpt lat="48.59358" lon="1.90581">
        <ele>165</ele>
        <time>2023-12-10T09:37:29Z</time>
      </trkpt>
      <trkpt lat="48.59356" lon="1.90577">
        <ele>165.4</ele>
        <time>2023-12-10T09:37:30Z</time>
      </trkpt>
      <trkpt lat="48.59353" lon="1.90574">
        <ele>165.4</ele>
        <time>2023-12-10T09:37:31Z</time>
      </trkpt>
      <trkpt lat="48.59349" lon="1.90572">
        <ele>165.4</ele>
        <time>2023-12-10T09:37:32Z</time>
      </trkpt>
      <trkpt lat="48.59344" lon="1.9057">
        <ele>165.4</ele>
        <time>2023-12-10T09:37:33Z</time>
      </trkpt>
      <trkpt lat="48.5934" lon="1.90567">
        <ele>164.6</ele>
        <time>2023-12-10T09:37:34Z</time>
      </trkpt>
      <trkpt lat="48.59337" lon="1.90562">
        <ele>164.6</ele>
        <time>2023-12-10T09:37:35Z</time>
      </trkpt>
      <trkpt lat="48.59333" lon="1.90557">
        <ele>164.6</ele>
        <time>2023-12-10T09:37:36Z</time>
      </trkpt>
      <trkpt lat="48.5933" lon="1.90553">
        <ele>164.8</ele>
        <time>2023-12-10T09:37:37Z</time>
      </trkpt>
      <trkpt lat="48.59327" lon="1.90547">
        <ele>165.4</ele>
        <time>2023-12-10T09:37:38Z</time>
      </trkpt>
      <trkpt lat="48.59324" lon="1.9054">
        <ele>165.4</ele>
        <time>2023-12-10T09:37:39Z</time>
      </trkpt>
      <trkpt lat="48.59321" lon="1.90534">
        <ele>165.4</ele>
        <time>2023-12-10T09:37:40Z</time>
      </trkpt>
      <trkpt lat="48.59318" lon="1.90529">
        <ele>165.4</ele>
        <time>2023-12-10T09:37:41Z</time>
      </trkpt>
      <trkpt lat="48.59314" lon="1.90522">
        <ele>165</ele>
        <time>2023-12-10T09:37:42Z</time>
      </trkpt>
      <trkpt lat="48.59312" lon="1.90514">
        <ele>165</ele>
        <time>2023-12-10T09:37:43Z</time>
      </trkpt>
      <trkpt lat="48.59308" lon="1.90509">
        <ele>165</ele>
        <time>2023-12-10T09:37:44Z</time>
      </trkpt>
      <trkpt lat="48.59305" lon="1.90503">
        <ele>165</ele>
        <time>2023-12-10T09:37:45Z</time>
      </trkpt>
      <trkpt lat="48.59302" lon="1.905">
        <ele>164.4</ele>
        <time>2023-12-10T09:37:46Z</time>
      </trkpt>
      <trkpt lat="48.59301" lon="1.90495">
        <ele>164.4</ele>
        <time>2023-12-10T09:37:47Z</time>
      </trkpt>
      <trkpt lat="48.59299" lon="1.90489">
        <ele>164.4</ele>
        <time>2023-12-10T09:37:48Z</time>
      </trkpt>
      <trkpt lat="48.59296" lon="1.90482">
        <ele>164.4</ele>
        <time>2023-12-10T09:37:49Z</time>
      </trkpt>
      <trkpt lat="48.59293" lon="1.90478">
        <ele>164.4</ele>
        <time>2023-12-10T09:37:50Z</time>
      </trkpt>
      <trkpt lat="48.59291" lon="1.90473">
        <ele>164.4</ele>
        <time>2023-12-10T09:37:51Z</time>
      </trkpt>
      <trkpt lat="48.59288" lon="1.90465">
        <ele>164.4</ele>
        <time>2023-12-10T09:37:52Z</time>
      </trkpt>
      <trkpt lat="48.59285" lon="1.90457">
        <ele>164.4</ele>
        <time>2023-12-10T09:37:53Z</time>
      </trkpt>
      <trkpt lat="48.59282" lon="1.9045">
        <ele>165</ele>
        <time>2023-12-10T09:37:54Z</time>
      </trkpt>
      <trkpt lat="48.59279" lon="1.90442">
        <ele>165</ele>
        <time>2023-12-10T09:37:55Z</time>
      </trkpt>
      <trkpt lat="48.59275" lon="1.90434">
        <ele>165</ele>
        <time>2023-12-10T09:37:56Z</time>
      </trkpt>
      <trkpt lat="48.59272" lon="1.90428">
        <ele>164</ele>
        <time>2023-12-10T09:37:57Z</time>
      </trkpt>
      <trkpt lat="48.59269" lon="1.90421">
        <ele>162.4</ele>
        <time>2023-12-10T09:37:58Z</time>
      </trkpt>
      <trkpt lat="48.59266" lon="1.90413">
        <ele>162.4</ele>
        <time>2023-12-10T09:37:59Z</time>
      </trkpt>
      <trkpt lat="48.59263" lon="1.90406">
        <ele>162.4</ele>
        <time>2023-12-10T09:38:00Z</time>
      </trkpt>
      <trkpt lat="48.5926" lon="1.90398">
        <ele>162.8</ele>
        <time>2023-12-10T09:38:01Z</time>
      </trkpt>
      <trkpt lat="48.59257" lon="1.9039">
        <ele>163</ele>
        <time>2023-12-10T09:38:02Z</time>
      </trkpt>
      <trkpt lat="48.59255" lon="1.90384">
        <ele>163</ele>
        <time>2023-12-10T09:38:03Z</time>
      </trkpt>
      <trkpt lat="48.59252" lon="1.90377">
        <ele>163</ele>
        <time>2023-12-10T09:38:04Z</time>
      </trkpt>
      <trkpt lat="48.59249" lon="1.90368">
        <ele>163</ele>
        <time>2023-12-10T09:38:05Z</time>
      </trkpt>
      <trkpt lat="48.59246" lon="1.90361">
        <ele>163.2</ele>
        <time>2023-12-10T09:38:06Z</time>
      </trkpt>
      <trkpt lat="48.59243" lon="1.90355">
        <ele>163.2</ele>
        <time>2023-12-10T09:38:07Z</time>
      </trkpt>
      <trkpt lat="48.5924" lon="1.90347">
        <ele>163.2</ele>
        <time>2023-12-10T09:38:08Z</time>
      </trkpt>
      <trkpt lat="48.59238" lon="1.9034">
        <ele>162.6</ele>
        <time>2023-12-10T09:38:09Z</time>
      </trkpt>
      <trkpt lat="48.59236" lon="1.90333">
        <ele>163.4</ele>
        <time>2023-12-10T09:38:10Z</time>
      </trkpt>
      <trkpt lat="48.59233" lon="1.90326">
        <ele>163.4</ele>
        <time>2023-12-10T09:38:11Z</time>
      </trkpt>
      <trkpt lat="48.5923" lon="1.90319">
        <ele>163.4</ele>
        <time>2023-12-10T09:38:12Z</time>
      </trkpt>
      <trkpt lat="48.59225" lon="1.90312">
        <ele>163.4</ele>
        <time>2023-12-10T09:38:13Z</time>
      </trkpt>
      <trkpt lat="48.5922" lon="1.90308">
        <ele>163.4</ele>
        <time>2023-12-10T09:38:14Z</time>
      </trkpt>
      <trkpt lat="48.59215" lon="1.90306">
        <ele>163.4</ele>
        <time>2023-12-10T09:38:15Z</time>
      </trkpt>
      <trkpt lat="48.59209" lon="1.90307">
        <ele>163.4</ele>
        <time>2023-12-10T09:38:16Z</time>
      </trkpt>
      <trkpt lat="48.59204" lon="1.90308">
        <ele>163.4</ele>
        <time>2023-12-10T09:38:17Z</time>
      </trkpt>
      <trkpt lat="48.59198" lon="1.90309">
        <ele>161.2</ele>
        <time>2023-12-10T09:38:18Z</time>
      </trkpt>
      <trkpt lat="48.59192" lon="1.90308">
        <ele>161.2</ele>
        <time>2023-12-10T09:38:19Z</time>
      </trkpt>
      <trkpt lat="48.59187" lon="1.90303">
        <ele>161.2</ele>
        <time>2023-12-10T09:38:20Z</time>
      </trkpt>
      <trkpt lat="48.59182" lon="1.90297">
        <ele>161.2</ele>
        <time>2023-12-10T09:38:21Z</time>
      </trkpt>
      <trkpt lat="48.59179" lon="1.90289">
        <ele>162</ele>
        <time>2023-12-10T09:38:22Z</time>
      </trkpt>
      <trkpt lat="48.59177" lon="1.90281">
        <ele>162</ele>
        <time>2023-12-10T09:38:23Z</time>
      </trkpt>
      <trkpt lat="48.59174" lon="1.90272">
        <ele>162</ele>
        <time>2023-12-10T09:38:24Z</time>
      </trkpt>
      <trkpt lat="48.59172" lon="1.90264">
        <ele>161.8</ele>
        <time>2023-12-10T09:38:25Z</time>
      </trkpt>
      <trkpt lat="48.59168" lon="1.90255">
        <ele>162</ele>
        <time>2023-12-10T09:38:26Z</time>
      </trkpt>
      <trkpt lat="48.59166" lon="1.90246">
        <ele>162</ele>
        <time>2023-12-10T09:38:27Z</time>
      </trkpt>
      <trkpt lat="48.59163" lon="1.90238">
        <ele>162</ele>
        <time>2023-12-10T09:38:28Z</time>
      </trkpt>
      <trkpt lat="48.59161" lon="1.90229">
        <ele>161.8</ele>
        <time>2023-12-10T09:38:29Z</time>
      </trkpt>
      <trkpt lat="48.59158" lon="1.90219">
        <ele>161.2</ele>
        <time>2023-12-10T09:38:30Z</time>
      </trkpt>
      <trkpt lat="48.59156" lon="1.9021">
        <ele>161.2</ele>
        <time>2023-12-10T09:38:31Z</time>
      </trkpt>
      <trkpt lat="48.59153" lon="1.90201">
        <ele>161.2</ele>
        <time>2023-12-10T09:38:32Z</time>
      </trkpt>
      <trkpt lat="48.59151" lon="1.90192">
        <ele>161.2</ele>
        <time>2023-12-10T09:38:33Z</time>
      </trkpt>
      <trkpt lat="48.59149" lon="1.90184">
        <ele>161.6</ele>
        <time>2023-12-10T09:38:34Z</time>
      </trkpt>
      <trkpt lat="48.59146" lon="1.90175">
        <ele>161.6</ele>
        <time>2023-12-10T09:38:35Z</time>
      </trkpt>
      <trkpt lat="48.59144" lon="1.90166">
        <ele>161.6</ele>
        <time>2023-12-10T09:38:36Z</time>
      </trkpt>
      <trkpt lat="48.59141" lon="1.90157">
        <ele>161.6</ele>
        <time>2023-12-10T09:38:37Z</time>
      </trkpt>
      <trkpt lat="48.59139" lon="1.90148">
        <ele>162.2</ele>
        <time>2023-12-10T09:38:38Z</time>
      </trkpt>
      <trkpt lat="48.59137" lon="1.90139">
        <ele>162.2</ele>
        <time>2023-12-10T09:38:39Z</time>
      </trkpt>
      <trkpt lat="48.59135" lon="1.9013">
        <ele>162.2</ele>
        <time>2023-12-10T09:38:40Z</time>
      </trkpt>
      <trkpt lat="48.59132" lon="1.90121">
        <ele>161.8</ele>
        <time>2023-12-10T09:38:41Z</time>
      </trkpt>
      <trkpt lat="48.5913" lon="1.90112">
        <ele>161</ele>
        <time>2023-12-10T09:38:42Z</time>
      </trkpt>
      <trkpt lat="48.59128" lon="1.90104">
        <ele>161</ele>
        <time>2023-12-10T09:38:43Z</time>
      </trkpt>
      <trkpt lat="48.59125" lon="1.90095">
        <ele>161</ele>
        <time>2023-12-10T09:38:44Z</time>
      </trkpt>
      <trkpt lat="48.59123" lon="1.90086">
        <ele>162</ele>
        <time>2023-12-10T09:38:45Z</time>
      </trkpt>
      <trkpt lat="48.59121" lon="1.90077">
        <ele>161.4</ele>
        <time>2023-12-10T09:38:46Z</time>
      </trkpt>
      <trkpt lat="48.59118" lon="1.90068">
        <ele>161.4</ele>
        <time>2023-12-10T09:38:47Z</time>
      </trkpt>
      <trkpt lat="48.59115" lon="1.9006">
        <ele>161.4</ele>
        <time>2023-12-10T09:38:48Z</time>
      </trkpt>
      <trkpt lat="48.59111" lon="1.90052">
        <ele>162</ele>
        <time>2023-12-10T09:38:49Z</time>
      </trkpt>
      <trkpt lat="48.59107" lon="1.90044">
        <ele>161.8</ele>
        <time>2023-12-10T09:38:50Z</time>
      </trkpt>
      <trkpt lat="48.59103" lon="1.90036">
        <ele>161.8</ele>
        <time>2023-12-10T09:38:51Z</time>
      </trkpt>
      <trkpt lat="48.59099" lon="1.90028">
        <ele>161.8</ele>
        <time>2023-12-10T09:38:52Z</time>
      </trkpt>
      <trkpt lat="48.59095" lon="1.9002">
        <ele>161.8</ele>
        <time>2023-12-10T09:38:53Z</time>
      </trkpt>
      <trkpt lat="48.59091" lon="1.90013">
        <ele>161.8</ele>
        <time>2023-12-10T09:38:54Z</time>
      </trkpt>
      <trkpt lat="48.59087" lon="1.90006">
        <ele>161.8</ele>
        <time>2023-12-10T09:38:55Z</time>
      </trkpt>
      <trkpt lat="48.59083" lon="1.89998">
        <ele>161.8</ele>
        <time>2023-12-10T09:38:56Z</time>
      </trkpt>
      <trkpt lat="48.59078" lon="1.89991">
        <ele>161.8</ele>
        <time>2023-12-10T09:38:57Z</time>
      </trkpt>
      <trkpt lat="48.59074" lon="1.89984">
        <ele>162.2</ele>
        <time>2023-12-10T09:38:58Z</time>
      </trkpt>
      <trkpt lat="48.5907" lon="1.89977">
        <ele>162.2</ele>
        <time>2023-12-10T09:38:59Z</time>
      </trkpt>
      <trkpt lat="48.59066" lon="1.8997">
        <ele>162.2</ele>
        <time>2023-12-10T09:39:00Z</time>
      </trkpt>
      <trkpt lat="48.59062" lon="1.89963">
        <ele>162.2</ele>
        <time>2023-12-10T09:39:01Z</time>
      </trkpt>
      <trkpt lat="48.59058" lon="1.89956">
        <ele>162</ele>
        <time>2023-12-10T09:39:02Z</time>
      </trkpt>
      <trkpt lat="48.59054" lon="1.89949">
        <ele>162</ele>
        <time>2023-12-10T09:39:03Z</time>
      </trkpt>
      <trkpt lat="48.5905" lon="1.89942">
        <ele>162</ele>
        <time>2023-12-10T09:39:04Z</time>
      </trkpt>
      <trkpt lat="48.59046" lon="1.89935">
        <ele>162</ele>
        <time>2023-12-10T09:39:05Z</time>
      </trkpt>
      <trkpt lat="48.59042" lon="1.89928">
        <ele>160.8</ele>
        <time>2023-12-10T09:39:06Z</time>
      </trkpt>
      <trkpt lat="48.59037" lon="1.89921">
        <ele>160.8</ele>
        <time>2023-12-10T09:39:07Z</time>
      </trkpt>
      <trkpt lat="48.59033" lon="1.89913">
        <ele>160.8</ele>
        <time>2023-12-10T09:39:08Z</time>
      </trkpt>
      <trkpt lat="48.59029" lon="1.89906">
        <ele>160.8</ele>
        <time>2023-12-10T09:39:09Z</time>
      </trkpt>
      <trkpt lat="48.59025" lon="1.899">
        <ele>162.6</ele>
        <time>2023-12-10T09:39:10Z</time>
      </trkpt>
      <trkpt lat="48.59021" lon="1.89894">
        <ele>162.6</ele>
        <time>2023-12-10T09:39:11Z</time>
      </trkpt>
      <trkpt lat="48.59017" lon="1.89887">
        <ele>162.6</ele>
        <time>2023-12-10T09:39:12Z</time>
      </trkpt>
      <trkpt lat="48.59013" lon="1.8988">
        <ele>161.8</ele>
        <time>2023-12-10T09:39:13Z</time>
      </trkpt>
      <trkpt lat="48.59009" lon="1.89874">
        <ele>161.8</ele>
        <time>2023-12-10T09:39:14Z</time>
      </trkpt>
      <trkpt lat="48.59005" lon="1.89867">
        <ele>161.8</ele>
        <time>2023-12-10T09:39:15Z</time>
      </trkpt>
      <trkpt lat="48.59001" lon="1.89861">
        <ele>161.8</ele>
        <time>2023-12-10T09:39:16Z</time>
      </trkpt>
      <trkpt lat="48.58997" lon="1.89854">
        <ele>161.8</ele>
        <time>2023-12-10T09:39:17Z</time>
      </trkpt>
      <trkpt lat="48.58993" lon="1.89847">
        <ele>161.8</ele>
        <time>2023-12-10T09:39:18Z</time>
      </trkpt>
      <trkpt lat="48.58989" lon="1.8984">
        <ele>161.8</ele>
        <time>2023-12-10T09:39:19Z</time>
      </trkpt>
      <trkpt lat="48.58985" lon="1.89833">
        <ele>161.8</ele>
        <time>2023-12-10T09:39:20Z</time>
      </trkpt>
      <trkpt lat="48.58981" lon="1.89826">
        <ele>161.8</ele>
        <time>2023-12-10T09:39:21Z</time>
      </trkpt>
      <trkpt lat="48.58977" lon="1.89819">
        <ele>161.6</ele>
        <time>2023-12-10T09:39:22Z</time>
      </trkpt>
      <trkpt lat="48.58973" lon="1.89812">
        <ele>161.6</ele>
        <time>2023-12-10T09:39:23Z</time>
      </trkpt>
      <trkpt lat="48.58969" lon="1.89804">
        <ele>161.6</ele>
        <time>2023-12-10T09:39:24Z</time>
      </trkpt>
      <trkpt lat="48.58965" lon="1.89797">
        <ele>160.8</ele>
        <time>2023-12-10T09:39:25Z</time>
      </trkpt>
      <trkpt lat="48.58961" lon="1.8979">
        <ele>161.4</ele>
        <time>2023-12-10T09:39:26Z</time>
      </trkpt>
      <trkpt lat="48.58957" lon="1.89783">
        <ele>161.4</ele>
        <time>2023-12-10T09:39:27Z</time>
      </trkpt>
      <trkpt lat="48.58953" lon="1.89776">
        <ele>161.4</ele>
        <time>2023-12-10T09:39:28Z</time>
      </trkpt>
      <trkpt lat="48.58949" lon="1.89768">
        <ele>161.4</ele>
        <time>2023-12-10T09:39:29Z</time>
      </trkpt>
      <trkpt lat="48.58945" lon="1.89761">
        <ele>161.2</ele>
        <time>2023-12-10T09:39:30Z</time>
      </trkpt>
      <trkpt lat="48.5894" lon="1.89755">
        <ele>161.2</ele>
        <time>2023-12-10T09:39:31Z</time>
      </trkpt>
      <trkpt lat="48.58936" lon="1.89748">
        <ele>161.2</ele>
        <time>2023-12-10T09:39:32Z</time>
      </trkpt>
      <trkpt lat="48.58931" lon="1.89742">
        <ele>161.2</ele>
        <time>2023-12-10T09:39:33Z</time>
      </trkpt>
      <trkpt lat="48.58926" lon="1.89735">
        <ele>161.2</ele>
        <time>2023-12-10T09:39:34Z</time>
      </trkpt>
      <trkpt lat="48.58921" lon="1.89729">
        <ele>161.2</ele>
        <time>2023-12-10T09:39:35Z</time>
      </trkpt>
      <trkpt lat="48.58916" lon="1.89724">
        <ele>161.2</ele>
        <time>2023-12-10T09:39:36Z</time>
      </trkpt>
      <trkpt lat="48.58911" lon="1.89718">
        <ele>161.2</ele>
        <time>2023-12-10T09:39:37Z</time>
      </trkpt>
      <trkpt lat="48.58906" lon="1.89713">
        <ele>160</ele>
        <time>2023-12-10T09:39:38Z</time>
      </trkpt>
      <trkpt lat="48.58901" lon="1.89707">
        <ele>160</ele>
        <time>2023-12-10T09:39:39Z</time>
      </trkpt>
      <trkpt lat="48.58896" lon="1.89702">
        <ele>160</ele>
        <time>2023-12-10T09:39:40Z</time>
      </trkpt>
      <trkpt lat="48.58891" lon="1.89696">
        <ele>161</ele>
        <time>2023-12-10T09:39:41Z</time>
      </trkpt>
      <trkpt lat="48.58886" lon="1.89691">
        <ele>160.6</ele>
        <time>2023-12-10T09:39:42Z</time>
      </trkpt>
      <trkpt lat="48.58881" lon="1.89686">
        <ele>160.6</ele>
        <time>2023-12-10T09:39:43Z</time>
      </trkpt>
      <trkpt lat="48.58876" lon="1.89681">
        <ele>160.6</ele>
        <time>2023-12-10T09:39:44Z</time>
      </trkpt>
      <trkpt lat="48.58871" lon="1.89675">
        <ele>160</ele>
        <time>2023-12-10T09:39:45Z</time>
      </trkpt>
      <trkpt lat="48.58866" lon="1.8967">
        <ele>160.8</ele>
        <time>2023-12-10T09:39:46Z</time>
      </trkpt>
      <trkpt lat="48.58861" lon="1.89665">
        <ele>160.8</ele>
        <time>2023-12-10T09:39:47Z</time>
      </trkpt>
      <trkpt lat="48.58856" lon="1.8966">
        <ele>160.8</ele>
        <time>2023-12-10T09:39:48Z</time>
      </trkpt>
      <trkpt lat="48.58852" lon="1.89655">
        <ele>160.8</ele>
        <time>2023-12-10T09:39:49Z</time>
      </trkpt>
      <trkpt lat="48.58847" lon="1.8965">
        <ele>161</ele>
        <time>2023-12-10T09:39:50Z</time>
      </trkpt>
      <trkpt lat="48.58842" lon="1.89646">
        <ele>161</ele>
        <time>2023-12-10T09:39:51Z</time>
      </trkpt>
      <trkpt lat="48.58838" lon="1.89641">
        <ele>161</ele>
        <time>2023-12-10T09:39:52Z</time>
      </trkpt>
      <trkpt lat="48.58833" lon="1.89636">
        <ele>160.4</ele>
        <time>2023-12-10T09:39:53Z</time>
      </trkpt>
      <trkpt lat="48.58829" lon="1.89632">
        <ele>160.6</ele>
        <time>2023-12-10T09:39:54Z</time>
      </trkpt>
      <trkpt lat="48.58825" lon="1.89627">
        <ele>160.6</ele>
        <time>2023-12-10T09:39:55Z</time>
      </trkpt>
      <trkpt lat="48.5882" lon="1.89622">
        <ele>160.6</ele>
        <time>2023-12-10T09:39:56Z</time>
      </trkpt>
      <trkpt lat="48.58816" lon="1.89618">
        <ele>160.6</ele>
        <time>2023-12-10T09:39:57Z</time>
      </trkpt>
      <trkpt lat="48.58812" lon="1.89613">
        <ele>160.8</ele>
        <time>2023-12-10T09:39:58Z</time>
      </trkpt>
      <trkpt lat="48.58807" lon="1.89608">
        <ele>160.8</ele>
        <time>2023-12-10T09:39:59Z</time>
      </trkpt>
      <trkpt lat="48.58803" lon="1.89603">
        <ele>160.8</ele>
        <time>2023-12-10T09:40:00Z</time>
      </trkpt>
      <trkpt lat="48.58799" lon="1.89598">
        <ele>160.8</ele>
        <time>2023-12-10T09:40:01Z</time>
      </trkpt>
      <trkpt lat="48.58795" lon="1.89593">
        <ele>161.2</ele>
        <time>2023-12-10T09:40:02Z</time>
      </trkpt>
      <trkpt lat="48.58791" lon="1.89588">
        <ele>161.2</ele>
        <time>2023-12-10T09:40:03Z</time>
      </trkpt>
      <trkpt lat="48.58787" lon="1.89583">
        <ele>161.2</ele>
        <time>2023-12-10T09:40:04Z</time>
      </trkpt>
      <trkpt lat="48.58783" lon="1.89578">
        <ele>160.2</ele>
        <time>2023-12-10T09:40:05Z</time>
      </trkpt>
      <trkpt lat="48.58779" lon="1.89572">
        <ele>160</ele>
        <time>2023-12-10T09:40:06Z</time>
      </trkpt>
      <trkpt lat="48.58775" lon="1.89567">
        <ele>160</ele>
        <time>2023-12-10T09:40:07Z</time>
      </trkpt>
      <trkpt lat="48.58771" lon="1.89562">
        <ele>160</ele>
        <time>2023-12-10T09:40:08Z</time>
      </trkpt>
      <trkpt lat="48.58767" lon="1.89556">
        <ele>160</ele>
        <time>2023-12-10T09:40:09Z</time>
      </trkpt>
      <trkpt lat="48.58762" lon="1.89551">
        <ele>161.4</ele>
        <time>2023-12-10T09:40:10Z</time>
      </trkpt>
      <trkpt lat="48.58758" lon="1.89546">
        <ele>161.4</ele>
        <time>2023-12-10T09:40:11Z</time>
      </trkpt>
      <trkpt lat="48.58754" lon="1.8954">
        <ele>161.4</ele>
        <time>2023-12-10T09:40:12Z</time>
      </trkpt>
      <trkpt lat="48.5875" lon="1.89535">
        <ele>160.6</ele>
        <time>2023-12-10T09:40:13Z</time>
      </trkpt>
      <trkpt lat="48.58746" lon="1.89529">
        <ele>160.2</ele>
        <time>2023-12-10T09:40:14Z</time>
      </trkpt>
      <trkpt lat="48.58742" lon="1.89523">
        <ele>160.2</ele>
        <time>2023-12-10T09:40:15Z</time>
      </trkpt>
      <trkpt lat="48.58738" lon="1.89518">
        <ele>160.2</ele>
        <time>2023-12-10T09:40:16Z</time>
      </trkpt>
      <trkpt lat="48.58734" lon="1.89512">
        <ele>160.8</ele>
        <time>2023-12-10T09:40:17Z</time>
      </trkpt>
      <trkpt lat="48.5873" lon="1.89507">
        <ele>161</ele>
        <time>2023-12-10T09:40:18Z</time>
      </trkpt>
      <trkpt lat="48.58726" lon="1.89501">
        <ele>161</ele>
        <time>2023-12-10T09:40:19Z</time>
      </trkpt>
      <trkpt lat="48.58722" lon="1.89495">
        <ele>161</ele>
        <time>2023-12-10T09:40:20Z</time>
      </trkpt>
      <trkpt lat="48.58718" lon="1.89489">
        <ele>161.8</ele>
        <time>2023-12-10T09:40:21Z</time>
      </trkpt>
      <trkpt lat="48.58714" lon="1.89483">
        <ele>161.8</ele>
        <time>2023-12-10T09:40:22Z</time>
      </trkpt>
      <trkpt lat="48.5871" lon="1.89476">
        <ele>161.8</ele>
        <time>2023-12-10T09:40:23Z</time>
      </trkpt>
      <trkpt lat="48.58706" lon="1.8947">
        <ele>161.8</ele>
        <time>2023-12-10T09:40:24Z</time>
      </trkpt>
      <trkpt lat="48.58703" lon="1.89463">
        <ele>161.8</ele>
        <time>2023-12-10T09:40:25Z</time>
      </trkpt>
      <trkpt lat="48.58699" lon="1.89456">
        <ele>162</ele>
        <time>2023-12-10T09:40:26Z</time>
      </trkpt>
      <trkpt lat="48.58695" lon="1.89449">
        <ele>162</ele>
        <time>2023-12-10T09:40:27Z</time>
      </trkpt>
      <trkpt lat="48.58692" lon="1.89442">
        <ele>162</ele>
        <time>2023-12-10T09:40:28Z</time>
      </trkpt>
      <trkpt lat="48.58689" lon="1.89435">
        <ele>161.6</ele>
        <time>2023-12-10T09:40:29Z</time>
      </trkpt>
      <trkpt lat="48.58685" lon="1.89428">
        <ele>161.6</ele>
        <time>2023-12-10T09:40:30Z</time>
      </trkpt>
      <trkpt lat="48.58682" lon="1.8942">
        <ele>161.6</ele>
        <time>2023-12-10T09:40:31Z</time>
      </trkpt>
      <trkpt lat="48.58678" lon="1.89413">
        <ele>161.6</ele>
        <time>2023-12-10T09:40:32Z</time>
      </trkpt>
      <trkpt lat="48.58675" lon="1.89406">
        <ele>161.2</ele>
        <time>2023-12-10T09:40:33Z</time>
      </trkpt>
      <trkpt lat="48.58671" lon="1.89398">
        <ele>161</ele>
        <time>2023-12-10T09:40:34Z</time>
      </trkpt>
      <trkpt lat="48.58668" lon="1.89391">
        <ele>161</ele>
        <time>2023-12-10T09:40:35Z</time>
      </trkpt>
      <trkpt lat="48.58664" lon="1.89383">
        <ele>161</ele>
        <time>2023-12-10T09:40:36Z</time>
      </trkpt>
      <trkpt lat="48.58661" lon="1.89376">
        <ele>160.2</ele>
        <time>2023-12-10T09:40:37Z</time>
      </trkpt>
      <trkpt lat="48.58657" lon="1.89369">
        <ele>160.2</ele>
        <time>2023-12-10T09:40:38Z</time>
      </trkpt>
      <trkpt lat="48.58654" lon="1.89361">
        <ele>160.2</ele>
        <time>2023-12-10T09:40:39Z</time>
      </trkpt>
      <trkpt lat="48.5865" lon="1.89354">
        <ele>160.2</ele>
        <time>2023-12-10T09:40:40Z</time>
      </trkpt>
      <trkpt lat="48.58646" lon="1.89347">
        <ele>160.2</ele>
        <time>2023-12-10T09:40:41Z</time>
      </trkpt>
      <trkpt lat="48.58642" lon="1.8934">
        <ele>158.6</ele>
        <time>2023-12-10T09:40:42Z</time>
      </trkpt>
      <trkpt lat="48.58638" lon="1.89332">
        <ele>158.6</ele>
        <time>2023-12-10T09:40:43Z</time>
      </trkpt>
      <trkpt lat="48.58635" lon="1.89325">
        <ele>158.6</ele>
        <time>2023-12-10T09:40:44Z</time>
      </trkpt>
      <trkpt lat="48.58631" lon="1.89317">
        <ele>159.6</ele>
        <time>2023-12-10T09:40:45Z</time>
      </trkpt>
      <trkpt lat="48.58627" lon="1.8931">
        <ele>160.6</ele>
        <time>2023-12-10T09:40:46Z</time>
      </trkpt>
      <trkpt lat="48.58623" lon="1.89303">
        <ele>160.6</ele>
        <time>2023-12-10T09:40:47Z</time>
      </trkpt>
      <trkpt lat="48.58619" lon="1.89296">
        <ele>160.6</ele>
        <time>2023-12-10T09:40:48Z</time>
      </trkpt>
      <trkpt lat="48.58615" lon="1.89288">
        <ele>159.6</ele>
        <time>2023-12-10T09:40:49Z</time>
      </trkpt>
      <trkpt lat="48.58611" lon="1.8928">
        <ele>158.6</ele>
        <time>2023-12-10T09:40:50Z</time>
      </trkpt>
      <trkpt lat="48.58607" lon="1.89272">
        <ele>158.6</ele>
        <time>2023-12-10T09:40:51Z</time>
      </trkpt>
      <trkpt lat="48.58602" lon="1.89264">
        <ele>158.6</ele>
        <time>2023-12-10T09:40:52Z</time>
      </trkpt>
      <trkpt lat="48.58598" lon="1.89256">
        <ele>158.6</ele>
        <time>2023-12-10T09:40:53Z</time>
      </trkpt>
      <trkpt lat="48.58593" lon="1.89248">
        <ele>158.4</ele>
        <time>2023-12-10T09:40:54Z</time>
      </trkpt>
      <trkpt lat="48.58588" lon="1.8924">
        <ele>158.4</ele>
        <time>2023-12-10T09:40:55Z</time>
      </trkpt>
      <trkpt lat="48.58584" lon="1.89231">
        <ele>158.4</ele>
        <time>2023-12-10T09:40:56Z</time>
      </trkpt>
      <trkpt lat="48.58579" lon="1.89223">
        <ele>157.4</ele>
        <time>2023-12-10T09:40:57Z</time>
      </trkpt>
      <trkpt lat="48.58574" lon="1.89214">
        <ele>156</ele>
        <time>2023-12-10T09:40:58Z</time>
      </trkpt>
      <trkpt lat="48.58569" lon="1.89205">
        <ele>156</ele>
        <time>2023-12-10T09:40:59Z</time>
      </trkpt>
      <trkpt lat="48.58565" lon="1.89197">
        <ele>156</ele>
        <time>2023-12-10T09:41:00Z</time>
      </trkpt>
      <trkpt lat="48.5856" lon="1.89188">
        <ele>156</ele>
        <time>2023-12-10T09:41:01Z</time>
      </trkpt>
      <trkpt lat="48.58555" lon="1.89179">
        <ele>157.6</ele>
        <time>2023-12-10T09:41:02Z</time>
      </trkpt>
      <trkpt lat="48.58551" lon="1.8917">
        <ele>157.6</ele>
        <time>2023-12-10T09:41:03Z</time>
      </trkpt>
      <trkpt lat="48.58546" lon="1.89161">
        <ele>157.6</ele>
        <time>2023-12-10T09:41:04Z</time>
      </trkpt>
      <trkpt lat="48.58542" lon="1.89152">
        <ele>157.6</ele>
        <time>2023-12-10T09:41:05Z</time>
      </trkpt>
      <trkpt lat="48.58539" lon="1.89143">
        <ele>157.6</ele>
        <time>2023-12-10T09:41:06Z</time>
      </trkpt>
      <trkpt lat="48.58535" lon="1.89134">
        <ele>157.6</ele>
        <time>2023-12-10T09:41:07Z</time>
      </trkpt>
      <trkpt lat="48.58532" lon="1.89124">
        <ele>157.6</ele>
        <time>2023-12-10T09:41:08Z</time>
      </trkpt>
      <trkpt lat="48.58529" lon="1.89114">
        <ele>157.8</ele>
        <time>2023-12-10T09:41:09Z</time>
      </trkpt>
      <trkpt lat="48.58526" lon="1.89105">
        <ele>157.8</ele>
        <time>2023-12-10T09:41:10Z</time>
      </trkpt>
      <trkpt lat="48.58523" lon="1.89095">
        <ele>157.8</ele>
        <time>2023-12-10T09:41:11Z</time>
      </trkpt>
      <trkpt lat="48.5852" lon="1.89085">
        <ele>157.8</ele>
        <time>2023-12-10T09:41:12Z</time>
      </trkpt>
      <trkpt lat="48.58517" lon="1.89076">
        <ele>157.8</ele>
        <time>2023-12-10T09:41:13Z</time>
      </trkpt>
      <trkpt lat="48.58514" lon="1.89066">
        <ele>157.2</ele>
        <time>2023-12-10T09:41:14Z</time>
      </trkpt>
      <trkpt lat="48.58511" lon="1.89057">
        <ele>157.2</ele>
        <time>2023-12-10T09:41:15Z</time>
      </trkpt>
      <trkpt lat="48.58508" lon="1.89047">
        <ele>157.2</ele>
        <time>2023-12-10T09:41:16Z</time>
      </trkpt>
      <trkpt lat="48.58504" lon="1.89038">
        <ele>156.2</ele>
        <time>2023-12-10T09:41:17Z</time>
      </trkpt>
      <trkpt lat="48.58501" lon="1.89029">
        <ele>156.6</ele>
        <time>2023-12-10T09:41:18Z</time>
      </trkpt>
      <trkpt lat="48.58497" lon="1.89021">
        <ele>156.6</ele>
        <time>2023-12-10T09:41:19Z</time>
      </trkpt>
      <trkpt lat="48.58493" lon="1.89012">
        <ele>156.6</ele>
        <time>2023-12-10T09:41:20Z</time>
      </trkpt>
      <trkpt lat="48.58489" lon="1.89004">
        <ele>155.8</ele>
        <time>2023-12-10T09:41:21Z</time>
      </trkpt>
      <trkpt lat="48.58485" lon="1.88996">
        <ele>155.4</ele>
        <time>2023-12-10T09:41:22Z</time>
      </trkpt>
      <trkpt lat="48.5848" lon="1.88988">
        <ele>155.4</ele>
        <time>2023-12-10T09:41:23Z</time>
      </trkpt>
      <trkpt lat="48.58475" lon="1.88981">
        <ele>155.4</ele>
        <time>2023-12-10T09:41:24Z</time>
      </trkpt>
      <trkpt lat="48.5847" lon="1.88975">
        <ele>155.4</ele>
        <time>2023-12-10T09:41:25Z</time>
      </trkpt>
      <trkpt lat="48.58465" lon="1.88968">
        <ele>154.8</ele>
        <time>2023-12-10T09:41:26Z</time>
      </trkpt>
      <trkpt lat="48.5846" lon="1.88961">
        <ele>154.8</ele>
        <time>2023-12-10T09:41:27Z</time>
      </trkpt>
      <trkpt lat="48.58455" lon="1.88954">
        <ele>154.8</ele>
        <time>2023-12-10T09:41:28Z</time>
      </trkpt>
      <trkpt lat="48.58451" lon="1.88948">
        <ele>154.8</ele>
        <time>2023-12-10T09:41:29Z</time>
      </trkpt>
      <trkpt lat="48.58446" lon="1.88941">
        <ele>154.4</ele>
        <time>2023-12-10T09:41:30Z</time>
      </trkpt>
      <trkpt lat="48.58441" lon="1.88935">
        <ele>154.4</ele>
        <time>2023-12-10T09:41:31Z</time>
      </trkpt>
      <trkpt lat="48.58436" lon="1.88929">
        <ele>154.4</ele>
        <time>2023-12-10T09:41:32Z</time>
      </trkpt>
      <trkpt lat="48.58431" lon="1.88923">
        <ele>155.4</ele>
        <time>2023-12-10T09:41:33Z</time>
      </trkpt>
      <trkpt lat="48.58426" lon="1.88917">
        <ele>155.2</ele>
        <time>2023-12-10T09:41:34Z</time>
      </trkpt>
      <trkpt lat="48.58421" lon="1.88911">
        <ele>155.2</ele>
        <time>2023-12-10T09:41:35Z</time>
      </trkpt>
      <trkpt lat="48.58416" lon="1.88904">
        <ele>155.2</ele>
        <time>2023-12-10T09:41:36Z</time>
      </trkpt>
      <trkpt lat="48.58411" lon="1.88898">
        <ele>155.2</ele>
        <time>2023-12-10T09:41:37Z</time>
      </trkpt>
      <trkpt lat="48.58406" lon="1.88892">
        <ele>155.4</ele>
        <time>2023-12-10T09:41:38Z</time>
      </trkpt>
      <trkpt lat="48.58401" lon="1.88886">
        <ele>155.4</ele>
        <time>2023-12-10T09:41:39Z</time>
      </trkpt>
      <trkpt lat="48.58396" lon="1.88881">
        <ele>155.4</ele>
        <time>2023-12-10T09:41:40Z</time>
      </trkpt>
      <trkpt lat="48.58391" lon="1.88876">
        <ele>154.4</ele>
        <time>2023-12-10T09:41:41Z</time>
      </trkpt>
      <trkpt lat="48.58386" lon="1.88872">
        <ele>154.8</ele>
        <time>2023-12-10T09:41:42Z</time>
      </trkpt>
      <trkpt lat="48.5838" lon="1.88868">
        <ele>154.8</ele>
        <time>2023-12-10T09:41:43Z</time>
      </trkpt>
      <trkpt lat="48.58375" lon="1.88864">
        <ele>154.8</ele>
        <time>2023-12-10T09:41:44Z</time>
      </trkpt>
      <trkpt lat="48.5837" lon="1.88861">
        <ele>154.8</ele>
        <time>2023-12-10T09:41:45Z</time>
      </trkpt>
      <trkpt lat="48.58364" lon="1.88858">
        <ele>154.8</ele>
        <time>2023-12-10T09:41:46Z</time>
      </trkpt>
      <trkpt lat="48.58359" lon="1.88854">
        <ele>154.8</ele>
        <time>2023-12-10T09:41:47Z</time>
      </trkpt>
      <trkpt lat="48.58354" lon="1.88851">
        <ele>154.8</ele>
        <time>2023-12-10T09:41:48Z</time>
      </trkpt>
      <trkpt lat="48.58349" lon="1.88848">
        <ele>155.8</ele>
        <time>2023-12-10T09:41:49Z</time>
      </trkpt>
      <trkpt lat="48.58344" lon="1.88845">
        <ele>156.2</ele>
        <time>2023-12-10T09:41:50Z</time>
      </trkpt>
      <trkpt lat="48.58339" lon="1.88842">
        <ele>156.2</ele>
        <time>2023-12-10T09:41:51Z</time>
      </trkpt>
      <trkpt lat="48.58334" lon="1.88839">
        <ele>156.2</ele>
        <time>2023-12-10T09:41:52Z</time>
      </trkpt>
      <trkpt lat="48.58329" lon="1.88836">
        <ele>156.2</ele>
        <time>2023-12-10T09:41:53Z</time>
      </trkpt>
      <trkpt lat="48.58323" lon="1.88833">
        <ele>156.2</ele>
        <time>2023-12-10T09:41:54Z</time>
      </trkpt>
      <trkpt lat="48.58318" lon="1.8883">
        <ele>156.2</ele>
        <time>2023-12-10T09:41:55Z</time>
      </trkpt>
      <trkpt lat="48.58313" lon="1.88827">
        <ele>156.2</ele>
        <time>2023-12-10T09:41:56Z</time>
      </trkpt>
      <trkpt lat="48.58308" lon="1.88824">
        <ele>156.2</ele>
        <time>2023-12-10T09:41:57Z</time>
      </trkpt>
      <trkpt lat="48.58303" lon="1.8882">
        <ele>156</ele>
        <time>2023-12-10T09:41:58Z</time>
      </trkpt>
      <trkpt lat="48.58298" lon="1.88817">
        <ele>156</ele>
        <time>2023-12-10T09:41:59Z</time>
      </trkpt>
      <trkpt lat="48.58293" lon="1.88814">
        <ele>156</ele>
        <time>2023-12-10T09:42:00Z</time>
      </trkpt>
      <trkpt lat="48.58288" lon="1.88811">
        <ele>156</ele>
        <time>2023-12-10T09:42:01Z</time>
      </trkpt>
      <trkpt lat="48.58283" lon="1.88808">
        <ele>156</ele>
        <time>2023-12-10T09:42:02Z</time>
      </trkpt>
      <trkpt lat="48.58278" lon="1.88805">
        <ele>156</ele>
        <time>2023-12-10T09:42:03Z</time>
      </trkpt>
      <trkpt lat="48.58273" lon="1.88803">
        <ele>156</ele>
        <time>2023-12-10T09:42:04Z</time>
      </trkpt>
      <trkpt lat="48.58268" lon="1.888">
        <ele>156</ele>
        <time>2023-12-10T09:42:05Z</time>
      </trkpt>
      <trkpt lat="48.58262" lon="1.88797">
        <ele>156.4</ele>
        <time>2023-12-10T09:42:06Z</time>
      </trkpt>
      <trkpt lat="48.58257" lon="1.88794">
        <ele>156.4</ele>
        <time>2023-12-10T09:42:07Z</time>
      </trkpt>
      <trkpt lat="48.58252" lon="1.88791">
        <ele>156.4</ele>
        <time>2023-12-10T09:42:08Z</time>
      </trkpt>
      <trkpt lat="48.58247" lon="1.88788">
        <ele>156.4</ele>
        <time>2023-12-10T09:42:09Z</time>
      </trkpt>
      <trkpt lat="48.58242" lon="1.88785">
        <ele>157.8</ele>
        <time>2023-12-10T09:42:10Z</time>
      </trkpt>
      <trkpt lat="48.58237" lon="1.88782">
        <ele>157.8</ele>
        <time>2023-12-10T09:42:11Z</time>
      </trkpt>
      <trkpt lat="48.58232" lon="1.88779">
        <ele>157.8</ele>
        <time>2023-12-10T09:42:12Z</time>
      </trkpt>
      <trkpt lat="48.58227" lon="1.88776">
        <ele>156.8</ele>
        <time>2023-12-10T09:42:13Z</time>
      </trkpt>
      <trkpt lat="48.58222" lon="1.88773">
        <ele>156.8</ele>
        <time>2023-12-10T09:42:14Z</time>
      </trkpt>
      <trkpt lat="48.58217" lon="1.8877">
        <ele>156.8</ele>
        <time>2023-12-10T09:42:15Z</time>
      </trkpt>
      <trkpt lat="48.58213" lon="1.88768">
        <ele>156.8</ele>
        <time>2023-12-10T09:42:16Z</time>
      </trkpt>
      <trkpt lat="48.58208" lon="1.88765">
        <ele>156.8</ele>
        <time>2023-12-10T09:42:17Z</time>
      </trkpt>
      <trkpt lat="48.58203" lon="1.88763">
        <ele>156</ele>
        <time>2023-12-10T09:42:18Z</time>
      </trkpt>
      <trkpt lat="48.58198" lon="1.8876">
        <ele>156</ele>
        <time>2023-12-10T09:42:19Z</time>
      </trkpt>
      <trkpt lat="48.58193" lon="1.88757">
        <ele>156</ele>
        <time>2023-12-10T09:42:20Z</time>
      </trkpt>
      <trkpt lat="48.58188" lon="1.88754">
        <ele>157</ele>
        <time>2023-12-10T09:42:21Z</time>
      </trkpt>
      <trkpt lat="48.58183" lon="1.88751">
        <ele>159</ele>
        <time>2023-12-10T09:42:22Z</time>
      </trkpt>
      <trkpt lat="48.58178" lon="1.88748">
        <ele>159</ele>
        <time>2023-12-10T09:42:23Z</time>
      </trkpt>
      <trkpt lat="48.58173" lon="1.88745">
        <ele>159</ele>
        <time>2023-12-10T09:42:24Z</time>
      </trkpt>
      <trkpt lat="48.58169" lon="1.88741">
        <ele>159</ele>
        <time>2023-12-10T09:42:25Z</time>
      </trkpt>
      <trkpt lat="48.58164" lon="1.88738">
        <ele>159.6</ele>
        <time>2023-12-10T09:42:26Z</time>
      </trkpt>
      <trkpt lat="48.58159" lon="1.88735">
        <ele>159.6</ele>
        <time>2023-12-10T09:42:27Z</time>
      </trkpt>
      <trkpt lat="48.58154" lon="1.88732">
        <ele>159.6</ele>
        <time>2023-12-10T09:42:28Z</time>
      </trkpt>
      <trkpt lat="48.58149" lon="1.88728">
        <ele>159.2</ele>
        <time>2023-12-10T09:42:29Z</time>
      </trkpt>
      <trkpt lat="48.58145" lon="1.88724">
        <ele>159</ele>
        <time>2023-12-10T09:42:30Z</time>
      </trkpt>
      <trkpt lat="48.5814" lon="1.8872">
        <ele>159</ele>
        <time>2023-12-10T09:42:31Z</time>
      </trkpt>
      <trkpt lat="48.58136" lon="1.88715">
        <ele>159</ele>
        <time>2023-12-10T09:42:32Z</time>
      </trkpt>
      <trkpt lat="48.58131" lon="1.8871">
        <ele>159</ele>
        <time>2023-12-10T09:42:33Z</time>
      </trkpt>
      <trkpt lat="48.58126" lon="1.88704">
        <ele>159.4</ele>
        <time>2023-12-10T09:42:34Z</time>
      </trkpt>
      <trkpt lat="48.58122" lon="1.88699">
        <ele>159.4</ele>
        <time>2023-12-10T09:42:35Z</time>
      </trkpt>
      <trkpt lat="48.58118" lon="1.88694">
        <ele>159.4</ele>
        <time>2023-12-10T09:42:36Z</time>
      </trkpt>
      <trkpt lat="48.58114" lon="1.8869">
        <ele>159.4</ele>
        <time>2023-12-10T09:42:37Z</time>
      </trkpt>
      <trkpt lat="48.58111" lon="1.88685">
        <ele>159.6</ele>
        <time>2023-12-10T09:42:38Z</time>
      </trkpt>
      <trkpt lat="48.58107" lon="1.8868">
        <ele>159.6</ele>
        <time>2023-12-10T09:42:39Z</time>
      </trkpt>
      <trkpt lat="48.58103" lon="1.88675">
        <ele>159.6</ele>
        <time>2023-12-10T09:42:40Z</time>
      </trkpt>
      <trkpt lat="48.58099" lon="1.88669">
        <ele>159.6</ele>
        <time>2023-12-10T09:42:41Z</time>
      </trkpt>
      <trkpt lat="48.58095" lon="1.88664">
        <ele>158.6</ele>
        <time>2023-12-10T09:42:42Z</time>
      </trkpt>
      <trkpt lat="48.58091" lon="1.88658">
        <ele>158.6</ele>
        <time>2023-12-10T09:42:43Z</time>
      </trkpt>
      <trkpt lat="48.58087" lon="1.88653">
        <ele>158.6</ele>
        <time>2023-12-10T09:42:44Z</time>
      </trkpt>
      <trkpt lat="48.58083" lon="1.88647">
        <ele>158.6</ele>
        <time>2023-12-10T09:42:45Z</time>
      </trkpt>
      <trkpt lat="48.58078" lon="1.88641">
        <ele>158.8</ele>
        <time>2023-12-10T09:42:46Z</time>
      </trkpt>
      <trkpt lat="48.58074" lon="1.88635">
        <ele>158.8</ele>
        <time>2023-12-10T09:42:47Z</time>
      </trkpt>
      <trkpt lat="48.58069" lon="1.88629">
        <ele>158.8</ele>
        <time>2023-12-10T09:42:48Z</time>
      </trkpt>
      <trkpt lat="48.58065" lon="1.88622">
        <ele>157.8</ele>
        <time>2023-12-10T09:42:49Z</time>
      </trkpt>
      <trkpt lat="48.5806" lon="1.88616">
        <ele>158</ele>
        <time>2023-12-10T09:42:50Z</time>
      </trkpt>
      <trkpt lat="48.58055" lon="1.88609">
        <ele>158</ele>
        <time>2023-12-10T09:42:51Z</time>
      </trkpt>
      <trkpt lat="48.5805" lon="1.88603">
        <ele>158</ele>
        <time>2023-12-10T09:42:52Z</time>
      </trkpt>
      <trkpt lat="48.58045" lon="1.88596">
        <ele>158</ele>
        <time>2023-12-10T09:42:53Z</time>
      </trkpt>
      <trkpt lat="48.5804" lon="1.88589">
        <ele>156.8</ele>
        <time>2023-12-10T09:42:54Z</time>
      </trkpt>
      <trkpt lat="48.58035" lon="1.88583">
        <ele>156.8</ele>
        <time>2023-12-10T09:42:55Z</time>
      </trkpt>
      <trkpt lat="48.58028" lon="1.88578">
        <ele>156.8</ele>
        <time>2023-12-10T09:42:56Z</time>
      </trkpt>
      <trkpt lat="48.58022" lon="1.88575">
        <ele>156.8</ele>
        <time>2023-12-10T09:42:57Z</time>
      </trkpt>
      <trkpt lat="48.58015" lon="1.88575">
        <ele>158</ele>
        <time>2023-12-10T09:42:58Z</time>
      </trkpt>
      <trkpt lat="48.58009" lon="1.88578">
        <ele>158</ele>
        <time>2023-12-10T09:42:59Z</time>
      </trkpt>
      <trkpt lat="48.58004" lon="1.88581">
        <ele>158</ele>
        <time>2023-12-10T09:43:00Z</time>
      </trkpt>
      <trkpt lat="48.57999" lon="1.88585">
        <ele>159</ele>
        <time>2023-12-10T09:43:01Z</time>
      </trkpt>
      <trkpt lat="48.57994" lon="1.88589">
        <ele>160.8</ele>
        <time>2023-12-10T09:43:02Z</time>
      </trkpt>
      <trkpt lat="48.5799" lon="1.88593">
        <ele>160.8</ele>
        <time>2023-12-10T09:43:03Z</time>
      </trkpt>
      <trkpt lat="48.57985" lon="1.88598">
        <ele>160.8</ele>
        <time>2023-12-10T09:43:04Z</time>
      </trkpt>
      <trkpt lat="48.5798" lon="1.88602">
        <ele>160.8</ele>
        <time>2023-12-10T09:43:05Z</time>
      </trkpt>
      <trkpt lat="48.57975" lon="1.88606">
        <ele>160.8</ele>
        <time>2023-12-10T09:43:06Z</time>
      </trkpt>
      <trkpt lat="48.5797" lon="1.88609">
        <ele>160.8</ele>
        <time>2023-12-10T09:43:07Z</time>
      </trkpt>
      <trkpt lat="48.57965" lon="1.88613">
        <ele>160.8</ele>
        <time>2023-12-10T09:43:08Z</time>
      </trkpt>
      <trkpt lat="48.5796" lon="1.88617">
        <ele>161.2</ele>
        <time>2023-12-10T09:43:09Z</time>
      </trkpt>
      <trkpt lat="48.57956" lon="1.88621">
        <ele>161.6</ele>
        <time>2023-12-10T09:43:10Z</time>
      </trkpt>
      <trkpt lat="48.57951" lon="1.88624">
        <ele>161.6</ele>
        <time>2023-12-10T09:43:11Z</time>
      </trkpt>
      <trkpt lat="48.57947" lon="1.88628">
        <ele>161.6</ele>
        <time>2023-12-10T09:43:12Z</time>
      </trkpt>
      <trkpt lat="48.57943" lon="1.88632">
        <ele>161.4</ele>
        <time>2023-12-10T09:43:13Z</time>
      </trkpt>
      <trkpt lat="48.57939" lon="1.88636">
        <ele>161.2</ele>
        <time>2023-12-10T09:43:14Z</time>
      </trkpt>
      <trkpt lat="48.57935" lon="1.88641">
        <ele>161.2</ele>
        <time>2023-12-10T09:43:15Z</time>
      </trkpt>
      <trkpt lat="48.5793" lon="1.88645">
        <ele>161.2</ele>
        <time>2023-12-10T09:43:16Z</time>
      </trkpt>
      <trkpt lat="48.57926" lon="1.88649">
        <ele>161.6</ele>
        <time>2023-12-10T09:43:17Z</time>
      </trkpt>
      <trkpt lat="48.57921" lon="1.88653">
        <ele>162</ele>
        <time>2023-12-10T09:43:18Z</time>
      </trkpt>
      <trkpt lat="48.57916" lon="1.88657">
        <ele>162</ele>
        <time>2023-12-10T09:43:19Z</time>
      </trkpt>
      <trkpt lat="48.57911" lon="1.88662">
        <ele>162</ele>
        <time>2023-12-10T09:43:20Z</time>
      </trkpt>
      <trkpt lat="48.57906" lon="1.88666">
        <ele>161</ele>
        <time>2023-12-10T09:43:21Z</time>
      </trkpt>
      <trkpt lat="48.57901" lon="1.88669">
        <ele>160.8</ele>
        <time>2023-12-10T09:43:22Z</time>
      </trkpt>
      <trkpt lat="48.57896" lon="1.88674">
        <ele>160.8</ele>
        <time>2023-12-10T09:43:23Z</time>
      </trkpt>
      <trkpt lat="48.57891" lon="1.88678">
        <ele>160.8</ele>
        <time>2023-12-10T09:43:24Z</time>
      </trkpt>
      <trkpt lat="48.57887" lon="1.88682">
        <ele>160.8</ele>
        <time>2023-12-10T09:43:25Z</time>
      </trkpt>
      <trkpt lat="48.57882" lon="1.88686">
        <ele>160.8</ele>
        <time>2023-12-10T09:43:26Z</time>
      </trkpt>
      <trkpt lat="48.57877" lon="1.8869">
        <ele>160.8</ele>
        <time>2023-12-10T09:43:27Z</time>
      </trkpt>
      <trkpt lat="48.57872" lon="1.88695">
        <ele>160.8</ele>
        <time>2023-12-10T09:43:28Z</time>
      </trkpt>
      <trkpt lat="48.57867" lon="1.887">
        <ele>160.8</ele>
        <time>2023-12-10T09:43:29Z</time>
      </trkpt>
      <trkpt lat="48.57862" lon="1.88705">
        <ele>161</ele>
        <time>2023-12-10T09:43:30Z</time>
      </trkpt>
      <trkpt lat="48.57857" lon="1.8871">
        <ele>161</ele>
        <time>2023-12-10T09:43:31Z</time>
      </trkpt>
      <trkpt lat="48.57852" lon="1.88715">
        <ele>161</ele>
        <time>2023-12-10T09:43:32Z</time>
      </trkpt>
      <trkpt lat="48.57848" lon="1.8872">
        <ele>160.4</ele>
        <time>2023-12-10T09:43:33Z</time>
      </trkpt>
      <trkpt lat="48.57843" lon="1.88725">
        <ele>160.4</ele>
        <time>2023-12-10T09:43:34Z</time>
      </trkpt>
      <trkpt lat="48.57838" lon="1.88731">
        <ele>160.4</ele>
        <time>2023-12-10T09:43:35Z</time>
      </trkpt>
      <trkpt lat="48.57833" lon="1.88735">
        <ele>160.4</ele>
        <time>2023-12-10T09:43:36Z</time>
      </trkpt>
      <trkpt lat="48.57828" lon="1.88738">
        <ele>160.4</ele>
        <time>2023-12-10T09:43:37Z</time>
      </trkpt>
      <trkpt lat="48.57822" lon="1.88738">
        <ele>158.6</ele>
        <time>2023-12-10T09:43:38Z</time>
      </trkpt>
      <trkpt lat="48.57816" lon="1.88736">
        <ele>158.6</ele>
        <time>2023-12-10T09:43:39Z</time>
      </trkpt>
      <trkpt lat="48.5781" lon="1.88731">
        <ele>158.6</ele>
        <time>2023-12-10T09:43:40Z</time>
      </trkpt>
      <trkpt lat="48.57805" lon="1.88725">
        <ele>157.6</ele>
        <time>2023-12-10T09:43:41Z</time>
      </trkpt>
      <trkpt lat="48.578" lon="1.88717">
        <ele>155.4</ele>
        <time>2023-12-10T09:43:42Z</time>
      </trkpt>
      <trkpt lat="48.57795" lon="1.8871">
        <ele>155.4</ele>
        <time>2023-12-10T09:43:43Z</time>
      </trkpt>
      <trkpt lat="48.57789" lon="1.88703">
        <ele>155.4</ele>
        <time>2023-12-10T09:43:44Z</time>
      </trkpt>
      <trkpt lat="48.57783" lon="1.88695">
        <ele>154.4</ele>
        <time>2023-12-10T09:43:45Z</time>
      </trkpt>
      <trkpt lat="48.57777" lon="1.88688">
        <ele>153</ele>
        <time>2023-12-10T09:43:46Z</time>
      </trkpt>
      <trkpt lat="48.5777" lon="1.88682">
        <ele>153</ele>
        <time>2023-12-10T09:43:47Z</time>
      </trkpt>
      <trkpt lat="48.57763" lon="1.88675">
        <ele>153</ele>
        <time>2023-12-10T09:43:48Z</time>
      </trkpt>
      <trkpt lat="48.57757" lon="1.88668">
        <ele>152</ele>
        <time>2023-12-10T09:43:49Z</time>
      </trkpt>
      <trkpt lat="48.57749" lon="1.88662">
        <ele>150.6</ele>
        <time>2023-12-10T09:43:50Z</time>
      </trkpt>
      <trkpt lat="48.57741" lon="1.88656">
        <ele>150.6</ele>
        <time>2023-12-10T09:43:51Z</time>
      </trkpt>
      <trkpt lat="48.57733" lon="1.88649">
        <ele>150.6</ele>
        <time>2023-12-10T09:43:52Z</time>
      </trkpt>
      <trkpt lat="48.57725" lon="1.88643">
        <ele>149.6</ele>
        <time>2023-12-10T09:43:53Z</time>
      </trkpt>
      <trkpt lat="48.57716" lon="1.88635">
        <ele>146</ele>
        <time>2023-12-10T09:43:54Z</time>
      </trkpt>
      <trkpt lat="48.57707" lon="1.88627">
        <ele>146</ele>
        <time>2023-12-10T09:43:55Z</time>
      </trkpt>
      <trkpt lat="48.57698" lon="1.88618">
        <ele>146</ele>
        <time>2023-12-10T09:43:56Z</time>
      </trkpt>
      <trkpt lat="48.57688" lon="1.88609">
        <ele>145</ele>
        <time>2023-12-10T09:43:57Z</time>
      </trkpt>
      <trkpt lat="48.57679" lon="1.88599">
        <ele>140</ele>
        <time>2023-12-10T09:43:58Z</time>
      </trkpt>
      <trkpt lat="48.57671" lon="1.88588">
        <ele>140</ele>
        <time>2023-12-10T09:43:59Z</time>
      </trkpt>
      <trkpt lat="48.57664" lon="1.88577">
        <ele>140</ele>
        <time>2023-12-10T09:44:00Z</time>
      </trkpt>
      <trkpt lat="48.57656" lon="1.88565">
        <ele>140</ele>
        <time>2023-12-10T09:44:01Z</time>
      </trkpt>
      <trkpt lat="48.57649" lon="1.88552">
        <ele>138</ele>
        <time>2023-12-10T09:44:02Z</time>
      </trkpt>
      <trkpt lat="48.57643" lon="1.8854">
        <ele>138</ele>
        <time>2023-12-10T09:44:03Z</time>
      </trkpt>
      <trkpt lat="48.57636" lon="1.88527">
        <ele>138</ele>
        <time>2023-12-10T09:44:04Z</time>
      </trkpt>
      <trkpt lat="48.57629" lon="1.88514">
        <ele>137</ele>
        <time>2023-12-10T09:44:05Z</time>
      </trkpt>
      <trkpt lat="48.57622" lon="1.88501">
        <ele>135.6</ele>
        <time>2023-12-10T09:44:06Z</time>
      </trkpt>
      <trkpt lat="48.57615" lon="1.88488">
        <ele>135.6</ele>
        <time>2023-12-10T09:44:07Z</time>
      </trkpt>
      <trkpt lat="48.57608" lon="1.88474">
        <ele>135.6</ele>
        <time>2023-12-10T09:44:08Z</time>
      </trkpt>
      <trkpt lat="48.57601" lon="1.8846">
        <ele>134.6</ele>
        <time>2023-12-10T09:44:09Z</time>
      </trkpt>
      <trkpt lat="48.57594" lon="1.88446">
        <ele>131.8</ele>
        <time>2023-12-10T09:44:10Z</time>
      </trkpt>
      <trkpt lat="48.57588" lon="1.8843">
        <ele>131.8</ele>
        <time>2023-12-10T09:44:11Z</time>
      </trkpt>
      <trkpt lat="48.57583" lon="1.88415">
        <ele>131.8</ele>
        <time>2023-12-10T09:44:12Z</time>
      </trkpt>
      <trkpt lat="48.57578" lon="1.88399">
        <ele>130.8</ele>
        <time>2023-12-10T09:44:13Z</time>
      </trkpt>
      <trkpt lat="48.57573" lon="1.88383">
        <ele>128.6</ele>
        <time>2023-12-10T09:44:14Z</time>
      </trkpt>
      <trkpt lat="48.57569" lon="1.88367">
        <ele>128.6</ele>
        <time>2023-12-10T09:44:15Z</time>
      </trkpt>
      <trkpt lat="48.57565" lon="1.8835">
        <ele>128.6</ele>
        <time>2023-12-10T09:44:16Z</time>
      </trkpt>
      <trkpt lat="48.57561" lon="1.88334">
        <ele>127.6</ele>
        <time>2023-12-10T09:44:17Z</time>
      </trkpt>
      <trkpt lat="48.57557" lon="1.88318">
        <ele>127.4</ele>
        <time>2023-12-10T09:44:18Z</time>
      </trkpt>
      <trkpt lat="48.57552" lon="1.88302">
        <ele>127.4</ele>
        <time>2023-12-10T09:44:19Z</time>
      </trkpt>
      <trkpt lat="48.57548" lon="1.88287">
        <ele>127.4</ele>
        <time>2023-12-10T09:44:20Z</time>
      </trkpt>
      <trkpt lat="48.57544" lon="1.88271">
        <ele>126.6</ele>
        <time>2023-12-10T09:44:21Z</time>
      </trkpt>
      <trkpt lat="48.57541" lon="1.88256">
        <ele>126.6</ele>
        <time>2023-12-10T09:44:22Z</time>
      </trkpt>
      <trkpt lat="48.57537" lon="1.88241">
        <ele>126.6</ele>
        <time>2023-12-10T09:44:23Z</time>
      </trkpt>
      <trkpt lat="48.57534" lon="1.88227">
        <ele>126.6</ele>
        <time>2023-12-10T09:44:24Z</time>
      </trkpt>
      <trkpt lat="48.5753" lon="1.88213">
        <ele>127</ele>
        <time>2023-12-10T09:44:25Z</time>
      </trkpt>
      <trkpt lat="48.57527" lon="1.88199">
        <ele>125.4</ele>
        <time>2023-12-10T09:44:26Z</time>
      </trkpt>
      <trkpt lat="48.57524" lon="1.88186">
        <ele>125.4</ele>
        <time>2023-12-10T09:44:27Z</time>
      </trkpt>
      <trkpt lat="48.57521" lon="1.88173">
        <ele>125.4</ele>
        <time>2023-12-10T09:44:28Z</time>
      </trkpt>
      <trkpt lat="48.5752" lon="1.8816">
        <ele>126.4</ele>
        <time>2023-12-10T09:44:29Z</time>
      </trkpt>
      <trkpt lat="48.57519" lon="1.88148">
        <ele>128.8</ele>
        <time>2023-12-10T09:44:30Z</time>
      </trkpt>
      <trkpt lat="48.57519" lon="1.88135">
        <ele>128.8</ele>
        <time>2023-12-10T09:44:31Z</time>
      </trkpt>
      <trkpt lat="48.57519" lon="1.88123">
        <ele>128.8</ele>
        <time>2023-12-10T09:44:32Z</time>
      </trkpt>
      <trkpt lat="48.5752" lon="1.88112">
        <ele>128.8</ele>
        <time>2023-12-10T09:44:33Z</time>
      </trkpt>
      <trkpt lat="48.5752" lon="1.881">
        <ele>128.6</ele>
        <time>2023-12-10T09:44:34Z</time>
      </trkpt>
      <trkpt lat="48.57519" lon="1.88088">
        <ele>128.6</ele>
        <time>2023-12-10T09:44:35Z</time>
      </trkpt>
      <trkpt lat="48.57519" lon="1.88077">
        <ele>128.6</ele>
        <time>2023-12-10T09:44:36Z</time>
      </trkpt>
      <trkpt lat="48.57519" lon="1.88066">
        <ele>128</ele>
        <time>2023-12-10T09:44:37Z</time>
      </trkpt>
      <trkpt lat="48.57518" lon="1.88055">
        <ele>128.8</ele>
        <time>2023-12-10T09:44:38Z</time>
      </trkpt>
      <trkpt lat="48.57517" lon="1.88045">
        <ele>128.8</ele>
        <time>2023-12-10T09:44:39Z</time>
      </trkpt>
      <trkpt lat="48.57515" lon="1.88035">
        <ele>128.8</ele>
        <time>2023-12-10T09:44:40Z</time>
      </trkpt>
      <trkpt lat="48.57514" lon="1.88026">
        <ele>129.8</ele>
        <time>2023-12-10T09:44:41Z</time>
      </trkpt>
      <trkpt lat="48.57512" lon="1.88017">
        <ele>132.2</ele>
        <time>2023-12-10T09:44:42Z</time>
      </trkpt>
      <trkpt lat="48.57511" lon="1.88008">
        <ele>132.2</ele>
        <time>2023-12-10T09:44:43Z</time>
      </trkpt>
      <trkpt lat="48.5751" lon="1.87999">
        <ele>132.2</ele>
        <time>2023-12-10T09:44:44Z</time>
      </trkpt>
      <trkpt lat="48.57509" lon="1.87991">
        <ele>132.2</ele>
        <time>2023-12-10T09:44:45Z</time>
      </trkpt>
      <trkpt lat="48.57508" lon="1.87982">
        <ele>131.8</ele>
        <time>2023-12-10T09:44:46Z</time>
      </trkpt>
      <trkpt lat="48.57508" lon="1.87974">
        <ele>131.8</ele>
        <time>2023-12-10T09:44:47Z</time>
      </trkpt>
      <trkpt lat="48.57508" lon="1.87966">
        <ele>131.8</ele>
        <time>2023-12-10T09:44:48Z</time>
      </trkpt>
      <trkpt lat="48.57508" lon="1.87959">
        <ele>131.8</ele>
        <time>2023-12-10T09:44:49Z</time>
      </trkpt>
      <trkpt lat="48.57508" lon="1.87952">
        <ele>132.4</ele>
        <time>2023-12-10T09:44:50Z</time>
      </trkpt>
      <trkpt lat="48.57509" lon="1.87947">
        <ele>132.4</ele>
        <time>2023-12-10T09:44:51Z</time>
      </trkpt>
      <trkpt lat="48.57509" lon="1.87944">
        <ele>132.4</ele>
        <time>2023-12-10T09:44:52Z</time>
      </trkpt>
      <trkpt lat="48.5751" lon="1.8794">
        <ele>133.4</ele>
        <time>2023-12-10T09:44:53Z</time>
      </trkpt>
      <trkpt lat="48.5751" lon="1.87937">
        <ele>133.2</ele>
        <time>2023-12-10T09:44:54Z</time>
      </trkpt>
      <trkpt lat="48.57508" lon="1.87934">
        <ele>133.2</ele>
        <time>2023-12-10T09:44:55Z</time>
      </trkpt>
      <trkpt lat="48.57505" lon="1.87934">
        <ele>133.2</ele>
        <time>2023-12-10T09:44:56Z</time>
      </trkpt>
      <trkpt lat="48.57503" lon="1.87936">
        <ele>133.2</ele>
        <time>2023-12-10T09:44:57Z</time>
      </trkpt>
      <trkpt lat="48.57501" lon="1.87939">
        <ele>132.6</ele>
        <time>2023-12-10T09:44:58Z</time>
      </trkpt>
      <trkpt lat="48.57498" lon="1.87942">
        <ele>132.6</ele>
        <time>2023-12-10T09:44:59Z</time>
      </trkpt>
      <trkpt lat="48.57494" lon="1.87946">
        <ele>132.6</ele>
        <time>2023-12-10T09:45:00Z</time>
      </trkpt>
      <trkpt lat="48.57491" lon="1.8795">
        <ele>131.8</ele>
        <time>2023-12-10T09:45:01Z</time>
      </trkpt>
      <trkpt lat="48.57487" lon="1.87954">
        <ele>132</ele>
        <time>2023-12-10T09:45:02Z</time>
      </trkpt>
      <trkpt lat="48.57482" lon="1.87958">
        <ele>132</ele>
        <time>2023-12-10T09:45:03Z</time>
      </trkpt>
      <trkpt lat="48.57477" lon="1.87962">
        <ele>132</ele>
        <time>2023-12-10T09:45:04Z</time>
      </trkpt>
      <trkpt lat="48.57472" lon="1.87966">
        <ele>132</ele>
        <time>2023-12-10T09:45:05Z</time>
      </trkpt>
      <trkpt lat="48.57468" lon="1.8797">
        <ele>132.2</ele>
        <time>2023-12-10T09:45:06Z</time>
      </trkpt>
      <trkpt lat="48.57463" lon="1.87974">
        <ele>132.2</ele>
        <time>2023-12-10T09:45:07Z</time>
      </trkpt>
      <trkpt lat="48.57458" lon="1.87979">
        <ele>132.2</ele>
        <time>2023-12-10T09:45:08Z</time>
      </trkpt>
      <trkpt lat="48.57453" lon="1.87984">
        <ele>131.8</ele>
        <time>2023-12-10T09:45:09Z</time>
      </trkpt>
      <trkpt lat="48.57448" lon="1.87989">
        <ele>131.8</ele>
        <time>2023-12-10T09:45:10Z</time>
      </trkpt>
      <trkpt lat="48.57443" lon="1.87994">
        <ele>131.8</ele>
        <time>2023-12-10T09:45:11Z</time>
      </trkpt>
      <trkpt lat="48.57438" lon="1.87999">
        <ele>131.8</ele>
        <time>2023-12-10T09:45:12Z</time>
      </trkpt>
      <trkpt lat="48.57433" lon="1.88003">
        <ele>132.2</ele>
        <time>2023-12-10T09:45:13Z</time>
      </trkpt>
      <trkpt lat="48.57428" lon="1.88008">
        <ele>132.4</ele>
        <time>2023-12-10T09:45:14Z</time>
      </trkpt>
      <trkpt lat="48.57422" lon="1.88013">
        <ele>132.4</ele>
        <time>2023-12-10T09:45:15Z</time>
      </trkpt>
      <trkpt lat="48.57417" lon="1.88018">
        <ele>132.4</ele>
        <time>2023-12-10T09:45:16Z</time>
      </trkpt>
      <trkpt lat="48.57411" lon="1.88023">
        <ele>132.4</ele>
        <time>2023-12-10T09:45:17Z</time>
      </trkpt>
      <trkpt lat="48.57406" lon="1.88028">
        <ele>131.6</ele>
        <time>2023-12-10T09:45:18Z</time>
      </trkpt>
      <trkpt lat="48.574" lon="1.88033">
        <ele>131.6</ele>
        <time>2023-12-10T09:45:19Z</time>
      </trkpt>
      <trkpt lat="48.57394" lon="1.88037">
        <ele>131.6</ele>
        <time>2023-12-10T09:45:20Z</time>
      </trkpt>
      <trkpt lat="48.57389" lon="1.8804">
        <ele>131.6</ele>
        <time>2023-12-10T09:45:21Z</time>
      </trkpt>
      <trkpt lat="48.57383" lon="1.88045">
        <ele>131.8</ele>
        <time>2023-12-10T09:45:22Z</time>
      </trkpt>
      <trkpt lat="48.57379" lon="1.88051">
        <ele>131.8</ele>
        <time>2023-12-10T09:45:23Z</time>
      </trkpt>
      <trkpt lat="48.57374" lon="1.88058">
        <ele>131.8</ele>
        <time>2023-12-10T09:45:24Z</time>
      </trkpt>
      <trkpt lat="48.57368" lon="1.88064">
        <ele>132.4</ele>
        <time>2023-12-10T09:45:25Z</time>
      </trkpt>
      <trkpt lat="48.57363" lon="1.88069">
        <ele>132</ele>
        <time>2023-12-10T09:45:26Z</time>
      </trkpt>
      <trkpt lat="48.57358" lon="1.88074">
        <ele>132</ele>
        <time>2023-12-10T09:45:27Z</time>
      </trkpt>
      <trkpt lat="48.57352" lon="1.88079">
        <ele>132</ele>
        <time>2023-12-10T09:45:28Z</time>
      </trkpt>
      <trkpt lat="48.57347" lon="1.88084">
        <ele>132</ele>
        <time>2023-12-10T09:45:29Z</time>
      </trkpt>
      <trkpt lat="48.57342" lon="1.88089">
        <ele>132</ele>
        <time>2023-12-10T09:45:30Z</time>
      </trkpt>
      <trkpt lat="48.57337" lon="1.88094">
        <ele>132</ele>
        <time>2023-12-10T09:45:31Z</time>
      </trkpt>
      <trkpt lat="48.57331" lon="1.88099">
        <ele>132</ele>
        <time>2023-12-10T09:45:32Z</time>
      </trkpt>
      <trkpt lat="48.57326" lon="1.88104">
        <ele>132.2</ele>
        <time>2023-12-10T09:45:33Z</time>
      </trkpt>
      <trkpt lat="48.5732" lon="1.88109">
        <ele>131.8</ele>
        <time>2023-12-10T09:45:34Z</time>
      </trkpt>
      <trkpt lat="48.57315" lon="1.88115">
        <ele>131.8</ele>
        <time>2023-12-10T09:45:35Z</time>
      </trkpt>
      <trkpt lat="48.57309" lon="1.8812">
        <ele>131.8</ele>
        <time>2023-12-10T09:45:36Z</time>
      </trkpt>
      <trkpt lat="48.57304" lon="1.88125">
        <ele>131.8</ele>
        <time>2023-12-10T09:45:37Z</time>
      </trkpt>
      <trkpt lat="48.57299" lon="1.8813">
        <ele>132.6</ele>
        <time>2023-12-10T09:45:38Z</time>
      </trkpt>
      <trkpt lat="48.57294" lon="1.88134">
        <ele>132.6</ele>
        <time>2023-12-10T09:45:39Z</time>
      </trkpt>
      <trkpt lat="48.57289" lon="1.88139">
        <ele>132.6</ele>
        <time>2023-12-10T09:45:40Z</time>
      </trkpt>
      <trkpt lat="48.57283" lon="1.88143">
        <ele>133</ele>
        <time>2023-12-10T09:45:41Z</time>
      </trkpt>
      <trkpt lat="48.57278" lon="1.88148">
        <ele>132.4</ele>
        <time>2023-12-10T09:45:42Z</time>
      </trkpt>
      <trkpt lat="48.57273" lon="1.88153">
        <ele>132.4</ele>
        <time>2023-12-10T09:45:43Z</time>
      </trkpt>
      <trkpt lat="48.57268" lon="1.88157">
        <ele>132.4</ele>
        <time>2023-12-10T09:45:44Z</time>
      </trkpt>
      <trkpt lat="48.57263" lon="1.88162">
        <ele>133</ele>
        <time>2023-12-10T09:45:45Z</time>
      </trkpt>
      <trkpt lat="48.57258" lon="1.88167">
        <ele>131.8</ele>
        <time>2023-12-10T09:45:46Z</time>
      </trkpt>
      <trkpt lat="48.57252" lon="1.88172">
        <ele>131.8</ele>
        <time>2023-12-10T09:45:47Z</time>
      </trkpt>
      <trkpt lat="48.57247" lon="1.88176">
        <ele>131.8</ele>
        <time>2023-12-10T09:45:48Z</time>
      </trkpt>
      <trkpt lat="48.57242" lon="1.8818">
        <ele>132.4</ele>
        <time>2023-12-10T09:45:49Z</time>
      </trkpt>
      <trkpt lat="48.57237" lon="1.88184">
        <ele>133.2</ele>
        <time>2023-12-10T09:45:50Z</time>
      </trkpt>
      <trkpt lat="48.57232" lon="1.88189">
        <ele>133.2</ele>
        <time>2023-12-10T09:45:51Z</time>
      </trkpt>
      <trkpt lat="48.57227" lon="1.88193">
        <ele>133.2</ele>
        <time>2023-12-10T09:45:52Z</time>
      </trkpt>
      <trkpt lat="48.57223" lon="1.88198">
        <ele>133.8</ele>
        <time>2023-12-10T09:45:53Z</time>
      </trkpt>
      <trkpt lat="48.57219" lon="1.88202">
        <ele>133.8</ele>
        <time>2023-12-10T09:45:54Z</time>
      </trkpt>
      <trkpt lat="48.57214" lon="1.88206">
        <ele>133.8</ele>
        <time>2023-12-10T09:45:55Z</time>
      </trkpt>
      <trkpt lat="48.57209" lon="1.8821">
        <ele>133.8</ele>
        <time>2023-12-10T09:45:56Z</time>
      </trkpt>
      <trkpt lat="48.57205" lon="1.88215">
        <ele>134</ele>
        <time>2023-12-10T09:45:57Z</time>
      </trkpt>
      <trkpt lat="48.572" lon="1.88219">
        <ele>134</ele>
        <time>2023-12-10T09:45:58Z</time>
      </trkpt>
      <trkpt lat="48.57195" lon="1.88223">
        <ele>134</ele>
        <time>2023-12-10T09:45:59Z</time>
      </trkpt>
      <trkpt lat="48.5719" lon="1.88227">
        <ele>134</ele>
        <time>2023-12-10T09:46:00Z</time>
      </trkpt>
      <trkpt lat="48.57186" lon="1.88232">
        <ele>134.4</ele>
        <time>2023-12-10T09:46:01Z</time>
      </trkpt>
      <trkpt lat="48.57181" lon="1.88236">
        <ele>134</ele>
        <time>2023-12-10T09:46:02Z</time>
      </trkpt>
      <trkpt lat="48.57176" lon="1.8824">
        <ele>134</ele>
        <time>2023-12-10T09:46:03Z</time>
      </trkpt>
      <trkpt lat="48.57171" lon="1.88245">
        <ele>134</ele>
        <time>2023-12-10T09:46:04Z</time>
      </trkpt>
      <trkpt lat="48.57166" lon="1.8825">
        <ele>134.4</ele>
        <time>2023-12-10T09:46:05Z</time>
      </trkpt>
      <trkpt lat="48.57161" lon="1.88255">
        <ele>134.4</ele>
        <time>2023-12-10T09:46:06Z</time>
      </trkpt>
      <trkpt lat="48.57156" lon="1.88259">
        <ele>134.4</ele>
        <time>2023-12-10T09:46:07Z</time>
      </trkpt>
      <trkpt lat="48.5715" lon="1.88264">
        <ele>134.4</ele>
        <time>2023-12-10T09:46:08Z</time>
      </trkpt>
      <trkpt lat="48.57145" lon="1.88269">
        <ele>134.4</ele>
        <time>2023-12-10T09:46:09Z</time>
      </trkpt>
      <trkpt lat="48.5714" lon="1.88274">
        <ele>133.6</ele>
        <time>2023-12-10T09:46:10Z</time>
      </trkpt>
      <trkpt lat="48.57135" lon="1.88279">
        <ele>133.6</ele>
        <time>2023-12-10T09:46:11Z</time>
      </trkpt>
      <trkpt lat="48.5713" lon="1.88283">
        <ele>133.6</ele>
        <time>2023-12-10T09:46:12Z</time>
      </trkpt>
      <trkpt lat="48.57125" lon="1.88288">
        <ele>133.6</ele>
        <time>2023-12-10T09:46:13Z</time>
      </trkpt>
      <trkpt lat="48.57119" lon="1.88293">
        <ele>133.8</ele>
        <time>2023-12-10T09:46:14Z</time>
      </trkpt>
      <trkpt lat="48.57114" lon="1.88297">
        <ele>133.8</ele>
        <time>2023-12-10T09:46:15Z</time>
      </trkpt>
      <trkpt lat="48.57108" lon="1.88302">
        <ele>133.8</ele>
        <time>2023-12-10T09:46:16Z</time>
      </trkpt>
      <trkpt lat="48.57103" lon="1.88307">
        <ele>133.4</ele>
        <time>2023-12-10T09:46:17Z</time>
      </trkpt>
      <trkpt lat="48.57098" lon="1.88313">
        <ele>133.6</ele>
        <time>2023-12-10T09:46:18Z</time>
      </trkpt>
      <trkpt lat="48.57092" lon="1.88318">
        <ele>133.6</ele>
        <time>2023-12-10T09:46:19Z</time>
      </trkpt>
      <trkpt lat="48.57087" lon="1.88323">
        <ele>133.6</ele>
        <time>2023-12-10T09:46:20Z</time>
      </trkpt>
      <trkpt lat="48.57082" lon="1.88327">
        <ele>134.2</ele>
        <time>2023-12-10T09:46:21Z</time>
      </trkpt>
      <trkpt lat="48.57077" lon="1.88331">
        <ele>133.2</ele>
        <time>2023-12-10T09:46:22Z</time>
      </trkpt>
      <trkpt lat="48.57072" lon="1.88335">
        <ele>133.2</ele>
        <time>2023-12-10T09:46:23Z</time>
      </trkpt>
      <trkpt lat="48.57066" lon="1.8834">
        <ele>133.2</ele>
        <time>2023-12-10T09:46:24Z</time>
      </trkpt>
      <trkpt lat="48.57059" lon="1.88346">
        <ele>132.2</ele>
        <time>2023-12-10T09:46:25Z</time>
      </trkpt>
      <trkpt lat="48.57053" lon="1.88351">
        <ele>131.2</ele>
        <time>2023-12-10T09:46:26Z</time>
      </trkpt>
      <trkpt lat="48.57046" lon="1.88357">
        <ele>131.2</ele>
        <time>2023-12-10T09:46:27Z</time>
      </trkpt>
      <trkpt lat="48.57038" lon="1.88363">
        <ele>131.2</ele>
        <time>2023-12-10T09:46:28Z</time>
      </trkpt>
      <trkpt lat="48.57031" lon="1.88368">
        <ele>130.2</ele>
        <time>2023-12-10T09:46:29Z</time>
      </trkpt>
      <trkpt lat="48.57024" lon="1.88374">
        <ele>128.8</ele>
        <time>2023-12-10T09:46:30Z</time>
      </trkpt>
      <trkpt lat="48.57016" lon="1.88379">
        <ele>128.8</ele>
        <time>2023-12-10T09:46:31Z</time>
      </trkpt>
      <trkpt lat="48.5701" lon="1.88384">
        <ele>128.8</ele>
        <time>2023-12-10T09:46:32Z</time>
      </trkpt>
      <trkpt lat="48.57002" lon="1.88391">
        <ele>128</ele>
        <time>2023-12-10T09:46:33Z</time>
      </trkpt>
      <trkpt lat="48.56994" lon="1.88399">
        <ele>127.6</ele>
        <time>2023-12-10T09:46:34Z</time>
      </trkpt>
      <trkpt lat="48.56987" lon="1.88408">
        <ele>127.6</ele>
        <time>2023-12-10T09:46:35Z</time>
      </trkpt>
      <trkpt lat="48.5698" lon="1.88418">
        <ele>127.6</ele>
        <time>2023-12-10T09:46:36Z</time>
      </trkpt>
      <trkpt lat="48.56973" lon="1.88428">
        <ele>126.6</ele>
        <time>2023-12-10T09:46:37Z</time>
      </trkpt>
      <trkpt lat="48.56967" lon="1.88439">
        <ele>125</ele>
        <time>2023-12-10T09:46:38Z</time>
      </trkpt>
      <trkpt lat="48.56962" lon="1.8845">
        <ele>125</ele>
        <time>2023-12-10T09:46:39Z</time>
      </trkpt>
      <trkpt lat="48.56957" lon="1.88461">
        <ele>125</ele>
        <time>2023-12-10T09:46:40Z</time>
      </trkpt>
      <trkpt lat="48.56953" lon="1.88472">
        <ele>125</ele>
        <time>2023-12-10T09:46:41Z</time>
      </trkpt>
      <trkpt lat="48.56948" lon="1.88483">
        <ele>124.8</ele>
        <time>2023-12-10T09:46:42Z</time>
      </trkpt>
      <trkpt lat="48.56945" lon="1.88495">
        <ele>124.8</ele>
        <time>2023-12-10T09:46:43Z</time>
      </trkpt>
      <trkpt lat="48.56942" lon="1.88506">
        <ele>124.8</ele>
        <time>2023-12-10T09:46:44Z</time>
      </trkpt>
      <trkpt lat="48.56939" lon="1.88518">
        <ele>124.8</ele>
        <time>2023-12-10T09:46:45Z</time>
      </trkpt>
      <trkpt lat="48.56936" lon="1.88528">
        <ele>126.4</ele>
        <time>2023-12-10T09:46:46Z</time>
      </trkpt>
      <trkpt lat="48.56932" lon="1.8854">
        <ele>126.4</ele>
        <time>2023-12-10T09:46:47Z</time>
      </trkpt>
      <trkpt lat="48.56929" lon="1.88552">
        <ele>126.4</ele>
        <time>2023-12-10T09:46:48Z</time>
      </trkpt>
      <trkpt lat="48.56925" lon="1.88563">
        <ele>126.6</ele>
        <time>2023-12-10T09:46:49Z</time>
      </trkpt>
      <trkpt lat="48.56922" lon="1.88574">
        <ele>126.6</ele>
        <time>2023-12-10T09:46:50Z</time>
      </trkpt>
      <trkpt lat="48.56918" lon="1.88585">
        <ele>126.6</ele>
        <time>2023-12-10T09:46:51Z</time>
      </trkpt>
      <trkpt lat="48.56914" lon="1.88595">
        <ele>126.6</ele>
        <time>2023-12-10T09:46:52Z</time>
      </trkpt>
      <trkpt lat="48.5691" lon="1.88605">
        <ele>126.6</ele>
        <time>2023-12-10T09:46:53Z</time>
      </trkpt>
      <trkpt lat="48.56906" lon="1.88615">
        <ele>127</ele>
        <time>2023-12-10T09:46:54Z</time>
      </trkpt>
      <trkpt lat="48.56902" lon="1.88624">
        <ele>127</ele>
        <time>2023-12-10T09:46:55Z</time>
      </trkpt>
      <trkpt lat="48.56897" lon="1.88633">
        <ele>127</ele>
        <time>2023-12-10T09:46:56Z</time>
      </trkpt>
      <trkpt lat="48.56893" lon="1.88641">
        <ele>126</ele>
        <time>2023-12-10T09:46:57Z</time>
      </trkpt>
      <trkpt lat="48.56888" lon="1.88649">
        <ele>125</ele>
        <time>2023-12-10T09:46:58Z</time>
      </trkpt>
      <trkpt lat="48.56883" lon="1.88658">
        <ele>125</ele>
        <time>2023-12-10T09:46:59Z</time>
      </trkpt>
      <trkpt lat="48.56879" lon="1.88666">
        <ele>125</ele>
        <time>2023-12-10T09:47:00Z</time>
      </trkpt>
      <trkpt lat="48.56874" lon="1.88675">
        <ele>125.6</ele>
        <time>2023-12-10T09:47:01Z</time>
      </trkpt>
      <trkpt lat="48.5687" lon="1.88683">
        <ele>126.4</ele>
        <time>2023-12-10T09:47:02Z</time>
      </trkpt>
      <trkpt lat="48.56866" lon="1.88691">
        <ele>126.4</ele>
        <time>2023-12-10T09:47:03Z</time>
      </trkpt>
      <trkpt lat="48.56862" lon="1.88699">
        <ele>126.4</ele>
        <time>2023-12-10T09:47:04Z</time>
      </trkpt>
      <trkpt lat="48.56857" lon="1.88707">
        <ele>126.4</ele>
        <time>2023-12-10T09:47:05Z</time>
      </trkpt>
      <trkpt lat="48.56853" lon="1.88715">
        <ele>125.8</ele>
        <time>2023-12-10T09:47:06Z</time>
      </trkpt>
      <trkpt lat="48.56849" lon="1.88723">
        <ele>125.8</ele>
        <time>2023-12-10T09:47:07Z</time>
      </trkpt>
      <trkpt lat="48.56845" lon="1.8873">
        <ele>125.8</ele>
        <time>2023-12-10T09:47:08Z</time>
      </trkpt>
      <trkpt lat="48.56841" lon="1.88738">
        <ele>126.8</ele>
        <time>2023-12-10T09:47:09Z</time>
      </trkpt>
      <trkpt lat="48.56838" lon="1.88746">
        <ele>128</ele>
        <time>2023-12-10T09:47:10Z</time>
      </trkpt>
      <trkpt lat="48.56834" lon="1.88754">
        <ele>128</ele>
        <time>2023-12-10T09:47:11Z</time>
      </trkpt>
      <trkpt lat="48.56831" lon="1.88763">
        <ele>128</ele>
        <time>2023-12-10T09:47:12Z</time>
      </trkpt>
      <trkpt lat="48.56827" lon="1.88772">
        <ele>127.8</ele>
        <time>2023-12-10T09:47:13Z</time>
      </trkpt>
      <trkpt lat="48.56825" lon="1.88781">
        <ele>127</ele>
        <time>2023-12-10T09:47:14Z</time>
      </trkpt>
      <trkpt lat="48.56823" lon="1.88791">
        <ele>127</ele>
        <time>2023-12-10T09:47:15Z</time>
      </trkpt>
      <trkpt lat="48.56821" lon="1.88802">
        <ele>127</ele>
        <time>2023-12-10T09:47:16Z</time>
      </trkpt>
      <trkpt lat="48.5682" lon="1.88811">
        <ele>127</ele>
        <time>2023-12-10T09:47:17Z</time>
      </trkpt>
      <trkpt lat="48.56818" lon="1.88821">
        <ele>126.8</ele>
        <time>2023-12-10T09:47:18Z</time>
      </trkpt>
      <trkpt lat="48.56818" lon="1.88832">
        <ele>126.8</ele>
        <time>2023-12-10T09:47:19Z</time>
      </trkpt>
      <trkpt lat="48.56817" lon="1.88842">
        <ele>126.8</ele>
        <time>2023-12-10T09:47:20Z</time>
      </trkpt>
      <trkpt lat="48.56815" lon="1.88852">
        <ele>126</ele>
        <time>2023-12-10T09:47:21Z</time>
      </trkpt>
      <trkpt lat="48.56811" lon="1.88861">
        <ele>126.8</ele>
        <time>2023-12-10T09:47:22Z</time>
      </trkpt>
      <trkpt lat="48.56806" lon="1.88868">
        <ele>126.8</ele>
        <time>2023-12-10T09:47:23Z</time>
      </trkpt>
      <trkpt lat="48.568" lon="1.88872">
        <ele>126.8</ele>
        <time>2023-12-10T09:47:24Z</time>
      </trkpt>
      <trkpt lat="48.56794" lon="1.88874">
        <ele>126.8</ele>
        <time>2023-12-10T09:47:25Z</time>
      </trkpt>
      <trkpt lat="48.56787" lon="1.88874">
        <ele>127</ele>
        <time>2023-12-10T09:47:26Z</time>
      </trkpt>
      <trkpt lat="48.56781" lon="1.88876">
        <ele>127</ele>
        <time>2023-12-10T09:47:27Z</time>
      </trkpt>
      <trkpt lat="48.56774" lon="1.88878">
        <ele>127</ele>
        <time>2023-12-10T09:47:28Z</time>
      </trkpt>
      <trkpt lat="48.56767" lon="1.8888">
        <ele>127.6</ele>
        <time>2023-12-10T09:47:29Z</time>
      </trkpt>
      <trkpt lat="48.56761" lon="1.8888">
        <ele>127.4</ele>
        <time>2023-12-10T09:47:30Z</time>
      </trkpt>
      <trkpt lat="48.56754" lon="1.88882">
        <ele>127.4</ele>
        <time>2023-12-10T09:47:31Z</time>
      </trkpt>
      <trkpt lat="48.56747" lon="1.88884">
        <ele>127.4</ele>
        <time>2023-12-10T09:47:32Z</time>
      </trkpt>
      <trkpt lat="48.56741" lon="1.88886">
        <ele>127.2</ele>
        <time>2023-12-10T09:47:33Z</time>
      </trkpt>
      <trkpt lat="48.56734" lon="1.88887">
        <ele>127.4</ele>
        <time>2023-12-10T09:47:34Z</time>
      </trkpt>
      <trkpt lat="48.56728" lon="1.88888">
        <ele>127.4</ele>
        <time>2023-12-10T09:47:35Z</time>
      </trkpt>
      <trkpt lat="48.56722" lon="1.88889">
        <ele>127.4</ele>
        <time>2023-12-10T09:47:36Z</time>
      </trkpt>
      <trkpt lat="48.56716" lon="1.88891">
        <ele>128.2</ele>
        <time>2023-12-10T09:47:37Z</time>
      </trkpt>
      <trkpt lat="48.56711" lon="1.88892">
        <ele>128.6</ele>
        <time>2023-12-10T09:47:38Z</time>
      </trkpt>
      <trkpt lat="48.56705" lon="1.88894">
        <ele>128.6</ele>
        <time>2023-12-10T09:47:39Z</time>
      </trkpt>
      <trkpt lat="48.56699" lon="1.88896">
        <ele>128.6</ele>
        <time>2023-12-10T09:47:40Z</time>
      </trkpt>
      <trkpt lat="48.56694" lon="1.88897">
        <ele>129.4</ele>
        <time>2023-12-10T09:47:41Z</time>
      </trkpt>
      <trkpt lat="48.56689" lon="1.88898">
        <ele>130</ele>
        <time>2023-12-10T09:47:42Z</time>
      </trkpt>
      <trkpt lat="48.56684" lon="1.889">
        <ele>130</ele>
        <time>2023-12-10T09:47:43Z</time>
      </trkpt>
      <trkpt lat="48.56679" lon="1.88901">
        <ele>130</ele>
        <time>2023-12-10T09:47:44Z</time>
      </trkpt>
      <trkpt lat="48.56673" lon="1.88904">
        <ele>130</ele>
        <time>2023-12-10T09:47:45Z</time>
      </trkpt>
      <trkpt lat="48.56668" lon="1.88905">
        <ele>130.6</ele>
        <time>2023-12-10T09:47:46Z</time>
      </trkpt>
      <trkpt lat="48.56663" lon="1.88907">
        <ele>130.6</ele>
        <time>2023-12-10T09:47:47Z</time>
      </trkpt>
      <trkpt lat="48.56659" lon="1.88908">
        <ele>130.6</ele>
        <time>2023-12-10T09:47:48Z</time>
      </trkpt>
      <trkpt lat="48.56654" lon="1.88909">
        <ele>131.2</ele>
        <time>2023-12-10T09:47:49Z</time>
      </trkpt>
      <trkpt lat="48.5665" lon="1.8891">
        <ele>131.6</ele>
        <time>2023-12-10T09:47:50Z</time>
      </trkpt>
      <trkpt lat="48.56646" lon="1.8891">
        <ele>131.6</ele>
        <time>2023-12-10T09:47:51Z</time>
      </trkpt>
      <trkpt lat="48.56642" lon="1.88911">
        <ele>131.6</ele>
        <time>2023-12-10T09:47:52Z</time>
      </trkpt>
      <trkpt lat="48.56638" lon="1.88912">
        <ele>132.4</ele>
        <time>2023-12-10T09:47:53Z</time>
      </trkpt>
      <trkpt lat="48.56634" lon="1.88913">
        <ele>132.4</ele>
        <time>2023-12-10T09:47:54Z</time>
      </trkpt>
      <trkpt lat="48.56629" lon="1.88914">
        <ele>132.4</ele>
        <time>2023-12-10T09:47:55Z</time>
      </trkpt>
      <trkpt lat="48.56625" lon="1.88916">
        <ele>132.4</ele>
        <time>2023-12-10T09:47:56Z</time>
      </trkpt>
      <trkpt lat="48.56621" lon="1.88916">
        <ele>132.6</ele>
        <time>2023-12-10T09:47:57Z</time>
      </trkpt>
      <trkpt lat="48.56617" lon="1.88918">
        <ele>133.6</ele>
        <time>2023-12-10T09:47:58Z</time>
      </trkpt>
      <trkpt lat="48.56614" lon="1.8892">
        <ele>133.6</ele>
        <time>2023-12-10T09:47:59Z</time>
      </trkpt>
      <trkpt lat="48.5661" lon="1.88921">
        <ele>133.6</ele>
        <time>2023-12-10T09:48:00Z</time>
      </trkpt>
      <trkpt lat="48.56606" lon="1.88922">
        <ele>133.6</ele>
        <time>2023-12-10T09:48:01Z</time>
      </trkpt>
      <trkpt lat="48.566" lon="1.88925">
        <ele>134.6</ele>
        <time>2023-12-10T09:48:02Z</time>
      </trkpt>
      <trkpt lat="48.56596" lon="1.88927">
        <ele>134.6</ele>
        <time>2023-12-10T09:48:03Z</time>
      </trkpt>
      <trkpt lat="48.56591" lon="1.88929">
        <ele>134.6</ele>
        <time>2023-12-10T09:48:04Z</time>
      </trkpt>
      <trkpt lat="48.56588" lon="1.88931">
        <ele>134.6</ele>
        <time>2023-12-10T09:48:05Z</time>
      </trkpt>
      <trkpt lat="48.56584" lon="1.88933">
        <ele>134.6</ele>
        <time>2023-12-10T09:48:06Z</time>
      </trkpt>
      <trkpt lat="48.5658" lon="1.88937">
        <ele>134.6</ele>
        <time>2023-12-10T09:48:07Z</time>
      </trkpt>
      <trkpt lat="48.56576" lon="1.88941">
        <ele>134.6</ele>
        <time>2023-12-10T09:48:08Z</time>
      </trkpt>
      <trkpt lat="48.56574" lon="1.88944">
        <ele>134.6</ele>
        <time>2023-12-10T09:48:09Z</time>
      </trkpt>
      <trkpt lat="48.5657" lon="1.88948">
        <ele>134.8</ele>
        <time>2023-12-10T09:48:10Z</time>
      </trkpt>
      <trkpt lat="48.56567" lon="1.88953">
        <ele>134.8</ele>
        <time>2023-12-10T09:48:11Z</time>
      </trkpt>
      <trkpt lat="48.56564" lon="1.88959">
        <ele>134.8</ele>
        <time>2023-12-10T09:48:12Z</time>
      </trkpt>
      <trkpt lat="48.56561" lon="1.88966">
        <ele>135</ele>
        <time>2023-12-10T09:48:13Z</time>
      </trkpt>
      <trkpt lat="48.5656" lon="1.88972">
        <ele>135.2</ele>
        <time>2023-12-10T09:48:14Z</time>
      </trkpt>
      <trkpt lat="48.56558" lon="1.88979">
        <ele>135.2</ele>
        <time>2023-12-10T09:48:15Z</time>
      </trkpt>
      <trkpt lat="48.56557" lon="1.88986">
        <ele>135.2</ele>
        <time>2023-12-10T09:48:16Z</time>
      </trkpt>
      <trkpt lat="48.56556" lon="1.88993">
        <ele>136</ele>
        <time>2023-12-10T09:48:17Z</time>
      </trkpt>
      <trkpt lat="48.56555" lon="1.88999">
        <ele>136.2</ele>
        <time>2023-12-10T09:48:18Z</time>
      </trkpt>
      <trkpt lat="48.56555" lon="1.89005">
        <ele>136.2</ele>
        <time>2023-12-10T09:48:19Z</time>
      </trkpt>
      <trkpt lat="48.56555" lon="1.89012">
        <ele>136.2</ele>
        <time>2023-12-10T09:48:20Z</time>
      </trkpt>
      <trkpt lat="48.56555" lon="1.89019">
        <ele>136.8</ele>
        <time>2023-12-10T09:48:21Z</time>
      </trkpt>
      <trkpt lat="48.56556" lon="1.89025">
        <ele>137</ele>
        <time>2023-12-10T09:48:22Z</time>
      </trkpt>
      <trkpt lat="48.56556" lon="1.89031">
        <ele>137</ele>
        <time>2023-12-10T09:48:23Z</time>
      </trkpt>
      <trkpt lat="48.56557" lon="1.89038">
        <ele>137</ele>
        <time>2023-12-10T09:48:24Z</time>
      </trkpt>
      <trkpt lat="48.56558" lon="1.89044">
        <ele>137.6</ele>
        <time>2023-12-10T09:48:25Z</time>
      </trkpt>
      <trkpt lat="48.56559" lon="1.89051">
        <ele>138</ele>
        <time>2023-12-10T09:48:26Z</time>
      </trkpt>
      <trkpt lat="48.5656" lon="1.89057">
        <ele>138</ele>
        <time>2023-12-10T09:48:27Z</time>
      </trkpt>
      <trkpt lat="48.56562" lon="1.89062">
        <ele>138</ele>
        <time>2023-12-10T09:48:28Z</time>
      </trkpt>
      <trkpt lat="48.56564" lon="1.89068">
        <ele>138.6</ele>
        <time>2023-12-10T09:48:29Z</time>
      </trkpt>
      <trkpt lat="48.56565" lon="1.89073">
        <ele>138.6</ele>
        <time>2023-12-10T09:48:30Z</time>
      </trkpt>
      <trkpt lat="48.56567" lon="1.89078">
        <ele>138.6</ele>
        <time>2023-12-10T09:48:31Z</time>
      </trkpt>
      <trkpt lat="48.56568" lon="1.89083">
        <ele>138.6</ele>
        <time>2023-12-10T09:48:32Z</time>
      </trkpt>
      <trkpt lat="48.56569" lon="1.89087">
        <ele>139.4</ele>
        <time>2023-12-10T09:48:33Z</time>
      </trkpt>
      <trkpt lat="48.56571" lon="1.8909">
        <ele>139.8</ele>
        <time>2023-12-10T09:48:34Z</time>
      </trkpt>
      <trkpt lat="48.56573" lon="1.89094">
        <ele>139.8</ele>
        <time>2023-12-10T09:48:35Z</time>
      </trkpt>
      <trkpt lat="48.56576" lon="1.89097">
        <ele>139.8</ele>
        <time>2023-12-10T09:48:36Z</time>
      </trkpt>
      <trkpt lat="48.56578" lon="1.891">
        <ele>140.6</ele>
        <time>2023-12-10T09:48:37Z</time>
      </trkpt>
      <trkpt lat="48.5658" lon="1.89103">
        <ele>140.4</ele>
        <time>2023-12-10T09:48:38Z</time>
      </trkpt>
      <trkpt lat="48.56582" lon="1.89106">
        <ele>140.4</ele>
        <time>2023-12-10T09:48:39Z</time>
      </trkpt>
      <trkpt lat="48.56585" lon="1.89109">
        <ele>140.4</ele>
        <time>2023-12-10T09:48:40Z</time>
      </trkpt>
      <trkpt lat="48.56586" lon="1.89111">
        <ele>141.2</ele>
        <time>2023-12-10T09:48:41Z</time>
      </trkpt>
      <trkpt lat="48.56588" lon="1.89114">
        <ele>141.4</ele>
        <time>2023-12-10T09:48:42Z</time>
      </trkpt>
      <trkpt lat="48.56589" lon="1.89118">
        <ele>141.4</ele>
        <time>2023-12-10T09:48:43Z</time>
      </trkpt>
      <trkpt lat="48.56591" lon="1.89121">
        <ele>141.4</ele>
        <time>2023-12-10T09:48:44Z</time>
      </trkpt>
      <trkpt lat="48.56593" lon="1.89124">
        <ele>141.8</ele>
        <time>2023-12-10T09:48:45Z</time>
      </trkpt>
      <trkpt lat="48.56595" lon="1.89128">
        <ele>142.4</ele>
        <time>2023-12-10T09:48:46Z</time>
      </trkpt>
      <trkpt lat="48.56597" lon="1.89132">
        <ele>142.4</ele>
        <time>2023-12-10T09:48:47Z</time>
      </trkpt>
      <trkpt lat="48.566" lon="1.89137">
        <ele>142.4</ele>
        <time>2023-12-10T09:48:48Z</time>
      </trkpt>
      <trkpt lat="48.56603" lon="1.89142">
        <ele>142.4</ele>
        <time>2023-12-10T09:48:49Z</time>
      </trkpt>
      <trkpt lat="48.56605" lon="1.89147">
        <ele>143.4</ele>
        <time>2023-12-10T09:48:50Z</time>
      </trkpt>
      <trkpt lat="48.56609" lon="1.89152">
        <ele>143.4</ele>
        <time>2023-12-10T09:48:51Z</time>
      </trkpt>
      <trkpt lat="48.56611" lon="1.89157">
        <ele>143.4</ele>
        <time>2023-12-10T09:48:52Z</time>
      </trkpt>
      <trkpt lat="48.56611" lon="1.89163">
        <ele>144.4</ele>
        <time>2023-12-10T09:48:53Z</time>
      </trkpt>
      <trkpt lat="48.56613" lon="1.89169">
        <ele>144.6</ele>
        <time>2023-12-10T09:48:54Z</time>
      </trkpt>
      <trkpt lat="48.56615" lon="1.89174">
        <ele>144.6</ele>
        <time>2023-12-10T09:48:55Z</time>
      </trkpt>
      <trkpt lat="48.56616" lon="1.8918">
        <ele>144.6</ele>
        <time>2023-12-10T09:48:56Z</time>
      </trkpt>
      <trkpt lat="48.56617" lon="1.89186">
        <ele>144.6</ele>
        <time>2023-12-10T09:48:57Z</time>
      </trkpt>
      <trkpt lat="48.56618" lon="1.89191">
        <ele>145</ele>
        <time>2023-12-10T09:48:58Z</time>
      </trkpt>
      <trkpt lat="48.5662" lon="1.89197">
        <ele>145</ele>
        <time>2023-12-10T09:48:59Z</time>
      </trkpt>
      <trkpt lat="48.56621" lon="1.89203">
        <ele>145</ele>
        <time>2023-12-10T09:49:00Z</time>
      </trkpt>
      <trkpt lat="48.56622" lon="1.89208">
        <ele>146</ele>
        <time>2023-12-10T09:49:01Z</time>
      </trkpt>
      <trkpt lat="48.56624" lon="1.89214">
        <ele>146.2</ele>
        <time>2023-12-10T09:49:02Z</time>
      </trkpt>
      <trkpt lat="48.56626" lon="1.89219">
        <ele>146.2</ele>
        <time>2023-12-10T09:49:03Z</time>
      </trkpt>
      <trkpt lat="48.56626" lon="1.89224">
        <ele>146.2</ele>
        <time>2023-12-10T09:49:04Z</time>
      </trkpt>
      <trkpt lat="48.56626" lon="1.8923">
        <ele>146.6</ele>
        <time>2023-12-10T09:49:05Z</time>
      </trkpt>
      <trkpt lat="48.56625" lon="1.89235">
        <ele>146.8</ele>
        <time>2023-12-10T09:49:06Z</time>
      </trkpt>
      <trkpt lat="48.56625" lon="1.8924">
        <ele>146.8</ele>
        <time>2023-12-10T09:49:07Z</time>
      </trkpt>
      <trkpt lat="48.56623" lon="1.89245">
        <ele>146.8</ele>
        <time>2023-12-10T09:49:08Z</time>
      </trkpt>
      <trkpt lat="48.56623" lon="1.89252">
        <ele>147.4</ele>
        <time>2023-12-10T09:49:09Z</time>
      </trkpt>
      <trkpt lat="48.56621" lon="1.89255">
        <ele>147.4</ele>
        <time>2023-12-10T09:49:10Z</time>
      </trkpt>
      <trkpt lat="48.5662" lon="1.89259">
        <ele>147.4</ele>
        <time>2023-12-10T09:49:11Z</time>
      </trkpt>
      <trkpt lat="48.56618" lon="1.89264">
        <ele>147.4</ele>
        <time>2023-12-10T09:49:12Z</time>
      </trkpt>
      <trkpt lat="48.56617" lon="1.89267">
        <ele>148</ele>
        <time>2023-12-10T09:49:13Z</time>
      </trkpt>
      <trkpt lat="48.56615" lon="1.89272">
        <ele>148.4</ele>
        <time>2023-12-10T09:49:14Z</time>
      </trkpt>
      <trkpt lat="48.56612" lon="1.89276">
        <ele>148.4</ele>
        <time>2023-12-10T09:49:15Z</time>
      </trkpt>
      <trkpt lat="48.5661" lon="1.89281">
        <ele>148.4</ele>
        <time>2023-12-10T09:49:16Z</time>
      </trkpt>
      <trkpt lat="48.56608" lon="1.89285">
        <ele>148.4</ele>
        <time>2023-12-10T09:49:17Z</time>
      </trkpt>
      <trkpt lat="48.56605" lon="1.89287">
        <ele>149.6</ele>
        <time>2023-12-10T09:49:18Z</time>
      </trkpt>
      <trkpt lat="48.56602" lon="1.8929">
        <ele>149.6</ele>
        <time>2023-12-10T09:49:19Z</time>
      </trkpt>
      <trkpt lat="48.56599" lon="1.89293">
        <ele>149.6</ele>
        <time>2023-12-10T09:49:20Z</time>
      </trkpt>
      <trkpt lat="48.56596" lon="1.89297">
        <ele>149.6</ele>
        <time>2023-12-10T09:49:21Z</time>
      </trkpt>
      <trkpt lat="48.56592" lon="1.893">
        <ele>150</ele>
        <time>2023-12-10T09:49:22Z</time>
      </trkpt>
      <trkpt lat="48.56589" lon="1.89303">
        <ele>150</ele>
        <time>2023-12-10T09:49:23Z</time>
      </trkpt>
      <trkpt lat="48.56585" lon="1.89306">
        <ele>150</ele>
        <time>2023-12-10T09:49:24Z</time>
      </trkpt>
      <trkpt lat="48.56582" lon="1.89308">
        <ele>150.4</ele>
        <time>2023-12-10T09:49:25Z</time>
      </trkpt>
      <trkpt lat="48.56578" lon="1.8931">
        <ele>150.8</ele>
        <time>2023-12-10T09:49:26Z</time>
      </trkpt>
      <trkpt lat="48.56574" lon="1.89312">
        <ele>150.8</ele>
        <time>2023-12-10T09:49:27Z</time>
      </trkpt>
      <trkpt lat="48.5657" lon="1.89313">
        <ele>150.8</ele>
        <time>2023-12-10T09:49:28Z</time>
      </trkpt>
      <trkpt lat="48.56566" lon="1.89313">
        <ele>151.8</ele>
        <time>2023-12-10T09:49:29Z</time>
      </trkpt>
      <trkpt lat="48.56563" lon="1.89313">
        <ele>151.8</ele>
        <time>2023-12-10T09:49:30Z</time>
      </trkpt>
      <trkpt lat="48.56559" lon="1.89316">
        <ele>151.8</ele>
        <time>2023-12-10T09:49:31Z</time>
      </trkpt>
      <trkpt lat="48.56555" lon="1.89315">
        <ele>151.8</ele>
        <time>2023-12-10T09:49:32Z</time>
      </trkpt>
      <trkpt lat="48.56551" lon="1.89315">
        <ele>152.4</ele>
        <time>2023-12-10T09:49:33Z</time>
      </trkpt>
      <trkpt lat="48.56547" lon="1.89316">
        <ele>152.6</ele>
        <time>2023-12-10T09:49:34Z</time>
      </trkpt>
      <trkpt lat="48.56543" lon="1.89317">
        <ele>152.6</ele>
        <time>2023-12-10T09:49:35Z</time>
      </trkpt>
      <trkpt lat="48.56539" lon="1.89319">
        <ele>152.6</ele>
        <time>2023-12-10T09:49:36Z</time>
      </trkpt>
      <trkpt lat="48.56535" lon="1.89319">
        <ele>152.6</ele>
        <time>2023-12-10T09:49:37Z</time>
      </trkpt>
      <trkpt lat="48.56531" lon="1.8932">
        <ele>153.2</ele>
        <time>2023-12-10T09:49:38Z</time>
      </trkpt>
      <trkpt lat="48.56527" lon="1.89322">
        <ele>153.2</ele>
        <time>2023-12-10T09:49:39Z</time>
      </trkpt>
      <trkpt lat="48.56523" lon="1.89324">
        <ele>153.2</ele>
        <time>2023-12-10T09:49:40Z</time>
      </trkpt>
      <trkpt lat="48.56519" lon="1.89326">
        <ele>154</ele>
        <time>2023-12-10T09:49:41Z</time>
      </trkpt>
      <trkpt lat="48.56515" lon="1.89328">
        <ele>154.2</ele>
        <time>2023-12-10T09:49:42Z</time>
      </trkpt>
      <trkpt lat="48.56512" lon="1.8933">
        <ele>154.2</ele>
        <time>2023-12-10T09:49:43Z</time>
      </trkpt>
      <trkpt lat="48.56508" lon="1.89333">
        <ele>154.2</ele>
        <time>2023-12-10T09:49:44Z</time>
      </trkpt>
      <trkpt lat="48.56504" lon="1.89336">
        <ele>155.2</ele>
        <time>2023-12-10T09:49:45Z</time>
      </trkpt>
      <trkpt lat="48.565" lon="1.89339">
        <ele>155.4</ele>
        <time>2023-12-10T09:49:46Z</time>
      </trkpt>
      <trkpt lat="48.56497" lon="1.89342">
        <ele>155.4</ele>
        <time>2023-12-10T09:49:47Z</time>
      </trkpt>
      <trkpt lat="48.56494" lon="1.89346">
        <ele>155.4</ele>
        <time>2023-12-10T09:49:48Z</time>
      </trkpt>
      <trkpt lat="48.56491" lon="1.89348">
        <ele>156</ele>
        <time>2023-12-10T09:49:49Z</time>
      </trkpt>
      <trkpt lat="48.56487" lon="1.89351">
        <ele>156.2</ele>
        <time>2023-12-10T09:49:50Z</time>
      </trkpt>
      <trkpt lat="48.56484" lon="1.89354">
        <ele>156.2</ele>
        <time>2023-12-10T09:49:51Z</time>
      </trkpt>
      <trkpt lat="48.56482" lon="1.89358">
        <ele>156.2</ele>
        <time>2023-12-10T09:49:52Z</time>
      </trkpt>
      <trkpt lat="48.56479" lon="1.89361">
        <ele>156.2</ele>
        <time>2023-12-10T09:49:53Z</time>
      </trkpt>
      <trkpt lat="48.56476" lon="1.89365">
        <ele>155.4</ele>
        <time>2023-12-10T09:49:54Z</time>
      </trkpt>
      <trkpt lat="48.56473" lon="1.89368">
        <ele>155.4</ele>
        <time>2023-12-10T09:49:55Z</time>
      </trkpt>
      <trkpt lat="48.5647" lon="1.89372">
        <ele>155.4</ele>
        <time>2023-12-10T09:49:56Z</time>
      </trkpt>
      <trkpt lat="48.56467" lon="1.89376">
        <ele>156.4</ele>
        <time>2023-12-10T09:49:57Z</time>
      </trkpt>
      <trkpt lat="48.56464" lon="1.8938">
        <ele>157.4</ele>
        <time>2023-12-10T09:49:58Z</time>
      </trkpt>
      <trkpt lat="48.56461" lon="1.89384">
        <ele>157.4</ele>
        <time>2023-12-10T09:49:59Z</time>
      </trkpt>
      <trkpt lat="48.56458" lon="1.89389">
        <ele>157.4</ele>
        <time>2023-12-10T09:50:00Z</time>
      </trkpt>
      <trkpt lat="48.56455" lon="1.89393">
        <ele>157</ele>
        <time>2023-12-10T09:50:01Z</time>
      </trkpt>
      <trkpt lat="48.56451" lon="1.89398">
        <ele>157</ele>
        <time>2023-12-10T09:50:02Z</time>
      </trkpt>
      <trkpt lat="48.56448" lon="1.89403">
        <ele>157</ele>
        <time>2023-12-10T09:50:03Z</time>
      </trkpt>
      <trkpt lat="48.56445" lon="1.89408">
        <ele>157</ele>
        <time>2023-12-10T09:50:04Z</time>
      </trkpt>
      <trkpt lat="48.56441" lon="1.89414">
        <ele>157</ele>
        <time>2023-12-10T09:50:05Z</time>
      </trkpt>
      <trkpt lat="48.56437" lon="1.89418">
        <ele>156.8</ele>
        <time>2023-12-10T09:50:06Z</time>
      </trkpt>
      <trkpt lat="48.56433" lon="1.89423">
        <ele>156.8</ele>
        <time>2023-12-10T09:50:07Z</time>
      </trkpt>
      <trkpt lat="48.5643" lon="1.89428">
        <ele>156.8</ele>
        <time>2023-12-10T09:50:08Z</time>
      </trkpt>
      <trkpt lat="48.56426" lon="1.89433">
        <ele>157.4</ele>
        <time>2023-12-10T09:50:09Z</time>
      </trkpt>
      <trkpt lat="48.56423" lon="1.89438">
        <ele>157.6</ele>
        <time>2023-12-10T09:50:10Z</time>
      </trkpt>
      <trkpt lat="48.56419" lon="1.89443">
        <ele>157.6</ele>
        <time>2023-12-10T09:50:11Z</time>
      </trkpt>
      <trkpt lat="48.56416" lon="1.89447">
        <ele>157.6</ele>
        <time>2023-12-10T09:50:12Z</time>
      </trkpt>
      <trkpt lat="48.56412" lon="1.89452">
        <ele>157.6</ele>
        <time>2023-12-10T09:50:13Z</time>
      </trkpt>
      <trkpt lat="48.56408" lon="1.89457">
        <ele>158</ele>
        <time>2023-12-10T09:50:14Z</time>
      </trkpt>
      <trkpt lat="48.56405" lon="1.89462">
        <ele>158</ele>
        <time>2023-12-10T09:50:15Z</time>
      </trkpt>
      <trkpt lat="48.56401" lon="1.89467">
        <ele>158</ele>
        <time>2023-12-10T09:50:16Z</time>
      </trkpt>
      <trkpt lat="48.56398" lon="1.89471">
        <ele>158</ele>
        <time>2023-12-10T09:50:17Z</time>
      </trkpt>
      <trkpt lat="48.56395" lon="1.89476">
        <ele>157.6</ele>
        <time>2023-12-10T09:50:18Z</time>
      </trkpt>
      <trkpt lat="48.56391" lon="1.89481">
        <ele>157.6</ele>
        <time>2023-12-10T09:50:19Z</time>
      </trkpt>
      <trkpt lat="48.56387" lon="1.89486">
        <ele>157.6</ele>
        <time>2023-12-10T09:50:20Z</time>
      </trkpt>
      <trkpt lat="48.56384" lon="1.89491">
        <ele>157.6</ele>
        <time>2023-12-10T09:50:21Z</time>
      </trkpt>
      <trkpt lat="48.5638" lon="1.89496">
        <ele>157</ele>
        <time>2023-12-10T09:50:22Z</time>
      </trkpt>
      <trkpt lat="48.56376" lon="1.89501">
        <ele>157</ele>
        <time>2023-12-10T09:50:23Z</time>
      </trkpt>
      <trkpt lat="48.56373" lon="1.89506">
        <ele>157</ele>
        <time>2023-12-10T09:50:24Z</time>
      </trkpt>
      <trkpt lat="48.56369" lon="1.89511">
        <ele>157</ele>
        <time>2023-12-10T09:50:25Z</time>
      </trkpt>
      <trkpt lat="48.56365" lon="1.89516">
        <ele>156.8</ele>
        <time>2023-12-10T09:50:26Z</time>
      </trkpt>
      <trkpt lat="48.56361" lon="1.89521">
        <ele>156.8</ele>
        <time>2023-12-10T09:50:27Z</time>
      </trkpt>
      <trkpt lat="48.56357" lon="1.89525">
        <ele>156.8</ele>
        <time>2023-12-10T09:50:28Z</time>
      </trkpt>
      <trkpt lat="48.56353" lon="1.89531">
        <ele>156.8</ele>
        <time>2023-12-10T09:50:29Z</time>
      </trkpt>
      <trkpt lat="48.5635" lon="1.89536">
        <ele>157.2</ele>
        <time>2023-12-10T09:50:30Z</time>
      </trkpt>
      <trkpt lat="48.56346" lon="1.89541">
        <ele>157.2</ele>
        <time>2023-12-10T09:50:31Z</time>
      </trkpt>
      <trkpt lat="48.56342" lon="1.89546">
        <ele>157.2</ele>
        <time>2023-12-10T09:50:32Z</time>
      </trkpt>
      <trkpt lat="48.56339" lon="1.89551">
        <ele>157.2</ele>
        <time>2023-12-10T09:50:33Z</time>
      </trkpt>
      <trkpt lat="48.56335" lon="1.89556">
        <ele>156.6</ele>
        <time>2023-12-10T09:50:34Z</time>
      </trkpt>
      <trkpt lat="48.56331" lon="1.89561">
        <ele>156.6</ele>
        <time>2023-12-10T09:50:35Z</time>
      </trkpt>
      <trkpt lat="48.56327" lon="1.89566">
        <ele>156.6</ele>
        <time>2023-12-10T09:50:36Z</time>
      </trkpt>
      <trkpt lat="48.56323" lon="1.89572">
        <ele>156.6</ele>
        <time>2023-12-10T09:50:37Z</time>
      </trkpt>
      <trkpt lat="48.56319" lon="1.89577">
        <ele>155.6</ele>
        <time>2023-12-10T09:50:38Z</time>
      </trkpt>
      <trkpt lat="48.56315" lon="1.89582">
        <ele>155.6</ele>
        <time>2023-12-10T09:50:39Z</time>
      </trkpt>
      <trkpt lat="48.56312" lon="1.89588">
        <ele>155.6</ele>
        <time>2023-12-10T09:50:40Z</time>
      </trkpt>
      <trkpt lat="48.56308" lon="1.89593">
        <ele>156.6</ele>
        <time>2023-12-10T09:50:41Z</time>
      </trkpt>
      <trkpt lat="48.56305" lon="1.89598">
        <ele>157.8</ele>
        <time>2023-12-10T09:50:42Z</time>
      </trkpt>
      <trkpt lat="48.56302" lon="1.89603">
        <ele>157.8</ele>
        <time>2023-12-10T09:50:43Z</time>
      </trkpt>
      <trkpt lat="48.56299" lon="1.89608">
        <ele>157.8</ele>
        <time>2023-12-10T09:50:44Z</time>
      </trkpt>
      <trkpt lat="48.56295" lon="1.89613">
        <ele>157.8</ele>
        <time>2023-12-10T09:50:45Z</time>
      </trkpt>
      <trkpt lat="48.56292" lon="1.89617">
        <ele>156.6</ele>
        <time>2023-12-10T09:50:46Z</time>
      </trkpt>
      <trkpt lat="48.56288" lon="1.89621">
        <ele>156.6</ele>
        <time>2023-12-10T09:50:47Z</time>
      </trkpt>
      <trkpt lat="48.56284" lon="1.89625">
        <ele>156.6</ele>
        <time>2023-12-10T09:50:48Z</time>
      </trkpt>
      <trkpt lat="48.5628" lon="1.8963">
        <ele>156</ele>
        <time>2023-12-10T09:50:49Z</time>
      </trkpt>
      <trkpt lat="48.56276" lon="1.89635">
        <ele>157.6</ele>
        <time>2023-12-10T09:50:50Z</time>
      </trkpt>
      <trkpt lat="48.56272" lon="1.8964">
        <ele>157.6</ele>
        <time>2023-12-10T09:50:51Z</time>
      </trkpt>
      <trkpt lat="48.56268" lon="1.89645">
        <ele>157.6</ele>
        <time>2023-12-10T09:50:52Z</time>
      </trkpt>
      <trkpt lat="48.56264" lon="1.8965">
        <ele>157.6</ele>
        <time>2023-12-10T09:50:53Z</time>
      </trkpt>
      <trkpt lat="48.5626" lon="1.89655">
        <ele>157.2</ele>
        <time>2023-12-10T09:50:54Z</time>
      </trkpt>
      <trkpt lat="48.56256" lon="1.8966">
        <ele>157.2</ele>
        <time>2023-12-10T09:50:55Z</time>
      </trkpt>
      <trkpt lat="48.56251" lon="1.89666">
        <ele>157.2</ele>
        <time>2023-12-10T09:50:56Z</time>
      </trkpt>
      <trkpt lat="48.56247" lon="1.89672">
        <ele>157.2</ele>
        <time>2023-12-10T09:50:57Z</time>
      </trkpt>
      <trkpt lat="48.56243" lon="1.89678">
        <ele>157</ele>
        <time>2023-12-10T09:50:58Z</time>
      </trkpt>
      <trkpt lat="48.56238" lon="1.89684">
        <ele>157</ele>
        <time>2023-12-10T09:50:59Z</time>
      </trkpt>
      <trkpt lat="48.56234" lon="1.8969">
        <ele>157</ele>
        <time>2023-12-10T09:51:00Z</time>
      </trkpt>
      <trkpt lat="48.5623" lon="1.89695">
        <ele>157.6</ele>
        <time>2023-12-10T09:51:01Z</time>
      </trkpt>
      <trkpt lat="48.56225" lon="1.89701">
        <ele>158</ele>
        <time>2023-12-10T09:51:02Z</time>
      </trkpt>
      <trkpt lat="48.56221" lon="1.89707">
        <ele>158</ele>
        <time>2023-12-10T09:51:03Z</time>
      </trkpt>
      <trkpt lat="48.56216" lon="1.89713">
        <ele>158</ele>
        <time>2023-12-10T09:51:04Z</time>
      </trkpt>
      <trkpt lat="48.56212" lon="1.89719">
        <ele>158.4</ele>
        <time>2023-12-10T09:51:05Z</time>
      </trkpt>
      <trkpt lat="48.56207" lon="1.89724">
        <ele>158</ele>
        <time>2023-12-10T09:51:06Z</time>
      </trkpt>
      <trkpt lat="48.56203" lon="1.8973">
        <ele>158</ele>
        <time>2023-12-10T09:51:07Z</time>
      </trkpt>
      <trkpt lat="48.56198" lon="1.89736">
        <ele>158</ele>
        <time>2023-12-10T09:51:08Z</time>
      </trkpt>
      <trkpt lat="48.56194" lon="1.89742">
        <ele>158</ele>
        <time>2023-12-10T09:51:09Z</time>
      </trkpt>
      <trkpt lat="48.5619" lon="1.89747">
        <ele>158.6</ele>
        <time>2023-12-10T09:51:10Z</time>
      </trkpt>
      <trkpt lat="48.56185" lon="1.89753">
        <ele>158.6</ele>
        <time>2023-12-10T09:51:11Z</time>
      </trkpt>
      <trkpt lat="48.56181" lon="1.89759">
        <ele>158.6</ele>
        <time>2023-12-10T09:51:12Z</time>
      </trkpt>
      <trkpt lat="48.56176" lon="1.89766">
        <ele>158.6</ele>
        <time>2023-12-10T09:51:13Z</time>
      </trkpt>
      <trkpt lat="48.56171" lon="1.89773">
        <ele>157</ele>
        <time>2023-12-10T09:51:14Z</time>
      </trkpt>
      <trkpt lat="48.56166" lon="1.89779">
        <ele>157</ele>
        <time>2023-12-10T09:51:15Z</time>
      </trkpt>
      <trkpt lat="48.56161" lon="1.89786">
        <ele>157</ele>
        <time>2023-12-10T09:51:16Z</time>
      </trkpt>
      <trkpt lat="48.56156" lon="1.89792">
        <ele>157.6</ele>
        <time>2023-12-10T09:51:17Z</time>
      </trkpt>
      <trkpt lat="48.56151" lon="1.89798">
        <ele>158.2</ele>
        <time>2023-12-10T09:51:18Z</time>
      </trkpt>
      <trkpt lat="48.56146" lon="1.89805">
        <ele>158.2</ele>
        <time>2023-12-10T09:51:19Z</time>
      </trkpt>
      <trkpt lat="48.56142" lon="1.89811">
        <ele>158.2</ele>
        <time>2023-12-10T09:51:20Z</time>
      </trkpt>
      <trkpt lat="48.56137" lon="1.89817">
        <ele>159.2</ele>
        <time>2023-12-10T09:51:21Z</time>
      </trkpt>
      <trkpt lat="48.56133" lon="1.89823">
        <ele>159.2</ele>
        <time>2023-12-10T09:51:22Z</time>
      </trkpt>
      <trkpt lat="48.56128" lon="1.89829">
        <ele>159.6</ele>
        <time>2023-12-10T09:51:23Z</time>
      </trkpt>
      <trkpt lat="48.56123" lon="1.89835">
        <ele>159.6</ele>
        <time>2023-12-10T09:51:24Z</time>
      </trkpt>
      <trkpt lat="48.56119" lon="1.89841">
        <ele>159.6</ele>
        <time>2023-12-10T09:51:25Z</time>
      </trkpt>
      <trkpt lat="48.56114" lon="1.89847">
        <ele>159.6</ele>
        <time>2023-12-10T09:51:26Z</time>
      </trkpt>
      <trkpt lat="48.5611" lon="1.89853">
        <ele>159.6</ele>
        <time>2023-12-10T09:51:27Z</time>
      </trkpt>
      <trkpt lat="48.56106" lon="1.89859">
        <ele>159.6</ele>
        <time>2023-12-10T09:51:28Z</time>
      </trkpt>
      <trkpt lat="48.56101" lon="1.89865">
        <ele>159</ele>
        <time>2023-12-10T09:51:29Z</time>
      </trkpt>
      <trkpt lat="48.56097" lon="1.89871">
        <ele>158.4</ele>
        <time>2023-12-10T09:51:30Z</time>
      </trkpt>
      <trkpt lat="48.56092" lon="1.89877">
        <ele>158.4</ele>
        <time>2023-12-10T09:51:31Z</time>
      </trkpt>
      <trkpt lat="48.56088" lon="1.89883">
        <ele>158.4</ele>
        <time>2023-12-10T09:51:32Z</time>
      </trkpt>
      <trkpt lat="48.56084" lon="1.89889">
        <ele>159.2</ele>
        <time>2023-12-10T09:51:33Z</time>
      </trkpt>
      <trkpt lat="48.56079" lon="1.89895">
        <ele>159.2</ele>
        <time>2023-12-10T09:51:34Z</time>
      </trkpt>
      <trkpt lat="48.56075" lon="1.89901">
        <ele>159.2</ele>
        <time>2023-12-10T09:51:35Z</time>
      </trkpt>
      <trkpt lat="48.5607" lon="1.89907">
        <ele>159.2</ele>
        <time>2023-12-10T09:51:36Z</time>
      </trkpt>
      <trkpt lat="48.56066" lon="1.89912">
        <ele>160.2</ele>
        <time>2023-12-10T09:51:37Z</time>
      </trkpt>
      <trkpt lat="48.56062" lon="1.89918">
        <ele>159.6</ele>
        <time>2023-12-10T09:51:38Z</time>
      </trkpt>
      <trkpt lat="48.56057" lon="1.89924">
        <ele>159.6</ele>
        <time>2023-12-10T09:51:39Z</time>
      </trkpt>
      <trkpt lat="48.56053" lon="1.89929">
        <ele>159.6</ele>
        <time>2023-12-10T09:51:40Z</time>
      </trkpt>
      <trkpt lat="48.56049" lon="1.89935">
        <ele>159.6</ele>
        <time>2023-12-10T09:51:41Z</time>
      </trkpt>
      <trkpt lat="48.56044" lon="1.8994">
        <ele>159.6</ele>
        <time>2023-12-10T09:51:42Z</time>
      </trkpt>
      <trkpt lat="48.5604" lon="1.89946">
        <ele>159.6</ele>
        <time>2023-12-10T09:51:43Z</time>
      </trkpt>
      <trkpt lat="48.56036" lon="1.89951">
        <ele>159.6</ele>
        <time>2023-12-10T09:51:44Z</time>
      </trkpt>
      <trkpt lat="48.56032" lon="1.89955">
        <ele>159.6</ele>
        <time>2023-12-10T09:51:45Z</time>
      </trkpt>
      <trkpt lat="48.56028" lon="1.8996">
        <ele>159.6</ele>
        <time>2023-12-10T09:51:46Z</time>
      </trkpt>
      <trkpt lat="48.56024" lon="1.89964">
        <ele>159.6</ele>
        <time>2023-12-10T09:51:47Z</time>
      </trkpt>
      <trkpt lat="48.5602" lon="1.89968">
        <ele>159.6</ele>
        <time>2023-12-10T09:51:48Z</time>
      </trkpt>
      <trkpt lat="48.56015" lon="1.89973">
        <ele>159.6</ele>
        <time>2023-12-10T09:51:49Z</time>
      </trkpt>
      <trkpt lat="48.56011" lon="1.89977">
        <ele>159</ele>
        <time>2023-12-10T09:51:50Z</time>
      </trkpt>
      <trkpt lat="48.56006" lon="1.89981">
        <ele>159</ele>
        <time>2023-12-10T09:51:51Z</time>
      </trkpt>
      <trkpt lat="48.56002" lon="1.89985">
        <ele>159</ele>
        <time>2023-12-10T09:51:52Z</time>
      </trkpt>
      <trkpt lat="48.55998" lon="1.89989">
        <ele>159</ele>
        <time>2023-12-10T09:51:53Z</time>
      </trkpt>
      <trkpt lat="48.55993" lon="1.89992">
        <ele>160.2</ele>
        <time>2023-12-10T09:51:54Z</time>
      </trkpt>
      <trkpt lat="48.55988" lon="1.89997">
        <ele>160.2</ele>
        <time>2023-12-10T09:51:55Z</time>
      </trkpt>
      <trkpt lat="48.55984" lon="1.90002">
        <ele>160.2</ele>
        <time>2023-12-10T09:51:56Z</time>
      </trkpt>
      <trkpt lat="48.55979" lon="1.90006">
        <ele>160.2</ele>
        <time>2023-12-10T09:51:57Z</time>
      </trkpt>
      <trkpt lat="48.55974" lon="1.90011">
        <ele>160.6</ele>
        <time>2023-12-10T09:51:58Z</time>
      </trkpt>
      <trkpt lat="48.55969" lon="1.90015">
        <ele>160.6</ele>
        <time>2023-12-10T09:51:59Z</time>
      </trkpt>
      <trkpt lat="48.55964" lon="1.9002">
        <ele>160.6</ele>
        <time>2023-12-10T09:52:00Z</time>
      </trkpt>
      <trkpt lat="48.55959" lon="1.90025">
        <ele>159.8</ele>
        <time>2023-12-10T09:52:01Z</time>
      </trkpt>
      <trkpt lat="48.55954" lon="1.90029">
        <ele>160.2</ele>
        <time>2023-12-10T09:52:02Z</time>
      </trkpt>
      <trkpt lat="48.55949" lon="1.90034">
        <ele>160.2</ele>
        <time>2023-12-10T09:52:03Z</time>
      </trkpt>
      <trkpt lat="48.55944" lon="1.90038">
        <ele>160.2</ele>
        <time>2023-12-10T09:52:04Z</time>
      </trkpt>
      <trkpt lat="48.5594" lon="1.90042">
        <ele>160.2</ele>
        <time>2023-12-10T09:52:05Z</time>
      </trkpt>
      <trkpt lat="48.55935" lon="1.90047">
        <ele>159</ele>
        <time>2023-12-10T09:52:06Z</time>
      </trkpt>
      <trkpt lat="48.5593" lon="1.90051">
        <ele>159</ele>
        <time>2023-12-10T09:52:07Z</time>
      </trkpt>
      <trkpt lat="48.55925" lon="1.90055">
        <ele>159</ele>
        <time>2023-12-10T09:52:08Z</time>
      </trkpt>
      <trkpt lat="48.55921" lon="1.90059">
        <ele>159.6</ele>
        <time>2023-12-10T09:52:09Z</time>
      </trkpt>
      <trkpt lat="48.55916" lon="1.90063">
        <ele>159.8</ele>
        <time>2023-12-10T09:52:10Z</time>
      </trkpt>
      <trkpt lat="48.55912" lon="1.90067">
        <ele>159.8</ele>
        <time>2023-12-10T09:52:11Z</time>
      </trkpt>
      <trkpt lat="48.55907" lon="1.90072">
        <ele>159.8</ele>
        <time>2023-12-10T09:52:12Z</time>
      </trkpt>
      <trkpt lat="48.55902" lon="1.90077">
        <ele>160</ele>
        <time>2023-12-10T09:52:13Z</time>
      </trkpt>
      <trkpt lat="48.55897" lon="1.90082">
        <ele>158.6</ele>
        <time>2023-12-10T09:52:14Z</time>
      </trkpt>
      <trkpt lat="48.55892" lon="1.90087">
        <ele>158.6</ele>
        <time>2023-12-10T09:52:15Z</time>
      </trkpt>
      <trkpt lat="48.55886" lon="1.90092">
        <ele>158.6</ele>
        <time>2023-12-10T09:52:16Z</time>
      </trkpt>
      <trkpt lat="48.55881" lon="1.90096">
        <ele>158.6</ele>
        <time>2023-12-10T09:52:17Z</time>
      </trkpt>
      <trkpt lat="48.55877" lon="1.90101">
        <ele>159</ele>
        <time>2023-12-10T09:52:18Z</time>
      </trkpt>
      <trkpt lat="48.55872" lon="1.90106">
        <ele>159</ele>
        <time>2023-12-10T09:52:19Z</time>
      </trkpt>
      <trkpt lat="48.55867" lon="1.90111">
        <ele>159</ele>
        <time>2023-12-10T09:52:20Z</time>
      </trkpt>
      <trkpt lat="48.55863" lon="1.90116">
        <ele>159.8</ele>
        <time>2023-12-10T09:52:21Z</time>
      </trkpt>
      <trkpt lat="48.55858" lon="1.90121">
        <ele>159.8</ele>
        <time>2023-12-10T09:52:22Z</time>
      </trkpt>
      <trkpt lat="48.55853" lon="1.90127">
        <ele>159.8</ele>
        <time>2023-12-10T09:52:23Z</time>
      </trkpt>
      <trkpt lat="48.55848" lon="1.90133">
        <ele>159.8</ele>
        <time>2023-12-10T09:52:24Z</time>
      </trkpt>
      <trkpt lat="48.55844" lon="1.90139">
        <ele>159.8</ele>
        <time>2023-12-10T09:52:25Z</time>
      </trkpt>
      <trkpt lat="48.5584" lon="1.90146">
        <ele>159.4</ele>
        <time>2023-12-10T09:52:26Z</time>
      </trkpt>
      <trkpt lat="48.55835" lon="1.90153">
        <ele>159.4</ele>
        <time>2023-12-10T09:52:27Z</time>
      </trkpt>
      <trkpt lat="48.55831" lon="1.90159">
        <ele>159.4</ele>
        <time>2023-12-10T09:52:28Z</time>
      </trkpt>
      <trkpt lat="48.55826" lon="1.90166">
        <ele>158.4</ele>
        <time>2023-12-10T09:52:29Z</time>
      </trkpt>
      <trkpt lat="48.55821" lon="1.90174">
        <ele>159</ele>
        <time>2023-12-10T09:52:30Z</time>
      </trkpt>
      <trkpt lat="48.55816" lon="1.90182">
        <ele>159</ele>
        <time>2023-12-10T09:52:31Z</time>
      </trkpt>
      <trkpt lat="48.55811" lon="1.90189">
        <ele>159</ele>
        <time>2023-12-10T09:52:32Z</time>
      </trkpt>
      <trkpt lat="48.55806" lon="1.90197">
        <ele>159</ele>
        <time>2023-12-10T09:52:33Z</time>
      </trkpt>
      <trkpt lat="48.55801" lon="1.90204">
        <ele>159.4</ele>
        <time>2023-12-10T09:52:34Z</time>
      </trkpt>
      <trkpt lat="48.55797" lon="1.90212">
        <ele>159.4</ele>
        <time>2023-12-10T09:52:35Z</time>
      </trkpt>
      <trkpt lat="48.55792" lon="1.90219">
        <ele>159.4</ele>
        <time>2023-12-10T09:52:36Z</time>
      </trkpt>
      <trkpt lat="48.55788" lon="1.90227">
        <ele>159.4</ele>
        <time>2023-12-10T09:52:37Z</time>
      </trkpt>
      <trkpt lat="48.55783" lon="1.90234">
        <ele>159.8</ele>
        <time>2023-12-10T09:52:38Z</time>
      </trkpt>
      <trkpt lat="48.55779" lon="1.90242">
        <ele>159.8</ele>
        <time>2023-12-10T09:52:39Z</time>
      </trkpt>
      <trkpt lat="48.55774" lon="1.90249">
        <ele>159.8</ele>
        <time>2023-12-10T09:52:40Z</time>
      </trkpt>
      <trkpt lat="48.5577" lon="1.90257">
        <ele>159.8</ele>
        <time>2023-12-10T09:52:41Z</time>
      </trkpt>
      <trkpt lat="48.55766" lon="1.90265">
        <ele>159.6</ele>
        <time>2023-12-10T09:52:42Z</time>
      </trkpt>
      <trkpt lat="48.55762" lon="1.90273">
        <ele>159.6</ele>
        <time>2023-12-10T09:52:43Z</time>
      </trkpt>
      <trkpt lat="48.55758" lon="1.90282">
        <ele>159.6</ele>
        <time>2023-12-10T09:52:44Z</time>
      </trkpt>
      <trkpt lat="48.55755" lon="1.9029">
        <ele>158.6</ele>
        <time>2023-12-10T09:52:45Z</time>
      </trkpt>
      <trkpt lat="48.55751" lon="1.90299">
        <ele>158.4</ele>
        <time>2023-12-10T09:52:46Z</time>
      </trkpt>
      <trkpt lat="48.55748" lon="1.90307">
        <ele>158.4</ele>
        <time>2023-12-10T09:52:47Z</time>
      </trkpt>
      <trkpt lat="48.55745" lon="1.90316">
        <ele>158.4</ele>
        <time>2023-12-10T09:52:48Z</time>
      </trkpt>
      <trkpt lat="48.55741" lon="1.90325">
        <ele>158.4</ele>
        <time>2023-12-10T09:52:49Z</time>
      </trkpt>
      <trkpt lat="48.55739" lon="1.90334">
        <ele>158.8</ele>
        <time>2023-12-10T09:52:50Z</time>
      </trkpt>
      <trkpt lat="48.55736" lon="1.90343">
        <ele>158.8</ele>
        <time>2023-12-10T09:52:51Z</time>
      </trkpt>
      <trkpt lat="48.55733" lon="1.90352">
        <ele>158.8</ele>
        <time>2023-12-10T09:52:52Z</time>
      </trkpt>
      <trkpt lat="48.5573" lon="1.90361">
        <ele>158.4</ele>
        <time>2023-12-10T09:52:53Z</time>
      </trkpt>
      <trkpt lat="48.55727" lon="1.90369">
        <ele>158.6</ele>
        <time>2023-12-10T09:52:54Z</time>
      </trkpt>
      <trkpt lat="48.55725" lon="1.90378">
        <ele>158.6</ele>
        <time>2023-12-10T09:52:55Z</time>
      </trkpt>
      <trkpt lat="48.55722" lon="1.90386">
        <ele>158.6</ele>
        <time>2023-12-10T09:52:56Z</time>
      </trkpt>
      <trkpt lat="48.55719" lon="1.90393">
        <ele>158.6</ele>
        <time>2023-12-10T09:52:57Z</time>
      </trkpt>
      <trkpt lat="48.55717" lon="1.90399">
        <ele>159.8</ele>
        <time>2023-12-10T09:52:58Z</time>
      </trkpt>
      <trkpt lat="48.55714" lon="1.90403">
        <ele>159.8</ele>
        <time>2023-12-10T09:52:59Z</time>
      </trkpt>
      <trkpt lat="48.55712" lon="1.90405">
        <ele>159.8</ele>
        <time>2023-12-10T09:53:00Z</time>
      </trkpt>
      <trkpt lat="48.55711" lon="1.90406">
        <ele>159.8</ele>
        <time>2023-12-10T09:53:01Z</time>
      </trkpt>
      <trkpt lat="48.55711" lon="1.90406">
        <ele>160.8</ele>
        <time>2023-12-10T09:53:02Z</time>
      </trkpt>
      <trkpt lat="48.55711" lon="1.90406">
        <ele>160.8</ele>
        <time>2023-12-10T09:53:03Z</time>
      </trkpt>
      <trkpt lat="48.5571" lon="1.90411">
        <ele>161.2</ele>
        <time>2023-12-10T09:53:32Z</time>
      </trkpt>
      <trkpt lat="48.5571" lon="1.90414">
        <ele>161.2</ele>
        <time>2023-12-10T09:53:33Z</time>
      </trkpt>
      <trkpt lat="48.55709" lon="1.90418">
        <ele>160.8</ele>
        <time>2023-12-10T09:53:34Z</time>
      </trkpt>
      <trkpt lat="48.55708" lon="1.90422">
        <ele>160.8</ele>
        <time>2023-12-10T09:53:35Z</time>
      </trkpt>
      <trkpt lat="48.55707" lon="1.90427">
        <ele>160.8</ele>
        <time>2023-12-10T09:53:36Z</time>
      </trkpt>
      <trkpt lat="48.55706" lon="1.90433">
        <ele>160.8</ele>
        <time>2023-12-10T09:53:37Z</time>
      </trkpt>
      <trkpt lat="48.55705" lon="1.9044">
        <ele>157.6</ele>
        <time>2023-12-10T09:53:38Z</time>
      </trkpt>
      <trkpt lat="48.55704" lon="1.90448">
        <ele>157.6</ele>
        <time>2023-12-10T09:53:39Z</time>
      </trkpt>
      <trkpt lat="48.55701" lon="1.90456">
        <ele>157.6</ele>
        <time>2023-12-10T09:53:40Z</time>
      </trkpt>
      <trkpt lat="48.55698" lon="1.90465">
        <ele>158</ele>
        <time>2023-12-10T09:53:41Z</time>
      </trkpt>
      <trkpt lat="48.55696" lon="1.90475">
        <ele>156.8</ele>
        <time>2023-12-10T09:53:42Z</time>
      </trkpt>
      <trkpt lat="48.55693" lon="1.90485">
        <ele>156.8</ele>
        <time>2023-12-10T09:53:43Z</time>
      </trkpt>
      <trkpt lat="48.5569" lon="1.90495">
        <ele>156.8</ele>
        <time>2023-12-10T09:53:44Z</time>
      </trkpt>
      <trkpt lat="48.55686" lon="1.90505">
        <ele>157</ele>
        <time>2023-12-10T09:53:45Z</time>
      </trkpt>
      <trkpt lat="48.55683" lon="1.90515">
        <ele>155.8</ele>
        <time>2023-12-10T09:53:46Z</time>
      </trkpt>
      <trkpt lat="48.5568" lon="1.90525">
        <ele>155.8</ele>
        <time>2023-12-10T09:53:47Z</time>
      </trkpt>
      <trkpt lat="48.55676" lon="1.90536">
        <ele>155.8</ele>
        <time>2023-12-10T09:53:48Z</time>
      </trkpt>
      <trkpt lat="48.55673" lon="1.90546">
        <ele>155.8</ele>
        <time>2023-12-10T09:53:49Z</time>
      </trkpt>
      <trkpt lat="48.5567" lon="1.90557">
        <ele>155.4</ele>
        <time>2023-12-10T09:53:50Z</time>
      </trkpt>
      <trkpt lat="48.55666" lon="1.90567">
        <ele>155.4</ele>
        <time>2023-12-10T09:53:51Z</time>
      </trkpt>
      <trkpt lat="48.55663" lon="1.90577">
        <ele>155.4</ele>
        <time>2023-12-10T09:53:52Z</time>
      </trkpt>
      <trkpt lat="48.55659" lon="1.90587">
        <ele>155</ele>
        <time>2023-12-10T09:53:53Z</time>
      </trkpt>
      <trkpt lat="48.55656" lon="1.90597">
        <ele>156.2</ele>
        <time>2023-12-10T09:53:54Z</time>
      </trkpt>
      <trkpt lat="48.55652" lon="1.90606">
        <ele>156.2</ele>
        <time>2023-12-10T09:53:55Z</time>
      </trkpt>
      <trkpt lat="48.55648" lon="1.90616">
        <ele>156.2</ele>
        <time>2023-12-10T09:53:56Z</time>
      </trkpt>
      <trkpt lat="48.55645" lon="1.90626">
        <ele>156.2</ele>
        <time>2023-12-10T09:53:57Z</time>
      </trkpt>
      <trkpt lat="48.55641" lon="1.90635">
        <ele>157.4</ele>
        <time>2023-12-10T09:53:58Z</time>
      </trkpt>
      <trkpt lat="48.55637" lon="1.90644">
        <ele>157.4</ele>
        <time>2023-12-10T09:53:59Z</time>
      </trkpt>
      <trkpt lat="48.55633" lon="1.90654">
        <ele>157.4</ele>
        <time>2023-12-10T09:54:00Z</time>
      </trkpt>
      <trkpt lat="48.55629" lon="1.90663">
        <ele>156.4</ele>
        <time>2023-12-10T09:54:01Z</time>
      </trkpt>
      <trkpt lat="48.55625" lon="1.90673">
        <ele>156</ele>
        <time>2023-12-10T09:54:02Z</time>
      </trkpt>
      <trkpt lat="48.55622" lon="1.90682">
        <ele>156</ele>
        <time>2023-12-10T09:54:03Z</time>
      </trkpt>
      <trkpt lat="48.55618" lon="1.90691">
        <ele>156</ele>
        <time>2023-12-10T09:54:04Z</time>
      </trkpt>
      <trkpt lat="48.55614" lon="1.907">
        <ele>156.6</ele>
        <time>2023-12-10T09:54:05Z</time>
      </trkpt>
      <trkpt lat="48.5561" lon="1.90709">
        <ele>155.6</ele>
        <time>2023-12-10T09:54:06Z</time>
      </trkpt>
      <trkpt lat="48.55606" lon="1.90718">
        <ele>155.6</ele>
        <time>2023-12-10T09:54:07Z</time>
      </trkpt>
      <trkpt lat="48.55602" lon="1.90726">
        <ele>155.6</ele>
        <time>2023-12-10T09:54:08Z</time>
      </trkpt>
      <trkpt lat="48.55598" lon="1.90734">
        <ele>155.6</ele>
        <time>2023-12-10T09:54:09Z</time>
      </trkpt>
      <trkpt lat="48.55594" lon="1.90742">
        <ele>156.4</ele>
        <time>2023-12-10T09:54:10Z</time>
      </trkpt>
      <trkpt lat="48.5559" lon="1.9075">
        <ele>156.4</ele>
        <time>2023-12-10T09:54:11Z</time>
      </trkpt>
      <trkpt lat="48.55586" lon="1.90759">
        <ele>156.4</ele>
        <time>2023-12-10T09:54:12Z</time>
      </trkpt>
      <trkpt lat="48.55583" lon="1.90766">
        <ele>156.4</ele>
        <time>2023-12-10T09:54:13Z</time>
      </trkpt>
      <trkpt lat="48.5558" lon="1.90774">
        <ele>156.6</ele>
        <time>2023-12-10T09:54:14Z</time>
      </trkpt>
      <trkpt lat="48.55576" lon="1.90781">
        <ele>156.6</ele>
        <time>2023-12-10T09:54:15Z</time>
      </trkpt>
      <trkpt lat="48.55573" lon="1.90788">
        <ele>156.6</ele>
        <time>2023-12-10T09:54:16Z</time>
      </trkpt>
      <trkpt lat="48.5557" lon="1.90796">
        <ele>157.6</ele>
        <time>2023-12-10T09:54:17Z</time>
      </trkpt>
      <trkpt lat="48.55567" lon="1.90802">
        <ele>157.8</ele>
        <time>2023-12-10T09:54:18Z</time>
      </trkpt>
      <trkpt lat="48.55563" lon="1.90809">
        <ele>157.8</ele>
        <time>2023-12-10T09:54:19Z</time>
      </trkpt>
      <trkpt lat="48.5556" lon="1.90815">
        <ele>157.8</ele>
        <time>2023-12-10T09:54:20Z</time>
      </trkpt>
      <trkpt lat="48.55557" lon="1.90822">
        <ele>157.8</ele>
        <time>2023-12-10T09:54:21Z</time>
      </trkpt>
      <trkpt lat="48.55554" lon="1.90829">
        <ele>157</ele>
        <time>2023-12-10T09:54:22Z</time>
      </trkpt>
      <trkpt lat="48.55551" lon="1.90835">
        <ele>157</ele>
        <time>2023-12-10T09:54:23Z</time>
      </trkpt>
      <trkpt lat="48.55547" lon="1.90842">
        <ele>157</ele>
        <time>2023-12-10T09:54:24Z</time>
      </trkpt>
      <trkpt lat="48.55544" lon="1.90848">
        <ele>157.8</ele>
        <time>2023-12-10T09:54:25Z</time>
      </trkpt>
      <trkpt lat="48.55541" lon="1.90855">
        <ele>158.2</ele>
        <time>2023-12-10T09:54:26Z</time>
      </trkpt>
      <trkpt lat="48.55538" lon="1.90862">
        <ele>158.2</ele>
        <time>2023-12-10T09:54:27Z</time>
      </trkpt>
      <trkpt lat="48.55535" lon="1.90869">
        <ele>158.2</ele>
        <time>2023-12-10T09:54:28Z</time>
      </trkpt>
      <trkpt lat="48.55532" lon="1.90875">
        <ele>157.6</ele>
        <time>2023-12-10T09:54:29Z</time>
      </trkpt>
      <trkpt lat="48.55529" lon="1.90882">
        <ele>157</ele>
        <time>2023-12-10T09:54:30Z</time>
      </trkpt>
      <trkpt lat="48.55525" lon="1.90889">
        <ele>157</ele>
        <time>2023-12-10T09:54:31Z</time>
      </trkpt>
      <trkpt lat="48.55522" lon="1.90896">
        <ele>157</ele>
        <time>2023-12-10T09:54:32Z</time>
      </trkpt>
      <trkpt lat="48.55519" lon="1.90903">
        <ele>157</ele>
        <time>2023-12-10T09:54:33Z</time>
      </trkpt>
      <trkpt lat="48.55516" lon="1.9091">
        <ele>158.6</ele>
        <time>2023-12-10T09:54:34Z</time>
      </trkpt>
      <trkpt lat="48.55512" lon="1.90916">
        <ele>158.6</ele>
        <time>2023-12-10T09:54:35Z</time>
      </trkpt>
      <trkpt lat="48.55509" lon="1.90923">
        <ele>158.6</ele>
        <time>2023-12-10T09:54:36Z</time>
      </trkpt>
      <trkpt lat="48.55506" lon="1.90931">
        <ele>158.6</ele>
        <time>2023-12-10T09:54:37Z</time>
      </trkpt>
      <trkpt lat="48.55504" lon="1.90939">
        <ele>157.6</ele>
        <time>2023-12-10T09:54:38Z</time>
      </trkpt>
      <trkpt lat="48.55501" lon="1.90947">
        <ele>157.6</ele>
        <time>2023-12-10T09:54:39Z</time>
      </trkpt>
      <trkpt lat="48.55498" lon="1.90954">
        <ele>157.6</ele>
        <time>2023-12-10T09:54:40Z</time>
      </trkpt>
      <trkpt lat="48.55495" lon="1.90962">
        <ele>157.6</ele>
        <time>2023-12-10T09:54:41Z</time>
      </trkpt>
      <trkpt lat="48.55493" lon="1.9097">
        <ele>157.6</ele>
        <time>2023-12-10T09:54:42Z</time>
      </trkpt>
      <trkpt lat="48.5549" lon="1.90978">
        <ele>157.6</ele>
        <time>2023-12-10T09:54:43Z</time>
      </trkpt>
      <trkpt lat="48.55487" lon="1.90986">
        <ele>157.6</ele>
        <time>2023-12-10T09:54:44Z</time>
      </trkpt>
      <trkpt lat="48.55484" lon="1.90994">
        <ele>157.6</ele>
        <time>2023-12-10T09:54:45Z</time>
      </trkpt>
      <trkpt lat="48.55482" lon="1.91002">
        <ele>157.6</ele>
        <time>2023-12-10T09:54:46Z</time>
      </trkpt>
      <trkpt lat="48.55479" lon="1.9101">
        <ele>157.6</ele>
        <time>2023-12-10T09:54:47Z</time>
      </trkpt>
      <trkpt lat="48.55476" lon="1.91018">
        <ele>157.6</ele>
        <time>2023-12-10T09:54:48Z</time>
      </trkpt>
      <trkpt lat="48.55473" lon="1.91026">
        <ele>156.8</ele>
        <time>2023-12-10T09:54:49Z</time>
      </trkpt>
      <trkpt lat="48.55471" lon="1.91034">
        <ele>157</ele>
        <time>2023-12-10T09:54:50Z</time>
      </trkpt>
      <trkpt lat="48.55468" lon="1.91041">
        <ele>157</ele>
        <time>2023-12-10T09:54:51Z</time>
      </trkpt>
      <trkpt lat="48.55465" lon="1.91049">
        <ele>157</ele>
        <time>2023-12-10T09:54:52Z</time>
      </trkpt>
      <trkpt lat="48.55462" lon="1.91057">
        <ele>156</ele>
        <time>2023-12-10T09:54:53Z</time>
      </trkpt>
      <trkpt lat="48.55459" lon="1.91065">
        <ele>156.4</ele>
        <time>2023-12-10T09:54:54Z</time>
      </trkpt>
      <trkpt lat="48.55456" lon="1.91073">
        <ele>156.4</ele>
        <time>2023-12-10T09:54:55Z</time>
      </trkpt>
      <trkpt lat="48.55453" lon="1.91081">
        <ele>156.4</ele>
        <time>2023-12-10T09:54:56Z</time>
      </trkpt>
      <trkpt lat="48.5545" lon="1.91089">
        <ele>156.4</ele>
        <time>2023-12-10T09:54:57Z</time>
      </trkpt>
      <trkpt lat="48.55447" lon="1.91097">
        <ele>156.2</ele>
        <time>2023-12-10T09:54:58Z</time>
      </trkpt>
      <trkpt lat="48.55444" lon="1.91105">
        <ele>156.2</ele>
        <time>2023-12-10T09:54:59Z</time>
      </trkpt>
      <trkpt lat="48.55442" lon="1.91113">
        <ele>156.2</ele>
        <time>2023-12-10T09:55:00Z</time>
      </trkpt>
      <trkpt lat="48.55439" lon="1.91121">
        <ele>156.2</ele>
        <time>2023-12-10T09:55:01Z</time>
      </trkpt>
      <trkpt lat="48.55436" lon="1.91129">
        <ele>155.2</ele>
        <time>2023-12-10T09:55:02Z</time>
      </trkpt>
      <trkpt lat="48.55433" lon="1.91137">
        <ele>155.2</ele>
        <time>2023-12-10T09:55:03Z</time>
      </trkpt>
      <trkpt lat="48.5543" lon="1.91144">
        <ele>155.2</ele>
        <time>2023-12-10T09:55:04Z</time>
      </trkpt>
      <trkpt lat="48.55427" lon="1.91152">
        <ele>155.2</ele>
        <time>2023-12-10T09:55:05Z</time>
      </trkpt>
      <trkpt lat="48.55425" lon="1.9116">
        <ele>156.2</ele>
        <time>2023-12-10T09:55:06Z</time>
      </trkpt>
      <trkpt lat="48.55422" lon="1.91167">
        <ele>156.2</ele>
        <time>2023-12-10T09:55:07Z</time>
      </trkpt>
      <trkpt lat="48.55419" lon="1.91175">
        <ele>156.2</ele>
        <time>2023-12-10T09:55:08Z</time>
      </trkpt>
      <trkpt lat="48.55415" lon="1.91182">
        <ele>155.2</ele>
        <time>2023-12-10T09:55:09Z</time>
      </trkpt>
      <trkpt lat="48.55412" lon="1.91189">
        <ele>154.8</ele>
        <time>2023-12-10T09:55:10Z</time>
      </trkpt>
      <trkpt lat="48.55408" lon="1.91195">
        <ele>154.8</ele>
        <time>2023-12-10T09:55:11Z</time>
      </trkpt>
      <trkpt lat="48.55402" lon="1.91199">
        <ele>154.8</ele>
        <time>2023-12-10T09:55:12Z</time>
      </trkpt>
      <trkpt lat="48.55397" lon="1.912">
        <ele>154.8</ele>
        <time>2023-12-10T09:55:13Z</time>
      </trkpt>
      <trkpt lat="48.5539" lon="1.91198">
        <ele>153.4</ele>
        <time>2023-12-10T09:55:14Z</time>
      </trkpt>
      <trkpt lat="48.55385" lon="1.91195">
        <ele>153.4</ele>
        <time>2023-12-10T09:55:15Z</time>
      </trkpt>
      <trkpt lat="48.55379" lon="1.91191">
        <ele>153.4</ele>
        <time>2023-12-10T09:55:16Z</time>
      </trkpt>
      <trkpt lat="48.55373" lon="1.91186">
        <ele>152.6</ele>
        <time>2023-12-10T09:55:17Z</time>
      </trkpt>
      <trkpt lat="48.55368" lon="1.91181">
        <ele>152.4</ele>
        <time>2023-12-10T09:55:18Z</time>
      </trkpt>
      <trkpt lat="48.55362" lon="1.91176">
        <ele>152.4</ele>
        <time>2023-12-10T09:55:19Z</time>
      </trkpt>
      <trkpt lat="48.55356" lon="1.91172">
        <ele>152.4</ele>
        <time>2023-12-10T09:55:20Z</time>
      </trkpt>
      <trkpt lat="48.55351" lon="1.91168">
        <ele>153.4</ele>
        <time>2023-12-10T09:55:21Z</time>
      </trkpt>
      <trkpt lat="48.55345" lon="1.91163">
        <ele>153.4</ele>
        <time>2023-12-10T09:55:22Z</time>
      </trkpt>
      <trkpt lat="48.55339" lon="1.91158">
        <ele>153.4</ele>
        <time>2023-12-10T09:55:23Z</time>
      </trkpt>
      <trkpt lat="48.55333" lon="1.91153">
        <ele>153.4</ele>
        <time>2023-12-10T09:55:24Z</time>
      </trkpt>
      <trkpt lat="48.55327" lon="1.91148">
        <ele>152.4</ele>
        <time>2023-12-10T09:55:25Z</time>
      </trkpt>
      <trkpt lat="48.55321" lon="1.91144">
        <ele>152.2</ele>
        <time>2023-12-10T09:55:26Z</time>
      </trkpt>
      <trkpt lat="48.55316" lon="1.91138">
        <ele>152.2</ele>
        <time>2023-12-10T09:55:27Z</time>
      </trkpt>
      <trkpt lat="48.5531" lon="1.91133">
        <ele>152.2</ele>
        <time>2023-12-10T09:55:28Z</time>
      </trkpt>
      <trkpt lat="48.55305" lon="1.91127">
        <ele>152.2</ele>
        <time>2023-12-10T09:55:29Z</time>
      </trkpt>
      <trkpt lat="48.553" lon="1.91121">
        <ele>152.6</ele>
        <time>2023-12-10T09:55:30Z</time>
      </trkpt>
      <trkpt lat="48.55295" lon="1.91115">
        <ele>152.6</ele>
        <time>2023-12-10T09:55:31Z</time>
      </trkpt>
      <trkpt lat="48.5529" lon="1.91109">
        <ele>152.6</ele>
        <time>2023-12-10T09:55:32Z</time>
      </trkpt>
      <trkpt lat="48.55286" lon="1.91102">
        <ele>152.6</ele>
        <time>2023-12-10T09:55:33Z</time>
      </trkpt>
      <trkpt lat="48.55281" lon="1.91095">
        <ele>152.4</ele>
        <time>2023-12-10T09:55:34Z</time>
      </trkpt>
      <trkpt lat="48.55276" lon="1.91088">
        <ele>152.4</ele>
        <time>2023-12-10T09:55:35Z</time>
      </trkpt>
      <trkpt lat="48.55271" lon="1.91082">
        <ele>152.4</ele>
        <time>2023-12-10T09:55:36Z</time>
      </trkpt>
      <trkpt lat="48.55267" lon="1.91075">
        <ele>152.4</ele>
        <time>2023-12-10T09:55:37Z</time>
      </trkpt>
      <trkpt lat="48.55262" lon="1.91068">
        <ele>152</ele>
        <time>2023-12-10T09:55:38Z</time>
      </trkpt>
      <trkpt lat="48.55257" lon="1.91062">
        <ele>152</ele>
        <time>2023-12-10T09:55:39Z</time>
      </trkpt>
      <trkpt lat="48.55253" lon="1.91055">
        <ele>152</ele>
        <time>2023-12-10T09:55:40Z</time>
      </trkpt>
      <trkpt lat="48.55248" lon="1.91049">
        <ele>152</ele>
        <time>2023-12-10T09:55:41Z</time>
      </trkpt>
      <trkpt lat="48.55244" lon="1.91043">
        <ele>152.8</ele>
        <time>2023-12-10T09:55:42Z</time>
      </trkpt>
      <trkpt lat="48.55239" lon="1.91037">
        <ele>152.8</ele>
        <time>2023-12-10T09:55:43Z</time>
      </trkpt>
      <trkpt lat="48.55234" lon="1.91032">
        <ele>152.8</ele>
        <time>2023-12-10T09:55:44Z</time>
      </trkpt>
      <trkpt lat="48.5523" lon="1.91026">
        <ele>151.8</ele>
        <time>2023-12-10T09:55:45Z</time>
      </trkpt>
      <trkpt lat="48.55225" lon="1.91022">
        <ele>151.2</ele>
        <time>2023-12-10T09:55:46Z</time>
      </trkpt>
      <trkpt lat="48.5522" lon="1.91018">
        <ele>151.2</ele>
        <time>2023-12-10T09:55:47Z</time>
      </trkpt>
      <trkpt lat="48.55215" lon="1.91014">
        <ele>151.2</ele>
        <time>2023-12-10T09:55:48Z</time>
      </trkpt>
      <trkpt lat="48.55209" lon="1.91011">
        <ele>151.4</ele>
        <time>2023-12-10T09:55:49Z</time>
      </trkpt>
      <trkpt lat="48.55204" lon="1.91008">
        <ele>151.8</ele>
        <time>2023-12-10T09:55:50Z</time>
      </trkpt>
      <trkpt lat="48.55199" lon="1.91006">
        <ele>151.8</ele>
        <time>2023-12-10T09:55:51Z</time>
      </trkpt>
      <trkpt lat="48.55193" lon="1.91003">
        <ele>151.8</ele>
        <time>2023-12-10T09:55:52Z</time>
      </trkpt>
      <trkpt lat="48.55188" lon="1.91001">
        <ele>151.8</ele>
        <time>2023-12-10T09:55:53Z</time>
      </trkpt>
      <trkpt lat="48.55182" lon="1.90998">
        <ele>152.4</ele>
        <time>2023-12-10T09:55:54Z</time>
      </trkpt>
      <trkpt lat="48.55177" lon="1.90996">
        <ele>152.4</ele>
        <time>2023-12-10T09:55:55Z</time>
      </trkpt>
      <trkpt lat="48.55172" lon="1.90993">
        <ele>152.4</ele>
        <time>2023-12-10T09:55:56Z</time>
      </trkpt>
      <trkpt lat="48.55167" lon="1.90991">
        <ele>152.4</ele>
        <time>2023-12-10T09:55:57Z</time>
      </trkpt>
      <trkpt lat="48.55162" lon="1.90988">
        <ele>153.4</ele>
        <time>2023-12-10T09:55:58Z</time>
      </trkpt>
      <trkpt lat="48.55158" lon="1.90986">
        <ele>153.4</ele>
        <time>2023-12-10T09:55:59Z</time>
      </trkpt>
      <trkpt lat="48.55154" lon="1.90985">
        <ele>153.4</ele>
        <time>2023-12-10T09:56:00Z</time>
      </trkpt>
      <trkpt lat="48.55151" lon="1.90985">
        <ele>154.4</ele>
        <time>2023-12-10T09:56:01Z</time>
      </trkpt>
      <trkpt lat="48.55148" lon="1.90988">
        <ele>155.2</ele>
        <time>2023-12-10T09:56:02Z</time>
      </trkpt>
      <trkpt lat="48.55147" lon="1.90993">
        <ele>155.2</ele>
        <time>2023-12-10T09:56:03Z</time>
      </trkpt>
      <trkpt lat="48.55146" lon="1.90999">
        <ele>155.2</ele>
        <time>2023-12-10T09:56:04Z</time>
      </trkpt>
      <trkpt lat="48.55145" lon="1.91007">
        <ele>155.6</ele>
        <time>2023-12-10T09:56:05Z</time>
      </trkpt>
      <trkpt lat="48.55144" lon="1.91015">
        <ele>155.6</ele>
        <time>2023-12-10T09:56:06Z</time>
      </trkpt>
      <trkpt lat="48.55143" lon="1.91024">
        <ele>155.6</ele>
        <time>2023-12-10T09:56:07Z</time>
      </trkpt>
      <trkpt lat="48.55141" lon="1.91032">
        <ele>155.6</ele>
        <time>2023-12-10T09:56:08Z</time>
      </trkpt>
      <trkpt lat="48.5514" lon="1.9104">
        <ele>154.6</ele>
        <time>2023-12-10T09:56:09Z</time>
      </trkpt>
      <trkpt lat="48.55138" lon="1.91049">
        <ele>154.4</ele>
        <time>2023-12-10T09:56:10Z</time>
      </trkpt>
      <trkpt lat="48.55136" lon="1.91057">
        <ele>154.4</ele>
        <time>2023-12-10T09:56:11Z</time>
      </trkpt>
      <trkpt lat="48.55133" lon="1.91065">
        <ele>154.4</ele>
        <time>2023-12-10T09:56:12Z</time>
      </trkpt>
      <trkpt lat="48.55132" lon="1.91073">
        <ele>154.4</ele>
        <time>2023-12-10T09:56:13Z</time>
      </trkpt>
      <trkpt lat="48.55129" lon="1.91081">
        <ele>155.6</ele>
        <time>2023-12-10T09:56:14Z</time>
      </trkpt>
      <trkpt lat="48.55127" lon="1.91089">
        <ele>155.6</ele>
        <time>2023-12-10T09:56:15Z</time>
      </trkpt>
      <trkpt lat="48.55125" lon="1.91098">
        <ele>155.6</ele>
        <time>2023-12-10T09:56:16Z</time>
      </trkpt>
      <trkpt lat="48.55123" lon="1.91106">
        <ele>154.8</ele>
        <time>2023-12-10T09:56:17Z</time>
      </trkpt>
      <trkpt lat="48.55121" lon="1.91115">
        <ele>154.6</ele>
        <time>2023-12-10T09:56:18Z</time>
      </trkpt>
      <trkpt lat="48.55118" lon="1.91124">
        <ele>154.6</ele>
        <time>2023-12-10T09:56:19Z</time>
      </trkpt>
      <trkpt lat="48.55116" lon="1.91133">
        <ele>154.6</ele>
        <time>2023-12-10T09:56:20Z</time>
      </trkpt>
      <trkpt lat="48.55114" lon="1.91143">
        <ele>153.6</ele>
        <time>2023-12-10T09:56:21Z</time>
      </trkpt>
      <trkpt lat="48.55111" lon="1.91152">
        <ele>151.6</ele>
        <time>2023-12-10T09:56:22Z</time>
      </trkpt>
      <trkpt lat="48.55108" lon="1.91162">
        <ele>151.6</ele>
        <time>2023-12-10T09:56:23Z</time>
      </trkpt>
      <trkpt lat="48.55106" lon="1.91172">
        <ele>151.6</ele>
        <time>2023-12-10T09:56:24Z</time>
      </trkpt>
      <trkpt lat="48.55103" lon="1.91182">
        <ele>151.6</ele>
        <time>2023-12-10T09:56:25Z</time>
      </trkpt>
      <trkpt lat="48.551" lon="1.91193">
        <ele>152</ele>
        <time>2023-12-10T09:56:26Z</time>
      </trkpt>
      <trkpt lat="48.55097" lon="1.91203">
        <ele>152</ele>
        <time>2023-12-10T09:56:27Z</time>
      </trkpt>
      <trkpt lat="48.55094" lon="1.91213">
        <ele>152</ele>
        <time>2023-12-10T09:56:28Z</time>
      </trkpt>
      <trkpt lat="48.55091" lon="1.91224">
        <ele>151</ele>
        <time>2023-12-10T09:56:29Z</time>
      </trkpt>
      <trkpt lat="48.55088" lon="1.91235">
        <ele>149.6</ele>
        <time>2023-12-10T09:56:30Z</time>
      </trkpt>
      <trkpt lat="48.55086" lon="1.91247">
        <ele>149.6</ele>
        <time>2023-12-10T09:56:31Z</time>
      </trkpt>
      <trkpt lat="48.55084" lon="1.9126">
        <ele>149.6</ele>
        <time>2023-12-10T09:56:32Z</time>
      </trkpt>
      <trkpt lat="48.55082" lon="1.91273">
        <ele>148.6</ele>
        <time>2023-12-10T09:56:33Z</time>
      </trkpt>
      <trkpt lat="48.5508" lon="1.91286">
        <ele>148.4</ele>
        <time>2023-12-10T09:56:34Z</time>
      </trkpt>
      <trkpt lat="48.55079" lon="1.91299">
        <ele>148.4</ele>
        <time>2023-12-10T09:56:35Z</time>
      </trkpt>
      <trkpt lat="48.55077" lon="1.91312">
        <ele>148.4</ele>
        <time>2023-12-10T09:56:36Z</time>
      </trkpt>
      <trkpt lat="48.55076" lon="1.91325">
        <ele>148.4</ele>
        <time>2023-12-10T09:56:37Z</time>
      </trkpt>
      <trkpt lat="48.55075" lon="1.91338">
        <ele>148.2</ele>
        <time>2023-12-10T09:56:38Z</time>
      </trkpt>
      <trkpt lat="48.55074" lon="1.9135">
        <ele>148.2</ele>
        <time>2023-12-10T09:56:39Z</time>
      </trkpt>
      <trkpt lat="48.55074" lon="1.91363">
        <ele>148.2</ele>
        <time>2023-12-10T09:56:40Z</time>
      </trkpt>
      <trkpt lat="48.55073" lon="1.91375">
        <ele>149</ele>
        <time>2023-12-10T09:56:41Z</time>
      </trkpt>
      <trkpt lat="48.55073" lon="1.91386">
        <ele>150</ele>
        <time>2023-12-10T09:56:42Z</time>
      </trkpt>
      <trkpt lat="48.55073" lon="1.91397">
        <ele>150</ele>
        <time>2023-12-10T09:56:43Z</time>
      </trkpt>
      <trkpt lat="48.55072" lon="1.91408">
        <ele>150</ele>
        <time>2023-12-10T09:56:44Z</time>
      </trkpt>
      <trkpt lat="48.55072" lon="1.91418">
        <ele>150.8</ele>
        <time>2023-12-10T09:56:45Z</time>
      </trkpt>
      <trkpt lat="48.55072" lon="1.91427">
        <ele>151.4</ele>
        <time>2023-12-10T09:56:46Z</time>
      </trkpt>
      <trkpt lat="48.55072" lon="1.91437">
        <ele>151.4</ele>
        <time>2023-12-10T09:56:47Z</time>
      </trkpt>
      <trkpt lat="48.55071" lon="1.91445">
        <ele>151.4</ele>
        <time>2023-12-10T09:56:48Z</time>
      </trkpt>
      <trkpt lat="48.55071" lon="1.91454">
        <ele>151.2</ele>
        <time>2023-12-10T09:56:49Z</time>
      </trkpt>
      <trkpt lat="48.55071" lon="1.91463">
        <ele>151.2</ele>
        <time>2023-12-10T09:56:50Z</time>
      </trkpt>
      <trkpt lat="48.55071" lon="1.91473">
        <ele>151.2</ele>
        <time>2023-12-10T09:56:51Z</time>
      </trkpt>
      <trkpt lat="48.55071" lon="1.91485">
        <ele>151.2</ele>
        <time>2023-12-10T09:56:52Z</time>
      </trkpt>
      <trkpt lat="48.55072" lon="1.91496">
        <ele>151.2</ele>
        <time>2023-12-10T09:56:53Z</time>
      </trkpt>
      <trkpt lat="48.55072" lon="1.91507">
        <ele>152.2</ele>
        <time>2023-12-10T09:56:54Z</time>
      </trkpt>
      <trkpt lat="48.55072" lon="1.91517">
        <ele>152.2</ele>
        <time>2023-12-10T09:56:55Z</time>
      </trkpt>
      <trkpt lat="48.55072" lon="1.91527">
        <ele>152.2</ele>
        <time>2023-12-10T09:56:56Z</time>
      </trkpt>
      <trkpt lat="48.55072" lon="1.91536">
        <ele>152.2</ele>
        <time>2023-12-10T09:56:57Z</time>
      </trkpt>
      <trkpt lat="48.55072" lon="1.91546">
        <ele>151.8</ele>
        <time>2023-12-10T09:56:58Z</time>
      </trkpt>
      <trkpt lat="48.55072" lon="1.91556">
        <ele>151.8</ele>
        <time>2023-12-10T09:56:59Z</time>
      </trkpt>
      <trkpt lat="48.55071" lon="1.91566">
        <ele>151.8</ele>
        <time>2023-12-10T09:57:00Z</time>
      </trkpt>
      <trkpt lat="48.5507" lon="1.91576">
        <ele>152.2</ele>
        <time>2023-12-10T09:57:01Z</time>
      </trkpt>
      <trkpt lat="48.5507" lon="1.91585">
        <ele>152.8</ele>
        <time>2023-12-10T09:57:02Z</time>
      </trkpt>
      <trkpt lat="48.5507" lon="1.91595">
        <ele>152.8</ele>
        <time>2023-12-10T09:57:03Z</time>
      </trkpt>
      <trkpt lat="48.5507" lon="1.91604">
        <ele>152.8</ele>
        <time>2023-12-10T09:57:04Z</time>
      </trkpt>
      <trkpt lat="48.5507" lon="1.91614">
        <ele>152.8</ele>
        <time>2023-12-10T09:57:05Z</time>
      </trkpt>
      <trkpt lat="48.5507" lon="1.91624">
        <ele>152.4</ele>
        <time>2023-12-10T09:57:06Z</time>
      </trkpt>
      <trkpt lat="48.5507" lon="1.91635">
        <ele>152.4</ele>
        <time>2023-12-10T09:57:07Z</time>
      </trkpt>
      <trkpt lat="48.5507" lon="1.91645">
        <ele>152.4</ele>
        <time>2023-12-10T09:57:08Z</time>
      </trkpt>
      <trkpt lat="48.5507" lon="1.91656">
        <ele>152.4</ele>
        <time>2023-12-10T09:57:09Z</time>
      </trkpt>
      <trkpt lat="48.55069" lon="1.91665">
        <ele>152.8</ele>
        <time>2023-12-10T09:57:10Z</time>
      </trkpt>
      <trkpt lat="48.55069" lon="1.91675">
        <ele>152.8</ele>
        <time>2023-12-10T09:57:11Z</time>
      </trkpt>
      <trkpt lat="48.55068" lon="1.91687">
        <ele>152.8</ele>
        <time>2023-12-10T09:57:12Z</time>
      </trkpt>
      <trkpt lat="48.55068" lon="1.91699">
        <ele>151.8</ele>
        <time>2023-12-10T09:57:13Z</time>
      </trkpt>
      <trkpt lat="48.55067" lon="1.91712">
        <ele>151.2</ele>
        <time>2023-12-10T09:57:14Z</time>
      </trkpt>
      <trkpt lat="48.55066" lon="1.91723">
        <ele>151.2</ele>
        <time>2023-12-10T09:57:15Z</time>
      </trkpt>
      <trkpt lat="48.55065" lon="1.91736">
        <ele>151.2</ele>
        <time>2023-12-10T09:57:16Z</time>
      </trkpt>
      <trkpt lat="48.55064" lon="1.91748">
        <ele>150.6</ele>
        <time>2023-12-10T09:57:17Z</time>
      </trkpt>
      <trkpt lat="48.55062" lon="1.91761">
        <ele>150</ele>
        <time>2023-12-10T09:57:18Z</time>
      </trkpt>
      <trkpt lat="48.5506" lon="1.91774">
        <ele>150</ele>
        <time>2023-12-10T09:57:19Z</time>
      </trkpt>
      <trkpt lat="48.55058" lon="1.91787">
        <ele>150</ele>
        <time>2023-12-10T09:57:20Z</time>
      </trkpt>
      <trkpt lat="48.55054" lon="1.91801">
        <ele>149</ele>
        <time>2023-12-10T09:57:21Z</time>
      </trkpt>
      <trkpt lat="48.55051" lon="1.91815">
        <ele>143.2</ele>
        <time>2023-12-10T09:57:22Z</time>
      </trkpt>
      <trkpt lat="48.55048" lon="1.91829">
        <ele>143.2</ele>
        <time>2023-12-10T09:57:23Z</time>
      </trkpt>
      <trkpt lat="48.55044" lon="1.91843">
        <ele>143.2</ele>
        <time>2023-12-10T09:57:24Z</time>
      </trkpt>
      <trkpt lat="48.5504" lon="1.91858">
        <ele>143.4</ele>
        <time>2023-12-10T09:57:25Z</time>
      </trkpt>
      <trkpt lat="48.55036" lon="1.91872">
        <ele>141.6</ele>
        <time>2023-12-10T09:57:26Z</time>
      </trkpt>
      <trkpt lat="48.55032" lon="1.91887">
        <ele>141.6</ele>
        <time>2023-12-10T09:57:27Z</time>
      </trkpt>
      <trkpt lat="48.55027" lon="1.91902">
        <ele>141.6</ele>
        <time>2023-12-10T09:57:28Z</time>
      </trkpt>
      <trkpt lat="48.55023" lon="1.91917">
        <ele>141.2</ele>
        <time>2023-12-10T09:57:29Z</time>
      </trkpt>
      <trkpt lat="48.55019" lon="1.91932">
        <ele>139.4</ele>
        <time>2023-12-10T09:57:30Z</time>
      </trkpt>
      <trkpt lat="48.55014" lon="1.91948">
        <ele>139.4</ele>
        <time>2023-12-10T09:57:31Z</time>
      </trkpt>
      <trkpt lat="48.55012" lon="1.91962">
        <ele>139.4</ele>
        <time>2023-12-10T09:57:32Z</time>
      </trkpt>
      <trkpt lat="48.55009" lon="1.91976">
        <ele>138.4</ele>
        <time>2023-12-10T09:57:33Z</time>
      </trkpt>
      <trkpt lat="48.55005" lon="1.91991">
        <ele>137.6</ele>
        <time>2023-12-10T09:57:34Z</time>
      </trkpt>
      <trkpt lat="48.55003" lon="1.92006">
        <ele>137.6</ele>
        <time>2023-12-10T09:57:35Z</time>
      </trkpt>
      <trkpt lat="48.55003" lon="1.92022">
        <ele>137.6</ele>
        <time>2023-12-10T09:57:36Z</time>
      </trkpt>
      <trkpt lat="48.54997" lon="1.92036">
        <ele>137.6</ele>
        <time>2023-12-10T09:57:37Z</time>
      </trkpt>
      <trkpt lat="48.54993" lon="1.92048">
        <ele>140.6</ele>
        <time>2023-12-10T09:57:38Z</time>
      </trkpt>
      <trkpt lat="48.54988" lon="1.92058">
        <ele>140.6</ele>
        <time>2023-12-10T09:57:39Z</time>
      </trkpt>
      <trkpt lat="48.54985" lon="1.9207">
        <ele>140.6</ele>
        <time>2023-12-10T09:57:40Z</time>
      </trkpt>
      <trkpt lat="48.5498" lon="1.92082">
        <ele>140.6</ele>
        <time>2023-12-10T09:57:41Z</time>
      </trkpt>
      <trkpt lat="48.54976" lon="1.92094">
        <ele>142.4</ele>
        <time>2023-12-10T09:57:42Z</time>
      </trkpt>
      <trkpt lat="48.54972" lon="1.92107">
        <ele>142.4</ele>
        <time>2023-12-10T09:57:43Z</time>
      </trkpt>
      <trkpt lat="48.54968" lon="1.92119">
        <ele>142.4</ele>
        <time>2023-12-10T09:57:44Z</time>
      </trkpt>
      <trkpt lat="48.54964" lon="1.92132">
        <ele>142.4</ele>
        <time>2023-12-10T09:57:45Z</time>
      </trkpt>
      <trkpt lat="48.54961" lon="1.92144">
        <ele>138.8</ele>
        <time>2023-12-10T09:57:46Z</time>
      </trkpt>
      <trkpt lat="48.54957" lon="1.92157">
        <ele>138.8</ele>
        <time>2023-12-10T09:57:47Z</time>
      </trkpt>
      <trkpt lat="48.54954" lon="1.92169">
        <ele>138.8</ele>
        <time>2023-12-10T09:57:48Z</time>
      </trkpt>
      <trkpt lat="48.54949" lon="1.92181">
        <ele>138.8</ele>
        <time>2023-12-10T09:57:49Z</time>
      </trkpt>
      <trkpt lat="48.54945" lon="1.92194">
        <ele>136.6</ele>
        <time>2023-12-10T09:57:50Z</time>
      </trkpt>
      <trkpt lat="48.54942" lon="1.92207">
        <ele>136.6</ele>
        <time>2023-12-10T09:57:51Z</time>
      </trkpt>
      <trkpt lat="48.54938" lon="1.9222">
        <ele>136.6</ele>
        <time>2023-12-10T09:57:52Z</time>
      </trkpt>
      <trkpt lat="48.54934" lon="1.92233">
        <ele>136.6</ele>
        <time>2023-12-10T09:57:53Z</time>
      </trkpt>
      <trkpt lat="48.5493" lon="1.92246">
        <ele>136</ele>
        <time>2023-12-10T09:57:54Z</time>
      </trkpt>
      <trkpt lat="48.54926" lon="1.92258">
        <ele>136</ele>
        <time>2023-12-10T09:57:55Z</time>
      </trkpt>
      <trkpt lat="48.54923" lon="1.92271">
        <ele>136</ele>
        <time>2023-12-10T09:57:56Z</time>
      </trkpt>
      <trkpt lat="48.54919" lon="1.92284">
        <ele>136</ele>
        <time>2023-12-10T09:57:57Z</time>
      </trkpt>
      <trkpt lat="48.54915" lon="1.92296">
        <ele>135.6</ele>
        <time>2023-12-10T09:57:58Z</time>
      </trkpt>
      <trkpt lat="48.54912" lon="1.92309">
        <ele>135.6</ele>
        <time>2023-12-10T09:57:59Z</time>
      </trkpt>
      <trkpt lat="48.54908" lon="1.92321">
        <ele>135.6</ele>
        <time>2023-12-10T09:58:00Z</time>
      </trkpt>
      <trkpt lat="48.54905" lon="1.92333">
        <ele>134.6</ele>
        <time>2023-12-10T09:58:01Z</time>
      </trkpt>
      <trkpt lat="48.54902" lon="1.92345">
        <ele>134.8</ele>
        <time>2023-12-10T09:58:02Z</time>
      </trkpt>
      <trkpt lat="48.54898" lon="1.92357">
        <ele>134.8</ele>
        <time>2023-12-10T09:58:03Z</time>
      </trkpt>
      <trkpt lat="48.54895" lon="1.92368">
        <ele>134.8</ele>
        <time>2023-12-10T09:58:04Z</time>
      </trkpt>
      <trkpt lat="48.54892" lon="1.9238">
        <ele>135.8</ele>
        <time>2023-12-10T09:58:05Z</time>
      </trkpt>
      <trkpt lat="48.54888" lon="1.92391">
        <ele>136.6</ele>
        <time>2023-12-10T09:58:06Z</time>
      </trkpt>
      <trkpt lat="48.54885" lon="1.92402">
        <ele>136.6</ele>
        <time>2023-12-10T09:58:07Z</time>
      </trkpt>
      <trkpt lat="48.54881" lon="1.92414">
        <ele>136.6</ele>
        <time>2023-12-10T09:58:08Z</time>
      </trkpt>
      <trkpt lat="48.54878" lon="1.92425">
        <ele>136.6</ele>
        <time>2023-12-10T09:58:09Z</time>
      </trkpt>
      <trkpt lat="48.54875" lon="1.92436">
        <ele>136</ele>
        <time>2023-12-10T09:58:10Z</time>
      </trkpt>
      <trkpt lat="48.54871" lon="1.92448">
        <ele>136</ele>
        <time>2023-12-10T09:58:11Z</time>
      </trkpt>
      <trkpt lat="48.54868" lon="1.92459">
        <ele>136</ele>
        <time>2023-12-10T09:58:12Z</time>
      </trkpt>
      <trkpt lat="48.54865" lon="1.9247">
        <ele>135.8</ele>
        <time>2023-12-10T09:58:13Z</time>
      </trkpt>
      <trkpt lat="48.54861" lon="1.92481">
        <ele>136</ele>
        <time>2023-12-10T09:58:14Z</time>
      </trkpt>
      <trkpt lat="48.54858" lon="1.92493">
        <ele>136</ele>
        <time>2023-12-10T09:58:15Z</time>
      </trkpt>
      <trkpt lat="48.54855" lon="1.92504">
        <ele>136</ele>
        <time>2023-12-10T09:58:16Z</time>
      </trkpt>
      <trkpt lat="48.54851" lon="1.92515">
        <ele>135</ele>
        <time>2023-12-10T09:58:17Z</time>
      </trkpt>
      <trkpt lat="48.54848" lon="1.92527">
        <ele>135</ele>
        <time>2023-12-10T09:58:18Z</time>
      </trkpt>
      <trkpt lat="48.54845" lon="1.92538">
        <ele>135</ele>
        <time>2023-12-10T09:58:19Z</time>
      </trkpt>
      <trkpt lat="48.54842" lon="1.92549">
        <ele>135</ele>
        <time>2023-12-10T09:58:20Z</time>
      </trkpt>
      <trkpt lat="48.54838" lon="1.9256">
        <ele>134.2</ele>
        <time>2023-12-10T09:58:21Z</time>
      </trkpt>
      <trkpt lat="48.54835" lon="1.92571">
        <ele>134.2</ele>
        <time>2023-12-10T09:58:22Z</time>
      </trkpt>
      <trkpt lat="48.54832" lon="1.92582">
        <ele>134.2</ele>
        <time>2023-12-10T09:58:23Z</time>
      </trkpt>
      <trkpt lat="48.54829" lon="1.92592">
        <ele>134.2</ele>
        <time>2023-12-10T09:58:24Z</time>
      </trkpt>
      <trkpt lat="48.54826" lon="1.92602">
        <ele>134.8</ele>
        <time>2023-12-10T09:58:25Z</time>
      </trkpt>
      <trkpt lat="48.54823" lon="1.92612">
        <ele>136</ele>
        <time>2023-12-10T09:58:26Z</time>
      </trkpt>
      <trkpt lat="48.5482" lon="1.92622">
        <ele>136</ele>
        <time>2023-12-10T09:58:27Z</time>
      </trkpt>
      <trkpt lat="48.54817" lon="1.92632">
        <ele>136</ele>
        <time>2023-12-10T09:58:28Z</time>
      </trkpt>
      <trkpt lat="48.54814" lon="1.92641">
        <ele>135</ele>
        <time>2023-12-10T09:58:29Z</time>
      </trkpt>
      <trkpt lat="48.5481" lon="1.9265">
        <ele>136.2</ele>
        <time>2023-12-10T09:58:30Z</time>
      </trkpt>
      <trkpt lat="48.54807" lon="1.92659">
        <ele>136.2</ele>
        <time>2023-12-10T09:58:31Z</time>
      </trkpt>
      <trkpt lat="48.54805" lon="1.92669">
        <ele>136.2</ele>
        <time>2023-12-10T09:58:32Z</time>
      </trkpt>
      <trkpt lat="48.54803" lon="1.92678">
        <ele>136.2</ele>
        <time>2023-12-10T09:58:33Z</time>
      </trkpt>
      <trkpt lat="48.548" lon="1.92688">
        <ele>135.8</ele>
        <time>2023-12-10T09:58:34Z</time>
      </trkpt>
      <trkpt lat="48.54797" lon="1.92698">
        <ele>135.8</ele>
        <time>2023-12-10T09:58:35Z</time>
      </trkpt>
      <trkpt lat="48.54794" lon="1.92709">
        <ele>135.8</ele>
        <time>2023-12-10T09:58:36Z</time>
      </trkpt>
      <trkpt lat="48.54791" lon="1.92721">
        <ele>136.8</ele>
        <time>2023-12-10T09:58:37Z</time>
      </trkpt>
      <trkpt lat="48.54788" lon="1.92732">
        <ele>137</ele>
        <time>2023-12-10T09:58:38Z</time>
      </trkpt>
      <trkpt lat="48.54786" lon="1.92742">
        <ele>137</ele>
        <time>2023-12-10T09:58:39Z</time>
      </trkpt>
      <trkpt lat="48.54782" lon="1.92753">
        <ele>137</ele>
        <time>2023-12-10T09:58:40Z</time>
      </trkpt>
      <trkpt lat="48.54779" lon="1.92763">
        <ele>137</ele>
        <time>2023-12-10T09:58:41Z</time>
      </trkpt>
      <trkpt lat="48.54776" lon="1.92773">
        <ele>137.2</ele>
        <time>2023-12-10T09:58:42Z</time>
      </trkpt>
      <trkpt lat="48.54773" lon="1.92783">
        <ele>137.2</ele>
        <time>2023-12-10T09:58:43Z</time>
      </trkpt>
      <trkpt lat="48.5477" lon="1.92793">
        <ele>137.2</ele>
        <time>2023-12-10T09:58:44Z</time>
      </trkpt>
      <trkpt lat="48.54768" lon="1.92803">
        <ele>137.2</ele>
        <time>2023-12-10T09:58:45Z</time>
      </trkpt>
      <trkpt lat="48.54765" lon="1.92813">
        <ele>138</ele>
        <time>2023-12-10T09:58:46Z</time>
      </trkpt>
      <trkpt lat="48.54762" lon="1.92823">
        <ele>138</ele>
        <time>2023-12-10T09:58:47Z</time>
      </trkpt>
      <trkpt lat="48.5476" lon="1.92833">
        <ele>138</ele>
        <time>2023-12-10T09:58:48Z</time>
      </trkpt>
      <trkpt lat="48.54757" lon="1.92843">
        <ele>138</ele>
        <time>2023-12-10T09:58:49Z</time>
      </trkpt>
      <trkpt lat="48.54754" lon="1.92852">
        <ele>138.2</ele>
        <time>2023-12-10T09:58:50Z</time>
      </trkpt>
      <trkpt lat="48.54751" lon="1.92862">
        <ele>138.2</ele>
        <time>2023-12-10T09:58:51Z</time>
      </trkpt>
      <trkpt lat="48.54748" lon="1.92873">
        <ele>138.2</ele>
        <time>2023-12-10T09:58:52Z</time>
      </trkpt>
      <trkpt lat="48.54745" lon="1.92883">
        <ele>138.2</ele>
        <time>2023-12-10T09:58:53Z</time>
      </trkpt>
      <trkpt lat="48.54742" lon="1.92893">
        <ele>137.6</ele>
        <time>2023-12-10T09:58:54Z</time>
      </trkpt>
      <trkpt lat="48.54739" lon="1.92903">
        <ele>137.6</ele>
        <time>2023-12-10T09:58:55Z</time>
      </trkpt>
      <trkpt lat="48.54736" lon="1.92914">
        <ele>137.6</ele>
        <time>2023-12-10T09:58:56Z</time>
      </trkpt>
      <trkpt lat="48.54733" lon="1.92924">
        <ele>136.6</ele>
        <time>2023-12-10T09:58:57Z</time>
      </trkpt>
      <trkpt lat="48.5473" lon="1.92934">
        <ele>136</ele>
        <time>2023-12-10T09:58:58Z</time>
      </trkpt>
      <trkpt lat="48.54727" lon="1.92944">
        <ele>136</ele>
        <time>2023-12-10T09:58:59Z</time>
      </trkpt>
      <trkpt lat="48.54724" lon="1.92954">
        <ele>136</ele>
        <time>2023-12-10T09:59:00Z</time>
      </trkpt>
      <trkpt lat="48.54721" lon="1.92964">
        <ele>136</ele>
        <time>2023-12-10T09:59:01Z</time>
      </trkpt>
      <trkpt lat="48.54718" lon="1.92974">
        <ele>137.8</ele>
        <time>2023-12-10T09:59:02Z</time>
      </trkpt>
      <trkpt lat="48.54715" lon="1.92983">
        <ele>137.8</ele>
        <time>2023-12-10T09:59:03Z</time>
      </trkpt>
      <trkpt lat="48.54712" lon="1.92993">
        <ele>137.8</ele>
        <time>2023-12-10T09:59:04Z</time>
      </trkpt>
      <trkpt lat="48.54708" lon="1.93003">
        <ele>136.8</ele>
        <time>2023-12-10T09:59:05Z</time>
      </trkpt>
      <trkpt lat="48.54705" lon="1.93014">
        <ele>136</ele>
        <time>2023-12-10T09:59:06Z</time>
      </trkpt>
      <trkpt lat="48.54702" lon="1.93024">
        <ele>136</ele>
        <time>2023-12-10T09:59:07Z</time>
      </trkpt>
      <trkpt lat="48.54699" lon="1.93034">
        <ele>136</ele>
        <time>2023-12-10T09:59:08Z</time>
      </trkpt>
      <trkpt lat="48.54695" lon="1.93044">
        <ele>136</ele>
        <time>2023-12-10T09:59:09Z</time>
      </trkpt>
      <trkpt lat="48.54692" lon="1.93054">
        <ele>134.8</ele>
        <time>2023-12-10T09:59:10Z</time>
      </trkpt>
      <trkpt lat="48.54688" lon="1.93064">
        <ele>134.8</ele>
        <time>2023-12-10T09:59:11Z</time>
      </trkpt>
      <trkpt lat="48.54684" lon="1.93073">
        <ele>134.8</ele>
        <time>2023-12-10T09:59:12Z</time>
      </trkpt>
      <trkpt lat="48.5468" lon="1.93083">
        <ele>133.8</ele>
        <time>2023-12-10T09:59:13Z</time>
      </trkpt>
      <trkpt lat="48.54676" lon="1.93093">
        <ele>133</ele>
        <time>2023-12-10T09:59:14Z</time>
      </trkpt>
      <trkpt lat="48.54671" lon="1.93102">
        <ele>133</ele>
        <time>2023-12-10T09:59:15Z</time>
      </trkpt>
      <trkpt lat="48.54667" lon="1.93111">
        <ele>133</ele>
        <time>2023-12-10T09:59:16Z</time>
      </trkpt>
      <trkpt lat="48.54663" lon="1.93121">
        <ele>133</ele>
        <time>2023-12-10T09:59:17Z</time>
      </trkpt>
      <trkpt lat="48.54658" lon="1.9313">
        <ele>133.6</ele>
        <time>2023-12-10T09:59:18Z</time>
      </trkpt>
      <trkpt lat="48.54654" lon="1.93139">
        <ele>133.6</ele>
        <time>2023-12-10T09:59:19Z</time>
      </trkpt>
      <trkpt lat="48.5465" lon="1.93147">
        <ele>133.6</ele>
        <time>2023-12-10T09:59:20Z</time>
      </trkpt>
      <trkpt lat="48.54645" lon="1.93156">
        <ele>133.6</ele>
        <time>2023-12-10T09:59:21Z</time>
      </trkpt>
      <trkpt lat="48.54641" lon="1.93165">
        <ele>133.8</ele>
        <time>2023-12-10T09:59:22Z</time>
      </trkpt>
      <trkpt lat="48.54636" lon="1.93174">
        <ele>133.8</ele>
        <time>2023-12-10T09:59:23Z</time>
      </trkpt>
      <trkpt lat="48.54632" lon="1.93184">
        <ele>133.8</ele>
        <time>2023-12-10T09:59:24Z</time>
      </trkpt>
      <trkpt lat="48.54627" lon="1.93193">
        <ele>132.8</ele>
        <time>2023-12-10T09:59:25Z</time>
      </trkpt>
      <trkpt lat="48.54622" lon="1.93203">
        <ele>131.2</ele>
        <time>2023-12-10T09:59:26Z</time>
      </trkpt>
      <trkpt lat="48.54618" lon="1.93212">
        <ele>131.2</ele>
        <time>2023-12-10T09:59:27Z</time>
      </trkpt>
      <trkpt lat="48.54613" lon="1.93222">
        <ele>131.2</ele>
        <time>2023-12-10T09:59:28Z</time>
      </trkpt>
      <trkpt lat="48.54608" lon="1.93232">
        <ele>131.2</ele>
        <time>2023-12-10T09:59:29Z</time>
      </trkpt>
      <trkpt lat="48.54603" lon="1.93242">
        <ele>130.4</ele>
        <time>2023-12-10T09:59:30Z</time>
      </trkpt>
      <trkpt lat="48.54599" lon="1.93252">
        <ele>130.4</ele>
        <time>2023-12-10T09:59:31Z</time>
      </trkpt>
      <trkpt lat="48.54594" lon="1.93262">
        <ele>130.4</ele>
        <time>2023-12-10T09:59:32Z</time>
      </trkpt>
      <trkpt lat="48.54589" lon="1.93271">
        <ele>129.4</ele>
        <time>2023-12-10T09:59:33Z</time>
      </trkpt>
      <trkpt lat="48.54584" lon="1.93281">
        <ele>128.6</ele>
        <time>2023-12-10T09:59:34Z</time>
      </trkpt>
      <trkpt lat="48.54579" lon="1.93291">
        <ele>128.6</ele>
        <time>2023-12-10T09:59:35Z</time>
      </trkpt>
      <trkpt lat="48.54574" lon="1.93301">
        <ele>128.6</ele>
        <time>2023-12-10T09:59:36Z</time>
      </trkpt>
      <trkpt lat="48.54569" lon="1.9331">
        <ele>128.6</ele>
        <time>2023-12-10T09:59:37Z</time>
      </trkpt>
      <trkpt lat="48.54565" lon="1.93321">
        <ele>128.8</ele>
        <time>2023-12-10T09:59:38Z</time>
      </trkpt>
      <trkpt lat="48.5456" lon="1.93331">
        <ele>128.8</ele>
        <time>2023-12-10T09:59:39Z</time>
      </trkpt>
      <trkpt lat="48.54555" lon="1.93341">
        <ele>128.8</ele>
        <time>2023-12-10T09:59:40Z</time>
      </trkpt>
      <trkpt lat="48.5455" lon="1.93351">
        <ele>128.8</ele>
        <time>2023-12-10T09:59:41Z</time>
      </trkpt>
      <trkpt lat="48.54546" lon="1.93361">
        <ele>127.8</ele>
        <time>2023-12-10T09:59:42Z</time>
      </trkpt>
      <trkpt lat="48.54541" lon="1.9337">
        <ele>127.8</ele>
        <time>2023-12-10T09:59:43Z</time>
      </trkpt>
      <trkpt lat="48.54536" lon="1.9338">
        <ele>127.8</ele>
        <time>2023-12-10T09:59:44Z</time>
      </trkpt>
      <trkpt lat="48.54531" lon="1.9339">
        <ele>127.8</ele>
        <time>2023-12-10T09:59:45Z</time>
      </trkpt>
      <trkpt lat="48.54527" lon="1.934">
        <ele>127.2</ele>
        <time>2023-12-10T09:59:46Z</time>
      </trkpt>
      <trkpt lat="48.54522" lon="1.9341">
        <ele>127.2</ele>
        <time>2023-12-10T09:59:47Z</time>
      </trkpt>
      <trkpt lat="48.54518" lon="1.93419">
        <ele>127.2</ele>
        <time>2023-12-10T09:59:48Z</time>
      </trkpt>
      <trkpt lat="48.54513" lon="1.93429">
        <ele>127.2</ele>
        <time>2023-12-10T09:59:49Z</time>
      </trkpt>
      <trkpt lat="48.54509" lon="1.93438">
        <ele>127</ele>
        <time>2023-12-10T09:59:50Z</time>
      </trkpt>
      <trkpt lat="48.54504" lon="1.93447">
        <ele>127</ele>
        <time>2023-12-10T09:59:51Z</time>
      </trkpt>
      <trkpt lat="48.545" lon="1.93456">
        <ele>127</ele>
        <time>2023-12-10T09:59:52Z</time>
      </trkpt>
      <trkpt lat="48.54496" lon="1.93465">
        <ele>127.4</ele>
        <time>2023-12-10T09:59:53Z</time>
      </trkpt>
      <trkpt lat="48.54492" lon="1.93474">
        <ele>127.6</ele>
        <time>2023-12-10T09:59:54Z</time>
      </trkpt>
      <trkpt lat="48.54487" lon="1.93483">
        <ele>127.6</ele>
        <time>2023-12-10T09:59:55Z</time>
      </trkpt>
      <trkpt lat="48.54483" lon="1.93492">
        <ele>127.6</ele>
        <time>2023-12-10T09:59:56Z</time>
      </trkpt>
      <trkpt lat="48.54479" lon="1.935">
        <ele>128.6</ele>
        <time>2023-12-10T09:59:57Z</time>
      </trkpt>
      <trkpt lat="48.54475" lon="1.93509">
        <ele>127.8</ele>
        <time>2023-12-10T09:59:58Z</time>
      </trkpt>
      <trkpt lat="48.54471" lon="1.93517">
        <ele>127.8</ele>
        <time>2023-12-10T09:59:59Z</time>
      </trkpt>
      <trkpt lat="48.54467" lon="1.93526">
        <ele>127.8</ele>
        <time>2023-12-10T10:00:00Z</time>
      </trkpt>
      <trkpt lat="48.54464" lon="1.93534">
        <ele>128.2</ele>
        <time>2023-12-10T10:00:01Z</time>
      </trkpt>
      <trkpt lat="48.5446" lon="1.93542">
        <ele>128.6</ele>
        <time>2023-12-10T10:00:02Z</time>
      </trkpt>
      <trkpt lat="48.54456" lon="1.9355">
        <ele>128.6</ele>
        <time>2023-12-10T10:00:03Z</time>
      </trkpt>
      <trkpt lat="48.54452" lon="1.93558">
        <ele>128.6</ele>
        <time>2023-12-10T10:00:04Z</time>
      </trkpt>
      <trkpt lat="48.54449" lon="1.93566">
        <ele>128.6</ele>
        <time>2023-12-10T10:00:05Z</time>
      </trkpt>
      <trkpt lat="48.54445" lon="1.93573">
        <ele>128</ele>
        <time>2023-12-10T10:00:06Z</time>
      </trkpt>
      <trkpt lat="48.54441" lon="1.93581">
        <ele>128</ele>
        <time>2023-12-10T10:00:07Z</time>
      </trkpt>
      <trkpt lat="48.54437" lon="1.93589">
        <ele>128</ele>
        <time>2023-12-10T10:00:08Z</time>
      </trkpt>
      <trkpt lat="48.54432" lon="1.93596">
        <ele>128</ele>
        <time>2023-12-10T10:00:09Z</time>
      </trkpt>
      <trkpt lat="48.54428" lon="1.93604">
        <ele>128.4</ele>
        <time>2023-12-10T10:00:10Z</time>
      </trkpt>
      <trkpt lat="48.54423" lon="1.93612">
        <ele>128.4</ele>
        <time>2023-12-10T10:00:11Z</time>
      </trkpt>
      <trkpt lat="48.54419" lon="1.9362">
        <ele>128.4</ele>
        <time>2023-12-10T10:00:12Z</time>
      </trkpt>
      <trkpt lat="48.54414" lon="1.93629">
        <ele>127.6</ele>
        <time>2023-12-10T10:00:13Z</time>
      </trkpt>
      <trkpt lat="48.54409" lon="1.93637">
        <ele>127.4</ele>
        <time>2023-12-10T10:00:14Z</time>
      </trkpt>
      <trkpt lat="48.54405" lon="1.93646">
        <ele>127.4</ele>
        <time>2023-12-10T10:00:15Z</time>
      </trkpt>
      <trkpt lat="48.544" lon="1.93655">
        <ele>127.4</ele>
        <time>2023-12-10T10:00:16Z</time>
      </trkpt>
      <trkpt lat="48.54396" lon="1.93663">
        <ele>127.4</ele>
        <time>2023-12-10T10:00:17Z</time>
      </trkpt>
      <trkpt lat="48.54391" lon="1.93673">
        <ele>126</ele>
        <time>2023-12-10T10:00:18Z</time>
      </trkpt>
      <trkpt lat="48.54387" lon="1.93682">
        <ele>126</ele>
        <time>2023-12-10T10:00:19Z</time>
      </trkpt>
      <trkpt lat="48.54384" lon="1.93692">
        <ele>126</ele>
        <time>2023-12-10T10:00:20Z</time>
      </trkpt>
      <trkpt lat="48.5438" lon="1.93702">
        <ele>126</ele>
        <time>2023-12-10T10:00:21Z</time>
      </trkpt>
      <trkpt lat="48.54377" lon="1.93713">
        <ele>126.2</ele>
        <time>2023-12-10T10:00:22Z</time>
      </trkpt>
      <trkpt lat="48.54375" lon="1.93724">
        <ele>126.2</ele>
        <time>2023-12-10T10:00:23Z</time>
      </trkpt>
      <trkpt lat="48.54372" lon="1.93735">
        <ele>126.2</ele>
        <time>2023-12-10T10:00:24Z</time>
      </trkpt>
      <trkpt lat="48.5437" lon="1.93745">
        <ele>125.2</ele>
        <time>2023-12-10T10:00:25Z</time>
      </trkpt>
      <trkpt lat="48.54367" lon="1.93754">
        <ele>122.2</ele>
        <time>2023-12-10T10:00:26Z</time>
      </trkpt>
      <trkpt lat="48.54363" lon="1.93762">
        <ele>122.2</ele>
        <time>2023-12-10T10:00:27Z</time>
      </trkpt>
      <trkpt lat="48.54358" lon="1.93767">
        <ele>122.2</ele>
        <time>2023-12-10T10:00:28Z</time>
      </trkpt>
      <trkpt lat="48.54353" lon="1.93771">
        <ele>123.2</ele>
        <time>2023-12-10T10:00:29Z</time>
      </trkpt>
      <trkpt lat="48.54347" lon="1.93775">
        <ele>124</ele>
        <time>2023-12-10T10:00:30Z</time>
      </trkpt>
      <trkpt lat="48.54342" lon="1.93779">
        <ele>124</ele>
        <time>2023-12-10T10:00:31Z</time>
      </trkpt>
      <trkpt lat="48.54337" lon="1.93783">
        <ele>124</ele>
        <time>2023-12-10T10:00:32Z</time>
      </trkpt>
      <trkpt lat="48.54331" lon="1.93787">
        <ele>125</ele>
        <time>2023-12-10T10:00:33Z</time>
      </trkpt>
      <trkpt lat="48.54326" lon="1.93792">
        <ele>125.6</ele>
        <time>2023-12-10T10:00:34Z</time>
      </trkpt>
      <trkpt lat="48.5432" lon="1.93798">
        <ele>125.6</ele>
        <time>2023-12-10T10:00:35Z</time>
      </trkpt>
      <trkpt lat="48.54315" lon="1.93803">
        <ele>125.6</ele>
        <time>2023-12-10T10:00:36Z</time>
      </trkpt>
      <trkpt lat="48.54309" lon="1.93809">
        <ele>124.6</ele>
        <time>2023-12-10T10:00:37Z</time>
      </trkpt>
      <trkpt lat="48.54304" lon="1.93814">
        <ele>123</ele>
        <time>2023-12-10T10:00:38Z</time>
      </trkpt>
      <trkpt lat="48.54298" lon="1.9382">
        <ele>123</ele>
        <time>2023-12-10T10:00:39Z</time>
      </trkpt>
      <trkpt lat="48.54293" lon="1.93825">
        <ele>123</ele>
        <time>2023-12-10T10:00:40Z</time>
      </trkpt>
      <trkpt lat="48.54287" lon="1.93831">
        <ele>124</ele>
        <time>2023-12-10T10:00:41Z</time>
      </trkpt>
      <trkpt lat="48.54281" lon="1.93837">
        <ele>124.4</ele>
        <time>2023-12-10T10:00:42Z</time>
      </trkpt>
      <trkpt lat="48.54275" lon="1.93842">
        <ele>124.4</ele>
        <time>2023-12-10T10:00:43Z</time>
      </trkpt>
      <trkpt lat="48.54269" lon="1.93848">
        <ele>124.4</ele>
        <time>2023-12-10T10:00:44Z</time>
      </trkpt>
      <trkpt lat="48.54262" lon="1.93854">
        <ele>123.6</ele>
        <time>2023-12-10T10:00:45Z</time>
      </trkpt>
      <trkpt lat="48.54256" lon="1.9386">
        <ele>122.8</ele>
        <time>2023-12-10T10:00:46Z</time>
      </trkpt>
      <trkpt lat="48.54249" lon="1.93866">
        <ele>122.8</ele>
        <time>2023-12-10T10:00:47Z</time>
      </trkpt>
      <trkpt lat="48.54242" lon="1.93871">
        <ele>122.8</ele>
        <time>2023-12-10T10:00:48Z</time>
      </trkpt>
      <trkpt lat="48.54236" lon="1.93877">
        <ele>121.8</ele>
        <time>2023-12-10T10:00:49Z</time>
      </trkpt>
      <trkpt lat="48.54229" lon="1.93882">
        <ele>120.2</ele>
        <time>2023-12-10T10:00:50Z</time>
      </trkpt>
      <trkpt lat="48.54222" lon="1.93888">
        <ele>120.2</ele>
        <time>2023-12-10T10:00:51Z</time>
      </trkpt>
      <trkpt lat="48.54215" lon="1.93893">
        <ele>120.2</ele>
        <time>2023-12-10T10:00:52Z</time>
      </trkpt>
      <trkpt lat="48.54209" lon="1.93898">
        <ele>120.2</ele>
        <time>2023-12-10T10:00:53Z</time>
      </trkpt>
      <trkpt lat="48.54202" lon="1.93904">
        <ele>120.8</ele>
        <time>2023-12-10T10:00:54Z</time>
      </trkpt>
      <trkpt lat="48.54196" lon="1.93909">
        <ele>120.8</ele>
        <time>2023-12-10T10:00:55Z</time>
      </trkpt>
      <trkpt lat="48.5419" lon="1.93914">
        <ele>120.8</ele>
        <time>2023-12-10T10:00:56Z</time>
      </trkpt>
      <trkpt lat="48.54184" lon="1.93919">
        <ele>120.8</ele>
        <time>2023-12-10T10:00:57Z</time>
      </trkpt>
      <trkpt lat="48.54177" lon="1.93924">
        <ele>122.8</ele>
        <time>2023-12-10T10:00:58Z</time>
      </trkpt>
      <trkpt lat="48.54171" lon="1.93929">
        <ele>122.8</ele>
        <time>2023-12-10T10:00:59Z</time>
      </trkpt>
      <trkpt lat="48.54165" lon="1.93934">
        <ele>122.8</ele>
        <time>2023-12-10T10:01:00Z</time>
      </trkpt>
      <trkpt lat="48.54158" lon="1.93939">
        <ele>122.8</ele>
        <time>2023-12-10T10:01:01Z</time>
      </trkpt>
      <trkpt lat="48.54152" lon="1.93944">
        <ele>122.4</ele>
        <time>2023-12-10T10:01:02Z</time>
      </trkpt>
      <trkpt lat="48.54145" lon="1.93949">
        <ele>122.4</ele>
        <time>2023-12-10T10:01:03Z</time>
      </trkpt>
      <trkpt lat="48.54138" lon="1.93953">
        <ele>122.4</ele>
        <time>2023-12-10T10:01:04Z</time>
      </trkpt>
      <trkpt lat="48.54131" lon="1.93957">
        <ele>121.4</ele>
        <time>2023-12-10T10:01:05Z</time>
      </trkpt>
      <trkpt lat="48.54124" lon="1.93959">
        <ele>121</ele>
        <time>2023-12-10T10:01:06Z</time>
      </trkpt>
      <trkpt lat="48.54117" lon="1.93961">
        <ele>121</ele>
        <time>2023-12-10T10:01:07Z</time>
      </trkpt>
      <trkpt lat="48.5411" lon="1.93963">
        <ele>121</ele>
        <time>2023-12-10T10:01:08Z</time>
      </trkpt>
      <trkpt lat="48.54103" lon="1.93964">
        <ele>121</ele>
        <time>2023-12-10T10:01:09Z</time>
      </trkpt>
      <trkpt lat="48.54096" lon="1.93965">
        <ele>121</ele>
        <time>2023-12-10T10:01:10Z</time>
      </trkpt>
      <trkpt lat="48.54089" lon="1.93967">
        <ele>121</ele>
        <time>2023-12-10T10:01:11Z</time>
      </trkpt>
      <trkpt lat="48.54082" lon="1.93969">
        <ele>121</ele>
        <time>2023-12-10T10:01:12Z</time>
      </trkpt>
      <trkpt lat="48.54076" lon="1.93972">
        <ele>120</ele>
        <time>2023-12-10T10:01:13Z</time>
      </trkpt>
      <trkpt lat="48.54069" lon="1.93975">
        <ele>120.2</ele>
        <time>2023-12-10T10:01:14Z</time>
      </trkpt>
      <trkpt lat="48.54063" lon="1.93979">
        <ele>120.2</ele>
        <time>2023-12-10T10:01:15Z</time>
      </trkpt>
      <trkpt lat="48.54057" lon="1.93982">
        <ele>120.2</ele>
        <time>2023-12-10T10:01:16Z</time>
      </trkpt>
      <trkpt lat="48.54051" lon="1.93986">
        <ele>120.2</ele>
        <time>2023-12-10T10:01:17Z</time>
      </trkpt>
      <trkpt lat="48.54046" lon="1.9399">
        <ele>121.2</ele>
        <time>2023-12-10T10:01:18Z</time>
      </trkpt>
      <trkpt lat="48.5404" lon="1.93994">
        <ele>121.2</ele>
        <time>2023-12-10T10:01:19Z</time>
      </trkpt>
      <trkpt lat="48.54035" lon="1.93998">
        <ele>121.2</ele>
        <time>2023-12-10T10:01:20Z</time>
      </trkpt>
      <trkpt lat="48.5403" lon="1.94003">
        <ele>120.2</ele>
        <time>2023-12-10T10:01:21Z</time>
      </trkpt>
      <trkpt lat="48.54025" lon="1.94007">
        <ele>119.8</ele>
        <time>2023-12-10T10:01:22Z</time>
      </trkpt>
      <trkpt lat="48.5402" lon="1.94012">
        <ele>119.8</ele>
        <time>2023-12-10T10:01:23Z</time>
      </trkpt>
      <trkpt lat="48.54015" lon="1.94016">
        <ele>119.8</ele>
        <time>2023-12-10T10:01:24Z</time>
      </trkpt>
      <trkpt lat="48.5401" lon="1.94021">
        <ele>119.8</ele>
        <time>2023-12-10T10:01:25Z</time>
      </trkpt>
      <trkpt lat="48.54005" lon="1.94026">
        <ele>121</ele>
        <time>2023-12-10T10:01:26Z</time>
      </trkpt>
      <trkpt lat="48.54" lon="1.94031">
        <ele>121</ele>
        <time>2023-12-10T10:01:27Z</time>
      </trkpt>
      <trkpt lat="48.53996" lon="1.94036">
        <ele>121</ele>
        <time>2023-12-10T10:01:28Z</time>
      </trkpt>
      <trkpt lat="48.53991" lon="1.94042">
        <ele>121</ele>
        <time>2023-12-10T10:01:29Z</time>
      </trkpt>
      <trkpt lat="48.53986" lon="1.94047">
        <ele>121.6</ele>
        <time>2023-12-10T10:01:30Z</time>
      </trkpt>
      <trkpt lat="48.53982" lon="1.94053">
        <ele>121.6</ele>
        <time>2023-12-10T10:01:31Z</time>
      </trkpt>
      <trkpt lat="48.53977" lon="1.94059">
        <ele>121.6</ele>
        <time>2023-12-10T10:01:32Z</time>
      </trkpt>
      <trkpt lat="48.53973" lon="1.94065">
        <ele>121.6</ele>
        <time>2023-12-10T10:01:33Z</time>
      </trkpt>
      <trkpt lat="48.53968" lon="1.94071">
        <ele>121.4</ele>
        <time>2023-12-10T10:01:34Z</time>
      </trkpt>
      <trkpt lat="48.53964" lon="1.94078">
        <ele>121.4</ele>
        <time>2023-12-10T10:01:35Z</time>
      </trkpt>
      <trkpt lat="48.5396" lon="1.94085">
        <ele>121.4</ele>
        <time>2023-12-10T10:01:36Z</time>
      </trkpt>
      <trkpt lat="48.53956" lon="1.94092">
        <ele>120.4</ele>
        <time>2023-12-10T10:01:37Z</time>
      </trkpt>
      <trkpt lat="48.53952" lon="1.94099">
        <ele>119.2</ele>
        <time>2023-12-10T10:01:38Z</time>
      </trkpt>
      <trkpt lat="48.53947" lon="1.94105">
        <ele>119.2</ele>
        <time>2023-12-10T10:01:39Z</time>
      </trkpt>
      <trkpt lat="48.53943" lon="1.94112">
        <ele>119.2</ele>
        <time>2023-12-10T10:01:40Z</time>
      </trkpt>
      <trkpt lat="48.53939" lon="1.94119">
        <ele>120.2</ele>
        <time>2023-12-10T10:01:41Z</time>
      </trkpt>
      <trkpt lat="48.53935" lon="1.94125">
        <ele>120.8</ele>
        <time>2023-12-10T10:01:42Z</time>
      </trkpt>
      <trkpt lat="48.5393" lon="1.94131">
        <ele>120.8</ele>
        <time>2023-12-10T10:01:43Z</time>
      </trkpt>
      <trkpt lat="48.53926" lon="1.94137">
        <ele>120.8</ele>
        <time>2023-12-10T10:01:44Z</time>
      </trkpt>
      <trkpt lat="48.53921" lon="1.94143">
        <ele>120.8</ele>
        <time>2023-12-10T10:01:45Z</time>
      </trkpt>
      <trkpt lat="48.53916" lon="1.94149">
        <ele>122.4</ele>
        <time>2023-12-10T10:01:46Z</time>
      </trkpt>
      <trkpt lat="48.53911" lon="1.94154">
        <ele>122.4</ele>
        <time>2023-12-10T10:01:47Z</time>
      </trkpt>
      <trkpt lat="48.53905" lon="1.94159">
        <ele>122.4</ele>
        <time>2023-12-10T10:01:48Z</time>
      </trkpt>
      <trkpt lat="48.53899" lon="1.94164">
        <ele>121.4</ele>
        <time>2023-12-10T10:01:49Z</time>
      </trkpt>
      <trkpt lat="48.53894" lon="1.94169">
        <ele>122.2</ele>
        <time>2023-12-10T10:01:50Z</time>
      </trkpt>
      <trkpt lat="48.53888" lon="1.94173">
        <ele>122.2</ele>
        <time>2023-12-10T10:01:51Z</time>
      </trkpt>
      <trkpt lat="48.53882" lon="1.94178">
        <ele>122.2</ele>
        <time>2023-12-10T10:01:52Z</time>
      </trkpt>
      <trkpt lat="48.53876" lon="1.94182">
        <ele>121.2</ele>
        <time>2023-12-10T10:01:53Z</time>
      </trkpt>
      <trkpt lat="48.5387" lon="1.94186">
        <ele>120.8</ele>
        <time>2023-12-10T10:01:54Z</time>
      </trkpt>
      <trkpt lat="48.53864" lon="1.94191">
        <ele>120.8</ele>
        <time>2023-12-10T10:01:55Z</time>
      </trkpt>
      <trkpt lat="48.53858" lon="1.94195">
        <ele>120.8</ele>
        <time>2023-12-10T10:01:56Z</time>
      </trkpt>
      <trkpt lat="48.53852" lon="1.94199">
        <ele>120.8</ele>
        <time>2023-12-10T10:01:57Z</time>
      </trkpt>
      <trkpt lat="48.53847" lon="1.94204">
        <ele>121.2</ele>
        <time>2023-12-10T10:01:58Z</time>
      </trkpt>
      <trkpt lat="48.53841" lon="1.94208">
        <ele>121.2</ele>
        <time>2023-12-10T10:01:59Z</time>
      </trkpt>
      <trkpt lat="48.53835" lon="1.94213">
        <ele>121.2</ele>
        <time>2023-12-10T10:02:00Z</time>
      </trkpt>
      <trkpt lat="48.53829" lon="1.94218">
        <ele>120.8</ele>
        <time>2023-12-10T10:02:01Z</time>
      </trkpt>
      <trkpt lat="48.53824" lon="1.94223">
        <ele>119.8</ele>
        <time>2023-12-10T10:02:02Z</time>
      </trkpt>
      <trkpt lat="48.53818" lon="1.94228">
        <ele>119.8</ele>
        <time>2023-12-10T10:02:03Z</time>
      </trkpt>
      <trkpt lat="48.53812" lon="1.94233">
        <ele>119.8</ele>
        <time>2023-12-10T10:02:04Z</time>
      </trkpt>
      <trkpt lat="48.53807" lon="1.94239">
        <ele>120.2</ele>
        <time>2023-12-10T10:02:05Z</time>
      </trkpt>
      <trkpt lat="48.53801" lon="1.94245">
        <ele>120.2</ele>
        <time>2023-12-10T10:02:06Z</time>
      </trkpt>
      <trkpt lat="48.53796" lon="1.94251">
        <ele>120.2</ele>
        <time>2023-12-10T10:02:07Z</time>
      </trkpt>
      <trkpt lat="48.53791" lon="1.94257">
        <ele>120.2</ele>
        <time>2023-12-10T10:02:08Z</time>
      </trkpt>
      <trkpt lat="48.53785" lon="1.94264">
        <ele>121.2</ele>
        <time>2023-12-10T10:02:09Z</time>
      </trkpt>
      <trkpt lat="48.53781" lon="1.94271">
        <ele>122.4</ele>
        <time>2023-12-10T10:02:10Z</time>
      </trkpt>
      <trkpt lat="48.53776" lon="1.94279">
        <ele>122.4</ele>
        <time>2023-12-10T10:02:11Z</time>
      </trkpt>
      <trkpt lat="48.53771" lon="1.94287">
        <ele>122.4</ele>
        <time>2023-12-10T10:02:12Z</time>
      </trkpt>
      <trkpt lat="48.53767" lon="1.94295">
        <ele>121.4</ele>
        <time>2023-12-10T10:02:13Z</time>
      </trkpt>
      <trkpt lat="48.53762" lon="1.94304">
        <ele>121.4</ele>
        <time>2023-12-10T10:02:14Z</time>
      </trkpt>
      <trkpt lat="48.53757" lon="1.94313">
        <ele>121.4</ele>
        <time>2023-12-10T10:02:15Z</time>
      </trkpt>
      <trkpt lat="48.53752" lon="1.94322">
        <ele>121.4</ele>
        <time>2023-12-10T10:02:16Z</time>
      </trkpt>
      <trkpt lat="48.53748" lon="1.94331">
        <ele>121</ele>
        <time>2023-12-10T10:02:17Z</time>
      </trkpt>
      <trkpt lat="48.53743" lon="1.9434">
        <ele>120.4</ele>
        <time>2023-12-10T10:02:18Z</time>
      </trkpt>
      <trkpt lat="48.53738" lon="1.94348">
        <ele>120.4</ele>
        <time>2023-12-10T10:02:19Z</time>
      </trkpt>
      <trkpt lat="48.53733" lon="1.94356">
        <ele>120.4</ele>
        <time>2023-12-10T10:02:20Z</time>
      </trkpt>
      <trkpt lat="48.53728" lon="1.94364">
        <ele>120.4</ele>
        <time>2023-12-10T10:02:21Z</time>
      </trkpt>
      <trkpt lat="48.53724" lon="1.94372">
        <ele>121.2</ele>
        <time>2023-12-10T10:02:22Z</time>
      </trkpt>
      <trkpt lat="48.53719" lon="1.94379">
        <ele>121.2</ele>
        <time>2023-12-10T10:02:23Z</time>
      </trkpt>
      <trkpt lat="48.53715" lon="1.94386">
        <ele>121.2</ele>
        <time>2023-12-10T10:02:24Z</time>
      </trkpt>
      <trkpt lat="48.5371" lon="1.94393">
        <ele>122.2</ele>
        <time>2023-12-10T10:02:25Z</time>
      </trkpt>
      <trkpt lat="48.53706" lon="1.944">
        <ele>123</ele>
        <time>2023-12-10T10:02:26Z</time>
      </trkpt>
      <trkpt lat="48.53701" lon="1.94406">
        <ele>123</ele>
        <time>2023-12-10T10:02:27Z</time>
      </trkpt>
      <trkpt lat="48.53697" lon="1.94413">
        <ele>123</ele>
        <time>2023-12-10T10:02:28Z</time>
      </trkpt>
      <trkpt lat="48.53692" lon="1.9442">
        <ele>122</ele>
        <time>2023-12-10T10:02:29Z</time>
      </trkpt>
      <trkpt lat="48.53688" lon="1.94427">
        <ele>122.2</ele>
        <time>2023-12-10T10:02:30Z</time>
      </trkpt>
      <trkpt lat="48.53683" lon="1.94433">
        <ele>122.2</ele>
        <time>2023-12-10T10:02:31Z</time>
      </trkpt>
      <trkpt lat="48.53678" lon="1.9444">
        <ele>122.2</ele>
        <time>2023-12-10T10:02:32Z</time>
      </trkpt>
      <trkpt lat="48.53673" lon="1.94447">
        <ele>122.2</ele>
        <time>2023-12-10T10:02:33Z</time>
      </trkpt>
      <trkpt lat="48.53668" lon="1.94454">
        <ele>122.2</ele>
        <time>2023-12-10T10:02:34Z</time>
      </trkpt>
      <trkpt lat="48.53664" lon="1.9446">
        <ele>122.2</ele>
        <time>2023-12-10T10:02:35Z</time>
      </trkpt>
      <trkpt lat="48.53659" lon="1.94467">
        <ele>122.2</ele>
        <time>2023-12-10T10:02:36Z</time>
      </trkpt>
      <trkpt lat="48.53654" lon="1.94474">
        <ele>122.2</ele>
        <time>2023-12-10T10:02:37Z</time>
      </trkpt>
      <trkpt lat="48.5365" lon="1.94481">
        <ele>122.2</ele>
        <time>2023-12-10T10:02:38Z</time>
      </trkpt>
      <trkpt lat="48.53645" lon="1.94489">
        <ele>122.2</ele>
        <time>2023-12-10T10:02:39Z</time>
      </trkpt>
      <trkpt lat="48.53641" lon="1.94496">
        <ele>122.2</ele>
        <time>2023-12-10T10:02:40Z</time>
      </trkpt>
      <trkpt lat="48.53637" lon="1.94503">
        <ele>122.4</ele>
        <time>2023-12-10T10:02:41Z</time>
      </trkpt>
      <trkpt lat="48.53633" lon="1.94512">
        <ele>122.6</ele>
        <time>2023-12-10T10:02:42Z</time>
      </trkpt>
      <trkpt lat="48.5363" lon="1.9452">
        <ele>122.6</ele>
        <time>2023-12-10T10:02:43Z</time>
      </trkpt>
      <trkpt lat="48.53627" lon="1.94529">
        <ele>122.6</ele>
        <time>2023-12-10T10:02:44Z</time>
      </trkpt>
      <trkpt lat="48.53624" lon="1.94538">
        <ele>122.8</ele>
        <time>2023-12-10T10:02:45Z</time>
      </trkpt>
      <trkpt lat="48.53622" lon="1.94547">
        <ele>122.8</ele>
        <time>2023-12-10T10:02:46Z</time>
      </trkpt>
      <trkpt lat="48.5362" lon="1.94556">
        <ele>122.8</ele>
        <time>2023-12-10T10:02:47Z</time>
      </trkpt>
      <trkpt lat="48.53618" lon="1.94565">
        <ele>122.8</ele>
        <time>2023-12-10T10:02:48Z</time>
      </trkpt>
      <trkpt lat="48.53617" lon="1.94575">
        <ele>123</ele>
        <time>2023-12-10T10:02:49Z</time>
      </trkpt>
      <trkpt lat="48.53615" lon="1.94584">
        <ele>123.2</ele>
        <time>2023-12-10T10:02:50Z</time>
      </trkpt>
      <trkpt lat="48.53613" lon="1.94593">
        <ele>123.2</ele>
        <time>2023-12-10T10:02:51Z</time>
      </trkpt>
      <trkpt lat="48.53612" lon="1.94602">
        <ele>123.2</ele>
        <time>2023-12-10T10:02:52Z</time>
      </trkpt>
      <trkpt lat="48.5361" lon="1.94612">
        <ele>124</ele>
        <time>2023-12-10T10:02:53Z</time>
      </trkpt>
      <trkpt lat="48.53608" lon="1.94621">
        <ele>123.6</ele>
        <time>2023-12-10T10:02:54Z</time>
      </trkpt>
      <trkpt lat="48.53606" lon="1.9463">
        <ele>123.6</ele>
        <time>2023-12-10T10:02:55Z</time>
      </trkpt>
      <trkpt lat="48.53604" lon="1.9464">
        <ele>123.6</ele>
        <time>2023-12-10T10:02:56Z</time>
      </trkpt>
      <trkpt lat="48.53601" lon="1.9465">
        <ele>123.6</ele>
        <time>2023-12-10T10:02:57Z</time>
      </trkpt>
      <trkpt lat="48.53599" lon="1.94661">
        <ele>122.6</ele>
        <time>2023-12-10T10:02:58Z</time>
      </trkpt>
      <trkpt lat="48.53595" lon="1.94671">
        <ele>122.6</ele>
        <time>2023-12-10T10:02:59Z</time>
      </trkpt>
      <trkpt lat="48.53592" lon="1.94681">
        <ele>122.6</ele>
        <time>2023-12-10T10:03:00Z</time>
      </trkpt>
      <trkpt lat="48.53588" lon="1.94692">
        <ele>123</ele>
        <time>2023-12-10T10:03:01Z</time>
      </trkpt>
      <trkpt lat="48.53584" lon="1.94702">
        <ele>124</ele>
        <time>2023-12-10T10:03:02Z</time>
      </trkpt>
      <trkpt lat="48.5358" lon="1.94711">
        <ele>124</ele>
        <time>2023-12-10T10:03:03Z</time>
      </trkpt>
      <trkpt lat="48.53576" lon="1.94721">
        <ele>124</ele>
        <time>2023-12-10T10:03:04Z</time>
      </trkpt>
      <trkpt lat="48.53574" lon="1.9473">
        <ele>124.6</ele>
        <time>2023-12-10T10:03:05Z</time>
      </trkpt>
      <trkpt lat="48.53572" lon="1.94741">
        <ele>125</ele>
        <time>2023-12-10T10:03:06Z</time>
      </trkpt>
      <trkpt lat="48.53572" lon="1.94751">
        <ele>125</ele>
        <time>2023-12-10T10:03:07Z</time>
      </trkpt>
      <trkpt lat="48.53572" lon="1.94761">
        <ele>125</ele>
        <time>2023-12-10T10:03:08Z</time>
      </trkpt>
      <trkpt lat="48.53572" lon="1.94772">
        <ele>125.4</ele>
        <time>2023-12-10T10:03:09Z</time>
      </trkpt>
      <trkpt lat="48.53573" lon="1.94782">
        <ele>125.4</ele>
        <time>2023-12-10T10:03:10Z</time>
      </trkpt>
      <trkpt lat="48.53573" lon="1.94792">
        <ele>125.4</ele>
        <time>2023-12-10T10:03:11Z</time>
      </trkpt>
      <trkpt lat="48.53573" lon="1.94803">
        <ele>125.4</ele>
        <time>2023-12-10T10:03:12Z</time>
      </trkpt>
      <trkpt lat="48.53573" lon="1.94815">
        <ele>125.4</ele>
        <time>2023-12-10T10:03:13Z</time>
      </trkpt>
      <trkpt lat="48.53573" lon="1.94826">
        <ele>124</ele>
        <time>2023-12-10T10:03:14Z</time>
      </trkpt>
      <trkpt lat="48.53572" lon="1.94838">
        <ele>124</ele>
        <time>2023-12-10T10:03:15Z</time>
      </trkpt>
      <trkpt lat="48.53571" lon="1.9485">
        <ele>124</ele>
        <time>2023-12-10T10:03:16Z</time>
      </trkpt>
      <trkpt lat="48.53569" lon="1.94862">
        <ele>123</ele>
        <time>2023-12-10T10:03:17Z</time>
      </trkpt>
      <trkpt lat="48.53567" lon="1.94874">
        <ele>121.8</ele>
        <time>2023-12-10T10:03:18Z</time>
      </trkpt>
      <trkpt lat="48.53564" lon="1.94886">
        <ele>121.8</ele>
        <time>2023-12-10T10:03:19Z</time>
      </trkpt>
      <trkpt lat="48.53561" lon="1.94897">
        <ele>121.8</ele>
        <time>2023-12-10T10:03:20Z</time>
      </trkpt>
      <trkpt lat="48.53557" lon="1.94908">
        <ele>120.8</ele>
        <time>2023-12-10T10:03:21Z</time>
      </trkpt>
      <trkpt lat="48.53553" lon="1.94919">
        <ele>120</ele>
        <time>2023-12-10T10:03:22Z</time>
      </trkpt>
      <trkpt lat="48.53548" lon="1.9493">
        <ele>120</ele>
        <time>2023-12-10T10:03:23Z</time>
      </trkpt>
      <trkpt lat="48.53544" lon="1.9494">
        <ele>120</ele>
        <time>2023-12-10T10:03:24Z</time>
      </trkpt>
      <trkpt lat="48.5354" lon="1.94951">
        <ele>119.6</ele>
        <time>2023-12-10T10:03:25Z</time>
      </trkpt>
      <trkpt lat="48.53535" lon="1.94962">
        <ele>119.6</ele>
        <time>2023-12-10T10:03:26Z</time>
      </trkpt>
      <trkpt lat="48.53531" lon="1.94972">
        <ele>119.6</ele>
        <time>2023-12-10T10:03:27Z</time>
      </trkpt>
      <trkpt lat="48.53527" lon="1.94983">
        <ele>119.6</ele>
        <time>2023-12-10T10:03:28Z</time>
      </trkpt>
      <trkpt lat="48.53523" lon="1.94994">
        <ele>119.6</ele>
        <time>2023-12-10T10:03:29Z</time>
      </trkpt>
      <trkpt lat="48.53519" lon="1.95005">
        <ele>119.4</ele>
        <time>2023-12-10T10:03:30Z</time>
      </trkpt>
      <trkpt lat="48.53515" lon="1.95016">
        <ele>119.4</ele>
        <time>2023-12-10T10:03:31Z</time>
      </trkpt>
      <trkpt lat="48.53511" lon="1.95027">
        <ele>119.4</ele>
        <time>2023-12-10T10:03:32Z</time>
      </trkpt>
      <trkpt lat="48.53507" lon="1.95038">
        <ele>118.4</ele>
        <time>2023-12-10T10:03:33Z</time>
      </trkpt>
      <trkpt lat="48.53502" lon="1.95048">
        <ele>117.8</ele>
        <time>2023-12-10T10:03:34Z</time>
      </trkpt>
      <trkpt lat="48.53498" lon="1.95058">
        <ele>117.8</ele>
        <time>2023-12-10T10:03:35Z</time>
      </trkpt>
      <trkpt lat="48.53494" lon="1.95069">
        <ele>117.8</ele>
        <time>2023-12-10T10:03:36Z</time>
      </trkpt>
      <trkpt lat="48.5349" lon="1.95079">
        <ele>118.8</ele>
        <time>2023-12-10T10:03:37Z</time>
      </trkpt>
      <trkpt lat="48.53485" lon="1.95089">
        <ele>118.8</ele>
        <time>2023-12-10T10:03:38Z</time>
      </trkpt>
      <trkpt lat="48.53481" lon="1.95098">
        <ele>118.8</ele>
        <time>2023-12-10T10:03:39Z</time>
      </trkpt>
      <trkpt lat="48.53477" lon="1.95108">
        <ele>118.8</ele>
        <time>2023-12-10T10:03:40Z</time>
      </trkpt>
      <trkpt lat="48.53472" lon="1.95117">
        <ele>117.8</ele>
        <time>2023-12-10T10:03:41Z</time>
      </trkpt>
      <trkpt lat="48.53468" lon="1.95126">
        <ele>117.8</ele>
        <time>2023-12-10T10:03:42Z</time>
      </trkpt>
      <trkpt lat="48.53463" lon="1.95135">
        <ele>117.8</ele>
        <time>2023-12-10T10:03:43Z</time>
      </trkpt>
      <trkpt lat="48.53459" lon="1.95144">
        <ele>117.8</ele>
        <time>2023-12-10T10:03:44Z</time>
      </trkpt>
      <trkpt lat="48.53455" lon="1.95153">
        <ele>117.8</ele>
        <time>2023-12-10T10:03:45Z</time>
      </trkpt>
      <trkpt lat="48.53452" lon="1.95163">
        <ele>118.2</ele>
        <time>2023-12-10T10:03:46Z</time>
      </trkpt>
      <trkpt lat="48.53448" lon="1.95172">
        <ele>118.2</ele>
        <time>2023-12-10T10:03:47Z</time>
      </trkpt>
      <trkpt lat="48.53445" lon="1.95181">
        <ele>118.2</ele>
        <time>2023-12-10T10:03:48Z</time>
      </trkpt>
      <trkpt lat="48.53442" lon="1.95191">
        <ele>118.2</ele>
        <time>2023-12-10T10:03:49Z</time>
      </trkpt>
      <trkpt lat="48.53439" lon="1.952">
        <ele>118.8</ele>
        <time>2023-12-10T10:03:50Z</time>
      </trkpt>
      <trkpt lat="48.53437" lon="1.9521">
        <ele>118.8</ele>
        <time>2023-12-10T10:03:51Z</time>
      </trkpt>
      <trkpt lat="48.53434" lon="1.95219">
        <ele>118.8</ele>
        <time>2023-12-10T10:03:52Z</time>
      </trkpt>
      <trkpt lat="48.53431" lon="1.95229">
        <ele>118</ele>
        <time>2023-12-10T10:03:53Z</time>
      </trkpt>
      <trkpt lat="48.53428" lon="1.95239">
        <ele>118.8</ele>
        <time>2023-12-10T10:03:54Z</time>
      </trkpt>
      <trkpt lat="48.53425" lon="1.9525">
        <ele>118.8</ele>
        <time>2023-12-10T10:03:55Z</time>
      </trkpt>
      <trkpt lat="48.53422" lon="1.95261">
        <ele>118.8</ele>
        <time>2023-12-10T10:03:56Z</time>
      </trkpt>
      <trkpt lat="48.53418" lon="1.95272">
        <ele>118.8</ele>
        <time>2023-12-10T10:03:57Z</time>
      </trkpt>
      <trkpt lat="48.53415" lon="1.95283">
        <ele>119</ele>
        <time>2023-12-10T10:03:58Z</time>
      </trkpt>
      <trkpt lat="48.53411" lon="1.95294">
        <ele>119</ele>
        <time>2023-12-10T10:03:59Z</time>
      </trkpt>
      <trkpt lat="48.53408" lon="1.95305">
        <ele>119</ele>
        <time>2023-12-10T10:04:00Z</time>
      </trkpt>
      <trkpt lat="48.53405" lon="1.95316">
        <ele>119</ele>
        <time>2023-12-10T10:04:01Z</time>
      </trkpt>
      <trkpt lat="48.53401" lon="1.95326">
        <ele>118.8</ele>
        <time>2023-12-10T10:04:02Z</time>
      </trkpt>
      <trkpt lat="48.53397" lon="1.95337">
        <ele>118.8</ele>
        <time>2023-12-10T10:04:03Z</time>
      </trkpt>
      <trkpt lat="48.53394" lon="1.95347">
        <ele>118.8</ele>
        <time>2023-12-10T10:04:04Z</time>
      </trkpt>
      <trkpt lat="48.53391" lon="1.95357">
        <ele>119.2</ele>
        <time>2023-12-10T10:04:05Z</time>
      </trkpt>
      <trkpt lat="48.53387" lon="1.95367">
        <ele>119.8</ele>
        <time>2023-12-10T10:04:06Z</time>
      </trkpt>
      <trkpt lat="48.53384" lon="1.95377">
        <ele>119.8</ele>
        <time>2023-12-10T10:04:07Z</time>
      </trkpt>
      <trkpt lat="48.53381" lon="1.95387">
        <ele>119.8</ele>
        <time>2023-12-10T10:04:08Z</time>
      </trkpt>
      <trkpt lat="48.53378" lon="1.95397">
        <ele>119.8</ele>
        <time>2023-12-10T10:04:09Z</time>
      </trkpt>
      <trkpt lat="48.53375" lon="1.95406">
        <ele>120.2</ele>
        <time>2023-12-10T10:04:10Z</time>
      </trkpt>
      <trkpt lat="48.53372" lon="1.95415">
        <ele>120.2</ele>
        <time>2023-12-10T10:04:11Z</time>
      </trkpt>
      <trkpt lat="48.53369" lon="1.95424">
        <ele>120.2</ele>
        <time>2023-12-10T10:04:12Z</time>
      </trkpt>
      <trkpt lat="48.53365" lon="1.95432">
        <ele>120.2</ele>
        <time>2023-12-10T10:04:13Z</time>
      </trkpt>
      <trkpt lat="48.53362" lon="1.95439">
        <ele>120.2</ele>
        <time>2023-12-10T10:04:14Z</time>
      </trkpt>
      <trkpt lat="48.53359" lon="1.95447">
        <ele>120.2</ele>
        <time>2023-12-10T10:04:15Z</time>
      </trkpt>
      <trkpt lat="48.53355" lon="1.95456">
        <ele>120.2</ele>
        <time>2023-12-10T10:04:16Z</time>
      </trkpt>
      <trkpt lat="48.53352" lon="1.95466">
        <ele>120.2</ele>
        <time>2023-12-10T10:04:17Z</time>
      </trkpt>
      <trkpt lat="48.53349" lon="1.95477">
        <ele>120.4</ele>
        <time>2023-12-10T10:04:18Z</time>
      </trkpt>
      <trkpt lat="48.53345" lon="1.95486">
        <ele>120.4</ele>
        <time>2023-12-10T10:04:19Z</time>
      </trkpt>
      <trkpt lat="48.53342" lon="1.95496">
        <ele>120.4</ele>
        <time>2023-12-10T10:04:20Z</time>
      </trkpt>
      <trkpt lat="48.53339" lon="1.95506">
        <ele>120</ele>
        <time>2023-12-10T10:04:21Z</time>
      </trkpt>
      <trkpt lat="48.53336" lon="1.95515">
        <ele>119.4</ele>
        <time>2023-12-10T10:04:22Z</time>
      </trkpt>
      <trkpt lat="48.53333" lon="1.95522">
        <ele>119.4</ele>
        <time>2023-12-10T10:04:23Z</time>
      </trkpt>
      <trkpt lat="48.53329" lon="1.95529">
        <ele>119.4</ele>
        <time>2023-12-10T10:04:24Z</time>
      </trkpt>
      <trkpt lat="48.53326" lon="1.95538">
        <ele>118.6</ele>
        <time>2023-12-10T10:04:25Z</time>
      </trkpt>
      <trkpt lat="48.53323" lon="1.95547">
        <ele>119.2</ele>
        <time>2023-12-10T10:04:26Z</time>
      </trkpt>
      <trkpt lat="48.53321" lon="1.95555">
        <ele>119.2</ele>
        <time>2023-12-10T10:04:27Z</time>
      </trkpt>
      <trkpt lat="48.53319" lon="1.95561">
        <ele>119.2</ele>
        <time>2023-12-10T10:04:28Z</time>
      </trkpt>
      <trkpt lat="48.53317" lon="1.95569">
        <ele>119.2</ele>
        <time>2023-12-10T10:04:29Z</time>
      </trkpt>
      <trkpt lat="48.53314" lon="1.95578">
        <ele>118.4</ele>
        <time>2023-12-10T10:04:30Z</time>
      </trkpt>
      <trkpt lat="48.53312" lon="1.95587">
        <ele>118.4</ele>
        <time>2023-12-10T10:04:31Z</time>
      </trkpt>
      <trkpt lat="48.53309" lon="1.95597">
        <ele>118.4</ele>
        <time>2023-12-10T10:04:32Z</time>
      </trkpt>
      <trkpt lat="48.53306" lon="1.95606">
        <ele>117.4</ele>
        <time>2023-12-10T10:04:33Z</time>
      </trkpt>
      <trkpt lat="48.53302" lon="1.95616">
        <ele>114.4</ele>
        <time>2023-12-10T10:04:34Z</time>
      </trkpt>
      <trkpt lat="48.53299" lon="1.95626">
        <ele>114.4</ele>
        <time>2023-12-10T10:04:35Z</time>
      </trkpt>
      <trkpt lat="48.53296" lon="1.95635">
        <ele>114.4</ele>
        <time>2023-12-10T10:04:36Z</time>
      </trkpt>
      <trkpt lat="48.53292" lon="1.95645">
        <ele>114.4</ele>
        <time>2023-12-10T10:04:37Z</time>
      </trkpt>
      <trkpt lat="48.53289" lon="1.95656">
        <ele>113</ele>
        <time>2023-12-10T10:04:38Z</time>
      </trkpt>
      <trkpt lat="48.53286" lon="1.95665">
        <ele>113</ele>
        <time>2023-12-10T10:04:39Z</time>
      </trkpt>
      <trkpt lat="48.53284" lon="1.95675">
        <ele>113</ele>
        <time>2023-12-10T10:04:40Z</time>
      </trkpt>
      <trkpt lat="48.5328" lon="1.95686">
        <ele>112</ele>
        <time>2023-12-10T10:04:41Z</time>
      </trkpt>
      <trkpt lat="48.53277" lon="1.95697">
        <ele>112.4</ele>
        <time>2023-12-10T10:04:42Z</time>
      </trkpt>
      <trkpt lat="48.53273" lon="1.95709">
        <ele>112.4</ele>
        <time>2023-12-10T10:04:43Z</time>
      </trkpt>
      <trkpt lat="48.53268" lon="1.95721">
        <ele>112.4</ele>
        <time>2023-12-10T10:04:44Z</time>
      </trkpt>
      <trkpt lat="48.53263" lon="1.95733">
        <ele>111.4</ele>
        <time>2023-12-10T10:04:45Z</time>
      </trkpt>
      <trkpt lat="48.53259" lon="1.95745">
        <ele>109.8</ele>
        <time>2023-12-10T10:04:46Z</time>
      </trkpt>
      <trkpt lat="48.53254" lon="1.95758">
        <ele>109.8</ele>
        <time>2023-12-10T10:04:47Z</time>
      </trkpt>
      <trkpt lat="48.5325" lon="1.9577">
        <ele>109.8</ele>
        <time>2023-12-10T10:04:48Z</time>
      </trkpt>
      <trkpt lat="48.53245" lon="1.95782">
        <ele>109.8</ele>
        <time>2023-12-10T10:04:49Z</time>
      </trkpt>
      <trkpt lat="48.5324" lon="1.95795">
        <ele>109.4</ele>
        <time>2023-12-10T10:04:50Z</time>
      </trkpt>
      <trkpt lat="48.53236" lon="1.95807">
        <ele>109.4</ele>
        <time>2023-12-10T10:04:51Z</time>
      </trkpt>
      <trkpt lat="48.53231" lon="1.95818">
        <ele>109.4</ele>
        <time>2023-12-10T10:04:52Z</time>
      </trkpt>
      <trkpt lat="48.53227" lon="1.9583">
        <ele>109.8</ele>
        <time>2023-12-10T10:04:53Z</time>
      </trkpt>
      <trkpt lat="48.53223" lon="1.95842">
        <ele>108.2</ele>
        <time>2023-12-10T10:04:54Z</time>
      </trkpt>
      <trkpt lat="48.53219" lon="1.95853">
        <ele>108.2</ele>
        <time>2023-12-10T10:04:55Z</time>
      </trkpt>
      <trkpt lat="48.53215" lon="1.95864">
        <ele>108.2</ele>
        <time>2023-12-10T10:04:56Z</time>
      </trkpt>
      <trkpt lat="48.53211" lon="1.95875">
        <ele>108.4</ele>
        <time>2023-12-10T10:04:57Z</time>
      </trkpt>
      <trkpt lat="48.53207" lon="1.95886">
        <ele>108</ele>
        <time>2023-12-10T10:04:58Z</time>
      </trkpt>
      <trkpt lat="48.53203" lon="1.95897">
        <ele>108</ele>
        <time>2023-12-10T10:04:59Z</time>
      </trkpt>
      <trkpt lat="48.53199" lon="1.95907">
        <ele>108</ele>
        <time>2023-12-10T10:05:00Z</time>
      </trkpt>
      <trkpt lat="48.53195" lon="1.95917">
        <ele>108</ele>
        <time>2023-12-10T10:05:01Z</time>
      </trkpt>
      <trkpt lat="48.5319" lon="1.95927">
        <ele>107.4</ele>
        <time>2023-12-10T10:05:02Z</time>
      </trkpt>
      <trkpt lat="48.53185" lon="1.95936">
        <ele>107.4</ele>
        <time>2023-12-10T10:05:03Z</time>
      </trkpt>
      <trkpt lat="48.5318" lon="1.95946">
        <ele>107.4</ele>
        <time>2023-12-10T10:05:04Z</time>
      </trkpt>
      <trkpt lat="48.53174" lon="1.95955">
        <ele>107.4</ele>
        <time>2023-12-10T10:05:05Z</time>
      </trkpt>
      <trkpt lat="48.53168" lon="1.95963">
        <ele>105.6</ele>
        <time>2023-12-10T10:05:06Z</time>
      </trkpt>
      <trkpt lat="48.53162" lon="1.9597">
        <ele>105.6</ele>
        <time>2023-12-10T10:05:07Z</time>
      </trkpt>
      <trkpt lat="48.53155" lon="1.95978">
        <ele>105.6</ele>
        <time>2023-12-10T10:05:08Z</time>
      </trkpt>
      <trkpt lat="48.53149" lon="1.95985">
        <ele>104.6</ele>
        <time>2023-12-10T10:05:09Z</time>
      </trkpt>
      <trkpt lat="48.53142" lon="1.95993">
        <ele>104.6</ele>
        <time>2023-12-10T10:05:10Z</time>
      </trkpt>
      <trkpt lat="48.53136" lon="1.96">
        <ele>104.6</ele>
        <time>2023-12-10T10:05:11Z</time>
      </trkpt>
      <trkpt lat="48.5313" lon="1.96007">
        <ele>104.6</ele>
        <time>2023-12-10T10:05:12Z</time>
      </trkpt>
      <trkpt lat="48.53123" lon="1.96013">
        <ele>104.6</ele>
        <time>2023-12-10T10:05:13Z</time>
      </trkpt>
      <trkpt lat="48.53117" lon="1.96018">
        <ele>106.6</ele>
        <time>2023-12-10T10:05:14Z</time>
      </trkpt>
      <trkpt lat="48.53113" lon="1.96021">
        <ele>106.6</ele>
        <time>2023-12-10T10:05:15Z</time>
      </trkpt>
      <trkpt lat="48.53109" lon="1.96022">
        <ele>106.6</ele>
        <time>2023-12-10T10:05:16Z</time>
      </trkpt>
      <trkpt lat="48.53106" lon="1.96023">
        <ele>107.2</ele>
        <time>2023-12-10T10:05:17Z</time>
      </trkpt>
      <trkpt lat="48.53104" lon="1.96024">
        <ele>107.4</ele>
        <time>2023-12-10T10:05:18Z</time>
      </trkpt>
      <trkpt lat="48.53102" lon="1.96026">
        <ele>107.4</ele>
        <time>2023-12-10T10:05:19Z</time>
      </trkpt>
      <trkpt lat="48.53101" lon="1.96029">
        <ele>107.4</ele>
        <time>2023-12-10T10:05:20Z</time>
      </trkpt>
      <trkpt lat="48.531" lon="1.96033">
        <ele>107.4</ele>
        <time>2023-12-10T10:05:21Z</time>
      </trkpt>
      <trkpt lat="48.53099" lon="1.96038">
        <ele>106.8</ele>
        <time>2023-12-10T10:05:22Z</time>
      </trkpt>
      <trkpt lat="48.53098" lon="1.96044">
        <ele>106.8</ele>
        <time>2023-12-10T10:05:23Z</time>
      </trkpt>
      <trkpt lat="48.53098" lon="1.96052">
        <ele>106.8</ele>
        <time>2023-12-10T10:05:24Z</time>
      </trkpt>
      <trkpt lat="48.53098" lon="1.9606">
        <ele>105.8</ele>
        <time>2023-12-10T10:05:25Z</time>
      </trkpt>
      <trkpt lat="48.53098" lon="1.96069">
        <ele>104.4</ele>
        <time>2023-12-10T10:05:26Z</time>
      </trkpt>
      <trkpt lat="48.53099" lon="1.96079">
        <ele>104.4</ele>
        <time>2023-12-10T10:05:27Z</time>
      </trkpt>
      <trkpt lat="48.53099" lon="1.9609">
        <ele>104.4</ele>
        <time>2023-12-10T10:05:28Z</time>
      </trkpt>
      <trkpt lat="48.53099" lon="1.96102">
        <ele>104.4</ele>
        <time>2023-12-10T10:05:29Z</time>
      </trkpt>
      <trkpt lat="48.531" lon="1.96114">
        <ele>103.4</ele>
        <time>2023-12-10T10:05:30Z</time>
      </trkpt>
      <trkpt lat="48.531" lon="1.96126">
        <ele>103.4</ele>
        <time>2023-12-10T10:05:31Z</time>
      </trkpt>
      <trkpt lat="48.531" lon="1.96137">
        <ele>103.4</ele>
        <time>2023-12-10T10:05:32Z</time>
      </trkpt>
      <trkpt lat="48.531" lon="1.96149">
        <ele>103.4</ele>
        <time>2023-12-10T10:05:33Z</time>
      </trkpt>
      <trkpt lat="48.53101" lon="1.9616">
        <ele>102.2</ele>
        <time>2023-12-10T10:05:34Z</time>
      </trkpt>
      <trkpt lat="48.53101" lon="1.96172">
        <ele>102.2</ele>
        <time>2023-12-10T10:05:35Z</time>
      </trkpt>
      <trkpt lat="48.53101" lon="1.96183">
        <ele>102.2</ele>
        <time>2023-12-10T10:05:36Z</time>
      </trkpt>
      <trkpt lat="48.53102" lon="1.96194">
        <ele>102.2</ele>
        <time>2023-12-10T10:05:37Z</time>
      </trkpt>
      <trkpt lat="48.53102" lon="1.96205">
        <ele>102.8</ele>
        <time>2023-12-10T10:05:38Z</time>
      </trkpt>
      <trkpt lat="48.53102" lon="1.96217">
        <ele>102.8</ele>
        <time>2023-12-10T10:05:39Z</time>
      </trkpt>
      <trkpt lat="48.53102" lon="1.96227">
        <ele>102.8</ele>
        <time>2023-12-10T10:05:40Z</time>
      </trkpt>
      <trkpt lat="48.531" lon="1.96236">
        <ele>103.4</ele>
        <time>2023-12-10T10:05:41Z</time>
      </trkpt>
      <trkpt lat="48.53098" lon="1.96243">
        <ele>103.4</ele>
        <time>2023-12-10T10:05:42Z</time>
      </trkpt>
      <trkpt lat="48.53094" lon="1.96247">
        <ele>103.4</ele>
        <time>2023-12-10T10:05:43Z</time>
      </trkpt>
      <trkpt lat="48.53089" lon="1.96249">
        <ele>103.4</ele>
        <time>2023-12-10T10:05:44Z</time>
      </trkpt>
      <trkpt lat="48.53084" lon="1.96249">
        <ele>102.4</ele>
        <time>2023-12-10T10:05:45Z</time>
      </trkpt>
      <trkpt lat="48.53079" lon="1.96247">
        <ele>102.4</ele>
        <time>2023-12-10T10:05:46Z</time>
      </trkpt>
      <trkpt lat="48.53073" lon="1.96245">
        <ele>102.4</ele>
        <time>2023-12-10T10:05:47Z</time>
      </trkpt>
      <trkpt lat="48.53067" lon="1.96243">
        <ele>102.4</ele>
        <time>2023-12-10T10:05:48Z</time>
      </trkpt>
      <trkpt lat="48.53061" lon="1.96241">
        <ele>101.4</ele>
        <time>2023-12-10T10:05:49Z</time>
      </trkpt>
      <trkpt lat="48.53054" lon="1.96239">
        <ele>101.8</ele>
        <time>2023-12-10T10:05:50Z</time>
      </trkpt>
      <trkpt lat="48.53048" lon="1.96236">
        <ele>101.8</ele>
        <time>2023-12-10T10:05:51Z</time>
      </trkpt>
      <trkpt lat="48.53041" lon="1.96234">
        <ele>101.8</ele>
        <time>2023-12-10T10:05:52Z</time>
      </trkpt>
      <trkpt lat="48.53035" lon="1.96231">
        <ele>102</ele>
        <time>2023-12-10T10:05:53Z</time>
      </trkpt>
      <trkpt lat="48.53029" lon="1.96229">
        <ele>102.2</ele>
        <time>2023-12-10T10:05:54Z</time>
      </trkpt>
      <trkpt lat="48.53023" lon="1.96227">
        <ele>102.2</ele>
        <time>2023-12-10T10:05:55Z</time>
      </trkpt>
      <trkpt lat="48.53017" lon="1.96224">
        <ele>102.2</ele>
        <time>2023-12-10T10:05:56Z</time>
      </trkpt>
      <trkpt lat="48.53011" lon="1.96222">
        <ele>102.2</ele>
        <time>2023-12-10T10:05:57Z</time>
      </trkpt>
      <trkpt lat="48.53005" lon="1.9622">
        <ele>104</ele>
        <time>2023-12-10T10:05:58Z</time>
      </trkpt>
      <trkpt lat="48.52999" lon="1.96218">
        <ele>104</ele>
        <time>2023-12-10T10:05:59Z</time>
      </trkpt>
      <trkpt lat="48.52993" lon="1.96215">
        <ele>104</ele>
        <time>2023-12-10T10:06:00Z</time>
      </trkpt>
      <trkpt lat="48.52987" lon="1.96213">
        <ele>104.2</ele>
        <time>2023-12-10T10:06:01Z</time>
      </trkpt>
      <trkpt lat="48.52981" lon="1.96211">
        <ele>104</ele>
        <time>2023-12-10T10:06:02Z</time>
      </trkpt>
      <trkpt lat="48.52975" lon="1.96209">
        <ele>104</ele>
        <time>2023-12-10T10:06:03Z</time>
      </trkpt>
      <trkpt lat="48.52969" lon="1.96206">
        <ele>104</ele>
        <time>2023-12-10T10:06:04Z</time>
      </trkpt>
      <trkpt lat="48.52964" lon="1.96204">
        <ele>104</ele>
        <time>2023-12-10T10:06:05Z</time>
      </trkpt>
      <trkpt lat="48.52958" lon="1.96202">
        <ele>105.2</ele>
        <time>2023-12-10T10:06:06Z</time>
      </trkpt>
      <trkpt lat="48.52952" lon="1.96199">
        <ele>105.2</ele>
        <time>2023-12-10T10:06:07Z</time>
      </trkpt>
      <trkpt lat="48.52946" lon="1.96198">
        <ele>105.2</ele>
        <time>2023-12-10T10:06:08Z</time>
      </trkpt>
      <trkpt lat="48.5294" lon="1.96196">
        <ele>104.6</ele>
        <time>2023-12-10T10:06:09Z</time>
      </trkpt>
      <trkpt lat="48.52934" lon="1.96193">
        <ele>104</ele>
        <time>2023-12-10T10:06:10Z</time>
      </trkpt>
      <trkpt lat="48.52928" lon="1.96192">
        <ele>104</ele>
        <time>2023-12-10T10:06:11Z</time>
      </trkpt>
      <trkpt lat="48.52922" lon="1.9619">
        <ele>104</ele>
        <time>2023-12-10T10:06:12Z</time>
      </trkpt>
      <trkpt lat="48.52916" lon="1.9619">
        <ele>104</ele>
        <time>2023-12-10T10:06:13Z</time>
      </trkpt>
      <trkpt lat="48.5291" lon="1.9619">
        <ele>103.2</ele>
        <time>2023-12-10T10:06:14Z</time>
      </trkpt>
      <trkpt lat="48.52905" lon="1.96191">
        <ele>103.2</ele>
        <time>2023-12-10T10:06:15Z</time>
      </trkpt>
      <trkpt lat="48.52899" lon="1.96194">
        <ele>103.2</ele>
        <time>2023-12-10T10:06:16Z</time>
      </trkpt>
      <trkpt lat="48.52893" lon="1.96198">
        <ele>104.2</ele>
        <time>2023-12-10T10:06:17Z</time>
      </trkpt>
      <trkpt lat="48.52889" lon="1.96204">
        <ele>108</ele>
        <time>2023-12-10T10:06:18Z</time>
      </trkpt>
      <trkpt lat="48.52884" lon="1.9621">
        <ele>108</ele>
        <time>2023-12-10T10:06:19Z</time>
      </trkpt>
      <trkpt lat="48.5288" lon="1.96218">
        <ele>108</ele>
        <time>2023-12-10T10:06:20Z</time>
      </trkpt>
      <trkpt lat="48.52877" lon="1.96227">
        <ele>107</ele>
        <time>2023-12-10T10:06:21Z</time>
      </trkpt>
      <trkpt lat="48.52875" lon="1.96236">
        <ele>104.6</ele>
        <time>2023-12-10T10:06:22Z</time>
      </trkpt>
      <trkpt lat="48.52874" lon="1.96246">
        <ele>104.6</ele>
        <time>2023-12-10T10:06:23Z</time>
      </trkpt>
      <trkpt lat="48.52872" lon="1.96256">
        <ele>104.6</ele>
        <time>2023-12-10T10:06:24Z</time>
      </trkpt>
      <trkpt lat="48.52871" lon="1.96266">
        <ele>104.2</ele>
        <time>2023-12-10T10:06:25Z</time>
      </trkpt>
      <trkpt lat="48.5287" lon="1.96277">
        <ele>103.8</ele>
        <time>2023-12-10T10:06:26Z</time>
      </trkpt>
      <trkpt lat="48.52869" lon="1.96287">
        <ele>103.8</ele>
        <time>2023-12-10T10:06:27Z</time>
      </trkpt>
      <trkpt lat="48.52868" lon="1.96298">
        <ele>103.8</ele>
        <time>2023-12-10T10:06:28Z</time>
      </trkpt>
      <trkpt lat="48.52867" lon="1.96308">
        <ele>103.8</ele>
        <time>2023-12-10T10:06:29Z</time>
      </trkpt>
      <trkpt lat="48.52865" lon="1.96319">
        <ele>103.6</ele>
        <time>2023-12-10T10:06:30Z</time>
      </trkpt>
      <trkpt lat="48.52864" lon="1.9633">
        <ele>103.6</ele>
        <time>2023-12-10T10:06:31Z</time>
      </trkpt>
      <trkpt lat="48.52863" lon="1.96341">
        <ele>103.6</ele>
        <time>2023-12-10T10:06:32Z</time>
      </trkpt>
      <trkpt lat="48.52861" lon="1.96351">
        <ele>104.2</ele>
        <time>2023-12-10T10:06:33Z</time>
      </trkpt>
      <trkpt lat="48.5286" lon="1.96362">
        <ele>103.8</ele>
        <time>2023-12-10T10:06:34Z</time>
      </trkpt>
      <trkpt lat="48.52858" lon="1.96373">
        <ele>103.8</ele>
        <time>2023-12-10T10:06:35Z</time>
      </trkpt>
      <trkpt lat="48.52857" lon="1.96385">
        <ele>103.8</ele>
        <time>2023-12-10T10:06:36Z</time>
      </trkpt>
      <trkpt lat="48.52856" lon="1.96396">
        <ele>103.8</ele>
        <time>2023-12-10T10:06:37Z</time>
      </trkpt>
      <trkpt lat="48.52855" lon="1.96407">
        <ele>103.6</ele>
        <time>2023-12-10T10:06:38Z</time>
      </trkpt>
      <trkpt lat="48.52854" lon="1.96419">
        <ele>103.6</ele>
        <time>2023-12-10T10:06:39Z</time>
      </trkpt>
      <trkpt lat="48.52853" lon="1.9643">
        <ele>103.6</ele>
        <time>2023-12-10T10:06:40Z</time>
      </trkpt>
      <trkpt lat="48.52852" lon="1.96442">
        <ele>102.6</ele>
        <time>2023-12-10T10:06:41Z</time>
      </trkpt>
      <trkpt lat="48.52851" lon="1.96453">
        <ele>103.2</ele>
        <time>2023-12-10T10:06:42Z</time>
      </trkpt>
      <trkpt lat="48.5285" lon="1.96465">
        <ele>103.2</ele>
        <time>2023-12-10T10:06:43Z</time>
      </trkpt>
      <trkpt lat="48.5285" lon="1.96476">
        <ele>103.2</ele>
        <time>2023-12-10T10:06:44Z</time>
      </trkpt>
      <trkpt lat="48.5285" lon="1.96488">
        <ele>103.8</ele>
        <time>2023-12-10T10:06:45Z</time>
      </trkpt>
      <trkpt lat="48.5285" lon="1.96499">
        <ele>103.4</ele>
        <time>2023-12-10T10:06:46Z</time>
      </trkpt>
      <trkpt lat="48.5285" lon="1.96511">
        <ele>103.4</ele>
        <time>2023-12-10T10:06:47Z</time>
      </trkpt>
      <trkpt lat="48.52851" lon="1.96523">
        <ele>103.4</ele>
        <time>2023-12-10T10:06:48Z</time>
      </trkpt>
      <trkpt lat="48.52851" lon="1.96534">
        <ele>103.4</ele>
        <time>2023-12-10T10:06:49Z</time>
      </trkpt>
      <trkpt lat="48.52852" lon="1.96546">
        <ele>102.4</ele>
        <time>2023-12-10T10:06:50Z</time>
      </trkpt>
      <trkpt lat="48.52852" lon="1.96557">
        <ele>102.4</ele>
        <time>2023-12-10T10:06:51Z</time>
      </trkpt>
      <trkpt lat="48.52854" lon="1.96568">
        <ele>102.4</ele>
        <time>2023-12-10T10:06:52Z</time>
      </trkpt>
      <trkpt lat="48.52855" lon="1.96579">
        <ele>103.4</ele>
        <time>2023-12-10T10:06:53Z</time>
      </trkpt>
      <trkpt lat="48.52856" lon="1.9659">
        <ele>103.4</ele>
        <time>2023-12-10T10:06:54Z</time>
      </trkpt>
      <trkpt lat="48.52856" lon="1.966">
        <ele>103.4</ele>
        <time>2023-12-10T10:06:55Z</time>
      </trkpt>
      <trkpt lat="48.52856" lon="1.96611">
        <ele>103.4</ele>
        <time>2023-12-10T10:06:56Z</time>
      </trkpt>
      <trkpt lat="48.52857" lon="1.96621">
        <ele>104</ele>
        <time>2023-12-10T10:06:57Z</time>
      </trkpt>
      <trkpt lat="48.52858" lon="1.96632">
        <ele>104.2</ele>
        <time>2023-12-10T10:06:58Z</time>
      </trkpt>
      <trkpt lat="48.52858" lon="1.96643">
        <ele>104.2</ele>
        <time>2023-12-10T10:06:59Z</time>
      </trkpt>
      <trkpt lat="48.52858" lon="1.96654">
        <ele>104.2</ele>
        <time>2023-12-10T10:07:00Z</time>
      </trkpt>
      <trkpt lat="48.52858" lon="1.96664">
        <ele>105</ele>
        <time>2023-12-10T10:07:01Z</time>
      </trkpt>
      <trkpt lat="48.52858" lon="1.96675">
        <ele>105.2</ele>
        <time>2023-12-10T10:07:02Z</time>
      </trkpt>
      <trkpt lat="48.52857" lon="1.96686">
        <ele>105.2</ele>
        <time>2023-12-10T10:07:03Z</time>
      </trkpt>
      <trkpt lat="48.52856" lon="1.96697">
        <ele>105.2</ele>
        <time>2023-12-10T10:07:04Z</time>
      </trkpt>
      <trkpt lat="48.52854" lon="1.96708">
        <ele>105.2</ele>
        <time>2023-12-10T10:07:05Z</time>
      </trkpt>
      <trkpt lat="48.52852" lon="1.96719">
        <ele>105.8</ele>
        <time>2023-12-10T10:07:06Z</time>
      </trkpt>
      <trkpt lat="48.5285" lon="1.9673">
        <ele>105.8</ele>
        <time>2023-12-10T10:07:07Z</time>
      </trkpt>
      <trkpt lat="48.52848" lon="1.9674">
        <ele>105.8</ele>
        <time>2023-12-10T10:07:08Z</time>
      </trkpt>
      <trkpt lat="48.52845" lon="1.96751">
        <ele>105.8</ele>
        <time>2023-12-10T10:07:09Z</time>
      </trkpt>
      <trkpt lat="48.52843" lon="1.96761">
        <ele>106.2</ele>
        <time>2023-12-10T10:07:10Z</time>
      </trkpt>
      <trkpt lat="48.5284" lon="1.96771">
        <ele>106.2</ele>
        <time>2023-12-10T10:07:11Z</time>
      </trkpt>
      <trkpt lat="48.52838" lon="1.96781">
        <ele>106.2</ele>
        <time>2023-12-10T10:07:12Z</time>
      </trkpt>
      <trkpt lat="48.52835" lon="1.96791">
        <ele>106.2</ele>
        <time>2023-12-10T10:07:13Z</time>
      </trkpt>
      <trkpt lat="48.52833" lon="1.96801">
        <ele>106.6</ele>
        <time>2023-12-10T10:07:14Z</time>
      </trkpt>
      <trkpt lat="48.52831" lon="1.96811">
        <ele>106.6</ele>
        <time>2023-12-10T10:07:15Z</time>
      </trkpt>
      <trkpt lat="48.52828" lon="1.96821">
        <ele>106.6</ele>
        <time>2023-12-10T10:07:16Z</time>
      </trkpt>
      <trkpt lat="48.52826" lon="1.96831">
        <ele>106.6</ele>
        <time>2023-12-10T10:07:17Z</time>
      </trkpt>
      <trkpt lat="48.52823" lon="1.96841">
        <ele>106.6</ele>
        <time>2023-12-10T10:07:18Z</time>
      </trkpt>
      <trkpt lat="48.52821" lon="1.96851">
        <ele>106.6</ele>
        <time>2023-12-10T10:07:19Z</time>
      </trkpt>
      <trkpt lat="48.52818" lon="1.96861">
        <ele>106.6</ele>
        <time>2023-12-10T10:07:20Z</time>
      </trkpt>
      <trkpt lat="48.52815" lon="1.96871">
        <ele>106.6</ele>
        <time>2023-12-10T10:07:21Z</time>
      </trkpt>
      <trkpt lat="48.52813" lon="1.96881">
        <ele>107</ele>
        <time>2023-12-10T10:07:22Z</time>
      </trkpt>
      <trkpt lat="48.5281" lon="1.96891">
        <ele>107</ele>
        <time>2023-12-10T10:07:23Z</time>
      </trkpt>
      <trkpt lat="48.52808" lon="1.969">
        <ele>107</ele>
        <time>2023-12-10T10:07:24Z</time>
      </trkpt>
      <trkpt lat="48.52805" lon="1.9691">
        <ele>107</ele>
        <time>2023-12-10T10:07:25Z</time>
      </trkpt>
      <trkpt lat="48.52803" lon="1.9692">
        <ele>107.2</ele>
        <time>2023-12-10T10:07:26Z</time>
      </trkpt>
      <trkpt lat="48.528" lon="1.9693">
        <ele>107.2</ele>
        <time>2023-12-10T10:07:27Z</time>
      </trkpt>
      <trkpt lat="48.52798" lon="1.9694">
        <ele>107.2</ele>
        <time>2023-12-10T10:07:28Z</time>
      </trkpt>
      <trkpt lat="48.52795" lon="1.9695">
        <ele>107.2</ele>
        <time>2023-12-10T10:07:29Z</time>
      </trkpt>
      <trkpt lat="48.52793" lon="1.9696">
        <ele>107.6</ele>
        <time>2023-12-10T10:07:30Z</time>
      </trkpt>
      <trkpt lat="48.52791" lon="1.9697">
        <ele>107.6</ele>
        <time>2023-12-10T10:07:31Z</time>
      </trkpt>
      <trkpt lat="48.52789" lon="1.96981">
        <ele>107.6</ele>
        <time>2023-12-10T10:07:32Z</time>
      </trkpt>
      <trkpt lat="48.52787" lon="1.96992">
        <ele>107.6</ele>
        <time>2023-12-10T10:07:33Z</time>
      </trkpt>
      <trkpt lat="48.52786" lon="1.97002">
        <ele>108.2</ele>
        <time>2023-12-10T10:07:34Z</time>
      </trkpt>
      <trkpt lat="48.52785" lon="1.97013">
        <ele>108.2</ele>
        <time>2023-12-10T10:07:35Z</time>
      </trkpt>
      <trkpt lat="48.52783" lon="1.97024">
        <ele>108.2</ele>
        <time>2023-12-10T10:07:36Z</time>
      </trkpt>
      <trkpt lat="48.52782" lon="1.97034">
        <ele>107.4</ele>
        <time>2023-12-10T10:07:37Z</time>
      </trkpt>
      <trkpt lat="48.52782" lon="1.97045">
        <ele>107.4</ele>
        <time>2023-12-10T10:07:38Z</time>
      </trkpt>
      <trkpt lat="48.52781" lon="1.97056">
        <ele>107.4</ele>
        <time>2023-12-10T10:07:39Z</time>
      </trkpt>
      <trkpt lat="48.5278" lon="1.97067">
        <ele>107.4</ele>
        <time>2023-12-10T10:07:40Z</time>
      </trkpt>
      <trkpt lat="48.5278" lon="1.97077">
        <ele>108.2</ele>
        <time>2023-12-10T10:07:41Z</time>
      </trkpt>
      <trkpt lat="48.52779" lon="1.97088">
        <ele>107.6</ele>
        <time>2023-12-10T10:07:42Z</time>
      </trkpt>
      <trkpt lat="48.52779" lon="1.97099">
        <ele>107.6</ele>
        <time>2023-12-10T10:07:43Z</time>
      </trkpt>
      <trkpt lat="48.52779" lon="1.9711">
        <ele>107.6</ele>
        <time>2023-12-10T10:07:44Z</time>
      </trkpt>
      <trkpt lat="48.52779" lon="1.97122">
        <ele>107.6</ele>
        <time>2023-12-10T10:07:45Z</time>
      </trkpt>
      <trkpt lat="48.52779" lon="1.97133">
        <ele>108</ele>
        <time>2023-12-10T10:07:46Z</time>
      </trkpt>
      <trkpt lat="48.52779" lon="1.97145">
        <ele>108</ele>
        <time>2023-12-10T10:07:47Z</time>
      </trkpt>
      <trkpt lat="48.52778" lon="1.97157">
        <ele>108</ele>
        <time>2023-12-10T10:07:48Z</time>
      </trkpt>
      <trkpt lat="48.52778" lon="1.9717">
        <ele>107</ele>
        <time>2023-12-10T10:07:49Z</time>
      </trkpt>
      <trkpt lat="48.52776" lon="1.97182">
        <ele>106.2</ele>
        <time>2023-12-10T10:07:50Z</time>
      </trkpt>
      <trkpt lat="48.52774" lon="1.97194">
        <ele>106.2</ele>
        <time>2023-12-10T10:07:51Z</time>
      </trkpt>
      <trkpt lat="48.52771" lon="1.97206">
        <ele>106.2</ele>
        <time>2023-12-10T10:07:52Z</time>
      </trkpt>
      <trkpt lat="48.52767" lon="1.97217">
        <ele>106.2</ele>
        <time>2023-12-10T10:07:53Z</time>
      </trkpt>
      <trkpt lat="48.52762" lon="1.97227">
        <ele>105.8</ele>
        <time>2023-12-10T10:07:54Z</time>
      </trkpt>
      <trkpt lat="48.52757" lon="1.97236">
        <ele>105.8</ele>
        <time>2023-12-10T10:07:55Z</time>
      </trkpt>
      <trkpt lat="48.52752" lon="1.97245">
        <ele>105.8</ele>
        <time>2023-12-10T10:07:56Z</time>
      </trkpt>
      <trkpt lat="48.52747" lon="1.97255">
        <ele>106.8</ele>
        <time>2023-12-10T10:07:57Z</time>
      </trkpt>
      <trkpt lat="48.52743" lon="1.97264">
        <ele>107</ele>
        <time>2023-12-10T10:07:58Z</time>
      </trkpt>
      <trkpt lat="48.52739" lon="1.97274">
        <ele>107</ele>
        <time>2023-12-10T10:07:59Z</time>
      </trkpt>
      <trkpt lat="48.52735" lon="1.97285">
        <ele>107</ele>
        <time>2023-12-10T10:08:00Z</time>
      </trkpt>
      <trkpt lat="48.52733" lon="1.97296">
        <ele>107</ele>
        <time>2023-12-10T10:08:01Z</time>
      </trkpt>
      <trkpt lat="48.52732" lon="1.97308">
        <ele>106.4</ele>
        <time>2023-12-10T10:08:02Z</time>
      </trkpt>
      <trkpt lat="48.52731" lon="1.9732">
        <ele>106.4</ele>
        <time>2023-12-10T10:08:03Z</time>
      </trkpt>
      <trkpt lat="48.52731" lon="1.97332">
        <ele>106.4</ele>
        <time>2023-12-10T10:08:04Z</time>
      </trkpt>
      <trkpt lat="48.52732" lon="1.97344">
        <ele>106.4</ele>
        <time>2023-12-10T10:08:05Z</time>
      </trkpt>
      <trkpt lat="48.52734" lon="1.97356">
        <ele>105.8</ele>
        <time>2023-12-10T10:08:06Z</time>
      </trkpt>
      <trkpt lat="48.52736" lon="1.97368">
        <ele>105.8</ele>
        <time>2023-12-10T10:08:07Z</time>
      </trkpt>
      <trkpt lat="48.52738" lon="1.9738">
        <ele>105.8</ele>
        <time>2023-12-10T10:08:08Z</time>
      </trkpt>
      <trkpt lat="48.52741" lon="1.97393">
        <ele>104.8</ele>
        <time>2023-12-10T10:08:09Z</time>
      </trkpt>
      <trkpt lat="48.52743" lon="1.97405">
        <ele>103.8</ele>
        <time>2023-12-10T10:08:10Z</time>
      </trkpt>
      <trkpt lat="48.52745" lon="1.97418">
        <ele>103.8</ele>
        <time>2023-12-10T10:08:11Z</time>
      </trkpt>
      <trkpt lat="48.52748" lon="1.97431">
        <ele>103.8</ele>
        <time>2023-12-10T10:08:12Z</time>
      </trkpt>
      <trkpt lat="48.5275" lon="1.97444">
        <ele>103.8</ele>
        <time>2023-12-10T10:08:13Z</time>
      </trkpt>
      <trkpt lat="48.52753" lon="1.97456">
        <ele>103.2</ele>
        <time>2023-12-10T10:08:14Z</time>
      </trkpt>
      <trkpt lat="48.52755" lon="1.97469">
        <ele>103.2</ele>
        <time>2023-12-10T10:08:15Z</time>
      </trkpt>
      <trkpt lat="48.52757" lon="1.97482">
        <ele>103.2</ele>
        <time>2023-12-10T10:08:16Z</time>
      </trkpt>
      <trkpt lat="48.5276" lon="1.97496">
        <ele>102.2</ele>
        <time>2023-12-10T10:08:17Z</time>
      </trkpt>
      <trkpt lat="48.52762" lon="1.97509">
        <ele>102.2</ele>
        <time>2023-12-10T10:08:18Z</time>
      </trkpt>
      <trkpt lat="48.52765" lon="1.97523">
        <ele>102.2</ele>
        <time>2023-12-10T10:08:19Z</time>
      </trkpt>
      <trkpt lat="48.52767" lon="1.97537">
        <ele>102.2</ele>
        <time>2023-12-10T10:08:20Z</time>
      </trkpt>
      <trkpt lat="48.5277" lon="1.9755">
        <ele>101.4</ele>
        <time>2023-12-10T10:08:21Z</time>
      </trkpt>
      <trkpt lat="48.52772" lon="1.97564">
        <ele>100.6</ele>
        <time>2023-12-10T10:08:22Z</time>
      </trkpt>
      <trkpt lat="48.52775" lon="1.97578">
        <ele>100.6</ele>
        <time>2023-12-10T10:08:23Z</time>
      </trkpt>
      <trkpt lat="48.52777" lon="1.97592">
        <ele>100.6</ele>
        <time>2023-12-10T10:08:24Z</time>
      </trkpt>
      <trkpt lat="48.5278" lon="1.97606">
        <ele>99.6</ele>
        <time>2023-12-10T10:08:25Z</time>
      </trkpt>
      <trkpt lat="48.52782" lon="1.9762">
        <ele>99.6</ele>
        <time>2023-12-10T10:08:26Z</time>
      </trkpt>
      <trkpt lat="48.52785" lon="1.97634">
        <ele>99.6</ele>
        <time>2023-12-10T10:08:27Z</time>
      </trkpt>
      <trkpt lat="48.52787" lon="1.97647">
        <ele>99.6</ele>
        <time>2023-12-10T10:08:28Z</time>
      </trkpt>
      <trkpt lat="48.5279" lon="1.9766">
        <ele>100.6</ele>
        <time>2023-12-10T10:08:29Z</time>
      </trkpt>
      <trkpt lat="48.52792" lon="1.97674">
        <ele>101.6</ele>
        <time>2023-12-10T10:08:30Z</time>
      </trkpt>
      <trkpt lat="48.52794" lon="1.97687">
        <ele>101.6</ele>
        <time>2023-12-10T10:08:31Z</time>
      </trkpt>
      <trkpt lat="48.52797" lon="1.977">
        <ele>101.6</ele>
        <time>2023-12-10T10:08:32Z</time>
      </trkpt>
      <trkpt lat="48.52799" lon="1.97714">
        <ele>101.6</ele>
        <time>2023-12-10T10:08:33Z</time>
      </trkpt>
      <trkpt lat="48.528" lon="1.97727">
        <ele>100.6</ele>
        <time>2023-12-10T10:08:34Z</time>
      </trkpt>
      <trkpt lat="48.52801" lon="1.9774">
        <ele>100.6</ele>
        <time>2023-12-10T10:08:35Z</time>
      </trkpt>
      <trkpt lat="48.52803" lon="1.97754">
        <ele>100.6</ele>
        <time>2023-12-10T10:08:36Z</time>
      </trkpt>
      <trkpt lat="48.52804" lon="1.97767">
        <ele>100</ele>
        <time>2023-12-10T10:08:37Z</time>
      </trkpt>
      <trkpt lat="48.52804" lon="1.97781">
        <ele>99.6</ele>
        <time>2023-12-10T10:08:38Z</time>
      </trkpt>
      <trkpt lat="48.52803" lon="1.97793">
        <ele>99.6</ele>
        <time>2023-12-10T10:08:39Z</time>
      </trkpt>
      <trkpt lat="48.52801" lon="1.97807">
        <ele>99.6</ele>
        <time>2023-12-10T10:08:40Z</time>
      </trkpt>
      <trkpt lat="48.528" lon="1.97821">
        <ele>100.4</ele>
        <time>2023-12-10T10:08:41Z</time>
      </trkpt>
      <trkpt lat="48.52799" lon="1.97833">
        <ele>100.6</ele>
        <time>2023-12-10T10:08:42Z</time>
      </trkpt>
      <trkpt lat="48.52797" lon="1.97846">
        <ele>100.6</ele>
        <time>2023-12-10T10:08:43Z</time>
      </trkpt>
      <trkpt lat="48.52796" lon="1.97858">
        <ele>100.6</ele>
        <time>2023-12-10T10:08:44Z</time>
      </trkpt>
      <trkpt lat="48.52795" lon="1.97871">
        <ele>101</ele>
        <time>2023-12-10T10:08:45Z</time>
      </trkpt>
      <trkpt lat="48.52793" lon="1.97883">
        <ele>102</ele>
        <time>2023-12-10T10:08:46Z</time>
      </trkpt>
      <trkpt lat="48.52792" lon="1.97895">
        <ele>102</ele>
        <time>2023-12-10T10:08:47Z</time>
      </trkpt>
      <trkpt lat="48.5279" lon="1.97907">
        <ele>102</ele>
        <time>2023-12-10T10:08:48Z</time>
      </trkpt>
      <trkpt lat="48.52789" lon="1.97919">
        <ele>102</ele>
        <time>2023-12-10T10:08:49Z</time>
      </trkpt>
      <trkpt lat="48.52788" lon="1.97932">
        <ele>101.8</ele>
        <time>2023-12-10T10:08:50Z</time>
      </trkpt>
      <trkpt lat="48.52786" lon="1.97944">
        <ele>101.8</ele>
        <time>2023-12-10T10:08:51Z</time>
      </trkpt>
      <trkpt lat="48.52785" lon="1.97956">
        <ele>101.8</ele>
        <time>2023-12-10T10:08:52Z</time>
      </trkpt>
      <trkpt lat="48.52784" lon="1.97968">
        <ele>101.8</ele>
        <time>2023-12-10T10:08:53Z</time>
      </trkpt>
      <trkpt lat="48.52783" lon="1.9798">
        <ele>102.4</ele>
        <time>2023-12-10T10:08:54Z</time>
      </trkpt>
      <trkpt lat="48.52781" lon="1.97992">
        <ele>102.4</ele>
        <time>2023-12-10T10:08:55Z</time>
      </trkpt>
      <trkpt lat="48.5278" lon="1.98003">
        <ele>102.4</ele>
        <time>2023-12-10T10:08:56Z</time>
      </trkpt>
      <trkpt lat="48.52779" lon="1.98015">
        <ele>102.4</ele>
        <time>2023-12-10T10:08:57Z</time>
      </trkpt>
      <trkpt lat="48.52778" lon="1.98027">
        <ele>101.4</ele>
        <time>2023-12-10T10:08:58Z</time>
      </trkpt>
      <trkpt lat="48.52776" lon="1.98039">
        <ele>101.4</ele>
        <time>2023-12-10T10:08:59Z</time>
      </trkpt>
      <trkpt lat="48.52775" lon="1.98051">
        <ele>101.4</ele>
        <time>2023-12-10T10:09:00Z</time>
      </trkpt>
      <trkpt lat="48.52775" lon="1.98063">
        <ele>101.4</ele>
        <time>2023-12-10T10:09:01Z</time>
      </trkpt>
      <trkpt lat="48.52774" lon="1.98074">
        <ele>101.6</ele>
        <time>2023-12-10T10:09:02Z</time>
      </trkpt>
      <trkpt lat="48.52773" lon="1.98085">
        <ele>101.6</ele>
        <time>2023-12-10T10:09:03Z</time>
      </trkpt>
      <trkpt lat="48.52773" lon="1.98097">
        <ele>101.6</ele>
        <time>2023-12-10T10:09:04Z</time>
      </trkpt>
      <trkpt lat="48.52772" lon="1.98108">
        <ele>102.6</ele>
        <time>2023-12-10T10:09:05Z</time>
      </trkpt>
      <trkpt lat="48.52772" lon="1.98119">
        <ele>104.2</ele>
        <time>2023-12-10T10:09:06Z</time>
      </trkpt>
      <trkpt lat="48.52772" lon="1.9813">
        <ele>104.2</ele>
        <time>2023-12-10T10:09:07Z</time>
      </trkpt>
      <trkpt lat="48.52772" lon="1.9814">
        <ele>104.2</ele>
        <time>2023-12-10T10:09:08Z</time>
      </trkpt>
      <trkpt lat="48.52771" lon="1.98151">
        <ele>103.8</ele>
        <time>2023-12-10T10:09:09Z</time>
      </trkpt>
      <trkpt lat="48.52771" lon="1.98163">
        <ele>103.8</ele>
        <time>2023-12-10T10:09:10Z</time>
      </trkpt>
      <trkpt lat="48.5277" lon="1.98174">
        <ele>103.8</ele>
        <time>2023-12-10T10:09:11Z</time>
      </trkpt>
      <trkpt lat="48.5277" lon="1.98185">
        <ele>103.8</ele>
        <time>2023-12-10T10:09:12Z</time>
      </trkpt>
      <trkpt lat="48.5277" lon="1.98196">
        <ele>103.8</ele>
        <time>2023-12-10T10:09:13Z</time>
      </trkpt>
      <trkpt lat="48.5277" lon="1.98208">
        <ele>103.8</ele>
        <time>2023-12-10T10:09:14Z</time>
      </trkpt>
      <trkpt lat="48.5277" lon="1.9822">
        <ele>103.8</ele>
        <time>2023-12-10T10:09:15Z</time>
      </trkpt>
      <trkpt lat="48.5277" lon="1.98232">
        <ele>103.8</ele>
        <time>2023-12-10T10:09:16Z</time>
      </trkpt>
      <trkpt lat="48.5277" lon="1.98245">
        <ele>104.8</ele>
        <time>2023-12-10T10:09:17Z</time>
      </trkpt>
      <trkpt lat="48.5277" lon="1.98257">
        <ele>104.6</ele>
        <time>2023-12-10T10:09:18Z</time>
      </trkpt>
      <trkpt lat="48.52771" lon="1.9827">
        <ele>104.6</ele>
        <time>2023-12-10T10:09:19Z</time>
      </trkpt>
      <trkpt lat="48.52772" lon="1.98282">
        <ele>104.6</ele>
        <time>2023-12-10T10:09:20Z</time>
      </trkpt>
      <trkpt lat="48.52772" lon="1.98295">
        <ele>104.6</ele>
        <time>2023-12-10T10:09:21Z</time>
      </trkpt>
      <trkpt lat="48.52773" lon="1.98308">
        <ele>104.4</ele>
        <time>2023-12-10T10:09:22Z</time>
      </trkpt>
      <trkpt lat="48.52773" lon="1.9832">
        <ele>104.4</ele>
        <time>2023-12-10T10:09:23Z</time>
      </trkpt>
      <trkpt lat="48.52774" lon="1.98333">
        <ele>104.4</ele>
        <time>2023-12-10T10:09:24Z</time>
      </trkpt>
      <trkpt lat="48.52774" lon="1.98345">
        <ele>104.4</ele>
        <time>2023-12-10T10:09:25Z</time>
      </trkpt>
      <trkpt lat="48.52775" lon="1.98357">
        <ele>104.2</ele>
        <time>2023-12-10T10:09:26Z</time>
      </trkpt>
      <trkpt lat="48.52775" lon="1.9837">
        <ele>104.2</ele>
        <time>2023-12-10T10:09:27Z</time>
      </trkpt>
      <trkpt lat="48.52775" lon="1.98382">
        <ele>104.2</ele>
        <time>2023-12-10T10:09:28Z</time>
      </trkpt>
      <trkpt lat="48.52776" lon="1.98394">
        <ele>105.2</ele>
        <time>2023-12-10T10:09:29Z</time>
      </trkpt>
      <trkpt lat="48.52776" lon="1.98406">
        <ele>105.6</ele>
        <time>2023-12-10T10:09:30Z</time>
      </trkpt>
      <trkpt lat="48.52777" lon="1.98417">
        <ele>105.6</ele>
        <time>2023-12-10T10:09:31Z</time>
      </trkpt>
      <trkpt lat="48.52777" lon="1.98429">
        <ele>105.6</ele>
        <time>2023-12-10T10:09:32Z</time>
      </trkpt>
      <trkpt lat="48.52777" lon="1.9844">
        <ele>105.6</ele>
        <time>2023-12-10T10:09:33Z</time>
      </trkpt>
      <trkpt lat="48.52778" lon="1.98452">
        <ele>105.4</ele>
        <time>2023-12-10T10:09:34Z</time>
      </trkpt>
      <trkpt lat="48.52778" lon="1.98463">
        <ele>105.4</ele>
        <time>2023-12-10T10:09:35Z</time>
      </trkpt>
      <trkpt lat="48.52778" lon="1.98474">
        <ele>105.4</ele>
        <time>2023-12-10T10:09:36Z</time>
      </trkpt>
      <trkpt lat="48.52779" lon="1.98485">
        <ele>105.4</ele>
        <time>2023-12-10T10:09:37Z</time>
      </trkpt>
      <trkpt lat="48.52779" lon="1.98497">
        <ele>105.8</ele>
        <time>2023-12-10T10:09:38Z</time>
      </trkpt>
      <trkpt lat="48.52779" lon="1.98508">
        <ele>105.8</ele>
        <time>2023-12-10T10:09:39Z</time>
      </trkpt>
      <trkpt lat="48.52779" lon="1.98519">
        <ele>105.8</ele>
        <time>2023-12-10T10:09:40Z</time>
      </trkpt>
      <trkpt lat="48.52779" lon="1.98529">
        <ele>105.6</ele>
        <time>2023-12-10T10:09:41Z</time>
      </trkpt>
      <trkpt lat="48.52779" lon="1.9854">
        <ele>105</ele>
        <time>2023-12-10T10:09:42Z</time>
      </trkpt>
      <trkpt lat="48.52779" lon="1.98551">
        <ele>105</ele>
        <time>2023-12-10T10:09:43Z</time>
      </trkpt>
      <trkpt lat="48.52778" lon="1.98561">
        <ele>105</ele>
        <time>2023-12-10T10:09:44Z</time>
      </trkpt>
      <trkpt lat="48.52778" lon="1.98571">
        <ele>105.4</ele>
        <time>2023-12-10T10:09:45Z</time>
      </trkpt>
      <trkpt lat="48.52779" lon="1.98582">
        <ele>104.8</ele>
        <time>2023-12-10T10:09:46Z</time>
      </trkpt>
      <trkpt lat="48.52779" lon="1.98592">
        <ele>104.8</ele>
        <time>2023-12-10T10:09:47Z</time>
      </trkpt>
      <trkpt lat="48.52779" lon="1.98602">
        <ele>104.8</ele>
        <time>2023-12-10T10:09:48Z</time>
      </trkpt>
      <trkpt lat="48.52778" lon="1.98612">
        <ele>105.2</ele>
        <time>2023-12-10T10:09:49Z</time>
      </trkpt>
      <trkpt lat="48.52778" lon="1.98622">
        <ele>105.2</ele>
        <time>2023-12-10T10:09:50Z</time>
      </trkpt>
      <trkpt lat="48.52777" lon="1.98632">
        <ele>105.2</ele>
        <time>2023-12-10T10:09:51Z</time>
      </trkpt>
      <trkpt lat="48.52777" lon="1.98642">
        <ele>105.2</ele>
        <time>2023-12-10T10:09:52Z</time>
      </trkpt>
      <trkpt lat="48.52777" lon="1.98652">
        <ele>105.2</ele>
        <time>2023-12-10T10:09:53Z</time>
      </trkpt>
      <trkpt lat="48.52777" lon="1.98662">
        <ele>105.2</ele>
        <time>2023-12-10T10:09:54Z</time>
      </trkpt>
      <trkpt lat="48.52776" lon="1.98673">
        <ele>105.2</ele>
        <time>2023-12-10T10:09:55Z</time>
      </trkpt>
      <trkpt lat="48.52776" lon="1.98683">
        <ele>105.2</ele>
        <time>2023-12-10T10:09:56Z</time>
      </trkpt>
      <trkpt lat="48.52776" lon="1.98694">
        <ele>105</ele>
        <time>2023-12-10T10:09:57Z</time>
      </trkpt>
      <trkpt lat="48.52776" lon="1.98705">
        <ele>105</ele>
        <time>2023-12-10T10:09:58Z</time>
      </trkpt>
      <trkpt lat="48.52776" lon="1.98715">
        <ele>105</ele>
        <time>2023-12-10T10:09:59Z</time>
      </trkpt>
      <trkpt lat="48.52776" lon="1.98726">
        <ele>105</ele>
        <time>2023-12-10T10:10:00Z</time>
      </trkpt>
      <trkpt lat="48.52777" lon="1.98736">
        <ele>105</ele>
        <time>2023-12-10T10:10:01Z</time>
      </trkpt>
      <trkpt lat="48.52778" lon="1.98747">
        <ele>105</ele>
        <time>2023-12-10T10:10:02Z</time>
      </trkpt>
      <trkpt lat="48.52779" lon="1.98758">
        <ele>105</ele>
        <time>2023-12-10T10:10:03Z</time>
      </trkpt>
      <trkpt lat="48.5278" lon="1.98769">
        <ele>105</ele>
        <time>2023-12-10T10:10:04Z</time>
      </trkpt>
      <trkpt lat="48.52781" lon="1.9878">
        <ele>105</ele>
        <time>2023-12-10T10:10:05Z</time>
      </trkpt>
      <trkpt lat="48.52782" lon="1.9879">
        <ele>104.2</ele>
        <time>2023-12-10T10:10:06Z</time>
      </trkpt>
      <trkpt lat="48.52782" lon="1.98801">
        <ele>104.2</ele>
        <time>2023-12-10T10:10:07Z</time>
      </trkpt>
      <trkpt lat="48.52783" lon="1.98812">
        <ele>104.2</ele>
        <time>2023-12-10T10:10:08Z</time>
      </trkpt>
      <trkpt lat="48.52784" lon="1.98823">
        <ele>104.4</ele>
        <time>2023-12-10T10:10:09Z</time>
      </trkpt>
      <trkpt lat="48.52784" lon="1.98833">
        <ele>104.6</ele>
        <time>2023-12-10T10:10:10Z</time>
      </trkpt>
      <trkpt lat="48.52786" lon="1.98844">
        <ele>104.6</ele>
        <time>2023-12-10T10:10:11Z</time>
      </trkpt>
      <trkpt lat="48.52786" lon="1.98855">
        <ele>104.6</ele>
        <time>2023-12-10T10:10:12Z</time>
      </trkpt>
      <trkpt lat="48.52787" lon="1.98866">
        <ele>104.8</ele>
        <time>2023-12-10T10:10:13Z</time>
      </trkpt>
      <trkpt lat="48.52788" lon="1.98877">
        <ele>104.8</ele>
        <time>2023-12-10T10:10:14Z</time>
      </trkpt>
      <trkpt lat="48.52789" lon="1.98888">
        <ele>104.8</ele>
        <time>2023-12-10T10:10:15Z</time>
      </trkpt>
      <trkpt lat="48.5279" lon="1.98899">
        <ele>104.8</ele>
        <time>2023-12-10T10:10:16Z</time>
      </trkpt>
      <trkpt lat="48.5279" lon="1.9891">
        <ele>104.8</ele>
        <time>2023-12-10T10:10:17Z</time>
      </trkpt>
      <trkpt lat="48.52791" lon="1.9892">
        <ele>104.8</ele>
        <time>2023-12-10T10:10:18Z</time>
      </trkpt>
      <trkpt lat="48.52792" lon="1.98931">
        <ele>104.8</ele>
        <time>2023-12-10T10:10:19Z</time>
      </trkpt>
      <trkpt lat="48.52792" lon="1.98942">
        <ele>104.8</ele>
        <time>2023-12-10T10:10:20Z</time>
      </trkpt>
      <trkpt lat="48.52793" lon="1.98952">
        <ele>104.8</ele>
        <time>2023-12-10T10:10:21Z</time>
      </trkpt>
      <trkpt lat="48.52793" lon="1.98963">
        <ele>104.8</ele>
        <time>2023-12-10T10:10:22Z</time>
      </trkpt>
      <trkpt lat="48.52793" lon="1.98974">
        <ele>104.8</ele>
        <time>2023-12-10T10:10:23Z</time>
      </trkpt>
      <trkpt lat="48.52794" lon="1.98985">
        <ele>104.8</ele>
        <time>2023-12-10T10:10:24Z</time>
      </trkpt>
      <trkpt lat="48.52795" lon="1.98996">
        <ele>104.8</ele>
        <time>2023-12-10T10:10:25Z</time>
      </trkpt>
      <trkpt lat="48.52796" lon="1.99008">
        <ele>104.8</ele>
        <time>2023-12-10T10:10:26Z</time>
      </trkpt>
      <trkpt lat="48.52796" lon="1.99019">
        <ele>104.8</ele>
        <time>2023-12-10T10:10:27Z</time>
      </trkpt>
      <trkpt lat="48.52797" lon="1.9903">
        <ele>104.8</ele>
        <time>2023-12-10T10:10:28Z</time>
      </trkpt>
      <trkpt lat="48.52797" lon="1.99041">
        <ele>104.8</ele>
        <time>2023-12-10T10:10:29Z</time>
      </trkpt>
      <trkpt lat="48.52798" lon="1.99052">
        <ele>105.4</ele>
        <time>2023-12-10T10:10:30Z</time>
      </trkpt>
      <trkpt lat="48.52799" lon="1.99064">
        <ele>105.4</ele>
        <time>2023-12-10T10:10:31Z</time>
      </trkpt>
      <trkpt lat="48.52799" lon="1.99075">
        <ele>105.4</ele>
        <time>2023-12-10T10:10:32Z</time>
      </trkpt>
      <trkpt lat="48.528" lon="1.99086">
        <ele>105.4</ele>
        <time>2023-12-10T10:10:33Z</time>
      </trkpt>
      <trkpt lat="48.52801" lon="1.99098">
        <ele>105</ele>
        <time>2023-12-10T10:10:34Z</time>
      </trkpt>
      <trkpt lat="48.52801" lon="1.99109">
        <ele>105</ele>
        <time>2023-12-10T10:10:35Z</time>
      </trkpt>
      <trkpt lat="48.52801" lon="1.9912">
        <ele>105</ele>
        <time>2023-12-10T10:10:36Z</time>
      </trkpt>
      <trkpt lat="48.52802" lon="1.99131">
        <ele>105</ele>
        <time>2023-12-10T10:10:37Z</time>
      </trkpt>
      <trkpt lat="48.52804" lon="1.99142">
        <ele>105</ele>
        <time>2023-12-10T10:10:38Z</time>
      </trkpt>
      <trkpt lat="48.52805" lon="1.99153">
        <ele>105</ele>
        <time>2023-12-10T10:10:39Z</time>
      </trkpt>
      <trkpt lat="48.52808" lon="1.99163">
        <ele>105</ele>
        <time>2023-12-10T10:10:40Z</time>
      </trkpt>
      <trkpt lat="48.52812" lon="1.99174">
        <ele>104.2</ele>
        <time>2023-12-10T10:10:41Z</time>
      </trkpt>
      <trkpt lat="48.52816" lon="1.99184">
        <ele>104</ele>
        <time>2023-12-10T10:10:42Z</time>
      </trkpt>
      <trkpt lat="48.5282" lon="1.99195">
        <ele>104</ele>
        <time>2023-12-10T10:10:43Z</time>
      </trkpt>
      <trkpt lat="48.52825" lon="1.99205">
        <ele>104</ele>
        <time>2023-12-10T10:10:44Z</time>
      </trkpt>
      <trkpt lat="48.5283" lon="1.99215">
        <ele>103.6</ele>
        <time>2023-12-10T10:10:45Z</time>
      </trkpt>
      <trkpt lat="48.52835" lon="1.99225">
        <ele>102.4</ele>
        <time>2023-12-10T10:10:46Z</time>
      </trkpt>
      <trkpt lat="48.52841" lon="1.99235">
        <ele>102.4</ele>
        <time>2023-12-10T10:10:47Z</time>
      </trkpt>
      <trkpt lat="48.52846" lon="1.99245">
        <ele>102.4</ele>
        <time>2023-12-10T10:10:48Z</time>
      </trkpt>
      <trkpt lat="48.52851" lon="1.99256">
        <ele>102.4</ele>
        <time>2023-12-10T10:10:49Z</time>
      </trkpt>
      <trkpt lat="48.52856" lon="1.99267">
        <ele>102.2</ele>
        <time>2023-12-10T10:10:50Z</time>
      </trkpt>
      <trkpt lat="48.52861" lon="1.99278">
        <ele>102.2</ele>
        <time>2023-12-10T10:10:51Z</time>
      </trkpt>
      <trkpt lat="48.52866" lon="1.99289">
        <ele>102.2</ele>
        <time>2023-12-10T10:10:52Z</time>
      </trkpt>
      <trkpt lat="48.5287" lon="1.99301">
        <ele>102.2</ele>
        <time>2023-12-10T10:10:53Z</time>
      </trkpt>
      <trkpt lat="48.52873" lon="1.99313">
        <ele>102.8</ele>
        <time>2023-12-10T10:10:54Z</time>
      </trkpt>
      <trkpt lat="48.52876" lon="1.99325">
        <ele>102.8</ele>
        <time>2023-12-10T10:10:55Z</time>
      </trkpt>
      <trkpt lat="48.52879" lon="1.99337">
        <ele>102.8</ele>
        <time>2023-12-10T10:10:56Z</time>
      </trkpt>
      <trkpt lat="48.52882" lon="1.99349">
        <ele>102.8</ele>
        <time>2023-12-10T10:10:57Z</time>
      </trkpt>
      <trkpt lat="48.52884" lon="1.99361">
        <ele>103.6</ele>
        <time>2023-12-10T10:10:58Z</time>
      </trkpt>
      <trkpt lat="48.52887" lon="1.99373">
        <ele>103.6</ele>
        <time>2023-12-10T10:10:59Z</time>
      </trkpt>
      <trkpt lat="48.52889" lon="1.99384">
        <ele>103.6</ele>
        <time>2023-12-10T10:11:00Z</time>
      </trkpt>
      <trkpt lat="48.52891" lon="1.99396">
        <ele>103.4</ele>
        <time>2023-12-10T10:11:01Z</time>
      </trkpt>
      <trkpt lat="48.52894" lon="1.99408">
        <ele>103.2</ele>
        <time>2023-12-10T10:11:02Z</time>
      </trkpt>
      <trkpt lat="48.52896" lon="1.9942">
        <ele>103.2</ele>
        <time>2023-12-10T10:11:03Z</time>
      </trkpt>
      <trkpt lat="48.52898" lon="1.99431">
        <ele>103.2</ele>
        <time>2023-12-10T10:11:04Z</time>
      </trkpt>
      <trkpt lat="48.529" lon="1.99443">
        <ele>103.2</ele>
        <time>2023-12-10T10:11:05Z</time>
      </trkpt>
      <trkpt lat="48.52901" lon="1.99455">
        <ele>102.8</ele>
        <time>2023-12-10T10:11:06Z</time>
      </trkpt>
      <trkpt lat="48.52903" lon="1.99466">
        <ele>102.8</ele>
        <time>2023-12-10T10:11:07Z</time>
      </trkpt>
      <trkpt lat="48.52904" lon="1.99477">
        <ele>102.8</ele>
        <time>2023-12-10T10:11:08Z</time>
      </trkpt>
      <trkpt lat="48.52904" lon="1.99488">
        <ele>102.8</ele>
        <time>2023-12-10T10:11:09Z</time>
      </trkpt>
      <trkpt lat="48.52905" lon="1.99499">
        <ele>104</ele>
        <time>2023-12-10T10:11:10Z</time>
      </trkpt>
      <trkpt lat="48.52905" lon="1.99509">
        <ele>104</ele>
        <time>2023-12-10T10:11:11Z</time>
      </trkpt>
      <trkpt lat="48.52905" lon="1.99519">
        <ele>104</ele>
        <time>2023-12-10T10:11:12Z</time>
      </trkpt>
      <trkpt lat="48.52905" lon="1.9953">
        <ele>104</ele>
        <time>2023-12-10T10:11:13Z</time>
      </trkpt>
      <trkpt lat="48.52905" lon="1.9954">
        <ele>105</ele>
        <time>2023-12-10T10:11:14Z</time>
      </trkpt>
      <trkpt lat="48.52905" lon="1.99551">
        <ele>105</ele>
        <time>2023-12-10T10:11:15Z</time>
      </trkpt>
      <trkpt lat="48.52905" lon="1.99561">
        <ele>105</ele>
        <time>2023-12-10T10:11:16Z</time>
      </trkpt>
      <trkpt lat="48.52905" lon="1.99572">
        <ele>104</ele>
        <time>2023-12-10T10:11:17Z</time>
      </trkpt>
      <trkpt lat="48.52905" lon="1.99583">
        <ele>104.2</ele>
        <time>2023-12-10T10:11:18Z</time>
      </trkpt>
      <trkpt lat="48.52905" lon="1.99594">
        <ele>104.2</ele>
        <time>2023-12-10T10:11:19Z</time>
      </trkpt>
      <trkpt lat="48.52905" lon="1.99605">
        <ele>104.2</ele>
        <time>2023-12-10T10:11:20Z</time>
      </trkpt>
      <trkpt lat="48.52905" lon="1.99616">
        <ele>103.8</ele>
        <time>2023-12-10T10:11:21Z</time>
      </trkpt>
      <trkpt lat="48.52905" lon="1.99627">
        <ele>103.2</ele>
        <time>2023-12-10T10:11:22Z</time>
      </trkpt>
      <trkpt lat="48.52905" lon="1.99638">
        <ele>103.2</ele>
        <time>2023-12-10T10:11:23Z</time>
      </trkpt>
      <trkpt lat="48.52905" lon="1.99649">
        <ele>103.2</ele>
        <time>2023-12-10T10:11:24Z</time>
      </trkpt>
      <trkpt lat="48.52905" lon="1.99659">
        <ele>103.6</ele>
        <time>2023-12-10T10:11:25Z</time>
      </trkpt>
      <trkpt lat="48.52905" lon="1.9967">
        <ele>104.2</ele>
        <time>2023-12-10T10:11:26Z</time>
      </trkpt>
      <trkpt lat="48.52905" lon="1.99681">
        <ele>104.2</ele>
        <time>2023-12-10T10:11:27Z</time>
      </trkpt>
      <trkpt lat="48.52905" lon="1.99692">
        <ele>104.2</ele>
        <time>2023-12-10T10:11:28Z</time>
      </trkpt>
      <trkpt lat="48.52905" lon="1.99703">
        <ele>103.4</ele>
        <time>2023-12-10T10:11:29Z</time>
      </trkpt>
      <trkpt lat="48.52905" lon="1.99715">
        <ele>103.2</ele>
        <time>2023-12-10T10:11:30Z</time>
      </trkpt>
      <trkpt lat="48.52905" lon="1.99728">
        <ele>103.2</ele>
        <time>2023-12-10T10:11:31Z</time>
      </trkpt>
      <trkpt lat="48.52905" lon="1.99741">
        <ele>103.2</ele>
        <time>2023-12-10T10:11:32Z</time>
      </trkpt>
      <trkpt lat="48.52905" lon="1.99754">
        <ele>102.6</ele>
        <time>2023-12-10T10:11:33Z</time>
      </trkpt>
      <trkpt lat="48.52905" lon="1.99767">
        <ele>103.4</ele>
        <time>2023-12-10T10:11:34Z</time>
      </trkpt>
      <trkpt lat="48.52904" lon="1.99781">
        <ele>103.4</ele>
        <time>2023-12-10T10:11:35Z</time>
      </trkpt>
      <trkpt lat="48.52904" lon="1.99794">
        <ele>103.4</ele>
        <time>2023-12-10T10:11:36Z</time>
      </trkpt>
      <trkpt lat="48.52904" lon="1.99807">
        <ele>102.4</ele>
        <time>2023-12-10T10:11:37Z</time>
      </trkpt>
      <trkpt lat="48.52904" lon="1.9982">
        <ele>102.4</ele>
        <time>2023-12-10T10:11:38Z</time>
      </trkpt>
      <trkpt lat="48.52904" lon="1.99834">
        <ele>102.4</ele>
        <time>2023-12-10T10:11:39Z</time>
      </trkpt>
      <trkpt lat="48.52904" lon="1.99847">
        <ele>102.4</ele>
        <time>2023-12-10T10:11:40Z</time>
      </trkpt>
      <trkpt lat="48.52904" lon="1.9986">
        <ele>101.8</ele>
        <time>2023-12-10T10:11:41Z</time>
      </trkpt>
      <trkpt lat="48.52904" lon="1.99873">
        <ele>102</ele>
        <time>2023-12-10T10:11:42Z</time>
      </trkpt>
      <trkpt lat="48.52904" lon="1.99886">
        <ele>102</ele>
        <time>2023-12-10T10:11:43Z</time>
      </trkpt>
      <trkpt lat="48.52904" lon="1.99899">
        <ele>102</ele>
        <time>2023-12-10T10:11:44Z</time>
      </trkpt>
      <trkpt lat="48.52904" lon="1.99913">
        <ele>102</ele>
        <time>2023-12-10T10:11:45Z</time>
      </trkpt>
      <trkpt lat="48.52904" lon="1.99926">
        <ele>101.4</ele>
        <time>2023-12-10T10:11:46Z</time>
      </trkpt>
      <trkpt lat="48.52904" lon="1.99939">
        <ele>101.4</ele>
        <time>2023-12-10T10:11:47Z</time>
      </trkpt>
      <trkpt lat="48.52904" lon="1.99951">
        <ele>101.4</ele>
        <time>2023-12-10T10:11:48Z</time>
      </trkpt>
      <trkpt lat="48.52903" lon="1.99963">
        <ele>102</ele>
        <time>2023-12-10T10:11:49Z</time>
      </trkpt>
      <trkpt lat="48.529" lon="1.99974">
        <ele>101.8</ele>
        <time>2023-12-10T10:11:50Z</time>
      </trkpt>
      <trkpt lat="48.52895" lon="1.99983">
        <ele>101.8</ele>
        <time>2023-12-10T10:11:51Z</time>
      </trkpt>
      <trkpt lat="48.5289" lon="1.99992">
        <ele>101.8</ele>
        <time>2023-12-10T10:11:52Z</time>
      </trkpt>
      <trkpt lat="48.52886" lon="2.00001">
        <ele>101.8</ele>
        <time>2023-12-10T10:11:53Z</time>
      </trkpt>
      <trkpt lat="48.52883" lon="2.00012">
        <ele>101.8</ele>
        <time>2023-12-10T10:11:54Z</time>
      </trkpt>
      <trkpt lat="48.52882" lon="2.00024">
        <ele>101.8</ele>
        <time>2023-12-10T10:11:55Z</time>
      </trkpt>
      <trkpt lat="48.52883" lon="2.00035">
        <ele>101.8</ele>
        <time>2023-12-10T10:11:56Z</time>
      </trkpt>
      <trkpt lat="48.52885" lon="2.00046">
        <ele>102.8</ele>
        <time>2023-12-10T10:11:57Z</time>
      </trkpt>
      <trkpt lat="48.52889" lon="2.00055">
        <ele>103.4</ele>
        <time>2023-12-10T10:11:58Z</time>
      </trkpt>
      <trkpt lat="48.52892" lon="2.00064">
        <ele>103.4</ele>
        <time>2023-12-10T10:11:59Z</time>
      </trkpt>
      <trkpt lat="48.52896" lon="2.00073">
        <ele>103.4</ele>
        <time>2023-12-10T10:12:00Z</time>
      </trkpt>
      <trkpt lat="48.529" lon="2.00083">
        <ele>102.4</ele>
        <time>2023-12-10T10:12:01Z</time>
      </trkpt>
      <trkpt lat="48.52902" lon="2.00095">
        <ele>101.4</ele>
        <time>2023-12-10T10:12:02Z</time>
      </trkpt>
      <trkpt lat="48.52904" lon="2.00107">
        <ele>101.4</ele>
        <time>2023-12-10T10:12:03Z</time>
      </trkpt>
      <trkpt lat="48.52904" lon="2.00119">
        <ele>101.4</ele>
        <time>2023-12-10T10:12:04Z</time>
      </trkpt>
      <trkpt lat="48.52904" lon="2.00131">
        <ele>100.4</ele>
        <time>2023-12-10T10:12:05Z</time>
      </trkpt>
      <trkpt lat="48.52904" lon="2.00143">
        <ele>99.4</ele>
        <time>2023-12-10T10:12:06Z</time>
      </trkpt>
      <trkpt lat="48.52904" lon="2.00154">
        <ele>99.4</ele>
        <time>2023-12-10T10:12:07Z</time>
      </trkpt>
      <trkpt lat="48.52903" lon="2.00166">
        <ele>99.4</ele>
        <time>2023-12-10T10:12:08Z</time>
      </trkpt>
      <trkpt lat="48.52903" lon="2.00178">
        <ele>100.4</ele>
        <time>2023-12-10T10:12:09Z</time>
      </trkpt>
      <trkpt lat="48.52902" lon="2.00189">
        <ele>99.8</ele>
        <time>2023-12-10T10:12:10Z</time>
      </trkpt>
      <trkpt lat="48.52901" lon="2.00201">
        <ele>99.8</ele>
        <time>2023-12-10T10:12:11Z</time>
      </trkpt>
      <trkpt lat="48.529" lon="2.00213">
        <ele>99.8</ele>
        <time>2023-12-10T10:12:12Z</time>
      </trkpt>
      <trkpt lat="48.52898" lon="2.00224">
        <ele>99.8</ele>
        <time>2023-12-10T10:12:13Z</time>
      </trkpt>
      <trkpt lat="48.52896" lon="2.00236">
        <ele>98.8</ele>
        <time>2023-12-10T10:12:14Z</time>
      </trkpt>
      <trkpt lat="48.52895" lon="2.00247">
        <ele>98.8</ele>
        <time>2023-12-10T10:12:15Z</time>
      </trkpt>
      <trkpt lat="48.52894" lon="2.00259">
        <ele>98.8</ele>
        <time>2023-12-10T10:12:16Z</time>
      </trkpt>
      <trkpt lat="48.52892" lon="2.00269">
        <ele>99.8</ele>
        <time>2023-12-10T10:12:17Z</time>
      </trkpt>
      <trkpt lat="48.52891" lon="2.0028">
        <ele>99.2</ele>
        <time>2023-12-10T10:12:18Z</time>
      </trkpt>
      <trkpt lat="48.5289" lon="2.00291">
        <ele>99.2</ele>
        <time>2023-12-10T10:12:19Z</time>
      </trkpt>
      <trkpt lat="48.52888" lon="2.00302">
        <ele>99.2</ele>
        <time>2023-12-10T10:12:20Z</time>
      </trkpt>
      <trkpt lat="48.52887" lon="2.00312">
        <ele>98.2</ele>
        <time>2023-12-10T10:12:21Z</time>
      </trkpt>
      <trkpt lat="48.52886" lon="2.00322">
        <ele>97.6</ele>
        <time>2023-12-10T10:12:22Z</time>
      </trkpt>
      <trkpt lat="48.52885" lon="2.00332">
        <ele>97.6</ele>
        <time>2023-12-10T10:12:23Z</time>
      </trkpt>
      <trkpt lat="48.52884" lon="2.00343">
        <ele>97.6</ele>
        <time>2023-12-10T10:12:24Z</time>
      </trkpt>
      <trkpt lat="48.52883" lon="2.00353">
        <ele>97.6</ele>
        <time>2023-12-10T10:12:25Z</time>
      </trkpt>
      <trkpt lat="48.52882" lon="2.00364">
        <ele>98</ele>
        <time>2023-12-10T10:12:26Z</time>
      </trkpt>
      <trkpt lat="48.5288" lon="2.00374">
        <ele>98</ele>
        <time>2023-12-10T10:12:27Z</time>
      </trkpt>
      <trkpt lat="48.52879" lon="2.00384">
        <ele>98</ele>
        <time>2023-12-10T10:12:28Z</time>
      </trkpt>
      <trkpt lat="48.52878" lon="2.00394">
        <ele>97.8</ele>
        <time>2023-12-10T10:12:29Z</time>
      </trkpt>
      <trkpt lat="48.52876" lon="2.00404">
        <ele>98.4</ele>
        <time>2023-12-10T10:12:30Z</time>
      </trkpt>
      <trkpt lat="48.52875" lon="2.00415">
        <ele>98.4</ele>
        <time>2023-12-10T10:12:31Z</time>
      </trkpt>
      <trkpt lat="48.52874" lon="2.00425">
        <ele>98.4</ele>
        <time>2023-12-10T10:12:32Z</time>
      </trkpt>
      <trkpt lat="48.52873" lon="2.00436">
        <ele>97.4</ele>
        <time>2023-12-10T10:12:33Z</time>
      </trkpt>
      <trkpt lat="48.52871" lon="2.00446">
        <ele>97.2</ele>
        <time>2023-12-10T10:12:34Z</time>
      </trkpt>
      <trkpt lat="48.52869" lon="2.00456">
        <ele>97.2</ele>
        <time>2023-12-10T10:12:35Z</time>
      </trkpt>
      <trkpt lat="48.52868" lon="2.00467">
        <ele>97.2</ele>
        <time>2023-12-10T10:12:36Z</time>
      </trkpt>
      <trkpt lat="48.52866" lon="2.00477">
        <ele>98.2</ele>
        <time>2023-12-10T10:12:37Z</time>
      </trkpt>
      <trkpt lat="48.52864" lon="2.00487">
        <ele>97.8</ele>
        <time>2023-12-10T10:12:38Z</time>
      </trkpt>
      <trkpt lat="48.52863" lon="2.00497">
        <ele>97.8</ele>
        <time>2023-12-10T10:12:39Z</time>
      </trkpt>
      <trkpt lat="48.52861" lon="2.00507">
        <ele>97.8</ele>
        <time>2023-12-10T10:12:40Z</time>
      </trkpt>
      <trkpt lat="48.52859" lon="2.00517">
        <ele>96.8</ele>
        <time>2023-12-10T10:12:41Z</time>
      </trkpt>
      <trkpt lat="48.52856" lon="2.00526">
        <ele>97.4</ele>
        <time>2023-12-10T10:12:42Z</time>
      </trkpt>
      <trkpt lat="48.52854" lon="2.00534">
        <ele>97.4</ele>
        <time>2023-12-10T10:12:43Z</time>
      </trkpt>
      <trkpt lat="48.52852" lon="2.00542">
        <ele>97.4</ele>
        <time>2023-12-10T10:12:44Z</time>
      </trkpt>
      <trkpt lat="48.52852" lon="2.0055">
        <ele>98.4</ele>
        <time>2023-12-10T10:12:45Z</time>
      </trkpt>
      <trkpt lat="48.52854" lon="2.00556">
        <ele>98.2</ele>
        <time>2023-12-10T10:12:46Z</time>
      </trkpt>
      <trkpt lat="48.52858" lon="2.00562">
        <ele>98.2</ele>
        <time>2023-12-10T10:12:47Z</time>
      </trkpt>
      <trkpt lat="48.52862" lon="2.00568">
        <ele>98.2</ele>
        <time>2023-12-10T10:12:48Z</time>
      </trkpt>
      <trkpt lat="48.52866" lon="2.00574">
        <ele>97.4</ele>
        <time>2023-12-10T10:12:49Z</time>
      </trkpt>
      <trkpt lat="48.52871" lon="2.00581">
        <ele>96.2</ele>
        <time>2023-12-10T10:12:50Z</time>
      </trkpt>
      <trkpt lat="48.52876" lon="2.00588">
        <ele>96.2</ele>
        <time>2023-12-10T10:12:51Z</time>
      </trkpt>
      <trkpt lat="48.52881" lon="2.00595">
        <ele>96.2</ele>
        <time>2023-12-10T10:12:52Z</time>
      </trkpt>
      <trkpt lat="48.52887" lon="2.00603">
        <ele>95.6</ele>
        <time>2023-12-10T10:12:53Z</time>
      </trkpt>
      <trkpt lat="48.52893" lon="2.00611">
        <ele>95.4</ele>
        <time>2023-12-10T10:12:54Z</time>
      </trkpt>
      <trkpt lat="48.52898" lon="2.00618">
        <ele>95.4</ele>
        <time>2023-12-10T10:12:55Z</time>
      </trkpt>
      <trkpt lat="48.52904" lon="2.00625">
        <ele>95.4</ele>
        <time>2023-12-10T10:12:56Z</time>
      </trkpt>
      <trkpt lat="48.5291" lon="2.00632">
        <ele>95.2</ele>
        <time>2023-12-10T10:12:57Z</time>
      </trkpt>
      <trkpt lat="48.52916" lon="2.00638">
        <ele>95.2</ele>
        <time>2023-12-10T10:12:58Z</time>
      </trkpt>
      <trkpt lat="48.52922" lon="2.00644">
        <ele>95.4</ele>
        <time>2023-12-10T10:12:59Z</time>
      </trkpt>
      <trkpt lat="48.52927" lon="2.00651">
        <ele>95.4</ele>
        <time>2023-12-10T10:13:00Z</time>
      </trkpt>
      <trkpt lat="48.52932" lon="2.00659">
        <ele>94.4</ele>
        <time>2023-12-10T10:13:01Z</time>
      </trkpt>
      <trkpt lat="48.52936" lon="2.00668">
        <ele>94.6</ele>
        <time>2023-12-10T10:13:02Z</time>
      </trkpt>
      <trkpt lat="48.52941" lon="2.00676">
        <ele>94.6</ele>
        <time>2023-12-10T10:13:03Z</time>
      </trkpt>
      <trkpt lat="48.52946" lon="2.00684">
        <ele>94.6</ele>
        <time>2023-12-10T10:13:04Z</time>
      </trkpt>
      <trkpt lat="48.52951" lon="2.00692">
        <ele>94.4</ele>
        <time>2023-12-10T10:13:05Z</time>
      </trkpt>
      <trkpt lat="48.52955" lon="2.007">
        <ele>93.8</ele>
        <time>2023-12-10T10:13:06Z</time>
      </trkpt>
      <trkpt lat="48.5296" lon="2.00708">
        <ele>93.8</ele>
        <time>2023-12-10T10:13:07Z</time>
      </trkpt>
      <trkpt lat="48.52964" lon="2.00716">
        <ele>93.8</ele>
        <time>2023-12-10T10:13:08Z</time>
      </trkpt>
      <trkpt lat="48.52968" lon="2.00724">
        <ele>94.8</ele>
        <time>2023-12-10T10:13:09Z</time>
      </trkpt>
      <trkpt lat="48.52973" lon="2.00732">
        <ele>94.4</ele>
        <time>2023-12-10T10:13:10Z</time>
      </trkpt>
      <trkpt lat="48.52977" lon="2.0074">
        <ele>94.4</ele>
        <time>2023-12-10T10:13:11Z</time>
      </trkpt>
      <trkpt lat="48.52981" lon="2.00748">
        <ele>94.4</ele>
        <time>2023-12-10T10:13:12Z</time>
      </trkpt>
      <trkpt lat="48.52985" lon="2.00756">
        <ele>95.4</ele>
        <time>2023-12-10T10:13:13Z</time>
      </trkpt>
      <trkpt lat="48.52989" lon="2.00765">
        <ele>95.8</ele>
        <time>2023-12-10T10:13:14Z</time>
      </trkpt>
      <trkpt lat="48.52993" lon="2.00773">
        <ele>95.8</ele>
        <time>2023-12-10T10:13:15Z</time>
      </trkpt>
      <trkpt lat="48.52997" lon="2.0078">
        <ele>95.8</ele>
        <time>2023-12-10T10:13:16Z</time>
      </trkpt>
      <trkpt lat="48.53001" lon="2.00788">
        <ele>95.8</ele>
        <time>2023-12-10T10:13:17Z</time>
      </trkpt>
      <trkpt lat="48.53006" lon="2.00795">
        <ele>95</ele>
        <time>2023-12-10T10:13:18Z</time>
      </trkpt>
      <trkpt lat="48.53011" lon="2.00801">
        <ele>95</ele>
        <time>2023-12-10T10:13:19Z</time>
      </trkpt>
      <trkpt lat="48.53015" lon="2.00807">
        <ele>95</ele>
        <time>2023-12-10T10:13:20Z</time>
      </trkpt>
      <trkpt lat="48.5302" lon="2.00813">
        <ele>96</ele>
        <time>2023-12-10T10:13:21Z</time>
      </trkpt>
      <trkpt lat="48.53025" lon="2.00818">
        <ele>97.2</ele>
        <time>2023-12-10T10:13:22Z</time>
      </trkpt>
      <trkpt lat="48.53029" lon="2.00822">
        <ele>97.2</ele>
        <time>2023-12-10T10:13:23Z</time>
      </trkpt>
      <trkpt lat="48.53033" lon="2.00826">
        <ele>97.2</ele>
        <time>2023-12-10T10:13:24Z</time>
      </trkpt>
      <trkpt lat="48.53036" lon="2.00828">
        <ele>98.2</ele>
        <time>2023-12-10T10:13:25Z</time>
      </trkpt>
      <trkpt lat="48.53038" lon="2.00831">
        <ele>100.4</ele>
        <time>2023-12-10T10:13:26Z</time>
      </trkpt>
      <trkpt lat="48.5304" lon="2.00833">
        <ele>100.4</ele>
        <time>2023-12-10T10:13:27Z</time>
      </trkpt>
      <trkpt lat="48.53042" lon="2.00835">
        <ele>100.4</ele>
        <time>2023-12-10T10:13:28Z</time>
      </trkpt>
      <trkpt lat="48.53044" lon="2.00836">
        <ele>101.4</ele>
        <time>2023-12-10T10:13:29Z</time>
      </trkpt>
      <trkpt lat="48.53046" lon="2.00838">
        <ele>102.2</ele>
        <time>2023-12-10T10:13:30Z</time>
      </trkpt>
      <trkpt lat="48.53048" lon="2.00839">
        <ele>102.2</ele>
        <time>2023-12-10T10:13:31Z</time>
      </trkpt>
      <trkpt lat="48.5305" lon="2.00841">
        <ele>102.2</ele>
        <time>2023-12-10T10:13:32Z</time>
      </trkpt>
      <trkpt lat="48.53051" lon="2.00843">
        <ele>103</ele>
        <time>2023-12-10T10:13:33Z</time>
      </trkpt>
      <trkpt lat="48.53053" lon="2.00845">
        <ele>103.4</ele>
        <time>2023-12-10T10:13:34Z</time>
      </trkpt>
      <trkpt lat="48.53054" lon="2.00846">
        <ele>103.4</ele>
        <time>2023-12-10T10:13:35Z</time>
      </trkpt>
      <trkpt lat="48.53056" lon="2.00848">
        <ele>103.4</ele>
        <time>2023-12-10T10:13:36Z</time>
      </trkpt>
      <trkpt lat="48.53058" lon="2.00849">
        <ele>104.4</ele>
        <time>2023-12-10T10:13:37Z</time>
      </trkpt>
      <trkpt lat="48.5306" lon="2.00851">
        <ele>104.8</ele>
        <time>2023-12-10T10:13:38Z</time>
      </trkpt>
      <trkpt lat="48.53062" lon="2.00853">
        <ele>104.8</ele>
        <time>2023-12-10T10:13:39Z</time>
      </trkpt>
      <trkpt lat="48.53063" lon="2.00855">
        <ele>104.8</ele>
        <time>2023-12-10T10:13:40Z</time>
      </trkpt>
      <trkpt lat="48.53065" lon="2.00857">
        <ele>104.8</ele>
        <time>2023-12-10T10:13:41Z</time>
      </trkpt>
      <trkpt lat="48.53067" lon="2.00858">
        <ele>106.4</ele>
        <time>2023-12-10T10:13:42Z</time>
      </trkpt>
      <trkpt lat="48.53068" lon="2.0086">
        <ele>106.4</ele>
        <time>2023-12-10T10:13:43Z</time>
      </trkpt>
      <trkpt lat="48.53069" lon="2.00862">
        <ele>106.4</ele>
        <time>2023-12-10T10:13:44Z</time>
      </trkpt>
      <trkpt lat="48.53071" lon="2.00863">
        <ele>107.4</ele>
        <time>2023-12-10T10:13:45Z</time>
      </trkpt>
      <trkpt lat="48.53073" lon="2.00865">
        <ele>107.8</ele>
        <time>2023-12-10T10:13:46Z</time>
      </trkpt>
      <trkpt lat="48.53075" lon="2.00867">
        <ele>107.8</ele>
        <time>2023-12-10T10:13:47Z</time>
      </trkpt>
      <trkpt lat="48.53077" lon="2.00868">
        <ele>107.8</ele>
        <time>2023-12-10T10:13:48Z</time>
      </trkpt>
      <trkpt lat="48.53078" lon="2.0087">
        <ele>108.8</ele>
        <time>2023-12-10T10:13:49Z</time>
      </trkpt>
      <trkpt lat="48.53081" lon="2.00872">
        <ele>109</ele>
        <time>2023-12-10T10:13:50Z</time>
      </trkpt>
      <trkpt lat="48.53082" lon="2.00874">
        <ele>109</ele>
        <time>2023-12-10T10:13:51Z</time>
      </trkpt>
      <trkpt lat="48.53084" lon="2.00875">
        <ele>109</ele>
        <time>2023-12-10T10:13:52Z</time>
      </trkpt>
      <trkpt lat="48.53085" lon="2.00877">
        <ele>110</ele>
        <time>2023-12-10T10:13:53Z</time>
      </trkpt>
      <trkpt lat="48.53087" lon="2.00879">
        <ele>110.8</ele>
        <time>2023-12-10T10:13:54Z</time>
      </trkpt>
      <trkpt lat="48.53088" lon="2.00881">
        <ele>110.8</ele>
        <time>2023-12-10T10:13:55Z</time>
      </trkpt>
      <trkpt lat="48.53089" lon="2.00882">
        <ele>110.8</ele>
        <time>2023-12-10T10:13:56Z</time>
      </trkpt>
      <trkpt lat="48.53093" lon="2.00884">
        <ele>111.2</ele>
        <time>2023-12-10T10:13:57Z</time>
      </trkpt>
      <trkpt lat="48.53095" lon="2.00886">
        <ele>111.8</ele>
        <time>2023-12-10T10:13:58Z</time>
      </trkpt>
      <trkpt lat="48.53097" lon="2.00887">
        <ele>111.8</ele>
        <time>2023-12-10T10:13:59Z</time>
      </trkpt>
      <trkpt lat="48.53099" lon="2.00889">
        <ele>111.8</ele>
        <time>2023-12-10T10:14:00Z</time>
      </trkpt>
      <trkpt lat="48.53101" lon="2.00892">
        <ele>112.8</ele>
        <time>2023-12-10T10:14:01Z</time>
      </trkpt>
      <trkpt lat="48.53103" lon="2.00893">
        <ele>113</ele>
        <time>2023-12-10T10:14:02Z</time>
      </trkpt>
      <trkpt lat="48.53105" lon="2.00895">
        <ele>113</ele>
        <time>2023-12-10T10:14:03Z</time>
      </trkpt>
      <trkpt lat="48.53106" lon="2.00897">
        <ele>113</ele>
        <time>2023-12-10T10:14:04Z</time>
      </trkpt>
      <trkpt lat="48.53109" lon="2.00898">
        <ele>113</ele>
        <time>2023-12-10T10:14:05Z</time>
      </trkpt>
      <trkpt lat="48.53112" lon="2.00901">
        <ele>113.6</ele>
        <time>2023-12-10T10:14:06Z</time>
      </trkpt>
      <trkpt lat="48.53114" lon="2.00903">
        <ele>113.6</ele>
        <time>2023-12-10T10:14:07Z</time>
      </trkpt>
      <trkpt lat="48.53115" lon="2.00907">
        <ele>113.6</ele>
        <time>2023-12-10T10:14:08Z</time>
      </trkpt>
      <trkpt lat="48.53116" lon="2.0091">
        <ele>114</ele>
        <time>2023-12-10T10:14:09Z</time>
      </trkpt>
      <trkpt lat="48.53118" lon="2.00914">
        <ele>114.2</ele>
        <time>2023-12-10T10:14:10Z</time>
      </trkpt>
      <trkpt lat="48.53119" lon="2.00917">
        <ele>114.2</ele>
        <time>2023-12-10T10:14:11Z</time>
      </trkpt>
      <trkpt lat="48.5312" lon="2.0092">
        <ele>114.2</ele>
        <time>2023-12-10T10:14:12Z</time>
      </trkpt>
      <trkpt lat="48.53122" lon="2.00924">
        <ele>114.4</ele>
        <time>2023-12-10T10:14:13Z</time>
      </trkpt>
      <trkpt lat="48.53123" lon="2.00927">
        <ele>114.4</ele>
        <time>2023-12-10T10:14:14Z</time>
      </trkpt>
      <trkpt lat="48.53125" lon="2.00932">
        <ele>114.4</ele>
        <time>2023-12-10T10:14:15Z</time>
      </trkpt>
      <trkpt lat="48.53126" lon="2.00936">
        <ele>114.4</ele>
        <time>2023-12-10T10:14:16Z</time>
      </trkpt>
      <trkpt lat="48.53128" lon="2.0094">
        <ele>114.4</ele>
        <time>2023-12-10T10:14:17Z</time>
      </trkpt>
      <trkpt lat="48.53129" lon="2.00944">
        <ele>114.4</ele>
        <time>2023-12-10T10:14:18Z</time>
      </trkpt>
      <trkpt lat="48.53131" lon="2.00949">
        <ele>114.4</ele>
        <time>2023-12-10T10:14:19Z</time>
      </trkpt>
      <trkpt lat="48.53133" lon="2.00953">
        <ele>114.4</ele>
        <time>2023-12-10T10:14:20Z</time>
      </trkpt>
      <trkpt lat="48.53135" lon="2.00957">
        <ele>113.4</ele>
        <time>2023-12-10T10:14:21Z</time>
      </trkpt>
      <trkpt lat="48.53136" lon="2.00962">
        <ele>114</ele>
        <time>2023-12-10T10:14:22Z</time>
      </trkpt>
      <trkpt lat="48.53138" lon="2.00967">
        <ele>114</ele>
        <time>2023-12-10T10:14:23Z</time>
      </trkpt>
      <trkpt lat="48.5314" lon="2.00971">
        <ele>114</ele>
        <time>2023-12-10T10:14:24Z</time>
      </trkpt>
      <trkpt lat="48.53142" lon="2.00976">
        <ele>115</ele>
        <time>2023-12-10T10:14:25Z</time>
      </trkpt>
      <trkpt lat="48.53144" lon="2.00981">
        <ele>115.6</ele>
        <time>2023-12-10T10:14:26Z</time>
      </trkpt>
      <trkpt lat="48.53148" lon="2.00984">
        <ele>115.6</ele>
        <time>2023-12-10T10:14:27Z</time>
      </trkpt>
      <trkpt lat="48.53151" lon="2.00985">
        <ele>115.6</ele>
        <time>2023-12-10T10:14:28Z</time>
      </trkpt>
      <trkpt lat="48.53155" lon="2.00983">
        <ele>115.6</ele>
        <time>2023-12-10T10:14:29Z</time>
      </trkpt>
      <trkpt lat="48.53157" lon="2.0098">
        <ele>116</ele>
        <time>2023-12-10T10:14:30Z</time>
      </trkpt>
      <trkpt lat="48.5316" lon="2.00976">
        <ele>116</ele>
        <time>2023-12-10T10:14:31Z</time>
      </trkpt>
      <trkpt lat="48.53164" lon="2.00973">
        <ele>116</ele>
        <time>2023-12-10T10:14:32Z</time>
      </trkpt>
      <trkpt lat="48.53168" lon="2.0097">
        <ele>116</ele>
        <time>2023-12-10T10:14:33Z</time>
      </trkpt>
      <trkpt lat="48.53172" lon="2.00967">
        <ele>116.4</ele>
        <time>2023-12-10T10:14:34Z</time>
      </trkpt>
      <trkpt lat="48.53176" lon="2.00964">
        <ele>116.4</ele>
        <time>2023-12-10T10:14:35Z</time>
      </trkpt>
      <trkpt lat="48.53179" lon="2.0096">
        <ele>116.4</ele>
        <time>2023-12-10T10:14:36Z</time>
      </trkpt>
      <trkpt lat="48.53183" lon="2.00957">
        <ele>116.4</ele>
        <time>2023-12-10T10:14:37Z</time>
      </trkpt>
      <trkpt lat="48.53186" lon="2.00953">
        <ele>116.6</ele>
        <time>2023-12-10T10:14:38Z</time>
      </trkpt>
      <trkpt lat="48.53189" lon="2.00951">
        <ele>116.6</ele>
        <time>2023-12-10T10:14:39Z</time>
      </trkpt>
      <trkpt lat="48.53193" lon="2.00947">
        <ele>116.6</ele>
        <time>2023-12-10T10:14:40Z</time>
      </trkpt>
      <trkpt lat="48.53196" lon="2.00944">
        <ele>116.8</ele>
        <time>2023-12-10T10:14:41Z</time>
      </trkpt>
      <trkpt lat="48.532" lon="2.0094">
        <ele>117.2</ele>
        <time>2023-12-10T10:14:42Z</time>
      </trkpt>
      <trkpt lat="48.53204" lon="2.00937">
        <ele>117.2</ele>
        <time>2023-12-10T10:14:43Z</time>
      </trkpt>
      <trkpt lat="48.53208" lon="2.00937">
        <ele>117.2</ele>
        <time>2023-12-10T10:14:44Z</time>
      </trkpt>
      <trkpt lat="48.53212" lon="2.00938">
        <ele>117.2</ele>
        <time>2023-12-10T10:14:45Z</time>
      </trkpt>
      <trkpt lat="48.53216" lon="2.00938">
        <ele>116.8</ele>
        <time>2023-12-10T10:14:46Z</time>
      </trkpt>
      <trkpt lat="48.5322" lon="2.00938">
        <ele>116.8</ele>
        <time>2023-12-10T10:14:47Z</time>
      </trkpt>
      <trkpt lat="48.53225" lon="2.00938">
        <ele>116.8</ele>
        <time>2023-12-10T10:14:48Z</time>
      </trkpt>
      <trkpt lat="48.5323" lon="2.00938">
        <ele>116.8</ele>
        <time>2023-12-10T10:14:49Z</time>
      </trkpt>
      <trkpt lat="48.53234" lon="2.00938">
        <ele>117</ele>
        <time>2023-12-10T10:14:50Z</time>
      </trkpt>
      <trkpt lat="48.53239" lon="2.00939">
        <ele>117</ele>
        <time>2023-12-10T10:14:51Z</time>
      </trkpt>
      <trkpt lat="48.53244" lon="2.0094">
        <ele>117</ele>
        <time>2023-12-10T10:14:52Z</time>
      </trkpt>
      <trkpt lat="48.53249" lon="2.00941">
        <ele>117</ele>
        <time>2023-12-10T10:14:53Z</time>
      </trkpt>
      <trkpt lat="48.53254" lon="2.00943">
        <ele>117</ele>
        <time>2023-12-10T10:14:54Z</time>
      </trkpt>
      <trkpt lat="48.53259" lon="2.00944">
        <ele>117</ele>
        <time>2023-12-10T10:14:55Z</time>
      </trkpt>
      <trkpt lat="48.53264" lon="2.00945">
        <ele>117</ele>
        <time>2023-12-10T10:14:56Z</time>
      </trkpt>
      <trkpt lat="48.53269" lon="2.00946">
        <ele>117.2</ele>
        <time>2023-12-10T10:14:57Z</time>
      </trkpt>
      <trkpt lat="48.53274" lon="2.00947">
        <ele>117</ele>
        <time>2023-12-10T10:14:58Z</time>
      </trkpt>
      <trkpt lat="48.5328" lon="2.00948">
        <ele>117</ele>
        <time>2023-12-10T10:14:59Z</time>
      </trkpt>
      <trkpt lat="48.53284" lon="2.00949">
        <ele>117</ele>
        <time>2023-12-10T10:15:00Z</time>
      </trkpt>
      <trkpt lat="48.53289" lon="2.0095">
        <ele>117.4</ele>
        <time>2023-12-10T10:15:01Z</time>
      </trkpt>
      <trkpt lat="48.53295" lon="2.00952">
        <ele>117.4</ele>
        <time>2023-12-10T10:15:02Z</time>
      </trkpt>
      <trkpt lat="48.533" lon="2.00953">
        <ele>117.4</ele>
        <time>2023-12-10T10:15:03Z</time>
      </trkpt>
      <trkpt lat="48.53305" lon="2.00955">
        <ele>117.4</ele>
        <time>2023-12-10T10:15:04Z</time>
      </trkpt>
      <trkpt lat="48.5331" lon="2.00956">
        <ele>117.4</ele>
        <time>2023-12-10T10:15:05Z</time>
      </trkpt>
      <trkpt lat="48.53315" lon="2.00958">
        <ele>117.8</ele>
        <time>2023-12-10T10:15:06Z</time>
      </trkpt>
      <trkpt lat="48.5332" lon="2.0096">
        <ele>117.8</ele>
        <time>2023-12-10T10:15:07Z</time>
      </trkpt>
      <trkpt lat="48.53323" lon="2.00963">
        <ele>117.8</ele>
        <time>2023-12-10T10:15:08Z</time>
      </trkpt>
      <trkpt lat="48.53325" lon="2.00968">
        <ele>118.8</ele>
        <time>2023-12-10T10:15:09Z</time>
      </trkpt>
      <trkpt lat="48.53326" lon="2.00974">
        <ele>118.4</ele>
        <time>2023-12-10T10:15:10Z</time>
      </trkpt>
      <trkpt lat="48.53327" lon="2.00981">
        <ele>118.4</ele>
        <time>2023-12-10T10:15:11Z</time>
      </trkpt>
      <trkpt lat="48.53327" lon="2.00987">
        <ele>118.4</ele>
        <time>2023-12-10T10:15:12Z</time>
      </trkpt>
      <trkpt lat="48.53325" lon="2.00994">
        <ele>118.4</ele>
        <time>2023-12-10T10:15:13Z</time>
      </trkpt>
      <trkpt lat="48.53324" lon="2.01001">
        <ele>117</ele>
        <time>2023-12-10T10:15:14Z</time>
      </trkpt>
      <trkpt lat="48.53322" lon="2.01007">
        <ele>117</ele>
        <time>2023-12-10T10:15:15Z</time>
      </trkpt>
      <trkpt lat="48.53321" lon="2.01015">
        <ele>117</ele>
        <time>2023-12-10T10:15:16Z</time>
      </trkpt>
      <trkpt lat="48.53319" lon="2.01023">
        <ele>116</ele>
        <time>2023-12-10T10:15:17Z</time>
      </trkpt>
      <trkpt lat="48.53317" lon="2.01031">
        <ele>116.2</ele>
        <time>2023-12-10T10:15:18Z</time>
      </trkpt>
      <trkpt lat="48.53316" lon="2.01039">
        <ele>116.2</ele>
        <time>2023-12-10T10:15:19Z</time>
      </trkpt>
      <trkpt lat="48.53314" lon="2.01048">
        <ele>116.2</ele>
        <time>2023-12-10T10:15:20Z</time>
      </trkpt>
      <trkpt lat="48.53312" lon="2.01058">
        <ele>116.2</ele>
        <time>2023-12-10T10:15:21Z</time>
      </trkpt>
      <trkpt lat="48.53311" lon="2.01067">
        <ele>115</ele>
        <time>2023-12-10T10:15:22Z</time>
      </trkpt>
      <trkpt lat="48.53309" lon="2.01077">
        <ele>115</ele>
        <time>2023-12-10T10:15:23Z</time>
      </trkpt>
      <trkpt lat="48.53308" lon="2.01087">
        <ele>115</ele>
        <time>2023-12-10T10:15:24Z</time>
      </trkpt>
      <trkpt lat="48.53307" lon="2.01097">
        <ele>114</ele>
        <time>2023-12-10T10:15:25Z</time>
      </trkpt>
      <trkpt lat="48.53305" lon="2.01107">
        <ele>112.2</ele>
        <time>2023-12-10T10:15:26Z</time>
      </trkpt>
      <trkpt lat="48.53303" lon="2.01117">
        <ele>112.2</ele>
        <time>2023-12-10T10:15:27Z</time>
      </trkpt>
      <trkpt lat="48.53301" lon="2.01126">
        <ele>112.2</ele>
        <time>2023-12-10T10:15:28Z</time>
      </trkpt>
      <trkpt lat="48.53299" lon="2.01136">
        <ele>112.2</ele>
        <time>2023-12-10T10:15:29Z</time>
      </trkpt>
      <trkpt lat="48.53295" lon="2.01145">
        <ele>112.6</ele>
        <time>2023-12-10T10:15:30Z</time>
      </trkpt>
      <trkpt lat="48.53291" lon="2.01153">
        <ele>112.6</ele>
        <time>2023-12-10T10:15:31Z</time>
      </trkpt>
      <trkpt lat="48.53287" lon="2.01159">
        <ele>112.6</ele>
        <time>2023-12-10T10:15:32Z</time>
      </trkpt>
      <trkpt lat="48.53284" lon="2.01163">
        <ele>113.6</ele>
        <time>2023-12-10T10:15:33Z</time>
      </trkpt>
      <trkpt lat="48.53282" lon="2.01165">
        <ele>114</ele>
        <time>2023-12-10T10:15:34Z</time>
      </trkpt>
      <trkpt lat="48.53281" lon="2.01167">
        <ele>114</ele>
        <time>2023-12-10T10:15:35Z</time>
      </trkpt>
      <trkpt lat="48.53281" lon="2.01168">
        <ele>114</ele>
        <time>2023-12-10T10:15:36Z</time>
      </trkpt>
      <trkpt lat="48.5328" lon="2.01169">
        <ele>114</ele>
        <time>2023-12-10T10:15:37Z</time>
      </trkpt>
      <trkpt lat="48.53281" lon="2.01169">
        <ele>114.2</ele>
        <time>2023-12-10T10:15:38Z</time>
      </trkpt>
      <trkpt lat="48.5328" lon="2.0117">
        <ele>114.2</ele>
        <time>2023-12-10T10:15:39Z</time>
      </trkpt>
      <trkpt lat="48.5328" lon="2.01172">
        <ele>114.2</ele>
        <time>2023-12-10T10:15:40Z</time>
      </trkpt>
      <trkpt lat="48.5328" lon="2.01175">
        <ele>114.2</ele>
        <time>2023-12-10T10:15:41Z</time>
      </trkpt>
      <trkpt lat="48.5328" lon="2.01179">
        <ele>114</ele>
        <time>2023-12-10T10:15:42Z</time>
      </trkpt>
      <trkpt lat="48.53282" lon="2.01183">
        <ele>114</ele>
        <time>2023-12-10T10:15:43Z</time>
      </trkpt>
      <trkpt lat="48.53284" lon="2.01188">
        <ele>114</ele>
        <time>2023-12-10T10:15:44Z</time>
      </trkpt>
      <trkpt lat="48.53288" lon="2.01192">
        <ele>114</ele>
        <time>2023-12-10T10:15:45Z</time>
      </trkpt>
      <trkpt lat="48.53292" lon="2.01196">
        <ele>113.2</ele>
        <time>2023-12-10T10:15:46Z</time>
      </trkpt>
      <trkpt lat="48.53296" lon="2.01201">
        <ele>113.2</ele>
        <time>2023-12-10T10:15:47Z</time>
      </trkpt>
      <trkpt lat="48.53301" lon="2.01205">
        <ele>113.2</ele>
        <time>2023-12-10T10:15:48Z</time>
      </trkpt>
      <trkpt lat="48.53307" lon="2.01209">
        <ele>112.8</ele>
        <time>2023-12-10T10:15:49Z</time>
      </trkpt>
      <trkpt lat="48.53312" lon="2.01212">
        <ele>112.8</ele>
        <time>2023-12-10T10:15:50Z</time>
      </trkpt>
      <trkpt lat="48.53316" lon="2.01214">
        <ele>112.8</ele>
        <time>2023-12-10T10:15:51Z</time>
      </trkpt>
      <trkpt lat="48.53323" lon="2.01216">
        <ele>112.8</ele>
        <time>2023-12-10T10:15:52Z</time>
      </trkpt>
      <trkpt lat="48.53328" lon="2.01219">
        <ele>113.8</ele>
        <time>2023-12-10T10:15:53Z</time>
      </trkpt>
      <trkpt lat="48.53334" lon="2.01221">
        <ele>114.2</ele>
        <time>2023-12-10T10:15:54Z</time>
      </trkpt>
      <trkpt lat="48.5334" lon="2.01223">
        <ele>114.2</ele>
        <time>2023-12-10T10:15:55Z</time>
      </trkpt>
      <trkpt lat="48.53345" lon="2.01227">
        <ele>114.2</ele>
        <time>2023-12-10T10:15:56Z</time>
      </trkpt>
      <trkpt lat="48.5335" lon="2.01232">
        <ele>114.6</ele>
        <time>2023-12-10T10:15:57Z</time>
      </trkpt>
      <trkpt lat="48.53355" lon="2.01238">
        <ele>115.2</ele>
        <time>2023-12-10T10:15:58Z</time>
      </trkpt>
      <trkpt lat="48.53359" lon="2.01243">
        <ele>115.2</ele>
        <time>2023-12-10T10:15:59Z</time>
      </trkpt>
      <trkpt lat="48.53363" lon="2.01246">
        <ele>115.2</ele>
        <time>2023-12-10T10:16:00Z</time>
      </trkpt>
      <trkpt lat="48.53368" lon="2.01246">
        <ele>116.2</ele>
        <time>2023-12-10T10:16:01Z</time>
      </trkpt>
      <trkpt lat="48.53372" lon="2.01242">
        <ele>116</ele>
        <time>2023-12-10T10:16:02Z</time>
      </trkpt>
      <trkpt lat="48.53375" lon="2.01236">
        <ele>116</ele>
        <time>2023-12-10T10:16:03Z</time>
      </trkpt>
      <trkpt lat="48.53378" lon="2.01229">
        <ele>116</ele>
        <time>2023-12-10T10:16:04Z</time>
      </trkpt>
      <trkpt lat="48.5338" lon="2.01222">
        <ele>115</ele>
        <time>2023-12-10T10:16:05Z</time>
      </trkpt>
      <trkpt lat="48.53383" lon="2.01215">
        <ele>115</ele>
        <time>2023-12-10T10:16:06Z</time>
      </trkpt>
      <trkpt lat="48.53387" lon="2.01208">
        <ele>115</ele>
        <time>2023-12-10T10:16:07Z</time>
      </trkpt>
      <trkpt lat="48.5339" lon="2.01201">
        <ele>115</ele>
        <time>2023-12-10T10:16:08Z</time>
      </trkpt>
      <trkpt lat="48.53392" lon="2.01193">
        <ele>114.8</ele>
        <time>2023-12-10T10:16:09Z</time>
      </trkpt>
      <trkpt lat="48.53394" lon="2.01185">
        <ele>114.6</ele>
        <time>2023-12-10T10:16:10Z</time>
      </trkpt>
      <trkpt lat="48.53396" lon="2.01177">
        <ele>114.6</ele>
        <time>2023-12-10T10:16:11Z</time>
      </trkpt>
      <trkpt lat="48.53398" lon="2.0117">
        <ele>114.6</ele>
        <time>2023-12-10T10:16:12Z</time>
      </trkpt>
      <trkpt lat="48.53399" lon="2.01161">
        <ele>115.6</ele>
        <time>2023-12-10T10:16:13Z</time>
      </trkpt>
      <trkpt lat="48.53401" lon="2.01154">
        <ele>115.6</ele>
        <time>2023-12-10T10:16:14Z</time>
      </trkpt>
      <trkpt lat="48.53402" lon="2.01146">
        <ele>115.6</ele>
        <time>2023-12-10T10:16:15Z</time>
      </trkpt>
      <trkpt lat="48.53403" lon="2.01138">
        <ele>115.6</ele>
        <time>2023-12-10T10:16:16Z</time>
      </trkpt>
      <trkpt lat="48.53404" lon="2.0113">
        <ele>115.6</ele>
        <time>2023-12-10T10:16:17Z</time>
      </trkpt>
      <trkpt lat="48.53406" lon="2.01123">
        <ele>116.8</ele>
        <time>2023-12-10T10:16:18Z</time>
      </trkpt>
      <trkpt lat="48.53407" lon="2.01115">
        <ele>116.8</ele>
        <time>2023-12-10T10:16:19Z</time>
      </trkpt>
      <trkpt lat="48.53409" lon="2.01107">
        <ele>116.8</ele>
        <time>2023-12-10T10:16:20Z</time>
      </trkpt>
      <trkpt lat="48.5341" lon="2.011">
        <ele>116.8</ele>
        <time>2023-12-10T10:16:21Z</time>
      </trkpt>
      <trkpt lat="48.53411" lon="2.01092">
        <ele>117.4</ele>
        <time>2023-12-10T10:16:22Z</time>
      </trkpt>
      <trkpt lat="48.53412" lon="2.01084">
        <ele>117.4</ele>
        <time>2023-12-10T10:16:23Z</time>
      </trkpt>
      <trkpt lat="48.53414" lon="2.01076">
        <ele>117.4</ele>
        <time>2023-12-10T10:16:24Z</time>
      </trkpt>
      <trkpt lat="48.53415" lon="2.01069">
        <ele>118</ele>
        <time>2023-12-10T10:16:25Z</time>
      </trkpt>
      <trkpt lat="48.53416" lon="2.01061">
        <ele>117.8</ele>
        <time>2023-12-10T10:16:26Z</time>
      </trkpt>
      <trkpt lat="48.53417" lon="2.01053">
        <ele>117.8</ele>
        <time>2023-12-10T10:16:27Z</time>
      </trkpt>
      <trkpt lat="48.53419" lon="2.01045">
        <ele>117.8</ele>
        <time>2023-12-10T10:16:28Z</time>
      </trkpt>
      <trkpt lat="48.5342" lon="2.01036">
        <ele>117.8</ele>
        <time>2023-12-10T10:16:29Z</time>
      </trkpt>
      <trkpt lat="48.53421" lon="2.01028">
        <ele>117.2</ele>
        <time>2023-12-10T10:16:30Z</time>
      </trkpt>
      <trkpt lat="48.53422" lon="2.0102">
        <ele>117.2</ele>
        <time>2023-12-10T10:16:31Z</time>
      </trkpt>
      <trkpt lat="48.53423" lon="2.01011">
        <ele>117.2</ele>
        <time>2023-12-10T10:16:32Z</time>
      </trkpt>
      <trkpt lat="48.53423" lon="2.01002">
        <ele>117.4</ele>
        <time>2023-12-10T10:16:33Z</time>
      </trkpt>
      <trkpt lat="48.53424" lon="2.00993">
        <ele>117.2</ele>
        <time>2023-12-10T10:16:34Z</time>
      </trkpt>
      <trkpt lat="48.53425" lon="2.00984">
        <ele>117.2</ele>
        <time>2023-12-10T10:16:35Z</time>
      </trkpt>
      <trkpt lat="48.53426" lon="2.00974">
        <ele>117.2</ele>
        <time>2023-12-10T10:16:36Z</time>
      </trkpt>
      <trkpt lat="48.53428" lon="2.00965">
        <ele>116.2</ele>
        <time>2023-12-10T10:16:37Z</time>
      </trkpt>
      <trkpt lat="48.53429" lon="2.00956">
        <ele>117.2</ele>
        <time>2023-12-10T10:16:38Z</time>
      </trkpt>
      <trkpt lat="48.53431" lon="2.00948">
        <ele>117.2</ele>
        <time>2023-12-10T10:16:39Z</time>
      </trkpt>
      <trkpt lat="48.53433" lon="2.00939">
        <ele>117.2</ele>
        <time>2023-12-10T10:16:40Z</time>
      </trkpt>
      <trkpt lat="48.53435" lon="2.0093">
        <ele>118.2</ele>
        <time>2023-12-10T10:16:41Z</time>
      </trkpt>
      <trkpt lat="48.53438" lon="2.00922">
        <ele>118.4</ele>
        <time>2023-12-10T10:16:42Z</time>
      </trkpt>
      <trkpt lat="48.5344" lon="2.00913">
        <ele>118.4</ele>
        <time>2023-12-10T10:16:43Z</time>
      </trkpt>
      <trkpt lat="48.53442" lon="2.00904">
        <ele>118.4</ele>
        <time>2023-12-10T10:16:44Z</time>
      </trkpt>
      <trkpt lat="48.53443" lon="2.00895">
        <ele>118</ele>
        <time>2023-12-10T10:16:45Z</time>
      </trkpt>
      <trkpt lat="48.53445" lon="2.00886">
        <ele>117.6</ele>
        <time>2023-12-10T10:16:46Z</time>
      </trkpt>
      <trkpt lat="48.53446" lon="2.00877">
        <ele>117.6</ele>
        <time>2023-12-10T10:16:47Z</time>
      </trkpt>
      <trkpt lat="48.53448" lon="2.00867">
        <ele>117.6</ele>
        <time>2023-12-10T10:16:48Z</time>
      </trkpt>
      <trkpt lat="48.53449" lon="2.00858">
        <ele>117.2</ele>
        <time>2023-12-10T10:16:49Z</time>
      </trkpt>
      <trkpt lat="48.53451" lon="2.00848">
        <ele>116.4</ele>
        <time>2023-12-10T10:16:50Z</time>
      </trkpt>
      <trkpt lat="48.53452" lon="2.00839">
        <ele>116.4</ele>
        <time>2023-12-10T10:16:51Z</time>
      </trkpt>
      <trkpt lat="48.53454" lon="2.0083">
        <ele>116.4</ele>
        <time>2023-12-10T10:16:52Z</time>
      </trkpt>
      <trkpt lat="48.53455" lon="2.0082">
        <ele>117.4</ele>
        <time>2023-12-10T10:16:53Z</time>
      </trkpt>
      <trkpt lat="48.53457" lon="2.00811">
        <ele>117.8</ele>
        <time>2023-12-10T10:16:54Z</time>
      </trkpt>
      <trkpt lat="48.53458" lon="2.00802">
        <ele>117.8</ele>
        <time>2023-12-10T10:16:55Z</time>
      </trkpt>
      <trkpt lat="48.53459" lon="2.00792">
        <ele>117.8</ele>
        <time>2023-12-10T10:16:56Z</time>
      </trkpt>
      <trkpt lat="48.53461" lon="2.00783">
        <ele>118.8</ele>
        <time>2023-12-10T10:16:57Z</time>
      </trkpt>
      <trkpt lat="48.53462" lon="2.00774">
        <ele>119.4</ele>
        <time>2023-12-10T10:16:58Z</time>
      </trkpt>
      <trkpt lat="48.53463" lon="2.00765">
        <ele>119.4</ele>
        <time>2023-12-10T10:16:59Z</time>
      </trkpt>
      <trkpt lat="48.53464" lon="2.00756">
        <ele>119.4</ele>
        <time>2023-12-10T10:17:00Z</time>
      </trkpt>
      <trkpt lat="48.53465" lon="2.00747">
        <ele>119.4</ele>
        <time>2023-12-10T10:17:01Z</time>
      </trkpt>
      <trkpt lat="48.53466" lon="2.00739">
        <ele>120</ele>
        <time>2023-12-10T10:17:02Z</time>
      </trkpt>
      <trkpt lat="48.53466" lon="2.00731">
        <ele>120</ele>
        <time>2023-12-10T10:17:03Z</time>
      </trkpt>
      <trkpt lat="48.53467" lon="2.00723">
        <ele>120</ele>
        <time>2023-12-10T10:17:04Z</time>
      </trkpt>
      <trkpt lat="48.53469" lon="2.00715">
        <ele>120</ele>
        <time>2023-12-10T10:17:05Z</time>
      </trkpt>
      <trkpt lat="48.5347" lon="2.00706">
        <ele>120.4</ele>
        <time>2023-12-10T10:17:06Z</time>
      </trkpt>
      <trkpt lat="48.53471" lon="2.00697">
        <ele>120.4</ele>
        <time>2023-12-10T10:17:07Z</time>
      </trkpt>
      <trkpt lat="48.53472" lon="2.00689">
        <ele>120.4</ele>
        <time>2023-12-10T10:17:08Z</time>
      </trkpt>
      <trkpt lat="48.53473" lon="2.00681">
        <ele>121.4</ele>
        <time>2023-12-10T10:17:09Z</time>
      </trkpt>
      <trkpt lat="48.53474" lon="2.00672">
        <ele>121.8</ele>
        <time>2023-12-10T10:17:10Z</time>
      </trkpt>
      <trkpt lat="48.53474" lon="2.00664">
        <ele>121.8</ele>
        <time>2023-12-10T10:17:11Z</time>
      </trkpt>
      <trkpt lat="48.53474" lon="2.00656">
        <ele>121.8</ele>
        <time>2023-12-10T10:17:12Z</time>
      </trkpt>
      <trkpt lat="48.53474" lon="2.00648">
        <ele>122.8</ele>
        <time>2023-12-10T10:17:13Z</time>
      </trkpt>
      <trkpt lat="48.53475" lon="2.0064">
        <ele>123</ele>
        <time>2023-12-10T10:17:14Z</time>
      </trkpt>
      <trkpt lat="48.53475" lon="2.00632">
        <ele>123</ele>
        <time>2023-12-10T10:17:15Z</time>
      </trkpt>
      <trkpt lat="48.53477" lon="2.00625">
        <ele>123</ele>
        <time>2023-12-10T10:17:16Z</time>
      </trkpt>
      <trkpt lat="48.53479" lon="2.00618">
        <ele>124</ele>
        <time>2023-12-10T10:17:17Z</time>
      </trkpt>
      <trkpt lat="48.53481" lon="2.0061">
        <ele>122.4</ele>
        <time>2023-12-10T10:17:18Z</time>
      </trkpt>
      <trkpt lat="48.53484" lon="2.00602">
        <ele>122.4</ele>
        <time>2023-12-10T10:17:19Z</time>
      </trkpt>
      <trkpt lat="48.53487" lon="2.00595">
        <ele>122.4</ele>
        <time>2023-12-10T10:17:20Z</time>
      </trkpt>
      <trkpt lat="48.5349" lon="2.00587">
        <ele>122.4</ele>
        <time>2023-12-10T10:17:21Z</time>
      </trkpt>
      <trkpt lat="48.53493" lon="2.00579">
        <ele>122.2</ele>
        <time>2023-12-10T10:17:22Z</time>
      </trkpt>
      <trkpt lat="48.53496" lon="2.0057">
        <ele>122.2</ele>
        <time>2023-12-10T10:17:23Z</time>
      </trkpt>
      <trkpt lat="48.53499" lon="2.00561">
        <ele>122.2</ele>
        <time>2023-12-10T10:17:24Z</time>
      </trkpt>
      <trkpt lat="48.53504" lon="2.00552">
        <ele>122.2</ele>
        <time>2023-12-10T10:17:25Z</time>
      </trkpt>
      <trkpt lat="48.53508" lon="2.00543">
        <ele>121</ele>
        <time>2023-12-10T10:17:26Z</time>
      </trkpt>
      <trkpt lat="48.53513" lon="2.00535">
        <ele>121</ele>
        <time>2023-12-10T10:17:27Z</time>
      </trkpt>
      <trkpt lat="48.53519" lon="2.00527">
        <ele>121</ele>
        <time>2023-12-10T10:17:28Z</time>
      </trkpt>
      <trkpt lat="48.53525" lon="2.00521">
        <ele>120</ele>
        <time>2023-12-10T10:17:29Z</time>
      </trkpt>
      <trkpt lat="48.5353" lon="2.00514">
        <ele>120</ele>
        <time>2023-12-10T10:17:30Z</time>
      </trkpt>
      <trkpt lat="48.53536" lon="2.00507">
        <ele>120</ele>
        <time>2023-12-10T10:17:31Z</time>
      </trkpt>
      <trkpt lat="48.53542" lon="2.005">
        <ele>120</ele>
        <time>2023-12-10T10:17:32Z</time>
      </trkpt>
      <trkpt lat="48.53547" lon="2.00493">
        <ele>119</ele>
        <time>2023-12-10T10:17:33Z</time>
      </trkpt>
      <trkpt lat="48.53553" lon="2.00486">
        <ele>118.6</ele>
        <time>2023-12-10T10:17:34Z</time>
      </trkpt>
      <trkpt lat="48.53559" lon="2.00479">
        <ele>118.6</ele>
        <time>2023-12-10T10:17:35Z</time>
      </trkpt>
      <trkpt lat="48.53565" lon="2.00472">
        <ele>118.6</ele>
        <time>2023-12-10T10:17:36Z</time>
      </trkpt>
      <trkpt lat="48.53571" lon="2.00465">
        <ele>117.6</ele>
        <time>2023-12-10T10:17:37Z</time>
      </trkpt>
      <trkpt lat="48.53577" lon="2.00457">
        <ele>117.2</ele>
        <time>2023-12-10T10:17:38Z</time>
      </trkpt>
      <trkpt lat="48.53583" lon="2.0045">
        <ele>117.2</ele>
        <time>2023-12-10T10:17:39Z</time>
      </trkpt>
      <trkpt lat="48.5359" lon="2.00442">
        <ele>117.2</ele>
        <time>2023-12-10T10:17:40Z</time>
      </trkpt>
      <trkpt lat="48.53595" lon="2.00435">
        <ele>117.2</ele>
        <time>2023-12-10T10:17:41Z</time>
      </trkpt>
      <trkpt lat="48.53601" lon="2.00427">
        <ele>117.4</ele>
        <time>2023-12-10T10:17:42Z</time>
      </trkpt>
      <trkpt lat="48.53607" lon="2.00419">
        <ele>117.4</ele>
        <time>2023-12-10T10:17:43Z</time>
      </trkpt>
      <trkpt lat="48.53614" lon="2.00413">
        <ele>117.4</ele>
        <time>2023-12-10T10:17:44Z</time>
      </trkpt>
      <trkpt lat="48.5362" lon="2.00406">
        <ele>118.4</ele>
        <time>2023-12-10T10:17:45Z</time>
      </trkpt>
      <trkpt lat="48.53626" lon="2.00397">
        <ele>117.6</ele>
        <time>2023-12-10T10:17:46Z</time>
      </trkpt>
      <trkpt lat="48.53632" lon="2.0039">
        <ele>117.6</ele>
        <time>2023-12-10T10:17:47Z</time>
      </trkpt>
      <trkpt lat="48.53638" lon="2.00383">
        <ele>117.6</ele>
        <time>2023-12-10T10:17:48Z</time>
      </trkpt>
      <trkpt lat="48.53644" lon="2.00375">
        <ele>118.4</ele>
        <time>2023-12-10T10:17:49Z</time>
      </trkpt>
      <trkpt lat="48.5365" lon="2.00368">
        <ele>118.2</ele>
        <time>2023-12-10T10:17:50Z</time>
      </trkpt>
      <trkpt lat="48.53656" lon="2.00361">
        <ele>118.2</ele>
        <time>2023-12-10T10:17:51Z</time>
      </trkpt>
      <trkpt lat="48.53662" lon="2.00354">
        <ele>118.2</ele>
        <time>2023-12-10T10:17:52Z</time>
      </trkpt>
      <trkpt lat="48.53667" lon="2.00348">
        <ele>119.2</ele>
        <time>2023-12-10T10:17:53Z</time>
      </trkpt>
      <trkpt lat="48.53672" lon="2.00342">
        <ele>119.4</ele>
        <time>2023-12-10T10:17:54Z</time>
      </trkpt>
      <trkpt lat="48.53677" lon="2.00337">
        <ele>119.4</ele>
        <time>2023-12-10T10:17:55Z</time>
      </trkpt>
      <trkpt lat="48.53682" lon="2.00331">
        <ele>119.4</ele>
        <time>2023-12-10T10:17:56Z</time>
      </trkpt>
      <trkpt lat="48.53687" lon="2.00325">
        <ele>120.2</ele>
        <time>2023-12-10T10:17:57Z</time>
      </trkpt>
      <trkpt lat="48.53691" lon="2.0032">
        <ele>120.4</ele>
        <time>2023-12-10T10:17:58Z</time>
      </trkpt>
      <trkpt lat="48.53696" lon="2.00314">
        <ele>120.4</ele>
        <time>2023-12-10T10:17:59Z</time>
      </trkpt>
      <trkpt lat="48.537" lon="2.00309">
        <ele>120.4</ele>
        <time>2023-12-10T10:18:00Z</time>
      </trkpt>
      <trkpt lat="48.53704" lon="2.00304">
        <ele>121.4</ele>
        <time>2023-12-10T10:18:01Z</time>
      </trkpt>
      <trkpt lat="48.53708" lon="2.00299">
        <ele>122</ele>
        <time>2023-12-10T10:18:02Z</time>
      </trkpt>
      <trkpt lat="48.53711" lon="2.00294">
        <ele>122</ele>
        <time>2023-12-10T10:18:03Z</time>
      </trkpt>
      <trkpt lat="48.53715" lon="2.00289">
        <ele>122</ele>
        <time>2023-12-10T10:18:04Z</time>
      </trkpt>
      <trkpt lat="48.53718" lon="2.00284">
        <ele>122</ele>
        <time>2023-12-10T10:18:05Z</time>
      </trkpt>
      <trkpt lat="48.53721" lon="2.00278">
        <ele>123.4</ele>
        <time>2023-12-10T10:18:06Z</time>
      </trkpt>
      <trkpt lat="48.53724" lon="2.00273">
        <ele>123.4</ele>
        <time>2023-12-10T10:18:07Z</time>
      </trkpt>
      <trkpt lat="48.53726" lon="2.00268">
        <ele>123.4</ele>
        <time>2023-12-10T10:18:08Z</time>
      </trkpt>
      <trkpt lat="48.53729" lon="2.00262">
        <ele>124.4</ele>
        <time>2023-12-10T10:18:09Z</time>
      </trkpt>
      <trkpt lat="48.53732" lon="2.00258">
        <ele>124.6</ele>
        <time>2023-12-10T10:18:10Z</time>
      </trkpt>
      <trkpt lat="48.53736" lon="2.00253">
        <ele>124.6</ele>
        <time>2023-12-10T10:18:11Z</time>
      </trkpt>
      <trkpt lat="48.5374" lon="2.00249">
        <ele>124.6</ele>
        <time>2023-12-10T10:18:12Z</time>
      </trkpt>
      <trkpt lat="48.53744" lon="2.00245">
        <ele>124.6</ele>
        <time>2023-12-10T10:18:13Z</time>
      </trkpt>
      <trkpt lat="48.53748" lon="2.00241">
        <ele>125</ele>
        <time>2023-12-10T10:18:14Z</time>
      </trkpt>
      <trkpt lat="48.53752" lon="2.00237">
        <ele>125</ele>
        <time>2023-12-10T10:18:15Z</time>
      </trkpt>
      <trkpt lat="48.53756" lon="2.00233">
        <ele>125</ele>
        <time>2023-12-10T10:18:16Z</time>
      </trkpt>
      <trkpt lat="48.53759" lon="2.00228">
        <ele>125.4</ele>
        <time>2023-12-10T10:18:17Z</time>
      </trkpt>
      <trkpt lat="48.53762" lon="2.00222">
        <ele>125.8</ele>
        <time>2023-12-10T10:18:18Z</time>
      </trkpt>
      <trkpt lat="48.53764" lon="2.00217">
        <ele>125.8</ele>
        <time>2023-12-10T10:18:19Z</time>
      </trkpt>
      <trkpt lat="48.53767" lon="2.00212">
        <ele>125.8</ele>
        <time>2023-12-10T10:18:20Z</time>
      </trkpt>
      <trkpt lat="48.5377" lon="2.00207">
        <ele>126.8</ele>
        <time>2023-12-10T10:18:21Z</time>
      </trkpt>
      <trkpt lat="48.53772" lon="2.00202">
        <ele>127.4</ele>
        <time>2023-12-10T10:18:22Z</time>
      </trkpt>
      <trkpt lat="48.53775" lon="2.00197">
        <ele>127.4</ele>
        <time>2023-12-10T10:18:23Z</time>
      </trkpt>
      <trkpt lat="48.53777" lon="2.00193">
        <ele>127.4</ele>
        <time>2023-12-10T10:18:24Z</time>
      </trkpt>
      <trkpt lat="48.5378" lon="2.00188">
        <ele>127.4</ele>
        <time>2023-12-10T10:18:25Z</time>
      </trkpt>
      <trkpt lat="48.53782" lon="2.00183">
        <ele>128.4</ele>
        <time>2023-12-10T10:18:26Z</time>
      </trkpt>
      <trkpt lat="48.53785" lon="2.00178">
        <ele>128.4</ele>
        <time>2023-12-10T10:18:27Z</time>
      </trkpt>
      <trkpt lat="48.53787" lon="2.00174">
        <ele>128.4</ele>
        <time>2023-12-10T10:18:28Z</time>
      </trkpt>
      <trkpt lat="48.5379" lon="2.00169">
        <ele>128.4</ele>
        <time>2023-12-10T10:18:29Z</time>
      </trkpt>
      <trkpt lat="48.53792" lon="2.00165">
        <ele>128.6</ele>
        <time>2023-12-10T10:18:30Z</time>
      </trkpt>
      <trkpt lat="48.53795" lon="2.0016">
        <ele>128.6</ele>
        <time>2023-12-10T10:18:31Z</time>
      </trkpt>
      <trkpt lat="48.53797" lon="2.00156">
        <ele>128.6</ele>
        <time>2023-12-10T10:18:32Z</time>
      </trkpt>
      <trkpt lat="48.538" lon="2.00152">
        <ele>129.6</ele>
        <time>2023-12-10T10:18:33Z</time>
      </trkpt>
      <trkpt lat="48.53802" lon="2.00147">
        <ele>131.2</ele>
        <time>2023-12-10T10:18:34Z</time>
      </trkpt>
      <trkpt lat="48.53804" lon="2.00143">
        <ele>131.2</ele>
        <time>2023-12-10T10:18:35Z</time>
      </trkpt>
      <trkpt lat="48.53807" lon="2.00139">
        <ele>131.2</ele>
        <time>2023-12-10T10:18:36Z</time>
      </trkpt>
      <trkpt lat="48.53809" lon="2.00135">
        <ele>131.2</ele>
        <time>2023-12-10T10:18:37Z</time>
      </trkpt>
      <trkpt lat="48.53811" lon="2.0013">
        <ele>132</ele>
        <time>2023-12-10T10:18:38Z</time>
      </trkpt>
      <trkpt lat="48.53814" lon="2.00126">
        <ele>132</ele>
        <time>2023-12-10T10:18:39Z</time>
      </trkpt>
      <trkpt lat="48.53816" lon="2.00122">
        <ele>132</ele>
        <time>2023-12-10T10:18:40Z</time>
      </trkpt>
      <trkpt lat="48.53819" lon="2.00118">
        <ele>132</ele>
        <time>2023-12-10T10:18:41Z</time>
      </trkpt>
      <trkpt lat="48.53821" lon="2.00115">
        <ele>132.2</ele>
        <time>2023-12-10T10:18:42Z</time>
      </trkpt>
      <trkpt lat="48.53824" lon="2.00111">
        <ele>132.2</ele>
        <time>2023-12-10T10:18:43Z</time>
      </trkpt>
      <trkpt lat="48.53826" lon="2.00107">
        <ele>132.2</ele>
        <time>2023-12-10T10:18:44Z</time>
      </trkpt>
      <trkpt lat="48.53829" lon="2.00103">
        <ele>133.2</ele>
        <time>2023-12-10T10:18:45Z</time>
      </trkpt>
      <trkpt lat="48.53831" lon="2.00099">
        <ele>133.8</ele>
        <time>2023-12-10T10:18:46Z</time>
      </trkpt>
      <trkpt lat="48.53834" lon="2.00095">
        <ele>133.8</ele>
        <time>2023-12-10T10:18:47Z</time>
      </trkpt>
      <trkpt lat="48.53836" lon="2.00091">
        <ele>133.8</ele>
        <time>2023-12-10T10:18:48Z</time>
      </trkpt>
      <trkpt lat="48.53838" lon="2.00087">
        <ele>134.8</ele>
        <time>2023-12-10T10:18:49Z</time>
      </trkpt>
      <trkpt lat="48.53841" lon="2.00082">
        <ele>134.4</ele>
        <time>2023-12-10T10:18:50Z</time>
      </trkpt>
      <trkpt lat="48.53843" lon="2.00078">
        <ele>134.4</ele>
        <time>2023-12-10T10:18:51Z</time>
      </trkpt>
      <trkpt lat="48.53846" lon="2.00075">
        <ele>134.4</ele>
        <time>2023-12-10T10:18:52Z</time>
      </trkpt>
      <trkpt lat="48.53848" lon="2.00071">
        <ele>135.4</ele>
        <time>2023-12-10T10:18:53Z</time>
      </trkpt>
      <trkpt lat="48.53851" lon="2.00067">
        <ele>135.6</ele>
        <time>2023-12-10T10:18:54Z</time>
      </trkpt>
      <trkpt lat="48.53853" lon="2.00062">
        <ele>135.6</ele>
        <time>2023-12-10T10:18:55Z</time>
      </trkpt>
      <trkpt lat="48.53856" lon="2.00058">
        <ele>135.6</ele>
        <time>2023-12-10T10:18:56Z</time>
      </trkpt>
      <trkpt lat="48.53858" lon="2.00054">
        <ele>136.4</ele>
        <time>2023-12-10T10:18:57Z</time>
      </trkpt>
      <trkpt lat="48.5386" lon="2.00051">
        <ele>136.4</ele>
        <time>2023-12-10T10:18:58Z</time>
      </trkpt>
      <trkpt lat="48.53862" lon="2.00047">
        <ele>136.4</ele>
        <time>2023-12-10T10:18:59Z</time>
      </trkpt>
      <trkpt lat="48.53864" lon="2.00043">
        <ele>136.4</ele>
        <time>2023-12-10T10:19:00Z</time>
      </trkpt>
      <trkpt lat="48.53867" lon="2.00039">
        <ele>136.6</ele>
        <time>2023-12-10T10:19:01Z</time>
      </trkpt>
      <trkpt lat="48.53869" lon="2.00035">
        <ele>137.4</ele>
        <time>2023-12-10T10:19:02Z</time>
      </trkpt>
      <trkpt lat="48.53872" lon="2.00031">
        <ele>137.4</ele>
        <time>2023-12-10T10:19:03Z</time>
      </trkpt>
      <trkpt lat="48.53874" lon="2.00027">
        <ele>137.4</ele>
        <time>2023-12-10T10:19:04Z</time>
      </trkpt>
      <trkpt lat="48.53876" lon="2.00023">
        <ele>137.4</ele>
        <time>2023-12-10T10:19:05Z</time>
      </trkpt>
      <trkpt lat="48.53878" lon="2.00019">
        <ele>137.8</ele>
        <time>2023-12-10T10:19:06Z</time>
      </trkpt>
      <trkpt lat="48.5388" lon="2.00016">
        <ele>137.8</ele>
        <time>2023-12-10T10:19:07Z</time>
      </trkpt>
      <trkpt lat="48.53882" lon="2.00012">
        <ele>137.8</ele>
        <time>2023-12-10T10:19:08Z</time>
      </trkpt>
      <trkpt lat="48.53885" lon="2.00008">
        <ele>138.8</ele>
        <time>2023-12-10T10:19:09Z</time>
      </trkpt>
      <trkpt lat="48.53887" lon="2.00005">
        <ele>138.8</ele>
        <time>2023-12-10T10:19:10Z</time>
      </trkpt>
      <trkpt lat="48.53889" lon="2.00001">
        <ele>138.8</ele>
        <time>2023-12-10T10:19:11Z</time>
      </trkpt>
      <trkpt lat="48.53891" lon="1.99998">
        <ele>138.8</ele>
        <time>2023-12-10T10:19:12Z</time>
      </trkpt>
      <trkpt lat="48.53893" lon="1.99994">
        <ele>139</ele>
        <time>2023-12-10T10:19:13Z</time>
      </trkpt>
      <trkpt lat="48.53895" lon="1.99991">
        <ele>139</ele>
        <time>2023-12-10T10:19:14Z</time>
      </trkpt>
      <trkpt lat="48.53897" lon="1.99987">
        <ele>139</ele>
        <time>2023-12-10T10:19:15Z</time>
      </trkpt>
      <trkpt lat="48.53899" lon="1.99984">
        <ele>139</ele>
        <time>2023-12-10T10:19:16Z</time>
      </trkpt>
      <trkpt lat="48.53901" lon="1.9998">
        <ele>140</ele>
        <time>2023-12-10T10:19:17Z</time>
      </trkpt>
      <trkpt lat="48.53903" lon="1.99977">
        <ele>141</ele>
        <time>2023-12-10T10:19:18Z</time>
      </trkpt>
      <trkpt lat="48.53906" lon="1.99973">
        <ele>141</ele>
        <time>2023-12-10T10:19:19Z</time>
      </trkpt>
      <trkpt lat="48.53908" lon="1.9997">
        <ele>141</ele>
        <time>2023-12-10T10:19:20Z</time>
      </trkpt>
      <trkpt lat="48.5391" lon="1.99966">
        <ele>141</ele>
        <time>2023-12-10T10:19:21Z</time>
      </trkpt>
      <trkpt lat="48.53912" lon="1.99962">
        <ele>141.2</ele>
        <time>2023-12-10T10:19:22Z</time>
      </trkpt>
      <trkpt lat="48.53915" lon="1.99958">
        <ele>141.2</ele>
        <time>2023-12-10T10:19:23Z</time>
      </trkpt>
      <trkpt lat="48.53917" lon="1.99955">
        <ele>141.2</ele>
        <time>2023-12-10T10:19:24Z</time>
      </trkpt>
      <trkpt lat="48.53919" lon="1.99952">
        <ele>142.2</ele>
        <time>2023-12-10T10:19:25Z</time>
      </trkpt>
      <trkpt lat="48.53921" lon="1.99949">
        <ele>142.6</ele>
        <time>2023-12-10T10:19:26Z</time>
      </trkpt>
      <trkpt lat="48.53924" lon="1.99947">
        <ele>142.6</ele>
        <time>2023-12-10T10:19:27Z</time>
      </trkpt>
      <trkpt lat="48.53926" lon="1.99944">
        <ele>142.6</ele>
        <time>2023-12-10T10:19:28Z</time>
      </trkpt>
      <trkpt lat="48.53929" lon="1.99941">
        <ele>142.6</ele>
        <time>2023-12-10T10:19:29Z</time>
      </trkpt>
      <trkpt lat="48.53931" lon="1.99938">
        <ele>143.6</ele>
        <time>2023-12-10T10:19:30Z</time>
      </trkpt>
      <trkpt lat="48.53934" lon="1.99935">
        <ele>143.6</ele>
        <time>2023-12-10T10:19:31Z</time>
      </trkpt>
      <trkpt lat="48.53936" lon="1.99933">
        <ele>143.6</ele>
        <time>2023-12-10T10:19:32Z</time>
      </trkpt>
      <trkpt lat="48.53938" lon="1.9993">
        <ele>144.2</ele>
        <time>2023-12-10T10:19:33Z</time>
      </trkpt>
      <trkpt lat="48.53941" lon="1.99927">
        <ele>144.6</ele>
        <time>2023-12-10T10:19:34Z</time>
      </trkpt>
      <trkpt lat="48.53943" lon="1.99923">
        <ele>144.6</ele>
        <time>2023-12-10T10:19:35Z</time>
      </trkpt>
      <trkpt lat="48.53945" lon="1.99918">
        <ele>144.6</ele>
        <time>2023-12-10T10:19:36Z</time>
      </trkpt>
      <trkpt lat="48.53947" lon="1.99916">
        <ele>144.6</ele>
        <time>2023-12-10T10:19:37Z</time>
      </trkpt>
      <trkpt lat="48.5395" lon="1.99913">
        <ele>145.8</ele>
        <time>2023-12-10T10:19:38Z</time>
      </trkpt>
      <trkpt lat="48.53952" lon="1.99909">
        <ele>145.8</ele>
        <time>2023-12-10T10:19:39Z</time>
      </trkpt>
      <trkpt lat="48.53954" lon="1.99905">
        <ele>145.8</ele>
        <time>2023-12-10T10:19:40Z</time>
      </trkpt>
      <trkpt lat="48.53956" lon="1.99901">
        <ele>146.4</ele>
        <time>2023-12-10T10:19:41Z</time>
      </trkpt>
      <trkpt lat="48.53958" lon="1.99897">
        <ele>146.8</ele>
        <time>2023-12-10T10:19:42Z</time>
      </trkpt>
      <trkpt lat="48.53961" lon="1.99894">
        <ele>146.8</ele>
        <time>2023-12-10T10:19:43Z</time>
      </trkpt>
      <trkpt lat="48.53963" lon="1.99891">
        <ele>146.8</ele>
        <time>2023-12-10T10:19:44Z</time>
      </trkpt>
      <trkpt lat="48.53965" lon="1.99887">
        <ele>147.8</ele>
        <time>2023-12-10T10:19:45Z</time>
      </trkpt>
      <trkpt lat="48.53968" lon="1.99884">
        <ele>147.8</ele>
        <time>2023-12-10T10:19:46Z</time>
      </trkpt>
      <trkpt lat="48.5397" lon="1.99881">
        <ele>147.8</ele>
        <time>2023-12-10T10:19:47Z</time>
      </trkpt>
      <trkpt lat="48.53972" lon="1.99878">
        <ele>147.8</ele>
        <time>2023-12-10T10:19:48Z</time>
      </trkpt>
      <trkpt lat="48.53974" lon="1.99874">
        <ele>148.8</ele>
        <time>2023-12-10T10:19:49Z</time>
      </trkpt>
      <trkpt lat="48.53976" lon="1.99871">
        <ele>148.6</ele>
        <time>2023-12-10T10:19:50Z</time>
      </trkpt>
      <trkpt lat="48.53978" lon="1.99869">
        <ele>148.6</ele>
        <time>2023-12-10T10:19:51Z</time>
      </trkpt>
      <trkpt lat="48.5398" lon="1.99866">
        <ele>148.6</ele>
        <time>2023-12-10T10:19:52Z</time>
      </trkpt>
      <trkpt lat="48.53983" lon="1.99863">
        <ele>149.6</ele>
        <time>2023-12-10T10:19:53Z</time>
      </trkpt>
      <trkpt lat="48.53985" lon="1.9986">
        <ele>150.2</ele>
        <time>2023-12-10T10:19:54Z</time>
      </trkpt>
      <trkpt lat="48.53988" lon="1.99858">
        <ele>150.2</ele>
        <time>2023-12-10T10:19:55Z</time>
      </trkpt>
      <trkpt lat="48.5399" lon="1.99856">
        <ele>150.2</ele>
        <time>2023-12-10T10:19:56Z</time>
      </trkpt>
      <trkpt lat="48.53993" lon="1.99853">
        <ele>150.6</ele>
        <time>2023-12-10T10:19:57Z</time>
      </trkpt>
      <trkpt lat="48.53995" lon="1.9985">
        <ele>151.2</ele>
        <time>2023-12-10T10:19:58Z</time>
      </trkpt>
      <trkpt lat="48.53997" lon="1.99847">
        <ele>151.2</ele>
        <time>2023-12-10T10:19:59Z</time>
      </trkpt>
      <trkpt lat="48.53999" lon="1.99844">
        <ele>151.2</ele>
        <time>2023-12-10T10:20:00Z</time>
      </trkpt>
      <trkpt lat="48.54002" lon="1.99841">
        <ele>151.2</ele>
        <time>2023-12-10T10:20:01Z</time>
      </trkpt>
      <trkpt lat="48.54004" lon="1.99838">
        <ele>152.2</ele>
        <time>2023-12-10T10:20:02Z</time>
      </trkpt>
      <trkpt lat="48.54007" lon="1.99836">
        <ele>152.2</ele>
        <time>2023-12-10T10:20:03Z</time>
      </trkpt>
      <trkpt lat="48.54009" lon="1.99833">
        <ele>152.2</ele>
        <time>2023-12-10T10:20:04Z</time>
      </trkpt>
      <trkpt lat="48.54011" lon="1.9983">
        <ele>152.8</ele>
        <time>2023-12-10T10:20:05Z</time>
      </trkpt>
      <trkpt lat="48.54014" lon="1.99826">
        <ele>153.2</ele>
        <time>2023-12-10T10:20:06Z</time>
      </trkpt>
      <trkpt lat="48.54017" lon="1.99824">
        <ele>153.2</ele>
        <time>2023-12-10T10:20:07Z</time>
      </trkpt>
      <trkpt lat="48.54019" lon="1.9982">
        <ele>153.2</ele>
        <time>2023-12-10T10:20:08Z</time>
      </trkpt>
      <trkpt lat="48.54022" lon="1.99817">
        <ele>154</ele>
        <time>2023-12-10T10:20:09Z</time>
      </trkpt>
      <trkpt lat="48.54024" lon="1.99813">
        <ele>154.2</ele>
        <time>2023-12-10T10:20:10Z</time>
      </trkpt>
      <trkpt lat="48.54026" lon="1.9981">
        <ele>154.2</ele>
        <time>2023-12-10T10:20:11Z</time>
      </trkpt>
      <trkpt lat="48.54029" lon="1.99807">
        <ele>154.2</ele>
        <time>2023-12-10T10:20:12Z</time>
      </trkpt>
      <trkpt lat="48.54032" lon="1.99804">
        <ele>155</ele>
        <time>2023-12-10T10:20:13Z</time>
      </trkpt>
      <trkpt lat="48.54034" lon="1.99802">
        <ele>155</ele>
        <time>2023-12-10T10:20:14Z</time>
      </trkpt>
      <trkpt lat="48.54037" lon="1.99799">
        <ele>155</ele>
        <time>2023-12-10T10:20:15Z</time>
      </trkpt>
      <trkpt lat="48.5404" lon="1.99796">
        <ele>155</ele>
        <time>2023-12-10T10:20:16Z</time>
      </trkpt>
      <trkpt lat="48.54042" lon="1.99793">
        <ele>156</ele>
        <time>2023-12-10T10:20:17Z</time>
      </trkpt>
      <trkpt lat="48.54045" lon="1.99791">
        <ele>156.4</ele>
        <time>2023-12-10T10:20:18Z</time>
      </trkpt>
      <trkpt lat="48.54047" lon="1.99789">
        <ele>156.4</ele>
        <time>2023-12-10T10:20:19Z</time>
      </trkpt>
      <trkpt lat="48.5405" lon="1.99787">
        <ele>156.4</ele>
        <time>2023-12-10T10:20:20Z</time>
      </trkpt>
      <trkpt lat="48.54052" lon="1.99784">
        <ele>157</ele>
        <time>2023-12-10T10:20:21Z</time>
      </trkpt>
      <trkpt lat="48.54055" lon="1.99781">
        <ele>157.2</ele>
        <time>2023-12-10T10:20:22Z</time>
      </trkpt>
      <trkpt lat="48.54057" lon="1.99778">
        <ele>157.2</ele>
        <time>2023-12-10T10:20:23Z</time>
      </trkpt>
      <trkpt lat="48.5406" lon="1.99776">
        <ele>157.2</ele>
        <time>2023-12-10T10:20:24Z</time>
      </trkpt>
      <trkpt lat="48.54062" lon="1.99774">
        <ele>158</ele>
        <time>2023-12-10T10:20:25Z</time>
      </trkpt>
      <trkpt lat="48.54065" lon="1.99772">
        <ele>158.2</ele>
        <time>2023-12-10T10:20:26Z</time>
      </trkpt>
      <trkpt lat="48.54067" lon="1.99769">
        <ele>158.2</ele>
        <time>2023-12-10T10:20:27Z</time>
      </trkpt>
      <trkpt lat="48.5407" lon="1.99766">
        <ele>158.2</ele>
        <time>2023-12-10T10:20:28Z</time>
      </trkpt>
      <trkpt lat="48.54073" lon="1.99763">
        <ele>159.2</ele>
        <time>2023-12-10T10:20:29Z</time>
      </trkpt>
      <trkpt lat="48.54075" lon="1.9976">
        <ele>159.6</ele>
        <time>2023-12-10T10:20:30Z</time>
      </trkpt>
      <trkpt lat="48.54077" lon="1.99757">
        <ele>159.6</ele>
        <time>2023-12-10T10:20:31Z</time>
      </trkpt>
      <trkpt lat="48.5408" lon="1.99754">
        <ele>159.6</ele>
        <time>2023-12-10T10:20:32Z</time>
      </trkpt>
      <trkpt lat="48.54082" lon="1.99751">
        <ele>160.2</ele>
        <time>2023-12-10T10:20:33Z</time>
      </trkpt>
      <trkpt lat="48.54085" lon="1.99748">
        <ele>160.6</ele>
        <time>2023-12-10T10:20:34Z</time>
      </trkpt>
      <trkpt lat="48.54087" lon="1.99745">
        <ele>160.6</ele>
        <time>2023-12-10T10:20:35Z</time>
      </trkpt>
      <trkpt lat="48.54089" lon="1.99741">
        <ele>160.6</ele>
        <time>2023-12-10T10:20:36Z</time>
      </trkpt>
      <trkpt lat="48.54092" lon="1.99739">
        <ele>161.2</ele>
        <time>2023-12-10T10:20:37Z</time>
      </trkpt>
      <trkpt lat="48.54095" lon="1.99736">
        <ele>161.8</ele>
        <time>2023-12-10T10:20:38Z</time>
      </trkpt>
      <trkpt lat="48.54097" lon="1.99733">
        <ele>161.8</ele>
        <time>2023-12-10T10:20:39Z</time>
      </trkpt>
      <trkpt lat="48.541" lon="1.9973">
        <ele>161.8</ele>
        <time>2023-12-10T10:20:40Z</time>
      </trkpt>
      <trkpt lat="48.54102" lon="1.99727">
        <ele>162.4</ele>
        <time>2023-12-10T10:20:41Z</time>
      </trkpt>
      <trkpt lat="48.54105" lon="1.99724">
        <ele>162.4</ele>
        <time>2023-12-10T10:20:42Z</time>
      </trkpt>
      <trkpt lat="48.54108" lon="1.99721">
        <ele>162.4</ele>
        <time>2023-12-10T10:20:43Z</time>
      </trkpt>
      <trkpt lat="48.5411" lon="1.99718">
        <ele>162.4</ele>
        <time>2023-12-10T10:20:44Z</time>
      </trkpt>
      <trkpt lat="48.54113" lon="1.99716">
        <ele>162.4</ele>
        <time>2023-12-10T10:20:45Z</time>
      </trkpt>
      <trkpt lat="48.54115" lon="1.99713">
        <ele>162.8</ele>
        <time>2023-12-10T10:20:46Z</time>
      </trkpt>
      <trkpt lat="48.54118" lon="1.99709">
        <ele>162.8</ele>
        <time>2023-12-10T10:20:47Z</time>
      </trkpt>
      <trkpt lat="48.54121" lon="1.99707">
        <ele>162.8</ele>
        <time>2023-12-10T10:20:48Z</time>
      </trkpt>
      <trkpt lat="48.54123" lon="1.99704">
        <ele>162.8</ele>
        <time>2023-12-10T10:20:49Z</time>
      </trkpt>
      <trkpt lat="48.54126" lon="1.997">
        <ele>162.8</ele>
        <time>2023-12-10T10:20:50Z</time>
      </trkpt>
      <trkpt lat="48.54128" lon="1.99698">
        <ele>162.8</ele>
        <time>2023-12-10T10:20:51Z</time>
      </trkpt>
      <trkpt lat="48.54131" lon="1.99695">
        <ele>162.8</ele>
        <time>2023-12-10T10:20:52Z</time>
      </trkpt>
      <trkpt lat="48.54134" lon="1.99692">
        <ele>163.2</ele>
        <time>2023-12-10T10:20:53Z</time>
      </trkpt>
      <trkpt lat="48.54137" lon="1.99689">
        <ele>163.4</ele>
        <time>2023-12-10T10:20:54Z</time>
      </trkpt>
      <trkpt lat="48.5414" lon="1.99685">
        <ele>163.4</ele>
        <time>2023-12-10T10:20:55Z</time>
      </trkpt>
      <trkpt lat="48.54143" lon="1.99681">
        <ele>163.4</ele>
        <time>2023-12-10T10:20:56Z</time>
      </trkpt>
      <trkpt lat="48.54146" lon="1.99677">
        <ele>163.4</ele>
        <time>2023-12-10T10:20:57Z</time>
      </trkpt>
      <trkpt lat="48.54149" lon="1.99673">
        <ele>163.6</ele>
        <time>2023-12-10T10:20:58Z</time>
      </trkpt>
      <trkpt lat="48.54152" lon="1.99669">
        <ele>163.6</ele>
        <time>2023-12-10T10:20:59Z</time>
      </trkpt>
      <trkpt lat="48.54155" lon="1.99665">
        <ele>163.6</ele>
        <time>2023-12-10T10:21:00Z</time>
      </trkpt>
      <trkpt lat="48.54158" lon="1.99662">
        <ele>163.6</ele>
        <time>2023-12-10T10:21:01Z</time>
      </trkpt>
      <trkpt lat="48.54161" lon="1.99658">
        <ele>164.2</ele>
        <time>2023-12-10T10:21:02Z</time>
      </trkpt>
      <trkpt lat="48.54164" lon="1.99655">
        <ele>164.2</ele>
        <time>2023-12-10T10:21:03Z</time>
      </trkpt>
      <trkpt lat="48.54168" lon="1.99652">
        <ele>164.2</ele>
        <time>2023-12-10T10:21:04Z</time>
      </trkpt>
      <trkpt lat="48.54171" lon="1.9965">
        <ele>163.8</ele>
        <time>2023-12-10T10:21:05Z</time>
      </trkpt>
      <trkpt lat="48.54174" lon="1.99647">
        <ele>164.4</ele>
        <time>2023-12-10T10:21:06Z</time>
      </trkpt>
      <trkpt lat="48.54176" lon="1.99644">
        <ele>164.4</ele>
        <time>2023-12-10T10:21:07Z</time>
      </trkpt>
      <trkpt lat="48.54179" lon="1.99639">
        <ele>164.4</ele>
        <time>2023-12-10T10:21:08Z</time>
      </trkpt>
      <trkpt lat="48.54183" lon="1.99636">
        <ele>164</ele>
        <time>2023-12-10T10:21:09Z</time>
      </trkpt>
      <trkpt lat="48.54186" lon="1.99632">
        <ele>164.4</ele>
        <time>2023-12-10T10:21:10Z</time>
      </trkpt>
      <trkpt lat="48.5419" lon="1.99628">
        <ele>164.4</ele>
        <time>2023-12-10T10:21:11Z</time>
      </trkpt>
      <trkpt lat="48.54193" lon="1.99624">
        <ele>164.4</ele>
        <time>2023-12-10T10:21:12Z</time>
      </trkpt>
      <trkpt lat="48.54197" lon="1.99618">
        <ele>163.6</ele>
        <time>2023-12-10T10:21:13Z</time>
      </trkpt>
      <trkpt lat="48.54201" lon="1.99614">
        <ele>164.4</ele>
        <time>2023-12-10T10:21:14Z</time>
      </trkpt>
      <trkpt lat="48.54204" lon="1.99609">
        <ele>164.4</ele>
        <time>2023-12-10T10:21:15Z</time>
      </trkpt>
      <trkpt lat="48.54208" lon="1.99604">
        <ele>164.4</ele>
        <time>2023-12-10T10:21:16Z</time>
      </trkpt>
      <trkpt lat="48.54212" lon="1.99599">
        <ele>164.4</ele>
        <time>2023-12-10T10:21:17Z</time>
      </trkpt>
      <trkpt lat="48.54215" lon="1.99593">
        <ele>165</ele>
        <time>2023-12-10T10:21:18Z</time>
      </trkpt>
      <trkpt lat="48.54218" lon="1.99585">
        <ele>165</ele>
        <time>2023-12-10T10:21:19Z</time>
      </trkpt>
      <trkpt lat="48.54221" lon="1.99578">
        <ele>165</ele>
        <time>2023-12-10T10:21:20Z</time>
      </trkpt>
      <trkpt lat="48.54225" lon="1.99571">
        <ele>164.8</ele>
        <time>2023-12-10T10:21:21Z</time>
      </trkpt>
      <trkpt lat="48.54229" lon="1.99563">
        <ele>165</ele>
        <time>2023-12-10T10:21:22Z</time>
      </trkpt>
      <trkpt lat="48.54232" lon="1.99556">
        <ele>165</ele>
        <time>2023-12-10T10:21:23Z</time>
      </trkpt>
      <trkpt lat="48.54235" lon="1.99549">
        <ele>165</ele>
        <time>2023-12-10T10:21:24Z</time>
      </trkpt>
      <trkpt lat="48.54238" lon="1.99542">
        <ele>165</ele>
        <time>2023-12-10T10:21:25Z</time>
      </trkpt>
      <trkpt lat="48.54241" lon="1.99535">
        <ele>165.2</ele>
        <time>2023-12-10T10:21:26Z</time>
      </trkpt>
      <trkpt lat="48.54244" lon="1.99527">
        <ele>165.2</ele>
        <time>2023-12-10T10:21:27Z</time>
      </trkpt>
      <trkpt lat="48.54246" lon="1.9952">
        <ele>165.2</ele>
        <time>2023-12-10T10:21:28Z</time>
      </trkpt>
      <trkpt lat="48.54249" lon="1.99512">
        <ele>165.2</ele>
        <time>2023-12-10T10:21:29Z</time>
      </trkpt>
      <trkpt lat="48.54251" lon="1.99505">
        <ele>164.6</ele>
        <time>2023-12-10T10:21:30Z</time>
      </trkpt>
      <trkpt lat="48.54254" lon="1.99497">
        <ele>164.6</ele>
        <time>2023-12-10T10:21:31Z</time>
      </trkpt>
      <trkpt lat="48.54256" lon="1.99489">
        <ele>164.6</ele>
        <time>2023-12-10T10:21:32Z</time>
      </trkpt>
      <trkpt lat="48.54259" lon="1.99481">
        <ele>164.2</ele>
        <time>2023-12-10T10:21:33Z</time>
      </trkpt>
      <trkpt lat="48.54262" lon="1.99473">
        <ele>164.2</ele>
        <time>2023-12-10T10:21:34Z</time>
      </trkpt>
      <trkpt lat="48.54265" lon="1.99468">
        <ele>164.2</ele>
        <time>2023-12-10T10:21:35Z</time>
      </trkpt>
      <trkpt lat="48.5427" lon="1.99463">
        <ele>164.2</ele>
        <time>2023-12-10T10:21:36Z</time>
      </trkpt>
      <trkpt lat="48.54275" lon="1.99461">
        <ele>164.2</ele>
        <time>2023-12-10T10:21:37Z</time>
      </trkpt>
      <trkpt lat="48.5428" lon="1.99459">
        <ele>164.4</ele>
        <time>2023-12-10T10:21:38Z</time>
      </trkpt>
      <trkpt lat="48.54285" lon="1.99458">
        <ele>164.4</ele>
        <time>2023-12-10T10:21:39Z</time>
      </trkpt>
      <trkpt lat="48.54291" lon="1.99458">
        <ele>164.4</ele>
        <time>2023-12-10T10:21:40Z</time>
      </trkpt>
      <trkpt lat="48.54297" lon="1.99458">
        <ele>164</ele>
        <time>2023-12-10T10:21:41Z</time>
      </trkpt>
      <trkpt lat="48.54302" lon="1.99459">
        <ele>165</ele>
        <time>2023-12-10T10:21:42Z</time>
      </trkpt>
      <trkpt lat="48.54307" lon="1.99459">
        <ele>165</ele>
        <time>2023-12-10T10:21:43Z</time>
      </trkpt>
      <trkpt lat="48.54312" lon="1.99459">
        <ele>165</ele>
        <time>2023-12-10T10:21:44Z</time>
      </trkpt>
      <trkpt lat="48.54317" lon="1.99459">
        <ele>164.4</ele>
        <time>2023-12-10T10:21:45Z</time>
      </trkpt>
      <trkpt lat="48.54321" lon="1.9946">
        <ele>164.8</ele>
        <time>2023-12-10T10:21:46Z</time>
      </trkpt>
      <trkpt lat="48.54325" lon="1.9946">
        <ele>164.8</ele>
        <time>2023-12-10T10:21:47Z</time>
      </trkpt>
      <trkpt lat="48.5433" lon="1.99461">
        <ele>164.8</ele>
        <time>2023-12-10T10:21:48Z</time>
      </trkpt>
      <trkpt lat="48.54335" lon="1.99462">
        <ele>164.4</ele>
        <time>2023-12-10T10:21:49Z</time>
      </trkpt>
      <trkpt lat="48.5434" lon="1.99462">
        <ele>164.8</ele>
        <time>2023-12-10T10:21:50Z</time>
      </trkpt>
      <trkpt lat="48.54345" lon="1.99462">
        <ele>164.8</ele>
        <time>2023-12-10T10:21:51Z</time>
      </trkpt>
      <trkpt lat="48.5435" lon="1.99462">
        <ele>164.8</ele>
        <time>2023-12-10T10:21:52Z</time>
      </trkpt>
      <trkpt lat="48.54356" lon="1.99462">
        <ele>164.8</ele>
        <time>2023-12-10T10:21:53Z</time>
      </trkpt>
      <trkpt lat="48.5436" lon="1.99462">
        <ele>165.2</ele>
        <time>2023-12-10T10:21:54Z</time>
      </trkpt>
      <trkpt lat="48.54366" lon="1.99464">
        <ele>165.2</ele>
        <time>2023-12-10T10:21:55Z</time>
      </trkpt>
      <trkpt lat="48.54372" lon="1.99465">
        <ele>165.2</ele>
        <time>2023-12-10T10:21:56Z</time>
      </trkpt>
      <trkpt lat="48.54379" lon="1.99466">
        <ele>165</ele>
        <time>2023-12-10T10:21:57Z</time>
      </trkpt>
      <trkpt lat="48.54384" lon="1.99467">
        <ele>165.4</ele>
        <time>2023-12-10T10:21:58Z</time>
      </trkpt>
      <trkpt lat="48.5439" lon="1.99467">
        <ele>165.4</ele>
        <time>2023-12-10T10:21:59Z</time>
      </trkpt>
      <trkpt lat="48.54397" lon="1.99468">
        <ele>165.4</ele>
        <time>2023-12-10T10:22:00Z</time>
      </trkpt>
      <trkpt lat="48.54404" lon="1.99469">
        <ele>164.6</ele>
        <time>2023-12-10T10:22:01Z</time>
      </trkpt>
      <trkpt lat="48.54412" lon="1.99469">
        <ele>164.4</ele>
        <time>2023-12-10T10:22:02Z</time>
      </trkpt>
      <trkpt lat="48.54419" lon="1.9947">
        <ele>164.4</ele>
        <time>2023-12-10T10:22:03Z</time>
      </trkpt>
      <trkpt lat="48.54427" lon="1.99471">
        <ele>164.4</ele>
        <time>2023-12-10T10:22:04Z</time>
      </trkpt>
      <trkpt lat="48.54434" lon="1.99472">
        <ele>164.4</ele>
        <time>2023-12-10T10:22:05Z</time>
      </trkpt>
      <trkpt lat="48.54443" lon="1.99474">
        <ele>163.6</ele>
        <time>2023-12-10T10:22:06Z</time>
      </trkpt>
      <trkpt lat="48.5445" lon="1.99474">
        <ele>163.6</ele>
        <time>2023-12-10T10:22:07Z</time>
      </trkpt>
      <trkpt lat="48.54458" lon="1.99476">
        <ele>163.6</ele>
        <time>2023-12-10T10:22:08Z</time>
      </trkpt>
      <trkpt lat="48.54466" lon="1.99477">
        <ele>162.8</ele>
        <time>2023-12-10T10:22:09Z</time>
      </trkpt>
      <trkpt lat="48.54474" lon="1.99478">
        <ele>163.2</ele>
        <time>2023-12-10T10:22:10Z</time>
      </trkpt>
      <trkpt lat="48.54482" lon="1.99479">
        <ele>163.2</ele>
        <time>2023-12-10T10:22:11Z</time>
      </trkpt>
      <trkpt lat="48.5449" lon="1.9948">
        <ele>163.2</ele>
        <time>2023-12-10T10:22:12Z</time>
      </trkpt>
      <trkpt lat="48.54498" lon="1.9948">
        <ele>162.6</ele>
        <time>2023-12-10T10:22:13Z</time>
      </trkpt>
      <trkpt lat="48.54507" lon="1.99481">
        <ele>162.4</ele>
        <time>2023-12-10T10:22:14Z</time>
      </trkpt>
      <trkpt lat="48.54516" lon="1.99481">
        <ele>162.4</ele>
        <time>2023-12-10T10:22:15Z</time>
      </trkpt>
      <trkpt lat="48.54524" lon="1.99481">
        <ele>162.4</ele>
        <time>2023-12-10T10:22:16Z</time>
      </trkpt>
      <trkpt lat="48.54532" lon="1.9948">
        <ele>163.4</ele>
        <time>2023-12-10T10:22:17Z</time>
      </trkpt>
      <trkpt lat="48.5454" lon="1.99479">
        <ele>164</ele>
        <time>2023-12-10T10:22:18Z</time>
      </trkpt>
      <trkpt lat="48.54548" lon="1.99477">
        <ele>164</ele>
        <time>2023-12-10T10:22:19Z</time>
      </trkpt>
      <trkpt lat="48.54556" lon="1.99475">
        <ele>164</ele>
        <time>2023-12-10T10:22:20Z</time>
      </trkpt>
      <trkpt lat="48.54564" lon="1.99472">
        <ele>164</ele>
        <time>2023-12-10T10:22:21Z</time>
      </trkpt>
      <trkpt lat="48.54573" lon="1.9947">
        <ele>162.6</ele>
        <time>2023-12-10T10:22:22Z</time>
      </trkpt>
      <trkpt lat="48.54581" lon="1.99467">
        <ele>162.6</ele>
        <time>2023-12-10T10:22:23Z</time>
      </trkpt>
      <trkpt lat="48.5459" lon="1.99465">
        <ele>162.6</ele>
        <time>2023-12-10T10:22:24Z</time>
      </trkpt>
      <trkpt lat="48.54598" lon="1.99462">
        <ele>162.6</ele>
        <time>2023-12-10T10:22:25Z</time>
      </trkpt>
      <trkpt lat="48.54607" lon="1.99459">
        <ele>161.8</ele>
        <time>2023-12-10T10:22:26Z</time>
      </trkpt>
      <trkpt lat="48.54615" lon="1.99457">
        <ele>161.8</ele>
        <time>2023-12-10T10:22:27Z</time>
      </trkpt>
      <trkpt lat="48.54624" lon="1.99454">
        <ele>161.8</ele>
        <time>2023-12-10T10:22:28Z</time>
      </trkpt>
      <trkpt lat="48.54632" lon="1.99451">
        <ele>161.8</ele>
        <time>2023-12-10T10:22:29Z</time>
      </trkpt>
      <trkpt lat="48.54641" lon="1.99449">
        <ele>161</ele>
        <time>2023-12-10T10:22:30Z</time>
      </trkpt>
      <trkpt lat="48.5465" lon="1.99445">
        <ele>161</ele>
        <time>2023-12-10T10:22:31Z</time>
      </trkpt>
      <trkpt lat="48.54659" lon="1.99443">
        <ele>161</ele>
        <time>2023-12-10T10:22:32Z</time>
      </trkpt>
      <trkpt lat="48.54668" lon="1.9944">
        <ele>161</ele>
        <time>2023-12-10T10:22:33Z</time>
      </trkpt>
      <trkpt lat="48.54678" lon="1.99438">
        <ele>160.2</ele>
        <time>2023-12-10T10:22:34Z</time>
      </trkpt>
      <trkpt lat="48.54687" lon="1.99435">
        <ele>160.2</ele>
        <time>2023-12-10T10:22:35Z</time>
      </trkpt>
      <trkpt lat="48.54696" lon="1.99433">
        <ele>160.2</ele>
        <time>2023-12-10T10:22:36Z</time>
      </trkpt>
      <trkpt lat="48.54706" lon="1.99431">
        <ele>159.6</ele>
        <time>2023-12-10T10:22:37Z</time>
      </trkpt>
      <trkpt lat="48.54715" lon="1.99429">
        <ele>158.4</ele>
        <time>2023-12-10T10:22:38Z</time>
      </trkpt>
      <trkpt lat="48.54725" lon="1.99428">
        <ele>158.4</ele>
        <time>2023-12-10T10:22:39Z</time>
      </trkpt>
      <trkpt lat="48.54735" lon="1.99429">
        <ele>158.4</ele>
        <time>2023-12-10T10:22:40Z</time>
      </trkpt>
      <trkpt lat="48.54745" lon="1.9943">
        <ele>158.4</ele>
        <time>2023-12-10T10:22:41Z</time>
      </trkpt>
      <trkpt lat="48.54755" lon="1.99433">
        <ele>157.6</ele>
        <time>2023-12-10T10:22:42Z</time>
      </trkpt>
      <trkpt lat="48.54765" lon="1.99436">
        <ele>157.6</ele>
        <time>2023-12-10T10:22:43Z</time>
      </trkpt>
      <trkpt lat="48.54775" lon="1.9944">
        <ele>157.6</ele>
        <time>2023-12-10T10:22:44Z</time>
      </trkpt>
      <trkpt lat="48.54785" lon="1.99443">
        <ele>156.6</ele>
        <time>2023-12-10T10:22:45Z</time>
      </trkpt>
      <trkpt lat="48.54795" lon="1.99447">
        <ele>155.6</ele>
        <time>2023-12-10T10:22:46Z</time>
      </trkpt>
      <trkpt lat="48.54805" lon="1.99449">
        <ele>155.6</ele>
        <time>2023-12-10T10:22:47Z</time>
      </trkpt>
      <trkpt lat="48.54815" lon="1.99452">
        <ele>155.6</ele>
        <time>2023-12-10T10:22:48Z</time>
      </trkpt>
      <trkpt lat="48.54825" lon="1.99456">
        <ele>154.6</ele>
        <time>2023-12-10T10:22:49Z</time>
      </trkpt>
      <trkpt lat="48.54835" lon="1.99459">
        <ele>154.6</ele>
        <time>2023-12-10T10:22:50Z</time>
      </trkpt>
      <trkpt lat="48.54844" lon="1.99463">
        <ele>154.6</ele>
        <time>2023-12-10T10:22:51Z</time>
      </trkpt>
      <trkpt lat="48.54854" lon="1.99466">
        <ele>154.6</ele>
        <time>2023-12-10T10:22:52Z</time>
      </trkpt>
      <trkpt lat="48.54864" lon="1.9947">
        <ele>153.6</ele>
        <time>2023-12-10T10:22:53Z</time>
      </trkpt>
      <trkpt lat="48.54874" lon="1.99473">
        <ele>153.6</ele>
        <time>2023-12-10T10:22:54Z</time>
      </trkpt>
      <trkpt lat="48.54884" lon="1.99476">
        <ele>153.6</ele>
        <time>2023-12-10T10:22:55Z</time>
      </trkpt>
      <trkpt lat="48.54894" lon="1.9948">
        <ele>153.6</ele>
        <time>2023-12-10T10:22:56Z</time>
      </trkpt>
      <trkpt lat="48.54904" lon="1.99483">
        <ele>152.6</ele>
        <time>2023-12-10T10:22:57Z</time>
      </trkpt>
      <trkpt lat="48.54914" lon="1.99487">
        <ele>150.2</ele>
        <time>2023-12-10T10:22:58Z</time>
      </trkpt>
      <trkpt lat="48.54924" lon="1.9949">
        <ele>150.2</ele>
        <time>2023-12-10T10:22:59Z</time>
      </trkpt>
      <trkpt lat="48.54933" lon="1.99494">
        <ele>150.2</ele>
        <time>2023-12-10T10:23:00Z</time>
      </trkpt>
      <trkpt lat="48.54943" lon="1.99497">
        <ele>150.2</ele>
        <time>2023-12-10T10:23:01Z</time>
      </trkpt>
      <trkpt lat="48.54954" lon="1.99501">
        <ele>145.6</ele>
        <time>2023-12-10T10:23:02Z</time>
      </trkpt>
      <trkpt lat="48.54965" lon="1.99506">
        <ele>145.6</ele>
        <time>2023-12-10T10:23:03Z</time>
      </trkpt>
      <trkpt lat="48.54976" lon="1.9951">
        <ele>145.6</ele>
        <time>2023-12-10T10:23:04Z</time>
      </trkpt>
      <trkpt lat="48.54987" lon="1.99515">
        <ele>144.6</ele>
        <time>2023-12-10T10:23:05Z</time>
      </trkpt>
      <trkpt lat="48.54998" lon="1.9952">
        <ele>140.4</ele>
        <time>2023-12-10T10:23:06Z</time>
      </trkpt>
      <trkpt lat="48.55009" lon="1.99526">
        <ele>140.4</ele>
        <time>2023-12-10T10:23:07Z</time>
      </trkpt>
      <trkpt lat="48.5502" lon="1.99531">
        <ele>140.4</ele>
        <time>2023-12-10T10:23:08Z</time>
      </trkpt>
      <trkpt lat="48.55033" lon="1.99536">
        <ele>139.4</ele>
        <time>2023-12-10T10:23:09Z</time>
      </trkpt>
      <trkpt lat="48.55044" lon="1.99541">
        <ele>135</ele>
        <time>2023-12-10T10:23:10Z</time>
      </trkpt>
      <trkpt lat="48.55057" lon="1.99547">
        <ele>135</ele>
        <time>2023-12-10T10:23:11Z</time>
      </trkpt>
      <trkpt lat="48.55069" lon="1.99553">
        <ele>135</ele>
        <time>2023-12-10T10:23:12Z</time>
      </trkpt>
      <trkpt lat="48.55082" lon="1.9956">
        <ele>134</ele>
        <time>2023-12-10T10:23:13Z</time>
      </trkpt>
      <trkpt lat="48.55095" lon="1.99566">
        <ele>129.2</ele>
        <time>2023-12-10T10:23:14Z</time>
      </trkpt>
      <trkpt lat="48.55109" lon="1.99573">
        <ele>129.2</ele>
        <time>2023-12-10T10:23:15Z</time>
      </trkpt>
      <trkpt lat="48.55122" lon="1.99579">
        <ele>129.2</ele>
        <time>2023-12-10T10:23:16Z</time>
      </trkpt>
      <trkpt lat="48.55136" lon="1.99583">
        <ele>128.2</ele>
        <time>2023-12-10T10:23:17Z</time>
      </trkpt>
      <trkpt lat="48.55149" lon="1.99587">
        <ele>126.8</ele>
        <time>2023-12-10T10:23:18Z</time>
      </trkpt>
      <trkpt lat="48.55162" lon="1.99592">
        <ele>126.8</ele>
        <time>2023-12-10T10:23:19Z</time>
      </trkpt>
      <trkpt lat="48.55175" lon="1.99596">
        <ele>126.8</ele>
        <time>2023-12-10T10:23:20Z</time>
      </trkpt>
      <trkpt lat="48.55187" lon="1.99599">
        <ele>127.4</ele>
        <time>2023-12-10T10:23:21Z</time>
      </trkpt>
      <trkpt lat="48.55198" lon="1.99603">
        <ele>127.4</ele>
        <time>2023-12-10T10:23:22Z</time>
      </trkpt>
      <trkpt lat="48.55209" lon="1.99608">
        <ele>127.4</ele>
        <time>2023-12-10T10:23:23Z</time>
      </trkpt>
      <trkpt lat="48.5522" lon="1.99613">
        <ele>127.4</ele>
        <time>2023-12-10T10:23:24Z</time>
      </trkpt>
      <trkpt lat="48.55231" lon="1.99619">
        <ele>126.6</ele>
        <time>2023-12-10T10:23:25Z</time>
      </trkpt>
      <trkpt lat="48.55241" lon="1.99626">
        <ele>126.8</ele>
        <time>2023-12-10T10:23:26Z</time>
      </trkpt>
      <trkpt lat="48.55251" lon="1.99633">
        <ele>126.8</ele>
        <time>2023-12-10T10:23:27Z</time>
      </trkpt>
      <trkpt lat="48.55261" lon="1.99641">
        <ele>126.8</ele>
        <time>2023-12-10T10:23:28Z</time>
      </trkpt>
      <trkpt lat="48.5527" lon="1.9965">
        <ele>126.8</ele>
        <time>2023-12-10T10:23:29Z</time>
      </trkpt>
      <trkpt lat="48.55279" lon="1.99657">
        <ele>126.8</ele>
        <time>2023-12-10T10:23:30Z</time>
      </trkpt>
      <trkpt lat="48.55289" lon="1.99663">
        <ele>126.8</ele>
        <time>2023-12-10T10:23:31Z</time>
      </trkpt>
      <trkpt lat="48.55298" lon="1.99671">
        <ele>126.8</ele>
        <time>2023-12-10T10:23:32Z</time>
      </trkpt>
      <trkpt lat="48.55307" lon="1.99677">
        <ele>126.8</ele>
        <time>2023-12-10T10:23:33Z</time>
      </trkpt>
      <trkpt lat="48.55316" lon="1.99685">
        <ele>126.8</ele>
        <time>2023-12-10T10:23:34Z</time>
      </trkpt>
      <trkpt lat="48.55325" lon="1.99692">
        <ele>126.8</ele>
        <time>2023-12-10T10:23:35Z</time>
      </trkpt>
      <trkpt lat="48.55335" lon="1.99697">
        <ele>126.8</ele>
        <time>2023-12-10T10:23:36Z</time>
      </trkpt>
      <trkpt lat="48.55343" lon="1.99703">
        <ele>125.8</ele>
        <time>2023-12-10T10:23:37Z</time>
      </trkpt>
      <trkpt lat="48.55351" lon="1.99711">
        <ele>124</ele>
        <time>2023-12-10T10:23:38Z</time>
      </trkpt>
      <trkpt lat="48.55358" lon="1.99719">
        <ele>124</ele>
        <time>2023-12-10T10:23:39Z</time>
      </trkpt>
      <trkpt lat="48.55364" lon="1.99728">
        <ele>124</ele>
        <time>2023-12-10T10:23:40Z</time>
      </trkpt>
      <trkpt lat="48.5537" lon="1.99737">
        <ele>123</ele>
        <time>2023-12-10T10:23:41Z</time>
      </trkpt>
      <trkpt lat="48.55377" lon="1.99746">
        <ele>122.4</ele>
        <time>2023-12-10T10:23:42Z</time>
      </trkpt>
      <trkpt lat="48.55383" lon="1.99755">
        <ele>122.4</ele>
        <time>2023-12-10T10:23:43Z</time>
      </trkpt>
      <trkpt lat="48.55389" lon="1.99764">
        <ele>122.4</ele>
        <time>2023-12-10T10:23:44Z</time>
      </trkpt>
      <trkpt lat="48.55394" lon="1.99773">
        <ele>122.4</ele>
        <time>2023-12-10T10:23:45Z</time>
      </trkpt>
      <trkpt lat="48.55398" lon="1.99783">
        <ele>122</ele>
        <time>2023-12-10T10:23:46Z</time>
      </trkpt>
      <trkpt lat="48.55401" lon="1.99794">
        <ele>122</ele>
        <time>2023-12-10T10:23:47Z</time>
      </trkpt>
      <trkpt lat="48.55404" lon="1.99805">
        <ele>122</ele>
        <time>2023-12-10T10:23:48Z</time>
      </trkpt>
      <trkpt lat="48.55406" lon="1.99816">
        <ele>121.4</ele>
        <time>2023-12-10T10:23:49Z</time>
      </trkpt>
      <trkpt lat="48.55408" lon="1.99828">
        <ele>121.4</ele>
        <time>2023-12-10T10:23:50Z</time>
      </trkpt>
      <trkpt lat="48.5541" lon="1.9984">
        <ele>121.4</ele>
        <time>2023-12-10T10:23:51Z</time>
      </trkpt>
      <trkpt lat="48.55412" lon="1.99851">
        <ele>121.4</ele>
        <time>2023-12-10T10:23:52Z</time>
      </trkpt>
      <trkpt lat="48.55414" lon="1.99863">
        <ele>121.4</ele>
        <time>2023-12-10T10:23:53Z</time>
      </trkpt>
      <trkpt lat="48.55416" lon="1.99875">
        <ele>120.6</ele>
        <time>2023-12-10T10:23:54Z</time>
      </trkpt>
      <trkpt lat="48.55419" lon="1.99887">
        <ele>120.6</ele>
        <time>2023-12-10T10:23:55Z</time>
      </trkpt>
      <trkpt lat="48.55421" lon="1.999">
        <ele>120.6</ele>
        <time>2023-12-10T10:23:56Z</time>
      </trkpt>
      <trkpt lat="48.55422" lon="1.99912">
        <ele>120.6</ele>
        <time>2023-12-10T10:23:57Z</time>
      </trkpt>
      <trkpt lat="48.55425" lon="1.99924">
        <ele>120.8</ele>
        <time>2023-12-10T10:23:58Z</time>
      </trkpt>
      <trkpt lat="48.55426" lon="1.99936">
        <ele>120.8</ele>
        <time>2023-12-10T10:23:59Z</time>
      </trkpt>
      <trkpt lat="48.55428" lon="1.99948">
        <ele>120.8</ele>
        <time>2023-12-10T10:24:00Z</time>
      </trkpt>
      <trkpt lat="48.5543" lon="1.9996">
        <ele>120.2</ele>
        <time>2023-12-10T10:24:01Z</time>
      </trkpt>
      <trkpt lat="48.55432" lon="1.99971">
        <ele>120.8</ele>
        <time>2023-12-10T10:24:02Z</time>
      </trkpt>
      <trkpt lat="48.55433" lon="1.99983">
        <ele>120.8</ele>
        <time>2023-12-10T10:24:03Z</time>
      </trkpt>
      <trkpt lat="48.55435" lon="1.99995">
        <ele>120.8</ele>
        <time>2023-12-10T10:24:04Z</time>
      </trkpt>
      <trkpt lat="48.55436" lon="2.00006">
        <ele>121.8</ele>
        <time>2023-12-10T10:24:05Z</time>
      </trkpt>
      <trkpt lat="48.55437" lon="2.00016">
        <ele>121.8</ele>
        <time>2023-12-10T10:24:06Z</time>
      </trkpt>
      <trkpt lat="48.5544" lon="2.00026">
        <ele>121.8</ele>
        <time>2023-12-10T10:24:07Z</time>
      </trkpt>
      <trkpt lat="48.55442" lon="2.00036">
        <ele>121.8</ele>
        <time>2023-12-10T10:24:08Z</time>
      </trkpt>
      <trkpt lat="48.55444" lon="2.00047">
        <ele>121.8</ele>
        <time>2023-12-10T10:24:09Z</time>
      </trkpt>
      <trkpt lat="48.55446" lon="2.00057">
        <ele>122</ele>
        <time>2023-12-10T10:24:10Z</time>
      </trkpt>
      <trkpt lat="48.55448" lon="2.00068">
        <ele>122</ele>
        <time>2023-12-10T10:24:11Z</time>
      </trkpt>
      <trkpt lat="48.55449" lon="2.00078">
        <ele>122</ele>
        <time>2023-12-10T10:24:12Z</time>
      </trkpt>
      <trkpt lat="48.55451" lon="2.00089">
        <ele>122</ele>
        <time>2023-12-10T10:24:13Z</time>
      </trkpt>
      <trkpt lat="48.55452" lon="2.001">
        <ele>121.6</ele>
        <time>2023-12-10T10:24:14Z</time>
      </trkpt>
      <trkpt lat="48.55454" lon="2.0011">
        <ele>121.6</ele>
        <time>2023-12-10T10:24:15Z</time>
      </trkpt>
      <trkpt lat="48.55455" lon="2.00121">
        <ele>121.6</ele>
        <time>2023-12-10T10:24:16Z</time>
      </trkpt>
      <trkpt lat="48.55456" lon="2.00133">
        <ele>121.6</ele>
        <time>2023-12-10T10:24:17Z</time>
      </trkpt>
      <trkpt lat="48.55457" lon="2.00144">
        <ele>121</ele>
        <time>2023-12-10T10:24:18Z</time>
      </trkpt>
      <trkpt lat="48.55458" lon="2.00155">
        <ele>121</ele>
        <time>2023-12-10T10:24:19Z</time>
      </trkpt>
      <trkpt lat="48.55459" lon="2.00167">
        <ele>121</ele>
        <time>2023-12-10T10:24:20Z</time>
      </trkpt>
      <trkpt lat="48.5546" lon="2.00178">
        <ele>120</ele>
        <time>2023-12-10T10:24:21Z</time>
      </trkpt>
      <trkpt lat="48.55461" lon="2.0019">
        <ele>120.2</ele>
        <time>2023-12-10T10:24:22Z</time>
      </trkpt>
      <trkpt lat="48.55461" lon="2.00202">
        <ele>120.2</ele>
        <time>2023-12-10T10:24:23Z</time>
      </trkpt>
      <trkpt lat="48.55461" lon="2.00214">
        <ele>120.2</ele>
        <time>2023-12-10T10:24:24Z</time>
      </trkpt>
      <trkpt lat="48.55461" lon="2.00226">
        <ele>120.2</ele>
        <time>2023-12-10T10:24:25Z</time>
      </trkpt>
      <trkpt lat="48.55461" lon="2.00238">
        <ele>117.8</ele>
        <time>2023-12-10T10:24:26Z</time>
      </trkpt>
      <trkpt lat="48.5546" lon="2.0025">
        <ele>117.8</ele>
        <time>2023-12-10T10:24:27Z</time>
      </trkpt>
      <trkpt lat="48.55459" lon="2.00262">
        <ele>117.8</ele>
        <time>2023-12-10T10:24:28Z</time>
      </trkpt>
      <trkpt lat="48.55457" lon="2.00273">
        <ele>117.8</ele>
        <time>2023-12-10T10:24:29Z</time>
      </trkpt>
      <trkpt lat="48.55456" lon="2.00285">
        <ele>119.2</ele>
        <time>2023-12-10T10:24:30Z</time>
      </trkpt>
      <trkpt lat="48.55454" lon="2.00297">
        <ele>119.2</ele>
        <time>2023-12-10T10:24:31Z</time>
      </trkpt>
      <trkpt lat="48.55453" lon="2.00309">
        <ele>119.2</ele>
        <time>2023-12-10T10:24:32Z</time>
      </trkpt>
      <trkpt lat="48.55453" lon="2.00321">
        <ele>118.6</ele>
        <time>2023-12-10T10:24:33Z</time>
      </trkpt>
      <trkpt lat="48.55453" lon="2.00334">
        <ele>118.8</ele>
        <time>2023-12-10T10:24:34Z</time>
      </trkpt>
      <trkpt lat="48.55454" lon="2.00346">
        <ele>118.8</ele>
        <time>2023-12-10T10:24:35Z</time>
      </trkpt>
      <trkpt lat="48.55457" lon="2.00358">
        <ele>118.8</ele>
        <time>2023-12-10T10:24:36Z</time>
      </trkpt>
      <trkpt lat="48.5546" lon="2.00369">
        <ele>117.8</ele>
        <time>2023-12-10T10:24:37Z</time>
      </trkpt>
      <trkpt lat="48.55464" lon="2.00379">
        <ele>116.8</ele>
        <time>2023-12-10T10:24:38Z</time>
      </trkpt>
      <trkpt lat="48.55469" lon="2.00389">
        <ele>116.8</ele>
        <time>2023-12-10T10:24:39Z</time>
      </trkpt>
      <trkpt lat="48.55475" lon="2.00399">
        <ele>116.8</ele>
        <time>2023-12-10T10:24:40Z</time>
      </trkpt>
      <trkpt lat="48.5548" lon="2.00408">
        <ele>117</ele>
        <time>2023-12-10T10:24:41Z</time>
      </trkpt>
      <trkpt lat="48.55486" lon="2.00417">
        <ele>116.6</ele>
        <time>2023-12-10T10:24:42Z</time>
      </trkpt>
      <trkpt lat="48.55492" lon="2.00426">
        <ele>116.6</ele>
        <time>2023-12-10T10:24:43Z</time>
      </trkpt>
      <trkpt lat="48.55497" lon="2.00434">
        <ele>116.6</ele>
        <time>2023-12-10T10:24:44Z</time>
      </trkpt>
      <trkpt lat="48.55503" lon="2.00442">
        <ele>116.6</ele>
        <time>2023-12-10T10:24:45Z</time>
      </trkpt>
      <trkpt lat="48.55508" lon="2.0045">
        <ele>117.6</ele>
        <time>2023-12-10T10:24:46Z</time>
      </trkpt>
      <trkpt lat="48.55514" lon="2.00457">
        <ele>117.6</ele>
        <time>2023-12-10T10:24:47Z</time>
      </trkpt>
      <trkpt lat="48.55521" lon="2.00462">
        <ele>117.6</ele>
        <time>2023-12-10T10:24:48Z</time>
      </trkpt>
      <trkpt lat="48.55527" lon="2.00466">
        <ele>117.6</ele>
        <time>2023-12-10T10:24:49Z</time>
      </trkpt>
      <trkpt lat="48.55534" lon="2.00468">
        <ele>116.2</ele>
        <time>2023-12-10T10:24:50Z</time>
      </trkpt>
      <trkpt lat="48.5554" lon="2.00468">
        <ele>116.2</ele>
        <time>2023-12-10T10:24:51Z</time>
      </trkpt>
      <trkpt lat="48.55546" lon="2.00468">
        <ele>116.2</ele>
        <time>2023-12-10T10:24:52Z</time>
      </trkpt>
      <trkpt lat="48.55553" lon="2.00468">
        <ele>116.2</ele>
        <time>2023-12-10T10:24:53Z</time>
      </trkpt>
      <trkpt lat="48.55561" lon="2.00466">
        <ele>116.4</ele>
        <time>2023-12-10T10:24:54Z</time>
      </trkpt>
      <trkpt lat="48.55568" lon="2.00463">
        <ele>116.4</ele>
        <time>2023-12-10T10:24:55Z</time>
      </trkpt>
      <trkpt lat="48.55575" lon="2.0046">
        <ele>116.4</ele>
        <time>2023-12-10T10:24:56Z</time>
      </trkpt>
      <trkpt lat="48.55582" lon="2.00457">
        <ele>115.6</ele>
        <time>2023-12-10T10:24:57Z</time>
      </trkpt>
      <trkpt lat="48.55588" lon="2.00454">
        <ele>116.6</ele>
        <time>2023-12-10T10:24:58Z</time>
      </trkpt>
      <trkpt lat="48.55595" lon="2.00451">
        <ele>116.6</ele>
        <time>2023-12-10T10:24:59Z</time>
      </trkpt>
      <trkpt lat="48.556" lon="2.00449">
        <ele>116.6</ele>
        <time>2023-12-10T10:25:00Z</time>
      </trkpt>
      <trkpt lat="48.55605" lon="2.0045">
        <ele>115.6</ele>
        <time>2023-12-10T10:25:01Z</time>
      </trkpt>
      <trkpt lat="48.55609" lon="2.00453">
        <ele>116.2</ele>
        <time>2023-12-10T10:25:02Z</time>
      </trkpt>
      <trkpt lat="48.55612" lon="2.00457">
        <ele>116.2</ele>
        <time>2023-12-10T10:25:03Z</time>
      </trkpt>
      <trkpt lat="48.55614" lon="2.00463">
        <ele>116.2</ele>
        <time>2023-12-10T10:25:04Z</time>
      </trkpt>
      <trkpt lat="48.55616" lon="2.00471">
        <ele>116.2</ele>
        <time>2023-12-10T10:25:05Z</time>
      </trkpt>
      <trkpt lat="48.55618" lon="2.00479">
        <ele>115.6</ele>
        <time>2023-12-10T10:25:06Z</time>
      </trkpt>
      <trkpt lat="48.5562" lon="2.00488">
        <ele>115.6</ele>
        <time>2023-12-10T10:25:07Z</time>
      </trkpt>
      <trkpt lat="48.55622" lon="2.00497">
        <ele>115.6</ele>
        <time>2023-12-10T10:25:08Z</time>
      </trkpt>
      <trkpt lat="48.55624" lon="2.00506">
        <ele>115.4</ele>
        <time>2023-12-10T10:25:09Z</time>
      </trkpt>
      <trkpt lat="48.55626" lon="2.00516">
        <ele>116.4</ele>
        <time>2023-12-10T10:25:10Z</time>
      </trkpt>
      <trkpt lat="48.55629" lon="2.00525">
        <ele>116.4</ele>
        <time>2023-12-10T10:25:11Z</time>
      </trkpt>
      <trkpt lat="48.55631" lon="2.00535">
        <ele>116.4</ele>
        <time>2023-12-10T10:25:12Z</time>
      </trkpt>
      <trkpt lat="48.55633" lon="2.00545">
        <ele>116.2</ele>
        <time>2023-12-10T10:25:13Z</time>
      </trkpt>
      <trkpt lat="48.55635" lon="2.00555">
        <ele>117</ele>
        <time>2023-12-10T10:25:14Z</time>
      </trkpt>
      <trkpt lat="48.55637" lon="2.00564">
        <ele>117</ele>
        <time>2023-12-10T10:25:15Z</time>
      </trkpt>
      <trkpt lat="48.5564" lon="2.00574">
        <ele>117</ele>
        <time>2023-12-10T10:25:16Z</time>
      </trkpt>
      <trkpt lat="48.55642" lon="2.00583">
        <ele>116.4</ele>
        <time>2023-12-10T10:25:17Z</time>
      </trkpt>
      <trkpt lat="48.55644" lon="2.00593">
        <ele>117</ele>
        <time>2023-12-10T10:25:18Z</time>
      </trkpt>
      <trkpt lat="48.55646" lon="2.00603">
        <ele>117</ele>
        <time>2023-12-10T10:25:19Z</time>
      </trkpt>
      <trkpt lat="48.55648" lon="2.00613">
        <ele>117</ele>
        <time>2023-12-10T10:25:20Z</time>
      </trkpt>
      <trkpt lat="48.55651" lon="2.00622">
        <ele>116.2</ele>
        <time>2023-12-10T10:25:21Z</time>
      </trkpt>
      <trkpt lat="48.55653" lon="2.00632">
        <ele>115.8</ele>
        <time>2023-12-10T10:25:22Z</time>
      </trkpt>
      <trkpt lat="48.55655" lon="2.00642">
        <ele>115.8</ele>
        <time>2023-12-10T10:25:23Z</time>
      </trkpt>
      <trkpt lat="48.55658" lon="2.00652">
        <ele>115.8</ele>
        <time>2023-12-10T10:25:24Z</time>
      </trkpt>
      <trkpt lat="48.55661" lon="2.00662">
        <ele>115.8</ele>
        <time>2023-12-10T10:25:25Z</time>
      </trkpt>
      <trkpt lat="48.55663" lon="2.00672">
        <ele>117.2</ele>
        <time>2023-12-10T10:25:26Z</time>
      </trkpt>
      <trkpt lat="48.55666" lon="2.00682">
        <ele>117.2</ele>
        <time>2023-12-10T10:25:27Z</time>
      </trkpt>
      <trkpt lat="48.55668" lon="2.00692">
        <ele>117.2</ele>
        <time>2023-12-10T10:25:28Z</time>
      </trkpt>
      <trkpt lat="48.55671" lon="2.00702">
        <ele>117.2</ele>
        <time>2023-12-10T10:25:29Z</time>
      </trkpt>
      <trkpt lat="48.55673" lon="2.00712">
        <ele>115.4</ele>
        <time>2023-12-10T10:25:30Z</time>
      </trkpt>
      <trkpt lat="48.55676" lon="2.00721">
        <ele>115.4</ele>
        <time>2023-12-10T10:25:31Z</time>
      </trkpt>
      <trkpt lat="48.55679" lon="2.00731">
        <ele>115.4</ele>
        <time>2023-12-10T10:25:32Z</time>
      </trkpt>
      <trkpt lat="48.55681" lon="2.00741">
        <ele>115.4</ele>
        <time>2023-12-10T10:25:33Z</time>
      </trkpt>
      <trkpt lat="48.55683" lon="2.00752">
        <ele>115.6</ele>
        <time>2023-12-10T10:25:34Z</time>
      </trkpt>
      <trkpt lat="48.55686" lon="2.00762">
        <ele>115.6</ele>
        <time>2023-12-10T10:25:35Z</time>
      </trkpt>
      <trkpt lat="48.55688" lon="2.00772">
        <ele>115.6</ele>
        <time>2023-12-10T10:25:36Z</time>
      </trkpt>
      <trkpt lat="48.5569" lon="2.00783">
        <ele>116</ele>
        <time>2023-12-10T10:25:37Z</time>
      </trkpt>
      <trkpt lat="48.55693" lon="2.00793">
        <ele>116.2</ele>
        <time>2023-12-10T10:25:38Z</time>
      </trkpt>
      <trkpt lat="48.55695" lon="2.00802">
        <ele>116.2</ele>
        <time>2023-12-10T10:25:39Z</time>
      </trkpt>
      <trkpt lat="48.55697" lon="2.00813">
        <ele>116.2</ele>
        <time>2023-12-10T10:25:40Z</time>
      </trkpt>
      <trkpt lat="48.55699" lon="2.00823">
        <ele>116.2</ele>
        <time>2023-12-10T10:25:41Z</time>
      </trkpt>
      <trkpt lat="48.55702" lon="2.00834">
        <ele>116.4</ele>
        <time>2023-12-10T10:25:42Z</time>
      </trkpt>
      <trkpt lat="48.55704" lon="2.00844">
        <ele>116.4</ele>
        <time>2023-12-10T10:25:43Z</time>
      </trkpt>
      <trkpt lat="48.55706" lon="2.00855">
        <ele>116.4</ele>
        <time>2023-12-10T10:25:44Z</time>
      </trkpt>
      <trkpt lat="48.55708" lon="2.00865">
        <ele>116.4</ele>
        <time>2023-12-10T10:25:45Z</time>
      </trkpt>
      <trkpt lat="48.5571" lon="2.00875">
        <ele>116.8</ele>
        <time>2023-12-10T10:25:46Z</time>
      </trkpt>
      <trkpt lat="48.55711" lon="2.00886">
        <ele>116.8</ele>
        <time>2023-12-10T10:25:47Z</time>
      </trkpt>
      <trkpt lat="48.55713" lon="2.00896">
        <ele>116.8</ele>
        <time>2023-12-10T10:25:48Z</time>
      </trkpt>
      <trkpt lat="48.55714" lon="2.00906">
        <ele>116.8</ele>
        <time>2023-12-10T10:25:49Z</time>
      </trkpt>
      <trkpt lat="48.55716" lon="2.00915">
        <ele>116.8</ele>
        <time>2023-12-10T10:25:50Z</time>
      </trkpt>
      <trkpt lat="48.55718" lon="2.00924">
        <ele>116.8</ele>
        <time>2023-12-10T10:25:51Z</time>
      </trkpt>
      <trkpt lat="48.55719" lon="2.00933">
        <ele>116.8</ele>
        <time>2023-12-10T10:25:52Z</time>
      </trkpt>
      <trkpt lat="48.55721" lon="2.00942">
        <ele>117.4</ele>
        <time>2023-12-10T10:25:53Z</time>
      </trkpt>
      <trkpt lat="48.55723" lon="2.00951">
        <ele>117.8</ele>
        <time>2023-12-10T10:25:54Z</time>
      </trkpt>
      <trkpt lat="48.55726" lon="2.00961">
        <ele>117.8</ele>
        <time>2023-12-10T10:25:55Z</time>
      </trkpt>
      <trkpt lat="48.55729" lon="2.00969">
        <ele>117.8</ele>
        <time>2023-12-10T10:25:56Z</time>
      </trkpt>
      <trkpt lat="48.55731" lon="2.00978">
        <ele>117.8</ele>
        <time>2023-12-10T10:25:57Z</time>
      </trkpt>
      <trkpt lat="48.55734" lon="2.00987">
        <ele>117.2</ele>
        <time>2023-12-10T10:25:58Z</time>
      </trkpt>
      <trkpt lat="48.55736" lon="2.00996">
        <ele>117.2</ele>
        <time>2023-12-10T10:25:59Z</time>
      </trkpt>
      <trkpt lat="48.5574" lon="2.01005">
        <ele>117.2</ele>
        <time>2023-12-10T10:26:00Z</time>
      </trkpt>
      <trkpt lat="48.55744" lon="2.01015">
        <ele>117.2</ele>
        <time>2023-12-10T10:26:01Z</time>
      </trkpt>
      <trkpt lat="48.55748" lon="2.01025">
        <ele>118.8</ele>
        <time>2023-12-10T10:26:02Z</time>
      </trkpt>
      <trkpt lat="48.55752" lon="2.01035">
        <ele>118.8</ele>
        <time>2023-12-10T10:26:03Z</time>
      </trkpt>
      <trkpt lat="48.55755" lon="2.01045">
        <ele>118.8</ele>
        <time>2023-12-10T10:26:04Z</time>
      </trkpt>
      <trkpt lat="48.55759" lon="2.01055">
        <ele>118.6</ele>
        <time>2023-12-10T10:26:05Z</time>
      </trkpt>
      <trkpt lat="48.55763" lon="2.01066">
        <ele>117.6</ele>
        <time>2023-12-10T10:26:06Z</time>
      </trkpt>
      <trkpt lat="48.55766" lon="2.01077">
        <ele>117.6</ele>
        <time>2023-12-10T10:26:07Z</time>
      </trkpt>
      <trkpt lat="48.5577" lon="2.01089">
        <ele>117.6</ele>
        <time>2023-12-10T10:26:08Z</time>
      </trkpt>
      <trkpt lat="48.55773" lon="2.01101">
        <ele>118.4</ele>
        <time>2023-12-10T10:26:09Z</time>
      </trkpt>
      <trkpt lat="48.55777" lon="2.01112">
        <ele>117.4</ele>
        <time>2023-12-10T10:26:10Z</time>
      </trkpt>
      <trkpt lat="48.55781" lon="2.01124">
        <ele>117.4</ele>
        <time>2023-12-10T10:26:11Z</time>
      </trkpt>
      <trkpt lat="48.55785" lon="2.01136">
        <ele>117.4</ele>
        <time>2023-12-10T10:26:12Z</time>
      </trkpt>
      <trkpt lat="48.55789" lon="2.01148">
        <ele>116.4</ele>
        <time>2023-12-10T10:26:13Z</time>
      </trkpt>
      <trkpt lat="48.55793" lon="2.0116">
        <ele>116.2</ele>
        <time>2023-12-10T10:26:14Z</time>
      </trkpt>
      <trkpt lat="48.55797" lon="2.01173">
        <ele>116.2</ele>
        <time>2023-12-10T10:26:15Z</time>
      </trkpt>
      <trkpt lat="48.55801" lon="2.01186">
        <ele>116.2</ele>
        <time>2023-12-10T10:26:16Z</time>
      </trkpt>
      <trkpt lat="48.55805" lon="2.01199">
        <ele>115.2</ele>
        <time>2023-12-10T10:26:17Z</time>
      </trkpt>
      <trkpt lat="48.5581" lon="2.01212">
        <ele>114.8</ele>
        <time>2023-12-10T10:26:18Z</time>
      </trkpt>
      <trkpt lat="48.55814" lon="2.01225">
        <ele>114.8</ele>
        <time>2023-12-10T10:26:19Z</time>
      </trkpt>
      <trkpt lat="48.55818" lon="2.01238">
        <ele>114.8</ele>
        <time>2023-12-10T10:26:20Z</time>
      </trkpt>
      <trkpt lat="48.55822" lon="2.01252">
        <ele>114.8</ele>
        <time>2023-12-10T10:26:21Z</time>
      </trkpt>
      <trkpt lat="48.55827" lon="2.01265">
        <ele>114.2</ele>
        <time>2023-12-10T10:26:22Z</time>
      </trkpt>
      <trkpt lat="48.55831" lon="2.01278">
        <ele>114.2</ele>
        <time>2023-12-10T10:26:23Z</time>
      </trkpt>
      <trkpt lat="48.55835" lon="2.01292">
        <ele>114.2</ele>
        <time>2023-12-10T10:26:24Z</time>
      </trkpt>
      <trkpt lat="48.55839" lon="2.01305">
        <ele>114.6</ele>
        <time>2023-12-10T10:26:25Z</time>
      </trkpt>
      <trkpt lat="48.55843" lon="2.01317">
        <ele>114.4</ele>
        <time>2023-12-10T10:26:26Z</time>
      </trkpt>
      <trkpt lat="48.55847" lon="2.0133">
        <ele>114.4</ele>
        <time>2023-12-10T10:26:27Z</time>
      </trkpt>
      <trkpt lat="48.5585" lon="2.01342">
        <ele>114.4</ele>
        <time>2023-12-10T10:26:28Z</time>
      </trkpt>
      <trkpt lat="48.55854" lon="2.01353">
        <ele>115.4</ele>
        <time>2023-12-10T10:26:29Z</time>
      </trkpt>
      <trkpt lat="48.55858" lon="2.01364">
        <ele>116.6</ele>
        <time>2023-12-10T10:26:30Z</time>
      </trkpt>
      <trkpt lat="48.55862" lon="2.01375">
        <ele>116.6</ele>
        <time>2023-12-10T10:26:31Z</time>
      </trkpt>
      <trkpt lat="48.55867" lon="2.01386">
        <ele>116.6</ele>
        <time>2023-12-10T10:26:32Z</time>
      </trkpt>
      <trkpt lat="48.55871" lon="2.01396">
        <ele>116.6</ele>
        <time>2023-12-10T10:26:33Z</time>
      </trkpt>
      <trkpt lat="48.55876" lon="2.01406">
        <ele>117.2</ele>
        <time>2023-12-10T10:26:34Z</time>
      </trkpt>
      <trkpt lat="48.55881" lon="2.01415">
        <ele>117.2</ele>
        <time>2023-12-10T10:26:35Z</time>
      </trkpt>
      <trkpt lat="48.55887" lon="2.01425">
        <ele>117.2</ele>
        <time>2023-12-10T10:26:36Z</time>
      </trkpt>
      <trkpt lat="48.55893" lon="2.01434">
        <ele>117.2</ele>
        <time>2023-12-10T10:26:37Z</time>
      </trkpt>
      <trkpt lat="48.559" lon="2.01442">
        <ele>116.6</ele>
        <time>2023-12-10T10:26:38Z</time>
      </trkpt>
      <trkpt lat="48.55907" lon="2.01451">
        <ele>116.6</ele>
        <time>2023-12-10T10:26:39Z</time>
      </trkpt>
      <trkpt lat="48.55914" lon="2.0146">
        <ele>116.6</ele>
        <time>2023-12-10T10:26:40Z</time>
      </trkpt>
      <trkpt lat="48.55921" lon="2.01469">
        <ele>115.6</ele>
        <time>2023-12-10T10:26:41Z</time>
      </trkpt>
      <trkpt lat="48.55928" lon="2.01478">
        <ele>115.2</ele>
        <time>2023-12-10T10:26:42Z</time>
      </trkpt>
      <trkpt lat="48.55936" lon="2.01487">
        <ele>115.2</ele>
        <time>2023-12-10T10:26:43Z</time>
      </trkpt>
      <trkpt lat="48.55943" lon="2.01496">
        <ele>115.2</ele>
        <time>2023-12-10T10:26:44Z</time>
      </trkpt>
      <trkpt lat="48.55951" lon="2.01506">
        <ele>114.2</ele>
        <time>2023-12-10T10:26:45Z</time>
      </trkpt>
      <trkpt lat="48.55958" lon="2.01516">
        <ele>113.4</ele>
        <time>2023-12-10T10:26:46Z</time>
      </trkpt>
      <trkpt lat="48.55965" lon="2.01527">
        <ele>113.4</ele>
        <time>2023-12-10T10:26:47Z</time>
      </trkpt>
      <trkpt lat="48.55972" lon="2.01538">
        <ele>113.4</ele>
        <time>2023-12-10T10:26:48Z</time>
      </trkpt>
      <trkpt lat="48.55978" lon="2.01551">
        <ele>112.8</ele>
        <time>2023-12-10T10:26:49Z</time>
      </trkpt>
      <trkpt lat="48.55984" lon="2.01564">
        <ele>112</ele>
        <time>2023-12-10T10:26:50Z</time>
      </trkpt>
      <trkpt lat="48.55989" lon="2.01577">
        <ele>112</ele>
        <time>2023-12-10T10:26:51Z</time>
      </trkpt>
      <trkpt lat="48.55993" lon="2.01591">
        <ele>112</ele>
        <time>2023-12-10T10:26:52Z</time>
      </trkpt>
      <trkpt lat="48.55996" lon="2.01605">
        <ele>112</ele>
        <time>2023-12-10T10:26:53Z</time>
      </trkpt>
      <trkpt lat="48.55999" lon="2.0162">
        <ele>110.4</ele>
        <time>2023-12-10T10:26:54Z</time>
      </trkpt>
      <trkpt lat="48.56001" lon="2.01634">
        <ele>110.4</ele>
        <time>2023-12-10T10:26:55Z</time>
      </trkpt>
      <trkpt lat="48.56003" lon="2.01649">
        <ele>110.4</ele>
        <time>2023-12-10T10:26:56Z</time>
      </trkpt>
      <trkpt lat="48.56004" lon="2.01663">
        <ele>110.4</ele>
        <time>2023-12-10T10:26:57Z</time>
      </trkpt>
      <trkpt lat="48.56004" lon="2.01678">
        <ele>110.8</ele>
        <time>2023-12-10T10:26:58Z</time>
      </trkpt>
      <trkpt lat="48.56004" lon="2.01691">
        <ele>110.8</ele>
        <time>2023-12-10T10:26:59Z</time>
      </trkpt>
      <trkpt lat="48.56004" lon="2.01705">
        <ele>110.8</ele>
        <time>2023-12-10T10:27:00Z</time>
      </trkpt>
      <trkpt lat="48.56004" lon="2.01718">
        <ele>111.8</ele>
        <time>2023-12-10T10:27:01Z</time>
      </trkpt>
      <trkpt lat="48.56004" lon="2.0173">
        <ele>112.6</ele>
        <time>2023-12-10T10:27:02Z</time>
      </trkpt>
      <trkpt lat="48.56003" lon="2.01742">
        <ele>112.6</ele>
        <time>2023-12-10T10:27:03Z</time>
      </trkpt>
      <trkpt lat="48.56003" lon="2.01753">
        <ele>112.6</ele>
        <time>2023-12-10T10:27:04Z</time>
      </trkpt>
      <trkpt lat="48.56003" lon="2.01763">
        <ele>112.6</ele>
        <time>2023-12-10T10:27:05Z</time>
      </trkpt>
      <trkpt lat="48.56003" lon="2.01773">
        <ele>114.8</ele>
        <time>2023-12-10T10:27:06Z</time>
      </trkpt>
      <trkpt lat="48.56003" lon="2.01782">
        <ele>114.8</ele>
        <time>2023-12-10T10:27:07Z</time>
      </trkpt>
      <trkpt lat="48.56004" lon="2.01791">
        <ele>114.8</ele>
        <time>2023-12-10T10:27:08Z</time>
      </trkpt>
      <trkpt lat="48.56005" lon="2.01799">
        <ele>115.8</ele>
        <time>2023-12-10T10:27:09Z</time>
      </trkpt>
      <trkpt lat="48.56007" lon="2.01809">
        <ele>116.8</ele>
        <time>2023-12-10T10:27:10Z</time>
      </trkpt>
      <trkpt lat="48.56009" lon="2.01819">
        <ele>116.8</ele>
        <time>2023-12-10T10:27:11Z</time>
      </trkpt>
      <trkpt lat="48.5601" lon="2.01829">
        <ele>116.8</ele>
        <time>2023-12-10T10:27:12Z</time>
      </trkpt>
      <trkpt lat="48.56012" lon="2.0184">
        <ele>116.2</ele>
        <time>2023-12-10T10:27:13Z</time>
      </trkpt>
      <trkpt lat="48.56014" lon="2.0185">
        <ele>117.2</ele>
        <time>2023-12-10T10:27:14Z</time>
      </trkpt>
      <trkpt lat="48.56016" lon="2.01861">
        <ele>117.2</ele>
        <time>2023-12-10T10:27:15Z</time>
      </trkpt>
      <trkpt lat="48.56019" lon="2.01872">
        <ele>117.2</ele>
        <time>2023-12-10T10:27:16Z</time>
      </trkpt>
      <trkpt lat="48.56021" lon="2.01882">
        <ele>117.2</ele>
        <time>2023-12-10T10:27:17Z</time>
      </trkpt>
      <trkpt lat="48.56023" lon="2.01893">
        <ele>117.2</ele>
        <time>2023-12-10T10:27:18Z</time>
      </trkpt>
      <trkpt lat="48.56025" lon="2.01904">
        <ele>117.2</ele>
        <time>2023-12-10T10:27:19Z</time>
      </trkpt>
      <trkpt lat="48.56027" lon="2.01914">
        <ele>117.2</ele>
        <time>2023-12-10T10:27:20Z</time>
      </trkpt>
      <trkpt lat="48.56029" lon="2.01925">
        <ele>118.2</ele>
        <time>2023-12-10T10:27:21Z</time>
      </trkpt>
      <trkpt lat="48.56031" lon="2.01935">
        <ele>119</ele>
        <time>2023-12-10T10:27:22Z</time>
      </trkpt>
      <trkpt lat="48.56033" lon="2.01946">
        <ele>119</ele>
        <time>2023-12-10T10:27:23Z</time>
      </trkpt>
      <trkpt lat="48.56035" lon="2.01957">
        <ele>119</ele>
        <time>2023-12-10T10:27:24Z</time>
      </trkpt>
      <trkpt lat="48.56037" lon="2.01967">
        <ele>120</ele>
        <time>2023-12-10T10:27:25Z</time>
      </trkpt>
      <trkpt lat="48.56039" lon="2.01978">
        <ele>119.8</ele>
        <time>2023-12-10T10:27:26Z</time>
      </trkpt>
      <trkpt lat="48.56041" lon="2.01988">
        <ele>119.8</ele>
        <time>2023-12-10T10:27:27Z</time>
      </trkpt>
      <trkpt lat="48.56044" lon="2.01998">
        <ele>119.8</ele>
        <time>2023-12-10T10:27:28Z</time>
      </trkpt>
      <trkpt lat="48.56046" lon="2.02008">
        <ele>120.6</ele>
        <time>2023-12-10T10:27:29Z</time>
      </trkpt>
      <trkpt lat="48.56048" lon="2.02018">
        <ele>120.8</ele>
        <time>2023-12-10T10:27:30Z</time>
      </trkpt>
      <trkpt lat="48.5605" lon="2.02029">
        <ele>120.8</ele>
        <time>2023-12-10T10:27:31Z</time>
      </trkpt>
      <trkpt lat="48.56052" lon="2.02039">
        <ele>120.8</ele>
        <time>2023-12-10T10:27:32Z</time>
      </trkpt>
      <trkpt lat="48.56054" lon="2.0205">
        <ele>120.8</ele>
        <time>2023-12-10T10:27:33Z</time>
      </trkpt>
      <trkpt lat="48.56057" lon="2.02061">
        <ele>120.8</ele>
        <time>2023-12-10T10:27:34Z</time>
      </trkpt>
      <trkpt lat="48.5606" lon="2.02071">
        <ele>120.8</ele>
        <time>2023-12-10T10:27:35Z</time>
      </trkpt>
      <trkpt lat="48.56064" lon="2.0208">
        <ele>120.8</ele>
        <time>2023-12-10T10:27:36Z</time>
      </trkpt>
      <trkpt lat="48.56068" lon="2.02089">
        <ele>121.8</ele>
        <time>2023-12-10T10:27:37Z</time>
      </trkpt>
      <trkpt lat="48.56071" lon="2.02098">
        <ele>122.6</ele>
        <time>2023-12-10T10:27:38Z</time>
      </trkpt>
      <trkpt lat="48.56075" lon="2.02106">
        <ele>122.6</ele>
        <time>2023-12-10T10:27:39Z</time>
      </trkpt>
      <trkpt lat="48.56079" lon="2.02114">
        <ele>122.6</ele>
        <time>2023-12-10T10:27:40Z</time>
      </trkpt>
      <trkpt lat="48.56083" lon="2.02121">
        <ele>123.6</ele>
        <time>2023-12-10T10:27:41Z</time>
      </trkpt>
      <trkpt lat="48.56087" lon="2.02128">
        <ele>124</ele>
        <time>2023-12-10T10:27:42Z</time>
      </trkpt>
      <trkpt lat="48.56092" lon="2.02135">
        <ele>124</ele>
        <time>2023-12-10T10:27:43Z</time>
      </trkpt>
      <trkpt lat="48.56097" lon="2.02141">
        <ele>124</ele>
        <time>2023-12-10T10:27:44Z</time>
      </trkpt>
      <trkpt lat="48.56101" lon="2.02147">
        <ele>124</ele>
        <time>2023-12-10T10:27:45Z</time>
      </trkpt>
      <trkpt lat="48.56106" lon="2.02152">
        <ele>124.6</ele>
        <time>2023-12-10T10:27:46Z</time>
      </trkpt>
      <trkpt lat="48.56111" lon="2.02157">
        <ele>124.6</ele>
        <time>2023-12-10T10:27:47Z</time>
      </trkpt>
      <trkpt lat="48.56116" lon="2.02162">
        <ele>124.6</ele>
        <time>2023-12-10T10:27:48Z</time>
      </trkpt>
      <trkpt lat="48.56121" lon="2.02167">
        <ele>124.6</ele>
        <time>2023-12-10T10:27:49Z</time>
      </trkpt>
      <trkpt lat="48.56127" lon="2.02171">
        <ele>124.6</ele>
        <time>2023-12-10T10:27:50Z</time>
      </trkpt>
      <trkpt lat="48.56132" lon="2.02175">
        <ele>124.6</ele>
        <time>2023-12-10T10:27:51Z</time>
      </trkpt>
      <trkpt lat="48.56137" lon="2.02179">
        <ele>124.6</ele>
        <time>2023-12-10T10:27:52Z</time>
      </trkpt>
      <trkpt lat="48.56142" lon="2.02183">
        <ele>124.6</ele>
        <time>2023-12-10T10:27:53Z</time>
      </trkpt>
      <trkpt lat="48.56147" lon="2.02187">
        <ele>124.6</ele>
        <time>2023-12-10T10:27:54Z</time>
      </trkpt>
      <trkpt lat="48.56153" lon="2.02192">
        <ele>124.6</ele>
        <time>2023-12-10T10:27:55Z</time>
      </trkpt>
      <trkpt lat="48.56159" lon="2.02196">
        <ele>124.6</ele>
        <time>2023-12-10T10:27:56Z</time>
      </trkpt>
      <trkpt lat="48.56165" lon="2.022">
        <ele>125.4</ele>
        <time>2023-12-10T10:27:57Z</time>
      </trkpt>
      <trkpt lat="48.5617" lon="2.02205">
        <ele>125.4</ele>
        <time>2023-12-10T10:27:58Z</time>
      </trkpt>
      <trkpt lat="48.56175" lon="2.0221">
        <ele>125.4</ele>
        <time>2023-12-10T10:27:59Z</time>
      </trkpt>
      <trkpt lat="48.5618" lon="2.02216">
        <ele>125.4</ele>
        <time>2023-12-10T10:28:00Z</time>
      </trkpt>
      <trkpt lat="48.56185" lon="2.02222">
        <ele>126.4</ele>
        <time>2023-12-10T10:28:01Z</time>
      </trkpt>
      <trkpt lat="48.5619" lon="2.02228">
        <ele>126.6</ele>
        <time>2023-12-10T10:28:02Z</time>
      </trkpt>
      <trkpt lat="48.56194" lon="2.02234">
        <ele>126.6</ele>
        <time>2023-12-10T10:28:03Z</time>
      </trkpt>
      <trkpt lat="48.56198" lon="2.0224">
        <ele>126.6</ele>
        <time>2023-12-10T10:28:04Z</time>
      </trkpt>
      <trkpt lat="48.56203" lon="2.02247">
        <ele>127.2</ele>
        <time>2023-12-10T10:28:05Z</time>
      </trkpt>
      <trkpt lat="48.56207" lon="2.02254">
        <ele>127</ele>
        <time>2023-12-10T10:28:06Z</time>
      </trkpt>
      <trkpt lat="48.56211" lon="2.02261">
        <ele>127</ele>
        <time>2023-12-10T10:28:07Z</time>
      </trkpt>
      <trkpt lat="48.56215" lon="2.02268">
        <ele>127</ele>
        <time>2023-12-10T10:28:08Z</time>
      </trkpt>
      <trkpt lat="48.56219" lon="2.02275">
        <ele>127.2</ele>
        <time>2023-12-10T10:28:09Z</time>
      </trkpt>
      <trkpt lat="48.56223" lon="2.02283">
        <ele>127.6</ele>
        <time>2023-12-10T10:28:10Z</time>
      </trkpt>
      <trkpt lat="48.56226" lon="2.0229">
        <ele>127.6</ele>
        <time>2023-12-10T10:28:11Z</time>
      </trkpt>
      <trkpt lat="48.5623" lon="2.02296">
        <ele>127.6</ele>
        <time>2023-12-10T10:28:12Z</time>
      </trkpt>
      <trkpt lat="48.56234" lon="2.02302">
        <ele>128.6</ele>
        <time>2023-12-10T10:28:13Z</time>
      </trkpt>
      <trkpt lat="48.56237" lon="2.02308">
        <ele>129.4</ele>
        <time>2023-12-10T10:28:14Z</time>
      </trkpt>
      <trkpt lat="48.56242" lon="2.02315">
        <ele>129.4</ele>
        <time>2023-12-10T10:28:15Z</time>
      </trkpt>
      <trkpt lat="48.56247" lon="2.02321">
        <ele>129.4</ele>
        <time>2023-12-10T10:28:16Z</time>
      </trkpt>
      <trkpt lat="48.56252" lon="2.02328">
        <ele>130.4</ele>
        <time>2023-12-10T10:28:17Z</time>
      </trkpt>
      <trkpt lat="48.56257" lon="2.02334">
        <ele>130</ele>
        <time>2023-12-10T10:28:18Z</time>
      </trkpt>
      <trkpt lat="48.56262" lon="2.0234">
        <ele>130</ele>
        <time>2023-12-10T10:28:19Z</time>
      </trkpt>
      <trkpt lat="48.56267" lon="2.02346">
        <ele>130</ele>
        <time>2023-12-10T10:28:20Z</time>
      </trkpt>
      <trkpt lat="48.56273" lon="2.02352">
        <ele>131</ele>
        <time>2023-12-10T10:28:21Z</time>
      </trkpt>
      <trkpt lat="48.56278" lon="2.02358">
        <ele>129.6</ele>
        <time>2023-12-10T10:28:22Z</time>
      </trkpt>
      <trkpt lat="48.56284" lon="2.02363">
        <ele>129.6</ele>
        <time>2023-12-10T10:28:23Z</time>
      </trkpt>
      <trkpt lat="48.5629" lon="2.02368">
        <ele>129.6</ele>
        <time>2023-12-10T10:28:24Z</time>
      </trkpt>
      <trkpt lat="48.56296" lon="2.02373">
        <ele>129.6</ele>
        <time>2023-12-10T10:28:25Z</time>
      </trkpt>
      <trkpt lat="48.56303" lon="2.02378">
        <ele>129.8</ele>
        <time>2023-12-10T10:28:26Z</time>
      </trkpt>
      <trkpt lat="48.56309" lon="2.02384">
        <ele>129.8</ele>
        <time>2023-12-10T10:28:27Z</time>
      </trkpt>
      <trkpt lat="48.56315" lon="2.02389">
        <ele>129.8</ele>
        <time>2023-12-10T10:28:28Z</time>
      </trkpt>
      <trkpt lat="48.56322" lon="2.02396">
        <ele>128.8</ele>
        <time>2023-12-10T10:28:29Z</time>
      </trkpt>
      <trkpt lat="48.56329" lon="2.02403">
        <ele>127</ele>
        <time>2023-12-10T10:28:30Z</time>
      </trkpt>
      <trkpt lat="48.56336" lon="2.02411">
        <ele>127</ele>
        <time>2023-12-10T10:28:31Z</time>
      </trkpt>
      <trkpt lat="48.56342" lon="2.02418">
        <ele>127</ele>
        <time>2023-12-10T10:28:32Z</time>
      </trkpt>
      <trkpt lat="48.56348" lon="2.02427">
        <ele>126</ele>
        <time>2023-12-10T10:28:33Z</time>
      </trkpt>
      <trkpt lat="48.56355" lon="2.02436">
        <ele>124</ele>
        <time>2023-12-10T10:28:34Z</time>
      </trkpt>
      <trkpt lat="48.56361" lon="2.02445">
        <ele>124</ele>
        <time>2023-12-10T10:28:35Z</time>
      </trkpt>
      <trkpt lat="48.56367" lon="2.02454">
        <ele>124</ele>
        <time>2023-12-10T10:28:36Z</time>
      </trkpt>
      <trkpt lat="48.56373" lon="2.02464">
        <ele>123</ele>
        <time>2023-12-10T10:28:37Z</time>
      </trkpt>
      <trkpt lat="48.5638" lon="2.02473">
        <ele>122</ele>
        <time>2023-12-10T10:28:38Z</time>
      </trkpt>
      <trkpt lat="48.56387" lon="2.02481">
        <ele>122</ele>
        <time>2023-12-10T10:28:39Z</time>
      </trkpt>
      <trkpt lat="48.56395" lon="2.02488">
        <ele>122</ele>
        <time>2023-12-10T10:28:40Z</time>
      </trkpt>
      <trkpt lat="48.56403" lon="2.02495">
        <ele>121</ele>
        <time>2023-12-10T10:28:41Z</time>
      </trkpt>
      <trkpt lat="48.56412" lon="2.025">
        <ele>120</ele>
        <time>2023-12-10T10:28:42Z</time>
      </trkpt>
      <trkpt lat="48.56421" lon="2.02504">
        <ele>120</ele>
        <time>2023-12-10T10:28:43Z</time>
      </trkpt>
      <trkpt lat="48.5643" lon="2.02507">
        <ele>120</ele>
        <time>2023-12-10T10:28:44Z</time>
      </trkpt>
      <trkpt lat="48.5644" lon="2.02509">
        <ele>119.4</ele>
        <time>2023-12-10T10:28:45Z</time>
      </trkpt>
      <trkpt lat="48.56449" lon="2.02509">
        <ele>117.6</ele>
        <time>2023-12-10T10:28:46Z</time>
      </trkpt>
      <trkpt lat="48.56459" lon="2.02507">
        <ele>117.6</ele>
        <time>2023-12-10T10:28:47Z</time>
      </trkpt>
      <trkpt lat="48.56469" lon="2.02505">
        <ele>117.6</ele>
        <time>2023-12-10T10:28:48Z</time>
      </trkpt>
      <trkpt lat="48.56478" lon="2.02503">
        <ele>116.6</ele>
        <time>2023-12-10T10:28:49Z</time>
      </trkpt>
      <trkpt lat="48.56488" lon="2.02501">
        <ele>114.8</ele>
        <time>2023-12-10T10:28:50Z</time>
      </trkpt>
      <trkpt lat="48.56497" lon="2.02498">
        <ele>114.8</ele>
        <time>2023-12-10T10:28:51Z</time>
      </trkpt>
      <trkpt lat="48.56507" lon="2.02496">
        <ele>114.8</ele>
        <time>2023-12-10T10:28:52Z</time>
      </trkpt>
      <trkpt lat="48.56517" lon="2.02494">
        <ele>114.8</ele>
        <time>2023-12-10T10:28:53Z</time>
      </trkpt>
      <trkpt lat="48.56526" lon="2.02492">
        <ele>112.6</ele>
        <time>2023-12-10T10:28:54Z</time>
      </trkpt>
      <trkpt lat="48.56535" lon="2.02491">
        <ele>112.6</ele>
        <time>2023-12-10T10:28:55Z</time>
      </trkpt>
      <trkpt lat="48.56545" lon="2.02489">
        <ele>112.6</ele>
        <time>2023-12-10T10:28:56Z</time>
      </trkpt>
      <trkpt lat="48.56555" lon="2.0249">
        <ele>113.6</ele>
        <time>2023-12-10T10:28:57Z</time>
      </trkpt>
      <trkpt lat="48.56564" lon="2.02491">
        <ele>115</ele>
        <time>2023-12-10T10:28:58Z</time>
      </trkpt>
      <trkpt lat="48.56572" lon="2.02494">
        <ele>115</ele>
        <time>2023-12-10T10:28:59Z</time>
      </trkpt>
      <trkpt lat="48.56579" lon="2.02497">
        <ele>115</ele>
        <time>2023-12-10T10:29:00Z</time>
      </trkpt>
      <trkpt lat="48.56586" lon="2.02503">
        <ele>114</ele>
        <time>2023-12-10T10:29:01Z</time>
      </trkpt>
      <trkpt lat="48.56593" lon="2.02509">
        <ele>111.2</ele>
        <time>2023-12-10T10:29:02Z</time>
      </trkpt>
      <trkpt lat="48.566" lon="2.02517">
        <ele>111.2</ele>
        <time>2023-12-10T10:29:03Z</time>
      </trkpt>
      <trkpt lat="48.56607" lon="2.02526">
        <ele>111.2</ele>
        <time>2023-12-10T10:29:04Z</time>
      </trkpt>
      <trkpt lat="48.56613" lon="2.02536">
        <ele>110.2</ele>
        <time>2023-12-10T10:29:05Z</time>
      </trkpt>
      <trkpt lat="48.56619" lon="2.02546">
        <ele>109.4</ele>
        <time>2023-12-10T10:29:06Z</time>
      </trkpt>
      <trkpt lat="48.56623" lon="2.02558">
        <ele>109.4</ele>
        <time>2023-12-10T10:29:07Z</time>
      </trkpt>
      <trkpt lat="48.56628" lon="2.02571">
        <ele>109.4</ele>
        <time>2023-12-10T10:29:08Z</time>
      </trkpt>
      <trkpt lat="48.56632" lon="2.02583">
        <ele>108.4</ele>
        <time>2023-12-10T10:29:09Z</time>
      </trkpt>
      <trkpt lat="48.56638" lon="2.02596">
        <ele>104.4</ele>
        <time>2023-12-10T10:29:10Z</time>
      </trkpt>
      <trkpt lat="48.56644" lon="2.02609">
        <ele>104.4</ele>
        <time>2023-12-10T10:29:11Z</time>
      </trkpt>
      <trkpt lat="48.5665" lon="2.0262">
        <ele>104.4</ele>
        <time>2023-12-10T10:29:12Z</time>
      </trkpt>
      <trkpt lat="48.56656" lon="2.02632">
        <ele>104.4</ele>
        <time>2023-12-10T10:29:13Z</time>
      </trkpt>
      <trkpt lat="48.56663" lon="2.02643">
        <ele>102.8</ele>
        <time>2023-12-10T10:29:14Z</time>
      </trkpt>
      <trkpt lat="48.56668" lon="2.02653">
        <ele>102.8</ele>
        <time>2023-12-10T10:29:15Z</time>
      </trkpt>
      <trkpt lat="48.56674" lon="2.02663">
        <ele>102.8</ele>
        <time>2023-12-10T10:29:16Z</time>
      </trkpt>
      <trkpt lat="48.56679" lon="2.02672">
        <ele>102.6</ele>
        <time>2023-12-10T10:29:17Z</time>
      </trkpt>
      <trkpt lat="48.56684" lon="2.02681">
        <ele>102.6</ele>
        <time>2023-12-10T10:29:18Z</time>
      </trkpt>
      <trkpt lat="48.56688" lon="2.02689">
        <ele>102.6</ele>
        <time>2023-12-10T10:29:19Z</time>
      </trkpt>
      <trkpt lat="48.56694" lon="2.02697">
        <ele>102.6</ele>
        <time>2023-12-10T10:29:20Z</time>
      </trkpt>
      <trkpt lat="48.567" lon="2.02702">
        <ele>101.6</ele>
        <time>2023-12-10T10:29:21Z</time>
      </trkpt>
      <trkpt lat="48.56707" lon="2.02707">
        <ele>100.6</ele>
        <time>2023-12-10T10:29:22Z</time>
      </trkpt>
      <trkpt lat="48.56713" lon="2.0271">
        <ele>100.6</ele>
        <time>2023-12-10T10:29:23Z</time>
      </trkpt>
      <trkpt lat="48.56719" lon="2.02715">
        <ele>100.6</ele>
        <time>2023-12-10T10:29:24Z</time>
      </trkpt>
      <trkpt lat="48.56727" lon="2.0272">
        <ele>99.6</ele>
        <time>2023-12-10T10:29:25Z</time>
      </trkpt>
      <trkpt lat="48.56734" lon="2.02725">
        <ele>97.2</ele>
        <time>2023-12-10T10:29:26Z</time>
      </trkpt>
      <trkpt lat="48.56741" lon="2.02731">
        <ele>97.2</ele>
        <time>2023-12-10T10:29:27Z</time>
      </trkpt>
      <trkpt lat="48.56748" lon="2.02739">
        <ele>97.2</ele>
        <time>2023-12-10T10:29:28Z</time>
      </trkpt>
      <trkpt lat="48.56755" lon="2.02747">
        <ele>96.2</ele>
        <time>2023-12-10T10:29:29Z</time>
      </trkpt>
      <trkpt lat="48.56761" lon="2.02756">
        <ele>93.6</ele>
        <time>2023-12-10T10:29:30Z</time>
      </trkpt>
      <trkpt lat="48.56768" lon="2.02766">
        <ele>93.6</ele>
        <time>2023-12-10T10:29:31Z</time>
      </trkpt>
      <trkpt lat="48.56775" lon="2.02776">
        <ele>93.6</ele>
        <time>2023-12-10T10:29:32Z</time>
      </trkpt>
      <trkpt lat="48.56781" lon="2.02786">
        <ele>93.6</ele>
        <time>2023-12-10T10:29:33Z</time>
      </trkpt>
      <trkpt lat="48.56786" lon="2.02798">
        <ele>91.6</ele>
        <time>2023-12-10T10:29:34Z</time>
      </trkpt>
      <trkpt lat="48.56791" lon="2.02809">
        <ele>91.6</ele>
        <time>2023-12-10T10:29:35Z</time>
      </trkpt>
      <trkpt lat="48.56795" lon="2.02821">
        <ele>91.6</ele>
        <time>2023-12-10T10:29:36Z</time>
      </trkpt>
      <trkpt lat="48.568" lon="2.02834">
        <ele>90.6</ele>
        <time>2023-12-10T10:29:37Z</time>
      </trkpt>
      <trkpt lat="48.56805" lon="2.02846">
        <ele>88.8</ele>
        <time>2023-12-10T10:29:38Z</time>
      </trkpt>
      <trkpt lat="48.5681" lon="2.02859">
        <ele>88.8</ele>
        <time>2023-12-10T10:29:39Z</time>
      </trkpt>
      <trkpt lat="48.56815" lon="2.02872">
        <ele>88.8</ele>
        <time>2023-12-10T10:29:40Z</time>
      </trkpt>
      <trkpt lat="48.5682" lon="2.02886">
        <ele>88.8</ele>
        <time>2023-12-10T10:29:41Z</time>
      </trkpt>
      <trkpt lat="48.56824" lon="2.02899">
        <ele>84.4</ele>
        <time>2023-12-10T10:29:42Z</time>
      </trkpt>
      <trkpt lat="48.56829" lon="2.02913">
        <ele>84.4</ele>
        <time>2023-12-10T10:29:43Z</time>
      </trkpt>
      <trkpt lat="48.56834" lon="2.02926">
        <ele>84.4</ele>
        <time>2023-12-10T10:29:44Z</time>
      </trkpt>
      <trkpt lat="48.56839" lon="2.0294">
        <ele>84.4</ele>
        <time>2023-12-10T10:29:45Z</time>
      </trkpt>
      <trkpt lat="48.56845" lon="2.02953">
        <ele>84.4</ele>
        <time>2023-12-10T10:29:46Z</time>
      </trkpt>
      <trkpt lat="48.56849" lon="2.02967">
        <ele>84.4</ele>
        <time>2023-12-10T10:29:47Z</time>
      </trkpt>
      <trkpt lat="48.56853" lon="2.02981">
        <ele>84.4</ele>
        <time>2023-12-10T10:29:48Z</time>
      </trkpt>
      <trkpt lat="48.56857" lon="2.02994">
        <ele>83.8</ele>
        <time>2023-12-10T10:29:49Z</time>
      </trkpt>
      <trkpt lat="48.5686" lon="2.03007">
        <ele>83.2</ele>
        <time>2023-12-10T10:29:50Z</time>
      </trkpt>
      <trkpt lat="48.56863" lon="2.03019">
        <ele>83.2</ele>
        <time>2023-12-10T10:29:51Z</time>
      </trkpt>
      <trkpt lat="48.56866" lon="2.0303">
        <ele>83.2</ele>
        <time>2023-12-10T10:29:52Z</time>
      </trkpt>
      <trkpt lat="48.56868" lon="2.03039">
        <ele>84.2</ele>
        <time>2023-12-10T10:29:53Z</time>
      </trkpt>
      <trkpt lat="48.56869" lon="2.03046">
        <ele>85.4</ele>
        <time>2023-12-10T10:29:54Z</time>
      </trkpt>
      <trkpt lat="48.5687" lon="2.03052">
        <ele>85.4</ele>
        <time>2023-12-10T10:29:55Z</time>
      </trkpt>
      <trkpt lat="48.56872" lon="2.03057">
        <ele>85.4</ele>
        <time>2023-12-10T10:29:56Z</time>
      </trkpt>
      <trkpt lat="48.56873" lon="2.03059">
        <ele>86.4</ele>
        <time>2023-12-10T10:29:57Z</time>
      </trkpt>
      <trkpt lat="48.56874" lon="2.03061">
        <ele>86</ele>
        <time>2023-12-10T10:29:58Z</time>
      </trkpt>
      <trkpt lat="48.56876" lon="2.03061">
        <ele>86</ele>
        <time>2023-12-10T10:29:59Z</time>
      </trkpt>
      <trkpt lat="48.56878" lon="2.03061">
        <ele>86</ele>
        <time>2023-12-10T10:30:00Z</time>
      </trkpt>
      <trkpt lat="48.5688" lon="2.03061">
        <ele>86</ele>
        <time>2023-12-10T10:30:01Z</time>
      </trkpt>
      <trkpt lat="48.56882" lon="2.03059">
        <ele>85.6</ele>
        <time>2023-12-10T10:30:02Z</time>
      </trkpt>
      <trkpt lat="48.56885" lon="2.03055">
        <ele>85.6</ele>
        <time>2023-12-10T10:30:03Z</time>
      </trkpt>
      <trkpt lat="48.56888" lon="2.03051">
        <ele>85.6</ele>
        <time>2023-12-10T10:30:04Z</time>
      </trkpt>
      <trkpt lat="48.56891" lon="2.03044">
        <ele>85.6</ele>
        <time>2023-12-10T10:30:05Z</time>
      </trkpt>
      <trkpt lat="48.56894" lon="2.03037">
        <ele>85.4</ele>
        <time>2023-12-10T10:30:06Z</time>
      </trkpt>
      <trkpt lat="48.56898" lon="2.03029">
        <ele>85.4</ele>
        <time>2023-12-10T10:30:07Z</time>
      </trkpt>
      <trkpt lat="48.56902" lon="2.03021">
        <ele>85.4</ele>
        <time>2023-12-10T10:30:08Z</time>
      </trkpt>
      <trkpt lat="48.56905" lon="2.03012">
        <ele>85.4</ele>
        <time>2023-12-10T10:30:09Z</time>
      </trkpt>
      <trkpt lat="48.56908" lon="2.03004">
        <ele>84.8</ele>
        <time>2023-12-10T10:30:10Z</time>
      </trkpt>
      <trkpt lat="48.56911" lon="2.02996">
        <ele>84.8</ele>
        <time>2023-12-10T10:30:11Z</time>
      </trkpt>
      <trkpt lat="48.56915" lon="2.02987">
        <ele>84.8</ele>
        <time>2023-12-10T10:30:12Z</time>
      </trkpt>
      <trkpt lat="48.56918" lon="2.02979">
        <ele>85.8</ele>
        <time>2023-12-10T10:30:13Z</time>
      </trkpt>
      <trkpt lat="48.56921" lon="2.02971">
        <ele>86.2</ele>
        <time>2023-12-10T10:30:14Z</time>
      </trkpt>
      <trkpt lat="48.56925" lon="2.02963">
        <ele>86.2</ele>
        <time>2023-12-10T10:30:15Z</time>
      </trkpt>
      <trkpt lat="48.56928" lon="2.02955">
        <ele>86.2</ele>
        <time>2023-12-10T10:30:16Z</time>
      </trkpt>
      <trkpt lat="48.56932" lon="2.02947">
        <ele>86.2</ele>
        <time>2023-12-10T10:30:17Z</time>
      </trkpt>
      <trkpt lat="48.56936" lon="2.02939">
        <ele>86.8</ele>
        <time>2023-12-10T10:30:18Z</time>
      </trkpt>
      <trkpt lat="48.56939" lon="2.02932">
        <ele>86.8</ele>
        <time>2023-12-10T10:30:19Z</time>
      </trkpt>
      <trkpt lat="48.56943" lon="2.02925">
        <ele>86.8</ele>
        <time>2023-12-10T10:30:20Z</time>
      </trkpt>
      <trkpt lat="48.56947" lon="2.02917">
        <ele>86.8</ele>
        <time>2023-12-10T10:30:21Z</time>
      </trkpt>
      <trkpt lat="48.56951" lon="2.0291">
        <ele>87.8</ele>
        <time>2023-12-10T10:30:22Z</time>
      </trkpt>
      <trkpt lat="48.56955" lon="2.02903">
        <ele>87.8</ele>
        <time>2023-12-10T10:30:23Z</time>
      </trkpt>
      <trkpt lat="48.56959" lon="2.02897">
        <ele>87.8</ele>
        <time>2023-12-10T10:30:24Z</time>
      </trkpt>
      <trkpt lat="48.56964" lon="2.02891">
        <ele>88.8</ele>
        <time>2023-12-10T10:30:25Z</time>
      </trkpt>
      <trkpt lat="48.56968" lon="2.02885">
        <ele>88.6</ele>
        <time>2023-12-10T10:30:26Z</time>
      </trkpt>
      <trkpt lat="48.56972" lon="2.02879">
        <ele>88.6</ele>
        <time>2023-12-10T10:30:27Z</time>
      </trkpt>
      <trkpt lat="48.56976" lon="2.02873">
        <ele>88.6</ele>
        <time>2023-12-10T10:30:28Z</time>
      </trkpt>
      <trkpt lat="48.5698" lon="2.02867">
        <ele>89.6</ele>
        <time>2023-12-10T10:30:29Z</time>
      </trkpt>
      <trkpt lat="48.56984" lon="2.02862">
        <ele>90.2</ele>
        <time>2023-12-10T10:30:30Z</time>
      </trkpt>
      <trkpt lat="48.56988" lon="2.02856">
        <ele>90.2</ele>
        <time>2023-12-10T10:30:31Z</time>
      </trkpt>
      <trkpt lat="48.56992" lon="2.02851">
        <ele>90.2</ele>
        <time>2023-12-10T10:30:32Z</time>
      </trkpt>
      <trkpt lat="48.56997" lon="2.02845">
        <ele>90.4</ele>
        <time>2023-12-10T10:30:33Z</time>
      </trkpt>
      <trkpt lat="48.57001" lon="2.02839">
        <ele>90.6</ele>
        <time>2023-12-10T10:30:34Z</time>
      </trkpt>
      <trkpt lat="48.57005" lon="2.02834">
        <ele>90.6</ele>
        <time>2023-12-10T10:30:35Z</time>
      </trkpt>
      <trkpt lat="48.57009" lon="2.02829">
        <ele>90.6</ele>
        <time>2023-12-10T10:30:36Z</time>
      </trkpt>
      <trkpt lat="48.57013" lon="2.02823">
        <ele>90.6</ele>
        <time>2023-12-10T10:30:37Z</time>
      </trkpt>
      <trkpt lat="48.57018" lon="2.02818">
        <ele>91</ele>
        <time>2023-12-10T10:30:38Z</time>
      </trkpt>
      <trkpt lat="48.57022" lon="2.02812">
        <ele>91</ele>
        <time>2023-12-10T10:30:39Z</time>
      </trkpt>
      <trkpt lat="48.57026" lon="2.02807">
        <ele>91</ele>
        <time>2023-12-10T10:30:40Z</time>
      </trkpt>
      <trkpt lat="48.5703" lon="2.02801">
        <ele>91.8</ele>
        <time>2023-12-10T10:30:41Z</time>
      </trkpt>
      <trkpt lat="48.57033" lon="2.02796">
        <ele>91.8</ele>
        <time>2023-12-10T10:30:42Z</time>
      </trkpt>
      <trkpt lat="48.57037" lon="2.02791">
        <ele>91.8</ele>
        <time>2023-12-10T10:30:43Z</time>
      </trkpt>
      <trkpt lat="48.57042" lon="2.02785">
        <ele>91.8</ele>
        <time>2023-12-10T10:30:44Z</time>
      </trkpt>
      <trkpt lat="48.57045" lon="2.0278">
        <ele>91.8</ele>
        <time>2023-12-10T10:30:45Z</time>
      </trkpt>
      <trkpt lat="48.57049" lon="2.02775">
        <ele>92.4</ele>
        <time>2023-12-10T10:30:46Z</time>
      </trkpt>
      <trkpt lat="48.57053" lon="2.02769">
        <ele>92.4</ele>
        <time>2023-12-10T10:30:47Z</time>
      </trkpt>
      <trkpt lat="48.57057" lon="2.02764">
        <ele>92.4</ele>
        <time>2023-12-10T10:30:48Z</time>
      </trkpt>
      <trkpt lat="48.57061" lon="2.02759">
        <ele>93.4</ele>
        <time>2023-12-10T10:30:49Z</time>
      </trkpt>
      <trkpt lat="48.57065" lon="2.02754">
        <ele>93.4</ele>
        <time>2023-12-10T10:30:50Z</time>
      </trkpt>
      <trkpt lat="48.57069" lon="2.02748">
        <ele>93.4</ele>
        <time>2023-12-10T10:30:51Z</time>
      </trkpt>
      <trkpt lat="48.57073" lon="2.02743">
        <ele>93.4</ele>
        <time>2023-12-10T10:30:52Z</time>
      </trkpt>
      <trkpt lat="48.57077" lon="2.02737">
        <ele>92.4</ele>
        <time>2023-12-10T10:30:53Z</time>
      </trkpt>
      <trkpt lat="48.57081" lon="2.02732">
        <ele>92.8</ele>
        <time>2023-12-10T10:30:54Z</time>
      </trkpt>
      <trkpt lat="48.57085" lon="2.02727">
        <ele>92.8</ele>
        <time>2023-12-10T10:30:55Z</time>
      </trkpt>
      <trkpt lat="48.57089" lon="2.02721">
        <ele>92.8</ele>
        <time>2023-12-10T10:30:56Z</time>
      </trkpt>
      <trkpt lat="48.57093" lon="2.02716">
        <ele>93.4</ele>
        <time>2023-12-10T10:30:57Z</time>
      </trkpt>
      <trkpt lat="48.57097" lon="2.0271">
        <ele>94</ele>
        <time>2023-12-10T10:30:58Z</time>
      </trkpt>
      <trkpt lat="48.57101" lon="2.02705">
        <ele>94</ele>
        <time>2023-12-10T10:30:59Z</time>
      </trkpt>
      <trkpt lat="48.57105" lon="2.02699">
        <ele>94</ele>
        <time>2023-12-10T10:31:00Z</time>
      </trkpt>
      <trkpt lat="48.57109" lon="2.02693">
        <ele>93.6</ele>
        <time>2023-12-10T10:31:01Z</time>
      </trkpt>
      <trkpt lat="48.57114" lon="2.02688">
        <ele>94.6</ele>
        <time>2023-12-10T10:31:02Z</time>
      </trkpt>
      <trkpt lat="48.57118" lon="2.02682">
        <ele>94.6</ele>
        <time>2023-12-10T10:31:03Z</time>
      </trkpt>
      <trkpt lat="48.57122" lon="2.02677">
        <ele>94.6</ele>
        <time>2023-12-10T10:31:04Z</time>
      </trkpt>
      <trkpt lat="48.57126" lon="2.02671">
        <ele>94.4</ele>
        <time>2023-12-10T10:31:05Z</time>
      </trkpt>
      <trkpt lat="48.5713" lon="2.02665">
        <ele>94.6</ele>
        <time>2023-12-10T10:31:06Z</time>
      </trkpt>
      <trkpt lat="48.57134" lon="2.0266">
        <ele>94.6</ele>
        <time>2023-12-10T10:31:07Z</time>
      </trkpt>
      <trkpt lat="48.57138" lon="2.02654">
        <ele>94.6</ele>
        <time>2023-12-10T10:31:08Z</time>
      </trkpt>
      <trkpt lat="48.57143" lon="2.02648">
        <ele>95</ele>
        <time>2023-12-10T10:31:09Z</time>
      </trkpt>
      <trkpt lat="48.57147" lon="2.02642">
        <ele>95</ele>
        <time>2023-12-10T10:31:10Z</time>
      </trkpt>
      <trkpt lat="48.57152" lon="2.02636">
        <ele>95</ele>
        <time>2023-12-10T10:31:11Z</time>
      </trkpt>
      <trkpt lat="48.57157" lon="2.02629">
        <ele>95</ele>
        <time>2023-12-10T10:31:12Z</time>
      </trkpt>
      <trkpt lat="48.57161" lon="2.02623">
        <ele>95.2</ele>
        <time>2023-12-10T10:31:13Z</time>
      </trkpt>
      <trkpt lat="48.57166" lon="2.02616">
        <ele>95.2</ele>
        <time>2023-12-10T10:31:14Z</time>
      </trkpt>
      <trkpt lat="48.57171" lon="2.0261">
        <ele>95.2</ele>
        <time>2023-12-10T10:31:15Z</time>
      </trkpt>
      <trkpt lat="48.57176" lon="2.02603">
        <ele>95.2</ele>
        <time>2023-12-10T10:31:16Z</time>
      </trkpt>
      <trkpt lat="48.57181" lon="2.02597">
        <ele>94.2</ele>
        <time>2023-12-10T10:31:17Z</time>
      </trkpt>
      <trkpt lat="48.57186" lon="2.0259">
        <ele>93.8</ele>
        <time>2023-12-10T10:31:18Z</time>
      </trkpt>
      <trkpt lat="48.57191" lon="2.02583">
        <ele>93.8</ele>
        <time>2023-12-10T10:31:19Z</time>
      </trkpt>
      <trkpt lat="48.57196" lon="2.02576">
        <ele>93.8</ele>
        <time>2023-12-10T10:31:20Z</time>
      </trkpt>
      <trkpt lat="48.57201" lon="2.02569">
        <ele>93.8</ele>
        <time>2023-12-10T10:31:21Z</time>
      </trkpt>
      <trkpt lat="48.57205" lon="2.02562">
        <ele>93.6</ele>
        <time>2023-12-10T10:31:22Z</time>
      </trkpt>
      <trkpt lat="48.5721" lon="2.02555">
        <ele>93.6</ele>
        <time>2023-12-10T10:31:23Z</time>
      </trkpt>
      <trkpt lat="48.57215" lon="2.02548">
        <ele>93.6</ele>
        <time>2023-12-10T10:31:24Z</time>
      </trkpt>
      <trkpt lat="48.5722" lon="2.02541">
        <ele>93.6</ele>
        <time>2023-12-10T10:31:25Z</time>
      </trkpt>
      <trkpt lat="48.57224" lon="2.02534">
        <ele>93.8</ele>
        <time>2023-12-10T10:31:26Z</time>
      </trkpt>
      <trkpt lat="48.57229" lon="2.02526">
        <ele>93.8</ele>
        <time>2023-12-10T10:31:27Z</time>
      </trkpt>
      <trkpt lat="48.57233" lon="2.02519">
        <ele>93.8</ele>
        <time>2023-12-10T10:31:28Z</time>
      </trkpt>
      <trkpt lat="48.57237" lon="2.02512">
        <ele>93.8</ele>
        <time>2023-12-10T10:31:29Z</time>
      </trkpt>
      <trkpt lat="48.57241" lon="2.02504">
        <ele>94.4</ele>
        <time>2023-12-10T10:31:30Z</time>
      </trkpt>
      <trkpt lat="48.57245" lon="2.02497">
        <ele>94.4</ele>
        <time>2023-12-10T10:31:31Z</time>
      </trkpt>
      <trkpt lat="48.57248" lon="2.02489">
        <ele>94.4</ele>
        <time>2023-12-10T10:31:32Z</time>
      </trkpt>
      <trkpt lat="48.57251" lon="2.02482">
        <ele>94.8</ele>
        <time>2023-12-10T10:31:33Z</time>
      </trkpt>
      <trkpt lat="48.57254" lon="2.02474">
        <ele>95</ele>
        <time>2023-12-10T10:31:34Z</time>
      </trkpt>
      <trkpt lat="48.57257" lon="2.02467">
        <ele>95</ele>
        <time>2023-12-10T10:31:35Z</time>
      </trkpt>
      <trkpt lat="48.5726" lon="2.0246">
        <ele>95</ele>
        <time>2023-12-10T10:31:36Z</time>
      </trkpt>
      <trkpt lat="48.57262" lon="2.02454">
        <ele>96</ele>
        <time>2023-12-10T10:31:37Z</time>
      </trkpt>
      <trkpt lat="48.57267" lon="2.02452">
        <ele>97.4</ele>
        <time>2023-12-10T10:31:38Z</time>
      </trkpt>
      <trkpt lat="48.57271" lon="2.02453">
        <ele>97.4</ele>
        <time>2023-12-10T10:31:39Z</time>
      </trkpt>
      <trkpt lat="48.57274" lon="2.02457">
        <ele>97.4</ele>
        <time>2023-12-10T10:31:40Z</time>
      </trkpt>
      <trkpt lat="48.57276" lon="2.02463">
        <ele>96.4</ele>
        <time>2023-12-10T10:31:41Z</time>
      </trkpt>
      <trkpt lat="48.57279" lon="2.02471">
        <ele>93.6</ele>
        <time>2023-12-10T10:31:42Z</time>
      </trkpt>
      <trkpt lat="48.57282" lon="2.0248">
        <ele>93.6</ele>
        <time>2023-12-10T10:31:43Z</time>
      </trkpt>
      <trkpt lat="48.57286" lon="2.0249">
        <ele>93.6</ele>
        <time>2023-12-10T10:31:44Z</time>
      </trkpt>
      <trkpt lat="48.57291" lon="2.02501">
        <ele>92.6</ele>
        <time>2023-12-10T10:31:45Z</time>
      </trkpt>
      <trkpt lat="48.57296" lon="2.02512">
        <ele>90.4</ele>
        <time>2023-12-10T10:31:46Z</time>
      </trkpt>
      <trkpt lat="48.573" lon="2.02524">
        <ele>90.4</ele>
        <time>2023-12-10T10:31:47Z</time>
      </trkpt>
      <trkpt lat="48.57305" lon="2.02536">
        <ele>90.4</ele>
        <time>2023-12-10T10:31:48Z</time>
      </trkpt>
      <trkpt lat="48.57311" lon="2.02549">
        <ele>89.4</ele>
        <time>2023-12-10T10:31:49Z</time>
      </trkpt>
      <trkpt lat="48.57317" lon="2.02561">
        <ele>85.4</ele>
        <time>2023-12-10T10:31:50Z</time>
      </trkpt>
      <trkpt lat="48.57323" lon="2.02574">
        <ele>85.4</ele>
        <time>2023-12-10T10:31:51Z</time>
      </trkpt>
      <trkpt lat="48.5733" lon="2.02587">
        <ele>85.4</ele>
        <time>2023-12-10T10:31:52Z</time>
      </trkpt>
      <trkpt lat="48.57338" lon="2.02599">
        <ele>84.4</ele>
        <time>2023-12-10T10:31:53Z</time>
      </trkpt>
      <trkpt lat="48.57345" lon="2.02612">
        <ele>83.8</ele>
        <time>2023-12-10T10:31:54Z</time>
      </trkpt>
      <trkpt lat="48.57353" lon="2.02624">
        <ele>83.8</ele>
        <time>2023-12-10T10:31:55Z</time>
      </trkpt>
      <trkpt lat="48.5736" lon="2.02637">
        <ele>83.8</ele>
        <time>2023-12-10T10:31:56Z</time>
      </trkpt>
      <trkpt lat="48.57368" lon="2.0265">
        <ele>82.8</ele>
        <time>2023-12-10T10:31:57Z</time>
      </trkpt>
      <trkpt lat="48.57375" lon="2.02662">
        <ele>81.8</ele>
        <time>2023-12-10T10:31:58Z</time>
      </trkpt>
      <trkpt lat="48.57382" lon="2.02675">
        <ele>81.8</ele>
        <time>2023-12-10T10:31:59Z</time>
      </trkpt>
      <trkpt lat="48.57388" lon="2.02688">
        <ele>81.8</ele>
        <time>2023-12-10T10:32:00Z</time>
      </trkpt>
      <trkpt lat="48.57394" lon="2.027">
        <ele>82.4</ele>
        <time>2023-12-10T10:32:01Z</time>
      </trkpt>
      <trkpt lat="48.574" lon="2.02713">
        <ele>82.4</ele>
        <time>2023-12-10T10:32:02Z</time>
      </trkpt>
      <trkpt lat="48.57406" lon="2.02725">
        <ele>82.4</ele>
        <time>2023-12-10T10:32:03Z</time>
      </trkpt>
      <trkpt lat="48.57411" lon="2.02737">
        <ele>82.4</ele>
        <time>2023-12-10T10:32:04Z</time>
      </trkpt>
      <trkpt lat="48.57417" lon="2.02749">
        <ele>82.8</ele>
        <time>2023-12-10T10:32:05Z</time>
      </trkpt>
      <trkpt lat="48.57422" lon="2.0276">
        <ele>83.4</ele>
        <time>2023-12-10T10:32:06Z</time>
      </trkpt>
      <trkpt lat="48.57427" lon="2.02771">
        <ele>83.4</ele>
        <time>2023-12-10T10:32:07Z</time>
      </trkpt>
      <trkpt lat="48.57432" lon="2.02782">
        <ele>83.4</ele>
        <time>2023-12-10T10:32:08Z</time>
      </trkpt>
      <trkpt lat="48.57437" lon="2.02793">
        <ele>82.8</ele>
        <time>2023-12-10T10:32:09Z</time>
      </trkpt>
      <trkpt lat="48.57442" lon="2.02804">
        <ele>82.8</ele>
        <time>2023-12-10T10:32:10Z</time>
      </trkpt>
      <trkpt lat="48.57446" lon="2.02814">
        <ele>82.8</ele>
        <time>2023-12-10T10:32:11Z</time>
      </trkpt>
      <trkpt lat="48.57451" lon="2.02824">
        <ele>82.8</ele>
        <time>2023-12-10T10:32:12Z</time>
      </trkpt>
      <trkpt lat="48.57455" lon="2.02834">
        <ele>82.8</ele>
        <time>2023-12-10T10:32:13Z</time>
      </trkpt>
      <trkpt lat="48.57459" lon="2.02843">
        <ele>84.2</ele>
        <time>2023-12-10T10:32:14Z</time>
      </trkpt>
      <trkpt lat="48.57463" lon="2.02851">
        <ele>84.2</ele>
        <time>2023-12-10T10:32:15Z</time>
      </trkpt>
      <trkpt lat="48.57469" lon="2.02858">
        <ele>84.2</ele>
        <time>2023-12-10T10:32:16Z</time>
      </trkpt>
      <trkpt lat="48.57474" lon="2.02861">
        <ele>85.2</ele>
        <time>2023-12-10T10:32:17Z</time>
      </trkpt>
      <trkpt lat="48.5748" lon="2.02862">
        <ele>85.8</ele>
        <time>2023-12-10T10:32:18Z</time>
      </trkpt>
      <trkpt lat="48.57486" lon="2.02861">
        <ele>85.8</ele>
        <time>2023-12-10T10:32:19Z</time>
      </trkpt>
      <trkpt lat="48.57492" lon="2.02859">
        <ele>85.8</ele>
        <time>2023-12-10T10:32:20Z</time>
      </trkpt>
      <trkpt lat="48.57498" lon="2.02857">
        <ele>85.8</ele>
        <time>2023-12-10T10:32:21Z</time>
      </trkpt>
      <trkpt lat="48.57503" lon="2.02852">
        <ele>85.2</ele>
        <time>2023-12-10T10:32:22Z</time>
      </trkpt>
      <trkpt lat="48.5751" lon="2.02848">
        <ele>85.2</ele>
        <time>2023-12-10T10:32:23Z</time>
      </trkpt>
      <trkpt lat="48.57517" lon="2.02843">
        <ele>85.2</ele>
        <time>2023-12-10T10:32:24Z</time>
      </trkpt>
      <trkpt lat="48.57524" lon="2.02839">
        <ele>85.2</ele>
        <time>2023-12-10T10:32:25Z</time>
      </trkpt>
      <trkpt lat="48.57531" lon="2.02836">
        <ele>84.6</ele>
        <time>2023-12-10T10:32:26Z</time>
      </trkpt>
      <trkpt lat="48.57539" lon="2.02831">
        <ele>84.6</ele>
        <time>2023-12-10T10:32:27Z</time>
      </trkpt>
      <trkpt lat="48.57547" lon="2.02826">
        <ele>84.6</ele>
        <time>2023-12-10T10:32:28Z</time>
      </trkpt>
      <trkpt lat="48.57554" lon="2.0282">
        <ele>84.6</ele>
        <time>2023-12-10T10:32:29Z</time>
      </trkpt>
      <trkpt lat="48.57561" lon="2.02814">
        <ele>86</ele>
        <time>2023-12-10T10:32:30Z</time>
      </trkpt>
      <trkpt lat="48.57569" lon="2.02808">
        <ele>86</ele>
        <time>2023-12-10T10:32:31Z</time>
      </trkpt>
      <trkpt lat="48.57576" lon="2.02803">
        <ele>86</ele>
        <time>2023-12-10T10:32:32Z</time>
      </trkpt>
      <trkpt lat="48.57583" lon="2.02796">
        <ele>86</ele>
        <time>2023-12-10T10:32:33Z</time>
      </trkpt>
      <trkpt lat="48.5759" lon="2.0279">
        <ele>85.4</ele>
        <time>2023-12-10T10:32:34Z</time>
      </trkpt>
      <trkpt lat="48.57597" lon="2.02783">
        <ele>85.4</ele>
        <time>2023-12-10T10:32:35Z</time>
      </trkpt>
      <trkpt lat="48.57604" lon="2.02777">
        <ele>85.4</ele>
        <time>2023-12-10T10:32:36Z</time>
      </trkpt>
      <trkpt lat="48.57611" lon="2.02772">
        <ele>86.4</ele>
        <time>2023-12-10T10:32:37Z</time>
      </trkpt>
      <trkpt lat="48.57617" lon="2.02765">
        <ele>87.2</ele>
        <time>2023-12-10T10:32:38Z</time>
      </trkpt>
      <trkpt lat="48.57623" lon="2.02759">
        <ele>87.2</ele>
        <time>2023-12-10T10:32:39Z</time>
      </trkpt>
      <trkpt lat="48.57628" lon="2.02751">
        <ele>87.2</ele>
        <time>2023-12-10T10:32:40Z</time>
      </trkpt>
      <trkpt lat="48.57632" lon="2.02744">
        <ele>87.2</ele>
        <time>2023-12-10T10:32:41Z</time>
      </trkpt>
      <trkpt lat="48.57637" lon="2.02737">
        <ele>87.4</ele>
        <time>2023-12-10T10:32:42Z</time>
      </trkpt>
      <trkpt lat="48.57643" lon="2.0273">
        <ele>87.4</ele>
        <time>2023-12-10T10:32:43Z</time>
      </trkpt>
      <trkpt lat="48.57648" lon="2.02723">
        <ele>87.4</ele>
        <time>2023-12-10T10:32:44Z</time>
      </trkpt>
      <trkpt lat="48.57653" lon="2.02716">
        <ele>87.4</ele>
        <time>2023-12-10T10:32:45Z</time>
      </trkpt>
      <trkpt lat="48.57658" lon="2.02709">
        <ele>87.6</ele>
        <time>2023-12-10T10:32:46Z</time>
      </trkpt>
      <trkpt lat="48.57664" lon="2.02702">
        <ele>87.6</ele>
        <time>2023-12-10T10:32:47Z</time>
      </trkpt>
      <trkpt lat="48.57669" lon="2.02695">
        <ele>87.6</ele>
        <time>2023-12-10T10:32:48Z</time>
      </trkpt>
      <trkpt lat="48.57675" lon="2.02689">
        <ele>87.6</ele>
        <time>2023-12-10T10:32:49Z</time>
      </trkpt>
      <trkpt lat="48.5768" lon="2.02683">
        <ele>88</ele>
        <time>2023-12-10T10:32:50Z</time>
      </trkpt>
      <trkpt lat="48.57687" lon="2.02677">
        <ele>88</ele>
        <time>2023-12-10T10:32:51Z</time>
      </trkpt>
      <trkpt lat="48.57693" lon="2.02672">
        <ele>88</ele>
        <time>2023-12-10T10:32:52Z</time>
      </trkpt>
      <trkpt lat="48.57699" lon="2.02667">
        <ele>88</ele>
        <time>2023-12-10T10:32:53Z</time>
      </trkpt>
      <trkpt lat="48.57705" lon="2.02662">
        <ele>88.6</ele>
        <time>2023-12-10T10:32:54Z</time>
      </trkpt>
      <trkpt lat="48.57711" lon="2.02656">
        <ele>88.6</ele>
        <time>2023-12-10T10:32:55Z</time>
      </trkpt>
      <trkpt lat="48.57717" lon="2.02651">
        <ele>88.6</ele>
        <time>2023-12-10T10:32:56Z</time>
      </trkpt>
      <trkpt lat="48.57723" lon="2.02647">
        <ele>88.6</ele>
        <time>2023-12-10T10:32:57Z</time>
      </trkpt>
      <trkpt lat="48.57728" lon="2.02641">
        <ele>88.8</ele>
        <time>2023-12-10T10:32:58Z</time>
      </trkpt>
      <trkpt lat="48.57733" lon="2.02637">
        <ele>88.8</ele>
        <time>2023-12-10T10:32:59Z</time>
      </trkpt>
      <trkpt lat="48.57739" lon="2.02632">
        <ele>88.8</ele>
        <time>2023-12-10T10:33:00Z</time>
      </trkpt>
      <trkpt lat="48.57744" lon="2.02627">
        <ele>89</ele>
        <time>2023-12-10T10:33:01Z</time>
      </trkpt>
      <trkpt lat="48.5775" lon="2.02622">
        <ele>89.4</ele>
        <time>2023-12-10T10:33:02Z</time>
      </trkpt>
      <trkpt lat="48.57755" lon="2.02618">
        <ele>89.4</ele>
        <time>2023-12-10T10:33:03Z</time>
      </trkpt>
      <trkpt lat="48.5776" lon="2.02613">
        <ele>89.4</ele>
        <time>2023-12-10T10:33:04Z</time>
      </trkpt>
      <trkpt lat="48.57766" lon="2.02609">
        <ele>90.2</ele>
        <time>2023-12-10T10:33:05Z</time>
      </trkpt>
      <trkpt lat="48.57771" lon="2.02604">
        <ele>91</ele>
        <time>2023-12-10T10:33:06Z</time>
      </trkpt>
      <trkpt lat="48.57776" lon="2.026">
        <ele>91</ele>
        <time>2023-12-10T10:33:07Z</time>
      </trkpt>
      <trkpt lat="48.57782" lon="2.02595">
        <ele>91</ele>
        <time>2023-12-10T10:33:08Z</time>
      </trkpt>
      <trkpt lat="48.57787" lon="2.02591">
        <ele>90</ele>
        <time>2023-12-10T10:33:09Z</time>
      </trkpt>
      <trkpt lat="48.57793" lon="2.02586">
        <ele>90</ele>
        <time>2023-12-10T10:33:10Z</time>
      </trkpt>
      <trkpt lat="48.57798" lon="2.02581">
        <ele>90</ele>
        <time>2023-12-10T10:33:11Z</time>
      </trkpt>
      <trkpt lat="48.57803" lon="2.02576">
        <ele>90</ele>
        <time>2023-12-10T10:33:12Z</time>
      </trkpt>
      <trkpt lat="48.57809" lon="2.02572">
        <ele>90</ele>
        <time>2023-12-10T10:33:13Z</time>
      </trkpt>
      <trkpt lat="48.57814" lon="2.02567">
        <ele>90.6</ele>
        <time>2023-12-10T10:33:14Z</time>
      </trkpt>
      <trkpt lat="48.57819" lon="2.02562">
        <ele>90.6</ele>
        <time>2023-12-10T10:33:15Z</time>
      </trkpt>
      <trkpt lat="48.57825" lon="2.02557">
        <ele>90.6</ele>
        <time>2023-12-10T10:33:16Z</time>
      </trkpt>
      <trkpt lat="48.5783" lon="2.02553">
        <ele>90.6</ele>
        <time>2023-12-10T10:33:17Z</time>
      </trkpt>
      <trkpt lat="48.57835" lon="2.02548">
        <ele>90.4</ele>
        <time>2023-12-10T10:33:18Z</time>
      </trkpt>
      <trkpt lat="48.57841" lon="2.02543">
        <ele>90.4</ele>
        <time>2023-12-10T10:33:19Z</time>
      </trkpt>
      <trkpt lat="48.57846" lon="2.02538">
        <ele>90.4</ele>
        <time>2023-12-10T10:33:20Z</time>
      </trkpt>
      <trkpt lat="48.57851" lon="2.02533">
        <ele>91</ele>
        <time>2023-12-10T10:33:21Z</time>
      </trkpt>
      <trkpt lat="48.57856" lon="2.02528">
        <ele>91.2</ele>
        <time>2023-12-10T10:33:22Z</time>
      </trkpt>
      <trkpt lat="48.57862" lon="2.02524">
        <ele>91.2</ele>
        <time>2023-12-10T10:33:23Z</time>
      </trkpt>
      <trkpt lat="48.57867" lon="2.02519">
        <ele>91.2</ele>
        <time>2023-12-10T10:33:24Z</time>
      </trkpt>
      <trkpt lat="48.57872" lon="2.02514">
        <ele>91.2</ele>
        <time>2023-12-10T10:33:25Z</time>
      </trkpt>
      <trkpt lat="48.57877" lon="2.0251">
        <ele>91.8</ele>
        <time>2023-12-10T10:33:26Z</time>
      </trkpt>
      <trkpt lat="48.57883" lon="2.02505">
        <ele>91.8</ele>
        <time>2023-12-10T10:33:27Z</time>
      </trkpt>
      <trkpt lat="48.57888" lon="2.02501">
        <ele>91.8</ele>
        <time>2023-12-10T10:33:28Z</time>
      </trkpt>
      <trkpt lat="48.57893" lon="2.02496">
        <ele>91.8</ele>
        <time>2023-12-10T10:33:29Z</time>
      </trkpt>
      <trkpt lat="48.57899" lon="2.02491">
        <ele>91.8</ele>
        <time>2023-12-10T10:33:30Z</time>
      </trkpt>
      <trkpt lat="48.57904" lon="2.02486">
        <ele>91.8</ele>
        <time>2023-12-10T10:33:31Z</time>
      </trkpt>
      <trkpt lat="48.5791" lon="2.02481">
        <ele>91.8</ele>
        <time>2023-12-10T10:33:32Z</time>
      </trkpt>
      <trkpt lat="48.57915" lon="2.02476">
        <ele>91.8</ele>
        <time>2023-12-10T10:33:33Z</time>
      </trkpt>
      <trkpt lat="48.57921" lon="2.02471">
        <ele>92.6</ele>
        <time>2023-12-10T10:33:34Z</time>
      </trkpt>
      <trkpt lat="48.57926" lon="2.02466">
        <ele>92.6</ele>
        <time>2023-12-10T10:33:35Z</time>
      </trkpt>
      <trkpt lat="48.57932" lon="2.02461">
        <ele>92.6</ele>
        <time>2023-12-10T10:33:36Z</time>
      </trkpt>
      <trkpt lat="48.57937" lon="2.02456">
        <ele>92.6</ele>
        <time>2023-12-10T10:33:37Z</time>
      </trkpt>
      <trkpt lat="48.57943" lon="2.02451">
        <ele>92.8</ele>
        <time>2023-12-10T10:33:38Z</time>
      </trkpt>
      <trkpt lat="48.57949" lon="2.02446">
        <ele>92.8</ele>
        <time>2023-12-10T10:33:39Z</time>
      </trkpt>
      <trkpt lat="48.57954" lon="2.0244">
        <ele>92.8</ele>
        <time>2023-12-10T10:33:40Z</time>
      </trkpt>
      <trkpt lat="48.5796" lon="2.02435">
        <ele>92.8</ele>
        <time>2023-12-10T10:33:41Z</time>
      </trkpt>
      <trkpt lat="48.57966" lon="2.0243">
        <ele>93</ele>
        <time>2023-12-10T10:33:42Z</time>
      </trkpt>
      <trkpt lat="48.57971" lon="2.02424">
        <ele>93</ele>
        <time>2023-12-10T10:33:43Z</time>
      </trkpt>
      <trkpt lat="48.57978" lon="2.02419">
        <ele>93</ele>
        <time>2023-12-10T10:33:44Z</time>
      </trkpt>
      <trkpt lat="48.57984" lon="2.02413">
        <ele>92</ele>
        <time>2023-12-10T10:33:45Z</time>
      </trkpt>
      <trkpt lat="48.5799" lon="2.02408">
        <ele>91.6</ele>
        <time>2023-12-10T10:33:46Z</time>
      </trkpt>
      <trkpt lat="48.57997" lon="2.02403">
        <ele>91.6</ele>
        <time>2023-12-10T10:33:47Z</time>
      </trkpt>
      <trkpt lat="48.58004" lon="2.02397">
        <ele>91.6</ele>
        <time>2023-12-10T10:33:48Z</time>
      </trkpt>
      <trkpt lat="48.5801" lon="2.0239">
        <ele>90.6</ele>
        <time>2023-12-10T10:33:49Z</time>
      </trkpt>
      <trkpt lat="48.58017" lon="2.02384">
        <ele>90.2</ele>
        <time>2023-12-10T10:33:50Z</time>
      </trkpt>
      <trkpt lat="48.58025" lon="2.02378">
        <ele>90.2</ele>
        <time>2023-12-10T10:33:51Z</time>
      </trkpt>
      <trkpt lat="48.58032" lon="2.02372">
        <ele>90.2</ele>
        <time>2023-12-10T10:33:52Z</time>
      </trkpt>
      <trkpt lat="48.58039" lon="2.02365">
        <ele>89.2</ele>
        <time>2023-12-10T10:33:53Z</time>
      </trkpt>
      <trkpt lat="48.58047" lon="2.02358">
        <ele>89</ele>
        <time>2023-12-10T10:33:54Z</time>
      </trkpt>
      <trkpt lat="48.58054" lon="2.02352">
        <ele>89</ele>
        <time>2023-12-10T10:33:55Z</time>
      </trkpt>
      <trkpt lat="48.58061" lon="2.02346">
        <ele>89</ele>
        <time>2023-12-10T10:33:56Z</time>
      </trkpt>
      <trkpt lat="48.58069" lon="2.02339">
        <ele>89</ele>
        <time>2023-12-10T10:33:57Z</time>
      </trkpt>
      <trkpt lat="48.58076" lon="2.02333">
        <ele>88.8</ele>
        <time>2023-12-10T10:33:58Z</time>
      </trkpt>
      <trkpt lat="48.58083" lon="2.02327">
        <ele>88.8</ele>
        <time>2023-12-10T10:33:59Z</time>
      </trkpt>
      <trkpt lat="48.5809" lon="2.02321">
        <ele>88.8</ele>
        <time>2023-12-10T10:34:00Z</time>
      </trkpt>
      <trkpt lat="48.58097" lon="2.02315">
        <ele>88.8</ele>
        <time>2023-12-10T10:34:01Z</time>
      </trkpt>
      <trkpt lat="48.58104" lon="2.02308">
        <ele>89.2</ele>
        <time>2023-12-10T10:34:02Z</time>
      </trkpt>
      <trkpt lat="48.58111" lon="2.02302">
        <ele>89.2</ele>
        <time>2023-12-10T10:34:03Z</time>
      </trkpt>
      <trkpt lat="48.58117" lon="2.02295">
        <ele>89.2</ele>
        <time>2023-12-10T10:34:04Z</time>
      </trkpt>
      <trkpt lat="48.58124" lon="2.02288">
        <ele>89.2</ele>
        <time>2023-12-10T10:34:05Z</time>
      </trkpt>
      <trkpt lat="48.5813" lon="2.02282">
        <ele>89.8</ele>
        <time>2023-12-10T10:34:06Z</time>
      </trkpt>
      <trkpt lat="48.58137" lon="2.02275">
        <ele>89.8</ele>
        <time>2023-12-10T10:34:07Z</time>
      </trkpt>
      <trkpt lat="48.58143" lon="2.02268">
        <ele>89.8</ele>
        <time>2023-12-10T10:34:08Z</time>
      </trkpt>
      <trkpt lat="48.5815" lon="2.02261">
        <ele>88.8</ele>
        <time>2023-12-10T10:34:09Z</time>
      </trkpt>
      <trkpt lat="48.58156" lon="2.02255">
        <ele>89</ele>
        <time>2023-12-10T10:34:10Z</time>
      </trkpt>
      <trkpt lat="48.58163" lon="2.02247">
        <ele>89</ele>
        <time>2023-12-10T10:34:11Z</time>
      </trkpt>
      <trkpt lat="48.58169" lon="2.0224">
        <ele>89</ele>
        <time>2023-12-10T10:34:12Z</time>
      </trkpt>
      <trkpt lat="48.58176" lon="2.02233">
        <ele>88.2</ele>
        <time>2023-12-10T10:34:13Z</time>
      </trkpt>
      <trkpt lat="48.58183" lon="2.02226">
        <ele>87.2</ele>
        <time>2023-12-10T10:34:14Z</time>
      </trkpt>
      <trkpt lat="48.58189" lon="2.02219">
        <ele>87.2</ele>
        <time>2023-12-10T10:34:15Z</time>
      </trkpt>
      <trkpt lat="48.58195" lon="2.02211">
        <ele>87.2</ele>
        <time>2023-12-10T10:34:16Z</time>
      </trkpt>
      <trkpt lat="48.58202" lon="2.02204">
        <ele>87.4</ele>
        <time>2023-12-10T10:34:17Z</time>
      </trkpt>
      <trkpt lat="48.58208" lon="2.02197">
        <ele>87.2</ele>
        <time>2023-12-10T10:34:18Z</time>
      </trkpt>
      <trkpt lat="48.58214" lon="2.02192">
        <ele>87.2</ele>
        <time>2023-12-10T10:34:19Z</time>
      </trkpt>
      <trkpt lat="48.5822" lon="2.02187">
        <ele>87.2</ele>
        <time>2023-12-10T10:34:20Z</time>
      </trkpt>
      <trkpt lat="48.58226" lon="2.02181">
        <ele>87.8</ele>
        <time>2023-12-10T10:34:21Z</time>
      </trkpt>
      <trkpt lat="48.58231" lon="2.02174">
        <ele>88.2</ele>
        <time>2023-12-10T10:34:22Z</time>
      </trkpt>
      <trkpt lat="48.58237" lon="2.02166">
        <ele>88.2</ele>
        <time>2023-12-10T10:34:23Z</time>
      </trkpt>
      <trkpt lat="48.58243" lon="2.02158">
        <ele>88.2</ele>
        <time>2023-12-10T10:34:24Z</time>
      </trkpt>
      <trkpt lat="48.58249" lon="2.02151">
        <ele>88.2</ele>
        <time>2023-12-10T10:34:25Z</time>
      </trkpt>
      <trkpt lat="48.58255" lon="2.02144">
        <ele>88.2</ele>
        <time>2023-12-10T10:34:26Z</time>
      </trkpt>
      <trkpt lat="48.5826" lon="2.02136">
        <ele>88.2</ele>
        <time>2023-12-10T10:34:27Z</time>
      </trkpt>
      <trkpt lat="48.58266" lon="2.02128">
        <ele>88.2</ele>
        <time>2023-12-10T10:34:28Z</time>
      </trkpt>
      <trkpt lat="48.58272" lon="2.02121">
        <ele>87.8</ele>
        <time>2023-12-10T10:34:29Z</time>
      </trkpt>
      <trkpt lat="48.58278" lon="2.02113">
        <ele>88.2</ele>
        <time>2023-12-10T10:34:30Z</time>
      </trkpt>
      <trkpt lat="48.58283" lon="2.02106">
        <ele>88.2</ele>
        <time>2023-12-10T10:34:31Z</time>
      </trkpt>
      <trkpt lat="48.58289" lon="2.021">
        <ele>88.2</ele>
        <time>2023-12-10T10:34:32Z</time>
      </trkpt>
      <trkpt lat="48.58294" lon="2.02092">
        <ele>89</ele>
        <time>2023-12-10T10:34:33Z</time>
      </trkpt>
      <trkpt lat="48.583" lon="2.02086">
        <ele>88</ele>
        <time>2023-12-10T10:34:34Z</time>
      </trkpt>
      <trkpt lat="48.58306" lon="2.02078">
        <ele>88</ele>
        <time>2023-12-10T10:34:35Z</time>
      </trkpt>
      <trkpt lat="48.58311" lon="2.0207">
        <ele>88</ele>
        <time>2023-12-10T10:34:36Z</time>
      </trkpt>
      <trkpt lat="48.58317" lon="2.02061">
        <ele>87</ele>
        <time>2023-12-10T10:34:37Z</time>
      </trkpt>
      <trkpt lat="48.58324" lon="2.02054">
        <ele>87.4</ele>
        <time>2023-12-10T10:34:38Z</time>
      </trkpt>
      <trkpt lat="48.5833" lon="2.02047">
        <ele>87.4</ele>
        <time>2023-12-10T10:34:39Z</time>
      </trkpt>
      <trkpt lat="48.58337" lon="2.0204">
        <ele>87.4</ele>
        <time>2023-12-10T10:34:40Z</time>
      </trkpt>
      <trkpt lat="48.58343" lon="2.02034">
        <ele>87.4</ele>
        <time>2023-12-10T10:34:41Z</time>
      </trkpt>
      <trkpt lat="48.58349" lon="2.02028">
        <ele>87.6</ele>
        <time>2023-12-10T10:34:42Z</time>
      </trkpt>
      <trkpt lat="48.58355" lon="2.02021">
        <ele>87.6</ele>
        <time>2023-12-10T10:34:43Z</time>
      </trkpt>
      <trkpt lat="48.58361" lon="2.02014">
        <ele>87.6</ele>
        <time>2023-12-10T10:34:44Z</time>
      </trkpt>
      <trkpt lat="48.58367" lon="2.02006">
        <ele>87.6</ele>
        <time>2023-12-10T10:34:45Z</time>
      </trkpt>
      <trkpt lat="48.58373" lon="2.02002">
        <ele>87.8</ele>
        <time>2023-12-10T10:34:46Z</time>
      </trkpt>
      <trkpt lat="48.58378" lon="2.02">
        <ele>87.8</ele>
        <time>2023-12-10T10:34:47Z</time>
      </trkpt>
      <trkpt lat="48.58385" lon="2.01995">
        <ele>87.8</ele>
        <time>2023-12-10T10:34:48Z</time>
      </trkpt>
      <trkpt lat="48.58395" lon="2.01994">
        <ele>88.4</ele>
        <time>2023-12-10T10:34:49Z</time>
      </trkpt>
      <trkpt lat="48.58397" lon="2.01987">
        <ele>88.6</ele>
        <time>2023-12-10T10:34:50Z</time>
      </trkpt>
      <trkpt lat="48.58401" lon="2.01985">
        <ele>88.6</ele>
        <time>2023-12-10T10:34:51Z</time>
      </trkpt>
      <trkpt lat="48.58408" lon="2.01977">
        <ele>88.6</ele>
        <time>2023-12-10T10:34:52Z</time>
      </trkpt>
      <trkpt lat="48.58416" lon="2.0197">
        <ele>88.4</ele>
        <time>2023-12-10T10:34:53Z</time>
      </trkpt>
      <trkpt lat="48.58422" lon="2.01963">
        <ele>89</ele>
        <time>2023-12-10T10:34:54Z</time>
      </trkpt>
      <trkpt lat="48.58428" lon="2.01956">
        <ele>89</ele>
        <time>2023-12-10T10:34:55Z</time>
      </trkpt>
      <trkpt lat="48.58434" lon="2.01949">
        <ele>89</ele>
        <time>2023-12-10T10:34:56Z</time>
      </trkpt>
      <trkpt lat="48.58439" lon="2.01941">
        <ele>90</ele>
        <time>2023-12-10T10:34:57Z</time>
      </trkpt>
      <trkpt lat="48.58445" lon="2.01935">
        <ele>90</ele>
        <time>2023-12-10T10:34:58Z</time>
      </trkpt>
      <trkpt lat="48.58451" lon="2.01927">
        <ele>90</ele>
        <time>2023-12-10T10:34:59Z</time>
      </trkpt>
      <trkpt lat="48.58457" lon="2.0192">
        <ele>90</ele>
        <time>2023-12-10T10:35:00Z</time>
      </trkpt>
      <trkpt lat="48.58463" lon="2.01913">
        <ele>90</ele>
        <time>2023-12-10T10:35:01Z</time>
      </trkpt>
      <trkpt lat="48.58468" lon="2.01906">
        <ele>90.8</ele>
        <time>2023-12-10T10:35:02Z</time>
      </trkpt>
      <trkpt lat="48.58474" lon="2.01898">
        <ele>90.8</ele>
        <time>2023-12-10T10:35:03Z</time>
      </trkpt>
      <trkpt lat="48.5848" lon="2.01891">
        <ele>90.8</ele>
        <time>2023-12-10T10:35:04Z</time>
      </trkpt>
      <trkpt lat="48.58485" lon="2.01885">
        <ele>90</ele>
        <time>2023-12-10T10:35:05Z</time>
      </trkpt>
      <trkpt lat="48.58491" lon="2.01879">
        <ele>90.2</ele>
        <time>2023-12-10T10:35:06Z</time>
      </trkpt>
      <trkpt lat="48.58497" lon="2.01873">
        <ele>90.2</ele>
        <time>2023-12-10T10:35:07Z</time>
      </trkpt>
      <trkpt lat="48.58503" lon="2.01866">
        <ele>90.2</ele>
        <time>2023-12-10T10:35:08Z</time>
      </trkpt>
      <trkpt lat="48.58508" lon="2.01859">
        <ele>90.4</ele>
        <time>2023-12-10T10:35:09Z</time>
      </trkpt>
      <trkpt lat="48.58514" lon="2.01852">
        <ele>90.4</ele>
        <time>2023-12-10T10:35:10Z</time>
      </trkpt>
      <trkpt lat="48.5852" lon="2.01846">
        <ele>90.4</ele>
        <time>2023-12-10T10:35:11Z</time>
      </trkpt>
      <trkpt lat="48.58527" lon="2.0184">
        <ele>90.4</ele>
        <time>2023-12-10T10:35:12Z</time>
      </trkpt>
      <trkpt lat="48.58533" lon="2.01833">
        <ele>90.4</ele>
        <time>2023-12-10T10:35:13Z</time>
      </trkpt>
      <trkpt lat="48.58539" lon="2.01827">
        <ele>91.4</ele>
        <time>2023-12-10T10:35:14Z</time>
      </trkpt>
      <trkpt lat="48.58544" lon="2.0182">
        <ele>91.4</ele>
        <time>2023-12-10T10:35:15Z</time>
      </trkpt>
      <trkpt lat="48.5855" lon="2.01814">
        <ele>91.4</ele>
        <time>2023-12-10T10:35:16Z</time>
      </trkpt>
      <trkpt lat="48.58556" lon="2.01807">
        <ele>91.4</ele>
        <time>2023-12-10T10:35:17Z</time>
      </trkpt>
      <trkpt lat="48.58562" lon="2.01801">
        <ele>91</ele>
        <time>2023-12-10T10:35:18Z</time>
      </trkpt>
      <trkpt lat="48.58568" lon="2.01795">
        <ele>91</ele>
        <time>2023-12-10T10:35:19Z</time>
      </trkpt>
      <trkpt lat="48.58574" lon="2.01789">
        <ele>91</ele>
        <time>2023-12-10T10:35:20Z</time>
      </trkpt>
      <trkpt lat="48.5858" lon="2.01783">
        <ele>91.8</ele>
        <time>2023-12-10T10:35:21Z</time>
      </trkpt>
      <trkpt lat="48.58586" lon="2.01777">
        <ele>92</ele>
        <time>2023-12-10T10:35:22Z</time>
      </trkpt>
      <trkpt lat="48.58592" lon="2.01771">
        <ele>92</ele>
        <time>2023-12-10T10:35:23Z</time>
      </trkpt>
      <trkpt lat="48.58598" lon="2.01765">
        <ele>92</ele>
        <time>2023-12-10T10:35:24Z</time>
      </trkpt>
      <trkpt lat="48.58604" lon="2.0176">
        <ele>92</ele>
        <time>2023-12-10T10:35:25Z</time>
      </trkpt>
      <trkpt lat="48.58611" lon="2.01754">
        <ele>92.6</ele>
        <time>2023-12-10T10:35:26Z</time>
      </trkpt>
      <trkpt lat="48.58617" lon="2.01749">
        <ele>92.6</ele>
        <time>2023-12-10T10:35:27Z</time>
      </trkpt>
      <trkpt lat="48.58623" lon="2.01745">
        <ele>92.6</ele>
        <time>2023-12-10T10:35:28Z</time>
      </trkpt>
      <trkpt lat="48.5863" lon="2.01741">
        <ele>92.6</ele>
        <time>2023-12-10T10:35:29Z</time>
      </trkpt>
      <trkpt lat="48.58636" lon="2.01737">
        <ele>93</ele>
        <time>2023-12-10T10:35:30Z</time>
      </trkpt>
      <trkpt lat="48.58643" lon="2.01733">
        <ele>93</ele>
        <time>2023-12-10T10:35:31Z</time>
      </trkpt>
      <trkpt lat="48.58649" lon="2.0173">
        <ele>93</ele>
        <time>2023-12-10T10:35:32Z</time>
      </trkpt>
      <trkpt lat="48.58656" lon="2.01727">
        <ele>93</ele>
        <time>2023-12-10T10:35:33Z</time>
      </trkpt>
      <trkpt lat="48.58663" lon="2.01724">
        <ele>93.6</ele>
        <time>2023-12-10T10:35:34Z</time>
      </trkpt>
      <trkpt lat="48.58669" lon="2.0172">
        <ele>93.6</ele>
        <time>2023-12-10T10:35:35Z</time>
      </trkpt>
      <trkpt lat="48.58676" lon="2.01717">
        <ele>93.6</ele>
        <time>2023-12-10T10:35:36Z</time>
      </trkpt>
      <trkpt lat="48.58682" lon="2.01714">
        <ele>93.6</ele>
        <time>2023-12-10T10:35:37Z</time>
      </trkpt>
      <trkpt lat="48.58689" lon="2.0171">
        <ele>94</ele>
        <time>2023-12-10T10:35:38Z</time>
      </trkpt>
      <trkpt lat="48.58695" lon="2.01706">
        <ele>94</ele>
        <time>2023-12-10T10:35:39Z</time>
      </trkpt>
      <trkpt lat="48.58702" lon="2.01703">
        <ele>94</ele>
        <time>2023-12-10T10:35:40Z</time>
      </trkpt>
      <trkpt lat="48.58709" lon="2.01699">
        <ele>93.6</ele>
        <time>2023-12-10T10:35:41Z</time>
      </trkpt>
      <trkpt lat="48.58716" lon="2.01696">
        <ele>94</ele>
        <time>2023-12-10T10:35:42Z</time>
      </trkpt>
      <trkpt lat="48.58723" lon="2.01692">
        <ele>94</ele>
        <time>2023-12-10T10:35:43Z</time>
      </trkpt>
      <trkpt lat="48.58729" lon="2.01689">
        <ele>94</ele>
        <time>2023-12-10T10:35:44Z</time>
      </trkpt>
      <trkpt lat="48.58736" lon="2.01685">
        <ele>94</ele>
        <time>2023-12-10T10:35:45Z</time>
      </trkpt>
      <trkpt lat="48.58743" lon="2.01681">
        <ele>95.2</ele>
        <time>2023-12-10T10:35:46Z</time>
      </trkpt>
      <trkpt lat="48.58749" lon="2.01677">
        <ele>95.2</ele>
        <time>2023-12-10T10:35:47Z</time>
      </trkpt>
      <trkpt lat="48.58756" lon="2.01673">
        <ele>95.2</ele>
        <time>2023-12-10T10:35:48Z</time>
      </trkpt>
      <trkpt lat="48.58763" lon="2.0167">
        <ele>94.8</ele>
        <time>2023-12-10T10:35:49Z</time>
      </trkpt>
      <trkpt lat="48.5877" lon="2.01666">
        <ele>94.6</ele>
        <time>2023-12-10T10:35:50Z</time>
      </trkpt>
      <trkpt lat="48.58777" lon="2.01661">
        <ele>94.6</ele>
        <time>2023-12-10T10:35:51Z</time>
      </trkpt>
      <trkpt lat="48.58784" lon="2.01657">
        <ele>94.6</ele>
        <time>2023-12-10T10:35:52Z</time>
      </trkpt>
      <trkpt lat="48.5879" lon="2.01653">
        <ele>94.6</ele>
        <time>2023-12-10T10:35:53Z</time>
      </trkpt>
      <trkpt lat="48.58797" lon="2.0165">
        <ele>94.8</ele>
        <time>2023-12-10T10:35:54Z</time>
      </trkpt>
      <trkpt lat="48.58804" lon="2.01647">
        <ele>94.8</ele>
        <time>2023-12-10T10:35:55Z</time>
      </trkpt>
      <trkpt lat="48.58811" lon="2.01644">
        <ele>94.8</ele>
        <time>2023-12-10T10:35:56Z</time>
      </trkpt>
      <trkpt lat="48.58818" lon="2.01641">
        <ele>95.2</ele>
        <time>2023-12-10T10:35:57Z</time>
      </trkpt>
      <trkpt lat="48.58824" lon="2.01638">
        <ele>95.2</ele>
        <time>2023-12-10T10:35:58Z</time>
      </trkpt>
      <trkpt lat="48.58831" lon="2.01634">
        <ele>95.2</ele>
        <time>2023-12-10T10:35:59Z</time>
      </trkpt>
      <trkpt lat="48.58839" lon="2.0163">
        <ele>95.2</ele>
        <time>2023-12-10T10:36:00Z</time>
      </trkpt>
      <trkpt lat="48.58847" lon="2.01627">
        <ele>95.2</ele>
        <time>2023-12-10T10:36:01Z</time>
      </trkpt>
      <trkpt lat="48.58854" lon="2.01623">
        <ele>95.2</ele>
        <time>2023-12-10T10:36:02Z</time>
      </trkpt>
      <trkpt lat="48.58862" lon="2.01619">
        <ele>95.2</ele>
        <time>2023-12-10T10:36:03Z</time>
      </trkpt>
      <trkpt lat="48.58869" lon="2.01615">
        <ele>95.2</ele>
        <time>2023-12-10T10:36:04Z</time>
      </trkpt>
      <trkpt lat="48.58877" lon="2.0161">
        <ele>94.2</ele>
        <time>2023-12-10T10:36:05Z</time>
      </trkpt>
      <trkpt lat="48.58884" lon="2.01606">
        <ele>93.6</ele>
        <time>2023-12-10T10:36:06Z</time>
      </trkpt>
      <trkpt lat="48.58892" lon="2.01602">
        <ele>93.6</ele>
        <time>2023-12-10T10:36:07Z</time>
      </trkpt>
      <trkpt lat="48.589" lon="2.01598">
        <ele>93.6</ele>
        <time>2023-12-10T10:36:08Z</time>
      </trkpt>
      <trkpt lat="48.58908" lon="2.01594">
        <ele>93.6</ele>
        <time>2023-12-10T10:36:09Z</time>
      </trkpt>
      <trkpt lat="48.58915" lon="2.0159">
        <ele>93</ele>
        <time>2023-12-10T10:36:10Z</time>
      </trkpt>
      <trkpt lat="48.58923" lon="2.01586">
        <ele>93</ele>
        <time>2023-12-10T10:36:11Z</time>
      </trkpt>
      <trkpt lat="48.5893" lon="2.01582">
        <ele>93</ele>
        <time>2023-12-10T10:36:12Z</time>
      </trkpt>
      <trkpt lat="48.58937" lon="2.01578">
        <ele>93.6</ele>
        <time>2023-12-10T10:36:13Z</time>
      </trkpt>
      <trkpt lat="48.58945" lon="2.01575">
        <ele>94.2</ele>
        <time>2023-12-10T10:36:14Z</time>
      </trkpt>
      <trkpt lat="48.58952" lon="2.01571">
        <ele>94.2</ele>
        <time>2023-12-10T10:36:15Z</time>
      </trkpt>
      <trkpt lat="48.58959" lon="2.01568">
        <ele>94.2</ele>
        <time>2023-12-10T10:36:16Z</time>
      </trkpt>
      <trkpt lat="48.58965" lon="2.01564">
        <ele>94.2</ele>
        <time>2023-12-10T10:36:17Z</time>
      </trkpt>
      <trkpt lat="48.58972" lon="2.01561">
        <ele>96</ele>
        <time>2023-12-10T10:36:18Z</time>
      </trkpt>
      <trkpt lat="48.58978" lon="2.01558">
        <ele>96</ele>
        <time>2023-12-10T10:36:19Z</time>
      </trkpt>
      <trkpt lat="48.58984" lon="2.01554">
        <ele>96</ele>
        <time>2023-12-10T10:36:20Z</time>
      </trkpt>
      <trkpt lat="48.5899" lon="2.01552">
        <ele>96</ele>
        <time>2023-12-10T10:36:21Z</time>
      </trkpt>
      <trkpt lat="48.58996" lon="2.0155">
        <ele>96.8</ele>
        <time>2023-12-10T10:36:22Z</time>
      </trkpt>
      <trkpt lat="48.59002" lon="2.01548">
        <ele>96.8</ele>
        <time>2023-12-10T10:36:23Z</time>
      </trkpt>
      <trkpt lat="48.59007" lon="2.01547">
        <ele>96.8</ele>
        <time>2023-12-10T10:36:24Z</time>
      </trkpt>
      <trkpt lat="48.59013" lon="2.01547">
        <ele>96.8</ele>
        <time>2023-12-10T10:36:25Z</time>
      </trkpt>
      <trkpt lat="48.59018" lon="2.01548">
        <ele>97.2</ele>
        <time>2023-12-10T10:36:26Z</time>
      </trkpt>
      <trkpt lat="48.59024" lon="2.01549">
        <ele>97.2</ele>
        <time>2023-12-10T10:36:27Z</time>
      </trkpt>
      <trkpt lat="48.59028" lon="2.01551">
        <ele>97.2</ele>
        <time>2023-12-10T10:36:28Z</time>
      </trkpt>
      <trkpt lat="48.59032" lon="2.01551">
        <ele>98.2</ele>
        <time>2023-12-10T10:36:29Z</time>
      </trkpt>
      <trkpt lat="48.59035" lon="2.01551">
        <ele>97.6</ele>
        <time>2023-12-10T10:36:30Z</time>
      </trkpt>
      <trkpt lat="48.59037" lon="2.0155">
        <ele>97.6</ele>
        <time>2023-12-10T10:36:31Z</time>
      </trkpt>
      <trkpt lat="48.59038" lon="2.01545">
        <ele>97.6</ele>
        <time>2023-12-10T10:36:32Z</time>
      </trkpt>
      <trkpt lat="48.59037" lon="2.0154">
        <ele>96.6</ele>
        <time>2023-12-10T10:36:33Z</time>
      </trkpt>
      <trkpt lat="48.59035" lon="2.01533">
        <ele>94</ele>
        <time>2023-12-10T10:36:34Z</time>
      </trkpt>
      <trkpt lat="48.59032" lon="2.01526">
        <ele>94</ele>
        <time>2023-12-10T10:36:35Z</time>
      </trkpt>
      <trkpt lat="48.59029" lon="2.01518">
        <ele>94</ele>
        <time>2023-12-10T10:36:36Z</time>
      </trkpt>
      <trkpt lat="48.59027" lon="2.01509">
        <ele>93</ele>
        <time>2023-12-10T10:36:37Z</time>
      </trkpt>
      <trkpt lat="48.59024" lon="2.01499">
        <ele>91.2</ele>
        <time>2023-12-10T10:36:38Z</time>
      </trkpt>
      <trkpt lat="48.59021" lon="2.01489">
        <ele>91.2</ele>
        <time>2023-12-10T10:36:39Z</time>
      </trkpt>
      <trkpt lat="48.59019" lon="2.01479">
        <ele>91.2</ele>
        <time>2023-12-10T10:36:40Z</time>
      </trkpt>
      <trkpt lat="48.59017" lon="2.01468">
        <ele>90.2</ele>
        <time>2023-12-10T10:36:41Z</time>
      </trkpt>
      <trkpt lat="48.59016" lon="2.01458">
        <ele>89</ele>
        <time>2023-12-10T10:36:42Z</time>
      </trkpt>
      <trkpt lat="48.59014" lon="2.01448">
        <ele>89</ele>
        <time>2023-12-10T10:36:43Z</time>
      </trkpt>
      <trkpt lat="48.59013" lon="2.01439">
        <ele>89</ele>
        <time>2023-12-10T10:36:44Z</time>
      </trkpt>
      <trkpt lat="48.59011" lon="2.0143">
        <ele>90</ele>
        <time>2023-12-10T10:36:45Z</time>
      </trkpt>
      <trkpt lat="48.5901" lon="2.01424">
        <ele>91.6</ele>
        <time>2023-12-10T10:36:46Z</time>
      </trkpt>
      <trkpt lat="48.5901" lon="2.01418">
        <ele>91.6</ele>
        <time>2023-12-10T10:36:47Z</time>
      </trkpt>
      <trkpt lat="48.59009" lon="2.01412">
        <ele>91.6</ele>
        <time>2023-12-10T10:36:48Z</time>
      </trkpt>
      <trkpt lat="48.59008" lon="2.01408">
        <ele>92</ele>
        <time>2023-12-10T10:36:49Z</time>
      </trkpt>
      <trkpt lat="48.59007" lon="2.01403">
        <ele>92.4</ele>
        <time>2023-12-10T10:36:50Z</time>
      </trkpt>
      <trkpt lat="48.59006" lon="2.01399">
        <ele>92.4</ele>
        <time>2023-12-10T10:36:51Z</time>
      </trkpt>
      <trkpt lat="48.59006" lon="2.01394">
        <ele>92.4</ele>
        <time>2023-12-10T10:36:52Z</time>
      </trkpt>
      <trkpt lat="48.59005" lon="2.01391">
        <ele>92.4</ele>
        <time>2023-12-10T10:36:53Z</time>
      </trkpt>
      <trkpt lat="48.59004" lon="2.01389">
        <ele>91.4</ele>
        <time>2023-12-10T10:36:54Z</time>
      </trkpt>
      <trkpt lat="48.59003" lon="2.0139">
        <ele>91.4</ele>
        <time>2023-12-10T10:36:55Z</time>
      </trkpt>
      <trkpt lat="48.59003" lon="2.01392">
        <ele>91.4</ele>
        <time>2023-12-10T10:36:56Z</time>
      </trkpt>
      <trkpt lat="48.59004" lon="2.01394">
        <ele>92.4</ele>
        <time>2023-12-10T10:36:57Z</time>
      </trkpt>
      <trkpt lat="48.59004" lon="2.01397">
        <ele>92.4</ele>
        <time>2023-12-10T10:36:58Z</time>
      </trkpt>
      <trkpt lat="48.59005" lon="2.014">
        <ele>92.4</ele>
        <time>2023-12-10T10:36:59Z</time>
      </trkpt>
      <trkpt lat="48.59006" lon="2.01404">
        <ele>92.4</ele>
        <time>2023-12-10T10:37:00Z</time>
      </trkpt>
      <trkpt lat="48.59006" lon="2.01409">
        <ele>92.4</ele>
        <time>2023-12-10T10:37:01Z</time>
      </trkpt>
      <trkpt lat="48.59007" lon="2.01415">
        <ele>92.2</ele>
        <time>2023-12-10T10:37:02Z</time>
      </trkpt>
      <trkpt lat="48.59009" lon="2.01421">
        <ele>92.2</ele>
        <time>2023-12-10T10:37:03Z</time>
      </trkpt>
      <trkpt lat="48.5901" lon="2.01427">
        <ele>92.2</ele>
        <time>2023-12-10T10:37:04Z</time>
      </trkpt>
      <trkpt lat="48.59011" lon="2.01434">
        <ele>92.2</ele>
        <time>2023-12-10T10:37:05Z</time>
      </trkpt>
      <trkpt lat="48.59012" lon="2.01441">
        <ele>91.4</ele>
        <time>2023-12-10T10:37:06Z</time>
      </trkpt>
      <trkpt lat="48.59013" lon="2.01449">
        <ele>91.4</ele>
        <time>2023-12-10T10:37:07Z</time>
      </trkpt>
      <trkpt lat="48.59014" lon="2.01457">
        <ele>91.4</ele>
        <time>2023-12-10T10:37:08Z</time>
      </trkpt>
      <trkpt lat="48.59015" lon="2.01465">
        <ele>92.4</ele>
        <time>2023-12-10T10:37:09Z</time>
      </trkpt>
      <trkpt lat="48.59016" lon="2.01473">
        <ele>93.6</ele>
        <time>2023-12-10T10:37:10Z</time>
      </trkpt>
      <trkpt lat="48.59018" lon="2.0148">
        <ele>93.6</ele>
        <time>2023-12-10T10:37:11Z</time>
      </trkpt>
      <trkpt lat="48.59019" lon="2.01487">
        <ele>93.6</ele>
        <time>2023-12-10T10:37:12Z</time>
      </trkpt>
      <trkpt lat="48.59021" lon="2.01494">
        <ele>93.6</ele>
        <time>2023-12-10T10:37:13Z</time>
      </trkpt>
      <trkpt lat="48.59022" lon="2.01501">
        <ele>94.4</ele>
        <time>2023-12-10T10:37:14Z</time>
      </trkpt>
      <trkpt lat="48.59024" lon="2.01509">
        <ele>94.4</ele>
        <time>2023-12-10T10:37:15Z</time>
      </trkpt>
      <trkpt lat="48.59027" lon="2.01516">
        <ele>94.4</ele>
        <time>2023-12-10T10:37:16Z</time>
      </trkpt>
      <trkpt lat="48.59029" lon="2.01523">
        <ele>95.4</ele>
        <time>2023-12-10T10:37:17Z</time>
      </trkpt>
      <trkpt lat="48.59032" lon="2.0153">
        <ele>96.2</ele>
        <time>2023-12-10T10:37:18Z</time>
      </trkpt>
      <trkpt lat="48.59035" lon="2.01536">
        <ele>96.2</ele>
        <time>2023-12-10T10:37:19Z</time>
      </trkpt>
      <trkpt lat="48.59038" lon="2.01543">
        <ele>96.2</ele>
        <time>2023-12-10T10:37:20Z</time>
      </trkpt>
      <trkpt lat="48.59041" lon="2.01549">
        <ele>97.2</ele>
        <time>2023-12-10T10:37:21Z</time>
      </trkpt>
      <trkpt lat="48.59044" lon="2.01555">
        <ele>98.6</ele>
        <time>2023-12-10T10:37:22Z</time>
      </trkpt>
      <trkpt lat="48.59047" lon="2.01561">
        <ele>98.6</ele>
        <time>2023-12-10T10:37:23Z</time>
      </trkpt>
      <trkpt lat="48.5905" lon="2.01568">
        <ele>98.6</ele>
        <time>2023-12-10T10:37:24Z</time>
      </trkpt>
      <trkpt lat="48.59053" lon="2.01574">
        <ele>98.6</ele>
        <time>2023-12-10T10:37:25Z</time>
      </trkpt>
      <trkpt lat="48.59056" lon="2.0158">
        <ele>99.2</ele>
        <time>2023-12-10T10:37:26Z</time>
      </trkpt>
      <trkpt lat="48.59059" lon="2.01585">
        <ele>99.2</ele>
        <time>2023-12-10T10:37:27Z</time>
      </trkpt>
      <trkpt lat="48.59063" lon="2.0159">
        <ele>99.2</ele>
        <time>2023-12-10T10:37:28Z</time>
      </trkpt>
      <trkpt lat="48.59067" lon="2.01593">
        <ele>100</ele>
        <time>2023-12-10T10:37:29Z</time>
      </trkpt>
      <trkpt lat="48.59072" lon="2.01594">
        <ele>100</ele>
        <time>2023-12-10T10:37:30Z</time>
      </trkpt>
      <trkpt lat="48.59077" lon="2.01594">
        <ele>100</ele>
        <time>2023-12-10T10:37:31Z</time>
      </trkpt>
      <trkpt lat="48.59082" lon="2.01592">
        <ele>100</ele>
        <time>2023-12-10T10:37:32Z</time>
      </trkpt>
      <trkpt lat="48.59086" lon="2.0159">
        <ele>101</ele>
        <time>2023-12-10T10:37:33Z</time>
      </trkpt>
      <trkpt lat="48.59091" lon="2.01588">
        <ele>101</ele>
        <time>2023-12-10T10:37:34Z</time>
      </trkpt>
      <trkpt lat="48.59096" lon="2.01586">
        <ele>101</ele>
        <time>2023-12-10T10:37:35Z</time>
      </trkpt>
      <trkpt lat="48.59101" lon="2.01583">
        <ele>101</ele>
        <time>2023-12-10T10:37:36Z</time>
      </trkpt>
      <trkpt lat="48.59106" lon="2.0158">
        <ele>101</ele>
        <time>2023-12-10T10:37:37Z</time>
      </trkpt>
      <trkpt lat="48.59111" lon="2.01577">
        <ele>100</ele>
        <time>2023-12-10T10:37:38Z</time>
      </trkpt>
      <trkpt lat="48.59116" lon="2.01574">
        <ele>100</ele>
        <time>2023-12-10T10:37:39Z</time>
      </trkpt>
      <trkpt lat="48.59121" lon="2.01571">
        <ele>100</ele>
        <time>2023-12-10T10:37:40Z</time>
      </trkpt>
      <trkpt lat="48.59127" lon="2.01568">
        <ele>100.4</ele>
        <time>2023-12-10T10:37:41Z</time>
      </trkpt>
      <trkpt lat="48.59133" lon="2.01565">
        <ele>100.6</ele>
        <time>2023-12-10T10:37:42Z</time>
      </trkpt>
      <trkpt lat="48.59138" lon="2.01562">
        <ele>100.6</ele>
        <time>2023-12-10T10:37:43Z</time>
      </trkpt>
      <trkpt lat="48.59144" lon="2.01558">
        <ele>100.6</ele>
        <time>2023-12-10T10:37:44Z</time>
      </trkpt>
      <trkpt lat="48.5915" lon="2.01555">
        <ele>100.6</ele>
        <time>2023-12-10T10:37:45Z</time>
      </trkpt>
      <trkpt lat="48.59155" lon="2.01551">
        <ele>100.4</ele>
        <time>2023-12-10T10:37:46Z</time>
      </trkpt>
      <trkpt lat="48.59161" lon="2.01546">
        <ele>100.4</ele>
        <time>2023-12-10T10:37:47Z</time>
      </trkpt>
      <trkpt lat="48.59166" lon="2.01542">
        <ele>100.4</ele>
        <time>2023-12-10T10:37:48Z</time>
      </trkpt>
      <trkpt lat="48.59171" lon="2.01537">
        <ele>99.6</ele>
        <time>2023-12-10T10:37:49Z</time>
      </trkpt>
      <trkpt lat="48.59177" lon="2.01532">
        <ele>99.6</ele>
        <time>2023-12-10T10:37:50Z</time>
      </trkpt>
      <trkpt lat="48.59182" lon="2.01527">
        <ele>99.6</ele>
        <time>2023-12-10T10:37:51Z</time>
      </trkpt>
      <trkpt lat="48.59188" lon="2.01522">
        <ele>99.6</ele>
        <time>2023-12-10T10:37:52Z</time>
      </trkpt>
      <trkpt lat="48.59193" lon="2.01516">
        <ele>99.6</ele>
        <time>2023-12-10T10:37:53Z</time>
      </trkpt>
      <trkpt lat="48.59198" lon="2.0151">
        <ele>100.8</ele>
        <time>2023-12-10T10:37:54Z</time>
      </trkpt>
      <trkpt lat="48.59204" lon="2.01503">
        <ele>100.8</ele>
        <time>2023-12-10T10:37:55Z</time>
      </trkpt>
      <trkpt lat="48.59209" lon="2.01496">
        <ele>100.8</ele>
        <time>2023-12-10T10:37:56Z</time>
      </trkpt>
      <trkpt lat="48.59215" lon="2.0149">
        <ele>100.8</ele>
        <time>2023-12-10T10:37:57Z</time>
      </trkpt>
      <trkpt lat="48.59221" lon="2.01485">
        <ele>98.6</ele>
        <time>2023-12-10T10:37:58Z</time>
      </trkpt>
      <trkpt lat="48.59228" lon="2.0148">
        <ele>98.6</ele>
        <time>2023-12-10T10:37:59Z</time>
      </trkpt>
      <trkpt lat="48.59234" lon="2.01474">
        <ele>98.6</ele>
        <time>2023-12-10T10:38:00Z</time>
      </trkpt>
      <trkpt lat="48.5924" lon="2.01467">
        <ele>99</ele>
        <time>2023-12-10T10:38:01Z</time>
      </trkpt>
      <trkpt lat="48.59245" lon="2.0146">
        <ele>98.4</ele>
        <time>2023-12-10T10:38:02Z</time>
      </trkpt>
      <trkpt lat="48.59251" lon="2.01453">
        <ele>98.4</ele>
        <time>2023-12-10T10:38:03Z</time>
      </trkpt>
      <trkpt lat="48.59256" lon="2.01445">
        <ele>98.4</ele>
        <time>2023-12-10T10:38:04Z</time>
      </trkpt>
      <trkpt lat="48.59262" lon="2.01438">
        <ele>99.4</ele>
        <time>2023-12-10T10:38:05Z</time>
      </trkpt>
      <trkpt lat="48.59268" lon="2.01432">
        <ele>99.8</ele>
        <time>2023-12-10T10:38:06Z</time>
      </trkpt>
      <trkpt lat="48.59273" lon="2.01425">
        <ele>99.8</ele>
        <time>2023-12-10T10:38:07Z</time>
      </trkpt>
      <trkpt lat="48.59279" lon="2.01418">
        <ele>99.8</ele>
        <time>2023-12-10T10:38:08Z</time>
      </trkpt>
      <trkpt lat="48.59285" lon="2.01412">
        <ele>98.8</ele>
        <time>2023-12-10T10:38:09Z</time>
      </trkpt>
      <trkpt lat="48.59291" lon="2.01406">
        <ele>98.6</ele>
        <time>2023-12-10T10:38:10Z</time>
      </trkpt>
      <trkpt lat="48.59297" lon="2.014">
        <ele>98.6</ele>
        <time>2023-12-10T10:38:11Z</time>
      </trkpt>
      <trkpt lat="48.59303" lon="2.01395">
        <ele>98.6</ele>
        <time>2023-12-10T10:38:12Z</time>
      </trkpt>
      <trkpt lat="48.5931" lon="2.01389">
        <ele>98.2</ele>
        <time>2023-12-10T10:38:13Z</time>
      </trkpt>
      <trkpt lat="48.59316" lon="2.01384">
        <ele>98.2</ele>
        <time>2023-12-10T10:38:14Z</time>
      </trkpt>
      <trkpt lat="48.59322" lon="2.01378">
        <ele>98.2</ele>
        <time>2023-12-10T10:38:15Z</time>
      </trkpt>
      <trkpt lat="48.59329" lon="2.01373">
        <ele>98.2</ele>
        <time>2023-12-10T10:38:16Z</time>
      </trkpt>
      <trkpt lat="48.59335" lon="2.01368">
        <ele>98.2</ele>
        <time>2023-12-10T10:38:17Z</time>
      </trkpt>
      <trkpt lat="48.59342" lon="2.01363">
        <ele>98.8</ele>
        <time>2023-12-10T10:38:18Z</time>
      </trkpt>
      <trkpt lat="48.59348" lon="2.01358">
        <ele>98.8</ele>
        <time>2023-12-10T10:38:19Z</time>
      </trkpt>
      <trkpt lat="48.59353" lon="2.01353">
        <ele>98.8</ele>
        <time>2023-12-10T10:38:20Z</time>
      </trkpt>
      <trkpt lat="48.59359" lon="2.01347">
        <ele>98.8</ele>
        <time>2023-12-10T10:38:21Z</time>
      </trkpt>
      <trkpt lat="48.59365" lon="2.01342">
        <ele>98.6</ele>
        <time>2023-12-10T10:38:22Z</time>
      </trkpt>
      <trkpt lat="48.59371" lon="2.01338">
        <ele>98.6</ele>
        <time>2023-12-10T10:38:23Z</time>
      </trkpt>
      <trkpt lat="48.59376" lon="2.01333">
        <ele>98.6</ele>
        <time>2023-12-10T10:38:24Z</time>
      </trkpt>
      <trkpt lat="48.59382" lon="2.01328">
        <ele>98.6</ele>
        <time>2023-12-10T10:38:25Z</time>
      </trkpt>
      <trkpt lat="48.59388" lon="2.01324">
        <ele>99.6</ele>
        <time>2023-12-10T10:38:26Z</time>
      </trkpt>
      <trkpt lat="48.59393" lon="2.01319">
        <ele>99.6</ele>
        <time>2023-12-10T10:38:27Z</time>
      </trkpt>
      <trkpt lat="48.59399" lon="2.01315">
        <ele>99.6</ele>
        <time>2023-12-10T10:38:28Z</time>
      </trkpt>
      <trkpt lat="48.59405" lon="2.01311">
        <ele>99.6</ele>
        <time>2023-12-10T10:38:29Z</time>
      </trkpt>
      <trkpt lat="48.59411" lon="2.01307">
        <ele>100.4</ele>
        <time>2023-12-10T10:38:30Z</time>
      </trkpt>
      <trkpt lat="48.59417" lon="2.01304">
        <ele>100.4</ele>
        <time>2023-12-10T10:38:31Z</time>
      </trkpt>
      <trkpt lat="48.59423" lon="2.01301">
        <ele>100.4</ele>
        <time>2023-12-10T10:38:32Z</time>
      </trkpt>
      <trkpt lat="48.59429" lon="2.01298">
        <ele>100.2</ele>
        <time>2023-12-10T10:38:33Z</time>
      </trkpt>
      <trkpt lat="48.59435" lon="2.01296">
        <ele>100</ele>
        <time>2023-12-10T10:38:34Z</time>
      </trkpt>
      <trkpt lat="48.59441" lon="2.01295">
        <ele>100</ele>
        <time>2023-12-10T10:38:35Z</time>
      </trkpt>
      <trkpt lat="48.59447" lon="2.01292">
        <ele>100</ele>
        <time>2023-12-10T10:38:36Z</time>
      </trkpt>
      <trkpt lat="48.59453" lon="2.01291">
        <ele>101</ele>
        <time>2023-12-10T10:38:37Z</time>
      </trkpt>
      <trkpt lat="48.59459" lon="2.01289">
        <ele>101.2</ele>
        <time>2023-12-10T10:38:38Z</time>
      </trkpt>
      <trkpt lat="48.59466" lon="2.01288">
        <ele>101.2</ele>
        <time>2023-12-10T10:38:39Z</time>
      </trkpt>
      <trkpt lat="48.59472" lon="2.01287">
        <ele>101.2</ele>
        <time>2023-12-10T10:38:40Z</time>
      </trkpt>
      <trkpt lat="48.59478" lon="2.01287">
        <ele>101.2</ele>
        <time>2023-12-10T10:38:41Z</time>
      </trkpt>
      <trkpt lat="48.59484" lon="2.01287">
        <ele>101.6</ele>
        <time>2023-12-10T10:38:42Z</time>
      </trkpt>
      <trkpt lat="48.5949" lon="2.01287">
        <ele>101.6</ele>
        <time>2023-12-10T10:38:43Z</time>
      </trkpt>
      <trkpt lat="48.59496" lon="2.01286">
        <ele>101.6</ele>
        <time>2023-12-10T10:38:44Z</time>
      </trkpt>
      <trkpt lat="48.59502" lon="2.01286">
        <ele>101.6</ele>
        <time>2023-12-10T10:38:45Z</time>
      </trkpt>
      <trkpt lat="48.59508" lon="2.01287">
        <ele>102</ele>
        <time>2023-12-10T10:38:46Z</time>
      </trkpt>
      <trkpt lat="48.59514" lon="2.01287">
        <ele>102</ele>
        <time>2023-12-10T10:38:47Z</time>
      </trkpt>
      <trkpt lat="48.5952" lon="2.01289">
        <ele>102</ele>
        <time>2023-12-10T10:38:48Z</time>
      </trkpt>
      <trkpt lat="48.59527" lon="2.01289">
        <ele>102</ele>
        <time>2023-12-10T10:38:49Z</time>
      </trkpt>
      <trkpt lat="48.59534" lon="2.0129">
        <ele>103.4</ele>
        <time>2023-12-10T10:38:50Z</time>
      </trkpt>
      <trkpt lat="48.59541" lon="2.0129">
        <ele>103.4</ele>
        <time>2023-12-10T10:38:51Z</time>
      </trkpt>
      <trkpt lat="48.59548" lon="2.0129">
        <ele>103.4</ele>
        <time>2023-12-10T10:38:52Z</time>
      </trkpt>
      <trkpt lat="48.59556" lon="2.0129">
        <ele>103</ele>
        <time>2023-12-10T10:38:53Z</time>
      </trkpt>
      <trkpt lat="48.59563" lon="2.01289">
        <ele>103</ele>
        <time>2023-12-10T10:38:54Z</time>
      </trkpt>
      <trkpt lat="48.5957" lon="2.01288">
        <ele>103</ele>
        <time>2023-12-10T10:38:55Z</time>
      </trkpt>
      <trkpt lat="48.59577" lon="2.01288">
        <ele>103</ele>
        <time>2023-12-10T10:38:56Z</time>
      </trkpt>
      <trkpt lat="48.59584" lon="2.01285">
        <ele>103</ele>
        <time>2023-12-10T10:38:57Z</time>
      </trkpt>
      <trkpt lat="48.59591" lon="2.01283">
        <ele>103.4</ele>
        <time>2023-12-10T10:38:58Z</time>
      </trkpt>
      <trkpt lat="48.59597" lon="2.01279">
        <ele>103.4</ele>
        <time>2023-12-10T10:38:59Z</time>
      </trkpt>
      <trkpt lat="48.59603" lon="2.01274">
        <ele>103.4</ele>
        <time>2023-12-10T10:39:00Z</time>
      </trkpt>
      <trkpt lat="48.5961" lon="2.0127">
        <ele>103.4</ele>
        <time>2023-12-10T10:39:01Z</time>
      </trkpt>
      <trkpt lat="48.59616" lon="2.01265">
        <ele>104.2</ele>
        <time>2023-12-10T10:39:02Z</time>
      </trkpt>
      <trkpt lat="48.59622" lon="2.0126">
        <ele>104.2</ele>
        <time>2023-12-10T10:39:03Z</time>
      </trkpt>
      <trkpt lat="48.59628" lon="2.01255">
        <ele>104.2</ele>
        <time>2023-12-10T10:39:04Z</time>
      </trkpt>
      <trkpt lat="48.59634" lon="2.0125">
        <ele>103.2</ele>
        <time>2023-12-10T10:39:05Z</time>
      </trkpt>
      <trkpt lat="48.5964" lon="2.01245">
        <ele>103.8</ele>
        <time>2023-12-10T10:39:06Z</time>
      </trkpt>
      <trkpt lat="48.59646" lon="2.0124">
        <ele>103.8</ele>
        <time>2023-12-10T10:39:07Z</time>
      </trkpt>
      <trkpt lat="48.59652" lon="2.01234">
        <ele>103.8</ele>
        <time>2023-12-10T10:39:08Z</time>
      </trkpt>
      <trkpt lat="48.59658" lon="2.01229">
        <ele>103.8</ele>
        <time>2023-12-10T10:39:09Z</time>
      </trkpt>
      <trkpt lat="48.59665" lon="2.01224">
        <ele>103.6</ele>
        <time>2023-12-10T10:39:10Z</time>
      </trkpt>
      <trkpt lat="48.59671" lon="2.01219">
        <ele>103.6</ele>
        <time>2023-12-10T10:39:11Z</time>
      </trkpt>
      <trkpt lat="48.59677" lon="2.01213">
        <ele>103.6</ele>
        <time>2023-12-10T10:39:12Z</time>
      </trkpt>
      <trkpt lat="48.59684" lon="2.01208">
        <ele>102.6</ele>
        <time>2023-12-10T10:39:13Z</time>
      </trkpt>
      <trkpt lat="48.5969" lon="2.01202">
        <ele>102</ele>
        <time>2023-12-10T10:39:14Z</time>
      </trkpt>
      <trkpt lat="48.59696" lon="2.01196">
        <ele>102</ele>
        <time>2023-12-10T10:39:15Z</time>
      </trkpt>
      <trkpt lat="48.59702" lon="2.0119">
        <ele>102</ele>
        <time>2023-12-10T10:39:16Z</time>
      </trkpt>
      <trkpt lat="48.5971" lon="2.01186">
        <ele>101.4</ele>
        <time>2023-12-10T10:39:17Z</time>
      </trkpt>
      <trkpt lat="48.59716" lon="2.0118">
        <ele>100.8</ele>
        <time>2023-12-10T10:39:18Z</time>
      </trkpt>
      <trkpt lat="48.59723" lon="2.01174">
        <ele>100.8</ele>
        <time>2023-12-10T10:39:19Z</time>
      </trkpt>
      <trkpt lat="48.5973" lon="2.01168">
        <ele>100.8</ele>
        <time>2023-12-10T10:39:20Z</time>
      </trkpt>
      <trkpt lat="48.59738" lon="2.01162">
        <ele>99.8</ele>
        <time>2023-12-10T10:39:21Z</time>
      </trkpt>
      <trkpt lat="48.59745" lon="2.01154">
        <ele>98.8</ele>
        <time>2023-12-10T10:39:22Z</time>
      </trkpt>
      <trkpt lat="48.59752" lon="2.01146">
        <ele>98.8</ele>
        <time>2023-12-10T10:39:23Z</time>
      </trkpt>
      <trkpt lat="48.59759" lon="2.01137">
        <ele>98.8</ele>
        <time>2023-12-10T10:39:24Z</time>
      </trkpt>
      <trkpt lat="48.59767" lon="2.01128">
        <ele>98.2</ele>
        <time>2023-12-10T10:39:25Z</time>
      </trkpt>
      <trkpt lat="48.59775" lon="2.0112">
        <ele>97.6</ele>
        <time>2023-12-10T10:39:26Z</time>
      </trkpt>
      <trkpt lat="48.59782" lon="2.01112">
        <ele>97.6</ele>
        <time>2023-12-10T10:39:27Z</time>
      </trkpt>
      <trkpt lat="48.5979" lon="2.01103">
        <ele>97.6</ele>
        <time>2023-12-10T10:39:28Z</time>
      </trkpt>
      <trkpt lat="48.59798" lon="2.01093">
        <ele>96.8</ele>
        <time>2023-12-10T10:39:29Z</time>
      </trkpt>
      <trkpt lat="48.59807" lon="2.01084">
        <ele>94.6</ele>
        <time>2023-12-10T10:39:30Z</time>
      </trkpt>
      <trkpt lat="48.59815" lon="2.01074">
        <ele>94.6</ele>
        <time>2023-12-10T10:39:31Z</time>
      </trkpt>
      <trkpt lat="48.59821" lon="2.01064">
        <ele>94.6</ele>
        <time>2023-12-10T10:39:32Z</time>
      </trkpt>
      <trkpt lat="48.59829" lon="2.01055">
        <ele>94.6</ele>
        <time>2023-12-10T10:39:33Z</time>
      </trkpt>
      <trkpt lat="48.59837" lon="2.01046">
        <ele>95.4</ele>
        <time>2023-12-10T10:39:34Z</time>
      </trkpt>
      <trkpt lat="48.59845" lon="2.01038">
        <ele>95.4</ele>
        <time>2023-12-10T10:39:35Z</time>
      </trkpt>
      <trkpt lat="48.59853" lon="2.01028">
        <ele>95.4</ele>
        <time>2023-12-10T10:39:36Z</time>
      </trkpt>
      <trkpt lat="48.5986" lon="2.01018">
        <ele>94.8</ele>
        <time>2023-12-10T10:39:37Z</time>
      </trkpt>
      <trkpt lat="48.59867" lon="2.01009">
        <ele>96.2</ele>
        <time>2023-12-10T10:39:38Z</time>
      </trkpt>
      <trkpt lat="48.59873" lon="2.01001">
        <ele>96.2</ele>
        <time>2023-12-10T10:39:39Z</time>
      </trkpt>
      <trkpt lat="48.5988" lon="2.00994">
        <ele>96.2</ele>
        <time>2023-12-10T10:39:40Z</time>
      </trkpt>
      <trkpt lat="48.59886" lon="2.00986">
        <ele>97.2</ele>
        <time>2023-12-10T10:39:41Z</time>
      </trkpt>
      <trkpt lat="48.59892" lon="2.00978">
        <ele>98</ele>
        <time>2023-12-10T10:39:42Z</time>
      </trkpt>
      <trkpt lat="48.59898" lon="2.00971">
        <ele>98</ele>
        <time>2023-12-10T10:39:43Z</time>
      </trkpt>
      <trkpt lat="48.59904" lon="2.00964">
        <ele>98</ele>
        <time>2023-12-10T10:39:44Z</time>
      </trkpt>
      <trkpt lat="48.5991" lon="2.00957">
        <ele>99</ele>
        <time>2023-12-10T10:39:45Z</time>
      </trkpt>
      <trkpt lat="48.59917" lon="2.00952">
        <ele>99.6</ele>
        <time>2023-12-10T10:39:46Z</time>
      </trkpt>
      <trkpt lat="48.59922" lon="2.00946">
        <ele>99.6</ele>
        <time>2023-12-10T10:39:47Z</time>
      </trkpt>
      <trkpt lat="48.59928" lon="2.0094">
        <ele>99.6</ele>
        <time>2023-12-10T10:39:48Z</time>
      </trkpt>
      <trkpt lat="48.59933" lon="2.00934">
        <ele>100</ele>
        <time>2023-12-10T10:39:49Z</time>
      </trkpt>
      <trkpt lat="48.59938" lon="2.00928">
        <ele>100.8</ele>
        <time>2023-12-10T10:39:50Z</time>
      </trkpt>
      <trkpt lat="48.59944" lon="2.00922">
        <ele>100.8</ele>
        <time>2023-12-10T10:39:51Z</time>
      </trkpt>
      <trkpt lat="48.59949" lon="2.00917">
        <ele>100.8</ele>
        <time>2023-12-10T10:39:52Z</time>
      </trkpt>
      <trkpt lat="48.59953" lon="2.00912">
        <ele>100.8</ele>
        <time>2023-12-10T10:39:53Z</time>
      </trkpt>
      <trkpt lat="48.59958" lon="2.00907">
        <ele>101.8</ele>
        <time>2023-12-10T10:39:54Z</time>
      </trkpt>
      <trkpt lat="48.59963" lon="2.00902">
        <ele>101.8</ele>
        <time>2023-12-10T10:39:55Z</time>
      </trkpt>
      <trkpt lat="48.59967" lon="2.00897">
        <ele>101.8</ele>
        <time>2023-12-10T10:39:56Z</time>
      </trkpt>
      <trkpt lat="48.59972" lon="2.00892">
        <ele>102.8</ele>
        <time>2023-12-10T10:39:57Z</time>
      </trkpt>
      <trkpt lat="48.59976" lon="2.00888">
        <ele>103.2</ele>
        <time>2023-12-10T10:39:58Z</time>
      </trkpt>
      <trkpt lat="48.5998" lon="2.00884">
        <ele>103.2</ele>
        <time>2023-12-10T10:39:59Z</time>
      </trkpt>
      <trkpt lat="48.59984" lon="2.00879">
        <ele>103.2</ele>
        <time>2023-12-10T10:40:00Z</time>
      </trkpt>
      <trkpt lat="48.59988" lon="2.00875">
        <ele>103.8</ele>
        <time>2023-12-10T10:40:01Z</time>
      </trkpt>
      <trkpt lat="48.59992" lon="2.0087">
        <ele>103.6</ele>
        <time>2023-12-10T10:40:02Z</time>
      </trkpt>
      <trkpt lat="48.59996" lon="2.00865">
        <ele>103.6</ele>
        <time>2023-12-10T10:40:03Z</time>
      </trkpt>
      <trkpt lat="48.6" lon="2.00861">
        <ele>103.6</ele>
        <time>2023-12-10T10:40:04Z</time>
      </trkpt>
      <trkpt lat="48.60003" lon="2.00857">
        <ele>104.2</ele>
        <time>2023-12-10T10:40:05Z</time>
      </trkpt>
      <trkpt lat="48.60007" lon="2.00853">
        <ele>104.2</ele>
        <time>2023-12-10T10:40:06Z</time>
      </trkpt>
      <trkpt lat="48.60011" lon="2.00849">
        <ele>104.2</ele>
        <time>2023-12-10T10:40:07Z</time>
      </trkpt>
      <trkpt lat="48.60014" lon="2.00845">
        <ele>104.2</ele>
        <time>2023-12-10T10:40:08Z</time>
      </trkpt>
      <trkpt lat="48.60018" lon="2.00842">
        <ele>105.2</ele>
        <time>2023-12-10T10:40:09Z</time>
      </trkpt>
      <trkpt lat="48.60021" lon="2.00838">
        <ele>105.4</ele>
        <time>2023-12-10T10:40:10Z</time>
      </trkpt>
      <trkpt lat="48.60025" lon="2.00834">
        <ele>105.4</ele>
        <time>2023-12-10T10:40:11Z</time>
      </trkpt>
      <trkpt lat="48.60028" lon="2.00831">
        <ele>105.4</ele>
        <time>2023-12-10T10:40:12Z</time>
      </trkpt>
      <trkpt lat="48.60032" lon="2.00827">
        <ele>106.2</ele>
        <time>2023-12-10T10:40:13Z</time>
      </trkpt>
      <trkpt lat="48.60035" lon="2.00823">
        <ele>105.8</ele>
        <time>2023-12-10T10:40:14Z</time>
      </trkpt>
      <trkpt lat="48.60039" lon="2.00819">
        <ele>105.8</ele>
        <time>2023-12-10T10:40:15Z</time>
      </trkpt>
      <trkpt lat="48.60042" lon="2.00816">
        <ele>105.8</ele>
        <time>2023-12-10T10:40:16Z</time>
      </trkpt>
      <trkpt lat="48.60046" lon="2.00813">
        <ele>106.4</ele>
        <time>2023-12-10T10:40:17Z</time>
      </trkpt>
      <trkpt lat="48.6005" lon="2.00809">
        <ele>106.8</ele>
        <time>2023-12-10T10:40:18Z</time>
      </trkpt>
      <trkpt lat="48.60054" lon="2.00806">
        <ele>106.8</ele>
        <time>2023-12-10T10:40:19Z</time>
      </trkpt>
      <trkpt lat="48.60057" lon="2.00803">
        <ele>106.8</ele>
        <time>2023-12-10T10:40:20Z</time>
      </trkpt>
      <trkpt lat="48.60061" lon="2.008">
        <ele>107.8</ele>
        <time>2023-12-10T10:40:21Z</time>
      </trkpt>
      <trkpt lat="48.60065" lon="2.00797">
        <ele>107.6</ele>
        <time>2023-12-10T10:40:22Z</time>
      </trkpt>
      <trkpt lat="48.60068" lon="2.00795">
        <ele>107.6</ele>
        <time>2023-12-10T10:40:23Z</time>
      </trkpt>
      <trkpt lat="48.60072" lon="2.00792">
        <ele>107.6</ele>
        <time>2023-12-10T10:40:24Z</time>
      </trkpt>
      <trkpt lat="48.60076" lon="2.00791">
        <ele>108.2</ele>
        <time>2023-12-10T10:40:25Z</time>
      </trkpt>
      <trkpt lat="48.6008" lon="2.00789">
        <ele>108.8</ele>
        <time>2023-12-10T10:40:26Z</time>
      </trkpt>
      <trkpt lat="48.60084" lon="2.00786">
        <ele>108.8</ele>
        <time>2023-12-10T10:40:27Z</time>
      </trkpt>
      <trkpt lat="48.60086" lon="2.00784">
        <ele>108.8</ele>
        <time>2023-12-10T10:40:28Z</time>
      </trkpt>
      <trkpt lat="48.6009" lon="2.00782">
        <ele>108.8</ele>
        <time>2023-12-10T10:40:29Z</time>
      </trkpt>
      <trkpt lat="48.60094" lon="2.00781">
        <ele>109.4</ele>
        <time>2023-12-10T10:40:30Z</time>
      </trkpt>
      <trkpt lat="48.60097" lon="2.00777">
        <ele>109.4</ele>
        <time>2023-12-10T10:40:31Z</time>
      </trkpt>
      <trkpt lat="48.60101" lon="2.00776">
        <ele>109.4</ele>
        <time>2023-12-10T10:40:32Z</time>
      </trkpt>
      <trkpt lat="48.60105" lon="2.00774">
        <ele>109.4</ele>
        <time>2023-12-10T10:40:33Z</time>
      </trkpt>
      <trkpt lat="48.60108" lon="2.00773">
        <ele>110</ele>
        <time>2023-12-10T10:40:34Z</time>
      </trkpt>
      <trkpt lat="48.60112" lon="2.0077">
        <ele>110</ele>
        <time>2023-12-10T10:40:35Z</time>
      </trkpt>
      <trkpt lat="48.60115" lon="2.00769">
        <ele>110</ele>
        <time>2023-12-10T10:40:36Z</time>
      </trkpt>
      <trkpt lat="48.60118" lon="2.00767">
        <ele>110.6</ele>
        <time>2023-12-10T10:40:37Z</time>
      </trkpt>
      <trkpt lat="48.60122" lon="2.00766">
        <ele>110.8</ele>
        <time>2023-12-10T10:40:38Z</time>
      </trkpt>
      <trkpt lat="48.60125" lon="2.00763">
        <ele>110.8</ele>
        <time>2023-12-10T10:40:39Z</time>
      </trkpt>
      <trkpt lat="48.60129" lon="2.00762">
        <ele>110.8</ele>
        <time>2023-12-10T10:40:40Z</time>
      </trkpt>
      <trkpt lat="48.60131" lon="2.00758">
        <ele>110.8</ele>
        <time>2023-12-10T10:40:41Z</time>
      </trkpt>
      <trkpt lat="48.60135" lon="2.00756">
        <ele>111.6</ele>
        <time>2023-12-10T10:40:42Z</time>
      </trkpt>
      <trkpt lat="48.60139" lon="2.00755">
        <ele>111.6</ele>
        <time>2023-12-10T10:40:43Z</time>
      </trkpt>
      <trkpt lat="48.60143" lon="2.00754">
        <ele>111.6</ele>
        <time>2023-12-10T10:40:44Z</time>
      </trkpt>
      <trkpt lat="48.60147" lon="2.0075">
        <ele>112</ele>
        <time>2023-12-10T10:40:45Z</time>
      </trkpt>
      <trkpt lat="48.60151" lon="2.00749">
        <ele>112.4</ele>
        <time>2023-12-10T10:40:46Z</time>
      </trkpt>
      <trkpt lat="48.60155" lon="2.00749">
        <ele>112.4</ele>
        <time>2023-12-10T10:40:47Z</time>
      </trkpt>
      <trkpt lat="48.60157" lon="2.00746">
        <ele>112.4</ele>
        <time>2023-12-10T10:40:48Z</time>
      </trkpt>
      <trkpt lat="48.60161" lon="2.00744">
        <ele>113.2</ele>
        <time>2023-12-10T10:40:49Z</time>
      </trkpt>
      <trkpt lat="48.60163" lon="2.00741">
        <ele>113.2</ele>
        <time>2023-12-10T10:40:50Z</time>
      </trkpt>
      <trkpt lat="48.60167" lon="2.0074">
        <ele>113.2</ele>
        <time>2023-12-10T10:40:51Z</time>
      </trkpt>
      <trkpt lat="48.6017" lon="2.00739">
        <ele>113.2</ele>
        <time>2023-12-10T10:40:52Z</time>
      </trkpt>
      <trkpt lat="48.60174" lon="2.00738">
        <ele>114</ele>
        <time>2023-12-10T10:40:53Z</time>
      </trkpt>
      <trkpt lat="48.60176" lon="2.00736">
        <ele>114.4</ele>
        <time>2023-12-10T10:40:54Z</time>
      </trkpt>
      <trkpt lat="48.60178" lon="2.00734">
        <ele>114.4</ele>
        <time>2023-12-10T10:40:55Z</time>
      </trkpt>
      <trkpt lat="48.6018" lon="2.00733">
        <ele>114.4</ele>
        <time>2023-12-10T10:40:56Z</time>
      </trkpt>
      <trkpt lat="48.60184" lon="2.00731">
        <ele>114.8</ele>
        <time>2023-12-10T10:40:57Z</time>
      </trkpt>
      <trkpt lat="48.60186" lon="2.00729">
        <ele>115.8</ele>
        <time>2023-12-10T10:40:58Z</time>
      </trkpt>
      <trkpt lat="48.60188" lon="2.00728">
        <ele>115.8</ele>
        <time>2023-12-10T10:40:59Z</time>
      </trkpt>
      <trkpt lat="48.60191" lon="2.00726">
        <ele>115.8</ele>
        <time>2023-12-10T10:41:00Z</time>
      </trkpt>
      <trkpt lat="48.60196" lon="2.00724">
        <ele>116.6</ele>
        <time>2023-12-10T10:41:01Z</time>
      </trkpt>
      <trkpt lat="48.60199" lon="2.00722">
        <ele>116.2</ele>
        <time>2023-12-10T10:41:02Z</time>
      </trkpt>
      <trkpt lat="48.60201" lon="2.00721">
        <ele>116.2</ele>
        <time>2023-12-10T10:41:03Z</time>
      </trkpt>
      <trkpt lat="48.60203" lon="2.00719">
        <ele>116.2</ele>
        <time>2023-12-10T10:41:04Z</time>
      </trkpt>
      <trkpt lat="48.60207" lon="2.00718">
        <ele>116.6</ele>
        <time>2023-12-10T10:41:05Z</time>
      </trkpt>
      <trkpt lat="48.60211" lon="2.00718">
        <ele>117</ele>
        <time>2023-12-10T10:41:06Z</time>
      </trkpt>
      <trkpt lat="48.60214" lon="2.00717">
        <ele>117</ele>
        <time>2023-12-10T10:41:07Z</time>
      </trkpt>
      <trkpt lat="48.60218" lon="2.00716">
        <ele>117</ele>
        <time>2023-12-10T10:41:08Z</time>
      </trkpt>
      <trkpt lat="48.60222" lon="2.00715">
        <ele>117.6</ele>
        <time>2023-12-10T10:41:09Z</time>
      </trkpt>
      <trkpt lat="48.60224" lon="2.00714">
        <ele>117.8</ele>
        <time>2023-12-10T10:41:10Z</time>
      </trkpt>
      <trkpt lat="48.60224" lon="2.00713">
        <ele>117.8</ele>
        <time>2023-12-10T10:41:11Z</time>
      </trkpt>
      <trkpt lat="48.60231" lon="2.00712">
        <ele>117.8</ele>
        <time>2023-12-10T10:41:12Z</time>
      </trkpt>
      <trkpt lat="48.60237" lon="2.00714">
        <ele>118.2</ele>
        <time>2023-12-10T10:41:13Z</time>
      </trkpt>
      <trkpt lat="48.6024" lon="2.00714">
        <ele>118.4</ele>
        <time>2023-12-10T10:41:14Z</time>
      </trkpt>
      <trkpt lat="48.60244" lon="2.00713">
        <ele>118.4</ele>
        <time>2023-12-10T10:41:15Z</time>
      </trkpt>
      <trkpt lat="48.60248" lon="2.00713">
        <ele>118.4</ele>
        <time>2023-12-10T10:41:16Z</time>
      </trkpt>
      <trkpt lat="48.60251" lon="2.00712">
        <ele>119.2</ele>
        <time>2023-12-10T10:41:17Z</time>
      </trkpt>
      <trkpt lat="48.60255" lon="2.00711">
        <ele>119.2</ele>
        <time>2023-12-10T10:41:18Z</time>
      </trkpt>
      <trkpt lat="48.60259" lon="2.0071">
        <ele>119.2</ele>
        <time>2023-12-10T10:41:19Z</time>
      </trkpt>
      <trkpt lat="48.60263" lon="2.00711">
        <ele>119.2</ele>
        <time>2023-12-10T10:41:20Z</time>
      </trkpt>
      <trkpt lat="48.60267" lon="2.00714">
        <ele>119.8</ele>
        <time>2023-12-10T10:41:21Z</time>
      </trkpt>
      <trkpt lat="48.60271" lon="2.00717">
        <ele>119.6</ele>
        <time>2023-12-10T10:41:22Z</time>
      </trkpt>
      <trkpt lat="48.60274" lon="2.00722">
        <ele>119.6</ele>
        <time>2023-12-10T10:41:23Z</time>
      </trkpt>
      <trkpt lat="48.60278" lon="2.00728">
        <ele>119.6</ele>
        <time>2023-12-10T10:41:24Z</time>
      </trkpt>
      <trkpt lat="48.60281" lon="2.00734">
        <ele>118.8</ele>
        <time>2023-12-10T10:41:25Z</time>
      </trkpt>
      <trkpt lat="48.60285" lon="2.0074">
        <ele>118.6</ele>
        <time>2023-12-10T10:41:26Z</time>
      </trkpt>
      <trkpt lat="48.60289" lon="2.00747">
        <ele>118.6</ele>
        <time>2023-12-10T10:41:27Z</time>
      </trkpt>
      <trkpt lat="48.60293" lon="2.00753">
        <ele>118.6</ele>
        <time>2023-12-10T10:41:28Z</time>
      </trkpt>
      <trkpt lat="48.60298" lon="2.00761">
        <ele>117.6</ele>
        <time>2023-12-10T10:41:29Z</time>
      </trkpt>
      <trkpt lat="48.60303" lon="2.00768">
        <ele>116.4</ele>
        <time>2023-12-10T10:41:30Z</time>
      </trkpt>
      <trkpt lat="48.60307" lon="2.00776">
        <ele>116.4</ele>
        <time>2023-12-10T10:41:31Z</time>
      </trkpt>
      <trkpt lat="48.60312" lon="2.00784">
        <ele>116.4</ele>
        <time>2023-12-10T10:41:32Z</time>
      </trkpt>
      <trkpt lat="48.60316" lon="2.00792">
        <ele>116.8</ele>
        <time>2023-12-10T10:41:33Z</time>
      </trkpt>
      <trkpt lat="48.60321" lon="2.00801">
        <ele>117.4</ele>
        <time>2023-12-10T10:41:34Z</time>
      </trkpt>
      <trkpt lat="48.60326" lon="2.00809">
        <ele>117.4</ele>
        <time>2023-12-10T10:41:35Z</time>
      </trkpt>
      <trkpt lat="48.60331" lon="2.00817">
        <ele>117.4</ele>
        <time>2023-12-10T10:41:36Z</time>
      </trkpt>
      <trkpt lat="48.60336" lon="2.00826">
        <ele>116.4</ele>
        <time>2023-12-10T10:41:37Z</time>
      </trkpt>
      <trkpt lat="48.60341" lon="2.00834">
        <ele>116.8</ele>
        <time>2023-12-10T10:41:38Z</time>
      </trkpt>
      <trkpt lat="48.60346" lon="2.00843">
        <ele>116.8</ele>
        <time>2023-12-10T10:41:39Z</time>
      </trkpt>
      <trkpt lat="48.60351" lon="2.00851">
        <ele>116.8</ele>
        <time>2023-12-10T10:41:40Z</time>
      </trkpt>
      <trkpt lat="48.60356" lon="2.00859">
        <ele>116.8</ele>
        <time>2023-12-10T10:41:41Z</time>
      </trkpt>
      <trkpt lat="48.6036" lon="2.00868">
        <ele>116.8</ele>
        <time>2023-12-10T10:41:42Z</time>
      </trkpt>
      <trkpt lat="48.60364" lon="2.00876">
        <ele>116.8</ele>
        <time>2023-12-10T10:41:43Z</time>
      </trkpt>
      <trkpt lat="48.60367" lon="2.00884">
        <ele>116.8</ele>
        <time>2023-12-10T10:41:44Z</time>
      </trkpt>
      <trkpt lat="48.60371" lon="2.00892">
        <ele>116.8</ele>
        <time>2023-12-10T10:41:45Z</time>
      </trkpt>
      <trkpt lat="48.60374" lon="2.00901">
        <ele>117</ele>
        <time>2023-12-10T10:41:46Z</time>
      </trkpt>
      <trkpt lat="48.60377" lon="2.0091">
        <ele>117</ele>
        <time>2023-12-10T10:41:47Z</time>
      </trkpt>
      <trkpt lat="48.60381" lon="2.00917">
        <ele>117</ele>
        <time>2023-12-10T10:41:48Z</time>
      </trkpt>
      <trkpt lat="48.60386" lon="2.00924">
        <ele>117</ele>
        <time>2023-12-10T10:41:49Z</time>
      </trkpt>
      <trkpt lat="48.6039" lon="2.0093">
        <ele>116.6</ele>
        <time>2023-12-10T10:41:50Z</time>
      </trkpt>
      <trkpt lat="48.60395" lon="2.00937">
        <ele>116.6</ele>
        <time>2023-12-10T10:41:51Z</time>
      </trkpt>
      <trkpt lat="48.60399" lon="2.00945">
        <ele>116.6</ele>
        <time>2023-12-10T10:41:52Z</time>
      </trkpt>
      <trkpt lat="48.60403" lon="2.00953">
        <ele>116.6</ele>
        <time>2023-12-10T10:41:53Z</time>
      </trkpt>
      <trkpt lat="48.60407" lon="2.00962">
        <ele>116.6</ele>
        <time>2023-12-10T10:41:54Z</time>
      </trkpt>
      <trkpt lat="48.60412" lon="2.0097">
        <ele>116.6</ele>
        <time>2023-12-10T10:41:55Z</time>
      </trkpt>
      <trkpt lat="48.60416" lon="2.00978">
        <ele>116.6</ele>
        <time>2023-12-10T10:41:56Z</time>
      </trkpt>
      <trkpt lat="48.6042" lon="2.00986">
        <ele>116.6</ele>
        <time>2023-12-10T10:41:57Z</time>
      </trkpt>
      <trkpt lat="48.60424" lon="2.00994">
        <ele>116.8</ele>
        <time>2023-12-10T10:41:58Z</time>
      </trkpt>
      <trkpt lat="48.60429" lon="2.01002">
        <ele>116.8</ele>
        <time>2023-12-10T10:41:59Z</time>
      </trkpt>
      <trkpt lat="48.60433" lon="2.0101">
        <ele>116.8</ele>
        <time>2023-12-10T10:42:00Z</time>
      </trkpt>
      <trkpt lat="48.60437" lon="2.01018">
        <ele>116.8</ele>
        <time>2023-12-10T10:42:01Z</time>
      </trkpt>
      <trkpt lat="48.60441" lon="2.01026">
        <ele>116.2</ele>
        <time>2023-12-10T10:42:02Z</time>
      </trkpt>
      <trkpt lat="48.60445" lon="2.01034">
        <ele>116.2</ele>
        <time>2023-12-10T10:42:03Z</time>
      </trkpt>
      <trkpt lat="48.60449" lon="2.01042">
        <ele>116.2</ele>
        <time>2023-12-10T10:42:04Z</time>
      </trkpt>
      <trkpt lat="48.60453" lon="2.01051">
        <ele>115.2</ele>
        <time>2023-12-10T10:42:05Z</time>
      </trkpt>
      <trkpt lat="48.60458" lon="2.0106">
        <ele>114.6</ele>
        <time>2023-12-10T10:42:06Z</time>
      </trkpt>
      <trkpt lat="48.60462" lon="2.0107">
        <ele>114.6</ele>
        <time>2023-12-10T10:42:07Z</time>
      </trkpt>
      <trkpt lat="48.60467" lon="2.0108">
        <ele>114.6</ele>
        <time>2023-12-10T10:42:08Z</time>
      </trkpt>
      <trkpt lat="48.60471" lon="2.01089">
        <ele>114</ele>
        <time>2023-12-10T10:42:09Z</time>
      </trkpt>
      <trkpt lat="48.60476" lon="2.01099">
        <ele>113.2</ele>
        <time>2023-12-10T10:42:10Z</time>
      </trkpt>
      <trkpt lat="48.60481" lon="2.0111">
        <ele>113.2</ele>
        <time>2023-12-10T10:42:11Z</time>
      </trkpt>
      <trkpt lat="48.60485" lon="2.0112">
        <ele>113.2</ele>
        <time>2023-12-10T10:42:12Z</time>
      </trkpt>
      <trkpt lat="48.6049" lon="2.0113">
        <ele>113.2</ele>
        <time>2023-12-10T10:42:13Z</time>
      </trkpt>
      <trkpt lat="48.60495" lon="2.0114">
        <ele>113.2</ele>
        <time>2023-12-10T10:42:14Z</time>
      </trkpt>
      <trkpt lat="48.60499" lon="2.01149">
        <ele>113.2</ele>
        <time>2023-12-10T10:42:15Z</time>
      </trkpt>
      <trkpt lat="48.60503" lon="2.01159">
        <ele>113.2</ele>
        <time>2023-12-10T10:42:16Z</time>
      </trkpt>
      <trkpt lat="48.60507" lon="2.01169">
        <ele>113.2</ele>
        <time>2023-12-10T10:42:17Z</time>
      </trkpt>
      <trkpt lat="48.60512" lon="2.01178">
        <ele>113.6</ele>
        <time>2023-12-10T10:42:18Z</time>
      </trkpt>
      <trkpt lat="48.60516" lon="2.01188">
        <ele>113.6</ele>
        <time>2023-12-10T10:42:19Z</time>
      </trkpt>
      <trkpt lat="48.6052" lon="2.01197">
        <ele>113.6</ele>
        <time>2023-12-10T10:42:20Z</time>
      </trkpt>
      <trkpt lat="48.60525" lon="2.01207">
        <ele>113.6</ele>
        <time>2023-12-10T10:42:21Z</time>
      </trkpt>
      <trkpt lat="48.60529" lon="2.01216">
        <ele>114</ele>
        <time>2023-12-10T10:42:22Z</time>
      </trkpt>
      <trkpt lat="48.60533" lon="2.01225">
        <ele>114</ele>
        <time>2023-12-10T10:42:23Z</time>
      </trkpt>
      <trkpt lat="48.60538" lon="2.01234">
        <ele>114</ele>
        <time>2023-12-10T10:42:24Z</time>
      </trkpt>
      <trkpt lat="48.60542" lon="2.01243">
        <ele>114.6</ele>
        <time>2023-12-10T10:42:25Z</time>
      </trkpt>
      <trkpt lat="48.60546" lon="2.01252">
        <ele>114.8</ele>
        <time>2023-12-10T10:42:26Z</time>
      </trkpt>
      <trkpt lat="48.60551" lon="2.01261">
        <ele>114.8</ele>
        <time>2023-12-10T10:42:27Z</time>
      </trkpt>
      <trkpt lat="48.60555" lon="2.01269">
        <ele>114.8</ele>
        <time>2023-12-10T10:42:28Z</time>
      </trkpt>
      <trkpt lat="48.60559" lon="2.01278">
        <ele>115.8</ele>
        <time>2023-12-10T10:42:29Z</time>
      </trkpt>
      <trkpt lat="48.60562" lon="2.01286">
        <ele>116.8</ele>
        <time>2023-12-10T10:42:30Z</time>
      </trkpt>
      <trkpt lat="48.60566" lon="2.01294">
        <ele>116.8</ele>
        <time>2023-12-10T10:42:31Z</time>
      </trkpt>
      <trkpt lat="48.6057" lon="2.01302">
        <ele>116.8</ele>
        <time>2023-12-10T10:42:32Z</time>
      </trkpt>
      <trkpt lat="48.60573" lon="2.01309">
        <ele>117.8</ele>
        <time>2023-12-10T10:42:33Z</time>
      </trkpt>
      <trkpt lat="48.60577" lon="2.01316">
        <ele>118.4</ele>
        <time>2023-12-10T10:42:34Z</time>
      </trkpt>
      <trkpt lat="48.6058" lon="2.01324">
        <ele>118.4</ele>
        <time>2023-12-10T10:42:35Z</time>
      </trkpt>
      <trkpt lat="48.60584" lon="2.01331">
        <ele>118.4</ele>
        <time>2023-12-10T10:42:36Z</time>
      </trkpt>
      <trkpt lat="48.60588" lon="2.01338">
        <ele>118.4</ele>
        <time>2023-12-10T10:42:37Z</time>
      </trkpt>
      <trkpt lat="48.60592" lon="2.01345">
        <ele>118.8</ele>
        <time>2023-12-10T10:42:38Z</time>
      </trkpt>
      <trkpt lat="48.60596" lon="2.01351">
        <ele>118.8</ele>
        <time>2023-12-10T10:42:39Z</time>
      </trkpt>
      <trkpt lat="48.60599" lon="2.01358">
        <ele>118.8</ele>
        <time>2023-12-10T10:42:40Z</time>
      </trkpt>
      <trkpt lat="48.60603" lon="2.01365">
        <ele>119.8</ele>
        <time>2023-12-10T10:42:41Z</time>
      </trkpt>
      <trkpt lat="48.60607" lon="2.01371">
        <ele>119.4</ele>
        <time>2023-12-10T10:42:42Z</time>
      </trkpt>
      <trkpt lat="48.60611" lon="2.01378">
        <ele>119.4</ele>
        <time>2023-12-10T10:42:43Z</time>
      </trkpt>
      <trkpt lat="48.60615" lon="2.01385">
        <ele>119.4</ele>
        <time>2023-12-10T10:42:44Z</time>
      </trkpt>
      <trkpt lat="48.60619" lon="2.01391">
        <ele>119.4</ele>
        <time>2023-12-10T10:42:45Z</time>
      </trkpt>
      <trkpt lat="48.60623" lon="2.01398">
        <ele>119.8</ele>
        <time>2023-12-10T10:42:46Z</time>
      </trkpt>
      <trkpt lat="48.60627" lon="2.01405">
        <ele>119.8</ele>
        <time>2023-12-10T10:42:47Z</time>
      </trkpt>
      <trkpt lat="48.60631" lon="2.01412">
        <ele>119.8</ele>
        <time>2023-12-10T10:42:48Z</time>
      </trkpt>
      <trkpt lat="48.60635" lon="2.01419">
        <ele>119.8</ele>
        <time>2023-12-10T10:42:49Z</time>
      </trkpt>
      <trkpt lat="48.60639" lon="2.01426">
        <ele>119.8</ele>
        <time>2023-12-10T10:42:50Z</time>
      </trkpt>
      <trkpt lat="48.60643" lon="2.01434">
        <ele>119.8</ele>
        <time>2023-12-10T10:42:51Z</time>
      </trkpt>
      <trkpt lat="48.60647" lon="2.01441">
        <ele>119.8</ele>
        <time>2023-12-10T10:42:52Z</time>
      </trkpt>
      <trkpt lat="48.60651" lon="2.01448">
        <ele>120.8</ele>
        <time>2023-12-10T10:42:53Z</time>
      </trkpt>
      <trkpt lat="48.60656" lon="2.01456">
        <ele>120.8</ele>
        <time>2023-12-10T10:42:54Z</time>
      </trkpt>
      <trkpt lat="48.6066" lon="2.01464">
        <ele>120.8</ele>
        <time>2023-12-10T10:42:55Z</time>
      </trkpt>
      <trkpt lat="48.60665" lon="2.01472">
        <ele>120.8</ele>
        <time>2023-12-10T10:42:56Z</time>
      </trkpt>
      <trkpt lat="48.6067" lon="2.0148">
        <ele>120.8</ele>
        <time>2023-12-10T10:42:57Z</time>
      </trkpt>
      <trkpt lat="48.60674" lon="2.01488">
        <ele>120.2</ele>
        <time>2023-12-10T10:42:58Z</time>
      </trkpt>
      <trkpt lat="48.60679" lon="2.01496">
        <ele>120.2</ele>
        <time>2023-12-10T10:42:59Z</time>
      </trkpt>
      <trkpt lat="48.60684" lon="2.01504">
        <ele>120.2</ele>
        <time>2023-12-10T10:43:00Z</time>
      </trkpt>
      <trkpt lat="48.60688" lon="2.01513">
        <ele>119.8</ele>
        <time>2023-12-10T10:43:01Z</time>
      </trkpt>
      <trkpt lat="48.60693" lon="2.01521">
        <ele>120.2</ele>
        <time>2023-12-10T10:43:02Z</time>
      </trkpt>
      <trkpt lat="48.60698" lon="2.01529">
        <ele>120.2</ele>
        <time>2023-12-10T10:43:03Z</time>
      </trkpt>
      <trkpt lat="48.60703" lon="2.01538">
        <ele>120.2</ele>
        <time>2023-12-10T10:43:04Z</time>
      </trkpt>
      <trkpt lat="48.60707" lon="2.01546">
        <ele>120.4</ele>
        <time>2023-12-10T10:43:05Z</time>
      </trkpt>
      <trkpt lat="48.60712" lon="2.01555">
        <ele>121.2</ele>
        <time>2023-12-10T10:43:06Z</time>
      </trkpt>
      <trkpt lat="48.60717" lon="2.01563">
        <ele>121.2</ele>
        <time>2023-12-10T10:43:07Z</time>
      </trkpt>
      <trkpt lat="48.60722" lon="2.01573">
        <ele>121.2</ele>
        <time>2023-12-10T10:43:08Z</time>
      </trkpt>
      <trkpt lat="48.60727" lon="2.01581">
        <ele>120.2</ele>
        <time>2023-12-10T10:43:09Z</time>
      </trkpt>
      <trkpt lat="48.60732" lon="2.0159">
        <ele>121</ele>
        <time>2023-12-10T10:43:10Z</time>
      </trkpt>
      <trkpt lat="48.60737" lon="2.01599">
        <ele>121</ele>
        <time>2023-12-10T10:43:11Z</time>
      </trkpt>
      <trkpt lat="48.60743" lon="2.01609">
        <ele>121</ele>
        <time>2023-12-10T10:43:12Z</time>
      </trkpt>
      <trkpt lat="48.60748" lon="2.01618">
        <ele>120.4</ele>
        <time>2023-12-10T10:43:13Z</time>
      </trkpt>
      <trkpt lat="48.60753" lon="2.01627">
        <ele>121</ele>
        <time>2023-12-10T10:43:14Z</time>
      </trkpt>
      <trkpt lat="48.60758" lon="2.01636">
        <ele>121</ele>
        <time>2023-12-10T10:43:15Z</time>
      </trkpt>
      <trkpt lat="48.60763" lon="2.01645">
        <ele>121</ele>
        <time>2023-12-10T10:43:16Z</time>
      </trkpt>
      <trkpt lat="48.60768" lon="2.01654">
        <ele>121</ele>
        <time>2023-12-10T10:43:17Z</time>
      </trkpt>
      <trkpt lat="48.60773" lon="2.01663">
        <ele>120.6</ele>
        <time>2023-12-10T10:43:18Z</time>
      </trkpt>
      <trkpt lat="48.60779" lon="2.01672">
        <ele>120.6</ele>
        <time>2023-12-10T10:43:19Z</time>
      </trkpt>
      <trkpt lat="48.60784" lon="2.01681">
        <ele>120.6</ele>
        <time>2023-12-10T10:43:20Z</time>
      </trkpt>
      <trkpt lat="48.60789" lon="2.0169">
        <ele>120.2</ele>
        <time>2023-12-10T10:43:21Z</time>
      </trkpt>
      <trkpt lat="48.60795" lon="2.01699">
        <ele>121.4</ele>
        <time>2023-12-10T10:43:22Z</time>
      </trkpt>
      <trkpt lat="48.608" lon="2.01708">
        <ele>121.4</ele>
        <time>2023-12-10T10:43:23Z</time>
      </trkpt>
      <trkpt lat="48.60806" lon="2.01717">
        <ele>121.4</ele>
        <time>2023-12-10T10:43:24Z</time>
      </trkpt>
      <trkpt lat="48.60812" lon="2.01726">
        <ele>121.4</ele>
        <time>2023-12-10T10:43:25Z</time>
      </trkpt>
      <trkpt lat="48.60818" lon="2.01734">
        <ele>119.6</ele>
        <time>2023-12-10T10:43:26Z</time>
      </trkpt>
      <trkpt lat="48.60825" lon="2.01742">
        <ele>119.6</ele>
        <time>2023-12-10T10:43:27Z</time>
      </trkpt>
      <trkpt lat="48.60832" lon="2.01751">
        <ele>119.6</ele>
        <time>2023-12-10T10:43:28Z</time>
      </trkpt>
      <trkpt lat="48.60839" lon="2.01759">
        <ele>119.6</ele>
        <time>2023-12-10T10:43:29Z</time>
      </trkpt>
      <trkpt lat="48.60847" lon="2.01767">
        <ele>119</ele>
        <time>2023-12-10T10:43:30Z</time>
      </trkpt>
      <trkpt lat="48.60854" lon="2.01775">
        <ele>119</ele>
        <time>2023-12-10T10:43:31Z</time>
      </trkpt>
      <trkpt lat="48.60862" lon="2.01784">
        <ele>119</ele>
        <time>2023-12-10T10:43:32Z</time>
      </trkpt>
      <trkpt lat="48.6087" lon="2.01792">
        <ele>118</ele>
        <time>2023-12-10T10:43:33Z</time>
      </trkpt>
      <trkpt lat="48.60878" lon="2.01801">
        <ele>117.6</ele>
        <time>2023-12-10T10:43:34Z</time>
      </trkpt>
      <trkpt lat="48.60886" lon="2.0181">
        <ele>117.6</ele>
        <time>2023-12-10T10:43:35Z</time>
      </trkpt>
      <trkpt lat="48.60894" lon="2.01819">
        <ele>117.6</ele>
        <time>2023-12-10T10:43:36Z</time>
      </trkpt>
      <trkpt lat="48.60902" lon="2.01828">
        <ele>117.6</ele>
        <time>2023-12-10T10:43:37Z</time>
      </trkpt>
      <trkpt lat="48.6091" lon="2.01837">
        <ele>118.2</ele>
        <time>2023-12-10T10:43:38Z</time>
      </trkpt>
      <trkpt lat="48.60919" lon="2.01846">
        <ele>118.2</ele>
        <time>2023-12-10T10:43:39Z</time>
      </trkpt>
      <trkpt lat="48.60927" lon="2.01856">
        <ele>118.2</ele>
        <time>2023-12-10T10:43:40Z</time>
      </trkpt>
      <trkpt lat="48.60935" lon="2.01865">
        <ele>117.2</ele>
        <time>2023-12-10T10:43:41Z</time>
      </trkpt>
      <trkpt lat="48.60944" lon="2.01874">
        <ele>117.2</ele>
        <time>2023-12-10T10:43:42Z</time>
      </trkpt>
      <trkpt lat="48.60952" lon="2.01883">
        <ele>117.2</ele>
        <time>2023-12-10T10:43:43Z</time>
      </trkpt>
      <trkpt lat="48.60961" lon="2.01893">
        <ele>117.2</ele>
        <time>2023-12-10T10:43:44Z</time>
      </trkpt>
      <trkpt lat="48.60969" lon="2.01902">
        <ele>117.2</ele>
        <time>2023-12-10T10:43:45Z</time>
      </trkpt>
      <trkpt lat="48.60977" lon="2.01912">
        <ele>115.8</ele>
        <time>2023-12-10T10:43:46Z</time>
      </trkpt>
      <trkpt lat="48.60986" lon="2.01922">
        <ele>115.8</ele>
        <time>2023-12-10T10:43:47Z</time>
      </trkpt>
      <trkpt lat="48.60994" lon="2.01931">
        <ele>115.8</ele>
        <time>2023-12-10T10:43:48Z</time>
      </trkpt>
      <trkpt lat="48.61002" lon="2.0194">
        <ele>115.8</ele>
        <time>2023-12-10T10:43:49Z</time>
      </trkpt>
      <trkpt lat="48.61011" lon="2.0195">
        <ele>115.6</ele>
        <time>2023-12-10T10:43:50Z</time>
      </trkpt>
      <trkpt lat="48.61019" lon="2.01959">
        <ele>115.6</ele>
        <time>2023-12-10T10:43:51Z</time>
      </trkpt>
      <trkpt lat="48.61027" lon="2.01968">
        <ele>115.6</ele>
        <time>2023-12-10T10:43:52Z</time>
      </trkpt>
      <trkpt lat="48.61036" lon="2.01978">
        <ele>114.6</ele>
        <time>2023-12-10T10:43:53Z</time>
      </trkpt>
      <trkpt lat="48.61044" lon="2.01987">
        <ele>114</ele>
        <time>2023-12-10T10:43:54Z</time>
      </trkpt>
      <trkpt lat="48.61052" lon="2.01996">
        <ele>114</ele>
        <time>2023-12-10T10:43:55Z</time>
      </trkpt>
      <trkpt lat="48.6106" lon="2.02005">
        <ele>114</ele>
        <time>2023-12-10T10:43:56Z</time>
      </trkpt>
      <trkpt lat="48.61068" lon="2.02014">
        <ele>114</ele>
        <time>2023-12-10T10:43:57Z</time>
      </trkpt>
      <trkpt lat="48.61076" lon="2.02023">
        <ele>114.8</ele>
        <time>2023-12-10T10:43:58Z</time>
      </trkpt>
      <trkpt lat="48.61085" lon="2.02032">
        <ele>114.8</ele>
        <time>2023-12-10T10:43:59Z</time>
      </trkpt>
      <trkpt lat="48.61093" lon="2.02041">
        <ele>114.8</ele>
        <time>2023-12-10T10:44:00Z</time>
      </trkpt>
      <trkpt lat="48.61101" lon="2.02051">
        <ele>114.4</ele>
        <time>2023-12-10T10:44:01Z</time>
      </trkpt>
      <trkpt lat="48.61108" lon="2.0206">
        <ele>114.6</ele>
        <time>2023-12-10T10:44:02Z</time>
      </trkpt>
      <trkpt lat="48.61116" lon="2.0207">
        <ele>114.6</ele>
        <time>2023-12-10T10:44:03Z</time>
      </trkpt>
      <trkpt lat="48.61123" lon="2.02079">
        <ele>114.6</ele>
        <time>2023-12-10T10:44:04Z</time>
      </trkpt>
      <trkpt lat="48.6113" lon="2.02089">
        <ele>115.6</ele>
        <time>2023-12-10T10:44:05Z</time>
      </trkpt>
      <trkpt lat="48.61137" lon="2.02098">
        <ele>114.4</ele>
        <time>2023-12-10T10:44:06Z</time>
      </trkpt>
      <trkpt lat="48.61143" lon="2.02108">
        <ele>114.4</ele>
        <time>2023-12-10T10:44:07Z</time>
      </trkpt>
      <trkpt lat="48.61149" lon="2.02117">
        <ele>114.4</ele>
        <time>2023-12-10T10:44:08Z</time>
      </trkpt>
      <trkpt lat="48.61155" lon="2.02126">
        <ele>114.6</ele>
        <time>2023-12-10T10:44:09Z</time>
      </trkpt>
      <trkpt lat="48.6116" lon="2.02134">
        <ele>114</ele>
        <time>2023-12-10T10:44:10Z</time>
      </trkpt>
      <trkpt lat="48.61166" lon="2.02143">
        <ele>114</ele>
        <time>2023-12-10T10:44:11Z</time>
      </trkpt>
      <trkpt lat="48.61171" lon="2.02151">
        <ele>114</ele>
        <time>2023-12-10T10:44:12Z</time>
      </trkpt>
      <trkpt lat="48.61177" lon="2.0216">
        <ele>115</ele>
        <time>2023-12-10T10:44:13Z</time>
      </trkpt>
      <trkpt lat="48.61183" lon="2.02169">
        <ele>115.6</ele>
        <time>2023-12-10T10:44:14Z</time>
      </trkpt>
      <trkpt lat="48.61189" lon="2.02177">
        <ele>115.6</ele>
        <time>2023-12-10T10:44:15Z</time>
      </trkpt>
      <trkpt lat="48.61195" lon="2.02186">
        <ele>115.6</ele>
        <time>2023-12-10T10:44:16Z</time>
      </trkpt>
      <trkpt lat="48.612" lon="2.02194">
        <ele>115.8</ele>
        <time>2023-12-10T10:44:17Z</time>
      </trkpt>
      <trkpt lat="48.61206" lon="2.02202">
        <ele>116.6</ele>
        <time>2023-12-10T10:44:18Z</time>
      </trkpt>
      <trkpt lat="48.61211" lon="2.0221">
        <ele>116.6</ele>
        <time>2023-12-10T10:44:19Z</time>
      </trkpt>
      <trkpt lat="48.61216" lon="2.02218">
        <ele>116.6</ele>
        <time>2023-12-10T10:44:20Z</time>
      </trkpt>
      <trkpt lat="48.61221" lon="2.02226">
        <ele>116.4</ele>
        <time>2023-12-10T10:44:21Z</time>
      </trkpt>
      <trkpt lat="48.61226" lon="2.02235">
        <ele>116.6</ele>
        <time>2023-12-10T10:44:22Z</time>
      </trkpt>
      <trkpt lat="48.61232" lon="2.02244">
        <ele>116.6</ele>
        <time>2023-12-10T10:44:23Z</time>
      </trkpt>
      <trkpt lat="48.61237" lon="2.02253">
        <ele>116.6</ele>
        <time>2023-12-10T10:44:24Z</time>
      </trkpt>
      <trkpt lat="48.61243" lon="2.02262">
        <ele>116.6</ele>
        <time>2023-12-10T10:44:25Z</time>
      </trkpt>
      <trkpt lat="48.61248" lon="2.02272">
        <ele>115.6</ele>
        <time>2023-12-10T10:44:26Z</time>
      </trkpt>
      <trkpt lat="48.61254" lon="2.02282">
        <ele>115.6</ele>
        <time>2023-12-10T10:44:27Z</time>
      </trkpt>
      <trkpt lat="48.61259" lon="2.02292">
        <ele>115.6</ele>
        <time>2023-12-10T10:44:28Z</time>
      </trkpt>
      <trkpt lat="48.61264" lon="2.02301">
        <ele>116.4</ele>
        <time>2023-12-10T10:44:29Z</time>
      </trkpt>
      <trkpt lat="48.61269" lon="2.0231">
        <ele>116.8</ele>
        <time>2023-12-10T10:44:30Z</time>
      </trkpt>
      <trkpt lat="48.61273" lon="2.0232">
        <ele>116.8</ele>
        <time>2023-12-10T10:44:31Z</time>
      </trkpt>
      <trkpt lat="48.61277" lon="2.0233">
        <ele>116.8</ele>
        <time>2023-12-10T10:44:32Z</time>
      </trkpt>
      <trkpt lat="48.61282" lon="2.0234">
        <ele>117.2</ele>
        <time>2023-12-10T10:44:33Z</time>
      </trkpt>
      <trkpt lat="48.61286" lon="2.02349">
        <ele>118</ele>
        <time>2023-12-10T10:44:34Z</time>
      </trkpt>
      <trkpt lat="48.6129" lon="2.02359">
        <ele>118</ele>
        <time>2023-12-10T10:44:35Z</time>
      </trkpt>
      <trkpt lat="48.61294" lon="2.02369">
        <ele>118</ele>
        <time>2023-12-10T10:44:36Z</time>
      </trkpt>
      <trkpt lat="48.61298" lon="2.02379">
        <ele>118</ele>
        <time>2023-12-10T10:44:37Z</time>
      </trkpt>
      <trkpt lat="48.61302" lon="2.0239">
        <ele>116.8</ele>
        <time>2023-12-10T10:44:38Z</time>
      </trkpt>
      <trkpt lat="48.61305" lon="2.024">
        <ele>116.8</ele>
        <time>2023-12-10T10:44:39Z</time>
      </trkpt>
      <trkpt lat="48.61309" lon="2.02411">
        <ele>116.8</ele>
        <time>2023-12-10T10:44:40Z</time>
      </trkpt>
      <trkpt lat="48.61313" lon="2.02422">
        <ele>116.8</ele>
        <time>2023-12-10T10:44:41Z</time>
      </trkpt>
      <trkpt lat="48.61316" lon="2.02432">
        <ele>117.4</ele>
        <time>2023-12-10T10:44:42Z</time>
      </trkpt>
      <trkpt lat="48.6132" lon="2.02443">
        <ele>117.4</ele>
        <time>2023-12-10T10:44:43Z</time>
      </trkpt>
      <trkpt lat="48.61323" lon="2.02453">
        <ele>117.4</ele>
        <time>2023-12-10T10:44:44Z</time>
      </trkpt>
      <trkpt lat="48.61326" lon="2.02463">
        <ele>117.2</ele>
        <time>2023-12-10T10:44:45Z</time>
      </trkpt>
      <trkpt lat="48.6133" lon="2.02473">
        <ele>117.4</ele>
        <time>2023-12-10T10:44:46Z</time>
      </trkpt>
      <trkpt lat="48.61333" lon="2.02483">
        <ele>117.4</ele>
        <time>2023-12-10T10:44:47Z</time>
      </trkpt>
      <trkpt lat="48.61336" lon="2.02494">
        <ele>117.4</ele>
        <time>2023-12-10T10:44:48Z</time>
      </trkpt>
      <trkpt lat="48.61339" lon="2.02504">
        <ele>117.4</ele>
        <time>2023-12-10T10:44:49Z</time>
      </trkpt>
      <trkpt lat="48.61342" lon="2.02514">
        <ele>117.4</ele>
        <time>2023-12-10T10:44:50Z</time>
      </trkpt>
      <trkpt lat="48.61345" lon="2.02524">
        <ele>117.4</ele>
        <time>2023-12-10T10:44:51Z</time>
      </trkpt>
      <trkpt lat="48.61349" lon="2.02533">
        <ele>117.4</ele>
        <time>2023-12-10T10:44:52Z</time>
      </trkpt>
      <trkpt lat="48.61352" lon="2.02543">
        <ele>117.4</ele>
        <time>2023-12-10T10:44:53Z</time>
      </trkpt>
      <trkpt lat="48.61355" lon="2.02552">
        <ele>118</ele>
        <time>2023-12-10T10:44:54Z</time>
      </trkpt>
      <trkpt lat="48.61359" lon="2.02562">
        <ele>118</ele>
        <time>2023-12-10T10:44:55Z</time>
      </trkpt>
      <trkpt lat="48.61362" lon="2.02572">
        <ele>118</ele>
        <time>2023-12-10T10:44:56Z</time>
      </trkpt>
      <trkpt lat="48.61365" lon="2.02581">
        <ele>118</ele>
        <time>2023-12-10T10:44:57Z</time>
      </trkpt>
      <trkpt lat="48.61368" lon="2.02591">
        <ele>118.2</ele>
        <time>2023-12-10T10:44:58Z</time>
      </trkpt>
      <trkpt lat="48.61372" lon="2.026">
        <ele>118.2</ele>
        <time>2023-12-10T10:44:59Z</time>
      </trkpt>
      <trkpt lat="48.61375" lon="2.0261">
        <ele>118.2</ele>
        <time>2023-12-10T10:45:00Z</time>
      </trkpt>
      <trkpt lat="48.61378" lon="2.02619">
        <ele>118.8</ele>
        <time>2023-12-10T10:45:01Z</time>
      </trkpt>
      <trkpt lat="48.61382" lon="2.02628">
        <ele>119.6</ele>
        <time>2023-12-10T10:45:02Z</time>
      </trkpt>
      <trkpt lat="48.61385" lon="2.02637">
        <ele>119.6</ele>
        <time>2023-12-10T10:45:03Z</time>
      </trkpt>
      <trkpt lat="48.61388" lon="2.02647">
        <ele>119.6</ele>
        <time>2023-12-10T10:45:04Z</time>
      </trkpt>
      <trkpt lat="48.61391" lon="2.02656">
        <ele>119.6</ele>
        <time>2023-12-10T10:45:05Z</time>
      </trkpt>
      <trkpt lat="48.61394" lon="2.02666">
        <ele>120.2</ele>
        <time>2023-12-10T10:45:06Z</time>
      </trkpt>
      <trkpt lat="48.61397" lon="2.02675">
        <ele>120.2</ele>
        <time>2023-12-10T10:45:07Z</time>
      </trkpt>
      <trkpt lat="48.614" lon="2.02684">
        <ele>120.2</ele>
        <time>2023-12-10T10:45:08Z</time>
      </trkpt>
      <trkpt lat="48.61403" lon="2.02692">
        <ele>121</ele>
        <time>2023-12-10T10:45:09Z</time>
      </trkpt>
      <trkpt lat="48.61405" lon="2.02699">
        <ele>121.8</ele>
        <time>2023-12-10T10:45:10Z</time>
      </trkpt>
      <trkpt lat="48.61407" lon="2.02704">
        <ele>121.8</ele>
        <time>2023-12-10T10:45:11Z</time>
      </trkpt>
      <trkpt lat="48.61409" lon="2.0271">
        <ele>121.8</ele>
        <time>2023-12-10T10:45:12Z</time>
      </trkpt>
      <trkpt lat="48.61411" lon="2.02714">
        <ele>121.6</ele>
        <time>2023-12-10T10:45:13Z</time>
      </trkpt>
      <trkpt lat="48.61414" lon="2.02715">
        <ele>121.2</ele>
        <time>2023-12-10T10:45:14Z</time>
      </trkpt>
      <trkpt lat="48.61418" lon="2.02713">
        <ele>121.2</ele>
        <time>2023-12-10T10:45:15Z</time>
      </trkpt>
      <trkpt lat="48.61421" lon="2.02708">
        <ele>121.2</ele>
        <time>2023-12-10T10:45:16Z</time>
      </trkpt>
      <trkpt lat="48.61424" lon="2.02703">
        <ele>120.2</ele>
        <time>2023-12-10T10:45:17Z</time>
      </trkpt>
      <trkpt lat="48.61429" lon="2.02699">
        <ele>120.8</ele>
        <time>2023-12-10T10:45:18Z</time>
      </trkpt>
      <trkpt lat="48.61434" lon="2.02697">
        <ele>120.8</ele>
        <time>2023-12-10T10:45:19Z</time>
      </trkpt>
      <trkpt lat="48.61439" lon="2.02696">
        <ele>120.8</ele>
        <time>2023-12-10T10:45:20Z</time>
      </trkpt>
      <trkpt lat="48.61445" lon="2.02695">
        <ele>120.8</ele>
        <time>2023-12-10T10:45:21Z</time>
      </trkpt>
      <trkpt lat="48.6145" lon="2.02693">
        <ele>120.6</ele>
        <time>2023-12-10T10:45:22Z</time>
      </trkpt>
      <trkpt lat="48.61455" lon="2.02691">
        <ele>120.6</ele>
        <time>2023-12-10T10:45:23Z</time>
      </trkpt>
      <trkpt lat="48.6146" lon="2.02688">
        <ele>120.6</ele>
        <time>2023-12-10T10:45:24Z</time>
      </trkpt>
      <trkpt lat="48.61465" lon="2.02685">
        <ele>120.6</ele>
        <time>2023-12-10T10:45:25Z</time>
      </trkpt>
      <trkpt lat="48.61471" lon="2.02683">
        <ele>120.4</ele>
        <time>2023-12-10T10:45:26Z</time>
      </trkpt>
      <trkpt lat="48.61477" lon="2.02682">
        <ele>120.4</ele>
        <time>2023-12-10T10:45:27Z</time>
      </trkpt>
      <trkpt lat="48.61482" lon="2.02679">
        <ele>120.4</ele>
        <time>2023-12-10T10:45:28Z</time>
      </trkpt>
      <trkpt lat="48.61487" lon="2.02676">
        <ele>121</ele>
        <time>2023-12-10T10:45:29Z</time>
      </trkpt>
      <trkpt lat="48.61494" lon="2.02674">
        <ele>121</ele>
        <time>2023-12-10T10:45:30Z</time>
      </trkpt>
      <trkpt lat="48.615" lon="2.02674">
        <ele>121</ele>
        <time>2023-12-10T10:45:31Z</time>
      </trkpt>
      <trkpt lat="48.61507" lon="2.02676">
        <ele>121</ele>
        <time>2023-12-10T10:45:32Z</time>
      </trkpt>
      <trkpt lat="48.61513" lon="2.02681">
        <ele>121</ele>
        <time>2023-12-10T10:45:33Z</time>
      </trkpt>
      <trkpt lat="48.61519" lon="2.02687">
        <ele>119.6</ele>
        <time>2023-12-10T10:45:34Z</time>
      </trkpt>
      <trkpt lat="48.61524" lon="2.02694">
        <ele>119.6</ele>
        <time>2023-12-10T10:45:35Z</time>
      </trkpt>
      <trkpt lat="48.61529" lon="2.02701">
        <ele>119.6</ele>
        <time>2023-12-10T10:45:36Z</time>
      </trkpt>
      <trkpt lat="48.61535" lon="2.02709">
        <ele>119.6</ele>
        <time>2023-12-10T10:45:37Z</time>
      </trkpt>
      <trkpt lat="48.6154" lon="2.02717">
        <ele>119.4</ele>
        <time>2023-12-10T10:45:38Z</time>
      </trkpt>
      <trkpt lat="48.61546" lon="2.02725">
        <ele>119.4</ele>
        <time>2023-12-10T10:45:39Z</time>
      </trkpt>
      <trkpt lat="48.61552" lon="2.02732">
        <ele>119.4</ele>
        <time>2023-12-10T10:45:40Z</time>
      </trkpt>
      <trkpt lat="48.61558" lon="2.02739">
        <ele>120.4</ele>
        <time>2023-12-10T10:45:41Z</time>
      </trkpt>
      <trkpt lat="48.61564" lon="2.02747">
        <ele>121.8</ele>
        <time>2023-12-10T10:45:42Z</time>
      </trkpt>
      <trkpt lat="48.61569" lon="2.02754">
        <ele>121.8</ele>
        <time>2023-12-10T10:45:43Z</time>
      </trkpt>
      <trkpt lat="48.61575" lon="2.02762">
        <ele>121.8</ele>
        <time>2023-12-10T10:45:44Z</time>
      </trkpt>
      <trkpt lat="48.61581" lon="2.02769">
        <ele>121.8</ele>
        <time>2023-12-10T10:45:45Z</time>
      </trkpt>
      <trkpt lat="48.61586" lon="2.02777">
        <ele>121.8</ele>
        <time>2023-12-10T10:45:46Z</time>
      </trkpt>
      <trkpt lat="48.61591" lon="2.02785">
        <ele>121.8</ele>
        <time>2023-12-10T10:45:47Z</time>
      </trkpt>
      <trkpt lat="48.61597" lon="2.02792">
        <ele>121.8</ele>
        <time>2023-12-10T10:45:48Z</time>
      </trkpt>
      <trkpt lat="48.61602" lon="2.028">
        <ele>122.2</ele>
        <time>2023-12-10T10:45:49Z</time>
      </trkpt>
      <trkpt lat="48.61608" lon="2.02807">
        <ele>122</ele>
        <time>2023-12-10T10:45:50Z</time>
      </trkpt>
      <trkpt lat="48.61613" lon="2.02815">
        <ele>122</ele>
        <time>2023-12-10T10:45:51Z</time>
      </trkpt>
      <trkpt lat="48.61618" lon="2.02823">
        <ele>122</ele>
        <time>2023-12-10T10:45:52Z</time>
      </trkpt>
      <trkpt lat="48.61623" lon="2.0283">
        <ele>122</ele>
        <time>2023-12-10T10:45:53Z</time>
      </trkpt>
      <trkpt lat="48.61628" lon="2.02838">
        <ele>123</ele>
        <time>2023-12-10T10:45:54Z</time>
      </trkpt>
      <trkpt lat="48.61634" lon="2.02845">
        <ele>123</ele>
        <time>2023-12-10T10:45:55Z</time>
      </trkpt>
      <trkpt lat="48.61639" lon="2.02853">
        <ele>123</ele>
        <time>2023-12-10T10:45:56Z</time>
      </trkpt>
      <trkpt lat="48.61644" lon="2.0286">
        <ele>122.4</ele>
        <time>2023-12-10T10:45:57Z</time>
      </trkpt>
      <trkpt lat="48.61649" lon="2.02867">
        <ele>123.2</ele>
        <time>2023-12-10T10:45:58Z</time>
      </trkpt>
      <trkpt lat="48.61654" lon="2.02874">
        <ele>123.2</ele>
        <time>2023-12-10T10:45:59Z</time>
      </trkpt>
      <trkpt lat="48.6166" lon="2.02881">
        <ele>123.2</ele>
        <time>2023-12-10T10:46:00Z</time>
      </trkpt>
      <trkpt lat="48.61665" lon="2.02888">
        <ele>123.2</ele>
        <time>2023-12-10T10:46:01Z</time>
      </trkpt>
      <trkpt lat="48.61671" lon="2.02893">
        <ele>123.2</ele>
        <time>2023-12-10T10:46:02Z</time>
      </trkpt>
      <trkpt lat="48.61677" lon="2.02897">
        <ele>123.2</ele>
        <time>2023-12-10T10:46:03Z</time>
      </trkpt>
      <trkpt lat="48.61684" lon="2.02901">
        <ele>123.2</ele>
        <time>2023-12-10T10:46:04Z</time>
      </trkpt>
      <trkpt lat="48.6169" lon="2.02905">
        <ele>124.2</ele>
        <time>2023-12-10T10:46:05Z</time>
      </trkpt>
      <trkpt lat="48.61695" lon="2.0291">
        <ele>124</ele>
        <time>2023-12-10T10:46:06Z</time>
      </trkpt>
      <trkpt lat="48.61701" lon="2.02914">
        <ele>124</ele>
        <time>2023-12-10T10:46:07Z</time>
      </trkpt>
      <trkpt lat="48.61707" lon="2.02917">
        <ele>124</ele>
        <time>2023-12-10T10:46:08Z</time>
      </trkpt>
      <trkpt lat="48.61712" lon="2.0292">
        <ele>124</ele>
        <time>2023-12-10T10:46:09Z</time>
      </trkpt>
      <trkpt lat="48.61717" lon="2.02922">
        <ele>124.2</ele>
        <time>2023-12-10T10:46:10Z</time>
      </trkpt>
      <trkpt lat="48.61721" lon="2.0292">
        <ele>124.2</ele>
        <time>2023-12-10T10:46:11Z</time>
      </trkpt>
      <trkpt lat="48.61725" lon="2.02915">
        <ele>124.2</ele>
        <time>2023-12-10T10:46:12Z</time>
      </trkpt>
      <trkpt lat="48.61728" lon="2.02909">
        <ele>124.4</ele>
        <time>2023-12-10T10:46:13Z</time>
      </trkpt>
      <trkpt lat="48.61731" lon="2.02902">
        <ele>125</ele>
        <time>2023-12-10T10:46:14Z</time>
      </trkpt>
      <trkpt lat="48.61734" lon="2.02896">
        <ele>125</ele>
        <time>2023-12-10T10:46:15Z</time>
      </trkpt>
      <trkpt lat="48.61737" lon="2.02889">
        <ele>125</ele>
        <time>2023-12-10T10:46:16Z</time>
      </trkpt>
      <trkpt lat="48.61742" lon="2.02883">
        <ele>125</ele>
        <time>2023-12-10T10:46:17Z</time>
      </trkpt>
      <trkpt lat="48.61747" lon="2.02875">
        <ele>125.4</ele>
        <time>2023-12-10T10:46:18Z</time>
      </trkpt>
      <trkpt lat="48.61752" lon="2.02868">
        <ele>125.4</ele>
        <time>2023-12-10T10:46:19Z</time>
      </trkpt>
      <trkpt lat="48.61757" lon="2.02861">
        <ele>125.4</ele>
        <time>2023-12-10T10:46:20Z</time>
      </trkpt>
      <trkpt lat="48.61762" lon="2.02854">
        <ele>125</ele>
        <time>2023-12-10T10:46:21Z</time>
      </trkpt>
      <trkpt lat="48.61767" lon="2.02847">
        <ele>124.6</ele>
        <time>2023-12-10T10:46:22Z</time>
      </trkpt>
      <trkpt lat="48.61772" lon="2.02841">
        <ele>124.6</ele>
        <time>2023-12-10T10:46:23Z</time>
      </trkpt>
      <trkpt lat="48.61777" lon="2.02835">
        <ele>124.6</ele>
        <time>2023-12-10T10:46:24Z</time>
      </trkpt>
      <trkpt lat="48.61782" lon="2.02828">
        <ele>124.6</ele>
        <time>2023-12-10T10:46:25Z</time>
      </trkpt>
      <trkpt lat="48.61787" lon="2.02823">
        <ele>125.6</ele>
        <time>2023-12-10T10:46:26Z</time>
      </trkpt>
      <trkpt lat="48.61792" lon="2.02817">
        <ele>125.6</ele>
        <time>2023-12-10T10:46:27Z</time>
      </trkpt>
      <trkpt lat="48.61796" lon="2.02813">
        <ele>125.6</ele>
        <time>2023-12-10T10:46:28Z</time>
      </trkpt>
      <trkpt lat="48.618" lon="2.02807">
        <ele>126.6</ele>
        <time>2023-12-10T10:46:29Z</time>
      </trkpt>
      <trkpt lat="48.61805" lon="2.02801">
        <ele>126.8</ele>
        <time>2023-12-10T10:46:30Z</time>
      </trkpt>
      <trkpt lat="48.6181" lon="2.02795">
        <ele>126.8</ele>
        <time>2023-12-10T10:46:31Z</time>
      </trkpt>
      <trkpt lat="48.61814" lon="2.02788">
        <ele>126.8</ele>
        <time>2023-12-10T10:46:32Z</time>
      </trkpt>
      <trkpt lat="48.61818" lon="2.02782">
        <ele>126.8</ele>
        <time>2023-12-10T10:46:33Z</time>
      </trkpt>
      <trkpt lat="48.61823" lon="2.02776">
        <ele>127.6</ele>
        <time>2023-12-10T10:46:34Z</time>
      </trkpt>
      <trkpt lat="48.61827" lon="2.0277">
        <ele>127.6</ele>
        <time>2023-12-10T10:46:35Z</time>
      </trkpt>
      <trkpt lat="48.61832" lon="2.02765">
        <ele>127.6</ele>
        <time>2023-12-10T10:46:36Z</time>
      </trkpt>
      <trkpt lat="48.61837" lon="2.02758">
        <ele>127.6</ele>
        <time>2023-12-10T10:46:37Z</time>
      </trkpt>
      <trkpt lat="48.61842" lon="2.02753">
        <ele>127.8</ele>
        <time>2023-12-10T10:46:38Z</time>
      </trkpt>
      <trkpt lat="48.61846" lon="2.02747">
        <ele>127.8</ele>
        <time>2023-12-10T10:46:39Z</time>
      </trkpt>
      <trkpt lat="48.61851" lon="2.02741">
        <ele>127.8</ele>
        <time>2023-12-10T10:46:40Z</time>
      </trkpt>
      <trkpt lat="48.61856" lon="2.02735">
        <ele>128.2</ele>
        <time>2023-12-10T10:46:41Z</time>
      </trkpt>
      <trkpt lat="48.61861" lon="2.02729">
        <ele>127.6</ele>
        <time>2023-12-10T10:46:42Z</time>
      </trkpt>
      <trkpt lat="48.61866" lon="2.02723">
        <ele>127.6</ele>
        <time>2023-12-10T10:46:43Z</time>
      </trkpt>
      <trkpt lat="48.61871" lon="2.02717">
        <ele>127.6</ele>
        <time>2023-12-10T10:46:44Z</time>
      </trkpt>
      <trkpt lat="48.61875" lon="2.0271">
        <ele>128.6</ele>
        <time>2023-12-10T10:46:45Z</time>
      </trkpt>
      <trkpt lat="48.6188" lon="2.02703">
        <ele>128</ele>
        <time>2023-12-10T10:46:46Z</time>
      </trkpt>
      <trkpt lat="48.61885" lon="2.02699">
        <ele>128</ele>
        <time>2023-12-10T10:46:47Z</time>
      </trkpt>
      <trkpt lat="48.61889" lon="2.02693">
        <ele>128</ele>
        <time>2023-12-10T10:46:48Z</time>
      </trkpt>
      <trkpt lat="48.61894" lon="2.02686">
        <ele>129</ele>
        <time>2023-12-10T10:46:49Z</time>
      </trkpt>
      <trkpt lat="48.61898" lon="2.02679">
        <ele>128.6</ele>
        <time>2023-12-10T10:46:50Z</time>
      </trkpt>
      <trkpt lat="48.61903" lon="2.02672">
        <ele>128.6</ele>
        <time>2023-12-10T10:46:51Z</time>
      </trkpt>
      <trkpt lat="48.61907" lon="2.02665">
        <ele>128.6</ele>
        <time>2023-12-10T10:46:52Z</time>
      </trkpt>
      <trkpt lat="48.61912" lon="2.02658">
        <ele>128.6</ele>
        <time>2023-12-10T10:46:53Z</time>
      </trkpt>
      <trkpt lat="48.61916" lon="2.02652">
        <ele>129.4</ele>
        <time>2023-12-10T10:46:54Z</time>
      </trkpt>
      <trkpt lat="48.61921" lon="2.02645">
        <ele>129.4</ele>
        <time>2023-12-10T10:46:55Z</time>
      </trkpt>
      <trkpt lat="48.61926" lon="2.02638">
        <ele>129.4</ele>
        <time>2023-12-10T10:46:56Z</time>
      </trkpt>
      <trkpt lat="48.61931" lon="2.02632">
        <ele>130.4</ele>
        <time>2023-12-10T10:46:57Z</time>
      </trkpt>
      <trkpt lat="48.61935" lon="2.02625">
        <ele>131</ele>
        <time>2023-12-10T10:46:58Z</time>
      </trkpt>
      <trkpt lat="48.61938" lon="2.02618">
        <ele>131</ele>
        <time>2023-12-10T10:46:59Z</time>
      </trkpt>
      <trkpt lat="48.61938" lon="2.02609">
        <ele>131</ele>
        <time>2023-12-10T10:47:00Z</time>
      </trkpt>
      <trkpt lat="48.6194" lon="2.02604">
        <ele>130</ele>
        <time>2023-12-10T10:47:01Z</time>
      </trkpt>
      <trkpt lat="48.61943" lon="2.02599">
        <ele>129.6</ele>
        <time>2023-12-10T10:47:02Z</time>
      </trkpt>
      <trkpt lat="48.61946" lon="2.02594">
        <ele>129.6</ele>
        <time>2023-12-10T10:47:03Z</time>
      </trkpt>
      <trkpt lat="48.61949" lon="2.02589">
        <ele>129.6</ele>
        <time>2023-12-10T10:47:04Z</time>
      </trkpt>
      <trkpt lat="48.61953" lon="2.02584">
        <ele>129.6</ele>
        <time>2023-12-10T10:47:05Z</time>
      </trkpt>
      <trkpt lat="48.61956" lon="2.02577">
        <ele>128.6</ele>
        <time>2023-12-10T10:47:06Z</time>
      </trkpt>
      <trkpt lat="48.61961" lon="2.02572">
        <ele>128.6</ele>
        <time>2023-12-10T10:47:07Z</time>
      </trkpt>
      <trkpt lat="48.61967" lon="2.02568">
        <ele>128.6</ele>
        <time>2023-12-10T10:47:08Z</time>
      </trkpt>
      <trkpt lat="48.61973" lon="2.02563">
        <ele>128.6</ele>
        <time>2023-12-10T10:47:09Z</time>
      </trkpt>
      <trkpt lat="48.6198" lon="2.02558">
        <ele>128.4</ele>
        <time>2023-12-10T10:47:10Z</time>
      </trkpt>
      <trkpt lat="48.61987" lon="2.02553">
        <ele>128.4</ele>
        <time>2023-12-10T10:47:11Z</time>
      </trkpt>
      <trkpt lat="48.61993" lon="2.02547">
        <ele>128.4</ele>
        <time>2023-12-10T10:47:12Z</time>
      </trkpt>
      <trkpt lat="48.62" lon="2.02542">
        <ele>128.4</ele>
        <time>2023-12-10T10:47:13Z</time>
      </trkpt>
      <trkpt lat="48.62008" lon="2.02537">
        <ele>128</ele>
        <time>2023-12-10T10:47:14Z</time>
      </trkpt>
      <trkpt lat="48.62015" lon="2.02532">
        <ele>128</ele>
        <time>2023-12-10T10:47:15Z</time>
      </trkpt>
      <trkpt lat="48.62022" lon="2.02527">
        <ele>128</ele>
        <time>2023-12-10T10:47:16Z</time>
      </trkpt>
      <trkpt lat="48.62029" lon="2.02522">
        <ele>127.8</ele>
        <time>2023-12-10T10:47:17Z</time>
      </trkpt>
      <trkpt lat="48.62036" lon="2.02518">
        <ele>128.4</ele>
        <time>2023-12-10T10:47:18Z</time>
      </trkpt>
      <trkpt lat="48.62044" lon="2.02513">
        <ele>128.4</ele>
        <time>2023-12-10T10:47:19Z</time>
      </trkpt>
      <trkpt lat="48.62051" lon="2.02509">
        <ele>128.4</ele>
        <time>2023-12-10T10:47:20Z</time>
      </trkpt>
      <trkpt lat="48.62058" lon="2.02508">
        <ele>128.4</ele>
        <time>2023-12-10T10:47:21Z</time>
      </trkpt>
      <trkpt lat="48.62065" lon="2.02508">
        <ele>128.2</ele>
        <time>2023-12-10T10:47:22Z</time>
      </trkpt>
      <trkpt lat="48.62073" lon="2.02509">
        <ele>128.2</ele>
        <time>2023-12-10T10:47:23Z</time>
      </trkpt>
      <trkpt lat="48.6208" lon="2.0251">
        <ele>128.2</ele>
        <time>2023-12-10T10:47:24Z</time>
      </trkpt>
      <trkpt lat="48.62087" lon="2.02511">
        <ele>128.2</ele>
        <time>2023-12-10T10:47:25Z</time>
      </trkpt>
      <trkpt lat="48.62094" lon="2.02512">
        <ele>128.4</ele>
        <time>2023-12-10T10:47:26Z</time>
      </trkpt>
      <trkpt lat="48.621" lon="2.02512">
        <ele>128.4</ele>
        <time>2023-12-10T10:47:27Z</time>
      </trkpt>
      <trkpt lat="48.62107" lon="2.02509">
        <ele>128.4</ele>
        <time>2023-12-10T10:47:28Z</time>
      </trkpt>
      <trkpt lat="48.62113" lon="2.02504">
        <ele>128.4</ele>
        <time>2023-12-10T10:47:29Z</time>
      </trkpt>
      <trkpt lat="48.62119" lon="2.02498">
        <ele>128.6</ele>
        <time>2023-12-10T10:47:30Z</time>
      </trkpt>
      <trkpt lat="48.62126" lon="2.02493">
        <ele>128.6</ele>
        <time>2023-12-10T10:47:31Z</time>
      </trkpt>
      <trkpt lat="48.62132" lon="2.02487">
        <ele>128.6</ele>
        <time>2023-12-10T10:47:32Z</time>
      </trkpt>
      <trkpt lat="48.62138" lon="2.02481">
        <ele>127.6</ele>
        <time>2023-12-10T10:47:33Z</time>
      </trkpt>
      <trkpt lat="48.62144" lon="2.02475">
        <ele>128.2</ele>
        <time>2023-12-10T10:47:34Z</time>
      </trkpt>
      <trkpt lat="48.6215" lon="2.02467">
        <ele>128.2</ele>
        <time>2023-12-10T10:47:35Z</time>
      </trkpt>
      <trkpt lat="48.62155" lon="2.0246">
        <ele>128.2</ele>
        <time>2023-12-10T10:47:36Z</time>
      </trkpt>
      <trkpt lat="48.6216" lon="2.02454">
        <ele>128.2</ele>
        <time>2023-12-10T10:47:37Z</time>
      </trkpt>
      <trkpt lat="48.62164" lon="2.02448">
        <ele>130</ele>
        <time>2023-12-10T10:47:38Z</time>
      </trkpt>
      <trkpt lat="48.62166" lon="2.02444">
        <ele>130</ele>
        <time>2023-12-10T10:47:39Z</time>
      </trkpt>
      <trkpt lat="48.62169" lon="2.02442">
        <ele>130</ele>
        <time>2023-12-10T10:47:40Z</time>
      </trkpt>
      <trkpt lat="48.62171" lon="2.02439">
        <ele>130.2</ele>
        <time>2023-12-10T10:47:41Z</time>
      </trkpt>
      <trkpt lat="48.62174" lon="2.02437">
        <ele>129.2</ele>
        <time>2023-12-10T10:47:42Z</time>
      </trkpt>
      <trkpt lat="48.62177" lon="2.02434">
        <ele>129.2</ele>
        <time>2023-12-10T10:47:43Z</time>
      </trkpt>
      <trkpt lat="48.6218" lon="2.02429">
        <ele>129.2</ele>
        <time>2023-12-10T10:47:44Z</time>
      </trkpt>
      <trkpt lat="48.62184" lon="2.02423">
        <ele>129.2</ele>
        <time>2023-12-10T10:47:45Z</time>
      </trkpt>
      <trkpt lat="48.62188" lon="2.02417">
        <ele>130</ele>
        <time>2023-12-10T10:47:46Z</time>
      </trkpt>
      <trkpt lat="48.6219" lon="2.02409">
        <ele>130</ele>
        <time>2023-12-10T10:47:47Z</time>
      </trkpt>
      <trkpt lat="48.62192" lon="2.024">
        <ele>130</ele>
        <time>2023-12-10T10:47:48Z</time>
      </trkpt>
      <trkpt lat="48.62193" lon="2.02391">
        <ele>129</ele>
        <time>2023-12-10T10:47:49Z</time>
      </trkpt>
      <trkpt lat="48.62195" lon="2.02381">
        <ele>128.2</ele>
        <time>2023-12-10T10:47:50Z</time>
      </trkpt>
      <trkpt lat="48.62196" lon="2.02371">
        <ele>128.2</ele>
        <time>2023-12-10T10:47:51Z</time>
      </trkpt>
      <trkpt lat="48.62197" lon="2.02362">
        <ele>128.2</ele>
        <time>2023-12-10T10:47:52Z</time>
      </trkpt>
      <trkpt lat="48.62198" lon="2.02353">
        <ele>128.2</ele>
        <time>2023-12-10T10:47:53Z</time>
      </trkpt>
      <trkpt lat="48.62199" lon="2.02345">
        <ele>129.4</ele>
        <time>2023-12-10T10:47:54Z</time>
      </trkpt>
      <trkpt lat="48.622" lon="2.02337">
        <ele>129.4</ele>
        <time>2023-12-10T10:47:55Z</time>
      </trkpt>
      <trkpt lat="48.62201" lon="2.02328">
        <ele>129.4</ele>
        <time>2023-12-10T10:47:56Z</time>
      </trkpt>
      <trkpt lat="48.622" lon="2.02319">
        <ele>129.4</ele>
        <time>2023-12-10T10:47:57Z</time>
      </trkpt>
      <trkpt lat="48.622" lon="2.02309">
        <ele>127.8</ele>
        <time>2023-12-10T10:47:58Z</time>
      </trkpt>
      <trkpt lat="48.622" lon="2.023">
        <ele>127.8</ele>
        <time>2023-12-10T10:47:59Z</time>
      </trkpt>
      <trkpt lat="48.62199" lon="2.0229">
        <ele>127.8</ele>
        <time>2023-12-10T10:48:00Z</time>
      </trkpt>
      <trkpt lat="48.62198" lon="2.0228">
        <ele>127.8</ele>
        <time>2023-12-10T10:48:01Z</time>
      </trkpt>
      <trkpt lat="48.62198" lon="2.0227">
        <ele>128</ele>
        <time>2023-12-10T10:48:02Z</time>
      </trkpt>
      <trkpt lat="48.62197" lon="2.02259">
        <ele>128</ele>
        <time>2023-12-10T10:48:03Z</time>
      </trkpt>
      <trkpt lat="48.62197" lon="2.02249">
        <ele>128</ele>
        <time>2023-12-10T10:48:04Z</time>
      </trkpt>
      <trkpt lat="48.62196" lon="2.02238">
        <ele>128</ele>
        <time>2023-12-10T10:48:05Z</time>
      </trkpt>
      <trkpt lat="48.62196" lon="2.02227">
        <ele>127.2</ele>
        <time>2023-12-10T10:48:06Z</time>
      </trkpt>
      <trkpt lat="48.62197" lon="2.02215">
        <ele>127.2</ele>
        <time>2023-12-10T10:48:07Z</time>
      </trkpt>
      <trkpt lat="48.62198" lon="2.02203">
        <ele>127.2</ele>
        <time>2023-12-10T10:48:08Z</time>
      </trkpt>
      <trkpt lat="48.62198" lon="2.0219">
        <ele>127.2</ele>
        <time>2023-12-10T10:48:09Z</time>
      </trkpt>
      <trkpt lat="48.62199" lon="2.02177">
        <ele>127.6</ele>
        <time>2023-12-10T10:48:10Z</time>
      </trkpt>
      <trkpt lat="48.622" lon="2.02163">
        <ele>127.6</ele>
        <time>2023-12-10T10:48:11Z</time>
      </trkpt>
      <trkpt lat="48.62201" lon="2.0215">
        <ele>127.6</ele>
        <time>2023-12-10T10:48:12Z</time>
      </trkpt>
      <trkpt lat="48.62202" lon="2.02136">
        <ele>127.6</ele>
        <time>2023-12-10T10:48:13Z</time>
      </trkpt>
      <trkpt lat="48.62203" lon="2.02123">
        <ele>127</ele>
        <time>2023-12-10T10:48:14Z</time>
      </trkpt>
      <trkpt lat="48.62205" lon="2.02109">
        <ele>127</ele>
        <time>2023-12-10T10:48:15Z</time>
      </trkpt>
      <trkpt lat="48.62206" lon="2.02096">
        <ele>127</ele>
        <time>2023-12-10T10:48:16Z</time>
      </trkpt>
      <trkpt lat="48.62207" lon="2.02082">
        <ele>127</ele>
        <time>2023-12-10T10:48:17Z</time>
      </trkpt>
      <trkpt lat="48.62209" lon="2.02068">
        <ele>126.2</ele>
        <time>2023-12-10T10:48:18Z</time>
      </trkpt>
      <trkpt lat="48.6221" lon="2.02055">
        <ele>126.2</ele>
        <time>2023-12-10T10:48:19Z</time>
      </trkpt>
      <trkpt lat="48.62212" lon="2.02042">
        <ele>126.2</ele>
        <time>2023-12-10T10:48:20Z</time>
      </trkpt>
      <trkpt lat="48.62213" lon="2.02029">
        <ele>126.6</ele>
        <time>2023-12-10T10:48:21Z</time>
      </trkpt>
      <trkpt lat="48.62215" lon="2.02015">
        <ele>127.2</ele>
        <time>2023-12-10T10:48:22Z</time>
      </trkpt>
      <trkpt lat="48.62216" lon="2.02002">
        <ele>127.2</ele>
        <time>2023-12-10T10:48:23Z</time>
      </trkpt>
      <trkpt lat="48.62217" lon="2.01989">
        <ele>127.2</ele>
        <time>2023-12-10T10:48:24Z</time>
      </trkpt>
      <trkpt lat="48.62219" lon="2.01976">
        <ele>127.2</ele>
        <time>2023-12-10T10:48:25Z</time>
      </trkpt>
      <trkpt lat="48.6222" lon="2.01963">
        <ele>128.2</ele>
        <time>2023-12-10T10:48:26Z</time>
      </trkpt>
      <trkpt lat="48.62221" lon="2.01951">
        <ele>128.2</ele>
        <time>2023-12-10T10:48:27Z</time>
      </trkpt>
      <trkpt lat="48.62222" lon="2.0194">
        <ele>128.2</ele>
        <time>2023-12-10T10:48:28Z</time>
      </trkpt>
      <trkpt lat="48.62223" lon="2.01929">
        <ele>129</ele>
        <time>2023-12-10T10:48:29Z</time>
      </trkpt>
      <trkpt lat="48.62225" lon="2.01919">
        <ele>129.6</ele>
        <time>2023-12-10T10:48:30Z</time>
      </trkpt>
      <trkpt lat="48.62226" lon="2.01909">
        <ele>129.6</ele>
        <time>2023-12-10T10:48:31Z</time>
      </trkpt>
      <trkpt lat="48.6223" lon="2.01901">
        <ele>129.6</ele>
        <time>2023-12-10T10:48:32Z</time>
      </trkpt>
      <trkpt lat="48.62235" lon="2.01895">
        <ele>129.6</ele>
        <time>2023-12-10T10:48:33Z</time>
      </trkpt>
      <trkpt lat="48.6224" lon="2.0189">
        <ele>130.8</ele>
        <time>2023-12-10T10:48:34Z</time>
      </trkpt>
      <trkpt lat="48.62245" lon="2.01887">
        <ele>130.8</ele>
        <time>2023-12-10T10:48:35Z</time>
      </trkpt>
      <trkpt lat="48.62249" lon="2.01881">
        <ele>130.8</ele>
        <time>2023-12-10T10:48:36Z</time>
      </trkpt>
      <trkpt lat="48.6225" lon="2.01873">
        <ele>130.8</ele>
        <time>2023-12-10T10:48:37Z</time>
      </trkpt>
      <trkpt lat="48.62249" lon="2.01866">
        <ele>131.6</ele>
        <time>2023-12-10T10:48:38Z</time>
      </trkpt>
      <trkpt lat="48.62246" lon="2.01859">
        <ele>131.6</ele>
        <time>2023-12-10T10:48:39Z</time>
      </trkpt>
      <trkpt lat="48.62246" lon="2.01853">
        <ele>131.6</ele>
        <time>2023-12-10T10:48:40Z</time>
      </trkpt>
      <trkpt lat="48.62249" lon="2.01847">
        <ele>131.6</ele>
        <time>2023-12-10T10:48:41Z</time>
      </trkpt>
      <trkpt lat="48.62253" lon="2.01842">
        <ele>131.2</ele>
        <time>2023-12-10T10:48:42Z</time>
      </trkpt>
      <trkpt lat="48.62256" lon="2.01838">
        <ele>131.2</ele>
        <time>2023-12-10T10:48:43Z</time>
      </trkpt>
      <trkpt lat="48.62258" lon="2.01835">
        <ele>131.2</ele>
        <time>2023-12-10T10:48:44Z</time>
      </trkpt>
      <trkpt lat="48.6226" lon="2.01832">
        <ele>132.2</ele>
        <time>2023-12-10T10:48:45Z</time>
      </trkpt>
      <trkpt lat="48.62261" lon="2.01832">
        <ele>132.4</ele>
        <time>2023-12-10T10:48:46Z</time>
      </trkpt>
      <trkpt lat="48.62261" lon="2.01831">
        <ele>132.4</ele>
        <time>2023-12-10T10:48:47Z</time>
      </trkpt>
      <trkpt lat="48.62261" lon="2.01831">
        <ele>132.4</ele>
        <time>2023-12-10T10:48:48Z</time>
      </trkpt>
    </trkseg>
  </trk>
</gpx>